<?xml version="1.0" encoding="UTF-8" standalone="no" ?>
<gpx xmlns="http://www.topografix.com/GPX/1/1" xmlns:xsi="http://www.w3.org/2001/XMLSchema-instance" xsi:schemaLocation="http://www.topografix.com/GPX/1/1 http://www.topografix.com/GPX/1/1/gpx.xsd" version="1.1" creator="VisuGPX - https://www.visugpx.com">
  <metadata>
    <name>2018-07-07 Bike ride-Le Saule d'Oingt-Oingt</name>
    <desc><![CDATA[2018-07-07 Bike ride-Le Saule d'Oingt-Oingt]]></desc>
  </metadata>
  <wpt lat="45.92455" lon="4.73708">
    <ele>174</ele>
    <name><![CDATA[2018-07-07 10:27 (Start)]]></name>
  </wpt>
  <wpt lat="45.92455" lon="4.7371">
    <ele>174</ele>
    <name><![CDATA[2018-07-07 10:27 (End)]]></name>
  </wpt>
  <trk>
    <name><![CDATA[2018-07-07 10:27]]></name>
    <trkseg>
      <trkpt lat="45.92455" lon="4.73708">
        <ele>174</ele>
        <time>2018-07-07T08:27:21.766Z</time>
      </trkpt>
      <trkpt lat="45.92457" lon="4.73709">
        <ele>174</ele>
        <time>2018-07-07T08:27:37Z</time>
      </trkpt>
      <trkpt lat="45.92457" lon="4.73709">
        <ele>174</ele>
        <time>2018-07-07T08:27:38Z</time>
      </trkpt>
      <trkpt lat="45.92456" lon="4.7371">
        <ele>174</ele>
        <time>2018-07-07T08:27:42Z</time>
      </trkpt>
      <trkpt lat="45.92456" lon="4.7371">
        <ele>174</ele>
        <time>2018-07-07T08:27:43Z</time>
      </trkpt>
      <trkpt lat="45.92463" lon="4.73705">
        <ele>174</ele>
        <time>2018-07-07T08:27:49Z</time>
      </trkpt>
      <trkpt lat="45.92465" lon="4.73703">
        <ele>174</ele>
        <time>2018-07-07T08:27:50Z</time>
      </trkpt>
      <trkpt lat="45.92466" lon="4.73693">
        <ele>174</ele>
        <time>2018-07-07T08:27:53Z</time>
      </trkpt>
      <trkpt lat="45.92466" lon="4.73689">
        <ele>174</ele>
        <time>2018-07-07T08:27:54Z</time>
      </trkpt>
      <trkpt lat="45.92467" lon="4.73681">
        <ele>174</ele>
        <time>2018-07-07T08:27:56Z</time>
      </trkpt>
      <trkpt lat="45.92468" lon="4.73677">
        <ele>174</ele>
        <time>2018-07-07T08:27:57Z</time>
      </trkpt>
      <trkpt lat="45.9247" lon="4.73669">
        <ele>174</ele>
        <time>2018-07-07T08:27:59Z</time>
      </trkpt>
      <trkpt lat="45.92473" lon="4.73658">
        <ele>174</ele>
        <time>2018-07-07T08:28:00Z</time>
      </trkpt>
      <trkpt lat="45.92473" lon="4.73647">
        <ele>174</ele>
        <time>2018-07-07T08:28:01Z</time>
      </trkpt>
      <trkpt lat="45.92473" lon="4.73641">
        <ele>174</ele>
        <time>2018-07-07T08:28:02Z</time>
      </trkpt>
      <trkpt lat="45.92473" lon="4.73631">
        <ele>174</ele>
        <time>2018-07-07T08:28:04Z</time>
      </trkpt>
      <trkpt lat="45.92474" lon="4.73625">
        <ele>174</ele>
        <time>2018-07-07T08:28:05Z</time>
      </trkpt>
      <trkpt lat="45.92473" lon="4.73612">
        <ele>174</ele>
        <time>2018-07-07T08:28:07Z</time>
      </trkpt>
      <trkpt lat="45.92473" lon="4.73606">
        <ele>174</ele>
        <time>2018-07-07T08:28:08Z</time>
      </trkpt>
      <trkpt lat="45.92473" lon="4.73595">
        <ele>174</ele>
        <time>2018-07-07T08:28:10Z</time>
      </trkpt>
      <trkpt lat="45.92473" lon="4.73588">
        <ele>174</ele>
        <time>2018-07-07T08:28:11Z</time>
      </trkpt>
      <trkpt lat="45.92473" lon="4.73578">
        <ele>173</ele>
        <time>2018-07-07T08:28:13Z</time>
      </trkpt>
      <trkpt lat="45.92472" lon="4.73572">
        <ele>173</ele>
        <time>2018-07-07T08:28:14Z</time>
      </trkpt>
      <trkpt lat="45.92472" lon="4.7356">
        <ele>173</ele>
        <time>2018-07-07T08:28:16Z</time>
      </trkpt>
      <trkpt lat="45.92471" lon="4.73557">
        <ele>173</ele>
        <time>2018-07-07T08:28:17Z</time>
      </trkpt>
      <trkpt lat="45.92469" lon="4.73547">
        <ele>173</ele>
        <time>2018-07-07T08:28:20Z</time>
      </trkpt>
      <trkpt lat="45.92469" lon="4.73536">
        <ele>174</ele>
        <time>2018-07-07T08:28:21Z</time>
      </trkpt>
      <trkpt lat="45.92468" lon="4.73524">
        <ele>174</ele>
        <time>2018-07-07T08:28:23Z</time>
      </trkpt>
      <trkpt lat="45.9247" lon="4.73518">
        <ele>174</ele>
        <time>2018-07-07T08:28:24Z</time>
      </trkpt>
      <trkpt lat="45.92469" lon="4.7351">
        <ele>174</ele>
        <time>2018-07-07T08:28:25Z</time>
      </trkpt>
      <trkpt lat="45.92469" lon="4.73503">
        <ele>174</ele>
        <time>2018-07-07T08:28:26Z</time>
      </trkpt>
      <trkpt lat="45.92469" lon="4.73495">
        <ele>173</ele>
        <time>2018-07-07T08:28:27Z</time>
      </trkpt>
      <trkpt lat="45.9247" lon="4.73488">
        <ele>173</ele>
        <time>2018-07-07T08:28:28Z</time>
      </trkpt>
      <trkpt lat="45.92469" lon="4.73479">
        <ele>173</ele>
        <time>2018-07-07T08:28:29Z</time>
      </trkpt>
      <trkpt lat="45.92469" lon="4.73473">
        <ele>173</ele>
        <time>2018-07-07T08:28:30Z</time>
      </trkpt>
      <trkpt lat="45.92468" lon="4.73465">
        <ele>173</ele>
        <time>2018-07-07T08:28:32Z</time>
      </trkpt>
      <trkpt lat="45.92467" lon="4.73456">
        <ele>173</ele>
        <time>2018-07-07T08:28:33Z</time>
      </trkpt>
      <trkpt lat="45.92467" lon="4.73449">
        <ele>173</ele>
        <time>2018-07-07T08:28:34Z</time>
      </trkpt>
      <trkpt lat="45.92466" lon="4.7344">
        <ele>173</ele>
        <time>2018-07-07T08:28:35Z</time>
      </trkpt>
      <trkpt lat="45.92464" lon="4.73433">
        <ele>173</ele>
        <time>2018-07-07T08:28:36Z</time>
      </trkpt>
      <trkpt lat="45.92462" lon="4.73429">
        <ele>173</ele>
        <time>2018-07-07T08:28:37Z</time>
      </trkpt>
      <trkpt lat="45.92456" lon="4.73424">
        <ele>173</ele>
        <time>2018-07-07T08:28:38Z</time>
      </trkpt>
      <trkpt lat="45.92453" lon="4.73422">
        <ele>173</ele>
        <time>2018-07-07T08:28:39Z</time>
      </trkpt>
      <trkpt lat="45.92448" lon="4.73418">
        <ele>173</ele>
        <time>2018-07-07T08:28:40Z</time>
      </trkpt>
      <trkpt lat="45.92444" lon="4.73415">
        <ele>172</ele>
        <time>2018-07-07T08:28:41Z</time>
      </trkpt>
      <trkpt lat="45.9244" lon="4.73413">
        <ele>172</ele>
        <time>2018-07-07T08:28:42Z</time>
      </trkpt>
      <trkpt lat="45.92434" lon="4.73408">
        <ele>172</ele>
        <time>2018-07-07T08:28:43Z</time>
      </trkpt>
      <trkpt lat="45.92431" lon="4.73404">
        <ele>172</ele>
        <time>2018-07-07T08:28:44Z</time>
      </trkpt>
      <trkpt lat="45.92429" lon="4.73397">
        <ele>172</ele>
        <time>2018-07-07T08:28:45Z</time>
      </trkpt>
      <trkpt lat="45.92427" lon="4.7339">
        <ele>172</ele>
        <time>2018-07-07T08:28:46Z</time>
      </trkpt>
      <trkpt lat="45.92426" lon="4.73383">
        <ele>172</ele>
        <time>2018-07-07T08:28:47Z</time>
      </trkpt>
      <trkpt lat="45.92424" lon="4.73371">
        <ele>172</ele>
        <time>2018-07-07T08:28:49Z</time>
      </trkpt>
      <trkpt lat="45.92422" lon="4.73364">
        <ele>172</ele>
        <time>2018-07-07T08:28:50Z</time>
      </trkpt>
      <trkpt lat="45.9242" lon="4.73357">
        <ele>171</ele>
        <time>2018-07-07T08:28:51Z</time>
      </trkpt>
      <trkpt lat="45.92419" lon="4.73351">
        <ele>171</ele>
        <time>2018-07-07T08:28:52Z</time>
      </trkpt>
      <trkpt lat="45.92417" lon="4.73344">
        <ele>171</ele>
        <time>2018-07-07T08:28:53Z</time>
      </trkpt>
      <trkpt lat="45.92416" lon="4.73337">
        <ele>171</ele>
        <time>2018-07-07T08:28:54Z</time>
      </trkpt>
      <trkpt lat="45.92415" lon="4.7333">
        <ele>171</ele>
        <time>2018-07-07T08:28:55Z</time>
      </trkpt>
      <trkpt lat="45.92415" lon="4.73324">
        <ele>171</ele>
        <time>2018-07-07T08:28:56Z</time>
      </trkpt>
      <trkpt lat="45.92414" lon="4.73314">
        <ele>171</ele>
        <time>2018-07-07T08:28:57Z</time>
      </trkpt>
      <trkpt lat="45.92413" lon="4.73306">
        <ele>171</ele>
        <time>2018-07-07T08:28:58Z</time>
      </trkpt>
      <trkpt lat="45.9241" lon="4.73299">
        <ele>171</ele>
        <time>2018-07-07T08:28:59Z</time>
      </trkpt>
      <trkpt lat="45.9241" lon="4.73292">
        <ele>171</ele>
        <time>2018-07-07T08:29:00Z</time>
      </trkpt>
      <trkpt lat="45.92408" lon="4.73285">
        <ele>171</ele>
        <time>2018-07-07T08:29:01Z</time>
      </trkpt>
      <trkpt lat="45.92408" lon="4.73277">
        <ele>171</ele>
        <time>2018-07-07T08:29:02Z</time>
      </trkpt>
      <trkpt lat="45.92407" lon="4.73269">
        <ele>171</ele>
        <time>2018-07-07T08:29:03Z</time>
      </trkpt>
      <trkpt lat="45.92406" lon="4.73262">
        <ele>171</ele>
        <time>2018-07-07T08:29:04Z</time>
      </trkpt>
      <trkpt lat="45.92406" lon="4.73253">
        <ele>171</ele>
        <time>2018-07-07T08:29:05Z</time>
      </trkpt>
      <trkpt lat="45.92407" lon="4.73245">
        <ele>171</ele>
        <time>2018-07-07T08:29:06Z</time>
      </trkpt>
      <trkpt lat="45.92407" lon="4.73237">
        <ele>171</ele>
        <time>2018-07-07T08:29:07Z</time>
      </trkpt>
      <trkpt lat="45.92407" lon="4.7323">
        <ele>171</ele>
        <time>2018-07-07T08:29:08Z</time>
      </trkpt>
      <trkpt lat="45.92407" lon="4.73223">
        <ele>171</ele>
        <time>2018-07-07T08:29:09Z</time>
      </trkpt>
      <trkpt lat="45.92406" lon="4.73215">
        <ele>171</ele>
        <time>2018-07-07T08:29:10Z</time>
      </trkpt>
      <trkpt lat="45.92405" lon="4.73207">
        <ele>171</ele>
        <time>2018-07-07T08:29:11Z</time>
      </trkpt>
      <trkpt lat="45.92406" lon="4.73199">
        <ele>171</ele>
        <time>2018-07-07T08:29:12Z</time>
      </trkpt>
      <trkpt lat="45.92406" lon="4.73191">
        <ele>171</ele>
        <time>2018-07-07T08:29:13Z</time>
      </trkpt>
      <trkpt lat="45.92405" lon="4.73183">
        <ele>171</ele>
        <time>2018-07-07T08:29:14Z</time>
      </trkpt>
      <trkpt lat="45.92404" lon="4.73171">
        <ele>171</ele>
        <time>2018-07-07T08:29:16Z</time>
      </trkpt>
      <trkpt lat="45.92404" lon="4.73164">
        <ele>170</ele>
        <time>2018-07-07T08:29:17Z</time>
      </trkpt>
      <trkpt lat="45.92404" lon="4.73157">
        <ele>171</ele>
        <time>2018-07-07T08:29:18Z</time>
      </trkpt>
      <trkpt lat="45.92404" lon="4.7315">
        <ele>171</ele>
        <time>2018-07-07T08:29:19Z</time>
      </trkpt>
      <trkpt lat="45.92404" lon="4.73143">
        <ele>171</ele>
        <time>2018-07-07T08:29:20Z</time>
      </trkpt>
      <trkpt lat="45.92404" lon="4.73136">
        <ele>171</ele>
        <time>2018-07-07T08:29:21Z</time>
      </trkpt>
      <trkpt lat="45.92407" lon="4.73129">
        <ele>171</ele>
        <time>2018-07-07T08:29:22Z</time>
      </trkpt>
      <trkpt lat="45.92408" lon="4.73123">
        <ele>171</ele>
        <time>2018-07-07T08:29:23Z</time>
      </trkpt>
      <trkpt lat="45.92413" lon="4.73113">
        <ele>171</ele>
        <time>2018-07-07T08:29:25Z</time>
      </trkpt>
      <trkpt lat="45.92417" lon="4.73109">
        <ele>170</ele>
        <time>2018-07-07T08:29:26Z</time>
      </trkpt>
      <trkpt lat="45.92422" lon="4.73106">
        <ele>171</ele>
        <time>2018-07-07T08:29:27Z</time>
      </trkpt>
      <trkpt lat="45.92427" lon="4.73103">
        <ele>171</ele>
        <time>2018-07-07T08:29:28Z</time>
      </trkpt>
      <trkpt lat="45.9243" lon="4.73096">
        <ele>171</ele>
        <time>2018-07-07T08:29:29Z</time>
      </trkpt>
      <trkpt lat="45.92434" lon="4.73093">
        <ele>171</ele>
        <time>2018-07-07T08:29:30Z</time>
      </trkpt>
      <trkpt lat="45.9244" lon="4.73088">
        <ele>171</ele>
        <time>2018-07-07T08:29:32Z</time>
      </trkpt>
      <trkpt lat="45.92446" lon="4.73083">
        <ele>170</ele>
        <time>2018-07-07T08:29:33Z</time>
      </trkpt>
      <trkpt lat="45.92451" lon="4.73078">
        <ele>170</ele>
        <time>2018-07-07T08:29:34Z</time>
      </trkpt>
      <trkpt lat="45.92456" lon="4.73074">
        <ele>170</ele>
        <time>2018-07-07T08:29:35Z</time>
      </trkpt>
      <trkpt lat="45.92461" lon="4.7307">
        <ele>170</ele>
        <time>2018-07-07T08:29:36Z</time>
      </trkpt>
      <trkpt lat="45.92466" lon="4.73065">
        <ele>170</ele>
        <time>2018-07-07T08:29:37Z</time>
      </trkpt>
      <trkpt lat="45.9247" lon="4.73061">
        <ele>170</ele>
        <time>2018-07-07T08:29:38Z</time>
      </trkpt>
      <trkpt lat="45.92473" lon="4.73056">
        <ele>170</ele>
        <time>2018-07-07T08:29:39Z</time>
      </trkpt>
      <trkpt lat="45.92478" lon="4.73054">
        <ele>170</ele>
        <time>2018-07-07T08:29:40Z</time>
      </trkpt>
      <trkpt lat="45.92483" lon="4.7305">
        <ele>170</ele>
        <time>2018-07-07T08:29:41Z</time>
      </trkpt>
      <trkpt lat="45.92488" lon="4.73046">
        <ele>170</ele>
        <time>2018-07-07T08:29:42Z</time>
      </trkpt>
      <trkpt lat="45.92493" lon="4.73042">
        <ele>170</ele>
        <time>2018-07-07T08:29:43Z</time>
      </trkpt>
      <trkpt lat="45.92497" lon="4.73039">
        <ele>170</ele>
        <time>2018-07-07T08:29:44Z</time>
      </trkpt>
      <trkpt lat="45.92501" lon="4.73033">
        <ele>169</ele>
        <time>2018-07-07T08:29:45Z</time>
      </trkpt>
      <trkpt lat="45.92505" lon="4.73028">
        <ele>169</ele>
        <time>2018-07-07T08:29:46Z</time>
      </trkpt>
      <trkpt lat="45.9251" lon="4.73024">
        <ele>169</ele>
        <time>2018-07-07T08:29:47Z</time>
      </trkpt>
      <trkpt lat="45.92515" lon="4.7302">
        <ele>169</ele>
        <time>2018-07-07T08:29:48Z</time>
      </trkpt>
      <trkpt lat="45.92519" lon="4.73016">
        <ele>169</ele>
        <time>2018-07-07T08:29:49Z</time>
      </trkpt>
      <trkpt lat="45.92523" lon="4.73012">
        <ele>169</ele>
        <time>2018-07-07T08:29:50Z</time>
      </trkpt>
      <trkpt lat="45.92527" lon="4.73009">
        <ele>169</ele>
        <time>2018-07-07T08:29:51Z</time>
      </trkpt>
      <trkpt lat="45.92532" lon="4.73006">
        <ele>169</ele>
        <time>2018-07-07T08:29:52Z</time>
      </trkpt>
      <trkpt lat="45.92538" lon="4.73">
        <ele>169</ele>
        <time>2018-07-07T08:29:53Z</time>
      </trkpt>
      <trkpt lat="45.92542" lon="4.72997">
        <ele>169</ele>
        <time>2018-07-07T08:29:54Z</time>
      </trkpt>
      <trkpt lat="45.92547" lon="4.72991">
        <ele>169</ele>
        <time>2018-07-07T08:29:55Z</time>
      </trkpt>
      <trkpt lat="45.92551" lon="4.72986">
        <ele>169</ele>
        <time>2018-07-07T08:29:56Z</time>
      </trkpt>
      <trkpt lat="45.92555" lon="4.72982">
        <ele>169</ele>
        <time>2018-07-07T08:29:57Z</time>
      </trkpt>
      <trkpt lat="45.92558" lon="4.72978">
        <ele>169</ele>
        <time>2018-07-07T08:29:58Z</time>
      </trkpt>
      <trkpt lat="45.92563" lon="4.72973">
        <ele>169</ele>
        <time>2018-07-07T08:29:59Z</time>
      </trkpt>
      <trkpt lat="45.92565" lon="4.72963">
        <ele>169</ele>
        <time>2018-07-07T08:30:01Z</time>
      </trkpt>
      <trkpt lat="45.9257" lon="4.7296">
        <ele>169</ele>
        <time>2018-07-07T08:30:02Z</time>
      </trkpt>
      <trkpt lat="45.92574" lon="4.72956">
        <ele>169</ele>
        <time>2018-07-07T08:30:03Z</time>
      </trkpt>
      <trkpt lat="45.92579" lon="4.72952">
        <ele>169</ele>
        <time>2018-07-07T08:30:04Z</time>
      </trkpt>
      <trkpt lat="45.92583" lon="4.72947">
        <ele>169</ele>
        <time>2018-07-07T08:30:05Z</time>
      </trkpt>
      <trkpt lat="45.92588" lon="4.72942">
        <ele>169</ele>
        <time>2018-07-07T08:30:06Z</time>
      </trkpt>
      <trkpt lat="45.92592" lon="4.72938">
        <ele>169</ele>
        <time>2018-07-07T08:30:07Z</time>
      </trkpt>
      <trkpt lat="45.92597" lon="4.72934">
        <ele>169</ele>
        <time>2018-07-07T08:30:08Z</time>
      </trkpt>
      <trkpt lat="45.92602" lon="4.72931">
        <ele>169</ele>
        <time>2018-07-07T08:30:09Z</time>
      </trkpt>
      <trkpt lat="45.92604" lon="4.72923">
        <ele>169</ele>
        <time>2018-07-07T08:30:10Z</time>
      </trkpt>
      <trkpt lat="45.92608" lon="4.72918">
        <ele>169</ele>
        <time>2018-07-07T08:30:11Z</time>
      </trkpt>
      <trkpt lat="45.92613" lon="4.72914">
        <ele>169</ele>
        <time>2018-07-07T08:30:12Z</time>
      </trkpt>
      <trkpt lat="45.92617" lon="4.7291">
        <ele>169</ele>
        <time>2018-07-07T08:30:13Z</time>
      </trkpt>
      <trkpt lat="45.92622" lon="4.72907">
        <ele>169</ele>
        <time>2018-07-07T08:30:14Z</time>
      </trkpt>
      <trkpt lat="45.92626" lon="4.72905">
        <ele>169</ele>
        <time>2018-07-07T08:30:15Z</time>
      </trkpt>
      <trkpt lat="45.92631" lon="4.72902">
        <ele>169</ele>
        <time>2018-07-07T08:30:16Z</time>
      </trkpt>
      <trkpt lat="45.92637" lon="4.72898">
        <ele>169</ele>
        <time>2018-07-07T08:30:17Z</time>
      </trkpt>
      <trkpt lat="45.9264" lon="4.72896">
        <ele>169</ele>
        <time>2018-07-07T08:30:18Z</time>
      </trkpt>
      <trkpt lat="45.92644" lon="4.72888">
        <ele>169</ele>
        <time>2018-07-07T08:30:20Z</time>
      </trkpt>
      <trkpt lat="45.92648" lon="4.72885">
        <ele>169</ele>
        <time>2018-07-07T08:30:21Z</time>
      </trkpt>
      <trkpt lat="45.92652" lon="4.72879">
        <ele>169</ele>
        <time>2018-07-07T08:30:23Z</time>
      </trkpt>
      <trkpt lat="45.92657" lon="4.72877">
        <ele>169</ele>
        <time>2018-07-07T08:30:24Z</time>
      </trkpt>
      <trkpt lat="45.92664" lon="4.72873">
        <ele>169</ele>
        <time>2018-07-07T08:30:26Z</time>
      </trkpt>
      <trkpt lat="45.92669" lon="4.7287">
        <ele>169</ele>
        <time>2018-07-07T08:30:27Z</time>
      </trkpt>
      <trkpt lat="45.92674" lon="4.72865">
        <ele>169</ele>
        <time>2018-07-07T08:30:29Z</time>
      </trkpt>
      <trkpt lat="45.92678" lon="4.72862">
        <ele>169</ele>
        <time>2018-07-07T08:30:30Z</time>
      </trkpt>
      <trkpt lat="45.92682" lon="4.72858">
        <ele>169</ele>
        <time>2018-07-07T08:30:31Z</time>
      </trkpt>
      <trkpt lat="45.92686" lon="4.72855">
        <ele>169</ele>
        <time>2018-07-07T08:30:32Z</time>
      </trkpt>
      <trkpt lat="45.92691" lon="4.72848">
        <ele>169</ele>
        <time>2018-07-07T08:30:34Z</time>
      </trkpt>
      <trkpt lat="45.92695" lon="4.72845">
        <ele>169</ele>
        <time>2018-07-07T08:30:35Z</time>
      </trkpt>
      <trkpt lat="45.927" lon="4.72843">
        <ele>169</ele>
        <time>2018-07-07T08:30:36Z</time>
      </trkpt>
      <trkpt lat="45.92705" lon="4.7284">
        <ele>169</ele>
        <time>2018-07-07T08:30:37Z</time>
      </trkpt>
      <trkpt lat="45.9271" lon="4.72837">
        <ele>169</ele>
        <time>2018-07-07T08:30:38Z</time>
      </trkpt>
      <trkpt lat="45.92716" lon="4.72834">
        <ele>169</ele>
        <time>2018-07-07T08:30:39Z</time>
      </trkpt>
      <trkpt lat="45.9272" lon="4.7283">
        <ele>170</ele>
        <time>2018-07-07T08:30:40Z</time>
      </trkpt>
      <trkpt lat="45.92724" lon="4.72828">
        <ele>170</ele>
        <time>2018-07-07T08:30:41Z</time>
      </trkpt>
      <trkpt lat="45.92728" lon="4.72824">
        <ele>170</ele>
        <time>2018-07-07T08:30:42Z</time>
      </trkpt>
      <trkpt lat="45.92732" lon="4.7282">
        <ele>170</ele>
        <time>2018-07-07T08:30:43Z</time>
      </trkpt>
      <trkpt lat="45.92738" lon="4.72817">
        <ele>170</ele>
        <time>2018-07-07T08:30:44Z</time>
      </trkpt>
      <trkpt lat="45.92741" lon="4.72815">
        <ele>170</ele>
        <time>2018-07-07T08:30:45Z</time>
      </trkpt>
      <trkpt lat="45.92746" lon="4.7281">
        <ele>170</ele>
        <time>2018-07-07T08:30:46Z</time>
      </trkpt>
      <trkpt lat="45.9275" lon="4.72807">
        <ele>170</ele>
        <time>2018-07-07T08:30:47Z</time>
      </trkpt>
      <trkpt lat="45.92755" lon="4.72803">
        <ele>170</ele>
        <time>2018-07-07T08:30:48Z</time>
      </trkpt>
      <trkpt lat="45.92759" lon="4.728">
        <ele>170</ele>
        <time>2018-07-07T08:30:49Z</time>
      </trkpt>
      <trkpt lat="45.92765" lon="4.72797">
        <ele>170</ele>
        <time>2018-07-07T08:30:50Z</time>
      </trkpt>
      <trkpt lat="45.9277" lon="4.72795">
        <ele>170</ele>
        <time>2018-07-07T08:30:51Z</time>
      </trkpt>
      <trkpt lat="45.92774" lon="4.7279">
        <ele>170</ele>
        <time>2018-07-07T08:30:52Z</time>
      </trkpt>
      <trkpt lat="45.92777" lon="4.72787">
        <ele>170</ele>
        <time>2018-07-07T08:30:53Z</time>
      </trkpt>
      <trkpt lat="45.92786" lon="4.72785">
        <ele>171</ele>
        <time>2018-07-07T08:30:55Z</time>
      </trkpt>
      <trkpt lat="45.92792" lon="4.72785">
        <ele>171</ele>
        <time>2018-07-07T08:30:56Z</time>
      </trkpt>
      <trkpt lat="45.92798" lon="4.72791">
        <ele>171</ele>
        <time>2018-07-07T08:30:58Z</time>
      </trkpt>
      <trkpt lat="45.92798" lon="4.72799">
        <ele>171</ele>
        <time>2018-07-07T08:30:59Z</time>
      </trkpt>
      <trkpt lat="45.928" lon="4.72806">
        <ele>170</ele>
        <time>2018-07-07T08:31:00Z</time>
      </trkpt>
      <trkpt lat="45.92801" lon="4.72813">
        <ele>170</ele>
        <time>2018-07-07T08:31:01Z</time>
      </trkpt>
      <trkpt lat="45.92802" lon="4.72819">
        <ele>170</ele>
        <time>2018-07-07T08:31:02Z</time>
      </trkpt>
      <trkpt lat="45.92803" lon="4.72826">
        <ele>170</ele>
        <time>2018-07-07T08:31:03Z</time>
      </trkpt>
      <trkpt lat="45.92805" lon="4.72834">
        <ele>170</ele>
        <time>2018-07-07T08:31:04Z</time>
      </trkpt>
      <trkpt lat="45.92806" lon="4.72839">
        <ele>170</ele>
        <time>2018-07-07T08:31:05Z</time>
      </trkpt>
      <trkpt lat="45.92808" lon="4.72847">
        <ele>170</ele>
        <time>2018-07-07T08:31:06Z</time>
      </trkpt>
      <trkpt lat="45.92809" lon="4.72855">
        <ele>170</ele>
        <time>2018-07-07T08:31:07Z</time>
      </trkpt>
      <trkpt lat="45.92812" lon="4.72862">
        <ele>170</ele>
        <time>2018-07-07T08:31:08Z</time>
      </trkpt>
      <trkpt lat="45.92814" lon="4.72869">
        <ele>170</ele>
        <time>2018-07-07T08:31:09Z</time>
      </trkpt>
      <trkpt lat="45.92816" lon="4.72879">
        <ele>170</ele>
        <time>2018-07-07T08:31:10Z</time>
      </trkpt>
      <trkpt lat="45.92818" lon="4.72887">
        <ele>170</ele>
        <time>2018-07-07T08:31:11Z</time>
      </trkpt>
      <trkpt lat="45.92819" lon="4.72895">
        <ele>170</ele>
        <time>2018-07-07T08:31:12Z</time>
      </trkpt>
      <trkpt lat="45.9282" lon="4.72902">
        <ele>170</ele>
        <time>2018-07-07T08:31:13Z</time>
      </trkpt>
      <trkpt lat="45.92821" lon="4.7291">
        <ele>170</ele>
        <time>2018-07-07T08:31:14Z</time>
      </trkpt>
      <trkpt lat="45.92823" lon="4.72917">
        <ele>170</ele>
        <time>2018-07-07T08:31:15Z</time>
      </trkpt>
      <trkpt lat="45.92824" lon="4.72926">
        <ele>170</ele>
        <time>2018-07-07T08:31:16Z</time>
      </trkpt>
      <trkpt lat="45.92824" lon="4.72934">
        <ele>170</ele>
        <time>2018-07-07T08:31:17Z</time>
      </trkpt>
      <trkpt lat="45.92825" lon="4.72943">
        <ele>170</ele>
        <time>2018-07-07T08:31:18Z</time>
      </trkpt>
      <trkpt lat="45.92828" lon="4.72953">
        <ele>170</ele>
        <time>2018-07-07T08:31:19Z</time>
      </trkpt>
      <trkpt lat="45.92829" lon="4.72961">
        <ele>170</ele>
        <time>2018-07-07T08:31:20Z</time>
      </trkpt>
      <trkpt lat="45.92828" lon="4.72968">
        <ele>170</ele>
        <time>2018-07-07T08:31:21Z</time>
      </trkpt>
      <trkpt lat="45.92829" lon="4.72976">
        <ele>170</ele>
        <time>2018-07-07T08:31:22Z</time>
      </trkpt>
      <trkpt lat="45.9283" lon="4.72983">
        <ele>170</ele>
        <time>2018-07-07T08:31:23Z</time>
      </trkpt>
      <trkpt lat="45.92831" lon="4.72996">
        <ele>170</ele>
        <time>2018-07-07T08:31:25Z</time>
      </trkpt>
      <trkpt lat="45.92833" lon="4.73004">
        <ele>170</ele>
        <time>2018-07-07T08:31:26Z</time>
      </trkpt>
      <trkpt lat="45.92833" lon="4.73012">
        <ele>170</ele>
        <time>2018-07-07T08:31:27Z</time>
      </trkpt>
      <trkpt lat="45.92834" lon="4.73019">
        <ele>171</ele>
        <time>2018-07-07T08:31:28Z</time>
      </trkpt>
      <trkpt lat="45.92836" lon="4.73029">
        <ele>171</ele>
        <time>2018-07-07T08:31:29Z</time>
      </trkpt>
      <trkpt lat="45.92837" lon="4.73036">
        <ele>171</ele>
        <time>2018-07-07T08:31:30Z</time>
      </trkpt>
      <trkpt lat="45.9284" lon="4.73045">
        <ele>171</ele>
        <time>2018-07-07T08:31:31Z</time>
      </trkpt>
      <trkpt lat="45.9284" lon="4.73053">
        <ele>171</ele>
        <time>2018-07-07T08:31:32Z</time>
      </trkpt>
      <trkpt lat="45.92842" lon="4.73061">
        <ele>171</ele>
        <time>2018-07-07T08:31:33Z</time>
      </trkpt>
      <trkpt lat="45.92843" lon="4.7307">
        <ele>171</ele>
        <time>2018-07-07T08:31:34Z</time>
      </trkpt>
      <trkpt lat="45.92844" lon="4.73078">
        <ele>171</ele>
        <time>2018-07-07T08:31:35Z</time>
      </trkpt>
      <trkpt lat="45.92844" lon="4.73087">
        <ele>171</ele>
        <time>2018-07-07T08:31:36Z</time>
      </trkpt>
      <trkpt lat="45.92845" lon="4.73096">
        <ele>171</ele>
        <time>2018-07-07T08:31:37Z</time>
      </trkpt>
      <trkpt lat="45.92846" lon="4.73101">
        <ele>171</ele>
        <time>2018-07-07T08:31:38Z</time>
      </trkpt>
      <trkpt lat="45.92853" lon="4.73103">
        <ele>171</ele>
        <time>2018-07-07T08:31:42Z</time>
      </trkpt>
      <trkpt lat="45.9286" lon="4.73099">
        <ele>171</ele>
        <time>2018-07-07T08:31:43Z</time>
      </trkpt>
      <trkpt lat="45.92861" lon="4.73095">
        <ele>171</ele>
        <time>2018-07-07T08:31:45Z</time>
      </trkpt>
      <trkpt lat="45.92865" lon="4.73089">
        <ele>172</ele>
        <time>2018-07-07T08:31:46Z</time>
      </trkpt>
      <trkpt lat="45.92872" lon="4.73082">
        <ele>172</ele>
        <time>2018-07-07T08:31:49Z</time>
      </trkpt>
      <trkpt lat="45.92877" lon="4.73078">
        <ele>172</ele>
        <time>2018-07-07T08:31:50Z</time>
      </trkpt>
      <trkpt lat="45.92885" lon="4.73074">
        <ele>172</ele>
        <time>2018-07-07T08:31:52Z</time>
      </trkpt>
      <trkpt lat="45.92887" lon="4.73065">
        <ele>172</ele>
        <time>2018-07-07T08:31:53Z</time>
      </trkpt>
      <trkpt lat="45.92891" lon="4.7306">
        <ele>172</ele>
        <time>2018-07-07T08:31:54Z</time>
      </trkpt>
      <trkpt lat="45.92895" lon="4.73054">
        <ele>172</ele>
        <time>2018-07-07T08:31:55Z</time>
      </trkpt>
      <trkpt lat="45.92899" lon="4.73048">
        <ele>172</ele>
        <time>2018-07-07T08:31:56Z</time>
      </trkpt>
      <trkpt lat="45.92904" lon="4.73042">
        <ele>172</ele>
        <time>2018-07-07T08:31:57Z</time>
      </trkpt>
      <trkpt lat="45.92908" lon="4.73036">
        <ele>172</ele>
        <time>2018-07-07T08:31:58Z</time>
      </trkpt>
      <trkpt lat="45.9291" lon="4.73028">
        <ele>172</ele>
        <time>2018-07-07T08:31:59Z</time>
      </trkpt>
      <trkpt lat="45.92915" lon="4.73021">
        <ele>172</ele>
        <time>2018-07-07T08:32:00Z</time>
      </trkpt>
      <trkpt lat="45.92921" lon="4.73016">
        <ele>172</ele>
        <time>2018-07-07T08:32:01Z</time>
      </trkpt>
      <trkpt lat="45.92925" lon="4.7301">
        <ele>172</ele>
        <time>2018-07-07T08:32:02Z</time>
      </trkpt>
      <trkpt lat="45.9293" lon="4.73005">
        <ele>172</ele>
        <time>2018-07-07T08:32:03Z</time>
      </trkpt>
      <trkpt lat="45.92935" lon="4.72999">
        <ele>172</ele>
        <time>2018-07-07T08:32:04Z</time>
      </trkpt>
      <trkpt lat="45.9294" lon="4.72994">
        <ele>171</ele>
        <time>2018-07-07T08:32:05Z</time>
      </trkpt>
      <trkpt lat="45.92943" lon="4.72989">
        <ele>171</ele>
        <time>2018-07-07T08:32:06Z</time>
      </trkpt>
      <trkpt lat="45.92948" lon="4.72986">
        <ele>171</ele>
        <time>2018-07-07T08:32:07Z</time>
      </trkpt>
      <trkpt lat="45.92952" lon="4.72981">
        <ele>171</ele>
        <time>2018-07-07T08:32:08Z</time>
      </trkpt>
      <trkpt lat="45.92954" lon="4.72975">
        <ele>171</ele>
        <time>2018-07-07T08:32:09Z</time>
      </trkpt>
      <trkpt lat="45.92957" lon="4.72969">
        <ele>171</ele>
        <time>2018-07-07T08:32:10Z</time>
      </trkpt>
      <trkpt lat="45.92963" lon="4.72962">
        <ele>171</ele>
        <time>2018-07-07T08:32:11Z</time>
      </trkpt>
      <trkpt lat="45.92967" lon="4.72958">
        <ele>171</ele>
        <time>2018-07-07T08:32:12Z</time>
      </trkpt>
      <trkpt lat="45.92971" lon="4.72954">
        <ele>171</ele>
        <time>2018-07-07T08:32:13Z</time>
      </trkpt>
      <trkpt lat="45.92979" lon="4.72949">
        <ele>171</ele>
        <time>2018-07-07T08:32:14Z</time>
      </trkpt>
      <trkpt lat="45.92983" lon="4.72942">
        <ele>171</ele>
        <time>2018-07-07T08:32:15Z</time>
      </trkpt>
      <trkpt lat="45.92986" lon="4.72936">
        <ele>171</ele>
        <time>2018-07-07T08:32:16Z</time>
      </trkpt>
      <trkpt lat="45.92991" lon="4.7293">
        <ele>171</ele>
        <time>2018-07-07T08:32:17Z</time>
      </trkpt>
      <trkpt lat="45.92996" lon="4.72925">
        <ele>171</ele>
        <time>2018-07-07T08:32:18Z</time>
      </trkpt>
      <trkpt lat="45.93" lon="4.7292">
        <ele>171</ele>
        <time>2018-07-07T08:32:19Z</time>
      </trkpt>
      <trkpt lat="45.93004" lon="4.72916">
        <ele>171</ele>
        <time>2018-07-07T08:32:20Z</time>
      </trkpt>
      <trkpt lat="45.93008" lon="4.72911">
        <ele>171</ele>
        <time>2018-07-07T08:32:21Z</time>
      </trkpt>
      <trkpt lat="45.93013" lon="4.72905">
        <ele>171</ele>
        <time>2018-07-07T08:32:22Z</time>
      </trkpt>
      <trkpt lat="45.93018" lon="4.729">
        <ele>172</ele>
        <time>2018-07-07T08:32:23Z</time>
      </trkpt>
      <trkpt lat="45.93018" lon="4.72891">
        <ele>172</ele>
        <time>2018-07-07T08:32:24Z</time>
      </trkpt>
      <trkpt lat="45.93022" lon="4.72886">
        <ele>172</ele>
        <time>2018-07-07T08:32:25Z</time>
      </trkpt>
      <trkpt lat="45.93029" lon="4.72881">
        <ele>172</ele>
        <time>2018-07-07T08:32:26Z</time>
      </trkpt>
      <trkpt lat="45.93035" lon="4.72875">
        <ele>172</ele>
        <time>2018-07-07T08:32:27Z</time>
      </trkpt>
      <trkpt lat="45.9304" lon="4.72871">
        <ele>172</ele>
        <time>2018-07-07T08:32:28Z</time>
      </trkpt>
      <trkpt lat="45.93045" lon="4.72866">
        <ele>172</ele>
        <time>2018-07-07T08:32:29Z</time>
      </trkpt>
      <trkpt lat="45.9305" lon="4.72862">
        <ele>172</ele>
        <time>2018-07-07T08:32:30Z</time>
      </trkpt>
      <trkpt lat="45.93055" lon="4.72857">
        <ele>172</ele>
        <time>2018-07-07T08:32:31Z</time>
      </trkpt>
      <trkpt lat="45.93058" lon="4.72854">
        <ele>172</ele>
        <time>2018-07-07T08:32:32Z</time>
      </trkpt>
      <trkpt lat="45.93063" lon="4.7285">
        <ele>172</ele>
        <time>2018-07-07T08:32:33Z</time>
      </trkpt>
      <trkpt lat="45.93067" lon="4.72845">
        <ele>172</ele>
        <time>2018-07-07T08:32:34Z</time>
      </trkpt>
      <trkpt lat="45.93071" lon="4.7284">
        <ele>173</ele>
        <time>2018-07-07T08:32:35Z</time>
      </trkpt>
      <trkpt lat="45.93077" lon="4.72835">
        <ele>173</ele>
        <time>2018-07-07T08:32:36Z</time>
      </trkpt>
      <trkpt lat="45.93082" lon="4.72829">
        <ele>173</ele>
        <time>2018-07-07T08:32:37Z</time>
      </trkpt>
      <trkpt lat="45.93088" lon="4.72823">
        <ele>172</ele>
        <time>2018-07-07T08:32:38Z</time>
      </trkpt>
      <trkpt lat="45.93095" lon="4.72816">
        <ele>172</ele>
        <time>2018-07-07T08:32:39Z</time>
      </trkpt>
      <trkpt lat="45.931" lon="4.72806">
        <ele>171</ele>
        <time>2018-07-07T08:32:41Z</time>
      </trkpt>
      <trkpt lat="45.93106" lon="4.72803">
        <ele>171</ele>
        <time>2018-07-07T08:32:42Z</time>
      </trkpt>
      <trkpt lat="45.93109" lon="4.72797">
        <ele>171</ele>
        <time>2018-07-07T08:32:43Z</time>
      </trkpt>
      <trkpt lat="45.93115" lon="4.72793">
        <ele>171</ele>
        <time>2018-07-07T08:32:44Z</time>
      </trkpt>
      <trkpt lat="45.9312" lon="4.72788">
        <ele>171</ele>
        <time>2018-07-07T08:32:45Z</time>
      </trkpt>
      <trkpt lat="45.93125" lon="4.72785">
        <ele>171</ele>
        <time>2018-07-07T08:32:46Z</time>
      </trkpt>
      <trkpt lat="45.93131" lon="4.7278">
        <ele>171</ele>
        <time>2018-07-07T08:32:47Z</time>
      </trkpt>
      <trkpt lat="45.93133" lon="4.72776">
        <ele>171</ele>
        <time>2018-07-07T08:32:48Z</time>
      </trkpt>
      <trkpt lat="45.93138" lon="4.72771">
        <ele>171</ele>
        <time>2018-07-07T08:32:49Z</time>
      </trkpt>
      <trkpt lat="45.93142" lon="4.72765">
        <ele>171</ele>
        <time>2018-07-07T08:32:50Z</time>
      </trkpt>
      <trkpt lat="45.93146" lon="4.7276">
        <ele>171</ele>
        <time>2018-07-07T08:32:51Z</time>
      </trkpt>
      <trkpt lat="45.93151" lon="4.72753">
        <ele>170</ele>
        <time>2018-07-07T08:32:52Z</time>
      </trkpt>
      <trkpt lat="45.93154" lon="4.72748">
        <ele>170</ele>
        <time>2018-07-07T08:32:53Z</time>
      </trkpt>
      <trkpt lat="45.9316" lon="4.72742">
        <ele>170</ele>
        <time>2018-07-07T08:32:54Z</time>
      </trkpt>
      <trkpt lat="45.93164" lon="4.72736">
        <ele>170</ele>
        <time>2018-07-07T08:32:55Z</time>
      </trkpt>
      <trkpt lat="45.93168" lon="4.7273">
        <ele>170</ele>
        <time>2018-07-07T08:32:56Z</time>
      </trkpt>
      <trkpt lat="45.93171" lon="4.72725">
        <ele>170</ele>
        <time>2018-07-07T08:32:57Z</time>
      </trkpt>
      <trkpt lat="45.93175" lon="4.72721">
        <ele>170</ele>
        <time>2018-07-07T08:32:58Z</time>
      </trkpt>
      <trkpt lat="45.93179" lon="4.72716">
        <ele>169</ele>
        <time>2018-07-07T08:32:59Z</time>
      </trkpt>
      <trkpt lat="45.93184" lon="4.72711">
        <ele>169</ele>
        <time>2018-07-07T08:33:00Z</time>
      </trkpt>
      <trkpt lat="45.93189" lon="4.72706">
        <ele>169</ele>
        <time>2018-07-07T08:33:01Z</time>
      </trkpt>
      <trkpt lat="45.93194" lon="4.727">
        <ele>169</ele>
        <time>2018-07-07T08:33:02Z</time>
      </trkpt>
      <trkpt lat="45.93197" lon="4.72692">
        <ele>169</ele>
        <time>2018-07-07T08:33:03Z</time>
      </trkpt>
      <trkpt lat="45.93202" lon="4.72686">
        <ele>169</ele>
        <time>2018-07-07T08:33:04Z</time>
      </trkpt>
      <trkpt lat="45.93206" lon="4.72682">
        <ele>169</ele>
        <time>2018-07-07T08:33:05Z</time>
      </trkpt>
      <trkpt lat="45.9321" lon="4.72677">
        <ele>169</ele>
        <time>2018-07-07T08:33:06Z</time>
      </trkpt>
      <trkpt lat="45.93212" lon="4.72671">
        <ele>169</ele>
        <time>2018-07-07T08:33:07Z</time>
      </trkpt>
      <trkpt lat="45.93217" lon="4.72665">
        <ele>170</ele>
        <time>2018-07-07T08:33:08Z</time>
      </trkpt>
      <trkpt lat="45.93222" lon="4.72661">
        <ele>170</ele>
        <time>2018-07-07T08:33:09Z</time>
      </trkpt>
      <trkpt lat="45.93226" lon="4.72656">
        <ele>170</ele>
        <time>2018-07-07T08:33:10Z</time>
      </trkpt>
      <trkpt lat="45.93231" lon="4.72651">
        <ele>170</ele>
        <time>2018-07-07T08:33:11Z</time>
      </trkpt>
      <trkpt lat="45.93236" lon="4.72646">
        <ele>170</ele>
        <time>2018-07-07T08:33:12Z</time>
      </trkpt>
      <trkpt lat="45.93239" lon="4.72641">
        <ele>170</ele>
        <time>2018-07-07T08:33:13Z</time>
      </trkpt>
      <trkpt lat="45.93245" lon="4.72635">
        <ele>170</ele>
        <time>2018-07-07T08:33:14Z</time>
      </trkpt>
      <trkpt lat="45.93249" lon="4.7263">
        <ele>170</ele>
        <time>2018-07-07T08:33:15Z</time>
      </trkpt>
      <trkpt lat="45.93254" lon="4.72624">
        <ele>170</ele>
        <time>2018-07-07T08:33:16Z</time>
      </trkpt>
      <trkpt lat="45.93259" lon="4.72619">
        <ele>170</ele>
        <time>2018-07-07T08:33:17Z</time>
      </trkpt>
      <trkpt lat="45.93263" lon="4.72613">
        <ele>170</ele>
        <time>2018-07-07T08:33:18Z</time>
      </trkpt>
      <trkpt lat="45.93268" lon="4.72607">
        <ele>170</ele>
        <time>2018-07-07T08:33:19Z</time>
      </trkpt>
      <trkpt lat="45.93273" lon="4.72603">
        <ele>170</ele>
        <time>2018-07-07T08:33:20Z</time>
      </trkpt>
      <trkpt lat="45.93278" lon="4.72599">
        <ele>170</ele>
        <time>2018-07-07T08:33:21Z</time>
      </trkpt>
      <trkpt lat="45.93281" lon="4.72595">
        <ele>170</ele>
        <time>2018-07-07T08:33:22Z</time>
      </trkpt>
      <trkpt lat="45.93284" lon="4.72591">
        <ele>170</ele>
        <time>2018-07-07T08:33:23Z</time>
      </trkpt>
      <trkpt lat="45.93288" lon="4.72587">
        <ele>170</ele>
        <time>2018-07-07T08:33:24Z</time>
      </trkpt>
      <trkpt lat="45.93292" lon="4.72582">
        <ele>171</ele>
        <time>2018-07-07T08:33:25Z</time>
      </trkpt>
      <trkpt lat="45.93295" lon="4.72579">
        <ele>171</ele>
        <time>2018-07-07T08:33:26Z</time>
      </trkpt>
      <trkpt lat="45.93299" lon="4.72575">
        <ele>171</ele>
        <time>2018-07-07T08:33:27Z</time>
      </trkpt>
      <trkpt lat="45.93302" lon="4.72568">
        <ele>171</ele>
        <time>2018-07-07T08:33:28Z</time>
      </trkpt>
      <trkpt lat="45.93308" lon="4.72563">
        <ele>171</ele>
        <time>2018-07-07T08:33:29Z</time>
      </trkpt>
      <trkpt lat="45.93311" lon="4.72558">
        <ele>172</ele>
        <time>2018-07-07T08:33:30Z</time>
      </trkpt>
      <trkpt lat="45.93317" lon="4.72553">
        <ele>172</ele>
        <time>2018-07-07T08:33:31Z</time>
      </trkpt>
      <trkpt lat="45.93322" lon="4.72547">
        <ele>172</ele>
        <time>2018-07-07T08:33:32Z</time>
      </trkpt>
      <trkpt lat="45.93325" lon="4.72543">
        <ele>172</ele>
        <time>2018-07-07T08:33:33Z</time>
      </trkpt>
      <trkpt lat="45.93329" lon="4.72539">
        <ele>172</ele>
        <time>2018-07-07T08:33:34Z</time>
      </trkpt>
      <trkpt lat="45.93334" lon="4.72535">
        <ele>172</ele>
        <time>2018-07-07T08:33:35Z</time>
      </trkpt>
      <trkpt lat="45.93338" lon="4.7253">
        <ele>172</ele>
        <time>2018-07-07T08:33:36Z</time>
      </trkpt>
      <trkpt lat="45.93342" lon="4.72525">
        <ele>172</ele>
        <time>2018-07-07T08:33:37Z</time>
      </trkpt>
      <trkpt lat="45.93346" lon="4.72521">
        <ele>172</ele>
        <time>2018-07-07T08:33:38Z</time>
      </trkpt>
      <trkpt lat="45.9335" lon="4.72515">
        <ele>172</ele>
        <time>2018-07-07T08:33:39Z</time>
      </trkpt>
      <trkpt lat="45.93354" lon="4.7251">
        <ele>172</ele>
        <time>2018-07-07T08:33:40Z</time>
      </trkpt>
      <trkpt lat="45.93359" lon="4.72505">
        <ele>172</ele>
        <time>2018-07-07T08:33:41Z</time>
      </trkpt>
      <trkpt lat="45.93364" lon="4.72498">
        <ele>173</ele>
        <time>2018-07-07T08:33:42Z</time>
      </trkpt>
      <trkpt lat="45.93368" lon="4.72494">
        <ele>173</ele>
        <time>2018-07-07T08:33:43Z</time>
      </trkpt>
      <trkpt lat="45.93373" lon="4.72489">
        <ele>173</ele>
        <time>2018-07-07T08:33:44Z</time>
      </trkpt>
      <trkpt lat="45.93377" lon="4.72484">
        <ele>173</ele>
        <time>2018-07-07T08:33:45Z</time>
      </trkpt>
      <trkpt lat="45.9338" lon="4.7248">
        <ele>173</ele>
        <time>2018-07-07T08:33:46Z</time>
      </trkpt>
      <trkpt lat="45.93384" lon="4.7247">
        <ele>173</ele>
        <time>2018-07-07T08:33:48Z</time>
      </trkpt>
      <trkpt lat="45.93388" lon="4.72466">
        <ele>173</ele>
        <time>2018-07-07T08:33:49Z</time>
      </trkpt>
      <trkpt lat="45.93393" lon="4.72455">
        <ele>173</ele>
        <time>2018-07-07T08:33:51Z</time>
      </trkpt>
      <trkpt lat="45.93394" lon="4.72453">
        <ele>173</ele>
        <time>2018-07-07T08:33:52Z</time>
      </trkpt>
      <trkpt lat="45.93398" lon="4.72447">
        <ele>173</ele>
        <time>2018-07-07T08:33:55Z</time>
      </trkpt>
      <trkpt lat="45.93403" lon="4.72437">
        <ele>173</ele>
        <time>2018-07-07T08:33:56Z</time>
      </trkpt>
      <trkpt lat="45.93409" lon="4.72428">
        <ele>174</ele>
        <time>2018-07-07T08:33:58Z</time>
      </trkpt>
      <trkpt lat="45.93412" lon="4.72424">
        <ele>174</ele>
        <time>2018-07-07T08:33:59Z</time>
      </trkpt>
      <trkpt lat="45.93418" lon="4.72415">
        <ele>174</ele>
        <time>2018-07-07T08:34:01Z</time>
      </trkpt>
      <trkpt lat="45.93421" lon="4.72411">
        <ele>174</ele>
        <time>2018-07-07T08:34:02Z</time>
      </trkpt>
      <trkpt lat="45.93425" lon="4.72408">
        <ele>174</ele>
        <time>2018-07-07T08:34:03Z</time>
      </trkpt>
      <trkpt lat="45.9343" lon="4.72405">
        <ele>174</ele>
        <time>2018-07-07T08:34:04Z</time>
      </trkpt>
      <trkpt lat="45.93437" lon="4.724">
        <ele>173</ele>
        <time>2018-07-07T08:34:06Z</time>
      </trkpt>
      <trkpt lat="45.93442" lon="4.72397">
        <ele>173</ele>
        <time>2018-07-07T08:34:07Z</time>
      </trkpt>
      <trkpt lat="45.93446" lon="4.72395">
        <ele>173</ele>
        <time>2018-07-07T08:34:08Z</time>
      </trkpt>
      <trkpt lat="45.9345" lon="4.72391">
        <ele>173</ele>
        <time>2018-07-07T08:34:09Z</time>
      </trkpt>
      <trkpt lat="45.93455" lon="4.72386">
        <ele>173</ele>
        <time>2018-07-07T08:34:10Z</time>
      </trkpt>
      <trkpt lat="45.93459" lon="4.72383">
        <ele>173</ele>
        <time>2018-07-07T08:34:11Z</time>
      </trkpt>
      <trkpt lat="45.93464" lon="4.72377">
        <ele>173</ele>
        <time>2018-07-07T08:34:12Z</time>
      </trkpt>
      <trkpt lat="45.93466" lon="4.72371">
        <ele>173</ele>
        <time>2018-07-07T08:34:13Z</time>
      </trkpt>
      <trkpt lat="45.93471" lon="4.72366">
        <ele>173</ele>
        <time>2018-07-07T08:34:14Z</time>
      </trkpt>
      <trkpt lat="45.93474" lon="4.72361">
        <ele>173</ele>
        <time>2018-07-07T08:34:15Z</time>
      </trkpt>
      <trkpt lat="45.9348" lon="4.72356">
        <ele>173</ele>
        <time>2018-07-07T08:34:16Z</time>
      </trkpt>
      <trkpt lat="45.93485" lon="4.7235">
        <ele>173</ele>
        <time>2018-07-07T08:34:17Z</time>
      </trkpt>
      <trkpt lat="45.93489" lon="4.72344">
        <ele>173</ele>
        <time>2018-07-07T08:34:18Z</time>
      </trkpt>
      <trkpt lat="45.93494" lon="4.72338">
        <ele>173</ele>
        <time>2018-07-07T08:34:19Z</time>
      </trkpt>
      <trkpt lat="45.93498" lon="4.72332">
        <ele>173</ele>
        <time>2018-07-07T08:34:20Z</time>
      </trkpt>
      <trkpt lat="45.93505" lon="4.72326">
        <ele>173</ele>
        <time>2018-07-07T08:34:21Z</time>
      </trkpt>
      <trkpt lat="45.93509" lon="4.7232">
        <ele>173</ele>
        <time>2018-07-07T08:34:22Z</time>
      </trkpt>
      <trkpt lat="45.93512" lon="4.72314">
        <ele>173</ele>
        <time>2018-07-07T08:34:23Z</time>
      </trkpt>
      <trkpt lat="45.93516" lon="4.72308">
        <ele>173</ele>
        <time>2018-07-07T08:34:24Z</time>
      </trkpt>
      <trkpt lat="45.93521" lon="4.72302">
        <ele>172</ele>
        <time>2018-07-07T08:34:25Z</time>
      </trkpt>
      <trkpt lat="45.93523" lon="4.72296">
        <ele>172</ele>
        <time>2018-07-07T08:34:26Z</time>
      </trkpt>
      <trkpt lat="45.93525" lon="4.72288">
        <ele>172</ele>
        <time>2018-07-07T08:34:27Z</time>
      </trkpt>
      <trkpt lat="45.93527" lon="4.72282">
        <ele>172</ele>
        <time>2018-07-07T08:34:28Z</time>
      </trkpt>
      <trkpt lat="45.9353" lon="4.72276">
        <ele>172</ele>
        <time>2018-07-07T08:34:29Z</time>
      </trkpt>
      <trkpt lat="45.93531" lon="4.72269">
        <ele>172</ele>
        <time>2018-07-07T08:34:30Z</time>
      </trkpt>
      <trkpt lat="45.93533" lon="4.72263">
        <ele>172</ele>
        <time>2018-07-07T08:34:31Z</time>
      </trkpt>
      <trkpt lat="45.93536" lon="4.72256">
        <ele>172</ele>
        <time>2018-07-07T08:34:32Z</time>
      </trkpt>
      <trkpt lat="45.93539" lon="4.72251">
        <ele>172</ele>
        <time>2018-07-07T08:34:33Z</time>
      </trkpt>
      <trkpt lat="45.93542" lon="4.72245">
        <ele>172</ele>
        <time>2018-07-07T08:34:34Z</time>
      </trkpt>
      <trkpt lat="45.93546" lon="4.72237">
        <ele>172</ele>
        <time>2018-07-07T08:34:35Z</time>
      </trkpt>
      <trkpt lat="45.93548" lon="4.72231">
        <ele>172</ele>
        <time>2018-07-07T08:34:36Z</time>
      </trkpt>
      <trkpt lat="45.93551" lon="4.72225">
        <ele>172</ele>
        <time>2018-07-07T08:34:37Z</time>
      </trkpt>
      <trkpt lat="45.93556" lon="4.7222">
        <ele>173</ele>
        <time>2018-07-07T08:34:38Z</time>
      </trkpt>
      <trkpt lat="45.93559" lon="4.72214">
        <ele>173</ele>
        <time>2018-07-07T08:34:39Z</time>
      </trkpt>
      <trkpt lat="45.93563" lon="4.72209">
        <ele>173</ele>
        <time>2018-07-07T08:34:40Z</time>
      </trkpt>
      <trkpt lat="45.93568" lon="4.72202">
        <ele>173</ele>
        <time>2018-07-07T08:34:41Z</time>
      </trkpt>
      <trkpt lat="45.93573" lon="4.72198">
        <ele>173</ele>
        <time>2018-07-07T08:34:42Z</time>
      </trkpt>
      <trkpt lat="45.93578" lon="4.72194">
        <ele>173</ele>
        <time>2018-07-07T08:34:43Z</time>
      </trkpt>
      <trkpt lat="45.93584" lon="4.7219">
        <ele>173</ele>
        <time>2018-07-07T08:34:44Z</time>
      </trkpt>
      <trkpt lat="45.93588" lon="4.72183">
        <ele>173</ele>
        <time>2018-07-07T08:34:45Z</time>
      </trkpt>
      <trkpt lat="45.93593" lon="4.72179">
        <ele>173</ele>
        <time>2018-07-07T08:34:46Z</time>
      </trkpt>
      <trkpt lat="45.93599" lon="4.72176">
        <ele>173</ele>
        <time>2018-07-07T08:34:47Z</time>
      </trkpt>
      <trkpt lat="45.93605" lon="4.72173">
        <ele>173</ele>
        <time>2018-07-07T08:34:48Z</time>
      </trkpt>
      <trkpt lat="45.9361" lon="4.72172">
        <ele>173</ele>
        <time>2018-07-07T08:34:49Z</time>
      </trkpt>
      <trkpt lat="45.93616" lon="4.72164">
        <ele>173</ele>
        <time>2018-07-07T08:34:50Z</time>
      </trkpt>
      <trkpt lat="45.93619" lon="4.72157">
        <ele>173</ele>
        <time>2018-07-07T08:34:51Z</time>
      </trkpt>
      <trkpt lat="45.93623" lon="4.72152">
        <ele>173</ele>
        <time>2018-07-07T08:34:52Z</time>
      </trkpt>
      <trkpt lat="45.93628" lon="4.72146">
        <ele>173</ele>
        <time>2018-07-07T08:34:53Z</time>
      </trkpt>
      <trkpt lat="45.93632" lon="4.72141">
        <ele>173</ele>
        <time>2018-07-07T08:34:54Z</time>
      </trkpt>
      <trkpt lat="45.93635" lon="4.72135">
        <ele>173</ele>
        <time>2018-07-07T08:34:55Z</time>
      </trkpt>
      <trkpt lat="45.93638" lon="4.72128">
        <ele>173</ele>
        <time>2018-07-07T08:34:56Z</time>
      </trkpt>
      <trkpt lat="45.93643" lon="4.72122">
        <ele>173</ele>
        <time>2018-07-07T08:34:57Z</time>
      </trkpt>
      <trkpt lat="45.93646" lon="4.72116">
        <ele>173</ele>
        <time>2018-07-07T08:34:58Z</time>
      </trkpt>
      <trkpt lat="45.93648" lon="4.72109">
        <ele>173</ele>
        <time>2018-07-07T08:34:59Z</time>
      </trkpt>
      <trkpt lat="45.93652" lon="4.72104">
        <ele>173</ele>
        <time>2018-07-07T08:35:00Z</time>
      </trkpt>
      <trkpt lat="45.93655" lon="4.72097">
        <ele>173</ele>
        <time>2018-07-07T08:35:01Z</time>
      </trkpt>
      <trkpt lat="45.93658" lon="4.72092">
        <ele>173</ele>
        <time>2018-07-07T08:35:02Z</time>
      </trkpt>
      <trkpt lat="45.93661" lon="4.72086">
        <ele>172</ele>
        <time>2018-07-07T08:35:03Z</time>
      </trkpt>
      <trkpt lat="45.93666" lon="4.72079">
        <ele>172</ele>
        <time>2018-07-07T08:35:04Z</time>
      </trkpt>
      <trkpt lat="45.9367" lon="4.72073">
        <ele>172</ele>
        <time>2018-07-07T08:35:05Z</time>
      </trkpt>
      <trkpt lat="45.93673" lon="4.72068">
        <ele>172</ele>
        <time>2018-07-07T08:35:06Z</time>
      </trkpt>
      <trkpt lat="45.93676" lon="4.72062">
        <ele>172</ele>
        <time>2018-07-07T08:35:07Z</time>
      </trkpt>
      <trkpt lat="45.93679" lon="4.72055">
        <ele>172</ele>
        <time>2018-07-07T08:35:08Z</time>
      </trkpt>
      <trkpt lat="45.93683" lon="4.72051">
        <ele>172</ele>
        <time>2018-07-07T08:35:09Z</time>
      </trkpt>
      <trkpt lat="45.93686" lon="4.72044">
        <ele>172</ele>
        <time>2018-07-07T08:35:10Z</time>
      </trkpt>
      <trkpt lat="45.93689" lon="4.72038">
        <ele>173</ele>
        <time>2018-07-07T08:35:11Z</time>
      </trkpt>
      <trkpt lat="45.93694" lon="4.72028">
        <ele>172</ele>
        <time>2018-07-07T08:35:12Z</time>
      </trkpt>
      <trkpt lat="45.93698" lon="4.72022">
        <ele>172</ele>
        <time>2018-07-07T08:35:13Z</time>
      </trkpt>
      <trkpt lat="45.937" lon="4.72014">
        <ele>172</ele>
        <time>2018-07-07T08:35:14Z</time>
      </trkpt>
      <trkpt lat="45.93704" lon="4.72009">
        <ele>172</ele>
        <time>2018-07-07T08:35:15Z</time>
      </trkpt>
      <trkpt lat="45.93708" lon="4.72004">
        <ele>172</ele>
        <time>2018-07-07T08:35:16Z</time>
      </trkpt>
      <trkpt lat="45.93712" lon="4.71999">
        <ele>172</ele>
        <time>2018-07-07T08:35:17Z</time>
      </trkpt>
      <trkpt lat="45.93717" lon="4.71991">
        <ele>172</ele>
        <time>2018-07-07T08:35:18Z</time>
      </trkpt>
      <trkpt lat="45.93721" lon="4.71987">
        <ele>172</ele>
        <time>2018-07-07T08:35:19Z</time>
      </trkpt>
      <trkpt lat="45.93726" lon="4.71978">
        <ele>172</ele>
        <time>2018-07-07T08:35:20Z</time>
      </trkpt>
      <trkpt lat="45.93731" lon="4.71973">
        <ele>172</ele>
        <time>2018-07-07T08:35:21Z</time>
      </trkpt>
      <trkpt lat="45.93736" lon="4.71969">
        <ele>172</ele>
        <time>2018-07-07T08:35:22Z</time>
      </trkpt>
      <trkpt lat="45.93741" lon="4.71965">
        <ele>172</ele>
        <time>2018-07-07T08:35:23Z</time>
      </trkpt>
      <trkpt lat="45.93746" lon="4.71961">
        <ele>172</ele>
        <time>2018-07-07T08:35:24Z</time>
      </trkpt>
      <trkpt lat="45.93747" lon="4.71954">
        <ele>172</ele>
        <time>2018-07-07T08:35:25Z</time>
      </trkpt>
      <trkpt lat="45.93752" lon="4.71948">
        <ele>171</ele>
        <time>2018-07-07T08:35:26Z</time>
      </trkpt>
      <trkpt lat="45.93757" lon="4.71942">
        <ele>171</ele>
        <time>2018-07-07T08:35:27Z</time>
      </trkpt>
      <trkpt lat="45.9376" lon="4.71936">
        <ele>171</ele>
        <time>2018-07-07T08:35:28Z</time>
      </trkpt>
      <trkpt lat="45.93764" lon="4.71929">
        <ele>171</ele>
        <time>2018-07-07T08:35:29Z</time>
      </trkpt>
      <trkpt lat="45.93767" lon="4.71918">
        <ele>171</ele>
        <time>2018-07-07T08:35:30Z</time>
      </trkpt>
      <trkpt lat="45.93771" lon="4.71909">
        <ele>172</ele>
        <time>2018-07-07T08:35:31Z</time>
      </trkpt>
      <trkpt lat="45.93775" lon="4.71901">
        <ele>172</ele>
        <time>2018-07-07T08:35:32Z</time>
      </trkpt>
      <trkpt lat="45.93779" lon="4.71891">
        <ele>172</ele>
        <time>2018-07-07T08:35:33Z</time>
      </trkpt>
      <trkpt lat="45.93782" lon="4.71882">
        <ele>172</ele>
        <time>2018-07-07T08:35:34Z</time>
      </trkpt>
      <trkpt lat="45.93783" lon="4.71878">
        <ele>172</ele>
        <time>2018-07-07T08:35:35Z</time>
      </trkpt>
      <trkpt lat="45.93787" lon="4.71871">
        <ele>172</ele>
        <time>2018-07-07T08:35:36Z</time>
      </trkpt>
      <trkpt lat="45.93789" lon="4.71863">
        <ele>172</ele>
        <time>2018-07-07T08:35:37Z</time>
      </trkpt>
      <trkpt lat="45.93793" lon="4.71856">
        <ele>172</ele>
        <time>2018-07-07T08:35:38Z</time>
      </trkpt>
      <trkpt lat="45.93798" lon="4.71851">
        <ele>172</ele>
        <time>2018-07-07T08:35:39Z</time>
      </trkpt>
      <trkpt lat="45.93803" lon="4.71843">
        <ele>172</ele>
        <time>2018-07-07T08:35:40Z</time>
      </trkpt>
      <trkpt lat="45.93808" lon="4.71834">
        <ele>172</ele>
        <time>2018-07-07T08:35:41Z</time>
      </trkpt>
      <trkpt lat="45.93812" lon="4.71827">
        <ele>173</ele>
        <time>2018-07-07T08:35:42Z</time>
      </trkpt>
      <trkpt lat="45.93816" lon="4.71822">
        <ele>173</ele>
        <time>2018-07-07T08:35:43Z</time>
      </trkpt>
      <trkpt lat="45.93819" lon="4.71816">
        <ele>173</ele>
        <time>2018-07-07T08:35:44Z</time>
      </trkpt>
      <trkpt lat="45.93823" lon="4.7181">
        <ele>173</ele>
        <time>2018-07-07T08:35:45Z</time>
      </trkpt>
      <trkpt lat="45.93827" lon="4.71805">
        <ele>173</ele>
        <time>2018-07-07T08:35:46Z</time>
      </trkpt>
      <trkpt lat="45.93832" lon="4.71798">
        <ele>174</ele>
        <time>2018-07-07T08:35:47Z</time>
      </trkpt>
      <trkpt lat="45.93836" lon="4.71793">
        <ele>173</ele>
        <time>2018-07-07T08:35:48Z</time>
      </trkpt>
      <trkpt lat="45.93838" lon="4.71787">
        <ele>173</ele>
        <time>2018-07-07T08:35:49Z</time>
      </trkpt>
      <trkpt lat="45.9384" lon="4.71781">
        <ele>173</ele>
        <time>2018-07-07T08:35:50Z</time>
      </trkpt>
      <trkpt lat="45.93844" lon="4.71776">
        <ele>173</ele>
        <time>2018-07-07T08:35:51Z</time>
      </trkpt>
      <trkpt lat="45.93849" lon="4.71771">
        <ele>173</ele>
        <time>2018-07-07T08:35:52Z</time>
      </trkpt>
      <trkpt lat="45.93853" lon="4.71765">
        <ele>173</ele>
        <time>2018-07-07T08:35:53Z</time>
      </trkpt>
      <trkpt lat="45.93857" lon="4.71761">
        <ele>173</ele>
        <time>2018-07-07T08:35:54Z</time>
      </trkpt>
      <trkpt lat="45.9386" lon="4.71756">
        <ele>173</ele>
        <time>2018-07-07T08:35:55Z</time>
      </trkpt>
      <trkpt lat="45.93865" lon="4.71751">
        <ele>173</ele>
        <time>2018-07-07T08:35:56Z</time>
      </trkpt>
      <trkpt lat="45.93869" lon="4.71746">
        <ele>174</ele>
        <time>2018-07-07T08:35:57Z</time>
      </trkpt>
      <trkpt lat="45.93873" lon="4.71742">
        <ele>174</ele>
        <time>2018-07-07T08:35:58Z</time>
      </trkpt>
      <trkpt lat="45.93877" lon="4.71731">
        <ele>174</ele>
        <time>2018-07-07T08:36:00Z</time>
      </trkpt>
      <trkpt lat="45.93878" lon="4.7173">
        <ele>174</ele>
        <time>2018-07-07T08:36:01Z</time>
      </trkpt>
      <trkpt lat="45.93885" lon="4.71725">
        <ele>174</ele>
        <time>2018-07-07T08:36:02Z</time>
      </trkpt>
      <trkpt lat="45.93888" lon="4.71721">
        <ele>174</ele>
        <time>2018-07-07T08:36:03Z</time>
      </trkpt>
      <trkpt lat="45.93891" lon="4.71716">
        <ele>174</ele>
        <time>2018-07-07T08:36:04Z</time>
      </trkpt>
      <trkpt lat="45.93893" lon="4.7171">
        <ele>174</ele>
        <time>2018-07-07T08:36:05Z</time>
      </trkpt>
      <trkpt lat="45.93898" lon="4.71706">
        <ele>174</ele>
        <time>2018-07-07T08:36:06Z</time>
      </trkpt>
      <trkpt lat="45.93903" lon="4.71702">
        <ele>174</ele>
        <time>2018-07-07T08:36:07Z</time>
      </trkpt>
      <trkpt lat="45.93909" lon="4.717">
        <ele>174</ele>
        <time>2018-07-07T08:36:08Z</time>
      </trkpt>
      <trkpt lat="45.93914" lon="4.71698">
        <ele>174</ele>
        <time>2018-07-07T08:36:09Z</time>
      </trkpt>
      <trkpt lat="45.93918" lon="4.71694">
        <ele>174</ele>
        <time>2018-07-07T08:36:10Z</time>
      </trkpt>
      <trkpt lat="45.93923" lon="4.71693">
        <ele>175</ele>
        <time>2018-07-07T08:36:11Z</time>
      </trkpt>
      <trkpt lat="45.93928" lon="4.71692">
        <ele>175</ele>
        <time>2018-07-07T08:36:12Z</time>
      </trkpt>
      <trkpt lat="45.93932" lon="4.7169">
        <ele>175</ele>
        <time>2018-07-07T08:36:13Z</time>
      </trkpt>
      <trkpt lat="45.93937" lon="4.71688">
        <ele>175</ele>
        <time>2018-07-07T08:36:14Z</time>
      </trkpt>
      <trkpt lat="45.93942" lon="4.71686">
        <ele>175</ele>
        <time>2018-07-07T08:36:15Z</time>
      </trkpt>
      <trkpt lat="45.93947" lon="4.71685">
        <ele>175</ele>
        <time>2018-07-07T08:36:16Z</time>
      </trkpt>
      <trkpt lat="45.93951" lon="4.71681">
        <ele>175</ele>
        <time>2018-07-07T08:36:17Z</time>
      </trkpt>
      <trkpt lat="45.93956" lon="4.71679">
        <ele>175</ele>
        <time>2018-07-07T08:36:18Z</time>
      </trkpt>
      <trkpt lat="45.93961" lon="4.71676">
        <ele>175</ele>
        <time>2018-07-07T08:36:19Z</time>
      </trkpt>
      <trkpt lat="45.93967" lon="4.71674">
        <ele>175</ele>
        <time>2018-07-07T08:36:20Z</time>
      </trkpt>
      <trkpt lat="45.93971" lon="4.71671">
        <ele>175</ele>
        <time>2018-07-07T08:36:21Z</time>
      </trkpt>
      <trkpt lat="45.93978" lon="4.7167">
        <ele>176</ele>
        <time>2018-07-07T08:36:22Z</time>
      </trkpt>
      <trkpt lat="45.93982" lon="4.7167">
        <ele>176</ele>
        <time>2018-07-07T08:36:23Z</time>
      </trkpt>
      <trkpt lat="45.93988" lon="4.71672">
        <ele>176</ele>
        <time>2018-07-07T08:36:24Z</time>
      </trkpt>
      <trkpt lat="45.9399" lon="4.71677">
        <ele>176</ele>
        <time>2018-07-07T08:36:25Z</time>
      </trkpt>
      <trkpt lat="45.93994" lon="4.7168">
        <ele>176</ele>
        <time>2018-07-07T08:36:26Z</time>
      </trkpt>
      <trkpt lat="45.94" lon="4.71683">
        <ele>176</ele>
        <time>2018-07-07T08:36:27Z</time>
      </trkpt>
      <trkpt lat="45.94008" lon="4.71682">
        <ele>176</ele>
        <time>2018-07-07T08:36:29Z</time>
      </trkpt>
      <trkpt lat="45.94012" lon="4.71677">
        <ele>176</ele>
        <time>2018-07-07T08:36:30Z</time>
      </trkpt>
      <trkpt lat="45.94015" lon="4.71669">
        <ele>176</ele>
        <time>2018-07-07T08:36:31Z</time>
      </trkpt>
      <trkpt lat="45.94019" lon="4.71662">
        <ele>176</ele>
        <time>2018-07-07T08:36:32Z</time>
      </trkpt>
      <trkpt lat="45.94022" lon="4.71656">
        <ele>176</ele>
        <time>2018-07-07T08:36:33Z</time>
      </trkpt>
      <trkpt lat="45.94026" lon="4.71652">
        <ele>175</ele>
        <time>2018-07-07T08:36:34Z</time>
      </trkpt>
      <trkpt lat="45.9403" lon="4.71648">
        <ele>175</ele>
        <time>2018-07-07T08:36:35Z</time>
      </trkpt>
      <trkpt lat="45.94036" lon="4.71649">
        <ele>175</ele>
        <time>2018-07-07T08:36:36Z</time>
      </trkpt>
      <trkpt lat="45.94041" lon="4.71647">
        <ele>175</ele>
        <time>2018-07-07T08:36:37Z</time>
      </trkpt>
      <trkpt lat="45.94046" lon="4.71645">
        <ele>175</ele>
        <time>2018-07-07T08:36:38Z</time>
      </trkpt>
      <trkpt lat="45.94051" lon="4.71643">
        <ele>175</ele>
        <time>2018-07-07T08:36:39Z</time>
      </trkpt>
      <trkpt lat="45.94057" lon="4.71641">
        <ele>174</ele>
        <time>2018-07-07T08:36:40Z</time>
      </trkpt>
      <trkpt lat="45.94064" lon="4.71637">
        <ele>174</ele>
        <time>2018-07-07T08:36:41Z</time>
      </trkpt>
      <trkpt lat="45.94067" lon="4.71634">
        <ele>174</ele>
        <time>2018-07-07T08:36:42Z</time>
      </trkpt>
      <trkpt lat="45.94073" lon="4.71631">
        <ele>174</ele>
        <time>2018-07-07T08:36:44Z</time>
      </trkpt>
      <trkpt lat="45.94078" lon="4.7163">
        <ele>174</ele>
        <time>2018-07-07T08:36:45Z</time>
      </trkpt>
      <trkpt lat="45.94086" lon="4.71628">
        <ele>173</ele>
        <time>2018-07-07T08:36:47Z</time>
      </trkpt>
      <trkpt lat="45.9409" lon="4.71627">
        <ele>173</ele>
        <time>2018-07-07T08:36:48Z</time>
      </trkpt>
      <trkpt lat="45.94095" lon="4.71625">
        <ele>173</ele>
        <time>2018-07-07T08:36:49Z</time>
      </trkpt>
      <trkpt lat="45.94101" lon="4.71624">
        <ele>173</ele>
        <time>2018-07-07T08:36:50Z</time>
      </trkpt>
      <trkpt lat="45.94107" lon="4.7162">
        <ele>173</ele>
        <time>2018-07-07T08:36:51Z</time>
      </trkpt>
      <trkpt lat="45.94112" lon="4.71619">
        <ele>173</ele>
        <time>2018-07-07T08:36:52Z</time>
      </trkpt>
      <trkpt lat="45.9412" lon="4.71617">
        <ele>173</ele>
        <time>2018-07-07T08:36:54Z</time>
      </trkpt>
      <trkpt lat="45.94126" lon="4.71616">
        <ele>173</ele>
        <time>2018-07-07T08:36:55Z</time>
      </trkpt>
      <trkpt lat="45.94131" lon="4.71613">
        <ele>173</ele>
        <time>2018-07-07T08:36:56Z</time>
      </trkpt>
      <trkpt lat="45.94135" lon="4.71611">
        <ele>173</ele>
        <time>2018-07-07T08:36:57Z</time>
      </trkpt>
      <trkpt lat="45.9414" lon="4.71609">
        <ele>173</ele>
        <time>2018-07-07T08:36:58Z</time>
      </trkpt>
      <trkpt lat="45.9415" lon="4.71606">
        <ele>173</ele>
        <time>2018-07-07T08:36:59Z</time>
      </trkpt>
      <trkpt lat="45.94157" lon="4.71604">
        <ele>173</ele>
        <time>2018-07-07T08:37:01Z</time>
      </trkpt>
      <trkpt lat="45.94166" lon="4.71599">
        <ele>173</ele>
        <time>2018-07-07T08:37:02Z</time>
      </trkpt>
      <trkpt lat="45.94175" lon="4.71596">
        <ele>173</ele>
        <time>2018-07-07T08:37:04Z</time>
      </trkpt>
      <trkpt lat="45.9418" lon="4.71594">
        <ele>173</ele>
        <time>2018-07-07T08:37:05Z</time>
      </trkpt>
      <trkpt lat="45.94185" lon="4.71592">
        <ele>173</ele>
        <time>2018-07-07T08:37:06Z</time>
      </trkpt>
      <trkpt lat="45.94193" lon="4.71589">
        <ele>173</ele>
        <time>2018-07-07T08:37:07Z</time>
      </trkpt>
      <trkpt lat="45.94199" lon="4.71587">
        <ele>173</ele>
        <time>2018-07-07T08:37:08Z</time>
      </trkpt>
      <trkpt lat="45.94203" lon="4.71585">
        <ele>173</ele>
        <time>2018-07-07T08:37:09Z</time>
      </trkpt>
      <trkpt lat="45.94209" lon="4.71584">
        <ele>173</ele>
        <time>2018-07-07T08:37:10Z</time>
      </trkpt>
      <trkpt lat="45.94214" lon="4.71582">
        <ele>174</ele>
        <time>2018-07-07T08:37:11Z</time>
      </trkpt>
      <trkpt lat="45.94217" lon="4.7158">
        <ele>174</ele>
        <time>2018-07-07T08:37:12Z</time>
      </trkpt>
      <trkpt lat="45.94223" lon="4.71577">
        <ele>174</ele>
        <time>2018-07-07T08:37:13Z</time>
      </trkpt>
      <trkpt lat="45.9423" lon="4.71574">
        <ele>174</ele>
        <time>2018-07-07T08:37:15Z</time>
      </trkpt>
      <trkpt lat="45.94236" lon="4.71571">
        <ele>174</ele>
        <time>2018-07-07T08:37:16Z</time>
      </trkpt>
      <trkpt lat="45.94242" lon="4.7157">
        <ele>174</ele>
        <time>2018-07-07T08:37:17Z</time>
      </trkpt>
      <trkpt lat="45.94247" lon="4.71567">
        <ele>174</ele>
        <time>2018-07-07T08:37:18Z</time>
      </trkpt>
      <trkpt lat="45.94252" lon="4.71566">
        <ele>175</ele>
        <time>2018-07-07T08:37:19Z</time>
      </trkpt>
      <trkpt lat="45.94257" lon="4.71565">
        <ele>175</ele>
        <time>2018-07-07T08:37:20Z</time>
      </trkpt>
      <trkpt lat="45.94264" lon="4.71562">
        <ele>175</ele>
        <time>2018-07-07T08:37:22Z</time>
      </trkpt>
      <trkpt lat="45.94271" lon="4.7156">
        <ele>175</ele>
        <time>2018-07-07T08:37:23Z</time>
      </trkpt>
      <trkpt lat="45.94277" lon="4.71556">
        <ele>175</ele>
        <time>2018-07-07T08:37:25Z</time>
      </trkpt>
      <trkpt lat="45.94281" lon="4.71553">
        <ele>175</ele>
        <time>2018-07-07T08:37:26Z</time>
      </trkpt>
      <trkpt lat="45.94286" lon="4.71551">
        <ele>175</ele>
        <time>2018-07-07T08:37:27Z</time>
      </trkpt>
      <trkpt lat="45.9429" lon="4.71548">
        <ele>175</ele>
        <time>2018-07-07T08:37:28Z</time>
      </trkpt>
      <trkpt lat="45.94294" lon="4.71547">
        <ele>175</ele>
        <time>2018-07-07T08:37:29Z</time>
      </trkpt>
      <trkpt lat="45.943" lon="4.71539">
        <ele>175</ele>
        <time>2018-07-07T08:37:30Z</time>
      </trkpt>
      <trkpt lat="45.94302" lon="4.7154">
        <ele>175</ele>
        <time>2018-07-07T08:37:31Z</time>
      </trkpt>
      <trkpt lat="45.94311" lon="4.71539">
        <ele>175</ele>
        <time>2018-07-07T08:37:32Z</time>
      </trkpt>
      <trkpt lat="45.94318" lon="4.71537">
        <ele>175</ele>
        <time>2018-07-07T08:37:34Z</time>
      </trkpt>
      <trkpt lat="45.94322" lon="4.71536">
        <ele>176</ele>
        <time>2018-07-07T08:37:35Z</time>
      </trkpt>
      <trkpt lat="45.94329" lon="4.71533">
        <ele>176</ele>
        <time>2018-07-07T08:37:36Z</time>
      </trkpt>
      <trkpt lat="45.94334" lon="4.71533">
        <ele>176</ele>
        <time>2018-07-07T08:37:37Z</time>
      </trkpt>
      <trkpt lat="45.94342" lon="4.7153">
        <ele>176</ele>
        <time>2018-07-07T08:37:38Z</time>
      </trkpt>
      <trkpt lat="45.94349" lon="4.71529">
        <ele>176</ele>
        <time>2018-07-07T08:37:39Z</time>
      </trkpt>
      <trkpt lat="45.94356" lon="4.71526">
        <ele>176</ele>
        <time>2018-07-07T08:37:41Z</time>
      </trkpt>
      <trkpt lat="45.94362" lon="4.71524">
        <ele>176</ele>
        <time>2018-07-07T08:37:42Z</time>
      </trkpt>
      <trkpt lat="45.94368" lon="4.71522">
        <ele>176</ele>
        <time>2018-07-07T08:37:43Z</time>
      </trkpt>
      <trkpt lat="45.94373" lon="4.7152">
        <ele>176</ele>
        <time>2018-07-07T08:37:44Z</time>
      </trkpt>
      <trkpt lat="45.94381" lon="4.71518">
        <ele>177</ele>
        <time>2018-07-07T08:37:46Z</time>
      </trkpt>
      <trkpt lat="45.94385" lon="4.71516">
        <ele>177</ele>
        <time>2018-07-07T08:37:47Z</time>
      </trkpt>
      <trkpt lat="45.94393" lon="4.71513">
        <ele>177</ele>
        <time>2018-07-07T08:37:49Z</time>
      </trkpt>
      <trkpt lat="45.94398" lon="4.71511">
        <ele>177</ele>
        <time>2018-07-07T08:37:50Z</time>
      </trkpt>
      <trkpt lat="45.94403" lon="4.7151">
        <ele>177</ele>
        <time>2018-07-07T08:37:51Z</time>
      </trkpt>
      <trkpt lat="45.9441" lon="4.71506">
        <ele>177</ele>
        <time>2018-07-07T08:37:52Z</time>
      </trkpt>
      <trkpt lat="45.94416" lon="4.71503">
        <ele>178</ele>
        <time>2018-07-07T08:37:53Z</time>
      </trkpt>
      <trkpt lat="45.94421" lon="4.715">
        <ele>178</ele>
        <time>2018-07-07T08:37:54Z</time>
      </trkpt>
      <trkpt lat="45.94428" lon="4.71498">
        <ele>178</ele>
        <time>2018-07-07T08:37:56Z</time>
      </trkpt>
      <trkpt lat="45.94433" lon="4.71496">
        <ele>178</ele>
        <time>2018-07-07T08:37:57Z</time>
      </trkpt>
      <trkpt lat="45.94434" lon="4.71496">
        <ele>178</ele>
        <time>2018-07-07T08:37:58Z</time>
      </trkpt>
      <trkpt lat="45.94442" lon="4.71493">
        <ele>178</ele>
        <time>2018-07-07T08:37:59Z</time>
      </trkpt>
      <trkpt lat="45.94449" lon="4.71491">
        <ele>179</ele>
        <time>2018-07-07T08:38:01Z</time>
      </trkpt>
      <trkpt lat="45.94454" lon="4.71489">
        <ele>179</ele>
        <time>2018-07-07T08:38:02Z</time>
      </trkpt>
      <trkpt lat="45.94459" lon="4.71488">
        <ele>179</ele>
        <time>2018-07-07T08:38:03Z</time>
      </trkpt>
      <trkpt lat="45.94463" lon="4.71485">
        <ele>179</ele>
        <time>2018-07-07T08:38:04Z</time>
      </trkpt>
      <trkpt lat="45.94468" lon="4.71483">
        <ele>179</ele>
        <time>2018-07-07T08:38:05Z</time>
      </trkpt>
      <trkpt lat="45.94473" lon="4.71479">
        <ele>179</ele>
        <time>2018-07-07T08:38:06Z</time>
      </trkpt>
      <trkpt lat="45.94478" lon="4.71475">
        <ele>179</ele>
        <time>2018-07-07T08:38:07Z</time>
      </trkpt>
      <trkpt lat="45.94484" lon="4.71473">
        <ele>179</ele>
        <time>2018-07-07T08:38:08Z</time>
      </trkpt>
      <trkpt lat="45.94492" lon="4.71471">
        <ele>179</ele>
        <time>2018-07-07T08:38:10Z</time>
      </trkpt>
      <trkpt lat="45.94497" lon="4.71468">
        <ele>179</ele>
        <time>2018-07-07T08:38:11Z</time>
      </trkpt>
      <trkpt lat="45.94503" lon="4.71467">
        <ele>179</ele>
        <time>2018-07-07T08:38:12Z</time>
      </trkpt>
      <trkpt lat="45.94507" lon="4.71465">
        <ele>179</ele>
        <time>2018-07-07T08:38:13Z</time>
      </trkpt>
      <trkpt lat="45.94513" lon="4.71459">
        <ele>180</ele>
        <time>2018-07-07T08:38:15Z</time>
      </trkpt>
      <trkpt lat="45.94517" lon="4.7146">
        <ele>180</ele>
        <time>2018-07-07T08:38:16Z</time>
      </trkpt>
      <trkpt lat="45.9452" lon="4.71457">
        <ele>180</ele>
        <time>2018-07-07T08:38:18Z</time>
      </trkpt>
      <trkpt lat="45.94528" lon="4.71455">
        <ele>180</ele>
        <time>2018-07-07T08:38:19Z</time>
      </trkpt>
      <trkpt lat="45.94535" lon="4.71452">
        <ele>180</ele>
        <time>2018-07-07T08:38:21Z</time>
      </trkpt>
      <trkpt lat="45.9454" lon="4.71451">
        <ele>180</ele>
        <time>2018-07-07T08:38:22Z</time>
      </trkpt>
      <trkpt lat="45.94542" lon="4.71451">
        <ele>180</ele>
        <time>2018-07-07T08:38:23Z</time>
      </trkpt>
      <trkpt lat="45.9455" lon="4.71449">
        <ele>180</ele>
        <time>2018-07-07T08:38:24Z</time>
      </trkpt>
      <trkpt lat="45.94558" lon="4.71449">
        <ele>181</ele>
        <time>2018-07-07T08:38:27Z</time>
      </trkpt>
      <trkpt lat="45.94564" lon="4.7145">
        <ele>181</ele>
        <time>2018-07-07T08:38:28Z</time>
      </trkpt>
      <trkpt lat="45.94571" lon="4.71448">
        <ele>181</ele>
        <time>2018-07-07T08:38:30Z</time>
      </trkpt>
      <trkpt lat="45.94578" lon="4.71448">
        <ele>181</ele>
        <time>2018-07-07T08:38:31Z</time>
      </trkpt>
      <trkpt lat="45.94584" lon="4.71448">
        <ele>181</ele>
        <time>2018-07-07T08:38:32Z</time>
      </trkpt>
      <trkpt lat="45.94588" lon="4.71448">
        <ele>181</ele>
        <time>2018-07-07T08:38:33Z</time>
      </trkpt>
      <trkpt lat="45.94595" lon="4.7145">
        <ele>181</ele>
        <time>2018-07-07T08:38:35Z</time>
      </trkpt>
      <trkpt lat="45.946" lon="4.71451">
        <ele>181</ele>
        <time>2018-07-07T08:38:36Z</time>
      </trkpt>
      <trkpt lat="45.94605" lon="4.71451">
        <ele>181</ele>
        <time>2018-07-07T08:38:37Z</time>
      </trkpt>
      <trkpt lat="45.94609" lon="4.71451">
        <ele>181</ele>
        <time>2018-07-07T08:38:38Z</time>
      </trkpt>
      <trkpt lat="45.94615" lon="4.71451">
        <ele>181</ele>
        <time>2018-07-07T08:38:39Z</time>
      </trkpt>
      <trkpt lat="45.94619" lon="4.71451">
        <ele>181</ele>
        <time>2018-07-07T08:38:40Z</time>
      </trkpt>
      <trkpt lat="45.94625" lon="4.71451">
        <ele>181</ele>
        <time>2018-07-07T08:38:41Z</time>
      </trkpt>
      <trkpt lat="45.94629" lon="4.71452">
        <ele>181</ele>
        <time>2018-07-07T08:38:42Z</time>
      </trkpt>
      <trkpt lat="45.94635" lon="4.71451">
        <ele>181</ele>
        <time>2018-07-07T08:38:43Z</time>
      </trkpt>
      <trkpt lat="45.9464" lon="4.71452">
        <ele>181</ele>
        <time>2018-07-07T08:38:44Z</time>
      </trkpt>
      <trkpt lat="45.94645" lon="4.71452">
        <ele>181</ele>
        <time>2018-07-07T08:38:45Z</time>
      </trkpt>
      <trkpt lat="45.94652" lon="4.71452">
        <ele>181</ele>
        <time>2018-07-07T08:38:46Z</time>
      </trkpt>
      <trkpt lat="45.94657" lon="4.71451">
        <ele>181</ele>
        <time>2018-07-07T08:38:47Z</time>
      </trkpt>
      <trkpt lat="45.94661" lon="4.71451">
        <ele>181</ele>
        <time>2018-07-07T08:38:48Z</time>
      </trkpt>
      <trkpt lat="45.94667" lon="4.71454">
        <ele>181</ele>
        <time>2018-07-07T08:38:50Z</time>
      </trkpt>
      <trkpt lat="45.94672" lon="4.71455">
        <ele>181</ele>
        <time>2018-07-07T08:38:51Z</time>
      </trkpt>
      <trkpt lat="45.94679" lon="4.71457">
        <ele>181</ele>
        <time>2018-07-07T08:38:53Z</time>
      </trkpt>
      <trkpt lat="45.94686" lon="4.71457">
        <ele>181</ele>
        <time>2018-07-07T08:38:54Z</time>
      </trkpt>
      <trkpt lat="45.94691" lon="4.71457">
        <ele>181</ele>
        <time>2018-07-07T08:38:55Z</time>
      </trkpt>
      <trkpt lat="45.94696" lon="4.71459">
        <ele>181</ele>
        <time>2018-07-07T08:38:56Z</time>
      </trkpt>
      <trkpt lat="45.947" lon="4.7146">
        <ele>181</ele>
        <time>2018-07-07T08:38:57Z</time>
      </trkpt>
      <trkpt lat="45.94706" lon="4.71459">
        <ele>181</ele>
        <time>2018-07-07T08:38:58Z</time>
      </trkpt>
      <trkpt lat="45.94712" lon="4.7146">
        <ele>181</ele>
        <time>2018-07-07T08:38:59Z</time>
      </trkpt>
      <trkpt lat="45.94717" lon="4.71461">
        <ele>182</ele>
        <time>2018-07-07T08:39:00Z</time>
      </trkpt>
      <trkpt lat="45.94724" lon="4.71464">
        <ele>181</ele>
        <time>2018-07-07T08:39:02Z</time>
      </trkpt>
      <trkpt lat="45.94732" lon="4.71463">
        <ele>182</ele>
        <time>2018-07-07T08:39:03Z</time>
      </trkpt>
      <trkpt lat="45.94738" lon="4.71463">
        <ele>182</ele>
        <time>2018-07-07T08:39:04Z</time>
      </trkpt>
      <trkpt lat="45.94747" lon="4.71461">
        <ele>182</ele>
        <time>2018-07-07T08:39:05Z</time>
      </trkpt>
      <trkpt lat="45.94756" lon="4.71464">
        <ele>182</ele>
        <time>2018-07-07T08:39:08Z</time>
      </trkpt>
      <trkpt lat="45.9476" lon="4.71465">
        <ele>182</ele>
        <time>2018-07-07T08:39:09Z</time>
      </trkpt>
      <trkpt lat="45.94768" lon="4.71464">
        <ele>183</ele>
        <time>2018-07-07T08:39:10Z</time>
      </trkpt>
      <trkpt lat="45.94774" lon="4.71464">
        <ele>183</ele>
        <time>2018-07-07T08:39:11Z</time>
      </trkpt>
      <trkpt lat="45.94777" lon="4.71465">
        <ele>183</ele>
        <time>2018-07-07T08:39:12Z</time>
      </trkpt>
      <trkpt lat="45.94783" lon="4.71467">
        <ele>183</ele>
        <time>2018-07-07T08:39:13Z</time>
      </trkpt>
      <trkpt lat="45.94791" lon="4.71466">
        <ele>183</ele>
        <time>2018-07-07T08:39:14Z</time>
      </trkpt>
      <trkpt lat="45.94797" lon="4.71466">
        <ele>183</ele>
        <time>2018-07-07T08:39:15Z</time>
      </trkpt>
      <trkpt lat="45.94805" lon="4.71464">
        <ele>183</ele>
        <time>2018-07-07T08:39:16Z</time>
      </trkpt>
      <trkpt lat="45.94813" lon="4.71464">
        <ele>183</ele>
        <time>2018-07-07T08:39:17Z</time>
      </trkpt>
      <trkpt lat="45.94818" lon="4.71467">
        <ele>183</ele>
        <time>2018-07-07T08:39:18Z</time>
      </trkpt>
      <trkpt lat="45.94825" lon="4.71467">
        <ele>183</ele>
        <time>2018-07-07T08:39:19Z</time>
      </trkpt>
      <trkpt lat="45.94833" lon="4.7147">
        <ele>183</ele>
        <time>2018-07-07T08:39:21Z</time>
      </trkpt>
      <trkpt lat="45.9484" lon="4.71471">
        <ele>183</ele>
        <time>2018-07-07T08:39:22Z</time>
      </trkpt>
      <trkpt lat="45.94846" lon="4.71471">
        <ele>183</ele>
        <time>2018-07-07T08:39:23Z</time>
      </trkpt>
      <trkpt lat="45.94851" lon="4.7147">
        <ele>183</ele>
        <time>2018-07-07T08:39:24Z</time>
      </trkpt>
      <trkpt lat="45.94859" lon="4.71476">
        <ele>183</ele>
        <time>2018-07-07T08:39:26Z</time>
      </trkpt>
      <trkpt lat="45.94862" lon="4.71478">
        <ele>183</ele>
        <time>2018-07-07T08:39:27Z</time>
      </trkpt>
      <trkpt lat="45.94868" lon="4.71477">
        <ele>183</ele>
        <time>2018-07-07T08:39:28Z</time>
      </trkpt>
      <trkpt lat="45.94872" lon="4.71478">
        <ele>183</ele>
        <time>2018-07-07T08:39:29Z</time>
      </trkpt>
      <trkpt lat="45.94875" lon="4.7148">
        <ele>183</ele>
        <time>2018-07-07T08:39:30Z</time>
      </trkpt>
      <trkpt lat="45.94882" lon="4.7148">
        <ele>183</ele>
        <time>2018-07-07T08:39:31Z</time>
      </trkpt>
      <trkpt lat="45.94888" lon="4.71482">
        <ele>183</ele>
        <time>2018-07-07T08:39:32Z</time>
      </trkpt>
      <trkpt lat="45.94894" lon="4.71483">
        <ele>182</ele>
        <time>2018-07-07T08:39:33Z</time>
      </trkpt>
      <trkpt lat="45.94901" lon="4.71481">
        <ele>182</ele>
        <time>2018-07-07T08:39:34Z</time>
      </trkpt>
      <trkpt lat="45.94904" lon="4.71481">
        <ele>182</ele>
        <time>2018-07-07T08:39:35Z</time>
      </trkpt>
      <trkpt lat="45.94912" lon="4.7148">
        <ele>182</ele>
        <time>2018-07-07T08:39:37Z</time>
      </trkpt>
      <trkpt lat="45.94914" lon="4.7148">
        <ele>182</ele>
        <time>2018-07-07T08:39:38Z</time>
      </trkpt>
      <trkpt lat="45.94922" lon="4.7148">
        <ele>182</ele>
        <time>2018-07-07T08:39:41Z</time>
      </trkpt>
      <trkpt lat="45.94925" lon="4.71479">
        <ele>182</ele>
        <time>2018-07-07T08:39:42Z</time>
      </trkpt>
      <trkpt lat="45.94934" lon="4.7148">
        <ele>182</ele>
        <time>2018-07-07T08:39:43Z</time>
      </trkpt>
      <trkpt lat="45.94939" lon="4.71481">
        <ele>182</ele>
        <time>2018-07-07T08:39:44Z</time>
      </trkpt>
      <trkpt lat="45.94943" lon="4.71485">
        <ele>182</ele>
        <time>2018-07-07T08:39:45Z</time>
      </trkpt>
      <trkpt lat="45.94946" lon="4.71489">
        <ele>182</ele>
        <time>2018-07-07T08:39:46Z</time>
      </trkpt>
      <trkpt lat="45.94952" lon="4.7149">
        <ele>182</ele>
        <time>2018-07-07T08:39:47Z</time>
      </trkpt>
      <trkpt lat="45.94957" lon="4.71492">
        <ele>182</ele>
        <time>2018-07-07T08:39:48Z</time>
      </trkpt>
      <trkpt lat="45.94965" lon="4.71492">
        <ele>182</ele>
        <time>2018-07-07T08:39:50Z</time>
      </trkpt>
      <trkpt lat="45.9497" lon="4.71491">
        <ele>182</ele>
        <time>2018-07-07T08:39:51Z</time>
      </trkpt>
      <trkpt lat="45.94974" lon="4.71488">
        <ele>182</ele>
        <time>2018-07-07T08:39:52Z</time>
      </trkpt>
      <trkpt lat="45.9498" lon="4.71485">
        <ele>182</ele>
        <time>2018-07-07T08:39:53Z</time>
      </trkpt>
      <trkpt lat="45.94985" lon="4.71484">
        <ele>182</ele>
        <time>2018-07-07T08:39:54Z</time>
      </trkpt>
      <trkpt lat="45.94989" lon="4.71483">
        <ele>182</ele>
        <time>2018-07-07T08:39:55Z</time>
      </trkpt>
      <trkpt lat="45.94996" lon="4.71482">
        <ele>182</ele>
        <time>2018-07-07T08:39:56Z</time>
      </trkpt>
      <trkpt lat="45.95" lon="4.71482">
        <ele>181</ele>
        <time>2018-07-07T08:39:57Z</time>
      </trkpt>
      <trkpt lat="45.95006" lon="4.71483">
        <ele>181</ele>
        <time>2018-07-07T08:39:58Z</time>
      </trkpt>
      <trkpt lat="45.95012" lon="4.71484">
        <ele>181</ele>
        <time>2018-07-07T08:39:59Z</time>
      </trkpt>
      <trkpt lat="45.95016" lon="4.71485">
        <ele>181</ele>
        <time>2018-07-07T08:40:00Z</time>
      </trkpt>
      <trkpt lat="45.95023" lon="4.71486">
        <ele>181</ele>
        <time>2018-07-07T08:40:01Z</time>
      </trkpt>
      <trkpt lat="45.95029" lon="4.71487">
        <ele>181</ele>
        <time>2018-07-07T08:40:02Z</time>
      </trkpt>
      <trkpt lat="45.95035" lon="4.71488">
        <ele>181</ele>
        <time>2018-07-07T08:40:03Z</time>
      </trkpt>
      <trkpt lat="45.95043" lon="4.71488">
        <ele>181</ele>
        <time>2018-07-07T08:40:04Z</time>
      </trkpt>
      <trkpt lat="45.9505" lon="4.71487">
        <ele>181</ele>
        <time>2018-07-07T08:40:05Z</time>
      </trkpt>
      <trkpt lat="45.95058" lon="4.71487">
        <ele>181</ele>
        <time>2018-07-07T08:40:06Z</time>
      </trkpt>
      <trkpt lat="45.95063" lon="4.71489">
        <ele>181</ele>
        <time>2018-07-07T08:40:07Z</time>
      </trkpt>
      <trkpt lat="45.95072" lon="4.71488">
        <ele>180</ele>
        <time>2018-07-07T08:40:08Z</time>
      </trkpt>
      <trkpt lat="45.9508" lon="4.71487">
        <ele>180</ele>
        <time>2018-07-07T08:40:09Z</time>
      </trkpt>
      <trkpt lat="45.95089" lon="4.71487">
        <ele>179</ele>
        <time>2018-07-07T08:40:10Z</time>
      </trkpt>
      <trkpt lat="45.95097" lon="4.71487">
        <ele>179</ele>
        <time>2018-07-07T08:40:11Z</time>
      </trkpt>
      <trkpt lat="45.95104" lon="4.71487">
        <ele>179</ele>
        <time>2018-07-07T08:40:12Z</time>
      </trkpt>
      <trkpt lat="45.95112" lon="4.71488">
        <ele>179</ele>
        <time>2018-07-07T08:40:13Z</time>
      </trkpt>
      <trkpt lat="45.95119" lon="4.71488">
        <ele>178</ele>
        <time>2018-07-07T08:40:14Z</time>
      </trkpt>
      <trkpt lat="45.95124" lon="4.7149">
        <ele>178</ele>
        <time>2018-07-07T08:40:15Z</time>
      </trkpt>
      <trkpt lat="45.95135" lon="4.71488">
        <ele>178</ele>
        <time>2018-07-07T08:40:16Z</time>
      </trkpt>
      <trkpt lat="45.95146" lon="4.71489">
        <ele>178</ele>
        <time>2018-07-07T08:40:17Z</time>
      </trkpt>
      <trkpt lat="45.95155" lon="4.71487">
        <ele>178</ele>
        <time>2018-07-07T08:40:18Z</time>
      </trkpt>
      <trkpt lat="45.95162" lon="4.71494">
        <ele>177</ele>
        <time>2018-07-07T08:40:20Z</time>
      </trkpt>
      <trkpt lat="45.95169" lon="4.71495">
        <ele>177</ele>
        <time>2018-07-07T08:40:21Z</time>
      </trkpt>
      <trkpt lat="45.95177" lon="4.71498">
        <ele>177</ele>
        <time>2018-07-07T08:40:22Z</time>
      </trkpt>
      <trkpt lat="45.95185" lon="4.71499">
        <ele>177</ele>
        <time>2018-07-07T08:40:23Z</time>
      </trkpt>
      <trkpt lat="45.95195" lon="4.715">
        <ele>177</ele>
        <time>2018-07-07T08:40:24Z</time>
      </trkpt>
      <trkpt lat="45.95203" lon="4.71499">
        <ele>177</ele>
        <time>2018-07-07T08:40:25Z</time>
      </trkpt>
      <trkpt lat="45.95208" lon="4.71502">
        <ele>176</ele>
        <time>2018-07-07T08:40:26Z</time>
      </trkpt>
      <trkpt lat="45.95217" lon="4.71499">
        <ele>177</ele>
        <time>2018-07-07T08:40:27Z</time>
      </trkpt>
      <trkpt lat="45.95228" lon="4.71498">
        <ele>177</ele>
        <time>2018-07-07T08:40:28Z</time>
      </trkpt>
      <trkpt lat="45.95237" lon="4.71495">
        <ele>177</ele>
        <time>2018-07-07T08:40:29Z</time>
      </trkpt>
      <trkpt lat="45.95248" lon="4.71491">
        <ele>177</ele>
        <time>2018-07-07T08:40:30Z</time>
      </trkpt>
      <trkpt lat="45.95253" lon="4.7149">
        <ele>177</ele>
        <time>2018-07-07T08:40:31Z</time>
      </trkpt>
      <trkpt lat="45.95259" lon="4.71492">
        <ele>176</ele>
        <time>2018-07-07T08:40:32Z</time>
      </trkpt>
      <trkpt lat="45.95263" lon="4.71496">
        <ele>176</ele>
        <time>2018-07-07T08:40:33Z</time>
      </trkpt>
      <trkpt lat="45.95274" lon="4.71491">
        <ele>176</ele>
        <time>2018-07-07T08:40:34Z</time>
      </trkpt>
      <trkpt lat="45.95281" lon="4.71494">
        <ele>176</ele>
        <time>2018-07-07T08:40:35Z</time>
      </trkpt>
      <trkpt lat="45.95284" lon="4.71496">
        <ele>176</ele>
        <time>2018-07-07T08:40:36Z</time>
      </trkpt>
      <trkpt lat="45.95293" lon="4.71496">
        <ele>176</ele>
        <time>2018-07-07T08:40:37Z</time>
      </trkpt>
      <trkpt lat="45.95297" lon="4.71499">
        <ele>176</ele>
        <time>2018-07-07T08:40:38Z</time>
      </trkpt>
      <trkpt lat="45.95305" lon="4.71496">
        <ele>175</ele>
        <time>2018-07-07T08:40:39Z</time>
      </trkpt>
      <trkpt lat="45.95309" lon="4.71497">
        <ele>175</ele>
        <time>2018-07-07T08:40:40Z</time>
      </trkpt>
      <trkpt lat="45.95314" lon="4.71497">
        <ele>175</ele>
        <time>2018-07-07T08:40:41Z</time>
      </trkpt>
      <trkpt lat="45.9532" lon="4.71498">
        <ele>175</ele>
        <time>2018-07-07T08:40:42Z</time>
      </trkpt>
      <trkpt lat="45.95326" lon="4.71499">
        <ele>174</ele>
        <time>2018-07-07T08:40:43Z</time>
      </trkpt>
      <trkpt lat="45.95332" lon="4.71499">
        <ele>174</ele>
        <time>2018-07-07T08:40:44Z</time>
      </trkpt>
      <trkpt lat="45.95339" lon="4.715">
        <ele>174</ele>
        <time>2018-07-07T08:40:45Z</time>
      </trkpt>
      <trkpt lat="45.95343" lon="4.71501">
        <ele>174</ele>
        <time>2018-07-07T08:40:46Z</time>
      </trkpt>
      <trkpt lat="45.95348" lon="4.71503">
        <ele>174</ele>
        <time>2018-07-07T08:40:47Z</time>
      </trkpt>
      <trkpt lat="45.95354" lon="4.71503">
        <ele>174</ele>
        <time>2018-07-07T08:40:48Z</time>
      </trkpt>
      <trkpt lat="45.95359" lon="4.71504">
        <ele>174</ele>
        <time>2018-07-07T08:40:49Z</time>
      </trkpt>
      <trkpt lat="45.95365" lon="4.71503">
        <ele>174</ele>
        <time>2018-07-07T08:40:50Z</time>
      </trkpt>
      <trkpt lat="45.95372" lon="4.71503">
        <ele>174</ele>
        <time>2018-07-07T08:40:51Z</time>
      </trkpt>
      <trkpt lat="45.95375" lon="4.71504">
        <ele>174</ele>
        <time>2018-07-07T08:40:52Z</time>
      </trkpt>
      <trkpt lat="45.95381" lon="4.71504">
        <ele>174</ele>
        <time>2018-07-07T08:40:53Z</time>
      </trkpt>
      <trkpt lat="45.95384" lon="4.71504">
        <ele>174</ele>
        <time>2018-07-07T08:40:54Z</time>
      </trkpt>
      <trkpt lat="45.95391" lon="4.71502">
        <ele>174</ele>
        <time>2018-07-07T08:40:55Z</time>
      </trkpt>
      <trkpt lat="45.95397" lon="4.71502">
        <ele>174</ele>
        <time>2018-07-07T08:40:56Z</time>
      </trkpt>
      <trkpt lat="45.95403" lon="4.71503">
        <ele>174</ele>
        <time>2018-07-07T08:40:57Z</time>
      </trkpt>
      <trkpt lat="45.95409" lon="4.71504">
        <ele>174</ele>
        <time>2018-07-07T08:40:58Z</time>
      </trkpt>
      <trkpt lat="45.95414" lon="4.71504">
        <ele>174</ele>
        <time>2018-07-07T08:40:59Z</time>
      </trkpt>
      <trkpt lat="45.9542" lon="4.71504">
        <ele>174</ele>
        <time>2018-07-07T08:41:00Z</time>
      </trkpt>
      <trkpt lat="45.95426" lon="4.71505">
        <ele>174</ele>
        <time>2018-07-07T08:41:01Z</time>
      </trkpt>
      <trkpt lat="45.95434" lon="4.71503">
        <ele>175</ele>
        <time>2018-07-07T08:41:02Z</time>
      </trkpt>
      <trkpt lat="45.95439" lon="4.71504">
        <ele>175</ele>
        <time>2018-07-07T08:41:03Z</time>
      </trkpt>
      <trkpt lat="45.95445" lon="4.71504">
        <ele>175</ele>
        <time>2018-07-07T08:41:04Z</time>
      </trkpt>
      <trkpt lat="45.95451" lon="4.71504">
        <ele>175</ele>
        <time>2018-07-07T08:41:05Z</time>
      </trkpt>
      <trkpt lat="45.95456" lon="4.71506">
        <ele>175</ele>
        <time>2018-07-07T08:41:06Z</time>
      </trkpt>
      <trkpt lat="45.95462" lon="4.71506">
        <ele>175</ele>
        <time>2018-07-07T08:41:07Z</time>
      </trkpt>
      <trkpt lat="45.95468" lon="4.71507">
        <ele>175</ele>
        <time>2018-07-07T08:41:08Z</time>
      </trkpt>
      <trkpt lat="45.95472" lon="4.71506">
        <ele>176</ele>
        <time>2018-07-07T08:41:09Z</time>
      </trkpt>
      <trkpt lat="45.95478" lon="4.71509">
        <ele>176</ele>
        <time>2018-07-07T08:41:11Z</time>
      </trkpt>
      <trkpt lat="45.95481" lon="4.7151">
        <ele>176</ele>
        <time>2018-07-07T08:41:12Z</time>
      </trkpt>
      <trkpt lat="45.95486" lon="4.7151">
        <ele>176</ele>
        <time>2018-07-07T08:41:13Z</time>
      </trkpt>
      <trkpt lat="45.95491" lon="4.71511">
        <ele>176</ele>
        <time>2018-07-07T08:41:14Z</time>
      </trkpt>
      <trkpt lat="45.95496" lon="4.71511">
        <ele>176</ele>
        <time>2018-07-07T08:41:15Z</time>
      </trkpt>
      <trkpt lat="45.955" lon="4.71512">
        <ele>176</ele>
        <time>2018-07-07T08:41:16Z</time>
      </trkpt>
      <trkpt lat="45.95505" lon="4.71513">
        <ele>177</ele>
        <time>2018-07-07T08:41:17Z</time>
      </trkpt>
      <trkpt lat="45.9551" lon="4.71513">
        <ele>177</ele>
        <time>2018-07-07T08:41:18Z</time>
      </trkpt>
      <trkpt lat="45.95515" lon="4.71514">
        <ele>177</ele>
        <time>2018-07-07T08:41:19Z</time>
      </trkpt>
      <trkpt lat="45.95519" lon="4.71515">
        <ele>177</ele>
        <time>2018-07-07T08:41:20Z</time>
      </trkpt>
      <trkpt lat="45.95524" lon="4.71515">
        <ele>177</ele>
        <time>2018-07-07T08:41:21Z</time>
      </trkpt>
      <trkpt lat="45.9553" lon="4.71514">
        <ele>177</ele>
        <time>2018-07-07T08:41:22Z</time>
      </trkpt>
      <trkpt lat="45.95536" lon="4.71515">
        <ele>177</ele>
        <time>2018-07-07T08:41:23Z</time>
      </trkpt>
      <trkpt lat="45.95541" lon="4.71516">
        <ele>177</ele>
        <time>2018-07-07T08:41:24Z</time>
      </trkpt>
      <trkpt lat="45.95545" lon="4.71516">
        <ele>177</ele>
        <time>2018-07-07T08:41:25Z</time>
      </trkpt>
      <trkpt lat="45.9555" lon="4.71517">
        <ele>178</ele>
        <time>2018-07-07T08:41:26Z</time>
      </trkpt>
      <trkpt lat="45.95556" lon="4.71516">
        <ele>178</ele>
        <time>2018-07-07T08:41:27Z</time>
      </trkpt>
      <trkpt lat="45.95561" lon="4.71516">
        <ele>178</ele>
        <time>2018-07-07T08:41:28Z</time>
      </trkpt>
      <trkpt lat="45.95566" lon="4.71516">
        <ele>178</ele>
        <time>2018-07-07T08:41:29Z</time>
      </trkpt>
      <trkpt lat="45.95572" lon="4.71516">
        <ele>178</ele>
        <time>2018-07-07T08:41:30Z</time>
      </trkpt>
      <trkpt lat="45.9558" lon="4.71517">
        <ele>178</ele>
        <time>2018-07-07T08:41:32Z</time>
      </trkpt>
      <trkpt lat="45.95585" lon="4.71517">
        <ele>179</ele>
        <time>2018-07-07T08:41:33Z</time>
      </trkpt>
      <trkpt lat="45.95591" lon="4.71516">
        <ele>179</ele>
        <time>2018-07-07T08:41:34Z</time>
      </trkpt>
      <trkpt lat="45.95595" lon="4.71517">
        <ele>179</ele>
        <time>2018-07-07T08:41:35Z</time>
      </trkpt>
      <trkpt lat="45.956" lon="4.71518">
        <ele>179</ele>
        <time>2018-07-07T08:41:36Z</time>
      </trkpt>
      <trkpt lat="45.95605" lon="4.71518">
        <ele>179</ele>
        <time>2018-07-07T08:41:37Z</time>
      </trkpt>
      <trkpt lat="45.9561" lon="4.71518">
        <ele>179</ele>
        <time>2018-07-07T08:41:38Z</time>
      </trkpt>
      <trkpt lat="45.95615" lon="4.71519">
        <ele>179</ele>
        <time>2018-07-07T08:41:39Z</time>
      </trkpt>
      <trkpt lat="45.9562" lon="4.71519">
        <ele>179</ele>
        <time>2018-07-07T08:41:40Z</time>
      </trkpt>
      <trkpt lat="45.95625" lon="4.71519">
        <ele>179</ele>
        <time>2018-07-07T08:41:41Z</time>
      </trkpt>
      <trkpt lat="45.9563" lon="4.71519">
        <ele>179</ele>
        <time>2018-07-07T08:41:42Z</time>
      </trkpt>
      <trkpt lat="45.95635" lon="4.71519">
        <ele>179</ele>
        <time>2018-07-07T08:41:43Z</time>
      </trkpt>
      <trkpt lat="45.95641" lon="4.7152">
        <ele>180</ele>
        <time>2018-07-07T08:41:44Z</time>
      </trkpt>
      <trkpt lat="45.95646" lon="4.71518">
        <ele>180</ele>
        <time>2018-07-07T08:41:45Z</time>
      </trkpt>
      <trkpt lat="45.95655" lon="4.7152">
        <ele>180</ele>
        <time>2018-07-07T08:41:47Z</time>
      </trkpt>
      <trkpt lat="45.9566" lon="4.71521">
        <ele>180</ele>
        <time>2018-07-07T08:41:48Z</time>
      </trkpt>
      <trkpt lat="45.95664" lon="4.71522">
        <ele>180</ele>
        <time>2018-07-07T08:41:49Z</time>
      </trkpt>
      <trkpt lat="45.95669" lon="4.71522">
        <ele>180</ele>
        <time>2018-07-07T08:41:50Z</time>
      </trkpt>
      <trkpt lat="45.95673" lon="4.71522">
        <ele>180</ele>
        <time>2018-07-07T08:41:51Z</time>
      </trkpt>
      <trkpt lat="45.95678" lon="4.71522">
        <ele>180</ele>
        <time>2018-07-07T08:41:52Z</time>
      </trkpt>
      <trkpt lat="45.95684" lon="4.71521">
        <ele>180</ele>
        <time>2018-07-07T08:41:53Z</time>
      </trkpt>
      <trkpt lat="45.95689" lon="4.71521">
        <ele>180</ele>
        <time>2018-07-07T08:41:54Z</time>
      </trkpt>
      <trkpt lat="45.95694" lon="4.71522">
        <ele>180</ele>
        <time>2018-07-07T08:41:55Z</time>
      </trkpt>
      <trkpt lat="45.957" lon="4.71522">
        <ele>180</ele>
        <time>2018-07-07T08:41:56Z</time>
      </trkpt>
      <trkpt lat="45.95707" lon="4.71524">
        <ele>180</ele>
        <time>2018-07-07T08:41:58Z</time>
      </trkpt>
      <trkpt lat="45.95712" lon="4.71523">
        <ele>180</ele>
        <time>2018-07-07T08:41:59Z</time>
      </trkpt>
      <trkpt lat="45.9572" lon="4.71526">
        <ele>180</ele>
        <time>2018-07-07T08:42:01Z</time>
      </trkpt>
      <trkpt lat="45.95724" lon="4.71527">
        <ele>180</ele>
        <time>2018-07-07T08:42:02Z</time>
      </trkpt>
      <trkpt lat="45.95729" lon="4.71527">
        <ele>180</ele>
        <time>2018-07-07T08:42:03Z</time>
      </trkpt>
      <trkpt lat="45.95733" lon="4.71527">
        <ele>180</ele>
        <time>2018-07-07T08:42:04Z</time>
      </trkpt>
      <trkpt lat="45.95736" lon="4.71527">
        <ele>180</ele>
        <time>2018-07-07T08:42:05Z</time>
      </trkpt>
      <trkpt lat="45.95744" lon="4.71526">
        <ele>180</ele>
        <time>2018-07-07T08:42:06Z</time>
      </trkpt>
      <trkpt lat="45.95751" lon="4.71527">
        <ele>181</ele>
        <time>2018-07-07T08:42:08Z</time>
      </trkpt>
      <trkpt lat="45.95756" lon="4.71527">
        <ele>181</ele>
        <time>2018-07-07T08:42:09Z</time>
      </trkpt>
      <trkpt lat="45.95764" lon="4.71529">
        <ele>181</ele>
        <time>2018-07-07T08:42:11Z</time>
      </trkpt>
      <trkpt lat="45.95769" lon="4.71529">
        <ele>181</ele>
        <time>2018-07-07T08:42:12Z</time>
      </trkpt>
      <trkpt lat="45.95776" lon="4.7153">
        <ele>181</ele>
        <time>2018-07-07T08:42:14Z</time>
      </trkpt>
      <trkpt lat="45.9578" lon="4.71529">
        <ele>181</ele>
        <time>2018-07-07T08:42:15Z</time>
      </trkpt>
      <trkpt lat="45.95788" lon="4.7153">
        <ele>181</ele>
        <time>2018-07-07T08:42:17Z</time>
      </trkpt>
      <trkpt lat="45.95793" lon="4.7153">
        <ele>181</ele>
        <time>2018-07-07T08:42:18Z</time>
      </trkpt>
      <trkpt lat="45.95798" lon="4.7153">
        <ele>181</ele>
        <time>2018-07-07T08:42:19Z</time>
      </trkpt>
      <trkpt lat="45.95802" lon="4.7153">
        <ele>181</ele>
        <time>2018-07-07T08:42:20Z</time>
      </trkpt>
      <trkpt lat="45.95807" lon="4.7153">
        <ele>181</ele>
        <time>2018-07-07T08:42:21Z</time>
      </trkpt>
      <trkpt lat="45.95811" lon="4.71531">
        <ele>181</ele>
        <time>2018-07-07T08:42:22Z</time>
      </trkpt>
      <trkpt lat="45.9582" lon="4.71531">
        <ele>181</ele>
        <time>2018-07-07T08:42:24Z</time>
      </trkpt>
      <trkpt lat="45.95824" lon="4.71531">
        <ele>181</ele>
        <time>2018-07-07T08:42:25Z</time>
      </trkpt>
      <trkpt lat="45.95833" lon="4.71532">
        <ele>181</ele>
        <time>2018-07-07T08:42:27Z</time>
      </trkpt>
      <trkpt lat="45.95837" lon="4.71532">
        <ele>182</ele>
        <time>2018-07-07T08:42:28Z</time>
      </trkpt>
      <trkpt lat="45.95842" lon="4.71533">
        <ele>182</ele>
        <time>2018-07-07T08:42:29Z</time>
      </trkpt>
      <trkpt lat="45.95847" lon="4.71535">
        <ele>182</ele>
        <time>2018-07-07T08:42:30Z</time>
      </trkpt>
      <trkpt lat="45.95855" lon="4.71534">
        <ele>182</ele>
        <time>2018-07-07T08:42:32Z</time>
      </trkpt>
      <trkpt lat="45.9586" lon="4.71536">
        <ele>181</ele>
        <time>2018-07-07T08:42:33Z</time>
      </trkpt>
      <trkpt lat="45.95868" lon="4.71536">
        <ele>181</ele>
        <time>2018-07-07T08:42:35Z</time>
      </trkpt>
      <trkpt lat="45.95872" lon="4.71538">
        <ele>181</ele>
        <time>2018-07-07T08:42:36Z</time>
      </trkpt>
      <trkpt lat="45.95881" lon="4.71539">
        <ele>181</ele>
        <time>2018-07-07T08:42:38Z</time>
      </trkpt>
      <trkpt lat="45.95885" lon="4.71539">
        <ele>181</ele>
        <time>2018-07-07T08:42:39Z</time>
      </trkpt>
      <trkpt lat="45.95893" lon="4.7154">
        <ele>181</ele>
        <time>2018-07-07T08:42:41Z</time>
      </trkpt>
      <trkpt lat="45.95898" lon="4.7154">
        <ele>181</ele>
        <time>2018-07-07T08:42:42Z</time>
      </trkpt>
      <trkpt lat="45.95906" lon="4.7154">
        <ele>181</ele>
        <time>2018-07-07T08:42:44Z</time>
      </trkpt>
      <trkpt lat="45.9591" lon="4.7154">
        <ele>181</ele>
        <time>2018-07-07T08:42:45Z</time>
      </trkpt>
      <trkpt lat="45.95918" lon="4.71541">
        <ele>183</ele>
        <time>2018-07-07T08:42:47Z</time>
      </trkpt>
      <trkpt lat="45.95921" lon="4.71541">
        <ele>183</ele>
        <time>2018-07-07T08:42:48Z</time>
      </trkpt>
      <trkpt lat="45.95929" lon="4.7154">
        <ele>183</ele>
        <time>2018-07-07T08:42:50Z</time>
      </trkpt>
      <trkpt lat="45.95932" lon="4.71541">
        <ele>183</ele>
        <time>2018-07-07T08:42:51Z</time>
      </trkpt>
      <trkpt lat="45.95937" lon="4.71542">
        <ele>183</ele>
        <time>2018-07-07T08:42:53Z</time>
      </trkpt>
      <trkpt lat="45.95944" lon="4.71543">
        <ele>183</ele>
        <time>2018-07-07T08:42:54Z</time>
      </trkpt>
      <trkpt lat="45.95951" lon="4.7154">
        <ele>183</ele>
        <time>2018-07-07T08:42:55Z</time>
      </trkpt>
      <trkpt lat="45.95955" lon="4.71541">
        <ele>183</ele>
        <time>2018-07-07T08:42:56Z</time>
      </trkpt>
      <trkpt lat="45.95961" lon="4.71542">
        <ele>183</ele>
        <time>2018-07-07T08:42:57Z</time>
      </trkpt>
      <trkpt lat="45.95965" lon="4.71545">
        <ele>183</ele>
        <time>2018-07-07T08:42:58Z</time>
      </trkpt>
      <trkpt lat="45.95972" lon="4.71549">
        <ele>183</ele>
        <time>2018-07-07T08:43:00Z</time>
      </trkpt>
      <trkpt lat="45.95976" lon="4.7155">
        <ele>183</ele>
        <time>2018-07-07T08:43:01Z</time>
      </trkpt>
      <trkpt lat="45.95985" lon="4.71551">
        <ele>183</ele>
        <time>2018-07-07T08:43:03Z</time>
      </trkpt>
      <trkpt lat="45.95989" lon="4.71551">
        <ele>183</ele>
        <time>2018-07-07T08:43:04Z</time>
      </trkpt>
      <trkpt lat="45.95996" lon="4.71547">
        <ele>184</ele>
        <time>2018-07-07T08:43:06Z</time>
      </trkpt>
      <trkpt lat="45.95998" lon="4.71544">
        <ele>184</ele>
        <time>2018-07-07T08:43:07Z</time>
      </trkpt>
      <trkpt lat="45.96006" lon="4.71545">
        <ele>185</ele>
        <time>2018-07-07T08:43:09Z</time>
      </trkpt>
      <trkpt lat="45.9601" lon="4.71545">
        <ele>185</ele>
        <time>2018-07-07T08:43:10Z</time>
      </trkpt>
      <trkpt lat="45.96016" lon="4.71545">
        <ele>185</ele>
        <time>2018-07-07T08:43:11Z</time>
      </trkpt>
      <trkpt lat="45.9602" lon="4.71545">
        <ele>185</ele>
        <time>2018-07-07T08:43:12Z</time>
      </trkpt>
      <trkpt lat="45.96025" lon="4.71546">
        <ele>185</ele>
        <time>2018-07-07T08:43:13Z</time>
      </trkpt>
      <trkpt lat="45.96033" lon="4.71545">
        <ele>185</ele>
        <time>2018-07-07T08:43:14Z</time>
      </trkpt>
      <trkpt lat="45.96038" lon="4.71546">
        <ele>185</ele>
        <time>2018-07-07T08:43:15Z</time>
      </trkpt>
      <trkpt lat="45.96045" lon="4.71546">
        <ele>185</ele>
        <time>2018-07-07T08:43:16Z</time>
      </trkpt>
      <trkpt lat="45.96049" lon="4.71549">
        <ele>185</ele>
        <time>2018-07-07T08:43:17Z</time>
      </trkpt>
      <trkpt lat="45.96055" lon="4.7155">
        <ele>185</ele>
        <time>2018-07-07T08:43:18Z</time>
      </trkpt>
      <trkpt lat="45.9606" lon="4.7155">
        <ele>185</ele>
        <time>2018-07-07T08:43:19Z</time>
      </trkpt>
      <trkpt lat="45.96064" lon="4.71552">
        <ele>185</ele>
        <time>2018-07-07T08:43:20Z</time>
      </trkpt>
      <trkpt lat="45.96068" lon="4.71553">
        <ele>185</ele>
        <time>2018-07-07T08:43:21Z</time>
      </trkpt>
      <trkpt lat="45.96074" lon="4.71552">
        <ele>185</ele>
        <time>2018-07-07T08:43:22Z</time>
      </trkpt>
      <trkpt lat="45.96079" lon="4.71551">
        <ele>185</ele>
        <time>2018-07-07T08:43:23Z</time>
      </trkpt>
      <trkpt lat="45.96083" lon="4.71553">
        <ele>185</ele>
        <time>2018-07-07T08:43:24Z</time>
      </trkpt>
      <trkpt lat="45.96089" lon="4.71554">
        <ele>184</ele>
        <time>2018-07-07T08:43:25Z</time>
      </trkpt>
      <trkpt lat="45.96095" lon="4.71557">
        <ele>184</ele>
        <time>2018-07-07T08:43:26Z</time>
      </trkpt>
      <trkpt lat="45.96099" lon="4.71556">
        <ele>184</ele>
        <time>2018-07-07T08:43:27Z</time>
      </trkpt>
      <trkpt lat="45.96104" lon="4.71557">
        <ele>184</ele>
        <time>2018-07-07T08:43:28Z</time>
      </trkpt>
      <trkpt lat="45.96112" lon="4.71559">
        <ele>184</ele>
        <time>2018-07-07T08:43:30Z</time>
      </trkpt>
      <trkpt lat="45.96119" lon="4.71559">
        <ele>184</ele>
        <time>2018-07-07T08:43:31Z</time>
      </trkpt>
      <trkpt lat="45.96124" lon="4.7156">
        <ele>184</ele>
        <time>2018-07-07T08:43:32Z</time>
      </trkpt>
      <trkpt lat="45.96131" lon="4.71561">
        <ele>184</ele>
        <time>2018-07-07T08:43:33Z</time>
      </trkpt>
      <trkpt lat="45.96136" lon="4.71562">
        <ele>184</ele>
        <time>2018-07-07T08:43:34Z</time>
      </trkpt>
      <trkpt lat="45.9614" lon="4.71563">
        <ele>184</ele>
        <time>2018-07-07T08:43:35Z</time>
      </trkpt>
      <trkpt lat="45.96146" lon="4.71563">
        <ele>183</ele>
        <time>2018-07-07T08:43:36Z</time>
      </trkpt>
      <trkpt lat="45.96152" lon="4.71564">
        <ele>183</ele>
        <time>2018-07-07T08:43:37Z</time>
      </trkpt>
      <trkpt lat="45.9616" lon="4.71565">
        <ele>183</ele>
        <time>2018-07-07T08:43:39Z</time>
      </trkpt>
      <trkpt lat="45.96166" lon="4.71566">
        <ele>182</ele>
        <time>2018-07-07T08:43:40Z</time>
      </trkpt>
      <trkpt lat="45.96174" lon="4.71569">
        <ele>182</ele>
        <time>2018-07-07T08:43:42Z</time>
      </trkpt>
      <trkpt lat="45.96179" lon="4.7157">
        <ele>182</ele>
        <time>2018-07-07T08:43:43Z</time>
      </trkpt>
      <trkpt lat="45.96184" lon="4.71571">
        <ele>182</ele>
        <time>2018-07-07T08:43:44Z</time>
      </trkpt>
      <trkpt lat="45.96191" lon="4.71572">
        <ele>183</ele>
        <time>2018-07-07T08:43:45Z</time>
      </trkpt>
      <trkpt lat="45.96199" lon="4.71572">
        <ele>183</ele>
        <time>2018-07-07T08:43:46Z</time>
      </trkpt>
      <trkpt lat="45.96204" lon="4.71572">
        <ele>183</ele>
        <time>2018-07-07T08:43:47Z</time>
      </trkpt>
      <trkpt lat="45.9621" lon="4.71574">
        <ele>183</ele>
        <time>2018-07-07T08:43:48Z</time>
      </trkpt>
      <trkpt lat="45.96216" lon="4.71574">
        <ele>183</ele>
        <time>2018-07-07T08:43:49Z</time>
      </trkpt>
      <trkpt lat="45.9622" lon="4.71577">
        <ele>183</ele>
        <time>2018-07-07T08:43:50Z</time>
      </trkpt>
      <trkpt lat="45.96227" lon="4.71577">
        <ele>183</ele>
        <time>2018-07-07T08:43:51Z</time>
      </trkpt>
      <trkpt lat="45.96234" lon="4.71577">
        <ele>182</ele>
        <time>2018-07-07T08:43:52Z</time>
      </trkpt>
      <trkpt lat="45.9624" lon="4.71578">
        <ele>182</ele>
        <time>2018-07-07T08:43:53Z</time>
      </trkpt>
      <trkpt lat="45.96245" lon="4.71578">
        <ele>182</ele>
        <time>2018-07-07T08:43:54Z</time>
      </trkpt>
      <trkpt lat="45.9625" lon="4.71579">
        <ele>182</ele>
        <time>2018-07-07T08:43:55Z</time>
      </trkpt>
      <trkpt lat="45.96255" lon="4.71582">
        <ele>182</ele>
        <time>2018-07-07T08:43:56Z</time>
      </trkpt>
      <trkpt lat="45.9626" lon="4.71583">
        <ele>182</ele>
        <time>2018-07-07T08:43:57Z</time>
      </trkpt>
      <trkpt lat="45.96265" lon="4.71585">
        <ele>181</ele>
        <time>2018-07-07T08:43:58Z</time>
      </trkpt>
      <trkpt lat="45.96269" lon="4.71585">
        <ele>180</ele>
        <time>2018-07-07T08:43:59Z</time>
      </trkpt>
      <trkpt lat="45.96275" lon="4.71586">
        <ele>180</ele>
        <time>2018-07-07T08:44:00Z</time>
      </trkpt>
      <trkpt lat="45.96281" lon="4.71586">
        <ele>180</ele>
        <time>2018-07-07T08:44:01Z</time>
      </trkpt>
      <trkpt lat="45.96287" lon="4.71588">
        <ele>180</ele>
        <time>2018-07-07T08:44:02Z</time>
      </trkpt>
      <trkpt lat="45.96291" lon="4.7159">
        <ele>181</ele>
        <time>2018-07-07T08:44:03Z</time>
      </trkpt>
      <trkpt lat="45.96297" lon="4.7159">
        <ele>181</ele>
        <time>2018-07-07T08:44:04Z</time>
      </trkpt>
      <trkpt lat="45.96303" lon="4.71591">
        <ele>181</ele>
        <time>2018-07-07T08:44:05Z</time>
      </trkpt>
      <trkpt lat="45.96309" lon="4.71591">
        <ele>181</ele>
        <time>2018-07-07T08:44:06Z</time>
      </trkpt>
      <trkpt lat="45.96314" lon="4.71591">
        <ele>181</ele>
        <time>2018-07-07T08:44:07Z</time>
      </trkpt>
      <trkpt lat="45.96319" lon="4.71592">
        <ele>181</ele>
        <time>2018-07-07T08:44:08Z</time>
      </trkpt>
      <trkpt lat="45.96324" lon="4.71592">
        <ele>182</ele>
        <time>2018-07-07T08:44:09Z</time>
      </trkpt>
      <trkpt lat="45.9633" lon="4.71592">
        <ele>182</ele>
        <time>2018-07-07T08:44:10Z</time>
      </trkpt>
      <trkpt lat="45.96335" lon="4.71592">
        <ele>183</ele>
        <time>2018-07-07T08:44:11Z</time>
      </trkpt>
      <trkpt lat="45.9634" lon="4.71592">
        <ele>182</ele>
        <time>2018-07-07T08:44:12Z</time>
      </trkpt>
      <trkpt lat="45.96345" lon="4.71592">
        <ele>182</ele>
        <time>2018-07-07T08:44:13Z</time>
      </trkpt>
      <trkpt lat="45.96351" lon="4.71594">
        <ele>182</ele>
        <time>2018-07-07T08:44:14Z</time>
      </trkpt>
      <trkpt lat="45.96357" lon="4.71594">
        <ele>182</ele>
        <time>2018-07-07T08:44:15Z</time>
      </trkpt>
      <trkpt lat="45.96362" lon="4.71596">
        <ele>182</ele>
        <time>2018-07-07T08:44:16Z</time>
      </trkpt>
      <trkpt lat="45.96368" lon="4.71596">
        <ele>182</ele>
        <time>2018-07-07T08:44:17Z</time>
      </trkpt>
      <trkpt lat="45.96374" lon="4.71598">
        <ele>182</ele>
        <time>2018-07-07T08:44:18Z</time>
      </trkpt>
      <trkpt lat="45.9638" lon="4.71599">
        <ele>182</ele>
        <time>2018-07-07T08:44:19Z</time>
      </trkpt>
      <trkpt lat="45.96386" lon="4.716">
        <ele>182</ele>
        <time>2018-07-07T08:44:20Z</time>
      </trkpt>
      <trkpt lat="45.96391" lon="4.71602">
        <ele>182</ele>
        <time>2018-07-07T08:44:21Z</time>
      </trkpt>
      <trkpt lat="45.96396" lon="4.71603">
        <ele>183</ele>
        <time>2018-07-07T08:44:22Z</time>
      </trkpt>
      <trkpt lat="45.96401" lon="4.71605">
        <ele>183</ele>
        <time>2018-07-07T08:44:23Z</time>
      </trkpt>
      <trkpt lat="45.96406" lon="4.71606">
        <ele>183</ele>
        <time>2018-07-07T08:44:24Z</time>
      </trkpt>
      <trkpt lat="45.96411" lon="4.71607">
        <ele>183</ele>
        <time>2018-07-07T08:44:25Z</time>
      </trkpt>
      <trkpt lat="45.96417" lon="4.71609">
        <ele>183</ele>
        <time>2018-07-07T08:44:26Z</time>
      </trkpt>
      <trkpt lat="45.96422" lon="4.71611">
        <ele>183</ele>
        <time>2018-07-07T08:44:27Z</time>
      </trkpt>
      <trkpt lat="45.96427" lon="4.71611">
        <ele>183</ele>
        <time>2018-07-07T08:44:28Z</time>
      </trkpt>
      <trkpt lat="45.96432" lon="4.71612">
        <ele>183</ele>
        <time>2018-07-07T08:44:29Z</time>
      </trkpt>
      <trkpt lat="45.96437" lon="4.71612">
        <ele>183</ele>
        <time>2018-07-07T08:44:30Z</time>
      </trkpt>
      <trkpt lat="45.96442" lon="4.71613">
        <ele>183</ele>
        <time>2018-07-07T08:44:31Z</time>
      </trkpt>
      <trkpt lat="45.96449" lon="4.71613">
        <ele>183</ele>
        <time>2018-07-07T08:44:32Z</time>
      </trkpt>
      <trkpt lat="45.96455" lon="4.71614">
        <ele>183</ele>
        <time>2018-07-07T08:44:33Z</time>
      </trkpt>
      <trkpt lat="45.9646" lon="4.71614">
        <ele>183</ele>
        <time>2018-07-07T08:44:34Z</time>
      </trkpt>
      <trkpt lat="45.96465" lon="4.71615">
        <ele>183</ele>
        <time>2018-07-07T08:44:35Z</time>
      </trkpt>
      <trkpt lat="45.96473" lon="4.71617">
        <ele>183</ele>
        <time>2018-07-07T08:44:37Z</time>
      </trkpt>
      <trkpt lat="45.96478" lon="4.71617">
        <ele>183</ele>
        <time>2018-07-07T08:44:38Z</time>
      </trkpt>
      <trkpt lat="45.96482" lon="4.71617">
        <ele>183</ele>
        <time>2018-07-07T08:44:39Z</time>
      </trkpt>
      <trkpt lat="45.96487" lon="4.71618">
        <ele>183</ele>
        <time>2018-07-07T08:44:40Z</time>
      </trkpt>
      <trkpt lat="45.96494" lon="4.71622">
        <ele>183</ele>
        <time>2018-07-07T08:44:42Z</time>
      </trkpt>
      <trkpt lat="45.96499" lon="4.71624">
        <ele>183</ele>
        <time>2018-07-07T08:44:43Z</time>
      </trkpt>
      <trkpt lat="45.96503" lon="4.71626">
        <ele>184</ele>
        <time>2018-07-07T08:44:44Z</time>
      </trkpt>
      <trkpt lat="45.96508" lon="4.71631">
        <ele>183</ele>
        <time>2018-07-07T08:44:45Z</time>
      </trkpt>
      <trkpt lat="45.96514" lon="4.71639">
        <ele>183</ele>
        <time>2018-07-07T08:44:47Z</time>
      </trkpt>
      <trkpt lat="45.96518" lon="4.71641">
        <ele>183</ele>
        <time>2018-07-07T08:44:48Z</time>
      </trkpt>
      <trkpt lat="45.96522" lon="4.71643">
        <ele>183</ele>
        <time>2018-07-07T08:44:49Z</time>
      </trkpt>
      <trkpt lat="45.96529" lon="4.71642">
        <ele>183</ele>
        <time>2018-07-07T08:44:50Z</time>
      </trkpt>
      <trkpt lat="45.96535" lon="4.7164">
        <ele>184</ele>
        <time>2018-07-07T08:44:51Z</time>
      </trkpt>
      <trkpt lat="45.96538" lon="4.71636">
        <ele>184</ele>
        <time>2018-07-07T08:44:52Z</time>
      </trkpt>
      <trkpt lat="45.96546" lon="4.7163">
        <ele>184</ele>
        <time>2018-07-07T08:44:54Z</time>
      </trkpt>
      <trkpt lat="45.9655" lon="4.71629">
        <ele>184</ele>
        <time>2018-07-07T08:44:55Z</time>
      </trkpt>
      <trkpt lat="45.96553" lon="4.71632">
        <ele>184</ele>
        <time>2018-07-07T08:44:56Z</time>
      </trkpt>
      <trkpt lat="45.9656" lon="4.71631">
        <ele>184</ele>
        <time>2018-07-07T08:44:57Z</time>
      </trkpt>
      <trkpt lat="45.96566" lon="4.7163">
        <ele>185</ele>
        <time>2018-07-07T08:44:58Z</time>
      </trkpt>
      <trkpt lat="45.96571" lon="4.7163">
        <ele>185</ele>
        <time>2018-07-07T08:44:59Z</time>
      </trkpt>
      <trkpt lat="45.96576" lon="4.71631">
        <ele>185</ele>
        <time>2018-07-07T08:45:00Z</time>
      </trkpt>
      <trkpt lat="45.96581" lon="4.71632">
        <ele>185</ele>
        <time>2018-07-07T08:45:01Z</time>
      </trkpt>
      <trkpt lat="45.96585" lon="4.71633">
        <ele>187</ele>
        <time>2018-07-07T08:45:02Z</time>
      </trkpt>
      <trkpt lat="45.9659" lon="4.71634">
        <ele>187</ele>
        <time>2018-07-07T08:45:03Z</time>
      </trkpt>
      <trkpt lat="45.96596" lon="4.71634">
        <ele>187</ele>
        <time>2018-07-07T08:45:04Z</time>
      </trkpt>
      <trkpt lat="45.966" lon="4.71636">
        <ele>187</ele>
        <time>2018-07-07T08:45:05Z</time>
      </trkpt>
      <trkpt lat="45.96606" lon="4.71636">
        <ele>187</ele>
        <time>2018-07-07T08:45:06Z</time>
      </trkpt>
      <trkpt lat="45.96613" lon="4.71637">
        <ele>187</ele>
        <time>2018-07-07T08:45:07Z</time>
      </trkpt>
      <trkpt lat="45.9662" lon="4.7164">
        <ele>187</ele>
        <time>2018-07-07T08:45:09Z</time>
      </trkpt>
      <trkpt lat="45.96625" lon="4.71641">
        <ele>187</ele>
        <time>2018-07-07T08:45:10Z</time>
      </trkpt>
      <trkpt lat="45.96634" lon="4.71643">
        <ele>187</ele>
        <time>2018-07-07T08:45:12Z</time>
      </trkpt>
      <trkpt lat="45.96638" lon="4.71643">
        <ele>187</ele>
        <time>2018-07-07T08:45:13Z</time>
      </trkpt>
      <trkpt lat="45.96643" lon="4.71644">
        <ele>188</ele>
        <time>2018-07-07T08:45:14Z</time>
      </trkpt>
      <trkpt lat="45.96648" lon="4.71645">
        <ele>188</ele>
        <time>2018-07-07T08:45:15Z</time>
      </trkpt>
      <trkpt lat="45.96654" lon="4.71645">
        <ele>188</ele>
        <time>2018-07-07T08:45:16Z</time>
      </trkpt>
      <trkpt lat="45.96659" lon="4.71647">
        <ele>188</ele>
        <time>2018-07-07T08:45:17Z</time>
      </trkpt>
      <trkpt lat="45.96664" lon="4.71648">
        <ele>188</ele>
        <time>2018-07-07T08:45:18Z</time>
      </trkpt>
      <trkpt lat="45.9667" lon="4.71649">
        <ele>189</ele>
        <time>2018-07-07T08:45:19Z</time>
      </trkpt>
      <trkpt lat="45.96673" lon="4.71649">
        <ele>189</ele>
        <time>2018-07-07T08:45:20Z</time>
      </trkpt>
      <trkpt lat="45.96679" lon="4.71649">
        <ele>189</ele>
        <time>2018-07-07T08:45:21Z</time>
      </trkpt>
      <trkpt lat="45.96687" lon="4.71651">
        <ele>189</ele>
        <time>2018-07-07T08:45:23Z</time>
      </trkpt>
      <trkpt lat="45.9669" lon="4.71652">
        <ele>189</ele>
        <time>2018-07-07T08:45:24Z</time>
      </trkpt>
      <trkpt lat="45.96696" lon="4.71654">
        <ele>189</ele>
        <time>2018-07-07T08:45:25Z</time>
      </trkpt>
      <trkpt lat="45.96701" lon="4.71655">
        <ele>190</ele>
        <time>2018-07-07T08:45:26Z</time>
      </trkpt>
      <trkpt lat="45.96706" lon="4.71655">
        <ele>190</ele>
        <time>2018-07-07T08:45:27Z</time>
      </trkpt>
      <trkpt lat="45.96711" lon="4.71656">
        <ele>190</ele>
        <time>2018-07-07T08:45:28Z</time>
      </trkpt>
      <trkpt lat="45.96716" lon="4.71657">
        <ele>190</ele>
        <time>2018-07-07T08:45:29Z</time>
      </trkpt>
      <trkpt lat="45.96721" lon="4.71658">
        <ele>190</ele>
        <time>2018-07-07T08:45:30Z</time>
      </trkpt>
      <trkpt lat="45.96726" lon="4.71658">
        <ele>190</ele>
        <time>2018-07-07T08:45:31Z</time>
      </trkpt>
      <trkpt lat="45.96731" lon="4.71658">
        <ele>190</ele>
        <time>2018-07-07T08:45:32Z</time>
      </trkpt>
      <trkpt lat="45.96736" lon="4.71658">
        <ele>190</ele>
        <time>2018-07-07T08:45:33Z</time>
      </trkpt>
      <trkpt lat="45.96742" lon="4.71657">
        <ele>190</ele>
        <time>2018-07-07T08:45:34Z</time>
      </trkpt>
      <trkpt lat="45.96749" lon="4.71661">
        <ele>189</ele>
        <time>2018-07-07T08:45:36Z</time>
      </trkpt>
      <trkpt lat="45.96754" lon="4.71662">
        <ele>190</ele>
        <time>2018-07-07T08:45:37Z</time>
      </trkpt>
      <trkpt lat="45.96759" lon="4.71663">
        <ele>190</ele>
        <time>2018-07-07T08:45:38Z</time>
      </trkpt>
      <trkpt lat="45.96764" lon="4.71664">
        <ele>191</ele>
        <time>2018-07-07T08:45:39Z</time>
      </trkpt>
      <trkpt lat="45.9677" lon="4.71665">
        <ele>191</ele>
        <time>2018-07-07T08:45:40Z</time>
      </trkpt>
      <trkpt lat="45.96775" lon="4.71666">
        <ele>192</ele>
        <time>2018-07-07T08:45:41Z</time>
      </trkpt>
      <trkpt lat="45.96783" lon="4.71668">
        <ele>188</ele>
        <time>2018-07-07T08:45:43Z</time>
      </trkpt>
      <trkpt lat="45.96788" lon="4.71669">
        <ele>188</ele>
        <time>2018-07-07T08:45:44Z</time>
      </trkpt>
      <trkpt lat="45.96796" lon="4.71671">
        <ele>188</ele>
        <time>2018-07-07T08:45:46Z</time>
      </trkpt>
      <trkpt lat="45.968" lon="4.71672">
        <ele>188</ele>
        <time>2018-07-07T08:45:47Z</time>
      </trkpt>
      <trkpt lat="45.96809" lon="4.71673">
        <ele>189</ele>
        <time>2018-07-07T08:45:49Z</time>
      </trkpt>
      <trkpt lat="45.96814" lon="4.71674">
        <ele>189</ele>
        <time>2018-07-07T08:45:50Z</time>
      </trkpt>
      <trkpt lat="45.96823" lon="4.71676">
        <ele>190</ele>
        <time>2018-07-07T08:45:52Z</time>
      </trkpt>
      <trkpt lat="45.96827" lon="4.71676">
        <ele>190</ele>
        <time>2018-07-07T08:45:53Z</time>
      </trkpt>
      <trkpt lat="45.96834" lon="4.71677">
        <ele>191</ele>
        <time>2018-07-07T08:45:55Z</time>
      </trkpt>
      <trkpt lat="45.96839" lon="4.71677">
        <ele>191</ele>
        <time>2018-07-07T08:45:56Z</time>
      </trkpt>
      <trkpt lat="45.96846" lon="4.71679">
        <ele>190</ele>
        <time>2018-07-07T08:45:58Z</time>
      </trkpt>
      <trkpt lat="45.9685" lon="4.71681">
        <ele>190</ele>
        <time>2018-07-07T08:45:59Z</time>
      </trkpt>
      <trkpt lat="45.96855" lon="4.71682">
        <ele>190</ele>
        <time>2018-07-07T08:46:00Z</time>
      </trkpt>
      <trkpt lat="45.9686" lon="4.7168">
        <ele>190</ele>
        <time>2018-07-07T08:46:01Z</time>
      </trkpt>
      <trkpt lat="45.96869" lon="4.71677">
        <ele>190</ele>
        <time>2018-07-07T08:46:03Z</time>
      </trkpt>
      <trkpt lat="45.96873" lon="4.7168">
        <ele>190</ele>
        <time>2018-07-07T08:46:04Z</time>
      </trkpt>
      <trkpt lat="45.96876" lon="4.71682">
        <ele>190</ele>
        <time>2018-07-07T08:46:05Z</time>
      </trkpt>
      <trkpt lat="45.96883" lon="4.71682">
        <ele>190</ele>
        <time>2018-07-07T08:46:06Z</time>
      </trkpt>
      <trkpt lat="45.96888" lon="4.71681">
        <ele>191</ele>
        <time>2018-07-07T08:46:07Z</time>
      </trkpt>
      <trkpt lat="45.96893" lon="4.71681">
        <ele>191</ele>
        <time>2018-07-07T08:46:08Z</time>
      </trkpt>
      <trkpt lat="45.96902" lon="4.71684">
        <ele>191</ele>
        <time>2018-07-07T08:46:10Z</time>
      </trkpt>
      <trkpt lat="45.96907" lon="4.71683">
        <ele>192</ele>
        <time>2018-07-07T08:46:11Z</time>
      </trkpt>
      <trkpt lat="45.96913" lon="4.71682">
        <ele>192</ele>
        <time>2018-07-07T08:46:13Z</time>
      </trkpt>
      <trkpt lat="45.96917" lon="4.71683">
        <ele>192</ele>
        <time>2018-07-07T08:46:14Z</time>
      </trkpt>
      <trkpt lat="45.96922" lon="4.71683">
        <ele>193</ele>
        <time>2018-07-07T08:46:15Z</time>
      </trkpt>
      <trkpt lat="45.96926" lon="4.71683">
        <ele>192</ele>
        <time>2018-07-07T08:46:16Z</time>
      </trkpt>
      <trkpt lat="45.96931" lon="4.71684">
        <ele>192</ele>
        <time>2018-07-07T08:46:17Z</time>
      </trkpt>
      <trkpt lat="45.96936" lon="4.71683">
        <ele>192</ele>
        <time>2018-07-07T08:46:18Z</time>
      </trkpt>
      <trkpt lat="45.96943" lon="4.71683">
        <ele>192</ele>
        <time>2018-07-07T08:46:20Z</time>
      </trkpt>
      <trkpt lat="45.96948" lon="4.71683">
        <ele>192</ele>
        <time>2018-07-07T08:46:21Z</time>
      </trkpt>
      <trkpt lat="45.96955" lon="4.71686">
        <ele>191</ele>
        <time>2018-07-07T08:46:23Z</time>
      </trkpt>
      <trkpt lat="45.96959" lon="4.71687">
        <ele>191</ele>
        <time>2018-07-07T08:46:24Z</time>
      </trkpt>
      <trkpt lat="45.96964" lon="4.7169">
        <ele>191</ele>
        <time>2018-07-07T08:46:26Z</time>
      </trkpt>
      <trkpt lat="45.9697" lon="4.7169">
        <ele>191</ele>
        <time>2018-07-07T08:46:27Z</time>
      </trkpt>
      <trkpt lat="45.96975" lon="4.71691">
        <ele>191</ele>
        <time>2018-07-07T08:46:28Z</time>
      </trkpt>
      <trkpt lat="45.9698" lon="4.71691">
        <ele>192</ele>
        <time>2018-07-07T08:46:29Z</time>
      </trkpt>
      <trkpt lat="45.96987" lon="4.7169">
        <ele>192</ele>
        <time>2018-07-07T08:46:30Z</time>
      </trkpt>
      <trkpt lat="45.96994" lon="4.71688">
        <ele>192</ele>
        <time>2018-07-07T08:46:31Z</time>
      </trkpt>
      <trkpt lat="45.97003" lon="4.71689">
        <ele>193</ele>
        <time>2018-07-07T08:46:32Z</time>
      </trkpt>
      <trkpt lat="45.97009" lon="4.7169">
        <ele>193</ele>
        <time>2018-07-07T08:46:33Z</time>
      </trkpt>
      <trkpt lat="45.97014" lon="4.71691">
        <ele>193</ele>
        <time>2018-07-07T08:46:34Z</time>
      </trkpt>
      <trkpt lat="45.97018" lon="4.71691">
        <ele>193</ele>
        <time>2018-07-07T08:46:35Z</time>
      </trkpt>
      <trkpt lat="45.97024" lon="4.71691">
        <ele>192</ele>
        <time>2018-07-07T08:46:36Z</time>
      </trkpt>
      <trkpt lat="45.97032" lon="4.71692">
        <ele>192</ele>
        <time>2018-07-07T08:46:38Z</time>
      </trkpt>
      <trkpt lat="45.97036" lon="4.71693">
        <ele>192</ele>
        <time>2018-07-07T08:46:39Z</time>
      </trkpt>
      <trkpt lat="45.97041" lon="4.71693">
        <ele>192</ele>
        <time>2018-07-07T08:46:40Z</time>
      </trkpt>
      <trkpt lat="45.97047" lon="4.71693">
        <ele>192</ele>
        <time>2018-07-07T08:46:41Z</time>
      </trkpt>
      <trkpt lat="45.97052" lon="4.71693">
        <ele>193</ele>
        <time>2018-07-07T08:46:42Z</time>
      </trkpt>
      <trkpt lat="45.97059" lon="4.71694">
        <ele>193</ele>
        <time>2018-07-07T08:46:43Z</time>
      </trkpt>
      <trkpt lat="45.97066" lon="4.71696">
        <ele>193</ele>
        <time>2018-07-07T08:46:45Z</time>
      </trkpt>
      <trkpt lat="45.9707" lon="4.71696">
        <ele>193</ele>
        <time>2018-07-07T08:46:46Z</time>
      </trkpt>
      <trkpt lat="45.97074" lon="4.71696">
        <ele>193</ele>
        <time>2018-07-07T08:46:47Z</time>
      </trkpt>
      <trkpt lat="45.97079" lon="4.71696">
        <ele>193</ele>
        <time>2018-07-07T08:46:48Z</time>
      </trkpt>
      <trkpt lat="45.97084" lon="4.71698">
        <ele>194</ele>
        <time>2018-07-07T08:46:49Z</time>
      </trkpt>
      <trkpt lat="45.97089" lon="4.71699">
        <ele>194</ele>
        <time>2018-07-07T08:46:50Z</time>
      </trkpt>
      <trkpt lat="45.97094" lon="4.71699">
        <ele>194</ele>
        <time>2018-07-07T08:46:51Z</time>
      </trkpt>
      <trkpt lat="45.971" lon="4.71698">
        <ele>194</ele>
        <time>2018-07-07T08:46:52Z</time>
      </trkpt>
      <trkpt lat="45.97105" lon="4.71695">
        <ele>194</ele>
        <time>2018-07-07T08:46:53Z</time>
      </trkpt>
      <trkpt lat="45.97109" lon="4.71697">
        <ele>194</ele>
        <time>2018-07-07T08:46:54Z</time>
      </trkpt>
      <trkpt lat="45.97114" lon="4.71697">
        <ele>194</ele>
        <time>2018-07-07T08:46:55Z</time>
      </trkpt>
      <trkpt lat="45.97118" lon="4.71698">
        <ele>194</ele>
        <time>2018-07-07T08:46:56Z</time>
      </trkpt>
      <trkpt lat="45.97127" lon="4.71698">
        <ele>194</ele>
        <time>2018-07-07T08:46:58Z</time>
      </trkpt>
      <trkpt lat="45.9713" lon="4.717">
        <ele>194</ele>
        <time>2018-07-07T08:46:59Z</time>
      </trkpt>
      <trkpt lat="45.97136" lon="4.71699">
        <ele>195</ele>
        <time>2018-07-07T08:47:00Z</time>
      </trkpt>
      <trkpt lat="45.97141" lon="4.71699">
        <ele>195</ele>
        <time>2018-07-07T08:47:01Z</time>
      </trkpt>
      <trkpt lat="45.97147" lon="4.71701">
        <ele>195</ele>
        <time>2018-07-07T08:47:03Z</time>
      </trkpt>
      <trkpt lat="45.97151" lon="4.71702">
        <ele>195</ele>
        <time>2018-07-07T08:47:04Z</time>
      </trkpt>
      <trkpt lat="45.9716" lon="4.71704">
        <ele>195</ele>
        <time>2018-07-07T08:47:06Z</time>
      </trkpt>
      <trkpt lat="45.97164" lon="4.71704">
        <ele>195</ele>
        <time>2018-07-07T08:47:07Z</time>
      </trkpt>
      <trkpt lat="45.9717" lon="4.71704">
        <ele>196</ele>
        <time>2018-07-07T08:47:08Z</time>
      </trkpt>
      <trkpt lat="45.97176" lon="4.71703">
        <ele>196</ele>
        <time>2018-07-07T08:47:09Z</time>
      </trkpt>
      <trkpt lat="45.97185" lon="4.71705">
        <ele>196</ele>
        <time>2018-07-07T08:47:11Z</time>
      </trkpt>
      <trkpt lat="45.97191" lon="4.71706">
        <ele>196</ele>
        <time>2018-07-07T08:47:12Z</time>
      </trkpt>
      <trkpt lat="45.97196" lon="4.71705">
        <ele>196</ele>
        <time>2018-07-07T08:47:13Z</time>
      </trkpt>
      <trkpt lat="45.972" lon="4.71706">
        <ele>196</ele>
        <time>2018-07-07T08:47:14Z</time>
      </trkpt>
      <trkpt lat="45.97207" lon="4.71708">
        <ele>196</ele>
        <time>2018-07-07T08:47:16Z</time>
      </trkpt>
      <trkpt lat="45.9721" lon="4.71709">
        <ele>196</ele>
        <time>2018-07-07T08:47:17Z</time>
      </trkpt>
      <trkpt lat="45.97216" lon="4.7171">
        <ele>196</ele>
        <time>2018-07-07T08:47:18Z</time>
      </trkpt>
      <trkpt lat="45.97221" lon="4.7171">
        <ele>196</ele>
        <time>2018-07-07T08:47:19Z</time>
      </trkpt>
      <trkpt lat="45.97229" lon="4.71711">
        <ele>196</ele>
        <time>2018-07-07T08:47:21Z</time>
      </trkpt>
      <trkpt lat="45.97235" lon="4.71711">
        <ele>196</ele>
        <time>2018-07-07T08:47:22Z</time>
      </trkpt>
      <trkpt lat="45.9724" lon="4.71712">
        <ele>196</ele>
        <time>2018-07-07T08:47:23Z</time>
      </trkpt>
      <trkpt lat="45.97245" lon="4.71714">
        <ele>196</ele>
        <time>2018-07-07T08:47:24Z</time>
      </trkpt>
      <trkpt lat="45.97254" lon="4.71716">
        <ele>196</ele>
        <time>2018-07-07T08:47:26Z</time>
      </trkpt>
      <trkpt lat="45.97259" lon="4.71717">
        <ele>196</ele>
        <time>2018-07-07T08:47:27Z</time>
      </trkpt>
      <trkpt lat="45.97265" lon="4.71716">
        <ele>196</ele>
        <time>2018-07-07T08:47:29Z</time>
      </trkpt>
      <trkpt lat="45.97273" lon="4.7172">
        <ele>196</ele>
        <time>2018-07-07T08:47:30Z</time>
      </trkpt>
      <trkpt lat="45.97277" lon="4.71723">
        <ele>196</ele>
        <time>2018-07-07T08:47:31Z</time>
      </trkpt>
      <trkpt lat="45.97281" lon="4.71728">
        <ele>196</ele>
        <time>2018-07-07T08:47:32Z</time>
      </trkpt>
      <trkpt lat="45.97285" lon="4.71731">
        <ele>196</ele>
        <time>2018-07-07T08:47:33Z</time>
      </trkpt>
      <trkpt lat="45.97289" lon="4.71735">
        <ele>196</ele>
        <time>2018-07-07T08:47:34Z</time>
      </trkpt>
      <trkpt lat="45.97293" lon="4.71738">
        <ele>196</ele>
        <time>2018-07-07T08:47:35Z</time>
      </trkpt>
      <trkpt lat="45.97298" lon="4.71737">
        <ele>196</ele>
        <time>2018-07-07T08:47:36Z</time>
      </trkpt>
      <trkpt lat="45.97303" lon="4.71734">
        <ele>196</ele>
        <time>2018-07-07T08:47:37Z</time>
      </trkpt>
      <trkpt lat="45.97308" lon="4.71731">
        <ele>196</ele>
        <time>2018-07-07T08:47:38Z</time>
      </trkpt>
      <trkpt lat="45.97314" lon="4.71728">
        <ele>196</ele>
        <time>2018-07-07T08:47:39Z</time>
      </trkpt>
      <trkpt lat="45.97319" lon="4.71724">
        <ele>196</ele>
        <time>2018-07-07T08:47:40Z</time>
      </trkpt>
      <trkpt lat="45.97324" lon="4.71721">
        <ele>196</ele>
        <time>2018-07-07T08:47:41Z</time>
      </trkpt>
      <trkpt lat="45.97328" lon="4.7172">
        <ele>196</ele>
        <time>2018-07-07T08:47:42Z</time>
      </trkpt>
      <trkpt lat="45.97332" lon="4.71716">
        <ele>196</ele>
        <time>2018-07-07T08:47:43Z</time>
      </trkpt>
      <trkpt lat="45.97337" lon="4.71716">
        <ele>195</ele>
        <time>2018-07-07T08:47:44Z</time>
      </trkpt>
      <trkpt lat="45.97342" lon="4.71717">
        <ele>195</ele>
        <time>2018-07-07T08:47:45Z</time>
      </trkpt>
      <trkpt lat="45.97346" lon="4.71719">
        <ele>195</ele>
        <time>2018-07-07T08:47:46Z</time>
      </trkpt>
      <trkpt lat="45.97355" lon="4.71723">
        <ele>195</ele>
        <time>2018-07-07T08:47:49Z</time>
      </trkpt>
      <trkpt lat="45.97361" lon="4.71722">
        <ele>195</ele>
        <time>2018-07-07T08:47:50Z</time>
      </trkpt>
      <trkpt lat="45.97365" lon="4.71722">
        <ele>195</ele>
        <time>2018-07-07T08:47:51Z</time>
      </trkpt>
      <trkpt lat="45.9737" lon="4.71723">
        <ele>195</ele>
        <time>2018-07-07T08:47:52Z</time>
      </trkpt>
      <trkpt lat="45.97376" lon="4.71724">
        <ele>195</ele>
        <time>2018-07-07T08:47:53Z</time>
      </trkpt>
      <trkpt lat="45.97381" lon="4.71725">
        <ele>195</ele>
        <time>2018-07-07T08:47:54Z</time>
      </trkpt>
      <trkpt lat="45.9739" lon="4.71726">
        <ele>195</ele>
        <time>2018-07-07T08:47:56Z</time>
      </trkpt>
      <trkpt lat="45.97395" lon="4.71725">
        <ele>195</ele>
        <time>2018-07-07T08:47:57Z</time>
      </trkpt>
      <trkpt lat="45.97402" lon="4.71724">
        <ele>195</ele>
        <time>2018-07-07T08:47:58Z</time>
      </trkpt>
      <trkpt lat="45.97407" lon="4.71724">
        <ele>195</ele>
        <time>2018-07-07T08:47:59Z</time>
      </trkpt>
      <trkpt lat="45.97415" lon="4.71725">
        <ele>195</ele>
        <time>2018-07-07T08:48:01Z</time>
      </trkpt>
      <trkpt lat="45.9742" lon="4.71726">
        <ele>196</ele>
        <time>2018-07-07T08:48:02Z</time>
      </trkpt>
      <trkpt lat="45.97425" lon="4.71726">
        <ele>196</ele>
        <time>2018-07-07T08:48:03Z</time>
      </trkpt>
      <trkpt lat="45.9743" lon="4.71724">
        <ele>196</ele>
        <time>2018-07-07T08:48:04Z</time>
      </trkpt>
      <trkpt lat="45.97434" lon="4.71726">
        <ele>196</ele>
        <time>2018-07-07T08:48:05Z</time>
      </trkpt>
      <trkpt lat="45.9744" lon="4.71726">
        <ele>196</ele>
        <time>2018-07-07T08:48:06Z</time>
      </trkpt>
      <trkpt lat="45.97444" lon="4.71726">
        <ele>196</ele>
        <time>2018-07-07T08:48:07Z</time>
      </trkpt>
      <trkpt lat="45.97449" lon="4.71728">
        <ele>196</ele>
        <time>2018-07-07T08:48:08Z</time>
      </trkpt>
      <trkpt lat="45.97454" lon="4.71728">
        <ele>197</ele>
        <time>2018-07-07T08:48:09Z</time>
      </trkpt>
      <trkpt lat="45.97459" lon="4.71728">
        <ele>197</ele>
        <time>2018-07-07T08:48:10Z</time>
      </trkpt>
      <trkpt lat="45.97464" lon="4.71728">
        <ele>197</ele>
        <time>2018-07-07T08:48:11Z</time>
      </trkpt>
      <trkpt lat="45.97468" lon="4.71729">
        <ele>197</ele>
        <time>2018-07-07T08:48:12Z</time>
      </trkpt>
      <trkpt lat="45.97476" lon="4.7173">
        <ele>197</ele>
        <time>2018-07-07T08:48:14Z</time>
      </trkpt>
      <trkpt lat="45.97483" lon="4.71729">
        <ele>197</ele>
        <time>2018-07-07T08:48:15Z</time>
      </trkpt>
      <trkpt lat="45.97488" lon="4.7173">
        <ele>197</ele>
        <time>2018-07-07T08:48:16Z</time>
      </trkpt>
      <trkpt lat="45.97493" lon="4.7173">
        <ele>197</ele>
        <time>2018-07-07T08:48:17Z</time>
      </trkpt>
      <trkpt lat="45.97498" lon="4.71731">
        <ele>197</ele>
        <time>2018-07-07T08:48:18Z</time>
      </trkpt>
      <trkpt lat="45.97505" lon="4.71729">
        <ele>198</ele>
        <time>2018-07-07T08:48:19Z</time>
      </trkpt>
      <trkpt lat="45.9751" lon="4.71729">
        <ele>198</ele>
        <time>2018-07-07T08:48:20Z</time>
      </trkpt>
      <trkpt lat="45.97516" lon="4.71728">
        <ele>198</ele>
        <time>2018-07-07T08:48:21Z</time>
      </trkpt>
      <trkpt lat="45.97522" lon="4.71728">
        <ele>198</ele>
        <time>2018-07-07T08:48:22Z</time>
      </trkpt>
      <trkpt lat="45.97528" lon="4.71729">
        <ele>198</ele>
        <time>2018-07-07T08:48:23Z</time>
      </trkpt>
      <trkpt lat="45.97533" lon="4.71729">
        <ele>198</ele>
        <time>2018-07-07T08:48:24Z</time>
      </trkpt>
      <trkpt lat="45.97537" lon="4.7173">
        <ele>198</ele>
        <time>2018-07-07T08:48:25Z</time>
      </trkpt>
      <trkpt lat="45.97542" lon="4.7173">
        <ele>198</ele>
        <time>2018-07-07T08:48:26Z</time>
      </trkpt>
      <trkpt lat="45.97547" lon="4.71732">
        <ele>198</ele>
        <time>2018-07-07T08:48:27Z</time>
      </trkpt>
      <trkpt lat="45.97551" lon="4.71733">
        <ele>198</ele>
        <time>2018-07-07T08:48:28Z</time>
      </trkpt>
      <trkpt lat="45.97557" lon="4.71733">
        <ele>197</ele>
        <time>2018-07-07T08:48:29Z</time>
      </trkpt>
      <trkpt lat="45.97563" lon="4.71733">
        <ele>197</ele>
        <time>2018-07-07T08:48:30Z</time>
      </trkpt>
      <trkpt lat="45.9757" lon="4.71734">
        <ele>197</ele>
        <time>2018-07-07T08:48:31Z</time>
      </trkpt>
      <trkpt lat="45.97575" lon="4.71735">
        <ele>197</ele>
        <time>2018-07-07T08:48:32Z</time>
      </trkpt>
      <trkpt lat="45.9758" lon="4.71736">
        <ele>197</ele>
        <time>2018-07-07T08:48:33Z</time>
      </trkpt>
      <trkpt lat="45.97587" lon="4.71737">
        <ele>196</ele>
        <time>2018-07-07T08:48:35Z</time>
      </trkpt>
      <trkpt lat="45.97591" lon="4.7174">
        <ele>196</ele>
        <time>2018-07-07T08:48:36Z</time>
      </trkpt>
      <trkpt lat="45.97595" lon="4.71743">
        <ele>196</ele>
        <time>2018-07-07T08:48:37Z</time>
      </trkpt>
      <trkpt lat="45.97602" lon="4.71745">
        <ele>196</ele>
        <time>2018-07-07T08:48:38Z</time>
      </trkpt>
      <trkpt lat="45.97605" lon="4.71751">
        <ele>194</ele>
        <time>2018-07-07T08:48:39Z</time>
      </trkpt>
      <trkpt lat="45.97609" lon="4.71754">
        <ele>194</ele>
        <time>2018-07-07T08:48:40Z</time>
      </trkpt>
      <trkpt lat="45.97614" lon="4.71759">
        <ele>194</ele>
        <time>2018-07-07T08:48:42Z</time>
      </trkpt>
      <trkpt lat="45.9762" lon="4.71757">
        <ele>194</ele>
        <time>2018-07-07T08:48:43Z</time>
      </trkpt>
      <trkpt lat="45.97625" lon="4.71755">
        <ele>194</ele>
        <time>2018-07-07T08:48:44Z</time>
      </trkpt>
      <trkpt lat="45.97631" lon="4.7175">
        <ele>194</ele>
        <time>2018-07-07T08:48:45Z</time>
      </trkpt>
      <trkpt lat="45.97636" lon="4.71747">
        <ele>196</ele>
        <time>2018-07-07T08:48:46Z</time>
      </trkpt>
      <trkpt lat="45.97642" lon="4.71745">
        <ele>196</ele>
        <time>2018-07-07T08:48:47Z</time>
      </trkpt>
      <trkpt lat="45.97647" lon="4.71744">
        <ele>196</ele>
        <time>2018-07-07T08:48:48Z</time>
      </trkpt>
      <trkpt lat="45.97651" lon="4.71747">
        <ele>195</ele>
        <time>2018-07-07T08:48:49Z</time>
      </trkpt>
      <trkpt lat="45.97656" lon="4.71747">
        <ele>195</ele>
        <time>2018-07-07T08:48:50Z</time>
      </trkpt>
      <trkpt lat="45.97661" lon="4.71748">
        <ele>195</ele>
        <time>2018-07-07T08:48:51Z</time>
      </trkpt>
      <trkpt lat="45.97664" lon="4.71748">
        <ele>194</ele>
        <time>2018-07-07T08:48:52Z</time>
      </trkpt>
      <trkpt lat="45.97671" lon="4.71748">
        <ele>194</ele>
        <time>2018-07-07T08:48:53Z</time>
      </trkpt>
      <trkpt lat="45.97676" lon="4.7175">
        <ele>194</ele>
        <time>2018-07-07T08:48:54Z</time>
      </trkpt>
      <trkpt lat="45.97681" lon="4.71752">
        <ele>194</ele>
        <time>2018-07-07T08:48:55Z</time>
      </trkpt>
      <trkpt lat="45.97687" lon="4.71752">
        <ele>194</ele>
        <time>2018-07-07T08:48:56Z</time>
      </trkpt>
      <trkpt lat="45.9769" lon="4.71753">
        <ele>195</ele>
        <time>2018-07-07T08:48:57Z</time>
      </trkpt>
      <trkpt lat="45.97699" lon="4.71754">
        <ele>195</ele>
        <time>2018-07-07T08:48:59Z</time>
      </trkpt>
      <trkpt lat="45.97703" lon="4.71755">
        <ele>195</ele>
        <time>2018-07-07T08:49:00Z</time>
      </trkpt>
      <trkpt lat="45.97709" lon="4.71755">
        <ele>195</ele>
        <time>2018-07-07T08:49:01Z</time>
      </trkpt>
      <trkpt lat="45.97716" lon="4.71754">
        <ele>195</ele>
        <time>2018-07-07T08:49:02Z</time>
      </trkpt>
      <trkpt lat="45.97722" lon="4.71755">
        <ele>195</ele>
        <time>2018-07-07T08:49:03Z</time>
      </trkpt>
      <trkpt lat="45.97729" lon="4.71757">
        <ele>195</ele>
        <time>2018-07-07T08:49:04Z</time>
      </trkpt>
      <trkpt lat="45.97734" lon="4.71757">
        <ele>195</ele>
        <time>2018-07-07T08:49:05Z</time>
      </trkpt>
      <trkpt lat="45.97739" lon="4.71758">
        <ele>195</ele>
        <time>2018-07-07T08:49:06Z</time>
      </trkpt>
      <trkpt lat="45.97744" lon="4.71759">
        <ele>196</ele>
        <time>2018-07-07T08:49:07Z</time>
      </trkpt>
      <trkpt lat="45.9775" lon="4.71759">
        <ele>196</ele>
        <time>2018-07-07T08:49:08Z</time>
      </trkpt>
      <trkpt lat="45.97754" lon="4.71759">
        <ele>196</ele>
        <time>2018-07-07T08:49:09Z</time>
      </trkpt>
      <trkpt lat="45.97759" lon="4.7176">
        <ele>196</ele>
        <time>2018-07-07T08:49:10Z</time>
      </trkpt>
      <trkpt lat="45.97765" lon="4.71762">
        <ele>195</ele>
        <time>2018-07-07T08:49:11Z</time>
      </trkpt>
      <trkpt lat="45.9777" lon="4.71762">
        <ele>195</ele>
        <time>2018-07-07T08:49:12Z</time>
      </trkpt>
      <trkpt lat="45.97778" lon="4.71764">
        <ele>195</ele>
        <time>2018-07-07T08:49:14Z</time>
      </trkpt>
      <trkpt lat="45.97784" lon="4.71764">
        <ele>195</ele>
        <time>2018-07-07T08:49:15Z</time>
      </trkpt>
      <trkpt lat="45.97792" lon="4.71767">
        <ele>195</ele>
        <time>2018-07-07T08:49:17Z</time>
      </trkpt>
      <trkpt lat="45.97797" lon="4.71768">
        <ele>195</ele>
        <time>2018-07-07T08:49:18Z</time>
      </trkpt>
      <trkpt lat="45.97803" lon="4.71767">
        <ele>195</ele>
        <time>2018-07-07T08:49:19Z</time>
      </trkpt>
      <trkpt lat="45.97808" lon="4.71768">
        <ele>195</ele>
        <time>2018-07-07T08:49:20Z</time>
      </trkpt>
      <trkpt lat="45.97813" lon="4.71769">
        <ele>195</ele>
        <time>2018-07-07T08:49:21Z</time>
      </trkpt>
      <trkpt lat="45.97817" lon="4.71769">
        <ele>195</ele>
        <time>2018-07-07T08:49:22Z</time>
      </trkpt>
      <trkpt lat="45.97826" lon="4.71769">
        <ele>195</ele>
        <time>2018-07-07T08:49:24Z</time>
      </trkpt>
      <trkpt lat="45.97829" lon="4.71768">
        <ele>195</ele>
        <time>2018-07-07T08:49:25Z</time>
      </trkpt>
      <trkpt lat="45.97831" lon="4.71769">
        <ele>195</ele>
        <time>2018-07-07T08:49:27Z</time>
      </trkpt>
      <trkpt lat="45.97842" lon="4.71772">
        <ele>195</ele>
        <time>2018-07-07T08:49:28Z</time>
      </trkpt>
      <trkpt lat="45.97849" lon="4.71779">
        <ele>194</ele>
        <time>2018-07-07T08:49:30Z</time>
      </trkpt>
      <trkpt lat="45.97856" lon="4.71782">
        <ele>194</ele>
        <time>2018-07-07T08:49:31Z</time>
      </trkpt>
      <trkpt lat="45.97859" lon="4.71785">
        <ele>194</ele>
        <time>2018-07-07T08:49:32Z</time>
      </trkpt>
      <trkpt lat="45.97864" lon="4.71787">
        <ele>194</ele>
        <time>2018-07-07T08:49:33Z</time>
      </trkpt>
      <trkpt lat="45.97873" lon="4.71786">
        <ele>194</ele>
        <time>2018-07-07T08:49:35Z</time>
      </trkpt>
      <trkpt lat="45.97876" lon="4.71783">
        <ele>194</ele>
        <time>2018-07-07T08:49:36Z</time>
      </trkpt>
      <trkpt lat="45.97882" lon="4.71777">
        <ele>194</ele>
        <time>2018-07-07T08:49:37Z</time>
      </trkpt>
      <trkpt lat="45.97886" lon="4.7177">
        <ele>194</ele>
        <time>2018-07-07T08:49:38Z</time>
      </trkpt>
      <trkpt lat="45.9789" lon="4.71761">
        <ele>195</ele>
        <time>2018-07-07T08:49:39Z</time>
      </trkpt>
      <trkpt lat="45.97893" lon="4.71753">
        <ele>195</ele>
        <time>2018-07-07T08:49:40Z</time>
      </trkpt>
      <trkpt lat="45.97891" lon="4.71744">
        <ele>196</ele>
        <time>2018-07-07T08:49:41Z</time>
      </trkpt>
      <trkpt lat="45.9789" lon="4.71737">
        <ele>196</ele>
        <time>2018-07-07T08:49:42Z</time>
      </trkpt>
      <trkpt lat="45.97889" lon="4.7173">
        <ele>196</ele>
        <time>2018-07-07T08:49:43Z</time>
      </trkpt>
      <trkpt lat="45.97888" lon="4.71724">
        <ele>196</ele>
        <time>2018-07-07T08:49:44Z</time>
      </trkpt>
      <trkpt lat="45.97882" lon="4.71717">
        <ele>196</ele>
        <time>2018-07-07T08:49:45Z</time>
      </trkpt>
      <trkpt lat="45.97878" lon="4.71711">
        <ele>196</ele>
        <time>2018-07-07T08:49:46Z</time>
      </trkpt>
      <trkpt lat="45.97874" lon="4.71706">
        <ele>196</ele>
        <time>2018-07-07T08:49:47Z</time>
      </trkpt>
      <trkpt lat="45.97872" lon="4.71698">
        <ele>196</ele>
        <time>2018-07-07T08:49:48Z</time>
      </trkpt>
      <trkpt lat="45.97871" lon="4.71689">
        <ele>196</ele>
        <time>2018-07-07T08:49:49Z</time>
      </trkpt>
      <trkpt lat="45.97872" lon="4.71679">
        <ele>196</ele>
        <time>2018-07-07T08:49:50Z</time>
      </trkpt>
      <trkpt lat="45.97873" lon="4.71672">
        <ele>196</ele>
        <time>2018-07-07T08:49:51Z</time>
      </trkpt>
      <trkpt lat="45.97876" lon="4.71665">
        <ele>197</ele>
        <time>2018-07-07T08:49:52Z</time>
      </trkpt>
      <trkpt lat="45.97878" lon="4.71658">
        <ele>197</ele>
        <time>2018-07-07T08:49:53Z</time>
      </trkpt>
      <trkpt lat="45.97879" lon="4.7165">
        <ele>197</ele>
        <time>2018-07-07T08:49:54Z</time>
      </trkpt>
      <trkpt lat="45.97879" lon="4.71643">
        <ele>197</ele>
        <time>2018-07-07T08:49:55Z</time>
      </trkpt>
      <trkpt lat="45.9788" lon="4.71637">
        <ele>197</ele>
        <time>2018-07-07T08:49:56Z</time>
      </trkpt>
      <trkpt lat="45.97879" lon="4.71628">
        <ele>197</ele>
        <time>2018-07-07T08:49:57Z</time>
      </trkpt>
      <trkpt lat="45.97881" lon="4.71622">
        <ele>197</ele>
        <time>2018-07-07T08:49:58Z</time>
      </trkpt>
      <trkpt lat="45.97881" lon="4.71614">
        <ele>197</ele>
        <time>2018-07-07T08:49:59Z</time>
      </trkpt>
      <trkpt lat="45.97883" lon="4.71607">
        <ele>197</ele>
        <time>2018-07-07T08:50:00Z</time>
      </trkpt>
      <trkpt lat="45.97883" lon="4.716">
        <ele>197</ele>
        <time>2018-07-07T08:50:01Z</time>
      </trkpt>
      <trkpt lat="45.97885" lon="4.71592">
        <ele>197</ele>
        <time>2018-07-07T08:50:02Z</time>
      </trkpt>
      <trkpt lat="45.97884" lon="4.71585">
        <ele>197</ele>
        <time>2018-07-07T08:50:03Z</time>
      </trkpt>
      <trkpt lat="45.97885" lon="4.71578">
        <ele>198</ele>
        <time>2018-07-07T08:50:04Z</time>
      </trkpt>
      <trkpt lat="45.97884" lon="4.71571">
        <ele>198</ele>
        <time>2018-07-07T08:50:05Z</time>
      </trkpt>
      <trkpt lat="45.97884" lon="4.71563">
        <ele>198</ele>
        <time>2018-07-07T08:50:06Z</time>
      </trkpt>
      <trkpt lat="45.97883" lon="4.71554">
        <ele>198</ele>
        <time>2018-07-07T08:50:07Z</time>
      </trkpt>
      <trkpt lat="45.97883" lon="4.71547">
        <ele>199</ele>
        <time>2018-07-07T08:50:08Z</time>
      </trkpt>
      <trkpt lat="45.97882" lon="4.7154">
        <ele>199</ele>
        <time>2018-07-07T08:50:09Z</time>
      </trkpt>
      <trkpt lat="45.97881" lon="4.71533">
        <ele>199</ele>
        <time>2018-07-07T08:50:10Z</time>
      </trkpt>
      <trkpt lat="45.97879" lon="4.71526">
        <ele>199</ele>
        <time>2018-07-07T08:50:11Z</time>
      </trkpt>
      <trkpt lat="45.97878" lon="4.71518">
        <ele>199</ele>
        <time>2018-07-07T08:50:12Z</time>
      </trkpt>
      <trkpt lat="45.97877" lon="4.71511">
        <ele>199</ele>
        <time>2018-07-07T08:50:13Z</time>
      </trkpt>
      <trkpt lat="45.97875" lon="4.71504">
        <ele>199</ele>
        <time>2018-07-07T08:50:14Z</time>
      </trkpt>
      <trkpt lat="45.97874" lon="4.71497">
        <ele>201</ele>
        <time>2018-07-07T08:50:15Z</time>
      </trkpt>
      <trkpt lat="45.97873" lon="4.71489">
        <ele>201</ele>
        <time>2018-07-07T08:50:16Z</time>
      </trkpt>
      <trkpt lat="45.97873" lon="4.71482">
        <ele>201</ele>
        <time>2018-07-07T08:50:17Z</time>
      </trkpt>
      <trkpt lat="45.97872" lon="4.71475">
        <ele>201</ele>
        <time>2018-07-07T08:50:18Z</time>
      </trkpt>
      <trkpt lat="45.97869" lon="4.71464">
        <ele>201</ele>
        <time>2018-07-07T08:50:20Z</time>
      </trkpt>
      <trkpt lat="45.97868" lon="4.71458">
        <ele>201</ele>
        <time>2018-07-07T08:50:21Z</time>
      </trkpt>
      <trkpt lat="45.97868" lon="4.71451">
        <ele>201</ele>
        <time>2018-07-07T08:50:22Z</time>
      </trkpt>
      <trkpt lat="45.97866" lon="4.71445">
        <ele>201</ele>
        <time>2018-07-07T08:50:23Z</time>
      </trkpt>
      <trkpt lat="45.97864" lon="4.71432">
        <ele>201</ele>
        <time>2018-07-07T08:50:25Z</time>
      </trkpt>
      <trkpt lat="45.97864" lon="4.71425">
        <ele>201</ele>
        <time>2018-07-07T08:50:26Z</time>
      </trkpt>
      <trkpt lat="45.97863" lon="4.71419">
        <ele>201</ele>
        <time>2018-07-07T08:50:27Z</time>
      </trkpt>
      <trkpt lat="45.97862" lon="4.71412">
        <ele>203</ele>
        <time>2018-07-07T08:50:28Z</time>
      </trkpt>
      <trkpt lat="45.97862" lon="4.714">
        <ele>203</ele>
        <time>2018-07-07T08:50:30Z</time>
      </trkpt>
      <trkpt lat="45.97863" lon="4.71395">
        <ele>203</ele>
        <time>2018-07-07T08:50:31Z</time>
      </trkpt>
      <trkpt lat="45.97862" lon="4.71384">
        <ele>203</ele>
        <time>2018-07-07T08:50:33Z</time>
      </trkpt>
      <trkpt lat="45.97864" lon="4.71376">
        <ele>203</ele>
        <time>2018-07-07T08:50:34Z</time>
      </trkpt>
      <trkpt lat="45.97865" lon="4.71364">
        <ele>203</ele>
        <time>2018-07-07T08:50:36Z</time>
      </trkpt>
      <trkpt lat="45.97865" lon="4.71358">
        <ele>204</ele>
        <time>2018-07-07T08:50:37Z</time>
      </trkpt>
      <trkpt lat="45.97863" lon="4.71348">
        <ele>204</ele>
        <time>2018-07-07T08:50:39Z</time>
      </trkpt>
      <trkpt lat="45.97862" lon="4.71339">
        <ele>204</ele>
        <time>2018-07-07T08:50:40Z</time>
      </trkpt>
      <trkpt lat="45.97859" lon="4.71328">
        <ele>205</ele>
        <time>2018-07-07T08:50:42Z</time>
      </trkpt>
      <trkpt lat="45.97853" lon="4.71321">
        <ele>205</ele>
        <time>2018-07-07T08:50:43Z</time>
      </trkpt>
      <trkpt lat="45.97852" lon="4.71315">
        <ele>205</ele>
        <time>2018-07-07T08:50:44Z</time>
      </trkpt>
      <trkpt lat="45.9785" lon="4.71308">
        <ele>205</ele>
        <time>2018-07-07T08:50:45Z</time>
      </trkpt>
      <trkpt lat="45.9785" lon="4.713">
        <ele>206</ele>
        <time>2018-07-07T08:50:47Z</time>
      </trkpt>
      <trkpt lat="45.97851" lon="4.71293">
        <ele>206</ele>
        <time>2018-07-07T08:50:48Z</time>
      </trkpt>
      <trkpt lat="45.97853" lon="4.71283">
        <ele>206</ele>
        <time>2018-07-07T08:50:50Z</time>
      </trkpt>
      <trkpt lat="45.9785" lon="4.71277">
        <ele>206</ele>
        <time>2018-07-07T08:50:51Z</time>
      </trkpt>
      <trkpt lat="45.9785" lon="4.71267">
        <ele>206</ele>
        <time>2018-07-07T08:50:53Z</time>
      </trkpt>
      <trkpt lat="45.9785" lon="4.71262">
        <ele>207</ele>
        <time>2018-07-07T08:50:54Z</time>
      </trkpt>
      <trkpt lat="45.97852" lon="4.7125">
        <ele>208</ele>
        <time>2018-07-07T08:50:57Z</time>
      </trkpt>
      <trkpt lat="45.97853" lon="4.71246">
        <ele>208</ele>
        <time>2018-07-07T08:50:58Z</time>
      </trkpt>
      <trkpt lat="45.97853" lon="4.71234">
        <ele>208</ele>
        <time>2018-07-07T08:51:01Z</time>
      </trkpt>
      <trkpt lat="45.97854" lon="4.7123">
        <ele>208</ele>
        <time>2018-07-07T08:51:02Z</time>
      </trkpt>
      <trkpt lat="45.97855" lon="4.71218">
        <ele>208</ele>
        <time>2018-07-07T08:51:06Z</time>
      </trkpt>
      <trkpt lat="45.97856" lon="4.71216">
        <ele>208</ele>
        <time>2018-07-07T08:51:07Z</time>
      </trkpt>
      <trkpt lat="45.97856" lon="4.71203">
        <ele>209</ele>
        <time>2018-07-07T08:51:40Z</time>
      </trkpt>
      <trkpt lat="45.97857" lon="4.712">
        <ele>209</ele>
        <time>2018-07-07T08:51:41Z</time>
      </trkpt>
      <trkpt lat="45.97858" lon="4.7119">
        <ele>209</ele>
        <time>2018-07-07T08:51:44Z</time>
      </trkpt>
      <trkpt lat="45.97858" lon="4.71185">
        <ele>209</ele>
        <time>2018-07-07T08:51:45Z</time>
      </trkpt>
      <trkpt lat="45.97859" lon="4.71172">
        <ele>209</ele>
        <time>2018-07-07T08:51:48Z</time>
      </trkpt>
      <trkpt lat="45.97859" lon="4.71168">
        <ele>209</ele>
        <time>2018-07-07T08:51:49Z</time>
      </trkpt>
      <trkpt lat="45.97859" lon="4.71156">
        <ele>212</ele>
        <time>2018-07-07T08:51:52Z</time>
      </trkpt>
      <trkpt lat="45.97857" lon="4.7114">
        <ele>212</ele>
        <time>2018-07-07T08:51:53Z</time>
      </trkpt>
      <trkpt lat="45.97855" lon="4.71129">
        <ele>212</ele>
        <time>2018-07-07T08:51:56Z</time>
      </trkpt>
      <trkpt lat="45.97854" lon="4.71126">
        <ele>212</ele>
        <time>2018-07-07T08:51:57Z</time>
      </trkpt>
      <trkpt lat="45.97851" lon="4.71115">
        <ele>213</ele>
        <time>2018-07-07T08:52:00Z</time>
      </trkpt>
      <trkpt lat="45.97851" lon="4.7111">
        <ele>213</ele>
        <time>2018-07-07T08:52:01Z</time>
      </trkpt>
      <trkpt lat="45.97849" lon="4.71103">
        <ele>213</ele>
        <time>2018-07-07T08:52:03Z</time>
      </trkpt>
      <trkpt lat="45.97847" lon="4.71089">
        <ele>213</ele>
        <time>2018-07-07T08:52:04Z</time>
      </trkpt>
      <trkpt lat="45.97845" lon="4.71078">
        <ele>215</ele>
        <time>2018-07-07T08:52:08Z</time>
      </trkpt>
      <trkpt lat="45.97845" lon="4.71074">
        <ele>215</ele>
        <time>2018-07-07T08:52:09Z</time>
      </trkpt>
      <trkpt lat="45.97845" lon="4.71062">
        <ele>215</ele>
        <time>2018-07-07T08:52:12Z</time>
      </trkpt>
      <trkpt lat="45.97845" lon="4.71057">
        <ele>215</ele>
        <time>2018-07-07T08:52:13Z</time>
      </trkpt>
      <trkpt lat="45.97844" lon="4.71048">
        <ele>215</ele>
        <time>2018-07-07T08:52:15Z</time>
      </trkpt>
      <trkpt lat="45.97843" lon="4.71043">
        <ele>215</ele>
        <time>2018-07-07T08:52:16Z</time>
      </trkpt>
      <trkpt lat="45.9784" lon="4.71032">
        <ele>216</ele>
        <time>2018-07-07T08:52:18Z</time>
      </trkpt>
      <trkpt lat="45.97839" lon="4.71026">
        <ele>216</ele>
        <time>2018-07-07T08:52:19Z</time>
      </trkpt>
      <trkpt lat="45.97837" lon="4.71016">
        <ele>216</ele>
        <time>2018-07-07T08:52:21Z</time>
      </trkpt>
      <trkpt lat="45.97834" lon="4.71">
        <ele>216</ele>
        <time>2018-07-07T08:52:22Z</time>
      </trkpt>
      <trkpt lat="45.97833" lon="4.70991">
        <ele>217</ele>
        <time>2018-07-07T08:52:25Z</time>
      </trkpt>
      <trkpt lat="45.97832" lon="4.70986">
        <ele>217</ele>
        <time>2018-07-07T08:52:26Z</time>
      </trkpt>
      <trkpt lat="45.97832" lon="4.70979">
        <ele>217</ele>
        <time>2018-07-07T08:52:28Z</time>
      </trkpt>
      <trkpt lat="45.97831" lon="4.70967">
        <ele>218</ele>
        <time>2018-07-07T08:52:29Z</time>
      </trkpt>
      <trkpt lat="45.97831" lon="4.70954">
        <ele>218</ele>
        <time>2018-07-07T08:52:33Z</time>
      </trkpt>
      <trkpt lat="45.97831" lon="4.7095">
        <ele>218</ele>
        <time>2018-07-07T08:52:34Z</time>
      </trkpt>
      <trkpt lat="45.97832" lon="4.70939">
        <ele>218</ele>
        <time>2018-07-07T08:52:37Z</time>
      </trkpt>
      <trkpt lat="45.97833" lon="4.70934">
        <ele>219</ele>
        <time>2018-07-07T08:52:38Z</time>
      </trkpt>
      <trkpt lat="45.97834" lon="4.70922">
        <ele>219</ele>
        <time>2018-07-07T08:52:41Z</time>
      </trkpt>
      <trkpt lat="45.97834" lon="4.70919">
        <ele>219</ele>
        <time>2018-07-07T08:52:42Z</time>
      </trkpt>
      <trkpt lat="45.97832" lon="4.70907">
        <ele>219</ele>
        <time>2018-07-07T08:52:45Z</time>
      </trkpt>
      <trkpt lat="45.97831" lon="4.70904">
        <ele>219</ele>
        <time>2018-07-07T08:52:46Z</time>
      </trkpt>
      <trkpt lat="45.97829" lon="4.70895">
        <ele>220</ele>
        <time>2018-07-07T08:52:48Z</time>
      </trkpt>
      <trkpt lat="45.97828" lon="4.70889">
        <ele>220</ele>
        <time>2018-07-07T08:52:49Z</time>
      </trkpt>
      <trkpt lat="45.97827" lon="4.7088">
        <ele>220</ele>
        <time>2018-07-07T08:52:51Z</time>
      </trkpt>
      <trkpt lat="45.97824" lon="4.70863">
        <ele>220</ele>
        <time>2018-07-07T08:52:52Z</time>
      </trkpt>
      <trkpt lat="45.97822" lon="4.70851">
        <ele>220</ele>
        <time>2018-07-07T08:52:54Z</time>
      </trkpt>
      <trkpt lat="45.97821" lon="4.70849">
        <ele>220</ele>
        <time>2018-07-07T08:52:55Z</time>
      </trkpt>
      <trkpt lat="45.97821" lon="4.70846">
        <ele>220</ele>
        <time>2018-07-07T08:52:56Z</time>
      </trkpt>
      <trkpt lat="45.97819" lon="4.70836">
        <ele>221</ele>
        <time>2018-07-07T08:52:57Z</time>
      </trkpt>
      <trkpt lat="45.97816" lon="4.70828">
        <ele>221</ele>
        <time>2018-07-07T08:53:00Z</time>
      </trkpt>
      <trkpt lat="45.97814" lon="4.70824">
        <ele>221</ele>
        <time>2018-07-07T08:53:01Z</time>
      </trkpt>
      <trkpt lat="45.97813" lon="4.7082">
        <ele>221</ele>
        <time>2018-07-07T08:53:02Z</time>
      </trkpt>
      <trkpt lat="45.97808" lon="4.70808">
        <ele>221</ele>
        <time>2018-07-07T08:53:03Z</time>
      </trkpt>
      <trkpt lat="45.97806" lon="4.70798">
        <ele>221</ele>
        <time>2018-07-07T08:53:05Z</time>
      </trkpt>
      <trkpt lat="45.97806" lon="4.70795">
        <ele>221</ele>
        <time>2018-07-07T08:53:06Z</time>
      </trkpt>
      <trkpt lat="45.97806" lon="4.70787">
        <ele>221</ele>
        <time>2018-07-07T08:53:07Z</time>
      </trkpt>
      <trkpt lat="45.97808" lon="4.70781">
        <ele>221</ele>
        <time>2018-07-07T08:53:08Z</time>
      </trkpt>
      <trkpt lat="45.97809" lon="4.70769">
        <ele>221</ele>
        <time>2018-07-07T08:53:10Z</time>
      </trkpt>
      <trkpt lat="45.97808" lon="4.70764">
        <ele>221</ele>
        <time>2018-07-07T08:53:11Z</time>
      </trkpt>
      <trkpt lat="45.97804" lon="4.70754">
        <ele>221</ele>
        <time>2018-07-07T08:53:13Z</time>
      </trkpt>
      <trkpt lat="45.97802" lon="4.7075">
        <ele>222</ele>
        <time>2018-07-07T08:53:14Z</time>
      </trkpt>
      <trkpt lat="45.97796" lon="4.7074">
        <ele>222</ele>
        <time>2018-07-07T08:53:16Z</time>
      </trkpt>
      <trkpt lat="45.97794" lon="4.70735">
        <ele>222</ele>
        <time>2018-07-07T08:53:17Z</time>
      </trkpt>
      <trkpt lat="45.97791" lon="4.70723">
        <ele>222</ele>
        <time>2018-07-07T08:53:19Z</time>
      </trkpt>
      <trkpt lat="45.9779" lon="4.70717">
        <ele>222</ele>
        <time>2018-07-07T08:53:20Z</time>
      </trkpt>
      <trkpt lat="45.97789" lon="4.70705">
        <ele>222</ele>
        <time>2018-07-07T08:53:22Z</time>
      </trkpt>
      <trkpt lat="45.97789" lon="4.70699">
        <ele>222</ele>
        <time>2018-07-07T08:53:23Z</time>
      </trkpt>
      <trkpt lat="45.9779" lon="4.70687">
        <ele>222</ele>
        <time>2018-07-07T08:53:25Z</time>
      </trkpt>
      <trkpt lat="45.9779" lon="4.70679">
        <ele>222</ele>
        <time>2018-07-07T08:53:26Z</time>
      </trkpt>
      <trkpt lat="45.97789" lon="4.70673">
        <ele>222</ele>
        <time>2018-07-07T08:53:27Z</time>
      </trkpt>
      <trkpt lat="45.9779" lon="4.70666">
        <ele>222</ele>
        <time>2018-07-07T08:53:28Z</time>
      </trkpt>
      <trkpt lat="45.9779" lon="4.70658">
        <ele>222</ele>
        <time>2018-07-07T08:53:29Z</time>
      </trkpt>
      <trkpt lat="45.97791" lon="4.7065">
        <ele>222</ele>
        <time>2018-07-07T08:53:30Z</time>
      </trkpt>
      <trkpt lat="45.97791" lon="4.70643">
        <ele>222</ele>
        <time>2018-07-07T08:53:31Z</time>
      </trkpt>
      <trkpt lat="45.97792" lon="4.70635">
        <ele>222</ele>
        <time>2018-07-07T08:53:32Z</time>
      </trkpt>
      <trkpt lat="45.97791" lon="4.70629">
        <ele>222</ele>
        <time>2018-07-07T08:53:33Z</time>
      </trkpt>
      <trkpt lat="45.9779" lon="4.7062">
        <ele>223</ele>
        <time>2018-07-07T08:53:34Z</time>
      </trkpt>
      <trkpt lat="45.97792" lon="4.70611">
        <ele>223</ele>
        <time>2018-07-07T08:53:35Z</time>
      </trkpt>
      <trkpt lat="45.97794" lon="4.70603">
        <ele>223</ele>
        <time>2018-07-07T08:53:36Z</time>
      </trkpt>
      <trkpt lat="45.97794" lon="4.70595">
        <ele>223</ele>
        <time>2018-07-07T08:53:37Z</time>
      </trkpt>
      <trkpt lat="45.97794" lon="4.70588">
        <ele>223</ele>
        <time>2018-07-07T08:53:38Z</time>
      </trkpt>
      <trkpt lat="45.97798" lon="4.7058">
        <ele>222</ele>
        <time>2018-07-07T08:53:39Z</time>
      </trkpt>
      <trkpt lat="45.97798" lon="4.70572">
        <ele>222</ele>
        <time>2018-07-07T08:53:40Z</time>
      </trkpt>
      <trkpt lat="45.97798" lon="4.70563">
        <ele>222</ele>
        <time>2018-07-07T08:53:41Z</time>
      </trkpt>
      <trkpt lat="45.97799" lon="4.70555">
        <ele>222</ele>
        <time>2018-07-07T08:53:42Z</time>
      </trkpt>
      <trkpt lat="45.978" lon="4.70549">
        <ele>222</ele>
        <time>2018-07-07T08:53:43Z</time>
      </trkpt>
      <trkpt lat="45.97799" lon="4.7054">
        <ele>222</ele>
        <time>2018-07-07T08:53:44Z</time>
      </trkpt>
      <trkpt lat="45.97799" lon="4.70533">
        <ele>222</ele>
        <time>2018-07-07T08:53:45Z</time>
      </trkpt>
      <trkpt lat="45.97798" lon="4.70526">
        <ele>222</ele>
        <time>2018-07-07T08:53:46Z</time>
      </trkpt>
      <trkpt lat="45.97798" lon="4.70518">
        <ele>222</ele>
        <time>2018-07-07T08:53:47Z</time>
      </trkpt>
      <trkpt lat="45.97798" lon="4.70511">
        <ele>222</ele>
        <time>2018-07-07T08:53:48Z</time>
      </trkpt>
      <trkpt lat="45.97801" lon="4.70499">
        <ele>221</ele>
        <time>2018-07-07T08:53:50Z</time>
      </trkpt>
      <trkpt lat="45.97802" lon="4.70492">
        <ele>221</ele>
        <time>2018-07-07T08:53:51Z</time>
      </trkpt>
      <trkpt lat="45.97804" lon="4.70485">
        <ele>221</ele>
        <time>2018-07-07T08:53:52Z</time>
      </trkpt>
      <trkpt lat="45.97802" lon="4.70475">
        <ele>221</ele>
        <time>2018-07-07T08:53:53Z</time>
      </trkpt>
      <trkpt lat="45.97803" lon="4.70467">
        <ele>221</ele>
        <time>2018-07-07T08:53:54Z</time>
      </trkpt>
      <trkpt lat="45.97805" lon="4.70459">
        <ele>221</ele>
        <time>2018-07-07T08:53:55Z</time>
      </trkpt>
      <trkpt lat="45.97806" lon="4.70449">
        <ele>221</ele>
        <time>2018-07-07T08:53:56Z</time>
      </trkpt>
      <trkpt lat="45.97805" lon="4.7044">
        <ele>221</ele>
        <time>2018-07-07T08:53:57Z</time>
      </trkpt>
      <trkpt lat="45.97805" lon="4.70433">
        <ele>221</ele>
        <time>2018-07-07T08:53:58Z</time>
      </trkpt>
      <trkpt lat="45.97806" lon="4.70423">
        <ele>221</ele>
        <time>2018-07-07T08:53:59Z</time>
      </trkpt>
      <trkpt lat="45.97807" lon="4.70414">
        <ele>221</ele>
        <time>2018-07-07T08:54:00Z</time>
      </trkpt>
      <trkpt lat="45.97808" lon="4.70406">
        <ele>222</ele>
        <time>2018-07-07T08:54:01Z</time>
      </trkpt>
      <trkpt lat="45.9781" lon="4.70399">
        <ele>222</ele>
        <time>2018-07-07T08:54:02Z</time>
      </trkpt>
      <trkpt lat="45.97811" lon="4.70391">
        <ele>222</ele>
        <time>2018-07-07T08:54:03Z</time>
      </trkpt>
      <trkpt lat="45.97813" lon="4.70384">
        <ele>222</ele>
        <time>2018-07-07T08:54:04Z</time>
      </trkpt>
      <trkpt lat="45.97815" lon="4.70376">
        <ele>222</ele>
        <time>2018-07-07T08:54:05Z</time>
      </trkpt>
      <trkpt lat="45.97816" lon="4.70367">
        <ele>222</ele>
        <time>2018-07-07T08:54:06Z</time>
      </trkpt>
      <trkpt lat="45.97816" lon="4.70361">
        <ele>222</ele>
        <time>2018-07-07T08:54:07Z</time>
      </trkpt>
      <trkpt lat="45.97818" lon="4.70352">
        <ele>222</ele>
        <time>2018-07-07T08:54:08Z</time>
      </trkpt>
      <trkpt lat="45.97819" lon="4.70346">
        <ele>222</ele>
        <time>2018-07-07T08:54:09Z</time>
      </trkpt>
      <trkpt lat="45.9782" lon="4.70339">
        <ele>222</ele>
        <time>2018-07-07T08:54:10Z</time>
      </trkpt>
      <trkpt lat="45.97822" lon="4.70332">
        <ele>222</ele>
        <time>2018-07-07T08:54:11Z</time>
      </trkpt>
      <trkpt lat="45.97823" lon="4.70326">
        <ele>222</ele>
        <time>2018-07-07T08:54:12Z</time>
      </trkpt>
      <trkpt lat="45.97823" lon="4.70319">
        <ele>222</ele>
        <time>2018-07-07T08:54:13Z</time>
      </trkpt>
      <trkpt lat="45.97822" lon="4.70312">
        <ele>222</ele>
        <time>2018-07-07T08:54:14Z</time>
      </trkpt>
      <trkpt lat="45.97822" lon="4.70305">
        <ele>223</ele>
        <time>2018-07-07T08:54:15Z</time>
      </trkpt>
      <trkpt lat="45.97823" lon="4.70299">
        <ele>223</ele>
        <time>2018-07-07T08:54:16Z</time>
      </trkpt>
      <trkpt lat="45.97821" lon="4.70292">
        <ele>223</ele>
        <time>2018-07-07T08:54:17Z</time>
      </trkpt>
      <trkpt lat="45.97822" lon="4.70281">
        <ele>223</ele>
        <time>2018-07-07T08:54:19Z</time>
      </trkpt>
      <trkpt lat="45.97821" lon="4.70275">
        <ele>223</ele>
        <time>2018-07-07T08:54:20Z</time>
      </trkpt>
      <trkpt lat="45.97823" lon="4.70267">
        <ele>223</ele>
        <time>2018-07-07T08:54:21Z</time>
      </trkpt>
      <trkpt lat="45.97823" lon="4.70262">
        <ele>223</ele>
        <time>2018-07-07T08:54:22Z</time>
      </trkpt>
      <trkpt lat="45.97823" lon="4.70256">
        <ele>223</ele>
        <time>2018-07-07T08:54:23Z</time>
      </trkpt>
      <trkpt lat="45.97822" lon="4.70249">
        <ele>222</ele>
        <time>2018-07-07T08:54:24Z</time>
      </trkpt>
      <trkpt lat="45.97824" lon="4.70243">
        <ele>223</ele>
        <time>2018-07-07T08:54:25Z</time>
      </trkpt>
      <trkpt lat="45.97821" lon="4.70235">
        <ele>223</ele>
        <time>2018-07-07T08:54:26Z</time>
      </trkpt>
      <trkpt lat="45.9782" lon="4.70222">
        <ele>223</ele>
        <time>2018-07-07T08:54:28Z</time>
      </trkpt>
      <trkpt lat="45.97821" lon="4.70216">
        <ele>223</ele>
        <time>2018-07-07T08:54:29Z</time>
      </trkpt>
      <trkpt lat="45.97821" lon="4.70205">
        <ele>223</ele>
        <time>2018-07-07T08:54:31Z</time>
      </trkpt>
      <trkpt lat="45.97821" lon="4.70198">
        <ele>223</ele>
        <time>2018-07-07T08:54:32Z</time>
      </trkpt>
      <trkpt lat="45.9782" lon="4.70193">
        <ele>222</ele>
        <time>2018-07-07T08:54:33Z</time>
      </trkpt>
      <trkpt lat="45.97819" lon="4.70185">
        <ele>222</ele>
        <time>2018-07-07T08:54:34Z</time>
      </trkpt>
      <trkpt lat="45.97822" lon="4.70178">
        <ele>222</ele>
        <time>2018-07-07T08:54:35Z</time>
      </trkpt>
      <trkpt lat="45.9782" lon="4.70171">
        <ele>222</ele>
        <time>2018-07-07T08:54:36Z</time>
      </trkpt>
      <trkpt lat="45.97821" lon="4.70164">
        <ele>221</ele>
        <time>2018-07-07T08:54:37Z</time>
      </trkpt>
      <trkpt lat="45.97821" lon="4.70156">
        <ele>221</ele>
        <time>2018-07-07T08:54:38Z</time>
      </trkpt>
      <trkpt lat="45.97822" lon="4.70149">
        <ele>221</ele>
        <time>2018-07-07T08:54:39Z</time>
      </trkpt>
      <trkpt lat="45.97823" lon="4.70142">
        <ele>221</ele>
        <time>2018-07-07T08:54:40Z</time>
      </trkpt>
      <trkpt lat="45.97821" lon="4.70134">
        <ele>221</ele>
        <time>2018-07-07T08:54:41Z</time>
      </trkpt>
      <trkpt lat="45.97821" lon="4.70126">
        <ele>221</ele>
        <time>2018-07-07T08:54:42Z</time>
      </trkpt>
      <trkpt lat="45.97821" lon="4.70118">
        <ele>221</ele>
        <time>2018-07-07T08:54:43Z</time>
      </trkpt>
      <trkpt lat="45.97823" lon="4.7011">
        <ele>221</ele>
        <time>2018-07-07T08:54:44Z</time>
      </trkpt>
      <trkpt lat="45.97823" lon="4.701">
        <ele>220</ele>
        <time>2018-07-07T08:54:45Z</time>
      </trkpt>
      <trkpt lat="45.97821" lon="4.70093">
        <ele>220</ele>
        <time>2018-07-07T08:54:46Z</time>
      </trkpt>
      <trkpt lat="45.97823" lon="4.70085">
        <ele>220</ele>
        <time>2018-07-07T08:54:47Z</time>
      </trkpt>
      <trkpt lat="45.97823" lon="4.70077">
        <ele>219</ele>
        <time>2018-07-07T08:54:48Z</time>
      </trkpt>
      <trkpt lat="45.97824" lon="4.70069">
        <ele>219</ele>
        <time>2018-07-07T08:54:49Z</time>
      </trkpt>
      <trkpt lat="45.97827" lon="4.70061">
        <ele>219</ele>
        <time>2018-07-07T08:54:50Z</time>
      </trkpt>
      <trkpt lat="45.97829" lon="4.70053">
        <ele>219</ele>
        <time>2018-07-07T08:54:51Z</time>
      </trkpt>
      <trkpt lat="45.97832" lon="4.70044">
        <ele>219</ele>
        <time>2018-07-07T08:54:52Z</time>
      </trkpt>
      <trkpt lat="45.97835" lon="4.70036">
        <ele>218</ele>
        <time>2018-07-07T08:54:53Z</time>
      </trkpt>
      <trkpt lat="45.97838" lon="4.70029">
        <ele>218</ele>
        <time>2018-07-07T08:54:54Z</time>
      </trkpt>
      <trkpt lat="45.97842" lon="4.70021">
        <ele>218</ele>
        <time>2018-07-07T08:54:55Z</time>
      </trkpt>
      <trkpt lat="45.97847" lon="4.70016">
        <ele>218</ele>
        <time>2018-07-07T08:54:56Z</time>
      </trkpt>
      <trkpt lat="45.97851" lon="4.70009">
        <ele>218</ele>
        <time>2018-07-07T08:54:57Z</time>
      </trkpt>
      <trkpt lat="45.97856" lon="4.70004">
        <ele>218</ele>
        <time>2018-07-07T08:54:58Z</time>
      </trkpt>
      <trkpt lat="45.97862" lon="4.69999">
        <ele>215</ele>
        <time>2018-07-07T08:54:59Z</time>
      </trkpt>
      <trkpt lat="45.97868" lon="4.69993">
        <ele>215</ele>
        <time>2018-07-07T08:55:00Z</time>
      </trkpt>
      <trkpt lat="45.97874" lon="4.69987">
        <ele>215</ele>
        <time>2018-07-07T08:55:01Z</time>
      </trkpt>
      <trkpt lat="45.9788" lon="4.6998">
        <ele>215</ele>
        <time>2018-07-07T08:55:02Z</time>
      </trkpt>
      <trkpt lat="45.97884" lon="4.69973">
        <ele>215</ele>
        <time>2018-07-07T08:55:03Z</time>
      </trkpt>
      <trkpt lat="45.9789" lon="4.69968">
        <ele>215</ele>
        <time>2018-07-07T08:55:04Z</time>
      </trkpt>
      <trkpt lat="45.97896" lon="4.6996">
        <ele>214</ele>
        <time>2018-07-07T08:55:05Z</time>
      </trkpt>
      <trkpt lat="45.97901" lon="4.69954">
        <ele>214</ele>
        <time>2018-07-07T08:55:06Z</time>
      </trkpt>
      <trkpt lat="45.97907" lon="4.69948">
        <ele>214</ele>
        <time>2018-07-07T08:55:07Z</time>
      </trkpt>
      <trkpt lat="45.97913" lon="4.69941">
        <ele>213</ele>
        <time>2018-07-07T08:55:08Z</time>
      </trkpt>
      <trkpt lat="45.97919" lon="4.69935">
        <ele>213</ele>
        <time>2018-07-07T08:55:09Z</time>
      </trkpt>
      <trkpt lat="45.97924" lon="4.69927">
        <ele>212</ele>
        <time>2018-07-07T08:55:10Z</time>
      </trkpt>
      <trkpt lat="45.97931" lon="4.6992">
        <ele>213</ele>
        <time>2018-07-07T08:55:11Z</time>
      </trkpt>
      <trkpt lat="45.97936" lon="4.69913">
        <ele>210</ele>
        <time>2018-07-07T08:55:12Z</time>
      </trkpt>
      <trkpt lat="45.97942" lon="4.69906">
        <ele>210</ele>
        <time>2018-07-07T08:55:13Z</time>
      </trkpt>
      <trkpt lat="45.97946" lon="4.69898">
        <ele>210</ele>
        <time>2018-07-07T08:55:14Z</time>
      </trkpt>
      <trkpt lat="45.97951" lon="4.69889">
        <ele>210</ele>
        <time>2018-07-07T08:55:15Z</time>
      </trkpt>
      <trkpt lat="45.97956" lon="4.69881">
        <ele>209</ele>
        <time>2018-07-07T08:55:16Z</time>
      </trkpt>
      <trkpt lat="45.97961" lon="4.69875">
        <ele>209</ele>
        <time>2018-07-07T08:55:17Z</time>
      </trkpt>
      <trkpt lat="45.97966" lon="4.69868">
        <ele>209</ele>
        <time>2018-07-07T08:55:18Z</time>
      </trkpt>
      <trkpt lat="45.97971" lon="4.69861">
        <ele>209</ele>
        <time>2018-07-07T08:55:19Z</time>
      </trkpt>
      <trkpt lat="45.97976" lon="4.69854">
        <ele>209</ele>
        <time>2018-07-07T08:55:20Z</time>
      </trkpt>
      <trkpt lat="45.97981" lon="4.69849">
        <ele>209</ele>
        <time>2018-07-07T08:55:21Z</time>
      </trkpt>
      <trkpt lat="45.97984" lon="4.69844">
        <ele>209</ele>
        <time>2018-07-07T08:55:22Z</time>
      </trkpt>
      <trkpt lat="45.97988" lon="4.69838">
        <ele>208</ele>
        <time>2018-07-07T08:55:24Z</time>
      </trkpt>
      <trkpt lat="45.97994" lon="4.69835">
        <ele>208</ele>
        <time>2018-07-07T08:55:25Z</time>
      </trkpt>
      <trkpt lat="45.98" lon="4.69834">
        <ele>208</ele>
        <time>2018-07-07T08:55:29Z</time>
      </trkpt>
      <trkpt lat="45.98003" lon="4.69833">
        <ele>208</ele>
        <time>2018-07-07T08:55:30Z</time>
      </trkpt>
      <trkpt lat="45.98011" lon="4.69834">
        <ele>209</ele>
        <time>2018-07-07T08:55:31Z</time>
      </trkpt>
      <trkpt lat="45.98014" lon="4.69836">
        <ele>209</ele>
        <time>2018-07-07T08:55:32Z</time>
      </trkpt>
      <trkpt lat="45.98021" lon="4.69835">
        <ele>210</ele>
        <time>2018-07-07T08:55:34Z</time>
      </trkpt>
      <trkpt lat="45.98025" lon="4.69833">
        <ele>207</ele>
        <time>2018-07-07T08:55:35Z</time>
      </trkpt>
      <trkpt lat="45.98029" lon="4.69826">
        <ele>207</ele>
        <time>2018-07-07T08:55:36Z</time>
      </trkpt>
      <trkpt lat="45.98033" lon="4.69819">
        <ele>207</ele>
        <time>2018-07-07T08:55:37Z</time>
      </trkpt>
      <trkpt lat="45.98033" lon="4.6981">
        <ele>206</ele>
        <time>2018-07-07T08:55:38Z</time>
      </trkpt>
      <trkpt lat="45.98036" lon="4.69803">
        <ele>206</ele>
        <time>2018-07-07T08:55:39Z</time>
      </trkpt>
      <trkpt lat="45.98041" lon="4.69793">
        <ele>206</ele>
        <time>2018-07-07T08:55:41Z</time>
      </trkpt>
      <trkpt lat="45.98044" lon="4.69787">
        <ele>206</ele>
        <time>2018-07-07T08:55:42Z</time>
      </trkpt>
      <trkpt lat="45.98049" lon="4.69777">
        <ele>206</ele>
        <time>2018-07-07T08:55:43Z</time>
      </trkpt>
      <trkpt lat="45.98054" lon="4.69771">
        <ele>205</ele>
        <time>2018-07-07T08:55:44Z</time>
      </trkpt>
      <trkpt lat="45.98063" lon="4.6976">
        <ele>205</ele>
        <time>2018-07-07T08:55:45Z</time>
      </trkpt>
      <trkpt lat="45.98069" lon="4.69752">
        <ele>204</ele>
        <time>2018-07-07T08:55:46Z</time>
      </trkpt>
      <trkpt lat="45.98075" lon="4.69742">
        <ele>203</ele>
        <time>2018-07-07T08:55:47Z</time>
      </trkpt>
      <trkpt lat="45.98082" lon="4.69733">
        <ele>202</ele>
        <time>2018-07-07T08:55:48Z</time>
      </trkpt>
      <trkpt lat="45.98087" lon="4.69723">
        <ele>201</ele>
        <time>2018-07-07T08:55:49Z</time>
      </trkpt>
      <trkpt lat="45.98092" lon="4.69716">
        <ele>201</ele>
        <time>2018-07-07T08:55:50Z</time>
      </trkpt>
      <trkpt lat="45.98096" lon="4.69705">
        <ele>201</ele>
        <time>2018-07-07T08:55:51Z</time>
      </trkpt>
      <trkpt lat="45.98102" lon="4.69694">
        <ele>200</ele>
        <time>2018-07-07T08:55:52Z</time>
      </trkpt>
      <trkpt lat="45.98102" lon="4.69688">
        <ele>200</ele>
        <time>2018-07-07T08:55:53Z</time>
      </trkpt>
      <trkpt lat="45.98107" lon="4.6968">
        <ele>200</ele>
        <time>2018-07-07T08:55:54Z</time>
      </trkpt>
      <trkpt lat="45.9811" lon="4.69673">
        <ele>200</ele>
        <time>2018-07-07T08:55:55Z</time>
      </trkpt>
      <trkpt lat="45.98115" lon="4.69665">
        <ele>199</ele>
        <time>2018-07-07T08:55:56Z</time>
      </trkpt>
      <trkpt lat="45.98117" lon="4.69655">
        <ele>199</ele>
        <time>2018-07-07T08:55:57Z</time>
      </trkpt>
      <trkpt lat="45.98122" lon="4.69645">
        <ele>199</ele>
        <time>2018-07-07T08:55:58Z</time>
      </trkpt>
      <trkpt lat="45.98125" lon="4.69632">
        <ele>199</ele>
        <time>2018-07-07T08:55:59Z</time>
      </trkpt>
      <trkpt lat="45.98129" lon="4.69622">
        <ele>198</ele>
        <time>2018-07-07T08:56:00Z</time>
      </trkpt>
      <trkpt lat="45.98131" lon="4.69612">
        <ele>198</ele>
        <time>2018-07-07T08:56:01Z</time>
      </trkpt>
      <trkpt lat="45.98133" lon="4.69601">
        <ele>198</ele>
        <time>2018-07-07T08:56:02Z</time>
      </trkpt>
      <trkpt lat="45.98135" lon="4.69592">
        <ele>198</ele>
        <time>2018-07-07T08:56:03Z</time>
      </trkpt>
      <trkpt lat="45.98138" lon="4.6958">
        <ele>197</ele>
        <time>2018-07-07T08:56:04Z</time>
      </trkpt>
      <trkpt lat="45.98143" lon="4.6957">
        <ele>197</ele>
        <time>2018-07-07T08:56:05Z</time>
      </trkpt>
      <trkpt lat="45.98145" lon="4.69561">
        <ele>197</ele>
        <time>2018-07-07T08:56:06Z</time>
      </trkpt>
      <trkpt lat="45.98148" lon="4.69549">
        <ele>197</ele>
        <time>2018-07-07T08:56:07Z</time>
      </trkpt>
      <trkpt lat="45.98154" lon="4.69537">
        <ele>197</ele>
        <time>2018-07-07T08:56:08Z</time>
      </trkpt>
      <trkpt lat="45.98159" lon="4.6953">
        <ele>196</ele>
        <time>2018-07-07T08:56:10Z</time>
      </trkpt>
      <trkpt lat="45.98161" lon="4.69528">
        <ele>196</ele>
        <time>2018-07-07T08:56:11Z</time>
      </trkpt>
      <trkpt lat="45.98166" lon="4.69522">
        <ele>196</ele>
        <time>2018-07-07T08:56:13Z</time>
      </trkpt>
      <trkpt lat="45.98171" lon="4.69518">
        <ele>195</ele>
        <time>2018-07-07T08:56:14Z</time>
      </trkpt>
      <trkpt lat="45.98175" lon="4.69516">
        <ele>195</ele>
        <time>2018-07-07T08:56:15Z</time>
      </trkpt>
      <trkpt lat="45.98179" lon="4.69509">
        <ele>195</ele>
        <time>2018-07-07T08:56:16Z</time>
      </trkpt>
      <trkpt lat="45.98182" lon="4.69502">
        <ele>195</ele>
        <time>2018-07-07T08:56:17Z</time>
      </trkpt>
      <trkpt lat="45.98184" lon="4.69495">
        <ele>194</ele>
        <time>2018-07-07T08:56:18Z</time>
      </trkpt>
      <trkpt lat="45.98184" lon="4.69487">
        <ele>194</ele>
        <time>2018-07-07T08:56:19Z</time>
      </trkpt>
      <trkpt lat="45.98183" lon="4.6948">
        <ele>194</ele>
        <time>2018-07-07T08:56:20Z</time>
      </trkpt>
      <trkpt lat="45.98183" lon="4.69473">
        <ele>194</ele>
        <time>2018-07-07T08:56:21Z</time>
      </trkpt>
      <trkpt lat="45.98183" lon="4.69466">
        <ele>194</ele>
        <time>2018-07-07T08:56:22Z</time>
      </trkpt>
      <trkpt lat="45.98182" lon="4.69459">
        <ele>194</ele>
        <time>2018-07-07T08:56:23Z</time>
      </trkpt>
      <trkpt lat="45.98183" lon="4.69452">
        <ele>194</ele>
        <time>2018-07-07T08:56:24Z</time>
      </trkpt>
      <trkpt lat="45.98185" lon="4.69441">
        <ele>194</ele>
        <time>2018-07-07T08:56:26Z</time>
      </trkpt>
      <trkpt lat="45.98187" lon="4.69434">
        <ele>194</ele>
        <time>2018-07-07T08:56:27Z</time>
      </trkpt>
      <trkpt lat="45.98187" lon="4.69428">
        <ele>194</ele>
        <time>2018-07-07T08:56:28Z</time>
      </trkpt>
      <trkpt lat="45.98189" lon="4.69421">
        <ele>194</ele>
        <time>2018-07-07T08:56:29Z</time>
      </trkpt>
      <trkpt lat="45.98191" lon="4.69413">
        <ele>194</ele>
        <time>2018-07-07T08:56:30Z</time>
      </trkpt>
      <trkpt lat="45.98192" lon="4.69406">
        <ele>194</ele>
        <time>2018-07-07T08:56:31Z</time>
      </trkpt>
      <trkpt lat="45.98193" lon="4.69398">
        <ele>194</ele>
        <time>2018-07-07T08:56:32Z</time>
      </trkpt>
      <trkpt lat="45.98194" lon="4.6939">
        <ele>194</ele>
        <time>2018-07-07T08:56:33Z</time>
      </trkpt>
      <trkpt lat="45.98196" lon="4.69383">
        <ele>194</ele>
        <time>2018-07-07T08:56:34Z</time>
      </trkpt>
      <trkpt lat="45.98196" lon="4.69375">
        <ele>193</ele>
        <time>2018-07-07T08:56:35Z</time>
      </trkpt>
      <trkpt lat="45.98197" lon="4.69368">
        <ele>193</ele>
        <time>2018-07-07T08:56:36Z</time>
      </trkpt>
      <trkpt lat="45.98197" lon="4.69362">
        <ele>193</ele>
        <time>2018-07-07T08:56:37Z</time>
      </trkpt>
      <trkpt lat="45.98202" lon="4.69352">
        <ele>193</ele>
        <time>2018-07-07T08:56:39Z</time>
      </trkpt>
      <trkpt lat="45.98206" lon="4.69346">
        <ele>193</ele>
        <time>2018-07-07T08:56:40Z</time>
      </trkpt>
      <trkpt lat="45.98209" lon="4.6934">
        <ele>194</ele>
        <time>2018-07-07T08:56:41Z</time>
      </trkpt>
      <trkpt lat="45.98212" lon="4.69336">
        <ele>194</ele>
        <time>2018-07-07T08:56:42Z</time>
      </trkpt>
      <trkpt lat="45.98215" lon="4.6933">
        <ele>194</ele>
        <time>2018-07-07T08:56:43Z</time>
      </trkpt>
      <trkpt lat="45.98217" lon="4.69324">
        <ele>194</ele>
        <time>2018-07-07T08:56:44Z</time>
      </trkpt>
      <trkpt lat="45.98216" lon="4.69318">
        <ele>194</ele>
        <time>2018-07-07T08:56:45Z</time>
      </trkpt>
      <trkpt lat="45.98216" lon="4.69311">
        <ele>194</ele>
        <time>2018-07-07T08:56:46Z</time>
      </trkpt>
      <trkpt lat="45.98217" lon="4.69304">
        <ele>194</ele>
        <time>2018-07-07T08:56:47Z</time>
      </trkpt>
      <trkpt lat="45.98219" lon="4.69297">
        <ele>194</ele>
        <time>2018-07-07T08:56:48Z</time>
      </trkpt>
      <trkpt lat="45.98219" lon="4.69285">
        <ele>194</ele>
        <time>2018-07-07T08:56:50Z</time>
      </trkpt>
      <trkpt lat="45.9822" lon="4.69277">
        <ele>194</ele>
        <time>2018-07-07T08:56:51Z</time>
      </trkpt>
      <trkpt lat="45.98218" lon="4.6927">
        <ele>194</ele>
        <time>2018-07-07T08:56:52Z</time>
      </trkpt>
      <trkpt lat="45.9822" lon="4.69264">
        <ele>194</ele>
        <time>2018-07-07T08:56:53Z</time>
      </trkpt>
      <trkpt lat="45.98223" lon="4.69253">
        <ele>194</ele>
        <time>2018-07-07T08:56:55Z</time>
      </trkpt>
      <trkpt lat="45.98226" lon="4.69248">
        <ele>195</ele>
        <time>2018-07-07T08:56:56Z</time>
      </trkpt>
      <trkpt lat="45.98227" lon="4.69236">
        <ele>196</ele>
        <time>2018-07-07T08:56:58Z</time>
      </trkpt>
      <trkpt lat="45.98227" lon="4.69231">
        <ele>196</ele>
        <time>2018-07-07T08:56:59Z</time>
      </trkpt>
      <trkpt lat="45.98227" lon="4.6922">
        <ele>196</ele>
        <time>2018-07-07T08:57:01Z</time>
      </trkpt>
      <trkpt lat="45.98226" lon="4.69213">
        <ele>196</ele>
        <time>2018-07-07T08:57:02Z</time>
      </trkpt>
      <trkpt lat="45.98224" lon="4.69201">
        <ele>196</ele>
        <time>2018-07-07T08:57:04Z</time>
      </trkpt>
      <trkpt lat="45.98225" lon="4.69196">
        <ele>196</ele>
        <time>2018-07-07T08:57:05Z</time>
      </trkpt>
      <trkpt lat="45.98229" lon="4.69185">
        <ele>197</ele>
        <time>2018-07-07T08:57:07Z</time>
      </trkpt>
      <trkpt lat="45.9823" lon="4.69183">
        <ele>197</ele>
        <time>2018-07-07T08:57:08Z</time>
      </trkpt>
      <trkpt lat="45.98232" lon="4.69173">
        <ele>197</ele>
        <time>2018-07-07T08:57:11Z</time>
      </trkpt>
      <trkpt lat="45.98233" lon="4.6916">
        <ele>199</ele>
        <time>2018-07-07T08:57:12Z</time>
      </trkpt>
      <trkpt lat="45.98233" lon="4.69149">
        <ele>199</ele>
        <time>2018-07-07T08:57:15Z</time>
      </trkpt>
      <trkpt lat="45.98232" lon="4.69138">
        <ele>199</ele>
        <time>2018-07-07T08:57:16Z</time>
      </trkpt>
      <trkpt lat="45.98231" lon="4.69127">
        <ele>199</ele>
        <time>2018-07-07T08:57:18Z</time>
      </trkpt>
      <trkpt lat="45.98229" lon="4.69122">
        <ele>199</ele>
        <time>2018-07-07T08:57:19Z</time>
      </trkpt>
      <trkpt lat="45.98225" lon="4.69111">
        <ele>200</ele>
        <time>2018-07-07T08:57:21Z</time>
      </trkpt>
      <trkpt lat="45.98223" lon="4.69106">
        <ele>200</ele>
        <time>2018-07-07T08:57:22Z</time>
      </trkpt>
      <trkpt lat="45.98218" lon="4.69096">
        <ele>200</ele>
        <time>2018-07-07T08:57:24Z</time>
      </trkpt>
      <trkpt lat="45.98215" lon="4.69091">
        <ele>200</ele>
        <time>2018-07-07T08:57:25Z</time>
      </trkpt>
      <trkpt lat="45.98213" lon="4.69082">
        <ele>201</ele>
        <time>2018-07-07T08:57:27Z</time>
      </trkpt>
      <trkpt lat="45.98211" lon="4.69077">
        <ele>201</ele>
        <time>2018-07-07T08:57:28Z</time>
      </trkpt>
      <trkpt lat="45.98207" lon="4.69067">
        <ele>201</ele>
        <time>2018-07-07T08:57:30Z</time>
      </trkpt>
      <trkpt lat="45.98205" lon="4.69062">
        <ele>201</ele>
        <time>2018-07-07T08:57:31Z</time>
      </trkpt>
      <trkpt lat="45.982" lon="4.69051">
        <ele>201</ele>
        <time>2018-07-07T08:57:33Z</time>
      </trkpt>
      <trkpt lat="45.98198" lon="4.69046">
        <ele>201</ele>
        <time>2018-07-07T08:57:34Z</time>
      </trkpt>
      <trkpt lat="45.98194" lon="4.69035">
        <ele>201</ele>
        <time>2018-07-07T08:57:36Z</time>
      </trkpt>
      <trkpt lat="45.98192" lon="4.6903">
        <ele>201</ele>
        <time>2018-07-07T08:57:37Z</time>
      </trkpt>
      <trkpt lat="45.9819" lon="4.69018">
        <ele>201</ele>
        <time>2018-07-07T08:57:39Z</time>
      </trkpt>
      <trkpt lat="45.98189" lon="4.69013">
        <ele>201</ele>
        <time>2018-07-07T08:57:40Z</time>
      </trkpt>
      <trkpt lat="45.98188" lon="4.69002">
        <ele>201</ele>
        <time>2018-07-07T08:57:42Z</time>
      </trkpt>
      <trkpt lat="45.98188" lon="4.68996">
        <ele>201</ele>
        <time>2018-07-07T08:57:43Z</time>
      </trkpt>
      <trkpt lat="45.98188" lon="4.68989">
        <ele>201</ele>
        <time>2018-07-07T08:57:44Z</time>
      </trkpt>
      <trkpt lat="45.9819" lon="4.68983">
        <ele>202</ele>
        <time>2018-07-07T08:57:45Z</time>
      </trkpt>
      <trkpt lat="45.98191" lon="4.68971">
        <ele>202</ele>
        <time>2018-07-07T08:57:47Z</time>
      </trkpt>
      <trkpt lat="45.98192" lon="4.68965">
        <ele>202</ele>
        <time>2018-07-07T08:57:48Z</time>
      </trkpt>
      <trkpt lat="45.98191" lon="4.68953">
        <ele>202</ele>
        <time>2018-07-07T08:57:50Z</time>
      </trkpt>
      <trkpt lat="45.98191" lon="4.68948">
        <ele>202</ele>
        <time>2018-07-07T08:57:51Z</time>
      </trkpt>
      <trkpt lat="45.98192" lon="4.68941">
        <ele>202</ele>
        <time>2018-07-07T08:57:52Z</time>
      </trkpt>
      <trkpt lat="45.98192" lon="4.68934">
        <ele>202</ele>
        <time>2018-07-07T08:57:53Z</time>
      </trkpt>
      <trkpt lat="45.98192" lon="4.68927">
        <ele>202</ele>
        <time>2018-07-07T08:57:54Z</time>
      </trkpt>
      <trkpt lat="45.98193" lon="4.6892">
        <ele>202</ele>
        <time>2018-07-07T08:57:55Z</time>
      </trkpt>
      <trkpt lat="45.98194" lon="4.68914">
        <ele>202</ele>
        <time>2018-07-07T08:57:56Z</time>
      </trkpt>
      <trkpt lat="45.98194" lon="4.68907">
        <ele>202</ele>
        <time>2018-07-07T08:57:57Z</time>
      </trkpt>
      <trkpt lat="45.98194" lon="4.689">
        <ele>202</ele>
        <time>2018-07-07T08:57:58Z</time>
      </trkpt>
      <trkpt lat="45.98196" lon="4.68893">
        <ele>202</ele>
        <time>2018-07-07T08:57:59Z</time>
      </trkpt>
      <trkpt lat="45.98197" lon="4.68881">
        <ele>202</ele>
        <time>2018-07-07T08:58:01Z</time>
      </trkpt>
      <trkpt lat="45.98199" lon="4.68874">
        <ele>203</ele>
        <time>2018-07-07T08:58:02Z</time>
      </trkpt>
      <trkpt lat="45.982" lon="4.68868">
        <ele>203</ele>
        <time>2018-07-07T08:58:03Z</time>
      </trkpt>
      <trkpt lat="45.98198" lon="4.68857">
        <ele>203</ele>
        <time>2018-07-07T08:58:04Z</time>
      </trkpt>
      <trkpt lat="45.98198" lon="4.68844">
        <ele>202</ele>
        <time>2018-07-07T08:58:06Z</time>
      </trkpt>
      <trkpt lat="45.98199" lon="4.68838">
        <ele>202</ele>
        <time>2018-07-07T08:58:07Z</time>
      </trkpt>
      <trkpt lat="45.98198" lon="4.6883">
        <ele>203</ele>
        <time>2018-07-07T08:58:08Z</time>
      </trkpt>
      <trkpt lat="45.98198" lon="4.68823">
        <ele>203</ele>
        <time>2018-07-07T08:58:09Z</time>
      </trkpt>
      <trkpt lat="45.982" lon="4.68816">
        <ele>203</ele>
        <time>2018-07-07T08:58:10Z</time>
      </trkpt>
      <trkpt lat="45.98202" lon="4.6881">
        <ele>204</ele>
        <time>2018-07-07T08:58:11Z</time>
      </trkpt>
      <trkpt lat="45.98203" lon="4.68803">
        <ele>204</ele>
        <time>2018-07-07T08:58:12Z</time>
      </trkpt>
      <trkpt lat="45.98205" lon="4.68797">
        <ele>204</ele>
        <time>2018-07-07T08:58:13Z</time>
      </trkpt>
      <trkpt lat="45.98206" lon="4.6879">
        <ele>204</ele>
        <time>2018-07-07T08:58:14Z</time>
      </trkpt>
      <trkpt lat="45.98206" lon="4.68782">
        <ele>204</ele>
        <time>2018-07-07T08:58:15Z</time>
      </trkpt>
      <trkpt lat="45.98206" lon="4.68774">
        <ele>204</ele>
        <time>2018-07-07T08:58:16Z</time>
      </trkpt>
      <trkpt lat="45.98207" lon="4.68767">
        <ele>204</ele>
        <time>2018-07-07T08:58:17Z</time>
      </trkpt>
      <trkpt lat="45.98209" lon="4.6876">
        <ele>204</ele>
        <time>2018-07-07T08:58:18Z</time>
      </trkpt>
      <trkpt lat="45.9821" lon="4.68754">
        <ele>204</ele>
        <time>2018-07-07T08:58:19Z</time>
      </trkpt>
      <trkpt lat="45.98212" lon="4.68748">
        <ele>206</ele>
        <time>2018-07-07T08:58:20Z</time>
      </trkpt>
      <trkpt lat="45.98213" lon="4.6874">
        <ele>206</ele>
        <time>2018-07-07T08:58:21Z</time>
      </trkpt>
      <trkpt lat="45.98212" lon="4.68732">
        <ele>206</ele>
        <time>2018-07-07T08:58:22Z</time>
      </trkpt>
      <trkpt lat="45.98213" lon="4.68726">
        <ele>206</ele>
        <time>2018-07-07T08:58:23Z</time>
      </trkpt>
      <trkpt lat="45.98215" lon="4.6872">
        <ele>206</ele>
        <time>2018-07-07T08:58:24Z</time>
      </trkpt>
      <trkpt lat="45.98216" lon="4.68713">
        <ele>206</ele>
        <time>2018-07-07T08:58:25Z</time>
      </trkpt>
      <trkpt lat="45.98219" lon="4.68702">
        <ele>207</ele>
        <time>2018-07-07T08:58:27Z</time>
      </trkpt>
      <trkpt lat="45.9822" lon="4.68697">
        <ele>207</ele>
        <time>2018-07-07T08:58:28Z</time>
      </trkpt>
      <trkpt lat="45.98221" lon="4.68685">
        <ele>207</ele>
        <time>2018-07-07T08:58:30Z</time>
      </trkpt>
      <trkpt lat="45.98222" lon="4.68679">
        <ele>207</ele>
        <time>2018-07-07T08:58:31Z</time>
      </trkpt>
      <trkpt lat="45.98225" lon="4.68668">
        <ele>207</ele>
        <time>2018-07-07T08:58:34Z</time>
      </trkpt>
      <trkpt lat="45.98226" lon="4.68665">
        <ele>208</ele>
        <time>2018-07-07T08:58:35Z</time>
      </trkpt>
      <trkpt lat="45.98228" lon="4.68655">
        <ele>208</ele>
        <time>2018-07-07T08:58:38Z</time>
      </trkpt>
      <trkpt lat="45.98229" lon="4.68651">
        <ele>208</ele>
        <time>2018-07-07T08:58:39Z</time>
      </trkpt>
      <trkpt lat="45.98231" lon="4.68643">
        <ele>208</ele>
        <time>2018-07-07T08:58:41Z</time>
      </trkpt>
      <trkpt lat="45.98232" lon="4.68639">
        <ele>208</ele>
        <time>2018-07-07T08:58:42Z</time>
      </trkpt>
      <trkpt lat="45.98235" lon="4.68626">
        <ele>208</ele>
        <time>2018-07-07T08:58:45Z</time>
      </trkpt>
      <trkpt lat="45.98235" lon="4.68622">
        <ele>208</ele>
        <time>2018-07-07T08:58:46Z</time>
      </trkpt>
      <trkpt lat="45.98236" lon="4.68612">
        <ele>209</ele>
        <time>2018-07-07T08:58:49Z</time>
      </trkpt>
      <trkpt lat="45.98236" lon="4.68606">
        <ele>209</ele>
        <time>2018-07-07T08:58:50Z</time>
      </trkpt>
      <trkpt lat="45.98236" lon="4.68597">
        <ele>209</ele>
        <time>2018-07-07T08:58:52Z</time>
      </trkpt>
      <trkpt lat="45.98236" lon="4.68592">
        <ele>209</ele>
        <time>2018-07-07T08:58:53Z</time>
      </trkpt>
      <trkpt lat="45.98235" lon="4.68583">
        <ele>210</ele>
        <time>2018-07-07T08:58:55Z</time>
      </trkpt>
      <trkpt lat="45.98234" lon="4.68579">
        <ele>210</ele>
        <time>2018-07-07T08:58:56Z</time>
      </trkpt>
      <trkpt lat="45.98233" lon="4.68566">
        <ele>210</ele>
        <time>2018-07-07T08:58:59Z</time>
      </trkpt>
      <trkpt lat="45.98232" lon="4.68562">
        <ele>210</ele>
        <time>2018-07-07T08:59:00Z</time>
      </trkpt>
      <trkpt lat="45.9823" lon="4.68552">
        <ele>210</ele>
        <time>2018-07-07T08:59:02Z</time>
      </trkpt>
      <trkpt lat="45.98229" lon="4.68547">
        <ele>210</ele>
        <time>2018-07-07T08:59:03Z</time>
      </trkpt>
      <trkpt lat="45.98228" lon="4.68538">
        <ele>210</ele>
        <time>2018-07-07T08:59:05Z</time>
      </trkpt>
      <trkpt lat="45.98228" lon="4.68534">
        <ele>210</ele>
        <time>2018-07-07T08:59:06Z</time>
      </trkpt>
      <trkpt lat="45.98226" lon="4.68523">
        <ele>210</ele>
        <time>2018-07-07T08:59:09Z</time>
      </trkpt>
      <trkpt lat="45.98226" lon="4.68519">
        <ele>210</ele>
        <time>2018-07-07T08:59:10Z</time>
      </trkpt>
      <trkpt lat="45.98225" lon="4.68507">
        <ele>211</ele>
        <time>2018-07-07T08:59:13Z</time>
      </trkpt>
      <trkpt lat="45.98225" lon="4.68503">
        <ele>211</ele>
        <time>2018-07-07T08:59:14Z</time>
      </trkpt>
      <trkpt lat="45.98226" lon="4.68493">
        <ele>213</ele>
        <time>2018-07-07T08:59:17Z</time>
      </trkpt>
      <trkpt lat="45.98226" lon="4.6849">
        <ele>213</ele>
        <time>2018-07-07T08:59:18Z</time>
      </trkpt>
      <trkpt lat="45.98227" lon="4.6848">
        <ele>213</ele>
        <time>2018-07-07T08:59:21Z</time>
      </trkpt>
      <trkpt lat="45.98227" lon="4.68477">
        <ele>213</ele>
        <time>2018-07-07T08:59:22Z</time>
      </trkpt>
      <trkpt lat="45.98228" lon="4.68464">
        <ele>213</ele>
        <time>2018-07-07T08:59:26Z</time>
      </trkpt>
      <trkpt lat="45.98228" lon="4.68461">
        <ele>213</ele>
        <time>2018-07-07T08:59:27Z</time>
      </trkpt>
      <trkpt lat="45.98229" lon="4.6845">
        <ele>214</ele>
        <time>2018-07-07T08:59:30Z</time>
      </trkpt>
      <trkpt lat="45.98229" lon="4.68447">
        <ele>214</ele>
        <time>2018-07-07T08:59:31Z</time>
      </trkpt>
      <trkpt lat="45.98229" lon="4.68437">
        <ele>214</ele>
        <time>2018-07-07T08:59:34Z</time>
      </trkpt>
      <trkpt lat="45.98229" lon="4.68433">
        <ele>214</ele>
        <time>2018-07-07T08:59:35Z</time>
      </trkpt>
      <trkpt lat="45.98229" lon="4.68422">
        <ele>215</ele>
        <time>2018-07-07T08:59:39Z</time>
      </trkpt>
      <trkpt lat="45.98229" lon="4.6842">
        <ele>215</ele>
        <time>2018-07-07T08:59:40Z</time>
      </trkpt>
      <trkpt lat="45.98229" lon="4.68409">
        <ele>217</ele>
        <time>2018-07-07T08:59:43Z</time>
      </trkpt>
      <trkpt lat="45.98229" lon="4.68405">
        <ele>217</ele>
        <time>2018-07-07T08:59:44Z</time>
      </trkpt>
      <trkpt lat="45.9823" lon="4.68394">
        <ele>217</ele>
        <time>2018-07-07T08:59:47Z</time>
      </trkpt>
      <trkpt lat="45.9823" lon="4.6839">
        <ele>217</ele>
        <time>2018-07-07T08:59:48Z</time>
      </trkpt>
      <trkpt lat="45.98231" lon="4.68379">
        <ele>217</ele>
        <time>2018-07-07T08:59:51Z</time>
      </trkpt>
      <trkpt lat="45.98231" lon="4.68376">
        <ele>217</ele>
        <time>2018-07-07T08:59:52Z</time>
      </trkpt>
      <trkpt lat="45.98232" lon="4.68365">
        <ele>218</ele>
        <time>2018-07-07T08:59:55Z</time>
      </trkpt>
      <trkpt lat="45.98233" lon="4.68362">
        <ele>218</ele>
        <time>2018-07-07T08:59:56Z</time>
      </trkpt>
      <trkpt lat="45.98234" lon="4.68349">
        <ele>218</ele>
        <time>2018-07-07T09:00:00Z</time>
      </trkpt>
      <trkpt lat="45.98234" lon="4.68346">
        <ele>218</ele>
        <time>2018-07-07T09:00:01Z</time>
      </trkpt>
      <trkpt lat="45.98233" lon="4.68335">
        <ele>219</ele>
        <time>2018-07-07T09:00:04Z</time>
      </trkpt>
      <trkpt lat="45.98232" lon="4.68332">
        <ele>221</ele>
        <time>2018-07-07T09:00:05Z</time>
      </trkpt>
      <trkpt lat="45.9823" lon="4.68321">
        <ele>221</ele>
        <time>2018-07-07T09:00:08Z</time>
      </trkpt>
      <trkpt lat="45.98229" lon="4.68318">
        <ele>221</ele>
        <time>2018-07-07T09:00:09Z</time>
      </trkpt>
      <trkpt lat="45.98228" lon="4.68308">
        <ele>221</ele>
        <time>2018-07-07T09:00:12Z</time>
      </trkpt>
      <trkpt lat="45.98228" lon="4.68304">
        <ele>221</ele>
        <time>2018-07-07T09:00:13Z</time>
      </trkpt>
      <trkpt lat="45.98228" lon="4.68293">
        <ele>222</ele>
        <time>2018-07-07T09:00:16Z</time>
      </trkpt>
      <trkpt lat="45.98228" lon="4.68289">
        <ele>222</ele>
        <time>2018-07-07T09:00:17Z</time>
      </trkpt>
      <trkpt lat="45.98228" lon="4.68279">
        <ele>222</ele>
        <time>2018-07-07T09:00:20Z</time>
      </trkpt>
      <trkpt lat="45.98227" lon="4.68276">
        <ele>222</ele>
        <time>2018-07-07T09:00:21Z</time>
      </trkpt>
      <trkpt lat="45.98225" lon="4.68265">
        <ele>223</ele>
        <time>2018-07-07T09:00:24Z</time>
      </trkpt>
      <trkpt lat="45.98225" lon="4.68262">
        <ele>223</ele>
        <time>2018-07-07T09:00:25Z</time>
      </trkpt>
      <trkpt lat="45.98224" lon="4.68251">
        <ele>223</ele>
        <time>2018-07-07T09:00:28Z</time>
      </trkpt>
      <trkpt lat="45.98223" lon="4.68248">
        <ele>225</ele>
        <time>2018-07-07T09:00:29Z</time>
      </trkpt>
      <trkpt lat="45.98223" lon="4.68238">
        <ele>225</ele>
        <time>2018-07-07T09:00:32Z</time>
      </trkpt>
      <trkpt lat="45.98223" lon="4.68235">
        <ele>225</ele>
        <time>2018-07-07T09:00:33Z</time>
      </trkpt>
      <trkpt lat="45.98223" lon="4.68223">
        <ele>226</ele>
        <time>2018-07-07T09:00:36Z</time>
      </trkpt>
      <trkpt lat="45.98223" lon="4.68219">
        <ele>226</ele>
        <time>2018-07-07T09:00:37Z</time>
      </trkpt>
      <trkpt lat="45.98224" lon="4.68207">
        <ele>226</ele>
        <time>2018-07-07T09:00:40Z</time>
      </trkpt>
      <trkpt lat="45.98224" lon="4.68204">
        <ele>226</ele>
        <time>2018-07-07T09:00:41Z</time>
      </trkpt>
      <trkpt lat="45.98225" lon="4.68193">
        <ele>227</ele>
        <time>2018-07-07T09:00:44Z</time>
      </trkpt>
      <trkpt lat="45.98225" lon="4.68189">
        <ele>227</ele>
        <time>2018-07-07T09:00:45Z</time>
      </trkpt>
      <trkpt lat="45.98224" lon="4.68178">
        <ele>227</ele>
        <time>2018-07-07T09:00:48Z</time>
      </trkpt>
      <trkpt lat="45.98223" lon="4.68174">
        <ele>227</ele>
        <time>2018-07-07T09:00:49Z</time>
      </trkpt>
      <trkpt lat="45.98222" lon="4.68161">
        <ele>228</ele>
        <time>2018-07-07T09:00:52Z</time>
      </trkpt>
      <trkpt lat="45.98221" lon="4.68157">
        <ele>228</ele>
        <time>2018-07-07T09:00:53Z</time>
      </trkpt>
      <trkpt lat="45.9822" lon="4.68142">
        <ele>228</ele>
        <time>2018-07-07T09:00:54Z</time>
      </trkpt>
      <trkpt lat="45.98219" lon="4.68129">
        <ele>228</ele>
        <time>2018-07-07T09:00:58Z</time>
      </trkpt>
      <trkpt lat="45.98218" lon="4.68125">
        <ele>228</ele>
        <time>2018-07-07T09:00:59Z</time>
      </trkpt>
      <trkpt lat="45.98219" lon="4.68113">
        <ele>228</ele>
        <time>2018-07-07T09:01:02Z</time>
      </trkpt>
      <trkpt lat="45.9822" lon="4.68109">
        <ele>228</ele>
        <time>2018-07-07T09:01:03Z</time>
      </trkpt>
      <trkpt lat="45.9822" lon="4.68099">
        <ele>228</ele>
        <time>2018-07-07T09:01:05Z</time>
      </trkpt>
      <trkpt lat="45.98219" lon="4.68083">
        <ele>228</ele>
        <time>2018-07-07T09:01:06Z</time>
      </trkpt>
      <trkpt lat="45.98219" lon="4.68077">
        <ele>228</ele>
        <time>2018-07-07T09:01:08Z</time>
      </trkpt>
      <trkpt lat="45.98218" lon="4.68067">
        <ele>228</ele>
        <time>2018-07-07T09:01:09Z</time>
      </trkpt>
      <trkpt lat="45.98218" lon="4.68055">
        <ele>228</ele>
        <time>2018-07-07T09:01:12Z</time>
      </trkpt>
      <trkpt lat="45.98218" lon="4.68051">
        <ele>228</ele>
        <time>2018-07-07T09:01:13Z</time>
      </trkpt>
      <trkpt lat="45.98218" lon="4.68048">
        <ele>228</ele>
        <time>2018-07-07T09:01:14Z</time>
      </trkpt>
      <trkpt lat="45.98219" lon="4.68036">
        <ele>228</ele>
        <time>2018-07-07T09:01:15Z</time>
      </trkpt>
      <trkpt lat="45.98221" lon="4.68026">
        <ele>228</ele>
        <time>2018-07-07T09:01:17Z</time>
      </trkpt>
      <trkpt lat="45.98221" lon="4.68023">
        <ele>228</ele>
        <time>2018-07-07T09:01:18Z</time>
      </trkpt>
      <trkpt lat="45.98221" lon="4.68013">
        <ele>228</ele>
        <time>2018-07-07T09:01:21Z</time>
      </trkpt>
      <trkpt lat="45.98221" lon="4.68009">
        <ele>228</ele>
        <time>2018-07-07T09:01:22Z</time>
      </trkpt>
      <trkpt lat="45.98221" lon="4.68">
        <ele>228</ele>
        <time>2018-07-07T09:01:24Z</time>
      </trkpt>
      <trkpt lat="45.9822" lon="4.67994">
        <ele>229</ele>
        <time>2018-07-07T09:01:25Z</time>
      </trkpt>
      <trkpt lat="45.9822" lon="4.67985">
        <ele>229</ele>
        <time>2018-07-07T09:01:27Z</time>
      </trkpt>
      <trkpt lat="45.98219" lon="4.67981">
        <ele>229</ele>
        <time>2018-07-07T09:01:28Z</time>
      </trkpt>
      <trkpt lat="45.98218" lon="4.67968">
        <ele>229</ele>
        <time>2018-07-07T09:01:31Z</time>
      </trkpt>
      <trkpt lat="45.98218" lon="4.67963">
        <ele>229</ele>
        <time>2018-07-07T09:01:32Z</time>
      </trkpt>
      <trkpt lat="45.98218" lon="4.67959">
        <ele>229</ele>
        <time>2018-07-07T09:01:33Z</time>
      </trkpt>
      <trkpt lat="45.98216" lon="4.67944">
        <ele>229</ele>
        <time>2018-07-07T09:01:34Z</time>
      </trkpt>
      <trkpt lat="45.98215" lon="4.67935">
        <ele>229</ele>
        <time>2018-07-07T09:01:37Z</time>
      </trkpt>
      <trkpt lat="45.98215" lon="4.67931">
        <ele>229</ele>
        <time>2018-07-07T09:01:38Z</time>
      </trkpt>
      <trkpt lat="45.98215" lon="4.67919">
        <ele>230</ele>
        <time>2018-07-07T09:01:41Z</time>
      </trkpt>
      <trkpt lat="45.98215" lon="4.67914">
        <ele>232</ele>
        <time>2018-07-07T09:01:42Z</time>
      </trkpt>
      <trkpt lat="45.98214" lon="4.67906">
        <ele>232</ele>
        <time>2018-07-07T09:01:44Z</time>
      </trkpt>
      <trkpt lat="45.98214" lon="4.67901">
        <ele>232</ele>
        <time>2018-07-07T09:01:45Z</time>
      </trkpt>
      <trkpt lat="45.98212" lon="4.67889">
        <ele>232</ele>
        <time>2018-07-07T09:01:48Z</time>
      </trkpt>
      <trkpt lat="45.98211" lon="4.67884">
        <ele>232</ele>
        <time>2018-07-07T09:01:49Z</time>
      </trkpt>
      <trkpt lat="45.98209" lon="4.67872">
        <ele>233</ele>
        <time>2018-07-07T09:01:52Z</time>
      </trkpt>
      <trkpt lat="45.98208" lon="4.67868">
        <ele>233</ele>
        <time>2018-07-07T09:01:53Z</time>
      </trkpt>
      <trkpt lat="45.98207" lon="4.67857">
        <ele>233</ele>
        <time>2018-07-07T09:01:56Z</time>
      </trkpt>
      <trkpt lat="45.98207" lon="4.67853">
        <ele>233</ele>
        <time>2018-07-07T09:01:57Z</time>
      </trkpt>
      <trkpt lat="45.98206" lon="4.67842">
        <ele>233</ele>
        <time>2018-07-07T09:02:00Z</time>
      </trkpt>
      <trkpt lat="45.98207" lon="4.67839">
        <ele>233</ele>
        <time>2018-07-07T09:02:01Z</time>
      </trkpt>
      <trkpt lat="45.98209" lon="4.67827">
        <ele>237</ele>
        <time>2018-07-07T09:02:05Z</time>
      </trkpt>
      <trkpt lat="45.98209" lon="4.67824">
        <ele>237</ele>
        <time>2018-07-07T09:02:06Z</time>
      </trkpt>
      <trkpt lat="45.98212" lon="4.67814">
        <ele>237</ele>
        <time>2018-07-07T09:02:10Z</time>
      </trkpt>
      <trkpt lat="45.98213" lon="4.67811">
        <ele>237</ele>
        <time>2018-07-07T09:02:11Z</time>
      </trkpt>
      <trkpt lat="45.98216" lon="4.678">
        <ele>238</ele>
        <time>2018-07-07T09:02:15Z</time>
      </trkpt>
      <trkpt lat="45.98217" lon="4.67797">
        <ele>238</ele>
        <time>2018-07-07T09:02:16Z</time>
      </trkpt>
      <trkpt lat="45.9822" lon="4.67787">
        <ele>238</ele>
        <time>2018-07-07T09:02:20Z</time>
      </trkpt>
      <trkpt lat="45.98221" lon="4.67784">
        <ele>238</ele>
        <time>2018-07-07T09:02:21Z</time>
      </trkpt>
      <trkpt lat="45.98223" lon="4.67775">
        <ele>239</ele>
        <time>2018-07-07T09:02:24Z</time>
      </trkpt>
      <trkpt lat="45.98224" lon="4.67772">
        <ele>239</ele>
        <time>2018-07-07T09:02:25Z</time>
      </trkpt>
      <trkpt lat="45.98226" lon="4.67763">
        <ele>239</ele>
        <time>2018-07-07T09:02:28Z</time>
      </trkpt>
      <trkpt lat="45.98227" lon="4.6776">
        <ele>239</ele>
        <time>2018-07-07T09:02:29Z</time>
      </trkpt>
      <trkpt lat="45.98229" lon="4.67747">
        <ele>242</ele>
        <time>2018-07-07T09:02:33Z</time>
      </trkpt>
      <trkpt lat="45.9823" lon="4.67744">
        <ele>242</ele>
        <time>2018-07-07T09:02:34Z</time>
      </trkpt>
      <trkpt lat="45.98231" lon="4.67734">
        <ele>242</ele>
        <time>2018-07-07T09:02:37Z</time>
      </trkpt>
      <trkpt lat="45.98231" lon="4.6773">
        <ele>242</ele>
        <time>2018-07-07T09:02:38Z</time>
      </trkpt>
      <trkpt lat="45.98231" lon="4.67718">
        <ele>243</ele>
        <time>2018-07-07T09:02:42Z</time>
      </trkpt>
      <trkpt lat="45.9823" lon="4.67714">
        <ele>243</ele>
        <time>2018-07-07T09:02:43Z</time>
      </trkpt>
      <trkpt lat="45.98229" lon="4.67703">
        <ele>243</ele>
        <time>2018-07-07T09:02:46Z</time>
      </trkpt>
      <trkpt lat="45.98228" lon="4.677">
        <ele>243</ele>
        <time>2018-07-07T09:02:47Z</time>
      </trkpt>
      <trkpt lat="45.98226" lon="4.67687">
        <ele>244</ele>
        <time>2018-07-07T09:02:51Z</time>
      </trkpt>
      <trkpt lat="45.98226" lon="4.67685">
        <ele>244</ele>
        <time>2018-07-07T09:02:52Z</time>
      </trkpt>
      <trkpt lat="45.98225" lon="4.67675">
        <ele>244</ele>
        <time>2018-07-07T09:02:55Z</time>
      </trkpt>
      <trkpt lat="45.98224" lon="4.67672">
        <ele>244</ele>
        <time>2018-07-07T09:02:56Z</time>
      </trkpt>
      <trkpt lat="45.98224" lon="4.67659">
        <ele>246</ele>
        <time>2018-07-07T09:03:00Z</time>
      </trkpt>
      <trkpt lat="45.98224" lon="4.67656">
        <ele>246</ele>
        <time>2018-07-07T09:03:01Z</time>
      </trkpt>
      <trkpt lat="45.98224" lon="4.67644">
        <ele>246</ele>
        <time>2018-07-07T09:03:05Z</time>
      </trkpt>
      <trkpt lat="45.98224" lon="4.67641">
        <ele>246</ele>
        <time>2018-07-07T09:03:06Z</time>
      </trkpt>
      <trkpt lat="45.98222" lon="4.67628">
        <ele>246</ele>
        <time>2018-07-07T09:03:10Z</time>
      </trkpt>
      <trkpt lat="45.98221" lon="4.67625">
        <ele>246</ele>
        <time>2018-07-07T09:03:11Z</time>
      </trkpt>
      <trkpt lat="45.98219" lon="4.67614">
        <ele>246</ele>
        <time>2018-07-07T09:03:14Z</time>
      </trkpt>
      <trkpt lat="45.98218" lon="4.67611">
        <ele>246</ele>
        <time>2018-07-07T09:03:15Z</time>
      </trkpt>
      <trkpt lat="45.98216" lon="4.676">
        <ele>246</ele>
        <time>2018-07-07T09:03:18Z</time>
      </trkpt>
      <trkpt lat="45.98216" lon="4.67596">
        <ele>246</ele>
        <time>2018-07-07T09:03:19Z</time>
      </trkpt>
      <trkpt lat="45.98215" lon="4.67585">
        <ele>247</ele>
        <time>2018-07-07T09:03:22Z</time>
      </trkpt>
      <trkpt lat="45.98214" lon="4.6758">
        <ele>247</ele>
        <time>2018-07-07T09:03:23Z</time>
      </trkpt>
      <trkpt lat="45.98213" lon="4.67568">
        <ele>247</ele>
        <time>2018-07-07T09:03:26Z</time>
      </trkpt>
      <trkpt lat="45.98212" lon="4.67563">
        <ele>247</ele>
        <time>2018-07-07T09:03:27Z</time>
      </trkpt>
      <trkpt lat="45.98211" lon="4.67555">
        <ele>247</ele>
        <time>2018-07-07T09:03:29Z</time>
      </trkpt>
      <trkpt lat="45.9821" lon="4.67551">
        <ele>247</ele>
        <time>2018-07-07T09:03:30Z</time>
      </trkpt>
      <trkpt lat="45.98207" lon="4.67542">
        <ele>247</ele>
        <time>2018-07-07T09:03:32Z</time>
      </trkpt>
      <trkpt lat="45.98206" lon="4.67538">
        <ele>247</ele>
        <time>2018-07-07T09:03:33Z</time>
      </trkpt>
      <trkpt lat="45.98204" lon="4.6753">
        <ele>247</ele>
        <time>2018-07-07T09:03:35Z</time>
      </trkpt>
      <trkpt lat="45.98203" lon="4.67526">
        <ele>247</ele>
        <time>2018-07-07T09:03:36Z</time>
      </trkpt>
      <trkpt lat="45.98201" lon="4.67518">
        <ele>247</ele>
        <time>2018-07-07T09:03:38Z</time>
      </trkpt>
      <trkpt lat="45.982" lon="4.67513">
        <ele>247</ele>
        <time>2018-07-07T09:03:39Z</time>
      </trkpt>
      <trkpt lat="45.98198" lon="4.67504">
        <ele>247</ele>
        <time>2018-07-07T09:03:41Z</time>
      </trkpt>
      <trkpt lat="45.98197" lon="4.6749">
        <ele>247</ele>
        <time>2018-07-07T09:03:42Z</time>
      </trkpt>
      <trkpt lat="45.98197" lon="4.6748">
        <ele>247</ele>
        <time>2018-07-07T09:03:45Z</time>
      </trkpt>
      <trkpt lat="45.98197" lon="4.6747">
        <ele>247</ele>
        <time>2018-07-07T09:03:46Z</time>
      </trkpt>
      <trkpt lat="45.98196" lon="4.67461">
        <ele>247</ele>
        <time>2018-07-07T09:03:49Z</time>
      </trkpt>
      <trkpt lat="45.98196" lon="4.67457">
        <ele>247</ele>
        <time>2018-07-07T09:03:50Z</time>
      </trkpt>
      <trkpt lat="45.98195" lon="4.67444">
        <ele>247</ele>
        <time>2018-07-07T09:03:53Z</time>
      </trkpt>
      <trkpt lat="45.98195" lon="4.67439">
        <ele>247</ele>
        <time>2018-07-07T09:03:54Z</time>
      </trkpt>
      <trkpt lat="45.98195" lon="4.67435">
        <ele>248</ele>
        <time>2018-07-07T09:03:55Z</time>
      </trkpt>
      <trkpt lat="45.98194" lon="4.67422">
        <ele>248</ele>
        <time>2018-07-07T09:03:56Z</time>
      </trkpt>
      <trkpt lat="45.98194" lon="4.67409">
        <ele>248</ele>
        <time>2018-07-07T09:04:00Z</time>
      </trkpt>
      <trkpt lat="45.98193" lon="4.67405">
        <ele>248</ele>
        <time>2018-07-07T09:04:01Z</time>
      </trkpt>
      <trkpt lat="45.98193" lon="4.67394">
        <ele>248</ele>
        <time>2018-07-07T09:04:04Z</time>
      </trkpt>
      <trkpt lat="45.98193" lon="4.6739">
        <ele>248</ele>
        <time>2018-07-07T09:04:05Z</time>
      </trkpt>
      <trkpt lat="45.98194" lon="4.67381">
        <ele>248</ele>
        <time>2018-07-07T09:04:07Z</time>
      </trkpt>
      <trkpt lat="45.98195" lon="4.67366">
        <ele>248</ele>
        <time>2018-07-07T09:04:08Z</time>
      </trkpt>
      <trkpt lat="45.98196" lon="4.67358">
        <ele>248</ele>
        <time>2018-07-07T09:04:10Z</time>
      </trkpt>
      <trkpt lat="45.98196" lon="4.6735">
        <ele>248</ele>
        <time>2018-07-07T09:04:11Z</time>
      </trkpt>
      <trkpt lat="45.98196" lon="4.6734">
        <ele>248</ele>
        <time>2018-07-07T09:04:13Z</time>
      </trkpt>
      <trkpt lat="45.98196" lon="4.67334">
        <ele>248</ele>
        <time>2018-07-07T09:04:14Z</time>
      </trkpt>
      <trkpt lat="45.98195" lon="4.67323">
        <ele>249</ele>
        <time>2018-07-07T09:04:17Z</time>
      </trkpt>
      <trkpt lat="45.98195" lon="4.6732">
        <ele>249</ele>
        <time>2018-07-07T09:04:18Z</time>
      </trkpt>
      <trkpt lat="45.98196" lon="4.67308">
        <ele>249</ele>
        <time>2018-07-07T09:04:22Z</time>
      </trkpt>
      <trkpt lat="45.98197" lon="4.67302">
        <ele>249</ele>
        <time>2018-07-07T09:04:23Z</time>
      </trkpt>
      <trkpt lat="45.98197" lon="4.67296">
        <ele>249</ele>
        <time>2018-07-07T09:04:24Z</time>
      </trkpt>
      <trkpt lat="45.98197" lon="4.67284">
        <ele>249</ele>
        <time>2018-07-07T09:04:25Z</time>
      </trkpt>
      <trkpt lat="45.98195" lon="4.67274">
        <ele>250</ele>
        <time>2018-07-07T09:04:27Z</time>
      </trkpt>
      <trkpt lat="45.98195" lon="4.67271">
        <ele>250</ele>
        <time>2018-07-07T09:04:28Z</time>
      </trkpt>
      <trkpt lat="45.98194" lon="4.67261">
        <ele>250</ele>
        <time>2018-07-07T09:04:30Z</time>
      </trkpt>
      <trkpt lat="45.98194" lon="4.67258">
        <ele>250</ele>
        <time>2018-07-07T09:04:31Z</time>
      </trkpt>
      <trkpt lat="45.98193" lon="4.6725">
        <ele>250</ele>
        <time>2018-07-07T09:04:32Z</time>
      </trkpt>
      <trkpt lat="45.98192" lon="4.67244">
        <ele>250</ele>
        <time>2018-07-07T09:04:33Z</time>
      </trkpt>
      <trkpt lat="45.98189" lon="4.67232">
        <ele>250</ele>
        <time>2018-07-07T09:04:35Z</time>
      </trkpt>
      <trkpt lat="45.98188" lon="4.67227">
        <ele>250</ele>
        <time>2018-07-07T09:04:36Z</time>
      </trkpt>
      <trkpt lat="45.98185" lon="4.67216">
        <ele>250</ele>
        <time>2018-07-07T09:04:38Z</time>
      </trkpt>
      <trkpt lat="45.98184" lon="4.67211">
        <ele>250</ele>
        <time>2018-07-07T09:04:39Z</time>
      </trkpt>
      <trkpt lat="45.98183" lon="4.67206">
        <ele>250</ele>
        <time>2018-07-07T09:04:41Z</time>
      </trkpt>
      <trkpt lat="45.98183" lon="4.67197">
        <ele>250</ele>
        <time>2018-07-07T09:04:42Z</time>
      </trkpt>
      <trkpt lat="45.9818" lon="4.67187">
        <ele>250</ele>
        <time>2018-07-07T09:04:44Z</time>
      </trkpt>
      <trkpt lat="45.98178" lon="4.67182">
        <ele>250</ele>
        <time>2018-07-07T09:04:45Z</time>
      </trkpt>
      <trkpt lat="45.98174" lon="4.67176">
        <ele>251</ele>
        <time>2018-07-07T09:04:46Z</time>
      </trkpt>
      <trkpt lat="45.98174" lon="4.67169">
        <ele>251</ele>
        <time>2018-07-07T09:04:47Z</time>
      </trkpt>
      <trkpt lat="45.9817" lon="4.67158">
        <ele>250</ele>
        <time>2018-07-07T09:04:49Z</time>
      </trkpt>
      <trkpt lat="45.98169" lon="4.67153">
        <ele>250</ele>
        <time>2018-07-07T09:04:50Z</time>
      </trkpt>
      <trkpt lat="45.98166" lon="4.67142">
        <ele>251</ele>
        <time>2018-07-07T09:04:52Z</time>
      </trkpt>
      <trkpt lat="45.98165" lon="4.67137">
        <ele>251</ele>
        <time>2018-07-07T09:04:53Z</time>
      </trkpt>
      <trkpt lat="45.98162" lon="4.67126">
        <ele>251</ele>
        <time>2018-07-07T09:04:55Z</time>
      </trkpt>
      <trkpt lat="45.98161" lon="4.67121">
        <ele>251</ele>
        <time>2018-07-07T09:04:56Z</time>
      </trkpt>
      <trkpt lat="45.98156" lon="4.67114">
        <ele>251</ele>
        <time>2018-07-07T09:04:57Z</time>
      </trkpt>
      <trkpt lat="45.98154" lon="4.67108">
        <ele>251</ele>
        <time>2018-07-07T09:04:58Z</time>
      </trkpt>
      <trkpt lat="45.98152" lon="4.67101">
        <ele>251</ele>
        <time>2018-07-07T09:04:59Z</time>
      </trkpt>
      <trkpt lat="45.98151" lon="4.67094">
        <ele>251</ele>
        <time>2018-07-07T09:05:00Z</time>
      </trkpt>
      <trkpt lat="45.98148" lon="4.67088">
        <ele>251</ele>
        <time>2018-07-07T09:05:01Z</time>
      </trkpt>
      <trkpt lat="45.98146" lon="4.67082">
        <ele>251</ele>
        <time>2018-07-07T09:05:02Z</time>
      </trkpt>
      <trkpt lat="45.98143" lon="4.6707">
        <ele>251</ele>
        <time>2018-07-07T09:05:04Z</time>
      </trkpt>
      <trkpt lat="45.98145" lon="4.67064">
        <ele>251</ele>
        <time>2018-07-07T09:05:05Z</time>
      </trkpt>
      <trkpt lat="45.98148" lon="4.67053">
        <ele>251</ele>
        <time>2018-07-07T09:05:07Z</time>
      </trkpt>
      <trkpt lat="45.98143" lon="4.67046">
        <ele>251</ele>
        <time>2018-07-07T09:05:08Z</time>
      </trkpt>
      <trkpt lat="45.9814" lon="4.67034">
        <ele>251</ele>
        <time>2018-07-07T09:05:10Z</time>
      </trkpt>
      <trkpt lat="45.98139" lon="4.67028">
        <ele>251</ele>
        <time>2018-07-07T09:05:11Z</time>
      </trkpt>
      <trkpt lat="45.98138" lon="4.6702">
        <ele>251</ele>
        <time>2018-07-07T09:05:12Z</time>
      </trkpt>
      <trkpt lat="45.98138" lon="4.67013">
        <ele>251</ele>
        <time>2018-07-07T09:05:13Z</time>
      </trkpt>
      <trkpt lat="45.98137" lon="4.67005">
        <ele>251</ele>
        <time>2018-07-07T09:05:14Z</time>
      </trkpt>
      <trkpt lat="45.98138" lon="4.66998">
        <ele>253</ele>
        <time>2018-07-07T09:05:15Z</time>
      </trkpt>
      <trkpt lat="45.98138" lon="4.66986">
        <ele>253</ele>
        <time>2018-07-07T09:05:17Z</time>
      </trkpt>
      <trkpt lat="45.98139" lon="4.6698">
        <ele>253</ele>
        <time>2018-07-07T09:05:18Z</time>
      </trkpt>
      <trkpt lat="45.98138" lon="4.66969">
        <ele>253</ele>
        <time>2018-07-07T09:05:20Z</time>
      </trkpt>
      <trkpt lat="45.9814" lon="4.66963">
        <ele>253</ele>
        <time>2018-07-07T09:05:21Z</time>
      </trkpt>
      <trkpt lat="45.9814" lon="4.66951">
        <ele>253</ele>
        <time>2018-07-07T09:05:23Z</time>
      </trkpt>
      <trkpt lat="45.98139" lon="4.66945">
        <ele>253</ele>
        <time>2018-07-07T09:05:24Z</time>
      </trkpt>
      <trkpt lat="45.98135" lon="4.66934">
        <ele>253</ele>
        <time>2018-07-07T09:05:26Z</time>
      </trkpt>
      <trkpt lat="45.98135" lon="4.66928">
        <ele>253</ele>
        <time>2018-07-07T09:05:27Z</time>
      </trkpt>
      <trkpt lat="45.98136" lon="4.66917">
        <ele>253</ele>
        <time>2018-07-07T09:05:29Z</time>
      </trkpt>
      <trkpt lat="45.98136" lon="4.66911">
        <ele>254</ele>
        <time>2018-07-07T09:05:30Z</time>
      </trkpt>
      <trkpt lat="45.98138" lon="4.669">
        <ele>254</ele>
        <time>2018-07-07T09:05:32Z</time>
      </trkpt>
      <trkpt lat="45.98137" lon="4.66894">
        <ele>254</ele>
        <time>2018-07-07T09:05:33Z</time>
      </trkpt>
      <trkpt lat="45.98135" lon="4.66882">
        <ele>254</ele>
        <time>2018-07-07T09:05:35Z</time>
      </trkpt>
      <trkpt lat="45.98135" lon="4.66877">
        <ele>254</ele>
        <time>2018-07-07T09:05:36Z</time>
      </trkpt>
      <trkpt lat="45.98132" lon="4.66866">
        <ele>254</ele>
        <time>2018-07-07T09:05:38Z</time>
      </trkpt>
      <trkpt lat="45.9813" lon="4.6686">
        <ele>254</ele>
        <time>2018-07-07T09:05:39Z</time>
      </trkpt>
      <trkpt lat="45.98128" lon="4.66848">
        <ele>254</ele>
        <time>2018-07-07T09:05:41Z</time>
      </trkpt>
      <trkpt lat="45.98128" lon="4.66842">
        <ele>254</ele>
        <time>2018-07-07T09:05:42Z</time>
      </trkpt>
      <trkpt lat="45.98125" lon="4.66831">
        <ele>254</ele>
        <time>2018-07-07T09:05:44Z</time>
      </trkpt>
      <trkpt lat="45.98125" lon="4.66825">
        <ele>254</ele>
        <time>2018-07-07T09:05:45Z</time>
      </trkpt>
      <trkpt lat="45.98124" lon="4.66814">
        <ele>254</ele>
        <time>2018-07-07T09:05:47Z</time>
      </trkpt>
      <trkpt lat="45.98123" lon="4.66808">
        <ele>254</ele>
        <time>2018-07-07T09:05:48Z</time>
      </trkpt>
      <trkpt lat="45.98121" lon="4.66796">
        <ele>255</ele>
        <time>2018-07-07T09:05:50Z</time>
      </trkpt>
      <trkpt lat="45.98121" lon="4.6679">
        <ele>255</ele>
        <time>2018-07-07T09:05:51Z</time>
      </trkpt>
      <trkpt lat="45.9812" lon="4.66784">
        <ele>255</ele>
        <time>2018-07-07T09:05:52Z</time>
      </trkpt>
      <trkpt lat="45.98119" lon="4.66777">
        <ele>255</ele>
        <time>2018-07-07T09:05:53Z</time>
      </trkpt>
      <trkpt lat="45.98118" lon="4.66771">
        <ele>255</ele>
        <time>2018-07-07T09:05:54Z</time>
      </trkpt>
      <trkpt lat="45.98116" lon="4.66764">
        <ele>255</ele>
        <time>2018-07-07T09:05:55Z</time>
      </trkpt>
      <trkpt lat="45.98114" lon="4.66752">
        <ele>255</ele>
        <time>2018-07-07T09:05:57Z</time>
      </trkpt>
      <trkpt lat="45.98113" lon="4.66746">
        <ele>256</ele>
        <time>2018-07-07T09:05:58Z</time>
      </trkpt>
      <trkpt lat="45.9811" lon="4.66734">
        <ele>257</ele>
        <time>2018-07-07T09:06:00Z</time>
      </trkpt>
      <trkpt lat="45.98109" lon="4.66728">
        <ele>257</ele>
        <time>2018-07-07T09:06:01Z</time>
      </trkpt>
      <trkpt lat="45.98107" lon="4.66716">
        <ele>257</ele>
        <time>2018-07-07T09:06:03Z</time>
      </trkpt>
      <trkpt lat="45.98106" lon="4.6671">
        <ele>257</ele>
        <time>2018-07-07T09:06:04Z</time>
      </trkpt>
      <trkpt lat="45.98104" lon="4.66698">
        <ele>257</ele>
        <time>2018-07-07T09:06:06Z</time>
      </trkpt>
      <trkpt lat="45.98102" lon="4.66693">
        <ele>257</ele>
        <time>2018-07-07T09:06:07Z</time>
      </trkpt>
      <trkpt lat="45.981" lon="4.66681">
        <ele>258</ele>
        <time>2018-07-07T09:06:09Z</time>
      </trkpt>
      <trkpt lat="45.98099" lon="4.66676">
        <ele>258</ele>
        <time>2018-07-07T09:06:10Z</time>
      </trkpt>
      <trkpt lat="45.98096" lon="4.66665">
        <ele>259</ele>
        <time>2018-07-07T09:06:12Z</time>
      </trkpt>
      <trkpt lat="45.98095" lon="4.6666">
        <ele>259</ele>
        <time>2018-07-07T09:06:13Z</time>
      </trkpt>
      <trkpt lat="45.98093" lon="4.6665">
        <ele>259</ele>
        <time>2018-07-07T09:06:15Z</time>
      </trkpt>
      <trkpt lat="45.98092" lon="4.66647">
        <ele>259</ele>
        <time>2018-07-07T09:06:16Z</time>
      </trkpt>
      <trkpt lat="45.9809" lon="4.66635">
        <ele>259</ele>
        <time>2018-07-07T09:06:18Z</time>
      </trkpt>
      <trkpt lat="45.98089" lon="4.6663">
        <ele>259</ele>
        <time>2018-07-07T09:06:19Z</time>
      </trkpt>
      <trkpt lat="45.98086" lon="4.6662">
        <ele>260</ele>
        <time>2018-07-07T09:06:21Z</time>
      </trkpt>
      <trkpt lat="45.98085" lon="4.66615">
        <ele>260</ele>
        <time>2018-07-07T09:06:22Z</time>
      </trkpt>
      <trkpt lat="45.98083" lon="4.66606">
        <ele>262</ele>
        <time>2018-07-07T09:06:25Z</time>
      </trkpt>
      <trkpt lat="45.98082" lon="4.66602">
        <ele>262</ele>
        <time>2018-07-07T09:06:26Z</time>
      </trkpt>
      <trkpt lat="45.98081" lon="4.66598">
        <ele>262</ele>
        <time>2018-07-07T09:06:27Z</time>
      </trkpt>
      <trkpt lat="45.98079" lon="4.66587">
        <ele>262</ele>
        <time>2018-07-07T09:06:28Z</time>
      </trkpt>
      <trkpt lat="45.98077" lon="4.66574">
        <ele>263</ele>
        <time>2018-07-07T09:06:32Z</time>
      </trkpt>
      <trkpt lat="45.98076" lon="4.66571">
        <ele>263</ele>
        <time>2018-07-07T09:06:33Z</time>
      </trkpt>
      <trkpt lat="45.98076" lon="4.66562">
        <ele>263</ele>
        <time>2018-07-07T09:06:35Z</time>
      </trkpt>
      <trkpt lat="45.98075" lon="4.6655">
        <ele>264</ele>
        <time>2018-07-07T09:06:36Z</time>
      </trkpt>
      <trkpt lat="45.98075" lon="4.6654">
        <ele>264</ele>
        <time>2018-07-07T09:06:39Z</time>
      </trkpt>
      <trkpt lat="45.98075" lon="4.66536">
        <ele>264</ele>
        <time>2018-07-07T09:06:40Z</time>
      </trkpt>
      <trkpt lat="45.98075" lon="4.66531">
        <ele>264</ele>
        <time>2018-07-07T09:06:41Z</time>
      </trkpt>
      <trkpt lat="45.98075" lon="4.66519">
        <ele>265</ele>
        <time>2018-07-07T09:06:42Z</time>
      </trkpt>
      <trkpt lat="45.98074" lon="4.66508">
        <ele>265</ele>
        <time>2018-07-07T09:06:44Z</time>
      </trkpt>
      <trkpt lat="45.98074" lon="4.66502">
        <ele>265</ele>
        <time>2018-07-07T09:06:45Z</time>
      </trkpt>
      <trkpt lat="45.98073" lon="4.66496">
        <ele>265</ele>
        <time>2018-07-07T09:06:47Z</time>
      </trkpt>
      <trkpt lat="45.98072" lon="4.66486">
        <ele>265</ele>
        <time>2018-07-07T09:06:48Z</time>
      </trkpt>
      <trkpt lat="45.98071" lon="4.66474">
        <ele>266</ele>
        <time>2018-07-07T09:06:50Z</time>
      </trkpt>
      <trkpt lat="45.9807" lon="4.66468">
        <ele>266</ele>
        <time>2018-07-07T09:06:51Z</time>
      </trkpt>
      <trkpt lat="45.98069" lon="4.66462">
        <ele>266</ele>
        <time>2018-07-07T09:06:53Z</time>
      </trkpt>
      <trkpt lat="45.98068" lon="4.66453">
        <ele>266</ele>
        <time>2018-07-07T09:06:54Z</time>
      </trkpt>
      <trkpt lat="45.98066" lon="4.66442">
        <ele>266</ele>
        <time>2018-07-07T09:06:56Z</time>
      </trkpt>
      <trkpt lat="45.98064" lon="4.66436">
        <ele>266</ele>
        <time>2018-07-07T09:06:57Z</time>
      </trkpt>
      <trkpt lat="45.98062" lon="4.66424">
        <ele>266</ele>
        <time>2018-07-07T09:06:59Z</time>
      </trkpt>
      <trkpt lat="45.9806" lon="4.66418">
        <ele>266</ele>
        <time>2018-07-07T09:07:00Z</time>
      </trkpt>
      <trkpt lat="45.98058" lon="4.66407">
        <ele>266</ele>
        <time>2018-07-07T09:07:02Z</time>
      </trkpt>
      <trkpt lat="45.98057" lon="4.66402">
        <ele>266</ele>
        <time>2018-07-07T09:07:03Z</time>
      </trkpt>
      <trkpt lat="45.98054" lon="4.66392">
        <ele>267</ele>
        <time>2018-07-07T09:07:05Z</time>
      </trkpt>
      <trkpt lat="45.98052" lon="4.66386">
        <ele>267</ele>
        <time>2018-07-07T09:07:06Z</time>
      </trkpt>
      <trkpt lat="45.98048" lon="4.66375">
        <ele>267</ele>
        <time>2018-07-07T09:07:08Z</time>
      </trkpt>
      <trkpt lat="45.98047" lon="4.6637">
        <ele>267</ele>
        <time>2018-07-07T09:07:09Z</time>
      </trkpt>
      <trkpt lat="45.98044" lon="4.66362">
        <ele>267</ele>
        <time>2018-07-07T09:07:11Z</time>
      </trkpt>
      <trkpt lat="45.98042" lon="4.66355">
        <ele>267</ele>
        <time>2018-07-07T09:07:12Z</time>
      </trkpt>
      <trkpt lat="45.98039" lon="4.66344">
        <ele>267</ele>
        <time>2018-07-07T09:07:14Z</time>
      </trkpt>
      <trkpt lat="45.98037" lon="4.6634">
        <ele>267</ele>
        <time>2018-07-07T09:07:15Z</time>
      </trkpt>
      <trkpt lat="45.98033" lon="4.66331">
        <ele>268</ele>
        <time>2018-07-07T09:07:17Z</time>
      </trkpt>
      <trkpt lat="45.98031" lon="4.66326">
        <ele>268</ele>
        <time>2018-07-07T09:07:18Z</time>
      </trkpt>
      <trkpt lat="45.98026" lon="4.66317">
        <ele>268</ele>
        <time>2018-07-07T09:07:20Z</time>
      </trkpt>
      <trkpt lat="45.98023" lon="4.66313">
        <ele>268</ele>
        <time>2018-07-07T09:07:21Z</time>
      </trkpt>
      <trkpt lat="45.98018" lon="4.66305">
        <ele>268</ele>
        <time>2018-07-07T09:07:23Z</time>
      </trkpt>
      <trkpt lat="45.98015" lon="4.66302">
        <ele>268</ele>
        <time>2018-07-07T09:07:24Z</time>
      </trkpt>
      <trkpt lat="45.98009" lon="4.66295">
        <ele>268</ele>
        <time>2018-07-07T09:07:26Z</time>
      </trkpt>
      <trkpt lat="45.98005" lon="4.66292">
        <ele>268</ele>
        <time>2018-07-07T09:07:27Z</time>
      </trkpt>
      <trkpt lat="45.97999" lon="4.66286">
        <ele>270</ele>
        <time>2018-07-07T09:07:29Z</time>
      </trkpt>
      <trkpt lat="45.97996" lon="4.66282">
        <ele>270</ele>
        <time>2018-07-07T09:07:30Z</time>
      </trkpt>
      <trkpt lat="45.97989" lon="4.66275">
        <ele>270</ele>
        <time>2018-07-07T09:07:33Z</time>
      </trkpt>
      <trkpt lat="45.97984" lon="4.6627">
        <ele>270</ele>
        <time>2018-07-07T09:07:34Z</time>
      </trkpt>
      <trkpt lat="45.97977" lon="4.66263">
        <ele>270</ele>
        <time>2018-07-07T09:07:36Z</time>
      </trkpt>
      <trkpt lat="45.97974" lon="4.66259">
        <ele>270</ele>
        <time>2018-07-07T09:07:37Z</time>
      </trkpt>
      <trkpt lat="45.97968" lon="4.66252">
        <ele>270</ele>
        <time>2018-07-07T09:07:39Z</time>
      </trkpt>
      <trkpt lat="45.97964" lon="4.66248">
        <ele>270</ele>
        <time>2018-07-07T09:07:40Z</time>
      </trkpt>
      <trkpt lat="45.9796" lon="4.66237">
        <ele>270</ele>
        <time>2018-07-07T09:07:42Z</time>
      </trkpt>
      <trkpt lat="45.97957" lon="4.66232">
        <ele>270</ele>
        <time>2018-07-07T09:07:43Z</time>
      </trkpt>
      <trkpt lat="45.97954" lon="4.66226">
        <ele>270</ele>
        <time>2018-07-07T09:07:44Z</time>
      </trkpt>
      <trkpt lat="45.97952" lon="4.6622">
        <ele>270</ele>
        <time>2018-07-07T09:07:45Z</time>
      </trkpt>
      <trkpt lat="45.97951" lon="4.66213">
        <ele>270</ele>
        <time>2018-07-07T09:07:46Z</time>
      </trkpt>
      <trkpt lat="45.97949" lon="4.66207">
        <ele>270</ele>
        <time>2018-07-07T09:07:47Z</time>
      </trkpt>
      <trkpt lat="45.97946" lon="4.66199">
        <ele>270</ele>
        <time>2018-07-07T09:07:48Z</time>
      </trkpt>
      <trkpt lat="45.97943" lon="4.66193">
        <ele>270</ele>
        <time>2018-07-07T09:07:49Z</time>
      </trkpt>
      <trkpt lat="45.97942" lon="4.66186">
        <ele>270</ele>
        <time>2018-07-07T09:07:50Z</time>
      </trkpt>
      <trkpt lat="45.9794" lon="4.6618">
        <ele>270</ele>
        <time>2018-07-07T09:07:51Z</time>
      </trkpt>
      <trkpt lat="45.97939" lon="4.66173">
        <ele>270</ele>
        <time>2018-07-07T09:07:52Z</time>
      </trkpt>
      <trkpt lat="45.97937" lon="4.66166">
        <ele>269</ele>
        <time>2018-07-07T09:07:53Z</time>
      </trkpt>
      <trkpt lat="45.97938" lon="4.66159">
        <ele>269</ele>
        <time>2018-07-07T09:07:54Z</time>
      </trkpt>
      <trkpt lat="45.97937" lon="4.66152">
        <ele>269</ele>
        <time>2018-07-07T09:07:55Z</time>
      </trkpt>
      <trkpt lat="45.97935" lon="4.66141">
        <ele>269</ele>
        <time>2018-07-07T09:07:57Z</time>
      </trkpt>
      <trkpt lat="45.97934" lon="4.66135">
        <ele>269</ele>
        <time>2018-07-07T09:07:58Z</time>
      </trkpt>
      <trkpt lat="45.97932" lon="4.66123">
        <ele>269</ele>
        <time>2018-07-07T09:08:00Z</time>
      </trkpt>
      <trkpt lat="45.97931" lon="4.66117">
        <ele>269</ele>
        <time>2018-07-07T09:08:01Z</time>
      </trkpt>
      <trkpt lat="45.9793" lon="4.6611">
        <ele>269</ele>
        <time>2018-07-07T09:08:02Z</time>
      </trkpt>
      <trkpt lat="45.97928" lon="4.66104">
        <ele>270</ele>
        <time>2018-07-07T09:08:03Z</time>
      </trkpt>
      <trkpt lat="45.97929" lon="4.66097">
        <ele>270</ele>
        <time>2018-07-07T09:08:04Z</time>
      </trkpt>
      <trkpt lat="45.97927" lon="4.6609">
        <ele>270</ele>
        <time>2018-07-07T09:08:05Z</time>
      </trkpt>
      <trkpt lat="45.97925" lon="4.66083">
        <ele>270</ele>
        <time>2018-07-07T09:08:06Z</time>
      </trkpt>
      <trkpt lat="45.97925" lon="4.66076">
        <ele>270</ele>
        <time>2018-07-07T09:08:07Z</time>
      </trkpt>
      <trkpt lat="45.97924" lon="4.66068">
        <ele>270</ele>
        <time>2018-07-07T09:08:08Z</time>
      </trkpt>
      <trkpt lat="45.97924" lon="4.66062">
        <ele>270</ele>
        <time>2018-07-07T09:08:09Z</time>
      </trkpt>
      <trkpt lat="45.97923" lon="4.66054">
        <ele>270</ele>
        <time>2018-07-07T09:08:10Z</time>
      </trkpt>
      <trkpt lat="45.97923" lon="4.66048">
        <ele>270</ele>
        <time>2018-07-07T09:08:11Z</time>
      </trkpt>
      <trkpt lat="45.97921" lon="4.6604">
        <ele>270</ele>
        <time>2018-07-07T09:08:12Z</time>
      </trkpt>
      <trkpt lat="45.97919" lon="4.66035">
        <ele>270</ele>
        <time>2018-07-07T09:08:13Z</time>
      </trkpt>
      <trkpt lat="45.97918" lon="4.66027">
        <ele>270</ele>
        <time>2018-07-07T09:08:14Z</time>
      </trkpt>
      <trkpt lat="45.97918" lon="4.6602">
        <ele>271</ele>
        <time>2018-07-07T09:08:15Z</time>
      </trkpt>
      <trkpt lat="45.9792" lon="4.66012">
        <ele>271</ele>
        <time>2018-07-07T09:08:16Z</time>
      </trkpt>
      <trkpt lat="45.97919" lon="4.66006">
        <ele>271</ele>
        <time>2018-07-07T09:08:17Z</time>
      </trkpt>
      <trkpt lat="45.97919" lon="4.65994">
        <ele>272</ele>
        <time>2018-07-07T09:08:19Z</time>
      </trkpt>
      <trkpt lat="45.97919" lon="4.65988">
        <ele>272</ele>
        <time>2018-07-07T09:08:20Z</time>
      </trkpt>
      <trkpt lat="45.97918" lon="4.65978">
        <ele>272</ele>
        <time>2018-07-07T09:08:22Z</time>
      </trkpt>
      <trkpt lat="45.97917" lon="4.65971">
        <ele>272</ele>
        <time>2018-07-07T09:08:23Z</time>
      </trkpt>
      <trkpt lat="45.97917" lon="4.65959">
        <ele>273</ele>
        <time>2018-07-07T09:08:25Z</time>
      </trkpt>
      <trkpt lat="45.97918" lon="4.65952">
        <ele>273</ele>
        <time>2018-07-07T09:08:26Z</time>
      </trkpt>
      <trkpt lat="45.9792" lon="4.65946">
        <ele>273</ele>
        <time>2018-07-07T09:08:27Z</time>
      </trkpt>
      <trkpt lat="45.9792" lon="4.65939">
        <ele>274</ele>
        <time>2018-07-07T09:08:28Z</time>
      </trkpt>
      <trkpt lat="45.97923" lon="4.65927">
        <ele>275</ele>
        <time>2018-07-07T09:08:30Z</time>
      </trkpt>
      <trkpt lat="45.97925" lon="4.65922">
        <ele>275</ele>
        <time>2018-07-07T09:08:31Z</time>
      </trkpt>
      <trkpt lat="45.97924" lon="4.65912">
        <ele>276</ele>
        <time>2018-07-07T09:08:33Z</time>
      </trkpt>
      <trkpt lat="45.97925" lon="4.65907">
        <ele>276</ele>
        <time>2018-07-07T09:08:34Z</time>
      </trkpt>
      <trkpt lat="45.97926" lon="4.65896">
        <ele>276</ele>
        <time>2018-07-07T09:08:36Z</time>
      </trkpt>
      <trkpt lat="45.97925" lon="4.6589">
        <ele>276</ele>
        <time>2018-07-07T09:08:37Z</time>
      </trkpt>
      <trkpt lat="45.97923" lon="4.6588">
        <ele>276</ele>
        <time>2018-07-07T09:08:39Z</time>
      </trkpt>
      <trkpt lat="45.97923" lon="4.65877">
        <ele>276</ele>
        <time>2018-07-07T09:08:40Z</time>
      </trkpt>
      <trkpt lat="45.97921" lon="4.65868">
        <ele>276</ele>
        <time>2018-07-07T09:08:43Z</time>
      </trkpt>
      <trkpt lat="45.9792" lon="4.65864">
        <ele>276</ele>
        <time>2018-07-07T09:08:44Z</time>
      </trkpt>
      <trkpt lat="45.97917" lon="4.65853">
        <ele>277</ele>
        <time>2018-07-07T09:08:45Z</time>
      </trkpt>
      <trkpt lat="45.97915" lon="4.65848">
        <ele>277</ele>
        <time>2018-07-07T09:08:46Z</time>
      </trkpt>
      <trkpt lat="45.97911" lon="4.65839">
        <ele>277</ele>
        <time>2018-07-07T09:08:48Z</time>
      </trkpt>
      <trkpt lat="45.97909" lon="4.65834">
        <ele>277</ele>
        <time>2018-07-07T09:08:49Z</time>
      </trkpt>
      <trkpt lat="45.97904" lon="4.65824">
        <ele>277</ele>
        <time>2018-07-07T09:08:51Z</time>
      </trkpt>
      <trkpt lat="45.97901" lon="4.65819">
        <ele>277</ele>
        <time>2018-07-07T09:08:52Z</time>
      </trkpt>
      <trkpt lat="45.97897" lon="4.65809">
        <ele>277</ele>
        <time>2018-07-07T09:08:54Z</time>
      </trkpt>
      <trkpt lat="45.97894" lon="4.65804">
        <ele>277</ele>
        <time>2018-07-07T09:08:55Z</time>
      </trkpt>
      <trkpt lat="45.9789" lon="4.65794">
        <ele>277</ele>
        <time>2018-07-07T09:08:57Z</time>
      </trkpt>
      <trkpt lat="45.97888" lon="4.65788">
        <ele>277</ele>
        <time>2018-07-07T09:08:58Z</time>
      </trkpt>
      <trkpt lat="45.97885" lon="4.65777">
        <ele>277</ele>
        <time>2018-07-07T09:09:00Z</time>
      </trkpt>
      <trkpt lat="45.97884" lon="4.65772">
        <ele>277</ele>
        <time>2018-07-07T09:09:01Z</time>
      </trkpt>
      <trkpt lat="45.97881" lon="4.65761">
        <ele>277</ele>
        <time>2018-07-07T09:09:03Z</time>
      </trkpt>
      <trkpt lat="45.97879" lon="4.65755">
        <ele>277</ele>
        <time>2018-07-07T09:09:04Z</time>
      </trkpt>
      <trkpt lat="45.97876" lon="4.65747">
        <ele>278</ele>
        <time>2018-07-07T09:09:06Z</time>
      </trkpt>
      <trkpt lat="45.97873" lon="4.65739">
        <ele>278</ele>
        <time>2018-07-07T09:09:07Z</time>
      </trkpt>
      <trkpt lat="45.9787" lon="4.65728">
        <ele>278</ele>
        <time>2018-07-07T09:09:09Z</time>
      </trkpt>
      <trkpt lat="45.97868" lon="4.65722">
        <ele>278</ele>
        <time>2018-07-07T09:09:10Z</time>
      </trkpt>
      <trkpt lat="45.97866" lon="4.65711">
        <ele>278</ele>
        <time>2018-07-07T09:09:12Z</time>
      </trkpt>
      <trkpt lat="45.97864" lon="4.65704">
        <ele>278</ele>
        <time>2018-07-07T09:09:13Z</time>
      </trkpt>
      <trkpt lat="45.97862" lon="4.65693">
        <ele>278</ele>
        <time>2018-07-07T09:09:15Z</time>
      </trkpt>
      <trkpt lat="45.97861" lon="4.65687">
        <ele>278</ele>
        <time>2018-07-07T09:09:16Z</time>
      </trkpt>
      <trkpt lat="45.97858" lon="4.65676">
        <ele>278</ele>
        <time>2018-07-07T09:09:18Z</time>
      </trkpt>
      <trkpt lat="45.97856" lon="4.65671">
        <ele>278</ele>
        <time>2018-07-07T09:09:19Z</time>
      </trkpt>
      <trkpt lat="45.97854" lon="4.65666">
        <ele>279</ele>
        <time>2018-07-07T09:09:20Z</time>
      </trkpt>
      <trkpt lat="45.97851" lon="4.6566">
        <ele>279</ele>
        <time>2018-07-07T09:09:21Z</time>
      </trkpt>
      <trkpt lat="45.97846" lon="4.65653">
        <ele>279</ele>
        <time>2018-07-07T09:09:22Z</time>
      </trkpt>
      <trkpt lat="45.97845" lon="4.65647">
        <ele>279</ele>
        <time>2018-07-07T09:09:23Z</time>
      </trkpt>
      <trkpt lat="45.97843" lon="4.65636">
        <ele>279</ele>
        <time>2018-07-07T09:09:25Z</time>
      </trkpt>
      <trkpt lat="45.97842" lon="4.6563">
        <ele>279</ele>
        <time>2018-07-07T09:09:26Z</time>
      </trkpt>
      <trkpt lat="45.97839" lon="4.65624">
        <ele>279</ele>
        <time>2018-07-07T09:09:27Z</time>
      </trkpt>
      <trkpt lat="45.97837" lon="4.65619">
        <ele>279</ele>
        <time>2018-07-07T09:09:28Z</time>
      </trkpt>
      <trkpt lat="45.97837" lon="4.6561">
        <ele>280</ele>
        <time>2018-07-07T09:09:30Z</time>
      </trkpt>
      <trkpt lat="45.97834" lon="4.65604">
        <ele>280</ele>
        <time>2018-07-07T09:09:31Z</time>
      </trkpt>
      <trkpt lat="45.97832" lon="4.65592">
        <ele>280</ele>
        <time>2018-07-07T09:09:33Z</time>
      </trkpt>
      <trkpt lat="45.97831" lon="4.65587">
        <ele>280</ele>
        <time>2018-07-07T09:09:34Z</time>
      </trkpt>
      <trkpt lat="45.9783" lon="4.65581">
        <ele>280</ele>
        <time>2018-07-07T09:09:35Z</time>
      </trkpt>
      <trkpt lat="45.97828" lon="4.65574">
        <ele>280</ele>
        <time>2018-07-07T09:09:36Z</time>
      </trkpt>
      <trkpt lat="45.97825" lon="4.65562">
        <ele>280</ele>
        <time>2018-07-07T09:09:38Z</time>
      </trkpt>
      <trkpt lat="45.97825" lon="4.65557">
        <ele>280</ele>
        <time>2018-07-07T09:09:39Z</time>
      </trkpt>
      <trkpt lat="45.97823" lon="4.6555">
        <ele>280</ele>
        <time>2018-07-07T09:09:40Z</time>
      </trkpt>
      <trkpt lat="45.97823" lon="4.65543">
        <ele>280</ele>
        <time>2018-07-07T09:09:41Z</time>
      </trkpt>
      <trkpt lat="45.9782" lon="4.65531">
        <ele>280</ele>
        <time>2018-07-07T09:09:43Z</time>
      </trkpt>
      <trkpt lat="45.97817" lon="4.65525">
        <ele>280</ele>
        <time>2018-07-07T09:09:44Z</time>
      </trkpt>
      <trkpt lat="45.97816" lon="4.65512">
        <ele>280</ele>
        <time>2018-07-07T09:09:46Z</time>
      </trkpt>
      <trkpt lat="45.97815" lon="4.65507">
        <ele>280</ele>
        <time>2018-07-07T09:09:47Z</time>
      </trkpt>
      <trkpt lat="45.97812" lon="4.65496">
        <ele>280</ele>
        <time>2018-07-07T09:09:49Z</time>
      </trkpt>
      <trkpt lat="45.97811" lon="4.6549">
        <ele>280</ele>
        <time>2018-07-07T09:09:50Z</time>
      </trkpt>
      <trkpt lat="45.97808" lon="4.65478">
        <ele>281</ele>
        <time>2018-07-07T09:09:52Z</time>
      </trkpt>
      <trkpt lat="45.97805" lon="4.65471">
        <ele>281</ele>
        <time>2018-07-07T09:09:53Z</time>
      </trkpt>
      <trkpt lat="45.97803" lon="4.65465">
        <ele>281</ele>
        <time>2018-07-07T09:09:54Z</time>
      </trkpt>
      <trkpt lat="45.97799" lon="4.65459">
        <ele>281</ele>
        <time>2018-07-07T09:09:55Z</time>
      </trkpt>
      <trkpt lat="45.97797" lon="4.65452">
        <ele>281</ele>
        <time>2018-07-07T09:09:56Z</time>
      </trkpt>
      <trkpt lat="45.97794" lon="4.65447">
        <ele>281</ele>
        <time>2018-07-07T09:09:57Z</time>
      </trkpt>
      <trkpt lat="45.97792" lon="4.65437">
        <ele>281</ele>
        <time>2018-07-07T09:09:59Z</time>
      </trkpt>
      <trkpt lat="45.9779" lon="4.6543">
        <ele>281</ele>
        <time>2018-07-07T09:10:00Z</time>
      </trkpt>
      <trkpt lat="45.97786" lon="4.65423">
        <ele>281</ele>
        <time>2018-07-07T09:10:01Z</time>
      </trkpt>
      <trkpt lat="45.97783" lon="4.65416">
        <ele>282</ele>
        <time>2018-07-07T09:10:02Z</time>
      </trkpt>
      <trkpt lat="45.97781" lon="4.65409">
        <ele>282</ele>
        <time>2018-07-07T09:10:03Z</time>
      </trkpt>
      <trkpt lat="45.97778" lon="4.65404">
        <ele>282</ele>
        <time>2018-07-07T09:10:04Z</time>
      </trkpt>
      <trkpt lat="45.97776" lon="4.65397">
        <ele>282</ele>
        <time>2018-07-07T09:10:05Z</time>
      </trkpt>
      <trkpt lat="45.97773" lon="4.65391">
        <ele>282</ele>
        <time>2018-07-07T09:10:06Z</time>
      </trkpt>
      <trkpt lat="45.97768" lon="4.6538">
        <ele>282</ele>
        <time>2018-07-07T09:10:08Z</time>
      </trkpt>
      <trkpt lat="45.97768" lon="4.65378">
        <ele>282</ele>
        <time>2018-07-07T09:10:09Z</time>
      </trkpt>
      <trkpt lat="45.97764" lon="4.65367">
        <ele>282</ele>
        <time>2018-07-07T09:10:11Z</time>
      </trkpt>
      <trkpt lat="45.97762" lon="4.65361">
        <ele>282</ele>
        <time>2018-07-07T09:10:12Z</time>
      </trkpt>
      <trkpt lat="45.9776" lon="4.65355">
        <ele>282</ele>
        <time>2018-07-07T09:10:13Z</time>
      </trkpt>
      <trkpt lat="45.97758" lon="4.65349">
        <ele>282</ele>
        <time>2018-07-07T09:10:14Z</time>
      </trkpt>
      <trkpt lat="45.97756" lon="4.65343">
        <ele>282</ele>
        <time>2018-07-07T09:10:15Z</time>
      </trkpt>
      <trkpt lat="45.97753" lon="4.65337">
        <ele>282</ele>
        <time>2018-07-07T09:10:16Z</time>
      </trkpt>
      <trkpt lat="45.97751" lon="4.65331">
        <ele>282</ele>
        <time>2018-07-07T09:10:17Z</time>
      </trkpt>
      <trkpt lat="45.9775" lon="4.65325">
        <ele>282</ele>
        <time>2018-07-07T09:10:18Z</time>
      </trkpt>
      <trkpt lat="45.97745" lon="4.65319">
        <ele>282</ele>
        <time>2018-07-07T09:10:19Z</time>
      </trkpt>
      <trkpt lat="45.97744" lon="4.65313">
        <ele>282</ele>
        <time>2018-07-07T09:10:20Z</time>
      </trkpt>
      <trkpt lat="45.9774" lon="4.65302">
        <ele>282</ele>
        <time>2018-07-07T09:10:22Z</time>
      </trkpt>
      <trkpt lat="45.97739" lon="4.65295">
        <ele>282</ele>
        <time>2018-07-07T09:10:23Z</time>
      </trkpt>
      <trkpt lat="45.97738" lon="4.65284">
        <ele>283</ele>
        <time>2018-07-07T09:10:25Z</time>
      </trkpt>
      <trkpt lat="45.97737" lon="4.65277">
        <ele>283</ele>
        <time>2018-07-07T09:10:26Z</time>
      </trkpt>
      <trkpt lat="45.97739" lon="4.6527">
        <ele>283</ele>
        <time>2018-07-07T09:10:27Z</time>
      </trkpt>
      <trkpt lat="45.97738" lon="4.65264">
        <ele>283</ele>
        <time>2018-07-07T09:10:28Z</time>
      </trkpt>
      <trkpt lat="45.97738" lon="4.65257">
        <ele>283</ele>
        <time>2018-07-07T09:10:29Z</time>
      </trkpt>
      <trkpt lat="45.97736" lon="4.65251">
        <ele>283</ele>
        <time>2018-07-07T09:10:30Z</time>
      </trkpt>
      <trkpt lat="45.97735" lon="4.65239">
        <ele>284</ele>
        <time>2018-07-07T09:10:32Z</time>
      </trkpt>
      <trkpt lat="45.97734" lon="4.65232">
        <ele>284</ele>
        <time>2018-07-07T09:10:33Z</time>
      </trkpt>
      <trkpt lat="45.97733" lon="4.6522">
        <ele>284</ele>
        <time>2018-07-07T09:10:35Z</time>
      </trkpt>
      <trkpt lat="45.97734" lon="4.65213">
        <ele>284</ele>
        <time>2018-07-07T09:10:36Z</time>
      </trkpt>
      <trkpt lat="45.97732" lon="4.65207">
        <ele>284</ele>
        <time>2018-07-07T09:10:37Z</time>
      </trkpt>
      <trkpt lat="45.97731" lon="4.652">
        <ele>284</ele>
        <time>2018-07-07T09:10:38Z</time>
      </trkpt>
      <trkpt lat="45.9773" lon="4.65191">
        <ele>284</ele>
        <time>2018-07-07T09:10:39Z</time>
      </trkpt>
      <trkpt lat="45.97728" lon="4.65185">
        <ele>284</ele>
        <time>2018-07-07T09:10:40Z</time>
      </trkpt>
      <trkpt lat="45.97728" lon="4.65178">
        <ele>284</ele>
        <time>2018-07-07T09:10:41Z</time>
      </trkpt>
      <trkpt lat="45.97727" lon="4.65171">
        <ele>284</ele>
        <time>2018-07-07T09:10:42Z</time>
      </trkpt>
      <trkpt lat="45.97726" lon="4.65164">
        <ele>285</ele>
        <time>2018-07-07T09:10:43Z</time>
      </trkpt>
      <trkpt lat="45.97727" lon="4.65157">
        <ele>285</ele>
        <time>2018-07-07T09:10:44Z</time>
      </trkpt>
      <trkpt lat="45.97726" lon="4.6515">
        <ele>285</ele>
        <time>2018-07-07T09:10:45Z</time>
      </trkpt>
      <trkpt lat="45.97725" lon="4.65143">
        <ele>285</ele>
        <time>2018-07-07T09:10:46Z</time>
      </trkpt>
      <trkpt lat="45.97724" lon="4.6513">
        <ele>285</ele>
        <time>2018-07-07T09:10:48Z</time>
      </trkpt>
      <trkpt lat="45.97722" lon="4.65123">
        <ele>285</ele>
        <time>2018-07-07T09:10:49Z</time>
      </trkpt>
      <trkpt lat="45.97719" lon="4.65115">
        <ele>284</ele>
        <time>2018-07-07T09:10:50Z</time>
      </trkpt>
      <trkpt lat="45.97721" lon="4.6511">
        <ele>285</ele>
        <time>2018-07-07T09:10:51Z</time>
      </trkpt>
      <trkpt lat="45.9772" lon="4.65099">
        <ele>285</ele>
        <time>2018-07-07T09:10:53Z</time>
      </trkpt>
      <trkpt lat="45.97723" lon="4.65097">
        <ele>285</ele>
        <time>2018-07-07T09:10:54Z</time>
      </trkpt>
      <trkpt lat="45.97724" lon="4.65089">
        <ele>285</ele>
        <time>2018-07-07T09:10:55Z</time>
      </trkpt>
      <trkpt lat="45.97719" lon="4.65082">
        <ele>285</ele>
        <time>2018-07-07T09:10:56Z</time>
      </trkpt>
      <trkpt lat="45.97719" lon="4.6507">
        <ele>285</ele>
        <time>2018-07-07T09:10:58Z</time>
      </trkpt>
      <trkpt lat="45.97719" lon="4.65064">
        <ele>285</ele>
        <time>2018-07-07T09:10:59Z</time>
      </trkpt>
      <trkpt lat="45.97718" lon="4.65057">
        <ele>285</ele>
        <time>2018-07-07T09:11:00Z</time>
      </trkpt>
      <trkpt lat="45.97719" lon="4.65051">
        <ele>286</ele>
        <time>2018-07-07T09:11:01Z</time>
      </trkpt>
      <trkpt lat="45.97718" lon="4.65044">
        <ele>286</ele>
        <time>2018-07-07T09:11:02Z</time>
      </trkpt>
      <trkpt lat="45.97717" lon="4.65038">
        <ele>286</ele>
        <time>2018-07-07T09:11:03Z</time>
      </trkpt>
      <trkpt lat="45.97712" lon="4.6503">
        <ele>286</ele>
        <time>2018-07-07T09:11:04Z</time>
      </trkpt>
      <trkpt lat="45.97712" lon="4.65024">
        <ele>286</ele>
        <time>2018-07-07T09:11:05Z</time>
      </trkpt>
      <trkpt lat="45.97712" lon="4.65017">
        <ele>286</ele>
        <time>2018-07-07T09:11:06Z</time>
      </trkpt>
      <trkpt lat="45.97712" lon="4.6501">
        <ele>286</ele>
        <time>2018-07-07T09:11:07Z</time>
      </trkpt>
      <trkpt lat="45.97711" lon="4.64998">
        <ele>287</ele>
        <time>2018-07-07T09:11:09Z</time>
      </trkpt>
      <trkpt lat="45.97709" lon="4.64991">
        <ele>287</ele>
        <time>2018-07-07T09:11:10Z</time>
      </trkpt>
      <trkpt lat="45.97708" lon="4.64978">
        <ele>287</ele>
        <time>2018-07-07T09:11:12Z</time>
      </trkpt>
      <trkpt lat="45.97707" lon="4.64972">
        <ele>287</ele>
        <time>2018-07-07T09:11:13Z</time>
      </trkpt>
      <trkpt lat="45.97702" lon="4.64965">
        <ele>287</ele>
        <time>2018-07-07T09:11:14Z</time>
      </trkpt>
      <trkpt lat="45.97699" lon="4.64958">
        <ele>287</ele>
        <time>2018-07-07T09:11:15Z</time>
      </trkpt>
      <trkpt lat="45.97698" lon="4.64948">
        <ele>287</ele>
        <time>2018-07-07T09:11:17Z</time>
      </trkpt>
      <trkpt lat="45.977" lon="4.64941">
        <ele>287</ele>
        <time>2018-07-07T09:11:18Z</time>
      </trkpt>
      <trkpt lat="45.97696" lon="4.6493">
        <ele>287</ele>
        <time>2018-07-07T09:11:20Z</time>
      </trkpt>
      <trkpt lat="45.97695" lon="4.64924">
        <ele>288</ele>
        <time>2018-07-07T09:11:21Z</time>
      </trkpt>
      <trkpt lat="45.97693" lon="4.64915">
        <ele>288</ele>
        <time>2018-07-07T09:11:23Z</time>
      </trkpt>
      <trkpt lat="45.97693" lon="4.64908">
        <ele>288</ele>
        <time>2018-07-07T09:11:24Z</time>
      </trkpt>
      <trkpt lat="45.97693" lon="4.64898">
        <ele>288</ele>
        <time>2018-07-07T09:11:27Z</time>
      </trkpt>
      <trkpt lat="45.97693" lon="4.64894">
        <ele>288</ele>
        <time>2018-07-07T09:11:28Z</time>
      </trkpt>
      <trkpt lat="45.97693" lon="4.6489">
        <ele>288</ele>
        <time>2018-07-07T09:11:29Z</time>
      </trkpt>
      <trkpt lat="45.97692" lon="4.64878">
        <ele>288</ele>
        <time>2018-07-07T09:11:30Z</time>
      </trkpt>
      <trkpt lat="45.97692" lon="4.64867">
        <ele>289</ele>
        <time>2018-07-07T09:11:32Z</time>
      </trkpt>
      <trkpt lat="45.97691" lon="4.64862">
        <ele>289</ele>
        <time>2018-07-07T09:11:33Z</time>
      </trkpt>
      <trkpt lat="45.97689" lon="4.64851">
        <ele>289</ele>
        <time>2018-07-07T09:11:35Z</time>
      </trkpt>
      <trkpt lat="45.97688" lon="4.64845">
        <ele>289</ele>
        <time>2018-07-07T09:11:36Z</time>
      </trkpt>
      <trkpt lat="45.97687" lon="4.64833">
        <ele>289</ele>
        <time>2018-07-07T09:11:39Z</time>
      </trkpt>
      <trkpt lat="45.97686" lon="4.64829">
        <ele>289</ele>
        <time>2018-07-07T09:11:40Z</time>
      </trkpt>
      <trkpt lat="45.97685" lon="4.64817">
        <ele>289</ele>
        <time>2018-07-07T09:11:43Z</time>
      </trkpt>
      <trkpt lat="45.97685" lon="4.64813">
        <ele>290</ele>
        <time>2018-07-07T09:11:44Z</time>
      </trkpt>
      <trkpt lat="45.97684" lon="4.64805">
        <ele>290</ele>
        <time>2018-07-07T09:11:46Z</time>
      </trkpt>
      <trkpt lat="45.97684" lon="4.648">
        <ele>290</ele>
        <time>2018-07-07T09:11:47Z</time>
      </trkpt>
      <trkpt lat="45.97683" lon="4.6479">
        <ele>290</ele>
        <time>2018-07-07T09:11:49Z</time>
      </trkpt>
      <trkpt lat="45.97683" lon="4.64785">
        <ele>290</ele>
        <time>2018-07-07T09:11:50Z</time>
      </trkpt>
      <trkpt lat="45.97683" lon="4.64776">
        <ele>290</ele>
        <time>2018-07-07T09:11:52Z</time>
      </trkpt>
      <trkpt lat="45.97682" lon="4.64771">
        <ele>290</ele>
        <time>2018-07-07T09:11:53Z</time>
      </trkpt>
      <trkpt lat="45.97682" lon="4.64762">
        <ele>290</ele>
        <time>2018-07-07T09:11:55Z</time>
      </trkpt>
      <trkpt lat="45.97682" lon="4.64757">
        <ele>290</ele>
        <time>2018-07-07T09:11:56Z</time>
      </trkpt>
      <trkpt lat="45.97681" lon="4.64748">
        <ele>291</ele>
        <time>2018-07-07T09:11:58Z</time>
      </trkpt>
      <trkpt lat="45.97681" lon="4.64743">
        <ele>291</ele>
        <time>2018-07-07T09:11:59Z</time>
      </trkpt>
      <trkpt lat="45.9768" lon="4.64734">
        <ele>291</ele>
        <time>2018-07-07T09:12:01Z</time>
      </trkpt>
      <trkpt lat="45.9768" lon="4.64729">
        <ele>291</ele>
        <time>2018-07-07T09:12:02Z</time>
      </trkpt>
      <trkpt lat="45.97679" lon="4.6472">
        <ele>291</ele>
        <time>2018-07-07T09:12:04Z</time>
      </trkpt>
      <trkpt lat="45.97678" lon="4.64715">
        <ele>291</ele>
        <time>2018-07-07T09:12:05Z</time>
      </trkpt>
      <trkpt lat="45.97677" lon="4.64705">
        <ele>291</ele>
        <time>2018-07-07T09:12:07Z</time>
      </trkpt>
      <trkpt lat="45.97676" lon="4.64701">
        <ele>291</ele>
        <time>2018-07-07T09:12:08Z</time>
      </trkpt>
      <trkpt lat="45.97675" lon="4.64691">
        <ele>291</ele>
        <time>2018-07-07T09:12:10Z</time>
      </trkpt>
      <trkpt lat="45.97674" lon="4.64687">
        <ele>291</ele>
        <time>2018-07-07T09:12:11Z</time>
      </trkpt>
      <trkpt lat="45.97673" lon="4.64678">
        <ele>292</ele>
        <time>2018-07-07T09:12:13Z</time>
      </trkpt>
      <trkpt lat="45.97673" lon="4.64674">
        <ele>292</ele>
        <time>2018-07-07T09:12:14Z</time>
      </trkpt>
      <trkpt lat="45.97672" lon="4.64665">
        <ele>292</ele>
        <time>2018-07-07T09:12:16Z</time>
      </trkpt>
      <trkpt lat="45.97672" lon="4.6466">
        <ele>292</ele>
        <time>2018-07-07T09:12:17Z</time>
      </trkpt>
      <trkpt lat="45.97671" lon="4.64651">
        <ele>293</ele>
        <time>2018-07-07T09:12:19Z</time>
      </trkpt>
      <trkpt lat="45.9767" lon="4.64647">
        <ele>293</ele>
        <time>2018-07-07T09:12:20Z</time>
      </trkpt>
      <trkpt lat="45.97669" lon="4.64638">
        <ele>293</ele>
        <time>2018-07-07T09:12:22Z</time>
      </trkpt>
      <trkpt lat="45.97668" lon="4.64634">
        <ele>294</ele>
        <time>2018-07-07T09:12:23Z</time>
      </trkpt>
      <trkpt lat="45.97667" lon="4.64621">
        <ele>294</ele>
        <time>2018-07-07T09:12:26Z</time>
      </trkpt>
      <trkpt lat="45.97666" lon="4.64616">
        <ele>295</ele>
        <time>2018-07-07T09:12:27Z</time>
      </trkpt>
      <trkpt lat="45.97665" lon="4.64607">
        <ele>296</ele>
        <time>2018-07-07T09:12:29Z</time>
      </trkpt>
      <trkpt lat="45.97664" lon="4.64603">
        <ele>296</ele>
        <time>2018-07-07T09:12:30Z</time>
      </trkpt>
      <trkpt lat="45.97662" lon="4.64592">
        <ele>296</ele>
        <time>2018-07-07T09:12:33Z</time>
      </trkpt>
      <trkpt lat="45.97662" lon="4.64588">
        <ele>297</ele>
        <time>2018-07-07T09:12:34Z</time>
      </trkpt>
      <trkpt lat="45.9766" lon="4.64579">
        <ele>298</ele>
        <time>2018-07-07T09:12:36Z</time>
      </trkpt>
      <trkpt lat="45.9766" lon="4.64575">
        <ele>298</ele>
        <time>2018-07-07T09:12:37Z</time>
      </trkpt>
      <trkpt lat="45.97657" lon="4.64562">
        <ele>298</ele>
        <time>2018-07-07T09:12:40Z</time>
      </trkpt>
      <trkpt lat="45.97657" lon="4.64557">
        <ele>299</ele>
        <time>2018-07-07T09:12:41Z</time>
      </trkpt>
      <trkpt lat="45.97656" lon="4.64548">
        <ele>299</ele>
        <time>2018-07-07T09:12:43Z</time>
      </trkpt>
      <trkpt lat="45.97656" lon="4.64544">
        <ele>299</ele>
        <time>2018-07-07T09:12:44Z</time>
      </trkpt>
      <trkpt lat="45.97656" lon="4.64531">
        <ele>300</ele>
        <time>2018-07-07T09:12:47Z</time>
      </trkpt>
      <trkpt lat="45.97656" lon="4.64527">
        <ele>300</ele>
        <time>2018-07-07T09:12:48Z</time>
      </trkpt>
      <trkpt lat="45.97657" lon="4.64515">
        <ele>300</ele>
        <time>2018-07-07T09:12:51Z</time>
      </trkpt>
      <trkpt lat="45.97657" lon="4.64511">
        <ele>301</ele>
        <time>2018-07-07T09:12:52Z</time>
      </trkpt>
      <trkpt lat="45.97656" lon="4.64502">
        <ele>301</ele>
        <time>2018-07-07T09:12:54Z</time>
      </trkpt>
      <trkpt lat="45.97656" lon="4.6449">
        <ele>302</ele>
        <time>2018-07-07T09:12:55Z</time>
      </trkpt>
      <trkpt lat="45.97656" lon="4.64479">
        <ele>302</ele>
        <time>2018-07-07T09:12:59Z</time>
      </trkpt>
      <trkpt lat="45.97655" lon="4.64475">
        <ele>302</ele>
        <time>2018-07-07T09:13:00Z</time>
      </trkpt>
      <trkpt lat="45.97653" lon="4.64462">
        <ele>302</ele>
        <time>2018-07-07T09:13:03Z</time>
      </trkpt>
      <trkpt lat="45.97652" lon="4.64458">
        <ele>302</ele>
        <time>2018-07-07T09:13:04Z</time>
      </trkpt>
      <trkpt lat="45.9765" lon="4.64448">
        <ele>302</ele>
        <time>2018-07-07T09:13:06Z</time>
      </trkpt>
      <trkpt lat="45.9765" lon="4.64444">
        <ele>302</ele>
        <time>2018-07-07T09:13:07Z</time>
      </trkpt>
      <trkpt lat="45.97649" lon="4.64434">
        <ele>302</ele>
        <time>2018-07-07T09:13:10Z</time>
      </trkpt>
      <trkpt lat="45.97649" lon="4.6443">
        <ele>302</ele>
        <time>2018-07-07T09:13:11Z</time>
      </trkpt>
      <trkpt lat="45.97647" lon="4.64421">
        <ele>302</ele>
        <time>2018-07-07T09:13:13Z</time>
      </trkpt>
      <trkpt lat="45.97647" lon="4.64416">
        <ele>302</ele>
        <time>2018-07-07T09:13:14Z</time>
      </trkpt>
      <trkpt lat="45.97646" lon="4.64407">
        <ele>302</ele>
        <time>2018-07-07T09:13:16Z</time>
      </trkpt>
      <trkpt lat="45.97645" lon="4.64402">
        <ele>302</ele>
        <time>2018-07-07T09:13:17Z</time>
      </trkpt>
      <trkpt lat="45.97644" lon="4.64392">
        <ele>302</ele>
        <time>2018-07-07T09:13:19Z</time>
      </trkpt>
      <trkpt lat="45.97643" lon="4.64388">
        <ele>303</ele>
        <time>2018-07-07T09:13:20Z</time>
      </trkpt>
      <trkpt lat="45.9764" lon="4.64378">
        <ele>303</ele>
        <time>2018-07-07T09:13:22Z</time>
      </trkpt>
      <trkpt lat="45.97639" lon="4.64373">
        <ele>303</ele>
        <time>2018-07-07T09:13:23Z</time>
      </trkpt>
      <trkpt lat="45.97637" lon="4.64365">
        <ele>303</ele>
        <time>2018-07-07T09:13:25Z</time>
      </trkpt>
      <trkpt lat="45.97636" lon="4.6436">
        <ele>303</ele>
        <time>2018-07-07T09:13:26Z</time>
      </trkpt>
      <trkpt lat="45.97635" lon="4.64351">
        <ele>303</ele>
        <time>2018-07-07T09:13:28Z</time>
      </trkpt>
      <trkpt lat="45.97634" lon="4.64347">
        <ele>303</ele>
        <time>2018-07-07T09:13:29Z</time>
      </trkpt>
      <trkpt lat="45.97633" lon="4.64334">
        <ele>303</ele>
        <time>2018-07-07T09:13:32Z</time>
      </trkpt>
      <trkpt lat="45.97633" lon="4.6433">
        <ele>304</ele>
        <time>2018-07-07T09:13:33Z</time>
      </trkpt>
      <trkpt lat="45.97631" lon="4.64317">
        <ele>304</ele>
        <time>2018-07-07T09:13:36Z</time>
      </trkpt>
      <trkpt lat="45.97631" lon="4.64313">
        <ele>304</ele>
        <time>2018-07-07T09:13:37Z</time>
      </trkpt>
      <trkpt lat="45.9763" lon="4.64301">
        <ele>304</ele>
        <time>2018-07-07T09:13:40Z</time>
      </trkpt>
      <trkpt lat="45.97629" lon="4.64297">
        <ele>304</ele>
        <time>2018-07-07T09:13:41Z</time>
      </trkpt>
      <trkpt lat="45.97628" lon="4.64284">
        <ele>305</ele>
        <time>2018-07-07T09:13:44Z</time>
      </trkpt>
      <trkpt lat="45.97628" lon="4.6428">
        <ele>305</ele>
        <time>2018-07-07T09:13:45Z</time>
      </trkpt>
      <trkpt lat="45.97626" lon="4.64268">
        <ele>305</ele>
        <time>2018-07-07T09:13:48Z</time>
      </trkpt>
      <trkpt lat="45.97626" lon="4.64264">
        <ele>305</ele>
        <time>2018-07-07T09:13:49Z</time>
      </trkpt>
      <trkpt lat="45.97626" lon="4.64255">
        <ele>305</ele>
        <time>2018-07-07T09:13:51Z</time>
      </trkpt>
      <trkpt lat="45.97625" lon="4.6425">
        <ele>305</ele>
        <time>2018-07-07T09:13:52Z</time>
      </trkpt>
      <trkpt lat="45.97624" lon="4.64242">
        <ele>306</ele>
        <time>2018-07-07T09:13:54Z</time>
      </trkpt>
      <trkpt lat="45.97623" lon="4.64237">
        <ele>306</ele>
        <time>2018-07-07T09:13:55Z</time>
      </trkpt>
      <trkpt lat="45.97622" lon="4.64225">
        <ele>306</ele>
        <time>2018-07-07T09:13:58Z</time>
      </trkpt>
      <trkpt lat="45.97622" lon="4.64221">
        <ele>306</ele>
        <time>2018-07-07T09:13:59Z</time>
      </trkpt>
      <trkpt lat="45.97621" lon="4.64209">
        <ele>306</ele>
        <time>2018-07-07T09:14:02Z</time>
      </trkpt>
      <trkpt lat="45.97621" lon="4.64205">
        <ele>306</ele>
        <time>2018-07-07T09:14:03Z</time>
      </trkpt>
      <trkpt lat="45.9762" lon="4.64193">
        <ele>306</ele>
        <time>2018-07-07T09:14:06Z</time>
      </trkpt>
      <trkpt lat="45.97619" lon="4.64189">
        <ele>306</ele>
        <time>2018-07-07T09:14:07Z</time>
      </trkpt>
      <trkpt lat="45.97619" lon="4.64176">
        <ele>306</ele>
        <time>2018-07-07T09:14:10Z</time>
      </trkpt>
      <trkpt lat="45.97619" lon="4.64172">
        <ele>306</ele>
        <time>2018-07-07T09:14:11Z</time>
      </trkpt>
      <trkpt lat="45.97618" lon="4.64163">
        <ele>306</ele>
        <time>2018-07-07T09:14:13Z</time>
      </trkpt>
      <trkpt lat="45.97618" lon="4.64158">
        <ele>307</ele>
        <time>2018-07-07T09:14:14Z</time>
      </trkpt>
      <trkpt lat="45.97618" lon="4.64149">
        <ele>307</ele>
        <time>2018-07-07T09:14:16Z</time>
      </trkpt>
      <trkpt lat="45.97617" lon="4.64144">
        <ele>307</ele>
        <time>2018-07-07T09:14:17Z</time>
      </trkpt>
      <trkpt lat="45.97616" lon="4.64134">
        <ele>307</ele>
        <time>2018-07-07T09:14:19Z</time>
      </trkpt>
      <trkpt lat="45.97615" lon="4.6413">
        <ele>307</ele>
        <time>2018-07-07T09:14:20Z</time>
      </trkpt>
      <trkpt lat="45.97613" lon="4.64117">
        <ele>307</ele>
        <time>2018-07-07T09:14:23Z</time>
      </trkpt>
      <trkpt lat="45.97612" lon="4.64112">
        <ele>307</ele>
        <time>2018-07-07T09:14:24Z</time>
      </trkpt>
      <trkpt lat="45.97611" lon="4.64103">
        <ele>308</ele>
        <time>2018-07-07T09:14:26Z</time>
      </trkpt>
      <trkpt lat="45.9761" lon="4.64098">
        <ele>308</ele>
        <time>2018-07-07T09:14:27Z</time>
      </trkpt>
      <trkpt lat="45.97609" lon="4.64088">
        <ele>308</ele>
        <time>2018-07-07T09:14:29Z</time>
      </trkpt>
      <trkpt lat="45.97608" lon="4.64083">
        <ele>308</ele>
        <time>2018-07-07T09:14:30Z</time>
      </trkpt>
      <trkpt lat="45.97606" lon="4.64074">
        <ele>310</ele>
        <time>2018-07-07T09:14:32Z</time>
      </trkpt>
      <trkpt lat="45.97606" lon="4.6407">
        <ele>310</ele>
        <time>2018-07-07T09:14:33Z</time>
      </trkpt>
      <trkpt lat="45.97605" lon="4.64061">
        <ele>310</ele>
        <time>2018-07-07T09:14:35Z</time>
      </trkpt>
      <trkpt lat="45.97605" lon="4.64057">
        <ele>310</ele>
        <time>2018-07-07T09:14:36Z</time>
      </trkpt>
      <trkpt lat="45.97604" lon="4.64048">
        <ele>310</ele>
        <time>2018-07-07T09:14:38Z</time>
      </trkpt>
      <trkpt lat="45.97604" lon="4.64044">
        <ele>310</ele>
        <time>2018-07-07T09:14:39Z</time>
      </trkpt>
      <trkpt lat="45.97603" lon="4.64034">
        <ele>310</ele>
        <time>2018-07-07T09:14:41Z</time>
      </trkpt>
      <trkpt lat="45.97602" lon="4.6403">
        <ele>310</ele>
        <time>2018-07-07T09:14:42Z</time>
      </trkpt>
      <trkpt lat="45.97601" lon="4.64021">
        <ele>310</ele>
        <time>2018-07-07T09:14:44Z</time>
      </trkpt>
      <trkpt lat="45.976" lon="4.64017">
        <ele>311</ele>
        <time>2018-07-07T09:14:45Z</time>
      </trkpt>
      <trkpt lat="45.97598" lon="4.64005">
        <ele>311</ele>
        <time>2018-07-07T09:14:48Z</time>
      </trkpt>
      <trkpt lat="45.97597" lon="4.64001">
        <ele>311</ele>
        <time>2018-07-07T09:14:49Z</time>
      </trkpt>
      <trkpt lat="45.97596" lon="4.63988">
        <ele>312</ele>
        <time>2018-07-07T09:14:52Z</time>
      </trkpt>
      <trkpt lat="45.97595" lon="4.63984">
        <ele>312</ele>
        <time>2018-07-07T09:14:53Z</time>
      </trkpt>
      <trkpt lat="45.97593" lon="4.63975">
        <ele>312</ele>
        <time>2018-07-07T09:14:55Z</time>
      </trkpt>
      <trkpt lat="45.97593" lon="4.6397">
        <ele>312</ele>
        <time>2018-07-07T09:14:56Z</time>
      </trkpt>
      <trkpt lat="45.97592" lon="4.63962">
        <ele>312</ele>
        <time>2018-07-07T09:14:58Z</time>
      </trkpt>
      <trkpt lat="45.97591" lon="4.63957">
        <ele>312</ele>
        <time>2018-07-07T09:14:59Z</time>
      </trkpt>
      <trkpt lat="45.9759" lon="4.63945">
        <ele>313</ele>
        <time>2018-07-07T09:15:02Z</time>
      </trkpt>
      <trkpt lat="45.9759" lon="4.63941">
        <ele>313</ele>
        <time>2018-07-07T09:15:03Z</time>
      </trkpt>
      <trkpt lat="45.97589" lon="4.63929">
        <ele>314</ele>
        <time>2018-07-07T09:15:06Z</time>
      </trkpt>
      <trkpt lat="45.97588" lon="4.63924">
        <ele>315</ele>
        <time>2018-07-07T09:15:07Z</time>
      </trkpt>
      <trkpt lat="45.97587" lon="4.63915">
        <ele>315</ele>
        <time>2018-07-07T09:15:09Z</time>
      </trkpt>
      <trkpt lat="45.97587" lon="4.63911">
        <ele>315</ele>
        <time>2018-07-07T09:15:10Z</time>
      </trkpt>
      <trkpt lat="45.97586" lon="4.63899">
        <ele>315</ele>
        <time>2018-07-07T09:15:13Z</time>
      </trkpt>
      <trkpt lat="45.97586" lon="4.63895">
        <ele>315</ele>
        <time>2018-07-07T09:15:14Z</time>
      </trkpt>
      <trkpt lat="45.97585" lon="4.63884">
        <ele>314</ele>
        <time>2018-07-07T09:15:17Z</time>
      </trkpt>
      <trkpt lat="45.97584" lon="4.6388">
        <ele>314</ele>
        <time>2018-07-07T09:15:18Z</time>
      </trkpt>
      <trkpt lat="45.97583" lon="4.63867">
        <ele>318</ele>
        <time>2018-07-07T09:15:21Z</time>
      </trkpt>
      <trkpt lat="45.97582" lon="4.63863">
        <ele>318</ele>
        <time>2018-07-07T09:15:22Z</time>
      </trkpt>
      <trkpt lat="45.9758" lon="4.63852">
        <ele>318</ele>
        <time>2018-07-07T09:15:25Z</time>
      </trkpt>
      <trkpt lat="45.9758" lon="4.63849">
        <ele>318</ele>
        <time>2018-07-07T09:15:26Z</time>
      </trkpt>
      <trkpt lat="45.97579" lon="4.63837">
        <ele>318</ele>
        <time>2018-07-07T09:15:29Z</time>
      </trkpt>
      <trkpt lat="45.97579" lon="4.63833">
        <ele>319</ele>
        <time>2018-07-07T09:15:30Z</time>
      </trkpt>
      <trkpt lat="45.97577" lon="4.63821">
        <ele>320</ele>
        <time>2018-07-07T09:15:33Z</time>
      </trkpt>
      <trkpt lat="45.97576" lon="4.63816">
        <ele>320</ele>
        <time>2018-07-07T09:15:34Z</time>
      </trkpt>
      <trkpt lat="45.97576" lon="4.63804">
        <ele>321</ele>
        <time>2018-07-07T09:15:37Z</time>
      </trkpt>
      <trkpt lat="45.97576" lon="4.63799">
        <ele>321</ele>
        <time>2018-07-07T09:15:38Z</time>
      </trkpt>
      <trkpt lat="45.97575" lon="4.63787">
        <ele>322</ele>
        <time>2018-07-07T09:15:41Z</time>
      </trkpt>
      <trkpt lat="45.97574" lon="4.63782">
        <ele>322</ele>
        <time>2018-07-07T09:15:42Z</time>
      </trkpt>
      <trkpt lat="45.97574" lon="4.63778">
        <ele>322</ele>
        <time>2018-07-07T09:15:43Z</time>
      </trkpt>
      <trkpt lat="45.97571" lon="4.63764">
        <ele>322</ele>
        <time>2018-07-07T09:15:44Z</time>
      </trkpt>
      <trkpt lat="45.97568" lon="4.63752">
        <ele>322</ele>
        <time>2018-07-07T09:15:48Z</time>
      </trkpt>
      <trkpt lat="45.97568" lon="4.63749">
        <ele>323</ele>
        <time>2018-07-07T09:15:49Z</time>
      </trkpt>
      <trkpt lat="45.97566" lon="4.63739">
        <ele>324</ele>
        <time>2018-07-07T09:15:52Z</time>
      </trkpt>
      <trkpt lat="45.97565" lon="4.63735">
        <ele>324</ele>
        <time>2018-07-07T09:15:53Z</time>
      </trkpt>
      <trkpt lat="45.97564" lon="4.63723">
        <ele>324</ele>
        <time>2018-07-07T09:15:56Z</time>
      </trkpt>
      <trkpt lat="45.97564" lon="4.63719">
        <ele>325</ele>
        <time>2018-07-07T09:15:57Z</time>
      </trkpt>
      <trkpt lat="45.97563" lon="4.63707">
        <ele>325</ele>
        <time>2018-07-07T09:16:00Z</time>
      </trkpt>
      <trkpt lat="45.97563" lon="4.63703">
        <ele>325</ele>
        <time>2018-07-07T09:16:01Z</time>
      </trkpt>
      <trkpt lat="45.97563" lon="4.63692">
        <ele>325</ele>
        <time>2018-07-07T09:16:04Z</time>
      </trkpt>
      <trkpt lat="45.97562" lon="4.63688">
        <ele>325</ele>
        <time>2018-07-07T09:16:05Z</time>
      </trkpt>
      <trkpt lat="45.97562" lon="4.63675">
        <ele>325</ele>
        <time>2018-07-07T09:16:08Z</time>
      </trkpt>
      <trkpt lat="45.97562" lon="4.63671">
        <ele>325</ele>
        <time>2018-07-07T09:16:09Z</time>
      </trkpt>
      <trkpt lat="45.97562" lon="4.63659">
        <ele>326</ele>
        <time>2018-07-07T09:16:12Z</time>
      </trkpt>
      <trkpt lat="45.97562" lon="4.63655">
        <ele>326</ele>
        <time>2018-07-07T09:16:13Z</time>
      </trkpt>
      <trkpt lat="45.97562" lon="4.63642">
        <ele>326</ele>
        <time>2018-07-07T09:16:16Z</time>
      </trkpt>
      <trkpt lat="45.97562" lon="4.63638">
        <ele>327</ele>
        <time>2018-07-07T09:16:17Z</time>
      </trkpt>
      <trkpt lat="45.97559" lon="4.63626">
        <ele>327</ele>
        <time>2018-07-07T09:16:20Z</time>
      </trkpt>
      <trkpt lat="45.97559" lon="4.63621">
        <ele>327</ele>
        <time>2018-07-07T09:16:21Z</time>
      </trkpt>
      <trkpt lat="45.97557" lon="4.63609">
        <ele>327</ele>
        <time>2018-07-07T09:16:24Z</time>
      </trkpt>
      <trkpt lat="45.97556" lon="4.63605">
        <ele>327</ele>
        <time>2018-07-07T09:16:25Z</time>
      </trkpt>
      <trkpt lat="45.97555" lon="4.63593">
        <ele>327</ele>
        <time>2018-07-07T09:16:28Z</time>
      </trkpt>
      <trkpt lat="45.97555" lon="4.63589">
        <ele>327</ele>
        <time>2018-07-07T09:16:29Z</time>
      </trkpt>
      <trkpt lat="45.97553" lon="4.63578">
        <ele>328</ele>
        <time>2018-07-07T09:16:32Z</time>
      </trkpt>
      <trkpt lat="45.97552" lon="4.63574">
        <ele>328</ele>
        <time>2018-07-07T09:16:33Z</time>
      </trkpt>
      <trkpt lat="45.9755" lon="4.63562">
        <ele>328</ele>
        <time>2018-07-07T09:16:36Z</time>
      </trkpt>
      <trkpt lat="45.9755" lon="4.63558">
        <ele>329</ele>
        <time>2018-07-07T09:16:37Z</time>
      </trkpt>
      <trkpt lat="45.97549" lon="4.63547">
        <ele>329</ele>
        <time>2018-07-07T09:16:40Z</time>
      </trkpt>
      <trkpt lat="45.97548" lon="4.63544">
        <ele>329</ele>
        <time>2018-07-07T09:16:41Z</time>
      </trkpt>
      <trkpt lat="45.97546" lon="4.63532">
        <ele>329</ele>
        <time>2018-07-07T09:16:44Z</time>
      </trkpt>
      <trkpt lat="45.97546" lon="4.63529">
        <ele>329</ele>
        <time>2018-07-07T09:16:45Z</time>
      </trkpt>
      <trkpt lat="45.97544" lon="4.63517">
        <ele>329</ele>
        <time>2018-07-07T09:16:48Z</time>
      </trkpt>
      <trkpt lat="45.97543" lon="4.63513">
        <ele>329</ele>
        <time>2018-07-07T09:16:49Z</time>
      </trkpt>
      <trkpt lat="45.97541" lon="4.63502">
        <ele>329</ele>
        <time>2018-07-07T09:16:52Z</time>
      </trkpt>
      <trkpt lat="45.9754" lon="4.63498">
        <ele>331</ele>
        <time>2018-07-07T09:16:53Z</time>
      </trkpt>
      <trkpt lat="45.97539" lon="4.63487">
        <ele>331</ele>
        <time>2018-07-07T09:16:56Z</time>
      </trkpt>
      <trkpt lat="45.97539" lon="4.63484">
        <ele>331</ele>
        <time>2018-07-07T09:16:57Z</time>
      </trkpt>
      <trkpt lat="45.97539" lon="4.63472">
        <ele>331</ele>
        <time>2018-07-07T09:17:00Z</time>
      </trkpt>
      <trkpt lat="45.97539" lon="4.63469">
        <ele>331</ele>
        <time>2018-07-07T09:17:01Z</time>
      </trkpt>
      <trkpt lat="45.97539" lon="4.63458">
        <ele>331</ele>
        <time>2018-07-07T09:17:04Z</time>
      </trkpt>
      <trkpt lat="45.97539" lon="4.63454">
        <ele>331</ele>
        <time>2018-07-07T09:17:05Z</time>
      </trkpt>
      <trkpt lat="45.97538" lon="4.63443">
        <ele>331</ele>
        <time>2018-07-07T09:17:08Z</time>
      </trkpt>
      <trkpt lat="45.97537" lon="4.63439">
        <ele>331</ele>
        <time>2018-07-07T09:17:09Z</time>
      </trkpt>
      <trkpt lat="45.97536" lon="4.63428">
        <ele>331</ele>
        <time>2018-07-07T09:17:12Z</time>
      </trkpt>
      <trkpt lat="45.97535" lon="4.63424">
        <ele>332</ele>
        <time>2018-07-07T09:17:13Z</time>
      </trkpt>
      <trkpt lat="45.97532" lon="4.63413">
        <ele>333</ele>
        <time>2018-07-07T09:17:16Z</time>
      </trkpt>
      <trkpt lat="45.97531" lon="4.63409">
        <ele>333</ele>
        <time>2018-07-07T09:17:17Z</time>
      </trkpt>
      <trkpt lat="45.97529" lon="4.63397">
        <ele>333</ele>
        <time>2018-07-07T09:17:20Z</time>
      </trkpt>
      <trkpt lat="45.97528" lon="4.63393">
        <ele>333</ele>
        <time>2018-07-07T09:17:21Z</time>
      </trkpt>
      <trkpt lat="45.97526" lon="4.63381">
        <ele>333</ele>
        <time>2018-07-07T09:17:24Z</time>
      </trkpt>
      <trkpt lat="45.97525" lon="4.63378">
        <ele>333</ele>
        <time>2018-07-07T09:17:25Z</time>
      </trkpt>
      <trkpt lat="45.97523" lon="4.63367">
        <ele>333</ele>
        <time>2018-07-07T09:17:28Z</time>
      </trkpt>
      <trkpt lat="45.97523" lon="4.63363">
        <ele>334</ele>
        <time>2018-07-07T09:17:29Z</time>
      </trkpt>
      <trkpt lat="45.97522" lon="4.63353">
        <ele>334</ele>
        <time>2018-07-07T09:17:32Z</time>
      </trkpt>
      <trkpt lat="45.97521" lon="4.6335">
        <ele>334</ele>
        <time>2018-07-07T09:17:33Z</time>
      </trkpt>
      <trkpt lat="45.9752" lon="4.6334">
        <ele>335</ele>
        <time>2018-07-07T09:17:36Z</time>
      </trkpt>
      <trkpt lat="45.9752" lon="4.63336">
        <ele>335</ele>
        <time>2018-07-07T09:17:37Z</time>
      </trkpt>
      <trkpt lat="45.97518" lon="4.63326">
        <ele>336</ele>
        <time>2018-07-07T09:17:40Z</time>
      </trkpt>
      <trkpt lat="45.97518" lon="4.63322">
        <ele>335</ele>
        <time>2018-07-07T09:17:41Z</time>
      </trkpt>
      <trkpt lat="45.97517" lon="4.63311">
        <ele>335</ele>
        <time>2018-07-07T09:17:44Z</time>
      </trkpt>
      <trkpt lat="45.97516" lon="4.63307">
        <ele>335</ele>
        <time>2018-07-07T09:17:45Z</time>
      </trkpt>
      <trkpt lat="45.97515" lon="4.63296">
        <ele>335</ele>
        <time>2018-07-07T09:17:48Z</time>
      </trkpt>
      <trkpt lat="45.97515" lon="4.63293">
        <ele>335</ele>
        <time>2018-07-07T09:17:49Z</time>
      </trkpt>
      <trkpt lat="45.97515" lon="4.63281">
        <ele>335</ele>
        <time>2018-07-07T09:17:52Z</time>
      </trkpt>
      <trkpt lat="45.97514" lon="4.63277">
        <ele>335</ele>
        <time>2018-07-07T09:17:53Z</time>
      </trkpt>
      <trkpt lat="45.97512" lon="4.63267">
        <ele>336</ele>
        <time>2018-07-07T09:17:56Z</time>
      </trkpt>
      <trkpt lat="45.97512" lon="4.63263">
        <ele>336</ele>
        <time>2018-07-07T09:17:57Z</time>
      </trkpt>
      <trkpt lat="45.9751" lon="4.63252">
        <ele>337</ele>
        <time>2018-07-07T09:18:00Z</time>
      </trkpt>
      <trkpt lat="45.9751" lon="4.63248">
        <ele>338</ele>
        <time>2018-07-07T09:18:01Z</time>
      </trkpt>
      <trkpt lat="45.97509" lon="4.63237">
        <ele>337</ele>
        <time>2018-07-07T09:18:04Z</time>
      </trkpt>
      <trkpt lat="45.97509" lon="4.63233">
        <ele>337</ele>
        <time>2018-07-07T09:18:05Z</time>
      </trkpt>
      <trkpt lat="45.97507" lon="4.63222">
        <ele>336</ele>
        <time>2018-07-07T09:18:08Z</time>
      </trkpt>
      <trkpt lat="45.97507" lon="4.63219">
        <ele>336</ele>
        <time>2018-07-07T09:18:09Z</time>
      </trkpt>
      <trkpt lat="45.97506" lon="4.63207">
        <ele>336</ele>
        <time>2018-07-07T09:18:12Z</time>
      </trkpt>
      <trkpt lat="45.97505" lon="4.63204">
        <ele>336</ele>
        <time>2018-07-07T09:18:13Z</time>
      </trkpt>
      <trkpt lat="45.97504" lon="4.63192">
        <ele>337</ele>
        <time>2018-07-07T09:18:16Z</time>
      </trkpt>
      <trkpt lat="45.97503" lon="4.63188">
        <ele>337</ele>
        <time>2018-07-07T09:18:17Z</time>
      </trkpt>
      <trkpt lat="45.97501" lon="4.63179">
        <ele>337</ele>
        <time>2018-07-07T09:18:19Z</time>
      </trkpt>
      <trkpt lat="45.975" lon="4.63175">
        <ele>340</ele>
        <time>2018-07-07T09:18:20Z</time>
      </trkpt>
      <trkpt lat="45.97498" lon="4.63163">
        <ele>340</ele>
        <time>2018-07-07T09:18:23Z</time>
      </trkpt>
      <trkpt lat="45.97497" lon="4.63159">
        <ele>340</ele>
        <time>2018-07-07T09:18:24Z</time>
      </trkpt>
      <trkpt lat="45.97497" lon="4.63149">
        <ele>341</ele>
        <time>2018-07-07T09:18:26Z</time>
      </trkpt>
      <trkpt lat="45.97497" lon="4.63145">
        <ele>341</ele>
        <time>2018-07-07T09:18:27Z</time>
      </trkpt>
      <trkpt lat="45.97496" lon="4.63132">
        <ele>342</ele>
        <time>2018-07-07T09:18:30Z</time>
      </trkpt>
      <trkpt lat="45.97496" lon="4.63129">
        <ele>342</ele>
        <time>2018-07-07T09:18:31Z</time>
      </trkpt>
      <trkpt lat="45.97495" lon="4.6312">
        <ele>342</ele>
        <time>2018-07-07T09:18:33Z</time>
      </trkpt>
      <trkpt lat="45.97494" lon="4.63115">
        <ele>342</ele>
        <time>2018-07-07T09:18:34Z</time>
      </trkpt>
      <trkpt lat="45.97493" lon="4.63107">
        <ele>342</ele>
        <time>2018-07-07T09:18:36Z</time>
      </trkpt>
      <trkpt lat="45.97493" lon="4.63102">
        <ele>342</ele>
        <time>2018-07-07T09:18:37Z</time>
      </trkpt>
      <trkpt lat="45.97492" lon="4.63088">
        <ele>341</ele>
        <time>2018-07-07T09:18:38Z</time>
      </trkpt>
      <trkpt lat="45.97491" lon="4.63077">
        <ele>342</ele>
        <time>2018-07-07T09:18:41Z</time>
      </trkpt>
      <trkpt lat="45.9749" lon="4.63074">
        <ele>342</ele>
        <time>2018-07-07T09:18:42Z</time>
      </trkpt>
      <trkpt lat="45.97489" lon="4.63062">
        <ele>343</ele>
        <time>2018-07-07T09:18:45Z</time>
      </trkpt>
      <trkpt lat="45.97488" lon="4.63059">
        <ele>344</ele>
        <time>2018-07-07T09:18:46Z</time>
      </trkpt>
      <trkpt lat="45.97488" lon="4.63047">
        <ele>344</ele>
        <time>2018-07-07T09:18:49Z</time>
      </trkpt>
      <trkpt lat="45.97488" lon="4.63042">
        <ele>344</ele>
        <time>2018-07-07T09:18:50Z</time>
      </trkpt>
      <trkpt lat="45.97487" lon="4.63033">
        <ele>344</ele>
        <time>2018-07-07T09:18:52Z</time>
      </trkpt>
      <trkpt lat="45.97486" lon="4.63028">
        <ele>344</ele>
        <time>2018-07-07T09:18:53Z</time>
      </trkpt>
      <trkpt lat="45.97485" lon="4.63023">
        <ele>344</ele>
        <time>2018-07-07T09:18:54Z</time>
      </trkpt>
      <trkpt lat="45.97482" lon="4.63008">
        <ele>344</ele>
        <time>2018-07-07T09:18:55Z</time>
      </trkpt>
      <trkpt lat="45.9748" lon="4.62998">
        <ele>345</ele>
        <time>2018-07-07T09:18:57Z</time>
      </trkpt>
      <trkpt lat="45.97479" lon="4.62992">
        <ele>345</ele>
        <time>2018-07-07T09:18:58Z</time>
      </trkpt>
      <trkpt lat="45.97477" lon="4.62982">
        <ele>345</ele>
        <time>2018-07-07T09:19:00Z</time>
      </trkpt>
      <trkpt lat="45.97476" lon="4.62977">
        <ele>345</ele>
        <time>2018-07-07T09:19:01Z</time>
      </trkpt>
      <trkpt lat="45.97474" lon="4.62971">
        <ele>345</ele>
        <time>2018-07-07T09:19:03Z</time>
      </trkpt>
      <trkpt lat="45.97472" lon="4.62962">
        <ele>345</ele>
        <time>2018-07-07T09:19:04Z</time>
      </trkpt>
      <trkpt lat="45.9747" lon="4.62952">
        <ele>345</ele>
        <time>2018-07-07T09:19:07Z</time>
      </trkpt>
      <trkpt lat="45.97469" lon="4.62948">
        <ele>345</ele>
        <time>2018-07-07T09:19:08Z</time>
      </trkpt>
      <trkpt lat="45.97468" lon="4.62945">
        <ele>345</ele>
        <time>2018-07-07T09:19:09Z</time>
      </trkpt>
      <trkpt lat="45.97466" lon="4.62934">
        <ele>345</ele>
        <time>2018-07-07T09:19:10Z</time>
      </trkpt>
      <trkpt lat="45.97463" lon="4.62924">
        <ele>345</ele>
        <time>2018-07-07T09:19:12Z</time>
      </trkpt>
      <trkpt lat="45.97463" lon="4.62922">
        <ele>345</ele>
        <time>2018-07-07T09:19:13Z</time>
      </trkpt>
      <trkpt lat="45.97461" lon="4.62911">
        <ele>345</ele>
        <time>2018-07-07T09:19:15Z</time>
      </trkpt>
      <trkpt lat="45.9746" lon="4.62904">
        <ele>345</ele>
        <time>2018-07-07T09:19:16Z</time>
      </trkpt>
      <trkpt lat="45.97458" lon="4.62898">
        <ele>345</ele>
        <time>2018-07-07T09:19:18Z</time>
      </trkpt>
      <trkpt lat="45.97457" lon="4.62889">
        <ele>345</ele>
        <time>2018-07-07T09:19:19Z</time>
      </trkpt>
      <trkpt lat="45.97455" lon="4.6288">
        <ele>346</ele>
        <time>2018-07-07T09:19:22Z</time>
      </trkpt>
      <trkpt lat="45.97454" lon="4.62876">
        <ele>346</ele>
        <time>2018-07-07T09:19:23Z</time>
      </trkpt>
      <trkpt lat="45.97452" lon="4.62865">
        <ele>346</ele>
        <time>2018-07-07T09:19:26Z</time>
      </trkpt>
      <trkpt lat="45.97451" lon="4.6286">
        <ele>346</ele>
        <time>2018-07-07T09:19:27Z</time>
      </trkpt>
      <trkpt lat="45.97451" lon="4.62856">
        <ele>346</ele>
        <time>2018-07-07T09:19:28Z</time>
      </trkpt>
      <trkpt lat="45.9745" lon="4.62842">
        <ele>346</ele>
        <time>2018-07-07T09:19:29Z</time>
      </trkpt>
      <trkpt lat="45.97447" lon="4.6283">
        <ele>347</ele>
        <time>2018-07-07T09:19:33Z</time>
      </trkpt>
      <trkpt lat="45.97446" lon="4.62826">
        <ele>347</ele>
        <time>2018-07-07T09:19:34Z</time>
      </trkpt>
      <trkpt lat="45.97444" lon="4.62813">
        <ele>347</ele>
        <time>2018-07-07T09:19:37Z</time>
      </trkpt>
      <trkpt lat="45.97443" lon="4.62809">
        <ele>347</ele>
        <time>2018-07-07T09:19:38Z</time>
      </trkpt>
      <trkpt lat="45.97442" lon="4.62798">
        <ele>347</ele>
        <time>2018-07-07T09:19:41Z</time>
      </trkpt>
      <trkpt lat="45.97441" lon="4.62794">
        <ele>347</ele>
        <time>2018-07-07T09:19:42Z</time>
      </trkpt>
      <trkpt lat="45.97439" lon="4.62786">
        <ele>348</ele>
        <time>2018-07-07T09:19:44Z</time>
      </trkpt>
      <trkpt lat="45.97438" lon="4.62781">
        <ele>348</ele>
        <time>2018-07-07T09:19:45Z</time>
      </trkpt>
      <trkpt lat="45.97436" lon="4.62773">
        <ele>348</ele>
        <time>2018-07-07T09:19:47Z</time>
      </trkpt>
      <trkpt lat="45.97435" lon="4.62768">
        <ele>349</ele>
        <time>2018-07-07T09:19:48Z</time>
      </trkpt>
      <trkpt lat="45.97432" lon="4.6276">
        <ele>349</ele>
        <time>2018-07-07T09:19:50Z</time>
      </trkpt>
      <trkpt lat="45.9743" lon="4.62756">
        <ele>350</ele>
        <time>2018-07-07T09:19:51Z</time>
      </trkpt>
      <trkpt lat="45.97427" lon="4.62748">
        <ele>350</ele>
        <time>2018-07-07T09:19:53Z</time>
      </trkpt>
      <trkpt lat="45.97426" lon="4.62744">
        <ele>350</ele>
        <time>2018-07-07T09:19:54Z</time>
      </trkpt>
      <trkpt lat="45.97423" lon="4.62736">
        <ele>350</ele>
        <time>2018-07-07T09:19:56Z</time>
      </trkpt>
      <trkpt lat="45.97422" lon="4.62732">
        <ele>350</ele>
        <time>2018-07-07T09:19:57Z</time>
      </trkpt>
      <trkpt lat="45.9742" lon="4.62723">
        <ele>350</ele>
        <time>2018-07-07T09:19:59Z</time>
      </trkpt>
      <trkpt lat="45.97418" lon="4.62719">
        <ele>350</ele>
        <time>2018-07-07T09:20:00Z</time>
      </trkpt>
      <trkpt lat="45.97416" lon="4.62711">
        <ele>354</ele>
        <time>2018-07-07T09:20:02Z</time>
      </trkpt>
      <trkpt lat="45.97415" lon="4.62707">
        <ele>354</ele>
        <time>2018-07-07T09:20:03Z</time>
      </trkpt>
      <trkpt lat="45.97413" lon="4.62696">
        <ele>354</ele>
        <time>2018-07-07T09:20:06Z</time>
      </trkpt>
      <trkpt lat="45.97413" lon="4.62693">
        <ele>354</ele>
        <time>2018-07-07T09:20:07Z</time>
      </trkpt>
      <trkpt lat="45.97412" lon="4.62682">
        <ele>354</ele>
        <time>2018-07-07T09:20:10Z</time>
      </trkpt>
      <trkpt lat="45.97411" lon="4.62678">
        <ele>354</ele>
        <time>2018-07-07T09:20:11Z</time>
      </trkpt>
      <trkpt lat="45.97409" lon="4.62666">
        <ele>354</ele>
        <time>2018-07-07T09:20:14Z</time>
      </trkpt>
      <trkpt lat="45.97408" lon="4.62663">
        <ele>354</ele>
        <time>2018-07-07T09:20:15Z</time>
      </trkpt>
      <trkpt lat="45.97407" lon="4.62653">
        <ele>355</ele>
        <time>2018-07-07T09:20:18Z</time>
      </trkpt>
      <trkpt lat="45.97407" lon="4.6265">
        <ele>355</ele>
        <time>2018-07-07T09:20:19Z</time>
      </trkpt>
      <trkpt lat="45.97406" lon="4.62639">
        <ele>356</ele>
        <time>2018-07-07T09:20:22Z</time>
      </trkpt>
      <trkpt lat="45.97405" lon="4.62636">
        <ele>356</ele>
        <time>2018-07-07T09:20:23Z</time>
      </trkpt>
      <trkpt lat="45.97403" lon="4.62625">
        <ele>356</ele>
        <time>2018-07-07T09:20:26Z</time>
      </trkpt>
      <trkpt lat="45.97402" lon="4.62621">
        <ele>357</ele>
        <time>2018-07-07T09:20:27Z</time>
      </trkpt>
      <trkpt lat="45.974" lon="4.6261">
        <ele>357</ele>
        <time>2018-07-07T09:20:30Z</time>
      </trkpt>
      <trkpt lat="45.97399" lon="4.62607">
        <ele>357</ele>
        <time>2018-07-07T09:20:31Z</time>
      </trkpt>
      <trkpt lat="45.97398" lon="4.62595">
        <ele>357</ele>
        <time>2018-07-07T09:20:34Z</time>
      </trkpt>
      <trkpt lat="45.97398" lon="4.62592">
        <ele>357</ele>
        <time>2018-07-07T09:20:35Z</time>
      </trkpt>
      <trkpt lat="45.97397" lon="4.6258">
        <ele>359</ele>
        <time>2018-07-07T09:20:38Z</time>
      </trkpt>
      <trkpt lat="45.97397" lon="4.62576">
        <ele>359</ele>
        <time>2018-07-07T09:20:39Z</time>
      </trkpt>
      <trkpt lat="45.97398" lon="4.62565">
        <ele>359</ele>
        <time>2018-07-07T09:20:42Z</time>
      </trkpt>
      <trkpt lat="45.97398" lon="4.62561">
        <ele>360</ele>
        <time>2018-07-07T09:20:43Z</time>
      </trkpt>
      <trkpt lat="45.97398" lon="4.62549">
        <ele>360</ele>
        <time>2018-07-07T09:20:46Z</time>
      </trkpt>
      <trkpt lat="45.97398" lon="4.62546">
        <ele>360</ele>
        <time>2018-07-07T09:20:47Z</time>
      </trkpt>
      <trkpt lat="45.97398" lon="4.62534">
        <ele>360</ele>
        <time>2018-07-07T09:20:50Z</time>
      </trkpt>
      <trkpt lat="45.97398" lon="4.6253">
        <ele>361</ele>
        <time>2018-07-07T09:20:51Z</time>
      </trkpt>
      <trkpt lat="45.97398" lon="4.62518">
        <ele>361</ele>
        <time>2018-07-07T09:20:54Z</time>
      </trkpt>
      <trkpt lat="45.97398" lon="4.62514">
        <ele>361</ele>
        <time>2018-07-07T09:20:55Z</time>
      </trkpt>
      <trkpt lat="45.97399" lon="4.62502">
        <ele>360</ele>
        <time>2018-07-07T09:20:58Z</time>
      </trkpt>
      <trkpt lat="45.97399" lon="4.62498">
        <ele>362</ele>
        <time>2018-07-07T09:20:59Z</time>
      </trkpt>
      <trkpt lat="45.97401" lon="4.62488">
        <ele>363</ele>
        <time>2018-07-07T09:21:02Z</time>
      </trkpt>
      <trkpt lat="45.97401" lon="4.62484">
        <ele>363</ele>
        <time>2018-07-07T09:21:03Z</time>
      </trkpt>
      <trkpt lat="45.97403" lon="4.62474">
        <ele>364</ele>
        <time>2018-07-07T09:21:06Z</time>
      </trkpt>
      <trkpt lat="45.97404" lon="4.62471">
        <ele>364</ele>
        <time>2018-07-07T09:21:07Z</time>
      </trkpt>
      <trkpt lat="45.97406" lon="4.62461">
        <ele>364</ele>
        <time>2018-07-07T09:21:10Z</time>
      </trkpt>
      <trkpt lat="45.97407" lon="4.62458">
        <ele>364</ele>
        <time>2018-07-07T09:21:11Z</time>
      </trkpt>
      <trkpt lat="45.97409" lon="4.62447">
        <ele>364</ele>
        <time>2018-07-07T09:21:14Z</time>
      </trkpt>
      <trkpt lat="45.97409" lon="4.62444">
        <ele>364</ele>
        <time>2018-07-07T09:21:15Z</time>
      </trkpt>
      <trkpt lat="45.97411" lon="4.62434">
        <ele>364</ele>
        <time>2018-07-07T09:21:18Z</time>
      </trkpt>
      <trkpt lat="45.97412" lon="4.6243">
        <ele>364</ele>
        <time>2018-07-07T09:21:19Z</time>
      </trkpt>
      <trkpt lat="45.97414" lon="4.6242">
        <ele>363</ele>
        <time>2018-07-07T09:21:22Z</time>
      </trkpt>
      <trkpt lat="45.97415" lon="4.62416">
        <ele>364</ele>
        <time>2018-07-07T09:21:23Z</time>
      </trkpt>
      <trkpt lat="45.97417" lon="4.62406">
        <ele>365</ele>
        <time>2018-07-07T09:21:26Z</time>
      </trkpt>
      <trkpt lat="45.97417" lon="4.62403">
        <ele>362</ele>
        <time>2018-07-07T09:21:27Z</time>
      </trkpt>
      <trkpt lat="45.97419" lon="4.62392">
        <ele>362</ele>
        <time>2018-07-07T09:21:30Z</time>
      </trkpt>
      <trkpt lat="45.9742" lon="4.62389">
        <ele>362</ele>
        <time>2018-07-07T09:21:31Z</time>
      </trkpt>
      <trkpt lat="45.97421" lon="4.62376">
        <ele>363</ele>
        <time>2018-07-07T09:21:35Z</time>
      </trkpt>
      <trkpt lat="45.97421" lon="4.62373">
        <ele>363</ele>
        <time>2018-07-07T09:21:36Z</time>
      </trkpt>
      <trkpt lat="45.97421" lon="4.62363">
        <ele>363</ele>
        <time>2018-07-07T09:21:39Z</time>
      </trkpt>
      <trkpt lat="45.97421" lon="4.62359">
        <ele>364</ele>
        <time>2018-07-07T09:21:40Z</time>
      </trkpt>
      <trkpt lat="45.97421" lon="4.62349">
        <ele>365</ele>
        <time>2018-07-07T09:21:43Z</time>
      </trkpt>
      <trkpt lat="45.97421" lon="4.62346">
        <ele>365</ele>
        <time>2018-07-07T09:21:44Z</time>
      </trkpt>
      <trkpt lat="45.97422" lon="4.62336">
        <ele>367</ele>
        <time>2018-07-07T09:21:47Z</time>
      </trkpt>
      <trkpt lat="45.97422" lon="4.62332">
        <ele>367</ele>
        <time>2018-07-07T09:21:48Z</time>
      </trkpt>
      <trkpt lat="45.97422" lon="4.62322">
        <ele>367</ele>
        <time>2018-07-07T09:21:51Z</time>
      </trkpt>
      <trkpt lat="45.97422" lon="4.62318">
        <ele>367</ele>
        <time>2018-07-07T09:21:52Z</time>
      </trkpt>
      <trkpt lat="45.97422" lon="4.62308">
        <ele>367</ele>
        <time>2018-07-07T09:21:55Z</time>
      </trkpt>
      <trkpt lat="45.97422" lon="4.62304">
        <ele>367</ele>
        <time>2018-07-07T09:21:56Z</time>
      </trkpt>
      <trkpt lat="45.97423" lon="4.62294">
        <ele>367</ele>
        <time>2018-07-07T09:21:59Z</time>
      </trkpt>
      <trkpt lat="45.97424" lon="4.6229">
        <ele>367</ele>
        <time>2018-07-07T09:22:00Z</time>
      </trkpt>
      <trkpt lat="45.97426" lon="4.62281">
        <ele>367</ele>
        <time>2018-07-07T09:22:03Z</time>
      </trkpt>
      <trkpt lat="45.97427" lon="4.62278">
        <ele>367</ele>
        <time>2018-07-07T09:22:04Z</time>
      </trkpt>
      <trkpt lat="45.97428" lon="4.62268">
        <ele>368</ele>
        <time>2018-07-07T09:22:07Z</time>
      </trkpt>
      <trkpt lat="45.97428" lon="4.62265">
        <ele>368</ele>
        <time>2018-07-07T09:22:08Z</time>
      </trkpt>
      <trkpt lat="45.97427" lon="4.62253">
        <ele>369</ele>
        <time>2018-07-07T09:22:11Z</time>
      </trkpt>
      <trkpt lat="45.97427" lon="4.6225">
        <ele>371</ele>
        <time>2018-07-07T09:22:12Z</time>
      </trkpt>
      <trkpt lat="45.97429" lon="4.6224">
        <ele>370</ele>
        <time>2018-07-07T09:22:15Z</time>
      </trkpt>
      <trkpt lat="45.9743" lon="4.62237">
        <ele>370</ele>
        <time>2018-07-07T09:22:16Z</time>
      </trkpt>
      <trkpt lat="45.97433" lon="4.62225">
        <ele>370</ele>
        <time>2018-07-07T09:22:20Z</time>
      </trkpt>
      <trkpt lat="45.97434" lon="4.62222">
        <ele>370</ele>
        <time>2018-07-07T09:22:21Z</time>
      </trkpt>
      <trkpt lat="45.97434" lon="4.62212">
        <ele>371</ele>
        <time>2018-07-07T09:22:24Z</time>
      </trkpt>
      <trkpt lat="45.97434" lon="4.62208">
        <ele>371</ele>
        <time>2018-07-07T09:22:25Z</time>
      </trkpt>
      <trkpt lat="45.97434" lon="4.62198">
        <ele>371</ele>
        <time>2018-07-07T09:22:28Z</time>
      </trkpt>
      <trkpt lat="45.97434" lon="4.62194">
        <ele>371</ele>
        <time>2018-07-07T09:22:29Z</time>
      </trkpt>
      <trkpt lat="45.97434" lon="4.62184">
        <ele>372</ele>
        <time>2018-07-07T09:22:32Z</time>
      </trkpt>
      <trkpt lat="45.97435" lon="4.62181">
        <ele>372</ele>
        <time>2018-07-07T09:22:33Z</time>
      </trkpt>
      <trkpt lat="45.97436" lon="4.6217">
        <ele>372</ele>
        <time>2018-07-07T09:22:36Z</time>
      </trkpt>
      <trkpt lat="45.97437" lon="4.62167">
        <ele>372</ele>
        <time>2018-07-07T09:22:37Z</time>
      </trkpt>
      <trkpt lat="45.97437" lon="4.62157">
        <ele>375</ele>
        <time>2018-07-07T09:22:40Z</time>
      </trkpt>
      <trkpt lat="45.97437" lon="4.62154">
        <ele>375</ele>
        <time>2018-07-07T09:22:41Z</time>
      </trkpt>
      <trkpt lat="45.97437" lon="4.62144">
        <ele>375</ele>
        <time>2018-07-07T09:22:44Z</time>
      </trkpt>
      <trkpt lat="45.97437" lon="4.6214">
        <ele>375</ele>
        <time>2018-07-07T09:22:45Z</time>
      </trkpt>
      <trkpt lat="45.97439" lon="4.62128">
        <ele>376</ele>
        <time>2018-07-07T09:22:49Z</time>
      </trkpt>
      <trkpt lat="45.97439" lon="4.62125">
        <ele>376</ele>
        <time>2018-07-07T09:22:50Z</time>
      </trkpt>
      <trkpt lat="45.97441" lon="4.62112">
        <ele>376</ele>
        <time>2018-07-07T09:22:54Z</time>
      </trkpt>
      <trkpt lat="45.97441" lon="4.62109">
        <ele>377</ele>
        <time>2018-07-07T09:22:55Z</time>
      </trkpt>
      <trkpt lat="45.97443" lon="4.621">
        <ele>377</ele>
        <time>2018-07-07T09:22:58Z</time>
      </trkpt>
      <trkpt lat="45.97444" lon="4.62097">
        <ele>377</ele>
        <time>2018-07-07T09:22:59Z</time>
      </trkpt>
      <trkpt lat="45.97445" lon="4.62085">
        <ele>377</ele>
        <time>2018-07-07T09:23:03Z</time>
      </trkpt>
      <trkpt lat="45.97445" lon="4.62081">
        <ele>379</ele>
        <time>2018-07-07T09:23:04Z</time>
      </trkpt>
      <trkpt lat="45.97446" lon="4.62071">
        <ele>379</ele>
        <time>2018-07-07T09:23:07Z</time>
      </trkpt>
      <trkpt lat="45.97446" lon="4.62068">
        <ele>379</ele>
        <time>2018-07-07T09:23:08Z</time>
      </trkpt>
      <trkpt lat="45.97448" lon="4.62058">
        <ele>379</ele>
        <time>2018-07-07T09:23:11Z</time>
      </trkpt>
      <trkpt lat="45.97448" lon="4.62055">
        <ele>379</ele>
        <time>2018-07-07T09:23:12Z</time>
      </trkpt>
      <trkpt lat="45.97447" lon="4.62043">
        <ele>379</ele>
        <time>2018-07-07T09:23:16Z</time>
      </trkpt>
      <trkpt lat="45.97447" lon="4.6204">
        <ele>379</ele>
        <time>2018-07-07T09:23:17Z</time>
      </trkpt>
      <trkpt lat="45.97447" lon="4.62028">
        <ele>379</ele>
        <time>2018-07-07T09:23:21Z</time>
      </trkpt>
      <trkpt lat="45.97447" lon="4.62024">
        <ele>379</ele>
        <time>2018-07-07T09:23:22Z</time>
      </trkpt>
      <trkpt lat="45.97445" lon="4.62015">
        <ele>379</ele>
        <time>2018-07-07T09:23:25Z</time>
      </trkpt>
      <trkpt lat="45.97445" lon="4.62011">
        <ele>379</ele>
        <time>2018-07-07T09:23:26Z</time>
      </trkpt>
      <trkpt lat="45.97444" lon="4.61999">
        <ele>380</ele>
        <time>2018-07-07T09:23:30Z</time>
      </trkpt>
      <trkpt lat="45.97444" lon="4.61996">
        <ele>380</ele>
        <time>2018-07-07T09:23:31Z</time>
      </trkpt>
      <trkpt lat="45.97444" lon="4.61986">
        <ele>380</ele>
        <time>2018-07-07T09:23:34Z</time>
      </trkpt>
      <trkpt lat="45.97444" lon="4.61983">
        <ele>380</ele>
        <time>2018-07-07T09:23:35Z</time>
      </trkpt>
      <trkpt lat="45.97441" lon="4.61973">
        <ele>380</ele>
        <time>2018-07-07T09:23:38Z</time>
      </trkpt>
      <trkpt lat="45.97441" lon="4.61969">
        <ele>380</ele>
        <time>2018-07-07T09:23:39Z</time>
      </trkpt>
      <trkpt lat="45.97441" lon="4.61959">
        <ele>380</ele>
        <time>2018-07-07T09:23:42Z</time>
      </trkpt>
      <trkpt lat="45.97441" lon="4.61955">
        <ele>380</ele>
        <time>2018-07-07T09:23:43Z</time>
      </trkpt>
      <trkpt lat="45.97442" lon="4.61943">
        <ele>381</ele>
        <time>2018-07-07T09:23:46Z</time>
      </trkpt>
      <trkpt lat="45.97442" lon="4.61939">
        <ele>381</ele>
        <time>2018-07-07T09:23:47Z</time>
      </trkpt>
      <trkpt lat="45.97442" lon="4.61927">
        <ele>381</ele>
        <time>2018-07-07T09:23:51Z</time>
      </trkpt>
      <trkpt lat="45.97441" lon="4.61924">
        <ele>381</ele>
        <time>2018-07-07T09:23:52Z</time>
      </trkpt>
      <trkpt lat="45.9744" lon="4.61914">
        <ele>383</ele>
        <time>2018-07-07T09:23:55Z</time>
      </trkpt>
      <trkpt lat="45.9744" lon="4.61911">
        <ele>383</ele>
        <time>2018-07-07T09:23:56Z</time>
      </trkpt>
      <trkpt lat="45.97438" lon="4.619">
        <ele>383</ele>
        <time>2018-07-07T09:23:59Z</time>
      </trkpt>
      <trkpt lat="45.97437" lon="4.61896">
        <ele>383</ele>
        <time>2018-07-07T09:24:00Z</time>
      </trkpt>
      <trkpt lat="45.97435" lon="4.61886">
        <ele>383</ele>
        <time>2018-07-07T09:24:03Z</time>
      </trkpt>
      <trkpt lat="45.97434" lon="4.61882">
        <ele>383</ele>
        <time>2018-07-07T09:24:04Z</time>
      </trkpt>
      <trkpt lat="45.97432" lon="4.61872">
        <ele>384</ele>
        <time>2018-07-07T09:24:07Z</time>
      </trkpt>
      <trkpt lat="45.97432" lon="4.61868">
        <ele>384</ele>
        <time>2018-07-07T09:24:08Z</time>
      </trkpt>
      <trkpt lat="45.97431" lon="4.61858">
        <ele>384</ele>
        <time>2018-07-07T09:24:11Z</time>
      </trkpt>
      <trkpt lat="45.97431" lon="4.61855">
        <ele>384</ele>
        <time>2018-07-07T09:24:12Z</time>
      </trkpt>
      <trkpt lat="45.97431" lon="4.61845">
        <ele>385</ele>
        <time>2018-07-07T09:24:15Z</time>
      </trkpt>
      <trkpt lat="45.97431" lon="4.61842">
        <ele>385</ele>
        <time>2018-07-07T09:24:16Z</time>
      </trkpt>
      <trkpt lat="45.97431" lon="4.61829">
        <ele>387</ele>
        <time>2018-07-07T09:24:20Z</time>
      </trkpt>
      <trkpt lat="45.97431" lon="4.61826">
        <ele>387</ele>
        <time>2018-07-07T09:24:21Z</time>
      </trkpt>
      <trkpt lat="45.97432" lon="4.61814">
        <ele>387</ele>
        <time>2018-07-07T09:24:25Z</time>
      </trkpt>
      <trkpt lat="45.97432" lon="4.6181">
        <ele>387</ele>
        <time>2018-07-07T09:24:26Z</time>
      </trkpt>
      <trkpt lat="45.97434" lon="4.61801">
        <ele>387</ele>
        <time>2018-07-07T09:24:29Z</time>
      </trkpt>
      <trkpt lat="45.97435" lon="4.61798">
        <ele>387</ele>
        <time>2018-07-07T09:24:30Z</time>
      </trkpt>
      <trkpt lat="45.97439" lon="4.61787">
        <ele>387</ele>
        <time>2018-07-07T09:24:34Z</time>
      </trkpt>
      <trkpt lat="45.9744" lon="4.61784">
        <ele>387</ele>
        <time>2018-07-07T09:24:35Z</time>
      </trkpt>
      <trkpt lat="45.97444" lon="4.61773">
        <ele>387</ele>
        <time>2018-07-07T09:24:39Z</time>
      </trkpt>
      <trkpt lat="45.97445" lon="4.6177">
        <ele>387</ele>
        <time>2018-07-07T09:24:40Z</time>
      </trkpt>
      <trkpt lat="45.97447" lon="4.61759">
        <ele>388</ele>
        <time>2018-07-07T09:24:44Z</time>
      </trkpt>
      <trkpt lat="45.97448" lon="4.61755">
        <ele>388</ele>
        <time>2018-07-07T09:24:45Z</time>
      </trkpt>
      <trkpt lat="45.97449" lon="4.61746">
        <ele>390</ele>
        <time>2018-07-07T09:24:48Z</time>
      </trkpt>
      <trkpt lat="45.9745" lon="4.61743">
        <ele>390</ele>
        <time>2018-07-07T09:24:49Z</time>
      </trkpt>
      <trkpt lat="45.97452" lon="4.61733">
        <ele>390</ele>
        <time>2018-07-07T09:24:52Z</time>
      </trkpt>
      <trkpt lat="45.97453" lon="4.61729">
        <ele>390</ele>
        <time>2018-07-07T09:24:53Z</time>
      </trkpt>
      <trkpt lat="45.97454" lon="4.61718">
        <ele>390</ele>
        <time>2018-07-07T09:24:56Z</time>
      </trkpt>
      <trkpt lat="45.97455" lon="4.61713">
        <ele>390</ele>
        <time>2018-07-07T09:24:57Z</time>
      </trkpt>
      <trkpt lat="45.97457" lon="4.61703">
        <ele>390</ele>
        <time>2018-07-07T09:25:00Z</time>
      </trkpt>
      <trkpt lat="45.97457" lon="4.61699">
        <ele>390</ele>
        <time>2018-07-07T09:25:01Z</time>
      </trkpt>
      <trkpt lat="45.97459" lon="4.61687">
        <ele>390</ele>
        <time>2018-07-07T09:25:05Z</time>
      </trkpt>
      <trkpt lat="45.97459" lon="4.61683">
        <ele>390</ele>
        <time>2018-07-07T09:25:06Z</time>
      </trkpt>
      <trkpt lat="45.9746" lon="4.61674">
        <ele>391</ele>
        <time>2018-07-07T09:25:09Z</time>
      </trkpt>
      <trkpt lat="45.97461" lon="4.6167">
        <ele>391</ele>
        <time>2018-07-07T09:25:10Z</time>
      </trkpt>
      <trkpt lat="45.97462" lon="4.6166">
        <ele>393</ele>
        <time>2018-07-07T09:25:13Z</time>
      </trkpt>
      <trkpt lat="45.97462" lon="4.61657">
        <ele>393</ele>
        <time>2018-07-07T09:25:14Z</time>
      </trkpt>
      <trkpt lat="45.97462" lon="4.61647">
        <ele>393</ele>
        <time>2018-07-07T09:25:17Z</time>
      </trkpt>
      <trkpt lat="45.97462" lon="4.61643">
        <ele>393</ele>
        <time>2018-07-07T09:25:18Z</time>
      </trkpt>
      <trkpt lat="45.97462" lon="4.6163">
        <ele>393</ele>
        <time>2018-07-07T09:25:21Z</time>
      </trkpt>
      <trkpt lat="45.97462" lon="4.61626">
        <ele>393</ele>
        <time>2018-07-07T09:25:22Z</time>
      </trkpt>
      <trkpt lat="45.97462" lon="4.61615">
        <ele>394</ele>
        <time>2018-07-07T09:25:25Z</time>
      </trkpt>
      <trkpt lat="45.97461" lon="4.61611">
        <ele>394</ele>
        <time>2018-07-07T09:25:26Z</time>
      </trkpt>
      <trkpt lat="45.9746" lon="4.616">
        <ele>394</ele>
        <time>2018-07-07T09:25:29Z</time>
      </trkpt>
      <trkpt lat="45.9746" lon="4.61595">
        <ele>394</ele>
        <time>2018-07-07T09:25:30Z</time>
      </trkpt>
      <trkpt lat="45.97461" lon="4.61582">
        <ele>395</ele>
        <time>2018-07-07T09:25:33Z</time>
      </trkpt>
      <trkpt lat="45.97461" lon="4.61579">
        <ele>395</ele>
        <time>2018-07-07T09:25:34Z</time>
      </trkpt>
      <trkpt lat="45.97461" lon="4.61574">
        <ele>395</ele>
        <time>2018-07-07T09:25:35Z</time>
      </trkpt>
      <trkpt lat="45.97462" lon="4.6156">
        <ele>395</ele>
        <time>2018-07-07T09:25:36Z</time>
      </trkpt>
      <trkpt lat="45.97462" lon="4.6155">
        <ele>395</ele>
        <time>2018-07-07T09:25:39Z</time>
      </trkpt>
      <trkpt lat="45.97462" lon="4.61546">
        <ele>395</ele>
        <time>2018-07-07T09:25:40Z</time>
      </trkpt>
      <trkpt lat="45.9746" lon="4.61534">
        <ele>395</ele>
        <time>2018-07-07T09:25:43Z</time>
      </trkpt>
      <trkpt lat="45.9746" lon="4.6153">
        <ele>395</ele>
        <time>2018-07-07T09:25:44Z</time>
      </trkpt>
      <trkpt lat="45.97459" lon="4.61522">
        <ele>395</ele>
        <time>2018-07-07T09:25:46Z</time>
      </trkpt>
      <trkpt lat="45.97457" lon="4.61509">
        <ele>396</ele>
        <time>2018-07-07T09:25:47Z</time>
      </trkpt>
      <trkpt lat="45.97456" lon="4.61498">
        <ele>395</ele>
        <time>2018-07-07T09:25:50Z</time>
      </trkpt>
      <trkpt lat="45.97455" lon="4.61494">
        <ele>395</ele>
        <time>2018-07-07T09:25:51Z</time>
      </trkpt>
      <trkpt lat="45.97455" lon="4.61487">
        <ele>395</ele>
        <time>2018-07-07T09:25:53Z</time>
      </trkpt>
      <trkpt lat="45.97454" lon="4.61475">
        <ele>395</ele>
        <time>2018-07-07T09:25:54Z</time>
      </trkpt>
      <trkpt lat="45.97453" lon="4.61464">
        <ele>395</ele>
        <time>2018-07-07T09:25:56Z</time>
      </trkpt>
      <trkpt lat="45.97452" lon="4.61459">
        <ele>395</ele>
        <time>2018-07-07T09:25:57Z</time>
      </trkpt>
      <trkpt lat="45.97449" lon="4.61447">
        <ele>395</ele>
        <time>2018-07-07T09:26:01Z</time>
      </trkpt>
      <trkpt lat="45.97448" lon="4.61443">
        <ele>395</ele>
        <time>2018-07-07T09:26:02Z</time>
      </trkpt>
      <trkpt lat="45.97447" lon="4.61437">
        <ele>395</ele>
        <time>2018-07-07T09:26:04Z</time>
      </trkpt>
      <trkpt lat="45.97444" lon="4.61425">
        <ele>395</ele>
        <time>2018-07-07T09:26:05Z</time>
      </trkpt>
      <trkpt lat="45.97442" lon="4.61414">
        <ele>394</ele>
        <time>2018-07-07T09:26:07Z</time>
      </trkpt>
      <trkpt lat="45.97441" lon="4.61411">
        <ele>394</ele>
        <time>2018-07-07T09:26:08Z</time>
      </trkpt>
      <trkpt lat="45.9744" lon="4.61401">
        <ele>394</ele>
        <time>2018-07-07T09:26:11Z</time>
      </trkpt>
      <trkpt lat="45.9744" lon="4.61397">
        <ele>394</ele>
        <time>2018-07-07T09:26:12Z</time>
      </trkpt>
      <trkpt lat="45.97439" lon="4.61389">
        <ele>394</ele>
        <time>2018-07-07T09:26:14Z</time>
      </trkpt>
      <trkpt lat="45.97438" lon="4.61384">
        <ele>394</ele>
        <time>2018-07-07T09:26:15Z</time>
      </trkpt>
      <trkpt lat="45.97436" lon="4.6137">
        <ele>393</ele>
        <time>2018-07-07T09:26:16Z</time>
      </trkpt>
      <trkpt lat="45.97433" lon="4.61359">
        <ele>393</ele>
        <time>2018-07-07T09:26:18Z</time>
      </trkpt>
      <trkpt lat="45.97432" lon="4.61354">
        <ele>394</ele>
        <time>2018-07-07T09:26:19Z</time>
      </trkpt>
      <trkpt lat="45.9743" lon="4.61342">
        <ele>394</ele>
        <time>2018-07-07T09:26:21Z</time>
      </trkpt>
      <trkpt lat="45.97429" lon="4.61336">
        <ele>394</ele>
        <time>2018-07-07T09:26:22Z</time>
      </trkpt>
      <trkpt lat="45.97427" lon="4.6133">
        <ele>393</ele>
        <time>2018-07-07T09:26:23Z</time>
      </trkpt>
      <trkpt lat="45.97421" lon="4.61325">
        <ele>393</ele>
        <time>2018-07-07T09:26:24Z</time>
      </trkpt>
      <trkpt lat="45.9742" lon="4.61319">
        <ele>392</ele>
        <time>2018-07-07T09:26:25Z</time>
      </trkpt>
      <trkpt lat="45.97417" lon="4.61313">
        <ele>392</ele>
        <time>2018-07-07T09:26:26Z</time>
      </trkpt>
      <trkpt lat="45.97415" lon="4.61305">
        <ele>397</ele>
        <time>2018-07-07T09:26:27Z</time>
      </trkpt>
      <trkpt lat="45.97412" lon="4.61298">
        <ele>397</ele>
        <time>2018-07-07T09:26:28Z</time>
      </trkpt>
      <trkpt lat="45.97411" lon="4.61291">
        <ele>397</ele>
        <time>2018-07-07T09:26:29Z</time>
      </trkpt>
      <trkpt lat="45.97411" lon="4.61284">
        <ele>397</ele>
        <time>2018-07-07T09:26:30Z</time>
      </trkpt>
      <trkpt lat="45.97409" lon="4.61276">
        <ele>396</ele>
        <time>2018-07-07T09:26:31Z</time>
      </trkpt>
      <trkpt lat="45.97406" lon="4.61269">
        <ele>396</ele>
        <time>2018-07-07T09:26:32Z</time>
      </trkpt>
      <trkpt lat="45.97405" lon="4.61262">
        <ele>395</ele>
        <time>2018-07-07T09:26:33Z</time>
      </trkpt>
      <trkpt lat="45.97403" lon="4.61254">
        <ele>395</ele>
        <time>2018-07-07T09:26:34Z</time>
      </trkpt>
      <trkpt lat="45.97401" lon="4.61246">
        <ele>394</ele>
        <time>2018-07-07T09:26:35Z</time>
      </trkpt>
      <trkpt lat="45.974" lon="4.6124">
        <ele>394</ele>
        <time>2018-07-07T09:26:36Z</time>
      </trkpt>
      <trkpt lat="45.97399" lon="4.61232">
        <ele>395</ele>
        <time>2018-07-07T09:26:37Z</time>
      </trkpt>
      <trkpt lat="45.97398" lon="4.61225">
        <ele>395</ele>
        <time>2018-07-07T09:26:38Z</time>
      </trkpt>
      <trkpt lat="45.97397" lon="4.61218">
        <ele>395</ele>
        <time>2018-07-07T09:26:39Z</time>
      </trkpt>
      <trkpt lat="45.97396" lon="4.6121">
        <ele>395</ele>
        <time>2018-07-07T09:26:40Z</time>
      </trkpt>
      <trkpt lat="45.97395" lon="4.61204">
        <ele>395</ele>
        <time>2018-07-07T09:26:41Z</time>
      </trkpt>
      <trkpt lat="45.97393" lon="4.61197">
        <ele>395</ele>
        <time>2018-07-07T09:26:42Z</time>
      </trkpt>
      <trkpt lat="45.97394" lon="4.61184">
        <ele>394</ele>
        <time>2018-07-07T09:26:44Z</time>
      </trkpt>
      <trkpt lat="45.97395" lon="4.61177">
        <ele>393</ele>
        <time>2018-07-07T09:26:45Z</time>
      </trkpt>
      <trkpt lat="45.97395" lon="4.61171">
        <ele>393</ele>
        <time>2018-07-07T09:26:46Z</time>
      </trkpt>
      <trkpt lat="45.97393" lon="4.61164">
        <ele>395</ele>
        <time>2018-07-07T09:26:47Z</time>
      </trkpt>
      <trkpt lat="45.97393" lon="4.61153">
        <ele>396</ele>
        <time>2018-07-07T09:26:50Z</time>
      </trkpt>
      <trkpt lat="45.97394" lon="4.61146">
        <ele>396</ele>
        <time>2018-07-07T09:26:51Z</time>
      </trkpt>
      <trkpt lat="45.97396" lon="4.61136">
        <ele>397</ele>
        <time>2018-07-07T09:26:53Z</time>
      </trkpt>
      <trkpt lat="45.97398" lon="4.61131">
        <ele>397</ele>
        <time>2018-07-07T09:26:54Z</time>
      </trkpt>
      <trkpt lat="45.97401" lon="4.61119">
        <ele>397</ele>
        <time>2018-07-07T09:26:57Z</time>
      </trkpt>
      <trkpt lat="45.97401" lon="4.61116">
        <ele>397</ele>
        <time>2018-07-07T09:26:58Z</time>
      </trkpt>
      <trkpt lat="45.97403" lon="4.61106">
        <ele>397</ele>
        <time>2018-07-07T09:26:59Z</time>
      </trkpt>
      <trkpt lat="45.97403" lon="4.61101">
        <ele>397</ele>
        <time>2018-07-07T09:27:00Z</time>
      </trkpt>
      <trkpt lat="45.97404" lon="4.61091">
        <ele>396</ele>
        <time>2018-07-07T09:27:03Z</time>
      </trkpt>
      <trkpt lat="45.97405" lon="4.61087">
        <ele>396</ele>
        <time>2018-07-07T09:27:04Z</time>
      </trkpt>
      <trkpt lat="45.97406" lon="4.61079">
        <ele>399</ele>
        <time>2018-07-07T09:27:06Z</time>
      </trkpt>
      <trkpt lat="45.97409" lon="4.61067">
        <ele>401</ele>
        <time>2018-07-07T09:27:07Z</time>
      </trkpt>
      <trkpt lat="45.97412" lon="4.61056">
        <ele>404</ele>
        <time>2018-07-07T09:27:11Z</time>
      </trkpt>
      <trkpt lat="45.97413" lon="4.61052">
        <ele>405</ele>
        <time>2018-07-07T09:27:12Z</time>
      </trkpt>
      <trkpt lat="45.97416" lon="4.6104">
        <ele>406</ele>
        <time>2018-07-07T09:27:15Z</time>
      </trkpt>
      <trkpt lat="45.97417" lon="4.61036">
        <ele>394</ele>
        <time>2018-07-07T09:27:16Z</time>
      </trkpt>
      <trkpt lat="45.9742" lon="4.61024">
        <ele>396</ele>
        <time>2018-07-07T09:27:20Z</time>
      </trkpt>
      <trkpt lat="45.97421" lon="4.6102">
        <ele>397</ele>
        <time>2018-07-07T09:27:21Z</time>
      </trkpt>
      <trkpt lat="45.97423" lon="4.61012">
        <ele>399</ele>
        <time>2018-07-07T09:27:23Z</time>
      </trkpt>
      <trkpt lat="45.97424" lon="4.61008">
        <ele>400</ele>
        <time>2018-07-07T09:27:24Z</time>
      </trkpt>
      <trkpt lat="45.97429" lon="4.60991">
        <ele>402</ele>
        <time>2018-07-07T09:27:25Z</time>
      </trkpt>
      <trkpt lat="45.97431" lon="4.6098">
        <ele>401</ele>
        <time>2018-07-07T09:27:27Z</time>
      </trkpt>
      <trkpt lat="45.97432" lon="4.60977">
        <ele>400</ele>
        <time>2018-07-07T09:27:28Z</time>
      </trkpt>
      <trkpt lat="45.97434" lon="4.60966">
        <ele>400</ele>
        <time>2018-07-07T09:27:30Z</time>
      </trkpt>
      <trkpt lat="45.97435" lon="4.60964">
        <ele>400</ele>
        <time>2018-07-07T09:27:31Z</time>
      </trkpt>
      <trkpt lat="45.97436" lon="4.60958">
        <ele>400</ele>
        <time>2018-07-07T09:27:33Z</time>
      </trkpt>
      <trkpt lat="45.97439" lon="4.60947">
        <ele>400</ele>
        <time>2018-07-07T09:27:34Z</time>
      </trkpt>
      <trkpt lat="45.97441" lon="4.60936">
        <ele>401</ele>
        <time>2018-07-07T09:27:36Z</time>
      </trkpt>
      <trkpt lat="45.97442" lon="4.60931">
        <ele>401</ele>
        <time>2018-07-07T09:27:37Z</time>
      </trkpt>
      <trkpt lat="45.97442" lon="4.6092">
        <ele>401</ele>
        <time>2018-07-07T09:27:39Z</time>
      </trkpt>
      <trkpt lat="45.97443" lon="4.60915">
        <ele>404</ele>
        <time>2018-07-07T09:27:40Z</time>
      </trkpt>
      <trkpt lat="45.97446" lon="4.60904">
        <ele>404</ele>
        <time>2018-07-07T09:27:42Z</time>
      </trkpt>
      <trkpt lat="45.97447" lon="4.60899">
        <ele>403</ele>
        <time>2018-07-07T09:27:43Z</time>
      </trkpt>
      <trkpt lat="45.97449" lon="4.60891">
        <ele>403</ele>
        <time>2018-07-07T09:27:45Z</time>
      </trkpt>
      <trkpt lat="45.97451" lon="4.60883">
        <ele>403</ele>
        <time>2018-07-07T09:27:46Z</time>
      </trkpt>
      <trkpt lat="45.97452" lon="4.60878">
        <ele>403</ele>
        <time>2018-07-07T09:27:48Z</time>
      </trkpt>
      <trkpt lat="45.97454" lon="4.6087">
        <ele>403</ele>
        <time>2018-07-07T09:27:49Z</time>
      </trkpt>
      <trkpt lat="45.97456" lon="4.60862">
        <ele>403</ele>
        <time>2018-07-07T09:27:51Z</time>
      </trkpt>
      <trkpt lat="45.97457" lon="4.60854">
        <ele>403</ele>
        <time>2018-07-07T09:27:52Z</time>
      </trkpt>
      <trkpt lat="45.97457" lon="4.60841">
        <ele>403</ele>
        <time>2018-07-07T09:27:54Z</time>
      </trkpt>
      <trkpt lat="45.9746" lon="4.60836">
        <ele>403</ele>
        <time>2018-07-07T09:27:55Z</time>
      </trkpt>
      <trkpt lat="45.97463" lon="4.60829">
        <ele>404</ele>
        <time>2018-07-07T09:27:56Z</time>
      </trkpt>
      <trkpt lat="45.97465" lon="4.60824">
        <ele>404</ele>
        <time>2018-07-07T09:27:57Z</time>
      </trkpt>
      <trkpt lat="45.97467" lon="4.60812">
        <ele>404</ele>
        <time>2018-07-07T09:27:59Z</time>
      </trkpt>
      <trkpt lat="45.97467" lon="4.60805">
        <ele>404</ele>
        <time>2018-07-07T09:28:00Z</time>
      </trkpt>
      <trkpt lat="45.97468" lon="4.60798">
        <ele>404</ele>
        <time>2018-07-07T09:28:01Z</time>
      </trkpt>
      <trkpt lat="45.97468" lon="4.60792">
        <ele>404</ele>
        <time>2018-07-07T09:28:02Z</time>
      </trkpt>
      <trkpt lat="45.9747" lon="4.60779">
        <ele>404</ele>
        <time>2018-07-07T09:28:04Z</time>
      </trkpt>
      <trkpt lat="45.97473" lon="4.60773">
        <ele>404</ele>
        <time>2018-07-07T09:28:05Z</time>
      </trkpt>
      <trkpt lat="45.97479" lon="4.60768">
        <ele>403</ele>
        <time>2018-07-07T09:28:06Z</time>
      </trkpt>
      <trkpt lat="45.97482" lon="4.60763">
        <ele>402</ele>
        <time>2018-07-07T09:28:07Z</time>
      </trkpt>
      <trkpt lat="45.97484" lon="4.60754">
        <ele>401</ele>
        <time>2018-07-07T09:28:09Z</time>
      </trkpt>
      <trkpt lat="45.97486" lon="4.60749">
        <ele>401</ele>
        <time>2018-07-07T09:28:10Z</time>
      </trkpt>
      <trkpt lat="45.97488" lon="4.6074">
        <ele>402</ele>
        <time>2018-07-07T09:28:12Z</time>
      </trkpt>
      <trkpt lat="45.97491" lon="4.60735">
        <ele>402</ele>
        <time>2018-07-07T09:28:13Z</time>
      </trkpt>
      <trkpt lat="45.97495" lon="4.60728">
        <ele>402</ele>
        <time>2018-07-07T09:28:15Z</time>
      </trkpt>
      <trkpt lat="45.97496" lon="4.60722">
        <ele>403</ele>
        <time>2018-07-07T09:28:16Z</time>
      </trkpt>
      <trkpt lat="45.97501" lon="4.60712">
        <ele>397</ele>
        <time>2018-07-07T09:28:18Z</time>
      </trkpt>
      <trkpt lat="45.97502" lon="4.60706">
        <ele>398</ele>
        <time>2018-07-07T09:28:19Z</time>
      </trkpt>
      <trkpt lat="45.97505" lon="4.60701">
        <ele>398</ele>
        <time>2018-07-07T09:28:20Z</time>
      </trkpt>
      <trkpt lat="45.97508" lon="4.60696">
        <ele>398</ele>
        <time>2018-07-07T09:28:21Z</time>
      </trkpt>
      <trkpt lat="45.97511" lon="4.60686">
        <ele>399</ele>
        <time>2018-07-07T09:28:23Z</time>
      </trkpt>
      <trkpt lat="45.97513" lon="4.60681">
        <ele>399</ele>
        <time>2018-07-07T09:28:24Z</time>
      </trkpt>
      <trkpt lat="45.97514" lon="4.60677">
        <ele>399</ele>
        <time>2018-07-07T09:28:26Z</time>
      </trkpt>
      <trkpt lat="45.97518" lon="4.60668">
        <ele>399</ele>
        <time>2018-07-07T09:28:27Z</time>
      </trkpt>
      <trkpt lat="45.97522" lon="4.60663">
        <ele>402</ele>
        <time>2018-07-07T09:28:28Z</time>
      </trkpt>
      <trkpt lat="45.97525" lon="4.60657">
        <ele>402</ele>
        <time>2018-07-07T09:28:29Z</time>
      </trkpt>
      <trkpt lat="45.97528" lon="4.60645">
        <ele>402</ele>
        <time>2018-07-07T09:28:32Z</time>
      </trkpt>
      <trkpt lat="45.97531" lon="4.60639">
        <ele>402</ele>
        <time>2018-07-07T09:28:33Z</time>
      </trkpt>
      <trkpt lat="45.97534" lon="4.60632">
        <ele>402</ele>
        <time>2018-07-07T09:28:35Z</time>
      </trkpt>
      <trkpt lat="45.97536" lon="4.60627">
        <ele>402</ele>
        <time>2018-07-07T09:28:36Z</time>
      </trkpt>
      <trkpt lat="45.97542" lon="4.60619">
        <ele>402</ele>
        <time>2018-07-07T09:28:38Z</time>
      </trkpt>
      <trkpt lat="45.97545" lon="4.60615">
        <ele>402</ele>
        <time>2018-07-07T09:28:39Z</time>
      </trkpt>
      <trkpt lat="45.97548" lon="4.60607">
        <ele>402</ele>
        <time>2018-07-07T09:28:42Z</time>
      </trkpt>
      <trkpt lat="45.97553" lon="4.60598">
        <ele>402</ele>
        <time>2018-07-07T09:28:43Z</time>
      </trkpt>
      <trkpt lat="45.97557" lon="4.60588">
        <ele>402</ele>
        <time>2018-07-07T09:28:47Z</time>
      </trkpt>
      <trkpt lat="45.97559" lon="4.60585">
        <ele>402</ele>
        <time>2018-07-07T09:28:48Z</time>
      </trkpt>
      <trkpt lat="45.97564" lon="4.60575">
        <ele>404</ele>
        <time>2018-07-07T09:28:51Z</time>
      </trkpt>
      <trkpt lat="45.97565" lon="4.60572">
        <ele>404</ele>
        <time>2018-07-07T09:28:52Z</time>
      </trkpt>
      <trkpt lat="45.97571" lon="4.60562">
        <ele>405</ele>
        <time>2018-07-07T09:28:55Z</time>
      </trkpt>
      <trkpt lat="45.97572" lon="4.60558">
        <ele>405</ele>
        <time>2018-07-07T09:28:56Z</time>
      </trkpt>
      <trkpt lat="45.97577" lon="4.60548">
        <ele>405</ele>
        <time>2018-07-07T09:28:59Z</time>
      </trkpt>
      <trkpt lat="45.97578" lon="4.60545">
        <ele>406</ele>
        <time>2018-07-07T09:29:00Z</time>
      </trkpt>
      <trkpt lat="45.97582" lon="4.60535">
        <ele>406</ele>
        <time>2018-07-07T09:29:03Z</time>
      </trkpt>
      <trkpt lat="45.97584" lon="4.60532">
        <ele>405</ele>
        <time>2018-07-07T09:29:04Z</time>
      </trkpt>
      <trkpt lat="45.97588" lon="4.60522">
        <ele>406</ele>
        <time>2018-07-07T09:29:07Z</time>
      </trkpt>
      <trkpt lat="45.97589" lon="4.60519">
        <ele>407</ele>
        <time>2018-07-07T09:29:08Z</time>
      </trkpt>
      <trkpt lat="45.97592" lon="4.60508">
        <ele>408</ele>
        <time>2018-07-07T09:29:11Z</time>
      </trkpt>
      <trkpt lat="45.97593" lon="4.60505">
        <ele>408</ele>
        <time>2018-07-07T09:29:12Z</time>
      </trkpt>
      <trkpt lat="45.97597" lon="4.60494">
        <ele>410</ele>
        <time>2018-07-07T09:29:15Z</time>
      </trkpt>
      <trkpt lat="45.97598" lon="4.6049">
        <ele>410</ele>
        <time>2018-07-07T09:29:16Z</time>
      </trkpt>
      <trkpt lat="45.97603" lon="4.6048">
        <ele>410</ele>
        <time>2018-07-07T09:29:19Z</time>
      </trkpt>
      <trkpt lat="45.97605" lon="4.60477">
        <ele>410</ele>
        <time>2018-07-07T09:29:20Z</time>
      </trkpt>
      <trkpt lat="45.97611" lon="4.60467">
        <ele>410</ele>
        <time>2018-07-07T09:29:23Z</time>
      </trkpt>
      <trkpt lat="45.97612" lon="4.60464">
        <ele>410</ele>
        <time>2018-07-07T09:29:24Z</time>
      </trkpt>
      <trkpt lat="45.97617" lon="4.60454">
        <ele>410</ele>
        <time>2018-07-07T09:29:27Z</time>
      </trkpt>
      <trkpt lat="45.97619" lon="4.6045">
        <ele>410</ele>
        <time>2018-07-07T09:29:28Z</time>
      </trkpt>
      <trkpt lat="45.97624" lon="4.6044">
        <ele>410</ele>
        <time>2018-07-07T09:29:31Z</time>
      </trkpt>
      <trkpt lat="45.97626" lon="4.60435">
        <ele>410</ele>
        <time>2018-07-07T09:29:32Z</time>
      </trkpt>
      <trkpt lat="45.97628" lon="4.60428">
        <ele>410</ele>
        <time>2018-07-07T09:29:34Z</time>
      </trkpt>
      <trkpt lat="45.9763" lon="4.60423">
        <ele>410</ele>
        <time>2018-07-07T09:29:35Z</time>
      </trkpt>
      <trkpt lat="45.97633" lon="4.60412">
        <ele>413</ele>
        <time>2018-07-07T09:29:38Z</time>
      </trkpt>
      <trkpt lat="45.97633" lon="4.60409">
        <ele>413</ele>
        <time>2018-07-07T09:29:39Z</time>
      </trkpt>
      <trkpt lat="45.97636" lon="4.60399">
        <ele>413</ele>
        <time>2018-07-07T09:29:42Z</time>
      </trkpt>
      <trkpt lat="45.97637" lon="4.60395">
        <ele>413</ele>
        <time>2018-07-07T09:29:43Z</time>
      </trkpt>
      <trkpt lat="45.9764" lon="4.60385">
        <ele>414</ele>
        <time>2018-07-07T09:29:46Z</time>
      </trkpt>
      <trkpt lat="45.97641" lon="4.60381">
        <ele>414</ele>
        <time>2018-07-07T09:29:47Z</time>
      </trkpt>
      <trkpt lat="45.97644" lon="4.60371">
        <ele>414</ele>
        <time>2018-07-07T09:29:50Z</time>
      </trkpt>
      <trkpt lat="45.97646" lon="4.60367">
        <ele>414</ele>
        <time>2018-07-07T09:29:51Z</time>
      </trkpt>
      <trkpt lat="45.97649" lon="4.60356">
        <ele>414</ele>
        <time>2018-07-07T09:29:54Z</time>
      </trkpt>
      <trkpt lat="45.97651" lon="4.60352">
        <ele>414</ele>
        <time>2018-07-07T09:29:55Z</time>
      </trkpt>
      <trkpt lat="45.97653" lon="4.60344">
        <ele>414</ele>
        <time>2018-07-07T09:29:57Z</time>
      </trkpt>
      <trkpt lat="45.97655" lon="4.60339">
        <ele>414</ele>
        <time>2018-07-07T09:29:58Z</time>
      </trkpt>
      <trkpt lat="45.97658" lon="4.60331">
        <ele>415</ele>
        <time>2018-07-07T09:30:00Z</time>
      </trkpt>
      <trkpt lat="45.97659" lon="4.60328">
        <ele>415</ele>
        <time>2018-07-07T09:30:01Z</time>
      </trkpt>
      <trkpt lat="45.97663" lon="4.6032">
        <ele>416</ele>
        <time>2018-07-07T09:30:03Z</time>
      </trkpt>
      <trkpt lat="45.97664" lon="4.60316">
        <ele>417</ele>
        <time>2018-07-07T09:30:04Z</time>
      </trkpt>
      <trkpt lat="45.97668" lon="4.60308">
        <ele>413</ele>
        <time>2018-07-07T09:30:06Z</time>
      </trkpt>
      <trkpt lat="45.97669" lon="4.60304">
        <ele>413</ele>
        <time>2018-07-07T09:30:07Z</time>
      </trkpt>
      <trkpt lat="45.97673" lon="4.60297">
        <ele>414</ele>
        <time>2018-07-07T09:30:09Z</time>
      </trkpt>
      <trkpt lat="45.97674" lon="4.60293">
        <ele>414</ele>
        <time>2018-07-07T09:30:10Z</time>
      </trkpt>
      <trkpt lat="45.97679" lon="4.60281">
        <ele>414</ele>
        <time>2018-07-07T09:30:11Z</time>
      </trkpt>
      <trkpt lat="45.97681" lon="4.6027">
        <ele>415</ele>
        <time>2018-07-07T09:30:15Z</time>
      </trkpt>
      <trkpt lat="45.97681" lon="4.60267">
        <ele>416</ele>
        <time>2018-07-07T09:30:16Z</time>
      </trkpt>
      <trkpt lat="45.97683" lon="4.60256">
        <ele>416</ele>
        <time>2018-07-07T09:30:19Z</time>
      </trkpt>
      <trkpt lat="45.97684" lon="4.60252">
        <ele>416</ele>
        <time>2018-07-07T09:30:20Z</time>
      </trkpt>
      <trkpt lat="45.97686" lon="4.60244">
        <ele>418</ele>
        <time>2018-07-07T09:30:22Z</time>
      </trkpt>
      <trkpt lat="45.97687" lon="4.6024">
        <ele>418</ele>
        <time>2018-07-07T09:30:23Z</time>
      </trkpt>
      <trkpt lat="45.9769" lon="4.60231">
        <ele>418</ele>
        <time>2018-07-07T09:30:25Z</time>
      </trkpt>
      <trkpt lat="45.97691" lon="4.60227">
        <ele>417</ele>
        <time>2018-07-07T09:30:26Z</time>
      </trkpt>
      <trkpt lat="45.97693" lon="4.60218">
        <ele>417</ele>
        <time>2018-07-07T09:30:28Z</time>
      </trkpt>
      <trkpt lat="45.97694" lon="4.60214">
        <ele>417</ele>
        <time>2018-07-07T09:30:29Z</time>
      </trkpt>
      <trkpt lat="45.97696" lon="4.60205">
        <ele>417</ele>
        <time>2018-07-07T09:30:31Z</time>
      </trkpt>
      <trkpt lat="45.97698" lon="4.60201">
        <ele>417</ele>
        <time>2018-07-07T09:30:32Z</time>
      </trkpt>
      <trkpt lat="45.97701" lon="4.6019">
        <ele>417</ele>
        <time>2018-07-07T09:30:35Z</time>
      </trkpt>
      <trkpt lat="45.97702" lon="4.60186">
        <ele>417</ele>
        <time>2018-07-07T09:30:36Z</time>
      </trkpt>
      <trkpt lat="45.97705" lon="4.60174">
        <ele>417</ele>
        <time>2018-07-07T09:30:39Z</time>
      </trkpt>
      <trkpt lat="45.97707" lon="4.6017">
        <ele>417</ele>
        <time>2018-07-07T09:30:40Z</time>
      </trkpt>
      <trkpt lat="45.9771" lon="4.60159">
        <ele>420</ele>
        <time>2018-07-07T09:30:43Z</time>
      </trkpt>
      <trkpt lat="45.97712" lon="4.60155">
        <ele>420</ele>
        <time>2018-07-07T09:30:44Z</time>
      </trkpt>
      <trkpt lat="45.97714" lon="4.60147">
        <ele>420</ele>
        <time>2018-07-07T09:30:46Z</time>
      </trkpt>
      <trkpt lat="45.97719" lon="4.60135">
        <ele>420</ele>
        <time>2018-07-07T09:30:47Z</time>
      </trkpt>
      <trkpt lat="45.97723" lon="4.60124">
        <ele>420</ele>
        <time>2018-07-07T09:30:51Z</time>
      </trkpt>
      <trkpt lat="45.97724" lon="4.60122">
        <ele>420</ele>
        <time>2018-07-07T09:30:52Z</time>
      </trkpt>
      <trkpt lat="45.97726" lon="4.60114">
        <ele>420</ele>
        <time>2018-07-07T09:30:54Z</time>
      </trkpt>
      <trkpt lat="45.97727" lon="4.6011">
        <ele>420</ele>
        <time>2018-07-07T09:30:55Z</time>
      </trkpt>
      <trkpt lat="45.97731" lon="4.60098">
        <ele>420</ele>
        <time>2018-07-07T09:30:58Z</time>
      </trkpt>
      <trkpt lat="45.97732" lon="4.60094">
        <ele>420</ele>
        <time>2018-07-07T09:30:59Z</time>
      </trkpt>
      <trkpt lat="45.97734" lon="4.60083">
        <ele>422</ele>
        <time>2018-07-07T09:31:02Z</time>
      </trkpt>
      <trkpt lat="45.97735" lon="4.6008">
        <ele>422</ele>
        <time>2018-07-07T09:31:03Z</time>
      </trkpt>
      <trkpt lat="45.97738" lon="4.60069">
        <ele>423</ele>
        <time>2018-07-07T09:31:06Z</time>
      </trkpt>
      <trkpt lat="45.97739" lon="4.60065">
        <ele>423</ele>
        <time>2018-07-07T09:31:07Z</time>
      </trkpt>
      <trkpt lat="45.97741" lon="4.60055">
        <ele>424</ele>
        <time>2018-07-07T09:31:10Z</time>
      </trkpt>
      <trkpt lat="45.97741" lon="4.60052">
        <ele>424</ele>
        <time>2018-07-07T09:31:11Z</time>
      </trkpt>
      <trkpt lat="45.97743" lon="4.6004">
        <ele>425</ele>
        <time>2018-07-07T09:31:14Z</time>
      </trkpt>
      <trkpt lat="45.97744" lon="4.60037">
        <ele>425</ele>
        <time>2018-07-07T09:31:15Z</time>
      </trkpt>
      <trkpt lat="45.97746" lon="4.60026">
        <ele>425</ele>
        <time>2018-07-07T09:31:18Z</time>
      </trkpt>
      <trkpt lat="45.97746" lon="4.60024">
        <ele>425</ele>
        <time>2018-07-07T09:31:19Z</time>
      </trkpt>
      <trkpt lat="45.97749" lon="4.60014">
        <ele>425</ele>
        <time>2018-07-07T09:31:22Z</time>
      </trkpt>
      <trkpt lat="45.9775" lon="4.6001">
        <ele>425</ele>
        <time>2018-07-07T09:31:23Z</time>
      </trkpt>
      <trkpt lat="45.97752" lon="4.59998">
        <ele>425</ele>
        <time>2018-07-07T09:31:27Z</time>
      </trkpt>
      <trkpt lat="45.97752" lon="4.59995">
        <ele>425</ele>
        <time>2018-07-07T09:31:28Z</time>
      </trkpt>
      <trkpt lat="45.97752" lon="4.59984">
        <ele>425</ele>
        <time>2018-07-07T09:31:32Z</time>
      </trkpt>
      <trkpt lat="45.97752" lon="4.5998">
        <ele>425</ele>
        <time>2018-07-07T09:31:33Z</time>
      </trkpt>
      <trkpt lat="45.97753" lon="4.59969">
        <ele>425</ele>
        <time>2018-07-07T09:31:37Z</time>
      </trkpt>
      <trkpt lat="45.97754" lon="4.59966">
        <ele>425</ele>
        <time>2018-07-07T09:31:38Z</time>
      </trkpt>
      <trkpt lat="45.97755" lon="4.59955">
        <ele>425</ele>
        <time>2018-07-07T09:31:42Z</time>
      </trkpt>
      <trkpt lat="45.97756" lon="4.59951">
        <ele>425</ele>
        <time>2018-07-07T09:31:43Z</time>
      </trkpt>
      <trkpt lat="45.97758" lon="4.59939">
        <ele>426</ele>
        <time>2018-07-07T09:31:47Z</time>
      </trkpt>
      <trkpt lat="45.97758" lon="4.59936">
        <ele>427</ele>
        <time>2018-07-07T09:31:48Z</time>
      </trkpt>
      <trkpt lat="45.97761" lon="4.59927">
        <ele>427</ele>
        <time>2018-07-07T09:31:51Z</time>
      </trkpt>
      <trkpt lat="45.97762" lon="4.59923">
        <ele>427</ele>
        <time>2018-07-07T09:31:52Z</time>
      </trkpt>
      <trkpt lat="45.97764" lon="4.59913">
        <ele>430</ele>
        <time>2018-07-07T09:31:56Z</time>
      </trkpt>
      <trkpt lat="45.97765" lon="4.5991">
        <ele>430</ele>
        <time>2018-07-07T09:31:57Z</time>
      </trkpt>
      <trkpt lat="45.97767" lon="4.59899">
        <ele>430</ele>
        <time>2018-07-07T09:32:01Z</time>
      </trkpt>
      <trkpt lat="45.97768" lon="4.59895">
        <ele>430</ele>
        <time>2018-07-07T09:32:02Z</time>
      </trkpt>
      <trkpt lat="45.9777" lon="4.59884">
        <ele>430</ele>
        <time>2018-07-07T09:32:06Z</time>
      </trkpt>
      <trkpt lat="45.9777" lon="4.59881">
        <ele>430</ele>
        <time>2018-07-07T09:32:07Z</time>
      </trkpt>
      <trkpt lat="45.9777" lon="4.5987">
        <ele>431</ele>
        <time>2018-07-07T09:32:11Z</time>
      </trkpt>
      <trkpt lat="45.9777" lon="4.59867">
        <ele>431</ele>
        <time>2018-07-07T09:32:12Z</time>
      </trkpt>
      <trkpt lat="45.9777" lon="4.59855">
        <ele>431</ele>
        <time>2018-07-07T09:32:16Z</time>
      </trkpt>
      <trkpt lat="45.9777" lon="4.59853">
        <ele>432</ele>
        <time>2018-07-07T09:32:17Z</time>
      </trkpt>
      <trkpt lat="45.97771" lon="4.5984">
        <ele>432</ele>
        <time>2018-07-07T09:32:22Z</time>
      </trkpt>
      <trkpt lat="45.97772" lon="4.59837">
        <ele>432</ele>
        <time>2018-07-07T09:32:23Z</time>
      </trkpt>
      <trkpt lat="45.97772" lon="4.59827">
        <ele>435</ele>
        <time>2018-07-07T09:32:27Z</time>
      </trkpt>
      <trkpt lat="45.97773" lon="4.59824">
        <ele>435</ele>
        <time>2018-07-07T09:32:28Z</time>
      </trkpt>
      <trkpt lat="45.97775" lon="4.59816">
        <ele>435</ele>
        <time>2018-07-07T09:32:31Z</time>
      </trkpt>
      <trkpt lat="45.97777" lon="4.59813">
        <ele>435</ele>
        <time>2018-07-07T09:32:32Z</time>
      </trkpt>
      <trkpt lat="45.97779" lon="4.59801">
        <ele>435</ele>
        <time>2018-07-07T09:32:36Z</time>
      </trkpt>
      <trkpt lat="45.9778" lon="4.59798">
        <ele>435</ele>
        <time>2018-07-07T09:32:37Z</time>
      </trkpt>
      <trkpt lat="45.97782" lon="4.59786">
        <ele>435</ele>
        <time>2018-07-07T09:32:41Z</time>
      </trkpt>
      <trkpt lat="45.97782" lon="4.59783">
        <ele>435</ele>
        <time>2018-07-07T09:32:42Z</time>
      </trkpt>
      <trkpt lat="45.97785" lon="4.59771">
        <ele>435</ele>
        <time>2018-07-07T09:32:47Z</time>
      </trkpt>
      <trkpt lat="45.97785" lon="4.59768">
        <ele>435</ele>
        <time>2018-07-07T09:32:48Z</time>
      </trkpt>
      <trkpt lat="45.97787" lon="4.59758">
        <ele>435</ele>
        <time>2018-07-07T09:32:51Z</time>
      </trkpt>
      <trkpt lat="45.97788" lon="4.59754">
        <ele>435</ele>
        <time>2018-07-07T09:32:52Z</time>
      </trkpt>
      <trkpt lat="45.97788" lon="4.59744">
        <ele>439</ele>
        <time>2018-07-07T09:32:55Z</time>
      </trkpt>
      <trkpt lat="45.97789" lon="4.59741">
        <ele>439</ele>
        <time>2018-07-07T09:32:56Z</time>
      </trkpt>
      <trkpt lat="45.9779" lon="4.5973">
        <ele>440</ele>
        <time>2018-07-07T09:33:00Z</time>
      </trkpt>
      <trkpt lat="45.9779" lon="4.59727">
        <ele>440</ele>
        <time>2018-07-07T09:33:01Z</time>
      </trkpt>
      <trkpt lat="45.97791" lon="4.59714">
        <ele>440</ele>
        <time>2018-07-07T09:33:05Z</time>
      </trkpt>
      <trkpt lat="45.97792" lon="4.59711">
        <ele>440</ele>
        <time>2018-07-07T09:33:06Z</time>
      </trkpt>
      <trkpt lat="45.97794" lon="4.597">
        <ele>441</ele>
        <time>2018-07-07T09:33:10Z</time>
      </trkpt>
      <trkpt lat="45.97794" lon="4.59697">
        <ele>441</ele>
        <time>2018-07-07T09:33:11Z</time>
      </trkpt>
      <trkpt lat="45.97797" lon="4.59687">
        <ele>441</ele>
        <time>2018-07-07T09:33:15Z</time>
      </trkpt>
      <trkpt lat="45.97798" lon="4.59685">
        <ele>441</ele>
        <time>2018-07-07T09:33:16Z</time>
      </trkpt>
      <trkpt lat="45.97803" lon="4.59676">
        <ele>441</ele>
        <time>2018-07-07T09:33:20Z</time>
      </trkpt>
      <trkpt lat="45.97804" lon="4.59674">
        <ele>441</ele>
        <time>2018-07-07T09:33:21Z</time>
      </trkpt>
      <trkpt lat="45.9781" lon="4.59665">
        <ele>447</ele>
        <time>2018-07-07T09:33:23Z</time>
      </trkpt>
      <trkpt lat="45.97811" lon="4.59664">
        <ele>447</ele>
        <time>2018-07-07T09:33:24Z</time>
      </trkpt>
      <trkpt lat="45.97815" lon="4.59655">
        <ele>447</ele>
        <time>2018-07-07T09:33:29Z</time>
      </trkpt>
      <trkpt lat="45.97816" lon="4.59653">
        <ele>448</ele>
        <time>2018-07-07T09:33:30Z</time>
      </trkpt>
      <trkpt lat="45.97822" lon="4.59645">
        <ele>448</ele>
        <time>2018-07-07T09:33:34Z</time>
      </trkpt>
      <trkpt lat="45.97823" lon="4.59643">
        <ele>449</ele>
        <time>2018-07-07T09:33:35Z</time>
      </trkpt>
      <trkpt lat="45.97831" lon="4.59637">
        <ele>450</ele>
        <time>2018-07-07T09:33:39Z</time>
      </trkpt>
      <trkpt lat="45.97833" lon="4.59636">
        <ele>450</ele>
        <time>2018-07-07T09:33:40Z</time>
      </trkpt>
      <trkpt lat="45.97839" lon="4.59632">
        <ele>446</ele>
        <time>2018-07-07T09:33:43Z</time>
      </trkpt>
      <trkpt lat="45.97842" lon="4.59631">
        <ele>446</ele>
        <time>2018-07-07T09:33:44Z</time>
      </trkpt>
      <trkpt lat="45.9785" lon="4.59625">
        <ele>447</ele>
        <time>2018-07-07T09:33:48Z</time>
      </trkpt>
      <trkpt lat="45.97852" lon="4.59624">
        <ele>447</ele>
        <time>2018-07-07T09:33:49Z</time>
      </trkpt>
      <trkpt lat="45.97859" lon="4.5962">
        <ele>447</ele>
        <time>2018-07-07T09:33:53Z</time>
      </trkpt>
      <trkpt lat="45.97861" lon="4.5962">
        <ele>447</ele>
        <time>2018-07-07T09:33:54Z</time>
      </trkpt>
      <trkpt lat="45.9787" lon="4.59619">
        <ele>447</ele>
        <time>2018-07-07T09:33:58Z</time>
      </trkpt>
      <trkpt lat="45.97872" lon="4.59618">
        <ele>447</ele>
        <time>2018-07-07T09:33:59Z</time>
      </trkpt>
      <trkpt lat="45.9788" lon="4.59618">
        <ele>446</ele>
        <time>2018-07-07T09:34:03Z</time>
      </trkpt>
      <trkpt lat="45.97882" lon="4.59618">
        <ele>446</ele>
        <time>2018-07-07T09:34:04Z</time>
      </trkpt>
      <trkpt lat="45.9789" lon="4.59616">
        <ele>446</ele>
        <time>2018-07-07T09:34:08Z</time>
      </trkpt>
      <trkpt lat="45.97892" lon="4.59616">
        <ele>446</ele>
        <time>2018-07-07T09:34:09Z</time>
      </trkpt>
      <trkpt lat="45.979" lon="4.59612">
        <ele>446</ele>
        <time>2018-07-07T09:34:14Z</time>
      </trkpt>
      <trkpt lat="45.97902" lon="4.59611">
        <ele>446</ele>
        <time>2018-07-07T09:34:15Z</time>
      </trkpt>
      <trkpt lat="45.97909" lon="4.59605">
        <ele>446</ele>
        <time>2018-07-07T09:34:19Z</time>
      </trkpt>
      <trkpt lat="45.9791" lon="4.59604">
        <ele>446</ele>
        <time>2018-07-07T09:34:20Z</time>
      </trkpt>
      <trkpt lat="45.97917" lon="4.59596">
        <ele>443</ele>
        <time>2018-07-07T09:34:24Z</time>
      </trkpt>
      <trkpt lat="45.97919" lon="4.59595">
        <ele>443</ele>
        <time>2018-07-07T09:34:25Z</time>
      </trkpt>
      <trkpt lat="45.97925" lon="4.59586">
        <ele>444</ele>
        <time>2018-07-07T09:34:29Z</time>
      </trkpt>
      <trkpt lat="45.97926" lon="4.59583">
        <ele>448</ele>
        <time>2018-07-07T09:34:30Z</time>
      </trkpt>
      <trkpt lat="45.9793" lon="4.59574">
        <ele>447</ele>
        <time>2018-07-07T09:34:33Z</time>
      </trkpt>
      <trkpt lat="45.97931" lon="4.59572">
        <ele>447</ele>
        <time>2018-07-07T09:34:34Z</time>
      </trkpt>
      <trkpt lat="45.97934" lon="4.59562">
        <ele>448</ele>
        <time>2018-07-07T09:34:38Z</time>
      </trkpt>
      <trkpt lat="45.97935" lon="4.59559">
        <ele>448</ele>
        <time>2018-07-07T09:34:39Z</time>
      </trkpt>
      <trkpt lat="45.97938" lon="4.59548">
        <ele>448</ele>
        <time>2018-07-07T09:34:43Z</time>
      </trkpt>
      <trkpt lat="45.97938" lon="4.59546">
        <ele>448</ele>
        <time>2018-07-07T09:34:44Z</time>
      </trkpt>
      <trkpt lat="45.9794" lon="4.59534">
        <ele>449</ele>
        <time>2018-07-07T09:34:48Z</time>
      </trkpt>
      <trkpt lat="45.9794" lon="4.59532">
        <ele>450</ele>
        <time>2018-07-07T09:34:49Z</time>
      </trkpt>
      <trkpt lat="45.97942" lon="4.59519">
        <ele>451</ele>
        <time>2018-07-07T09:34:53Z</time>
      </trkpt>
      <trkpt lat="45.97942" lon="4.59516">
        <ele>451</ele>
        <time>2018-07-07T09:34:54Z</time>
      </trkpt>
      <trkpt lat="45.97942" lon="4.59506">
        <ele>452</ele>
        <time>2018-07-07T09:34:58Z</time>
      </trkpt>
      <trkpt lat="45.97943" lon="4.59503">
        <ele>452</ele>
        <time>2018-07-07T09:34:59Z</time>
      </trkpt>
      <trkpt lat="45.97944" lon="4.59492">
        <ele>459</ele>
        <time>2018-07-07T09:35:03Z</time>
      </trkpt>
      <trkpt lat="45.97945" lon="4.59489">
        <ele>459</ele>
        <time>2018-07-07T09:35:04Z</time>
      </trkpt>
      <trkpt lat="45.97947" lon="4.59479">
        <ele>459</ele>
        <time>2018-07-07T09:35:08Z</time>
      </trkpt>
      <trkpt lat="45.97948" lon="4.59476">
        <ele>459</ele>
        <time>2018-07-07T09:35:09Z</time>
      </trkpt>
      <trkpt lat="45.97952" lon="4.59467">
        <ele>459</ele>
        <time>2018-07-07T09:35:13Z</time>
      </trkpt>
      <trkpt lat="45.97953" lon="4.59464">
        <ele>459</ele>
        <time>2018-07-07T09:35:14Z</time>
      </trkpt>
      <trkpt lat="45.97958" lon="4.59456">
        <ele>459</ele>
        <time>2018-07-07T09:35:18Z</time>
      </trkpt>
      <trkpt lat="45.97959" lon="4.59454">
        <ele>459</ele>
        <time>2018-07-07T09:35:19Z</time>
      </trkpt>
      <trkpt lat="45.97965" lon="4.59446">
        <ele>459</ele>
        <time>2018-07-07T09:35:23Z</time>
      </trkpt>
      <trkpt lat="45.97966" lon="4.59444">
        <ele>459</ele>
        <time>2018-07-07T09:35:24Z</time>
      </trkpt>
      <trkpt lat="45.97971" lon="4.59435">
        <ele>459</ele>
        <time>2018-07-07T09:35:28Z</time>
      </trkpt>
      <trkpt lat="45.97972" lon="4.59432">
        <ele>459</ele>
        <time>2018-07-07T09:35:29Z</time>
      </trkpt>
      <trkpt lat="45.97976" lon="4.59423">
        <ele>458</ele>
        <time>2018-07-07T09:35:33Z</time>
      </trkpt>
      <trkpt lat="45.97976" lon="4.5942">
        <ele>458</ele>
        <time>2018-07-07T09:35:34Z</time>
      </trkpt>
      <trkpt lat="45.97979" lon="4.59409">
        <ele>462</ele>
        <time>2018-07-07T09:35:38Z</time>
      </trkpt>
      <trkpt lat="45.9798" lon="4.59407">
        <ele>462</ele>
        <time>2018-07-07T09:35:39Z</time>
      </trkpt>
      <trkpt lat="45.97982" lon="4.59395">
        <ele>463</ele>
        <time>2018-07-07T09:35:43Z</time>
      </trkpt>
      <trkpt lat="45.97982" lon="4.59392">
        <ele>463</ele>
        <time>2018-07-07T09:35:44Z</time>
      </trkpt>
      <trkpt lat="45.97982" lon="4.59381">
        <ele>463</ele>
        <time>2018-07-07T09:35:47Z</time>
      </trkpt>
      <trkpt lat="45.97982" lon="4.59377">
        <ele>463</ele>
        <time>2018-07-07T09:35:48Z</time>
      </trkpt>
      <trkpt lat="45.97982" lon="4.59366">
        <ele>463</ele>
        <time>2018-07-07T09:35:52Z</time>
      </trkpt>
      <trkpt lat="45.97982" lon="4.59364">
        <ele>463</ele>
        <time>2018-07-07T09:35:53Z</time>
      </trkpt>
      <trkpt lat="45.97982" lon="4.59352">
        <ele>463</ele>
        <time>2018-07-07T09:35:57Z</time>
      </trkpt>
      <trkpt lat="45.97982" lon="4.59349">
        <ele>463</ele>
        <time>2018-07-07T09:35:58Z</time>
      </trkpt>
      <trkpt lat="45.9798" lon="4.59338">
        <ele>462</ele>
        <time>2018-07-07T09:36:02Z</time>
      </trkpt>
      <trkpt lat="45.97979" lon="4.59335">
        <ele>462</ele>
        <time>2018-07-07T09:36:03Z</time>
      </trkpt>
      <trkpt lat="45.97976" lon="4.59327">
        <ele>465</ele>
        <time>2018-07-07T09:36:06Z</time>
      </trkpt>
      <trkpt lat="45.97975" lon="4.59324">
        <ele>465</ele>
        <time>2018-07-07T09:36:07Z</time>
      </trkpt>
      <trkpt lat="45.97972" lon="4.59312">
        <ele>466</ele>
        <time>2018-07-07T09:36:11Z</time>
      </trkpt>
      <trkpt lat="45.97972" lon="4.5931">
        <ele>467</ele>
        <time>2018-07-07T09:36:12Z</time>
      </trkpt>
      <trkpt lat="45.97971" lon="4.59298">
        <ele>467</ele>
        <time>2018-07-07T09:36:17Z</time>
      </trkpt>
      <trkpt lat="45.9797" lon="4.59295">
        <ele>467</ele>
        <time>2018-07-07T09:36:18Z</time>
      </trkpt>
      <trkpt lat="45.97969" lon="4.59283">
        <ele>468</ele>
        <time>2018-07-07T09:36:22Z</time>
      </trkpt>
      <trkpt lat="45.97968" lon="4.5928">
        <ele>468</ele>
        <time>2018-07-07T09:36:23Z</time>
      </trkpt>
      <trkpt lat="45.97966" lon="4.5927">
        <ele>468</ele>
        <time>2018-07-07T09:36:26Z</time>
      </trkpt>
      <trkpt lat="45.97966" lon="4.59267">
        <ele>468</ele>
        <time>2018-07-07T09:36:27Z</time>
      </trkpt>
      <trkpt lat="45.97966" lon="4.59256">
        <ele>468</ele>
        <time>2018-07-07T09:36:31Z</time>
      </trkpt>
      <trkpt lat="45.97966" lon="4.59253">
        <ele>468</ele>
        <time>2018-07-07T09:36:32Z</time>
      </trkpt>
      <trkpt lat="45.97966" lon="4.59242">
        <ele>471</ele>
        <time>2018-07-07T09:36:36Z</time>
      </trkpt>
      <trkpt lat="45.97966" lon="4.59239">
        <ele>471</ele>
        <time>2018-07-07T09:36:37Z</time>
      </trkpt>
      <trkpt lat="45.97967" lon="4.59228">
        <ele>471</ele>
        <time>2018-07-07T09:36:41Z</time>
      </trkpt>
      <trkpt lat="45.97967" lon="4.59226">
        <ele>471</ele>
        <time>2018-07-07T09:36:42Z</time>
      </trkpt>
      <trkpt lat="45.9797" lon="4.59214">
        <ele>472</ele>
        <time>2018-07-07T09:36:46Z</time>
      </trkpt>
      <trkpt lat="45.97971" lon="4.59212">
        <ele>472</ele>
        <time>2018-07-07T09:36:47Z</time>
      </trkpt>
      <trkpt lat="45.97975" lon="4.59202">
        <ele>472</ele>
        <time>2018-07-07T09:36:51Z</time>
      </trkpt>
      <trkpt lat="45.97976" lon="4.59199">
        <ele>472</ele>
        <time>2018-07-07T09:36:52Z</time>
      </trkpt>
      <trkpt lat="45.97981" lon="4.59189">
        <ele>472</ele>
        <time>2018-07-07T09:36:56Z</time>
      </trkpt>
      <trkpt lat="45.97982" lon="4.59187">
        <ele>471</ele>
        <time>2018-07-07T09:36:57Z</time>
      </trkpt>
      <trkpt lat="45.97987" lon="4.59179">
        <ele>471</ele>
        <time>2018-07-07T09:37:00Z</time>
      </trkpt>
      <trkpt lat="45.97988" lon="4.59177">
        <ele>471</ele>
        <time>2018-07-07T09:37:01Z</time>
      </trkpt>
      <trkpt lat="45.97995" lon="4.5917">
        <ele>470</ele>
        <time>2018-07-07T09:37:05Z</time>
      </trkpt>
      <trkpt lat="45.97997" lon="4.59168">
        <ele>470</ele>
        <time>2018-07-07T09:37:06Z</time>
      </trkpt>
      <trkpt lat="45.98004" lon="4.59163">
        <ele>470</ele>
        <time>2018-07-07T09:37:10Z</time>
      </trkpt>
      <trkpt lat="45.98006" lon="4.5916">
        <ele>470</ele>
        <time>2018-07-07T09:37:11Z</time>
      </trkpt>
      <trkpt lat="45.98012" lon="4.59154">
        <ele>470</ele>
        <time>2018-07-07T09:37:14Z</time>
      </trkpt>
      <trkpt lat="45.98014" lon="4.59153">
        <ele>471</ele>
        <time>2018-07-07T09:37:15Z</time>
      </trkpt>
      <trkpt lat="45.98021" lon="4.59146">
        <ele>471</ele>
        <time>2018-07-07T09:37:19Z</time>
      </trkpt>
      <trkpt lat="45.98023" lon="4.59144">
        <ele>471</ele>
        <time>2018-07-07T09:37:20Z</time>
      </trkpt>
      <trkpt lat="45.9803" lon="4.59137">
        <ele>471</ele>
        <time>2018-07-07T09:37:24Z</time>
      </trkpt>
      <trkpt lat="45.98031" lon="4.59135">
        <ele>471</ele>
        <time>2018-07-07T09:37:25Z</time>
      </trkpt>
      <trkpt lat="45.98037" lon="4.59126">
        <ele>472</ele>
        <time>2018-07-07T09:37:29Z</time>
      </trkpt>
      <trkpt lat="45.98039" lon="4.59123">
        <ele>472</ele>
        <time>2018-07-07T09:37:30Z</time>
      </trkpt>
      <trkpt lat="45.98044" lon="4.59114">
        <ele>472</ele>
        <time>2018-07-07T09:37:34Z</time>
      </trkpt>
      <trkpt lat="45.98046" lon="4.59112">
        <ele>473</ele>
        <time>2018-07-07T09:37:35Z</time>
      </trkpt>
      <trkpt lat="45.98051" lon="4.59103">
        <ele>473</ele>
        <time>2018-07-07T09:37:39Z</time>
      </trkpt>
      <trkpt lat="45.98053" lon="4.59101">
        <ele>473</ele>
        <time>2018-07-07T09:37:40Z</time>
      </trkpt>
      <trkpt lat="45.98059" lon="4.59092">
        <ele>473</ele>
        <time>2018-07-07T09:37:45Z</time>
      </trkpt>
      <trkpt lat="45.9806" lon="4.5909">
        <ele>473</ele>
        <time>2018-07-07T09:37:46Z</time>
      </trkpt>
      <trkpt lat="45.98066" lon="4.59081">
        <ele>478</ele>
        <time>2018-07-07T09:37:50Z</time>
      </trkpt>
      <trkpt lat="45.98067" lon="4.59079">
        <ele>478</ele>
        <time>2018-07-07T09:37:51Z</time>
      </trkpt>
      <trkpt lat="45.98073" lon="4.59069">
        <ele>478</ele>
        <time>2018-07-07T09:37:55Z</time>
      </trkpt>
      <trkpt lat="45.98074" lon="4.59066">
        <ele>478</ele>
        <time>2018-07-07T09:37:56Z</time>
      </trkpt>
      <trkpt lat="45.98079" lon="4.59056">
        <ele>479</ele>
        <time>2018-07-07T09:37:59Z</time>
      </trkpt>
      <trkpt lat="45.9808" lon="4.59053">
        <ele>479</ele>
        <time>2018-07-07T09:38:00Z</time>
      </trkpt>
      <trkpt lat="45.98084" lon="4.59042">
        <ele>470</ele>
        <time>2018-07-07T09:38:04Z</time>
      </trkpt>
      <trkpt lat="45.98084" lon="4.5904">
        <ele>471</ele>
        <time>2018-07-07T09:38:05Z</time>
      </trkpt>
      <trkpt lat="45.98088" lon="4.59031">
        <ele>471</ele>
        <time>2018-07-07T09:38:09Z</time>
      </trkpt>
      <trkpt lat="45.98089" lon="4.59028">
        <ele>471</ele>
        <time>2018-07-07T09:38:10Z</time>
      </trkpt>
      <trkpt lat="45.98094" lon="4.59019">
        <ele>472</ele>
        <time>2018-07-07T09:38:14Z</time>
      </trkpt>
      <trkpt lat="45.98095" lon="4.59016">
        <ele>473</ele>
        <time>2018-07-07T09:38:15Z</time>
      </trkpt>
      <trkpt lat="45.98098" lon="4.59004">
        <ele>473</ele>
        <time>2018-07-07T09:38:21Z</time>
      </trkpt>
      <trkpt lat="45.98099" lon="4.59002">
        <ele>473</ele>
        <time>2018-07-07T09:38:22Z</time>
      </trkpt>
      <trkpt lat="45.98102" lon="4.5899">
        <ele>476</ele>
        <time>2018-07-07T09:38:26Z</time>
      </trkpt>
      <trkpt lat="45.98102" lon="4.58988">
        <ele>476</ele>
        <time>2018-07-07T09:38:27Z</time>
      </trkpt>
      <trkpt lat="45.98105" lon="4.58976">
        <ele>476</ele>
        <time>2018-07-07T09:38:31Z</time>
      </trkpt>
      <trkpt lat="45.98105" lon="4.58973">
        <ele>476</ele>
        <time>2018-07-07T09:38:32Z</time>
      </trkpt>
      <trkpt lat="45.98107" lon="4.58961">
        <ele>476</ele>
        <time>2018-07-07T09:38:36Z</time>
      </trkpt>
      <trkpt lat="45.98107" lon="4.58959">
        <ele>476</ele>
        <time>2018-07-07T09:38:37Z</time>
      </trkpt>
      <trkpt lat="45.98105" lon="4.58948">
        <ele>477</ele>
        <time>2018-07-07T09:38:41Z</time>
      </trkpt>
      <trkpt lat="45.98104" lon="4.58945">
        <ele>477</ele>
        <time>2018-07-07T09:38:42Z</time>
      </trkpt>
      <trkpt lat="45.98102" lon="4.58934">
        <ele>478</ele>
        <time>2018-07-07T09:38:46Z</time>
      </trkpt>
      <trkpt lat="45.98102" lon="4.5893">
        <ele>479</ele>
        <time>2018-07-07T09:38:47Z</time>
      </trkpt>
      <trkpt lat="45.98102" lon="4.58921">
        <ele>479</ele>
        <time>2018-07-07T09:38:50Z</time>
      </trkpt>
      <trkpt lat="45.98102" lon="4.58917">
        <ele>479</ele>
        <time>2018-07-07T09:38:51Z</time>
      </trkpt>
      <trkpt lat="45.98102" lon="4.58905">
        <ele>484</ele>
        <time>2018-07-07T09:38:55Z</time>
      </trkpt>
      <trkpt lat="45.98102" lon="4.58901">
        <ele>484</ele>
        <time>2018-07-07T09:38:56Z</time>
      </trkpt>
      <trkpt lat="45.98101" lon="4.58892">
        <ele>484</ele>
        <time>2018-07-07T09:38:59Z</time>
      </trkpt>
      <trkpt lat="45.98101" lon="4.58889">
        <ele>484</ele>
        <time>2018-07-07T09:39:00Z</time>
      </trkpt>
      <trkpt lat="45.98101" lon="4.58879">
        <ele>485</ele>
        <time>2018-07-07T09:39:03Z</time>
      </trkpt>
      <trkpt lat="45.98101" lon="4.58875">
        <ele>485</ele>
        <time>2018-07-07T09:39:04Z</time>
      </trkpt>
      <trkpt lat="45.98102" lon="4.58865">
        <ele>486</ele>
        <time>2018-07-07T09:39:07Z</time>
      </trkpt>
      <trkpt lat="45.98103" lon="4.58862">
        <ele>486</ele>
        <time>2018-07-07T09:39:08Z</time>
      </trkpt>
      <trkpt lat="45.98107" lon="4.58852">
        <ele>486</ele>
        <time>2018-07-07T09:39:12Z</time>
      </trkpt>
      <trkpt lat="45.98108" lon="4.58849">
        <ele>486</ele>
        <time>2018-07-07T09:39:13Z</time>
      </trkpt>
      <trkpt lat="45.98115" lon="4.58841">
        <ele>486</ele>
        <time>2018-07-07T09:39:17Z</time>
      </trkpt>
      <trkpt lat="45.98116" lon="4.58839">
        <ele>486</ele>
        <time>2018-07-07T09:39:18Z</time>
      </trkpt>
      <trkpt lat="45.98123" lon="4.58836">
        <ele>486</ele>
        <time>2018-07-07T09:39:21Z</time>
      </trkpt>
      <trkpt lat="45.98125" lon="4.58834">
        <ele>486</ele>
        <time>2018-07-07T09:39:22Z</time>
      </trkpt>
      <trkpt lat="45.98132" lon="4.5883">
        <ele>493</ele>
        <time>2018-07-07T09:39:26Z</time>
      </trkpt>
      <trkpt lat="45.98133" lon="4.58829">
        <ele>493</ele>
        <time>2018-07-07T09:39:27Z</time>
      </trkpt>
      <trkpt lat="45.98141" lon="4.58824">
        <ele>493</ele>
        <time>2018-07-07T09:39:31Z</time>
      </trkpt>
      <trkpt lat="45.98143" lon="4.58822">
        <ele>493</ele>
        <time>2018-07-07T09:39:32Z</time>
      </trkpt>
      <trkpt lat="45.9815" lon="4.58815">
        <ele>493</ele>
        <time>2018-07-07T09:39:36Z</time>
      </trkpt>
      <trkpt lat="45.98152" lon="4.58814">
        <ele>493</ele>
        <time>2018-07-07T09:39:37Z</time>
      </trkpt>
      <trkpt lat="45.98158" lon="4.58807">
        <ele>493</ele>
        <time>2018-07-07T09:39:41Z</time>
      </trkpt>
      <trkpt lat="45.98159" lon="4.58806">
        <ele>493</ele>
        <time>2018-07-07T09:39:42Z</time>
      </trkpt>
      <trkpt lat="45.98166" lon="4.58799">
        <ele>494</ele>
        <time>2018-07-07T09:39:46Z</time>
      </trkpt>
      <trkpt lat="45.98168" lon="4.58797">
        <ele>492</ele>
        <time>2018-07-07T09:39:47Z</time>
      </trkpt>
      <trkpt lat="45.98174" lon="4.58791">
        <ele>493</ele>
        <time>2018-07-07T09:39:50Z</time>
      </trkpt>
      <trkpt lat="45.98176" lon="4.58789">
        <ele>493</ele>
        <time>2018-07-07T09:39:51Z</time>
      </trkpt>
      <trkpt lat="45.98183" lon="4.58783">
        <ele>493</ele>
        <time>2018-07-07T09:39:54Z</time>
      </trkpt>
      <trkpt lat="45.98185" lon="4.58781">
        <ele>493</ele>
        <time>2018-07-07T09:39:55Z</time>
      </trkpt>
      <trkpt lat="45.98192" lon="4.58774">
        <ele>494</ele>
        <time>2018-07-07T09:39:58Z</time>
      </trkpt>
      <trkpt lat="45.98194" lon="4.58772">
        <ele>494</ele>
        <time>2018-07-07T09:39:59Z</time>
      </trkpt>
      <trkpt lat="45.982" lon="4.58766">
        <ele>494</ele>
        <time>2018-07-07T09:40:02Z</time>
      </trkpt>
      <trkpt lat="45.98202" lon="4.58764">
        <ele>494</ele>
        <time>2018-07-07T09:40:03Z</time>
      </trkpt>
      <trkpt lat="45.98209" lon="4.58757">
        <ele>494</ele>
        <time>2018-07-07T09:40:08Z</time>
      </trkpt>
      <trkpt lat="45.9821" lon="4.58756">
        <ele>494</ele>
        <time>2018-07-07T09:40:09Z</time>
      </trkpt>
      <trkpt lat="45.98218" lon="4.58751">
        <ele>493</ele>
        <time>2018-07-07T09:40:13Z</time>
      </trkpt>
      <trkpt lat="45.9822" lon="4.5875">
        <ele>499</ele>
        <time>2018-07-07T09:40:14Z</time>
      </trkpt>
      <trkpt lat="45.98227" lon="4.58746">
        <ele>499</ele>
        <time>2018-07-07T09:40:17Z</time>
      </trkpt>
      <trkpt lat="45.98229" lon="4.58745">
        <ele>499</ele>
        <time>2018-07-07T09:40:18Z</time>
      </trkpt>
      <trkpt lat="45.98235" lon="4.5874">
        <ele>498</ele>
        <time>2018-07-07T09:40:21Z</time>
      </trkpt>
      <trkpt lat="45.98237" lon="4.58739">
        <ele>498</ele>
        <time>2018-07-07T09:40:22Z</time>
      </trkpt>
      <trkpt lat="45.98244" lon="4.58735">
        <ele>498</ele>
        <time>2018-07-07T09:40:25Z</time>
      </trkpt>
      <trkpt lat="45.98245" lon="4.58734">
        <ele>498</ele>
        <time>2018-07-07T09:40:26Z</time>
      </trkpt>
      <trkpt lat="45.98253" lon="4.58728">
        <ele>497</ele>
        <time>2018-07-07T09:40:30Z</time>
      </trkpt>
      <trkpt lat="45.98255" lon="4.58726">
        <ele>497</ele>
        <time>2018-07-07T09:40:31Z</time>
      </trkpt>
      <trkpt lat="45.98261" lon="4.5872">
        <ele>498</ele>
        <time>2018-07-07T09:40:34Z</time>
      </trkpt>
      <trkpt lat="45.98263" lon="4.58718">
        <ele>498</ele>
        <time>2018-07-07T09:40:35Z</time>
      </trkpt>
      <trkpt lat="45.98269" lon="4.58713">
        <ele>498</ele>
        <time>2018-07-07T09:40:38Z</time>
      </trkpt>
      <trkpt lat="45.98271" lon="4.58711">
        <ele>499</ele>
        <time>2018-07-07T09:40:39Z</time>
      </trkpt>
      <trkpt lat="45.98276" lon="4.58705">
        <ele>499</ele>
        <time>2018-07-07T09:40:42Z</time>
      </trkpt>
      <trkpt lat="45.98278" lon="4.58704">
        <ele>499</ele>
        <time>2018-07-07T09:40:43Z</time>
      </trkpt>
      <trkpt lat="45.98285" lon="4.58697">
        <ele>499</ele>
        <time>2018-07-07T09:40:47Z</time>
      </trkpt>
      <trkpt lat="45.98286" lon="4.58696">
        <ele>499</ele>
        <time>2018-07-07T09:40:48Z</time>
      </trkpt>
      <trkpt lat="45.98292" lon="4.58691">
        <ele>500</ele>
        <time>2018-07-07T09:40:51Z</time>
      </trkpt>
      <trkpt lat="45.98294" lon="4.58689">
        <ele>500</ele>
        <time>2018-07-07T09:40:52Z</time>
      </trkpt>
      <trkpt lat="45.98301" lon="4.58684">
        <ele>500</ele>
        <time>2018-07-07T09:40:56Z</time>
      </trkpt>
      <trkpt lat="45.98304" lon="4.58682">
        <ele>500</ele>
        <time>2018-07-07T09:40:57Z</time>
      </trkpt>
      <trkpt lat="45.9831" lon="4.58677">
        <ele>500</ele>
        <time>2018-07-07T09:41:00Z</time>
      </trkpt>
      <trkpt lat="45.98312" lon="4.58676">
        <ele>500</ele>
        <time>2018-07-07T09:41:01Z</time>
      </trkpt>
      <trkpt lat="45.98319" lon="4.58667">
        <ele>501</ele>
        <time>2018-07-07T09:41:05Z</time>
      </trkpt>
      <trkpt lat="45.9832" lon="4.58665">
        <ele>505</ele>
        <time>2018-07-07T09:41:06Z</time>
      </trkpt>
      <trkpt lat="45.98327" lon="4.58658">
        <ele>504</ele>
        <time>2018-07-07T09:41:10Z</time>
      </trkpt>
      <trkpt lat="45.98328" lon="4.58656">
        <ele>504</ele>
        <time>2018-07-07T09:41:11Z</time>
      </trkpt>
      <trkpt lat="45.98334" lon="4.58649">
        <ele>503</ele>
        <time>2018-07-07T09:41:15Z</time>
      </trkpt>
      <trkpt lat="45.98335" lon="4.58648">
        <ele>503</ele>
        <time>2018-07-07T09:41:16Z</time>
      </trkpt>
      <trkpt lat="45.98341" lon="4.58642">
        <ele>503</ele>
        <time>2018-07-07T09:41:19Z</time>
      </trkpt>
      <trkpt lat="45.98343" lon="4.5864">
        <ele>503</ele>
        <time>2018-07-07T09:41:20Z</time>
      </trkpt>
      <trkpt lat="45.98349" lon="4.58631">
        <ele>503</ele>
        <time>2018-07-07T09:41:24Z</time>
      </trkpt>
      <trkpt lat="45.98351" lon="4.58628">
        <ele>503</ele>
        <time>2018-07-07T09:41:25Z</time>
      </trkpt>
      <trkpt lat="45.98358" lon="4.5862">
        <ele>504</ele>
        <time>2018-07-07T09:41:29Z</time>
      </trkpt>
      <trkpt lat="45.98359" lon="4.58618">
        <ele>504</ele>
        <time>2018-07-07T09:41:30Z</time>
      </trkpt>
      <trkpt lat="45.98366" lon="4.58612">
        <ele>504</ele>
        <time>2018-07-07T09:41:34Z</time>
      </trkpt>
      <trkpt lat="45.98368" lon="4.5861">
        <ele>504</ele>
        <time>2018-07-07T09:41:35Z</time>
      </trkpt>
      <trkpt lat="45.98373" lon="4.58603">
        <ele>504</ele>
        <time>2018-07-07T09:41:38Z</time>
      </trkpt>
      <trkpt lat="45.98374" lon="4.586">
        <ele>504</ele>
        <time>2018-07-07T09:41:39Z</time>
      </trkpt>
      <trkpt lat="45.98377" lon="4.5859">
        <ele>504</ele>
        <time>2018-07-07T09:41:43Z</time>
      </trkpt>
      <trkpt lat="45.98378" lon="4.58588">
        <ele>504</ele>
        <time>2018-07-07T09:41:44Z</time>
      </trkpt>
      <trkpt lat="45.98375" lon="4.58577">
        <ele>509</ele>
        <time>2018-07-07T09:41:49Z</time>
      </trkpt>
      <trkpt lat="45.98373" lon="4.58575">
        <ele>510</ele>
        <time>2018-07-07T09:41:50Z</time>
      </trkpt>
      <trkpt lat="45.98366" lon="4.5857">
        <ele>510</ele>
        <time>2018-07-07T09:41:54Z</time>
      </trkpt>
      <trkpt lat="45.98365" lon="4.5857">
        <ele>510</ele>
        <time>2018-07-07T09:41:55Z</time>
      </trkpt>
      <trkpt lat="45.98357" lon="4.58569">
        <ele>510</ele>
        <time>2018-07-07T09:41:59Z</time>
      </trkpt>
      <trkpt lat="45.98355" lon="4.5857">
        <ele>510</ele>
        <time>2018-07-07T09:42:00Z</time>
      </trkpt>
      <trkpt lat="45.98346" lon="4.58573">
        <ele>510</ele>
        <time>2018-07-07T09:42:05Z</time>
      </trkpt>
      <trkpt lat="45.98345" lon="4.58574">
        <ele>510</ele>
        <time>2018-07-07T09:42:06Z</time>
      </trkpt>
      <trkpt lat="45.98337" lon="4.58576">
        <ele>510</ele>
        <time>2018-07-07T09:42:10Z</time>
      </trkpt>
      <trkpt lat="45.98335" lon="4.58576">
        <ele>510</ele>
        <time>2018-07-07T09:42:11Z</time>
      </trkpt>
      <trkpt lat="45.98327" lon="4.58578">
        <ele>513</ele>
        <time>2018-07-07T09:42:15Z</time>
      </trkpt>
      <trkpt lat="45.98325" lon="4.58578">
        <ele>513</ele>
        <time>2018-07-07T09:42:16Z</time>
      </trkpt>
      <trkpt lat="45.98316" lon="4.5858">
        <ele>515</ele>
        <time>2018-07-07T09:42:20Z</time>
      </trkpt>
      <trkpt lat="45.98314" lon="4.5858">
        <ele>515</ele>
        <time>2018-07-07T09:42:21Z</time>
      </trkpt>
      <trkpt lat="45.98306" lon="4.58582">
        <ele>516</ele>
        <time>2018-07-07T09:42:25Z</time>
      </trkpt>
      <trkpt lat="45.98303" lon="4.58582">
        <ele>516</ele>
        <time>2018-07-07T09:42:26Z</time>
      </trkpt>
      <trkpt lat="45.98296" lon="4.58583">
        <ele>517</ele>
        <time>2018-07-07T09:42:30Z</time>
      </trkpt>
      <trkpt lat="45.98294" lon="4.58583">
        <ele>517</ele>
        <time>2018-07-07T09:42:31Z</time>
      </trkpt>
      <trkpt lat="45.98285" lon="4.58582">
        <ele>518</ele>
        <time>2018-07-07T09:42:35Z</time>
      </trkpt>
      <trkpt lat="45.98283" lon="4.58582">
        <ele>518</ele>
        <time>2018-07-07T09:42:36Z</time>
      </trkpt>
      <trkpt lat="45.98274" lon="4.5858">
        <ele>518</ele>
        <time>2018-07-07T09:42:40Z</time>
      </trkpt>
      <trkpt lat="45.98272" lon="4.5858">
        <ele>518</ele>
        <time>2018-07-07T09:42:41Z</time>
      </trkpt>
      <trkpt lat="45.98264" lon="4.58578">
        <ele>518</ele>
        <time>2018-07-07T09:42:45Z</time>
      </trkpt>
      <trkpt lat="45.98262" lon="4.58578">
        <ele>518</ele>
        <time>2018-07-07T09:42:46Z</time>
      </trkpt>
      <trkpt lat="45.98255" lon="4.58577">
        <ele>518</ele>
        <time>2018-07-07T09:42:50Z</time>
      </trkpt>
      <trkpt lat="45.98253" lon="4.58577">
        <ele>518</ele>
        <time>2018-07-07T09:42:51Z</time>
      </trkpt>
      <trkpt lat="45.98245" lon="4.58575">
        <ele>520</ele>
        <time>2018-07-07T09:42:55Z</time>
      </trkpt>
      <trkpt lat="45.98243" lon="4.58575">
        <ele>520</ele>
        <time>2018-07-07T09:42:56Z</time>
      </trkpt>
      <trkpt lat="45.98235" lon="4.58574">
        <ele>521</ele>
        <time>2018-07-07T09:43:00Z</time>
      </trkpt>
      <trkpt lat="45.98234" lon="4.58573">
        <ele>521</ele>
        <time>2018-07-07T09:43:01Z</time>
      </trkpt>
      <trkpt lat="45.98226" lon="4.58571">
        <ele>522</ele>
        <time>2018-07-07T09:43:05Z</time>
      </trkpt>
      <trkpt lat="45.98224" lon="4.5857">
        <ele>522</ele>
        <time>2018-07-07T09:43:06Z</time>
      </trkpt>
      <trkpt lat="45.98215" lon="4.58568">
        <ele>522</ele>
        <time>2018-07-07T09:43:11Z</time>
      </trkpt>
      <trkpt lat="45.98213" lon="4.58568">
        <ele>522</ele>
        <time>2018-07-07T09:43:12Z</time>
      </trkpt>
      <trkpt lat="45.98206" lon="4.58567">
        <ele>522</ele>
        <time>2018-07-07T09:43:16Z</time>
      </trkpt>
      <trkpt lat="45.98204" lon="4.58567">
        <ele>522</ele>
        <time>2018-07-07T09:43:17Z</time>
      </trkpt>
      <trkpt lat="45.98197" lon="4.58565">
        <ele>522</ele>
        <time>2018-07-07T09:43:21Z</time>
      </trkpt>
      <trkpt lat="45.98195" lon="4.58565">
        <ele>522</ele>
        <time>2018-07-07T09:43:22Z</time>
      </trkpt>
      <trkpt lat="45.98188" lon="4.58565">
        <ele>522</ele>
        <time>2018-07-07T09:43:25Z</time>
      </trkpt>
      <trkpt lat="45.98185" lon="4.58565">
        <ele>522</ele>
        <time>2018-07-07T09:43:26Z</time>
      </trkpt>
      <trkpt lat="45.98178" lon="4.58565">
        <ele>522</ele>
        <time>2018-07-07T09:43:29Z</time>
      </trkpt>
      <trkpt lat="45.98175" lon="4.58565">
        <ele>522</ele>
        <time>2018-07-07T09:43:30Z</time>
      </trkpt>
      <trkpt lat="45.98166" lon="4.58565">
        <ele>522</ele>
        <time>2018-07-07T09:43:34Z</time>
      </trkpt>
      <trkpt lat="45.98164" lon="4.58565">
        <ele>522</ele>
        <time>2018-07-07T09:43:35Z</time>
      </trkpt>
      <trkpt lat="45.98157" lon="4.58566">
        <ele>522</ele>
        <time>2018-07-07T09:43:38Z</time>
      </trkpt>
      <trkpt lat="45.98154" lon="4.58566">
        <ele>523</ele>
        <time>2018-07-07T09:43:39Z</time>
      </trkpt>
      <trkpt lat="45.98148" lon="4.58565">
        <ele>523</ele>
        <time>2018-07-07T09:43:42Z</time>
      </trkpt>
      <trkpt lat="45.98145" lon="4.58564">
        <ele>523</ele>
        <time>2018-07-07T09:43:43Z</time>
      </trkpt>
      <trkpt lat="45.98138" lon="4.58563">
        <ele>524</ele>
        <time>2018-07-07T09:43:46Z</time>
      </trkpt>
      <trkpt lat="45.98136" lon="4.58562">
        <ele>524</ele>
        <time>2018-07-07T09:43:47Z</time>
      </trkpt>
      <trkpt lat="45.98128" lon="4.58559">
        <ele>525</ele>
        <time>2018-07-07T09:43:51Z</time>
      </trkpt>
      <trkpt lat="45.98125" lon="4.58558">
        <ele>525</ele>
        <time>2018-07-07T09:43:52Z</time>
      </trkpt>
      <trkpt lat="45.98117" lon="4.58554">
        <ele>525</ele>
        <time>2018-07-07T09:43:56Z</time>
      </trkpt>
      <trkpt lat="45.98116" lon="4.58554">
        <ele>525</ele>
        <time>2018-07-07T09:43:57Z</time>
      </trkpt>
      <trkpt lat="45.98108" lon="4.58552">
        <ele>525</ele>
        <time>2018-07-07T09:44:01Z</time>
      </trkpt>
      <trkpt lat="45.98106" lon="4.58552">
        <ele>525</ele>
        <time>2018-07-07T09:44:02Z</time>
      </trkpt>
      <trkpt lat="45.98098" lon="4.5855">
        <ele>525</ele>
        <time>2018-07-07T09:44:06Z</time>
      </trkpt>
      <trkpt lat="45.98097" lon="4.5855">
        <ele>525</ele>
        <time>2018-07-07T09:44:07Z</time>
      </trkpt>
      <trkpt lat="45.98088" lon="4.58548">
        <ele>526</ele>
        <time>2018-07-07T09:44:12Z</time>
      </trkpt>
      <trkpt lat="45.98087" lon="4.58547">
        <ele>526</ele>
        <time>2018-07-07T09:44:13Z</time>
      </trkpt>
      <trkpt lat="45.98078" lon="4.58545">
        <ele>528</ele>
        <time>2018-07-07T09:44:19Z</time>
      </trkpt>
      <trkpt lat="45.98077" lon="4.58545">
        <ele>528</ele>
        <time>2018-07-07T09:44:20Z</time>
      </trkpt>
      <trkpt lat="45.98068" lon="4.58544">
        <ele>529</ele>
        <time>2018-07-07T09:44:25Z</time>
      </trkpt>
      <trkpt lat="45.98066" lon="4.58543">
        <ele>529</ele>
        <time>2018-07-07T09:44:26Z</time>
      </trkpt>
      <trkpt lat="45.98058" lon="4.58543">
        <ele>529</ele>
        <time>2018-07-07T09:44:30Z</time>
      </trkpt>
      <trkpt lat="45.98055" lon="4.58543">
        <ele>529</ele>
        <time>2018-07-07T09:44:31Z</time>
      </trkpt>
      <trkpt lat="45.98047" lon="4.5854">
        <ele>530</ele>
        <time>2018-07-07T09:44:35Z</time>
      </trkpt>
      <trkpt lat="45.98045" lon="4.58539">
        <ele>530</ele>
        <time>2018-07-07T09:44:36Z</time>
      </trkpt>
      <trkpt lat="45.98036" lon="4.58538">
        <ele>530</ele>
        <time>2018-07-07T09:44:40Z</time>
      </trkpt>
      <trkpt lat="45.98034" lon="4.58538">
        <ele>530</ele>
        <time>2018-07-07T09:44:41Z</time>
      </trkpt>
      <trkpt lat="45.98026" lon="4.58538">
        <ele>531</ele>
        <time>2018-07-07T09:44:45Z</time>
      </trkpt>
      <trkpt lat="45.98024" lon="4.58538">
        <ele>531</ele>
        <time>2018-07-07T09:44:46Z</time>
      </trkpt>
      <trkpt lat="45.98016" lon="4.58538">
        <ele>531</ele>
        <time>2018-07-07T09:44:50Z</time>
      </trkpt>
      <trkpt lat="45.98014" lon="4.58539">
        <ele>531</ele>
        <time>2018-07-07T09:44:51Z</time>
      </trkpt>
      <trkpt lat="45.98006" lon="4.5854">
        <ele>531</ele>
        <time>2018-07-07T09:44:55Z</time>
      </trkpt>
      <trkpt lat="45.98004" lon="4.5854">
        <ele>531</ele>
        <time>2018-07-07T09:44:56Z</time>
      </trkpt>
      <trkpt lat="45.97995" lon="4.58541">
        <ele>534</ele>
        <time>2018-07-07T09:45:00Z</time>
      </trkpt>
      <trkpt lat="45.97993" lon="4.58542">
        <ele>534</ele>
        <time>2018-07-07T09:45:01Z</time>
      </trkpt>
      <trkpt lat="45.97984" lon="4.58543">
        <ele>535</ele>
        <time>2018-07-07T09:45:05Z</time>
      </trkpt>
      <trkpt lat="45.97982" lon="4.58544">
        <ele>535</ele>
        <time>2018-07-07T09:45:06Z</time>
      </trkpt>
      <trkpt lat="45.97976" lon="4.58546">
        <ele>535</ele>
        <time>2018-07-07T09:45:09Z</time>
      </trkpt>
      <trkpt lat="45.97973" lon="4.58546">
        <ele>535</ele>
        <time>2018-07-07T09:45:10Z</time>
      </trkpt>
      <trkpt lat="45.97965" lon="4.58547">
        <ele>535</ele>
        <time>2018-07-07T09:45:14Z</time>
      </trkpt>
      <trkpt lat="45.97963" lon="4.58548">
        <ele>535</ele>
        <time>2018-07-07T09:45:15Z</time>
      </trkpt>
      <trkpt lat="45.97954" lon="4.58547">
        <ele>535</ele>
        <time>2018-07-07T09:45:19Z</time>
      </trkpt>
      <trkpt lat="45.97952" lon="4.58547">
        <ele>536</ele>
        <time>2018-07-07T09:45:20Z</time>
      </trkpt>
      <trkpt lat="45.97943" lon="4.58547">
        <ele>536</ele>
        <time>2018-07-07T09:45:24Z</time>
      </trkpt>
      <trkpt lat="45.97941" lon="4.58547">
        <ele>536</ele>
        <time>2018-07-07T09:45:25Z</time>
      </trkpt>
      <trkpt lat="45.97933" lon="4.58547">
        <ele>536</ele>
        <time>2018-07-07T09:45:28Z</time>
      </trkpt>
      <trkpt lat="45.97931" lon="4.58547">
        <ele>536</ele>
        <time>2018-07-07T09:45:29Z</time>
      </trkpt>
      <trkpt lat="45.97922" lon="4.58548">
        <ele>536</ele>
        <time>2018-07-07T09:45:33Z</time>
      </trkpt>
      <trkpt lat="45.9792" lon="4.58548">
        <ele>536</ele>
        <time>2018-07-07T09:45:34Z</time>
      </trkpt>
      <trkpt lat="45.97912" lon="4.58549">
        <ele>539</ele>
        <time>2018-07-07T09:45:38Z</time>
      </trkpt>
      <trkpt lat="45.9791" lon="4.58549">
        <ele>539</ele>
        <time>2018-07-07T09:45:39Z</time>
      </trkpt>
      <trkpt lat="45.97902" lon="4.5855">
        <ele>539</ele>
        <time>2018-07-07T09:45:43Z</time>
      </trkpt>
      <trkpt lat="45.979" lon="4.5855">
        <ele>539</ele>
        <time>2018-07-07T09:45:44Z</time>
      </trkpt>
      <trkpt lat="45.97892" lon="4.58549">
        <ele>540</ele>
        <time>2018-07-07T09:45:48Z</time>
      </trkpt>
      <trkpt lat="45.97889" lon="4.58549">
        <ele>540</ele>
        <time>2018-07-07T09:45:49Z</time>
      </trkpt>
      <trkpt lat="45.97882" lon="4.58549">
        <ele>540</ele>
        <time>2018-07-07T09:45:52Z</time>
      </trkpt>
      <trkpt lat="45.9788" lon="4.5855">
        <ele>540</ele>
        <time>2018-07-07T09:45:53Z</time>
      </trkpt>
      <trkpt lat="45.97872" lon="4.58551">
        <ele>540</ele>
        <time>2018-07-07T09:45:56Z</time>
      </trkpt>
      <trkpt lat="45.9787" lon="4.58551">
        <ele>540</ele>
        <time>2018-07-07T09:45:57Z</time>
      </trkpt>
      <trkpt lat="45.97862" lon="4.58552">
        <ele>540</ele>
        <time>2018-07-07T09:46:01Z</time>
      </trkpt>
      <trkpt lat="45.9786" lon="4.58552">
        <ele>540</ele>
        <time>2018-07-07T09:46:02Z</time>
      </trkpt>
      <trkpt lat="45.97853" lon="4.58552">
        <ele>540</ele>
        <time>2018-07-07T09:46:05Z</time>
      </trkpt>
      <trkpt lat="45.9785" lon="4.58552">
        <ele>540</ele>
        <time>2018-07-07T09:46:06Z</time>
      </trkpt>
      <trkpt lat="45.97842" lon="4.5855">
        <ele>540</ele>
        <time>2018-07-07T09:46:10Z</time>
      </trkpt>
      <trkpt lat="45.9784" lon="4.58549">
        <ele>541</ele>
        <time>2018-07-07T09:46:11Z</time>
      </trkpt>
      <trkpt lat="45.97831" lon="4.58544">
        <ele>543</ele>
        <time>2018-07-07T09:46:15Z</time>
      </trkpt>
      <trkpt lat="45.9783" lon="4.58542">
        <ele>543</ele>
        <time>2018-07-07T09:46:16Z</time>
      </trkpt>
      <trkpt lat="45.97825" lon="4.58533">
        <ele>544</ele>
        <time>2018-07-07T09:46:20Z</time>
      </trkpt>
      <trkpt lat="45.97825" lon="4.5853">
        <ele>544</ele>
        <time>2018-07-07T09:46:21Z</time>
      </trkpt>
      <trkpt lat="45.97823" lon="4.58518">
        <ele>544</ele>
        <time>2018-07-07T09:46:25Z</time>
      </trkpt>
      <trkpt lat="45.97822" lon="4.58515">
        <ele>544</ele>
        <time>2018-07-07T09:46:26Z</time>
      </trkpt>
      <trkpt lat="45.97821" lon="4.58503">
        <ele>545</ele>
        <time>2018-07-07T09:46:30Z</time>
      </trkpt>
      <trkpt lat="45.97821" lon="4.58499">
        <ele>546</ele>
        <time>2018-07-07T09:46:31Z</time>
      </trkpt>
      <trkpt lat="45.97822" lon="4.58487">
        <ele>547</ele>
        <time>2018-07-07T09:46:35Z</time>
      </trkpt>
      <trkpt lat="45.97821" lon="4.58484">
        <ele>547</ele>
        <time>2018-07-07T09:46:36Z</time>
      </trkpt>
      <trkpt lat="45.97821" lon="4.58472">
        <ele>548</ele>
        <time>2018-07-07T09:46:40Z</time>
      </trkpt>
      <trkpt lat="45.97821" lon="4.5847">
        <ele>548</ele>
        <time>2018-07-07T09:46:41Z</time>
      </trkpt>
      <trkpt lat="45.97821" lon="4.58459">
        <ele>549</ele>
        <time>2018-07-07T09:46:45Z</time>
      </trkpt>
      <trkpt lat="45.97821" lon="4.58456">
        <ele>549</ele>
        <time>2018-07-07T09:46:46Z</time>
      </trkpt>
      <trkpt lat="45.97822" lon="4.58443">
        <ele>549</ele>
        <time>2018-07-07T09:46:50Z</time>
      </trkpt>
      <trkpt lat="45.97822" lon="4.5844">
        <ele>549</ele>
        <time>2018-07-07T09:46:51Z</time>
      </trkpt>
      <trkpt lat="45.97821" lon="4.58428">
        <ele>550</ele>
        <time>2018-07-07T09:46:55Z</time>
      </trkpt>
      <trkpt lat="45.9782" lon="4.58425">
        <ele>550</ele>
        <time>2018-07-07T09:46:56Z</time>
      </trkpt>
      <trkpt lat="45.9782" lon="4.58413">
        <ele>551</ele>
        <time>2018-07-07T09:47:00Z</time>
      </trkpt>
      <trkpt lat="45.9782" lon="4.5841">
        <ele>551</ele>
        <time>2018-07-07T09:47:01Z</time>
      </trkpt>
      <trkpt lat="45.9782" lon="4.584">
        <ele>551</ele>
        <time>2018-07-07T09:47:05Z</time>
      </trkpt>
      <trkpt lat="45.9782" lon="4.58397">
        <ele>551</ele>
        <time>2018-07-07T09:47:06Z</time>
      </trkpt>
      <trkpt lat="45.9782" lon="4.58386">
        <ele>551</ele>
        <time>2018-07-07T09:47:10Z</time>
      </trkpt>
      <trkpt lat="45.97819" lon="4.58384">
        <ele>551</ele>
        <time>2018-07-07T09:47:11Z</time>
      </trkpt>
      <trkpt lat="45.97819" lon="4.58372">
        <ele>551</ele>
        <time>2018-07-07T09:47:15Z</time>
      </trkpt>
      <trkpt lat="45.97819" lon="4.58369">
        <ele>551</ele>
        <time>2018-07-07T09:47:16Z</time>
      </trkpt>
      <trkpt lat="45.97818" lon="4.58356">
        <ele>551</ele>
        <time>2018-07-07T09:47:20Z</time>
      </trkpt>
      <trkpt lat="45.97818" lon="4.58353">
        <ele>551</ele>
        <time>2018-07-07T09:47:21Z</time>
      </trkpt>
      <trkpt lat="45.97815" lon="4.58343">
        <ele>551</ele>
        <time>2018-07-07T09:47:25Z</time>
      </trkpt>
      <trkpt lat="45.97814" lon="4.58341">
        <ele>551</ele>
        <time>2018-07-07T09:47:26Z</time>
      </trkpt>
      <trkpt lat="45.97813" lon="4.58337">
        <ele>551</ele>
        <time>2018-07-07T09:47:42Z</time>
      </trkpt>
      <trkpt lat="45.97814" lon="4.58337">
        <ele>551</ele>
        <time>2018-07-07T09:47:43Z</time>
      </trkpt>
      <trkpt lat="45.97814" lon="4.58337">
        <ele>551</ele>
        <time>2018-07-07T09:47:44Z</time>
      </trkpt>
      <trkpt lat="45.97813" lon="4.58343">
        <ele>551</ele>
        <time>2018-07-07T09:48:19Z</time>
      </trkpt>
      <trkpt lat="45.97813" lon="4.58343">
        <ele>551</ele>
        <time>2018-07-07T09:48:20Z</time>
      </trkpt>
      <trkpt lat="45.97813" lon="4.58342">
        <ele>551</ele>
        <time>2018-07-07T09:48:27Z</time>
      </trkpt>
      <trkpt lat="45.97813" lon="4.58342">
        <ele>551</ele>
        <time>2018-07-07T09:48:28Z</time>
      </trkpt>
      <trkpt lat="45.97809" lon="4.58331">
        <ele>551</ele>
        <time>2018-07-07T09:48:44Z</time>
      </trkpt>
      <trkpt lat="45.97808" lon="4.58329">
        <ele>551</ele>
        <time>2018-07-07T09:48:45Z</time>
      </trkpt>
      <trkpt lat="45.97805" lon="4.58317">
        <ele>551</ele>
        <time>2018-07-07T09:48:48Z</time>
      </trkpt>
      <trkpt lat="45.97803" lon="4.58304">
        <ele>551</ele>
        <time>2018-07-07T09:48:49Z</time>
      </trkpt>
      <trkpt lat="45.97801" lon="4.58292">
        <ele>551</ele>
        <time>2018-07-07T09:48:52Z</time>
      </trkpt>
      <trkpt lat="45.978" lon="4.58289">
        <ele>551</ele>
        <time>2018-07-07T09:48:53Z</time>
      </trkpt>
      <trkpt lat="45.97799" lon="4.58285">
        <ele>551</ele>
        <time>2018-07-07T09:48:54Z</time>
      </trkpt>
      <trkpt lat="45.97796" lon="4.58275">
        <ele>551</ele>
        <time>2018-07-07T09:48:55Z</time>
      </trkpt>
      <trkpt lat="45.97791" lon="4.58266">
        <ele>551</ele>
        <time>2018-07-07T09:48:57Z</time>
      </trkpt>
      <trkpt lat="45.97789" lon="4.58262">
        <ele>551</ele>
        <time>2018-07-07T09:48:58Z</time>
      </trkpt>
      <trkpt lat="45.97783" lon="4.58255">
        <ele>551</ele>
        <time>2018-07-07T09:49:00Z</time>
      </trkpt>
      <trkpt lat="45.9778" lon="4.58251">
        <ele>551</ele>
        <time>2018-07-07T09:49:01Z</time>
      </trkpt>
      <trkpt lat="45.97777" lon="4.58247">
        <ele>550</ele>
        <time>2018-07-07T09:49:02Z</time>
      </trkpt>
      <trkpt lat="45.97772" lon="4.58243">
        <ele>550</ele>
        <time>2018-07-07T09:49:03Z</time>
      </trkpt>
      <trkpt lat="45.97768" lon="4.58239">
        <ele>550</ele>
        <time>2018-07-07T09:49:04Z</time>
      </trkpt>
      <trkpt lat="45.97763" lon="4.58234">
        <ele>550</ele>
        <time>2018-07-07T09:49:05Z</time>
      </trkpt>
      <trkpt lat="45.97759" lon="4.5823">
        <ele>549</ele>
        <time>2018-07-07T09:49:06Z</time>
      </trkpt>
      <trkpt lat="45.97755" lon="4.58225">
        <ele>549</ele>
        <time>2018-07-07T09:49:07Z</time>
      </trkpt>
      <trkpt lat="45.97747" lon="4.58219">
        <ele>548</ele>
        <time>2018-07-07T09:49:09Z</time>
      </trkpt>
      <trkpt lat="45.97743" lon="4.58216">
        <ele>548</ele>
        <time>2018-07-07T09:49:10Z</time>
      </trkpt>
      <trkpt lat="45.97739" lon="4.58214">
        <ele>548</ele>
        <time>2018-07-07T09:49:11Z</time>
      </trkpt>
      <trkpt lat="45.97732" lon="4.58211">
        <ele>548</ele>
        <time>2018-07-07T09:49:12Z</time>
      </trkpt>
      <trkpt lat="45.97727" lon="4.58207">
        <ele>547</ele>
        <time>2018-07-07T09:49:13Z</time>
      </trkpt>
      <trkpt lat="45.97722" lon="4.58205">
        <ele>547</ele>
        <time>2018-07-07T09:49:14Z</time>
      </trkpt>
      <trkpt lat="45.97717" lon="4.58203">
        <ele>547</ele>
        <time>2018-07-07T09:49:15Z</time>
      </trkpt>
      <trkpt lat="45.97712" lon="4.58198">
        <ele>547</ele>
        <time>2018-07-07T09:49:16Z</time>
      </trkpt>
      <trkpt lat="45.97707" lon="4.58197">
        <ele>547</ele>
        <time>2018-07-07T09:49:17Z</time>
      </trkpt>
      <trkpt lat="45.97701" lon="4.58195">
        <ele>547</ele>
        <time>2018-07-07T09:49:18Z</time>
      </trkpt>
      <trkpt lat="45.97695" lon="4.58191">
        <ele>546</ele>
        <time>2018-07-07T09:49:19Z</time>
      </trkpt>
      <trkpt lat="45.97688" lon="4.58187">
        <ele>546</ele>
        <time>2018-07-07T09:49:20Z</time>
      </trkpt>
      <trkpt lat="45.97683" lon="4.58186">
        <ele>546</ele>
        <time>2018-07-07T09:49:21Z</time>
      </trkpt>
      <trkpt lat="45.97677" lon="4.58183">
        <ele>545</ele>
        <time>2018-07-07T09:49:22Z</time>
      </trkpt>
      <trkpt lat="45.9767" lon="4.58182">
        <ele>545</ele>
        <time>2018-07-07T09:49:23Z</time>
      </trkpt>
      <trkpt lat="45.97663" lon="4.58181">
        <ele>545</ele>
        <time>2018-07-07T09:49:24Z</time>
      </trkpt>
      <trkpt lat="45.97655" lon="4.5818">
        <ele>545</ele>
        <time>2018-07-07T09:49:25Z</time>
      </trkpt>
      <trkpt lat="45.97647" lon="4.5818">
        <ele>545</ele>
        <time>2018-07-07T09:49:26Z</time>
      </trkpt>
      <trkpt lat="45.9764" lon="4.58178">
        <ele>546</ele>
        <time>2018-07-07T09:49:27Z</time>
      </trkpt>
      <trkpt lat="45.97632" lon="4.58176">
        <ele>546</ele>
        <time>2018-07-07T09:49:28Z</time>
      </trkpt>
      <trkpt lat="45.97624" lon="4.58174">
        <ele>546</ele>
        <time>2018-07-07T09:49:29Z</time>
      </trkpt>
      <trkpt lat="45.97616" lon="4.58171">
        <ele>545</ele>
        <time>2018-07-07T09:49:30Z</time>
      </trkpt>
      <trkpt lat="45.97607" lon="4.5817">
        <ele>545</ele>
        <time>2018-07-07T09:49:31Z</time>
      </trkpt>
      <trkpt lat="45.976" lon="4.58168">
        <ele>544</ele>
        <time>2018-07-07T09:49:32Z</time>
      </trkpt>
      <trkpt lat="45.97592" lon="4.58168">
        <ele>543</ele>
        <time>2018-07-07T09:49:33Z</time>
      </trkpt>
      <trkpt lat="45.97585" lon="4.58167">
        <ele>541</ele>
        <time>2018-07-07T09:49:34Z</time>
      </trkpt>
      <trkpt lat="45.97579" lon="4.58165">
        <ele>540</ele>
        <time>2018-07-07T09:49:35Z</time>
      </trkpt>
      <trkpt lat="45.9757" lon="4.58165">
        <ele>540</ele>
        <time>2018-07-07T09:49:36Z</time>
      </trkpt>
      <trkpt lat="45.97564" lon="4.58162">
        <ele>539</ele>
        <time>2018-07-07T09:49:37Z</time>
      </trkpt>
      <trkpt lat="45.97559" lon="4.58161">
        <ele>539</ele>
        <time>2018-07-07T09:49:38Z</time>
      </trkpt>
      <trkpt lat="45.97548" lon="4.5816">
        <ele>540</ele>
        <time>2018-07-07T09:49:39Z</time>
      </trkpt>
      <trkpt lat="45.9754" lon="4.58158">
        <ele>540</ele>
        <time>2018-07-07T09:49:40Z</time>
      </trkpt>
      <trkpt lat="45.97534" lon="4.58157">
        <ele>541</ele>
        <time>2018-07-07T09:49:41Z</time>
      </trkpt>
      <trkpt lat="45.97527" lon="4.58156">
        <ele>541</ele>
        <time>2018-07-07T09:49:42Z</time>
      </trkpt>
      <trkpt lat="45.97521" lon="4.58155">
        <ele>542</ele>
        <time>2018-07-07T09:49:43Z</time>
      </trkpt>
      <trkpt lat="45.97513" lon="4.58149">
        <ele>542</ele>
        <time>2018-07-07T09:49:44Z</time>
      </trkpt>
      <trkpt lat="45.97508" lon="4.58147">
        <ele>543</ele>
        <time>2018-07-07T09:49:45Z</time>
      </trkpt>
      <trkpt lat="45.975" lon="4.58142">
        <ele>542</ele>
        <time>2018-07-07T09:49:46Z</time>
      </trkpt>
      <trkpt lat="45.97494" lon="4.58138">
        <ele>546</ele>
        <time>2018-07-07T09:49:47Z</time>
      </trkpt>
      <trkpt lat="45.97486" lon="4.58134">
        <ele>546</ele>
        <time>2018-07-07T09:49:48Z</time>
      </trkpt>
      <trkpt lat="45.97478" lon="4.58131">
        <ele>546</ele>
        <time>2018-07-07T09:49:49Z</time>
      </trkpt>
      <trkpt lat="45.9747" lon="4.58127">
        <ele>546</ele>
        <time>2018-07-07T09:49:50Z</time>
      </trkpt>
      <trkpt lat="45.97462" lon="4.58123">
        <ele>546</ele>
        <time>2018-07-07T09:49:51Z</time>
      </trkpt>
      <trkpt lat="45.97456" lon="4.58119">
        <ele>546</ele>
        <time>2018-07-07T09:49:52Z</time>
      </trkpt>
      <trkpt lat="45.97452" lon="4.58112">
        <ele>545</ele>
        <time>2018-07-07T09:49:53Z</time>
      </trkpt>
      <trkpt lat="45.97447" lon="4.58105">
        <ele>545</ele>
        <time>2018-07-07T09:49:54Z</time>
      </trkpt>
      <trkpt lat="45.9744" lon="4.58098">
        <ele>545</ele>
        <time>2018-07-07T09:49:55Z</time>
      </trkpt>
      <trkpt lat="45.97434" lon="4.58093">
        <ele>545</ele>
        <time>2018-07-07T09:49:56Z</time>
      </trkpt>
      <trkpt lat="45.97426" lon="4.58087">
        <ele>545</ele>
        <time>2018-07-07T09:49:57Z</time>
      </trkpt>
      <trkpt lat="45.97419" lon="4.58081">
        <ele>542</ele>
        <time>2018-07-07T09:49:58Z</time>
      </trkpt>
      <trkpt lat="45.97413" lon="4.58074">
        <ele>541</ele>
        <time>2018-07-07T09:49:59Z</time>
      </trkpt>
      <trkpt lat="45.97408" lon="4.58067">
        <ele>540</ele>
        <time>2018-07-07T09:50:00Z</time>
      </trkpt>
      <trkpt lat="45.97401" lon="4.58061">
        <ele>538</ele>
        <time>2018-07-07T09:50:01Z</time>
      </trkpt>
      <trkpt lat="45.97396" lon="4.58055">
        <ele>537</ele>
        <time>2018-07-07T09:50:02Z</time>
      </trkpt>
      <trkpt lat="45.9739" lon="4.58051">
        <ele>537</ele>
        <time>2018-07-07T09:50:03Z</time>
      </trkpt>
      <trkpt lat="45.97385" lon="4.58047">
        <ele>536</ele>
        <time>2018-07-07T09:50:04Z</time>
      </trkpt>
      <trkpt lat="45.97377" lon="4.58044">
        <ele>536</ele>
        <time>2018-07-07T09:50:05Z</time>
      </trkpt>
      <trkpt lat="45.97371" lon="4.58041">
        <ele>535</ele>
        <time>2018-07-07T09:50:06Z</time>
      </trkpt>
      <trkpt lat="45.97364" lon="4.58043">
        <ele>535</ele>
        <time>2018-07-07T09:50:07Z</time>
      </trkpt>
      <trkpt lat="45.97355" lon="4.58044">
        <ele>535</ele>
        <time>2018-07-07T09:50:08Z</time>
      </trkpt>
      <trkpt lat="45.97348" lon="4.58048">
        <ele>536</ele>
        <time>2018-07-07T09:50:09Z</time>
      </trkpt>
      <trkpt lat="45.9734" lon="4.5805">
        <ele>536</ele>
        <time>2018-07-07T09:50:10Z</time>
      </trkpt>
      <trkpt lat="45.97333" lon="4.58055">
        <ele>537</ele>
        <time>2018-07-07T09:50:11Z</time>
      </trkpt>
      <trkpt lat="45.97327" lon="4.5806">
        <ele>537</ele>
        <time>2018-07-07T09:50:12Z</time>
      </trkpt>
      <trkpt lat="45.9732" lon="4.58069">
        <ele>538</ele>
        <time>2018-07-07T09:50:13Z</time>
      </trkpt>
      <trkpt lat="45.97313" lon="4.58083">
        <ele>539</ele>
        <time>2018-07-07T09:50:14Z</time>
      </trkpt>
      <trkpt lat="45.97308" lon="4.58089">
        <ele>549</ele>
        <time>2018-07-07T09:50:15Z</time>
      </trkpt>
      <trkpt lat="45.97302" lon="4.58101">
        <ele>551</ele>
        <time>2018-07-07T09:50:16Z</time>
      </trkpt>
      <trkpt lat="45.97297" lon="4.58106">
        <ele>551</ele>
        <time>2018-07-07T09:50:17Z</time>
      </trkpt>
      <trkpt lat="45.97291" lon="4.58109">
        <ele>552</ele>
        <time>2018-07-07T09:50:18Z</time>
      </trkpt>
      <trkpt lat="45.97283" lon="4.58112">
        <ele>552</ele>
        <time>2018-07-07T09:50:19Z</time>
      </trkpt>
      <trkpt lat="45.97275" lon="4.58112">
        <ele>552</ele>
        <time>2018-07-07T09:50:20Z</time>
      </trkpt>
      <trkpt lat="45.97267" lon="4.58111">
        <ele>551</ele>
        <time>2018-07-07T09:50:21Z</time>
      </trkpt>
      <trkpt lat="45.97259" lon="4.58108">
        <ele>551</ele>
        <time>2018-07-07T09:50:22Z</time>
      </trkpt>
      <trkpt lat="45.97252" lon="4.58108">
        <ele>550</ele>
        <time>2018-07-07T09:50:23Z</time>
      </trkpt>
      <trkpt lat="45.97244" lon="4.58103">
        <ele>551</ele>
        <time>2018-07-07T09:50:24Z</time>
      </trkpt>
      <trkpt lat="45.97236" lon="4.58098">
        <ele>550</ele>
        <time>2018-07-07T09:50:25Z</time>
      </trkpt>
      <trkpt lat="45.9723" lon="4.5809">
        <ele>550</ele>
        <time>2018-07-07T09:50:26Z</time>
      </trkpt>
      <trkpt lat="45.97225" lon="4.58085">
        <ele>551</ele>
        <time>2018-07-07T09:50:27Z</time>
      </trkpt>
      <trkpt lat="45.97217" lon="4.58077">
        <ele>540</ele>
        <time>2018-07-07T09:50:28Z</time>
      </trkpt>
      <trkpt lat="45.97211" lon="4.58067">
        <ele>540</ele>
        <time>2018-07-07T09:50:29Z</time>
      </trkpt>
      <trkpt lat="45.97207" lon="4.58059">
        <ele>539</ele>
        <time>2018-07-07T09:50:30Z</time>
      </trkpt>
      <trkpt lat="45.97202" lon="4.58051">
        <ele>538</ele>
        <time>2018-07-07T09:50:31Z</time>
      </trkpt>
      <trkpt lat="45.97197" lon="4.58045">
        <ele>538</ele>
        <time>2018-07-07T09:50:32Z</time>
      </trkpt>
      <trkpt lat="45.97191" lon="4.58038">
        <ele>537</ele>
        <time>2018-07-07T09:50:33Z</time>
      </trkpt>
      <trkpt lat="45.97184" lon="4.58031">
        <ele>537</ele>
        <time>2018-07-07T09:50:34Z</time>
      </trkpt>
      <trkpt lat="45.9718" lon="4.58025">
        <ele>536</ele>
        <time>2018-07-07T09:50:35Z</time>
      </trkpt>
      <trkpt lat="45.97174" lon="4.58019">
        <ele>535</ele>
        <time>2018-07-07T09:50:36Z</time>
      </trkpt>
      <trkpt lat="45.97171" lon="4.58015">
        <ele>534</ele>
        <time>2018-07-07T09:50:37Z</time>
      </trkpt>
      <trkpt lat="45.97164" lon="4.58011">
        <ele>535</ele>
        <time>2018-07-07T09:50:38Z</time>
      </trkpt>
      <trkpt lat="45.97158" lon="4.58007">
        <ele>535</ele>
        <time>2018-07-07T09:50:39Z</time>
      </trkpt>
      <trkpt lat="45.97152" lon="4.58003">
        <ele>535</ele>
        <time>2018-07-07T09:50:40Z</time>
      </trkpt>
      <trkpt lat="45.97147" lon="4.58001">
        <ele>535</ele>
        <time>2018-07-07T09:50:41Z</time>
      </trkpt>
      <trkpt lat="45.9714" lon="4.57999">
        <ele>527</ele>
        <time>2018-07-07T09:50:42Z</time>
      </trkpt>
      <trkpt lat="45.97133" lon="4.57997">
        <ele>527</ele>
        <time>2018-07-07T09:50:43Z</time>
      </trkpt>
      <trkpt lat="45.97126" lon="4.57996">
        <ele>526</ele>
        <time>2018-07-07T09:50:44Z</time>
      </trkpt>
      <trkpt lat="45.9712" lon="4.57995">
        <ele>526</ele>
        <time>2018-07-07T09:50:45Z</time>
      </trkpt>
      <trkpt lat="45.97113" lon="4.57995">
        <ele>526</ele>
        <time>2018-07-07T09:50:46Z</time>
      </trkpt>
      <trkpt lat="45.97106" lon="4.57997">
        <ele>527</ele>
        <time>2018-07-07T09:50:47Z</time>
      </trkpt>
      <trkpt lat="45.971" lon="4.58">
        <ele>527</ele>
        <time>2018-07-07T09:50:48Z</time>
      </trkpt>
      <trkpt lat="45.97094" lon="4.58003">
        <ele>533</ele>
        <time>2018-07-07T09:50:49Z</time>
      </trkpt>
      <trkpt lat="45.97088" lon="4.58006">
        <ele>532</ele>
        <time>2018-07-07T09:50:50Z</time>
      </trkpt>
      <trkpt lat="45.97082" lon="4.58012">
        <ele>530</ele>
        <time>2018-07-07T09:50:51Z</time>
      </trkpt>
      <trkpt lat="45.97076" lon="4.58017">
        <ele>531</ele>
        <time>2018-07-07T09:50:52Z</time>
      </trkpt>
      <trkpt lat="45.97071" lon="4.58025">
        <ele>531</ele>
        <time>2018-07-07T09:50:53Z</time>
      </trkpt>
      <trkpt lat="45.97066" lon="4.58031">
        <ele>531</ele>
        <time>2018-07-07T09:50:54Z</time>
      </trkpt>
      <trkpt lat="45.9706" lon="4.58038">
        <ele>532</ele>
        <time>2018-07-07T09:50:55Z</time>
      </trkpt>
      <trkpt lat="45.97058" lon="4.5805">
        <ele>533</ele>
        <time>2018-07-07T09:50:56Z</time>
      </trkpt>
      <trkpt lat="45.97053" lon="4.58058">
        <ele>534</ele>
        <time>2018-07-07T09:50:57Z</time>
      </trkpt>
      <trkpt lat="45.97048" lon="4.58065">
        <ele>534</ele>
        <time>2018-07-07T09:50:58Z</time>
      </trkpt>
      <trkpt lat="45.97043" lon="4.58071">
        <ele>534</ele>
        <time>2018-07-07T09:50:59Z</time>
      </trkpt>
      <trkpt lat="45.97038" lon="4.58078">
        <ele>534</ele>
        <time>2018-07-07T09:51:00Z</time>
      </trkpt>
      <trkpt lat="45.97033" lon="4.58086">
        <ele>544</ele>
        <time>2018-07-07T09:51:01Z</time>
      </trkpt>
      <trkpt lat="45.97028" lon="4.58091">
        <ele>544</ele>
        <time>2018-07-07T09:51:02Z</time>
      </trkpt>
      <trkpt lat="45.97024" lon="4.58097">
        <ele>544</ele>
        <time>2018-07-07T09:51:03Z</time>
      </trkpt>
      <trkpt lat="45.97018" lon="4.58102">
        <ele>543</ele>
        <time>2018-07-07T09:51:04Z</time>
      </trkpt>
      <trkpt lat="45.97012" lon="4.58105">
        <ele>544</ele>
        <time>2018-07-07T09:51:05Z</time>
      </trkpt>
      <trkpt lat="45.97007" lon="4.5811">
        <ele>544</ele>
        <time>2018-07-07T09:51:06Z</time>
      </trkpt>
      <trkpt lat="45.96999" lon="4.5811">
        <ele>542</ele>
        <time>2018-07-07T09:51:07Z</time>
      </trkpt>
      <trkpt lat="45.96991" lon="4.58108">
        <ele>542</ele>
        <time>2018-07-07T09:51:08Z</time>
      </trkpt>
      <trkpt lat="45.96983" lon="4.58108">
        <ele>543</ele>
        <time>2018-07-07T09:51:09Z</time>
      </trkpt>
      <trkpt lat="45.96977" lon="4.58109">
        <ele>543</ele>
        <time>2018-07-07T09:51:10Z</time>
      </trkpt>
      <trkpt lat="45.9697" lon="4.58109">
        <ele>543</ele>
        <time>2018-07-07T09:51:11Z</time>
      </trkpt>
      <trkpt lat="45.96965" lon="4.58111">
        <ele>544</ele>
        <time>2018-07-07T09:51:12Z</time>
      </trkpt>
      <trkpt lat="45.96957" lon="4.58109">
        <ele>544</ele>
        <time>2018-07-07T09:51:13Z</time>
      </trkpt>
      <trkpt lat="45.96956" lon="4.58099">
        <ele>543</ele>
        <time>2018-07-07T09:51:14Z</time>
      </trkpt>
      <trkpt lat="45.96947" lon="4.58094">
        <ele>543</ele>
        <time>2018-07-07T09:51:16Z</time>
      </trkpt>
      <trkpt lat="45.96939" lon="4.58085">
        <ele>542</ele>
        <time>2018-07-07T09:51:17Z</time>
      </trkpt>
      <trkpt lat="45.96939" lon="4.5808">
        <ele>532</ele>
        <time>2018-07-07T09:51:18Z</time>
      </trkpt>
      <trkpt lat="45.96931" lon="4.5807">
        <ele>532</ele>
        <time>2018-07-07T09:51:19Z</time>
      </trkpt>
      <trkpt lat="45.96926" lon="4.58062">
        <ele>531</ele>
        <time>2018-07-07T09:51:20Z</time>
      </trkpt>
      <trkpt lat="45.96924" lon="4.58055">
        <ele>530</ele>
        <time>2018-07-07T09:51:21Z</time>
      </trkpt>
      <trkpt lat="45.96907" lon="4.58048">
        <ele>531</ele>
        <time>2018-07-07T09:51:22Z</time>
      </trkpt>
      <trkpt lat="45.96899" lon="4.58041">
        <ele>530</ele>
        <time>2018-07-07T09:51:23Z</time>
      </trkpt>
      <trkpt lat="45.96894" lon="4.58035">
        <ele>530</ele>
        <time>2018-07-07T09:51:24Z</time>
      </trkpt>
      <trkpt lat="45.96888" lon="4.58029">
        <ele>529</ele>
        <time>2018-07-07T09:51:25Z</time>
      </trkpt>
      <trkpt lat="45.96886" lon="4.58025">
        <ele>529</ele>
        <time>2018-07-07T09:51:26Z</time>
      </trkpt>
      <trkpt lat="45.9688" lon="4.5802">
        <ele>528</ele>
        <time>2018-07-07T09:51:27Z</time>
      </trkpt>
      <trkpt lat="45.96874" lon="4.58017">
        <ele>528</ele>
        <time>2018-07-07T09:51:28Z</time>
      </trkpt>
      <trkpt lat="45.96869" lon="4.58014">
        <ele>528</ele>
        <time>2018-07-07T09:51:29Z</time>
      </trkpt>
      <trkpt lat="45.96866" lon="4.58013">
        <ele>528</ele>
        <time>2018-07-07T09:51:30Z</time>
      </trkpt>
      <trkpt lat="45.9686" lon="4.58012">
        <ele>528</ele>
        <time>2018-07-07T09:51:31Z</time>
      </trkpt>
      <trkpt lat="45.96853" lon="4.58009">
        <ele>527</ele>
        <time>2018-07-07T09:51:32Z</time>
      </trkpt>
      <trkpt lat="45.96847" lon="4.58009">
        <ele>526</ele>
        <time>2018-07-07T09:51:33Z</time>
      </trkpt>
      <trkpt lat="45.96841" lon="4.5801">
        <ele>526</ele>
        <time>2018-07-07T09:51:34Z</time>
      </trkpt>
      <trkpt lat="45.96834" lon="4.5801">
        <ele>526</ele>
        <time>2018-07-07T09:51:35Z</time>
      </trkpt>
      <trkpt lat="45.96831" lon="4.58011">
        <ele>523</ele>
        <time>2018-07-07T09:51:36Z</time>
      </trkpt>
      <trkpt lat="45.96822" lon="4.58013">
        <ele>522</ele>
        <time>2018-07-07T09:51:40Z</time>
      </trkpt>
      <trkpt lat="45.96822" lon="4.58014">
        <ele>522</ele>
        <time>2018-07-07T09:51:41.592Z</time>
      </trkpt>
      <trkpt lat="45.96815" lon="4.58021">
        <ele>522</ele>
        <time>2018-07-07T09:52:28Z</time>
      </trkpt>
      <trkpt lat="45.96814" lon="4.58024">
        <ele>522</ele>
        <time>2018-07-07T09:52:29Z</time>
      </trkpt>
      <trkpt lat="45.96812" lon="4.58029">
        <ele>522</ele>
        <time>2018-07-07T09:52:31Z</time>
      </trkpt>
      <trkpt lat="45.96806" lon="4.58037">
        <ele>522</ele>
        <time>2018-07-07T09:52:32Z</time>
      </trkpt>
      <trkpt lat="45.96798" lon="4.58043">
        <ele>522</ele>
        <time>2018-07-07T09:52:34Z</time>
      </trkpt>
      <trkpt lat="45.96795" lon="4.58048">
        <ele>522</ele>
        <time>2018-07-07T09:52:35Z</time>
      </trkpt>
      <trkpt lat="45.96791" lon="4.58053">
        <ele>522</ele>
        <time>2018-07-07T09:52:36Z</time>
      </trkpt>
      <trkpt lat="45.96788" lon="4.5806">
        <ele>522</ele>
        <time>2018-07-07T09:52:37Z</time>
      </trkpt>
      <trkpt lat="45.96785" lon="4.58065">
        <ele>522</ele>
        <time>2018-07-07T09:52:38Z</time>
      </trkpt>
      <trkpt lat="45.96782" lon="4.5807">
        <ele>522</ele>
        <time>2018-07-07T09:52:39Z</time>
      </trkpt>
      <trkpt lat="45.96778" lon="4.58077">
        <ele>521</ele>
        <time>2018-07-07T09:52:40Z</time>
      </trkpt>
      <trkpt lat="45.96775" lon="4.58083">
        <ele>521</ele>
        <time>2018-07-07T09:52:41Z</time>
      </trkpt>
      <trkpt lat="45.96772" lon="4.58088">
        <ele>528</ele>
        <time>2018-07-07T09:52:42Z</time>
      </trkpt>
      <trkpt lat="45.96768" lon="4.58094">
        <ele>527</ele>
        <time>2018-07-07T09:52:43Z</time>
      </trkpt>
      <trkpt lat="45.96765" lon="4.58099">
        <ele>527</ele>
        <time>2018-07-07T09:52:44Z</time>
      </trkpt>
      <trkpt lat="45.96761" lon="4.58105">
        <ele>528</ele>
        <time>2018-07-07T09:52:45Z</time>
      </trkpt>
      <trkpt lat="45.96759" lon="4.58113">
        <ele>529</ele>
        <time>2018-07-07T09:52:46Z</time>
      </trkpt>
      <trkpt lat="45.96756" lon="4.58119">
        <ele>530</ele>
        <time>2018-07-07T09:52:47Z</time>
      </trkpt>
      <trkpt lat="45.96754" lon="4.58123">
        <ele>530</ele>
        <time>2018-07-07T09:52:48Z</time>
      </trkpt>
      <trkpt lat="45.96747" lon="4.58133">
        <ele>515</ele>
        <time>2018-07-07T09:52:49Z</time>
      </trkpt>
      <trkpt lat="45.96745" lon="4.58137">
        <ele>516</ele>
        <time>2018-07-07T09:52:50Z</time>
      </trkpt>
      <trkpt lat="45.96739" lon="4.58142">
        <ele>516</ele>
        <time>2018-07-07T09:52:51Z</time>
      </trkpt>
      <trkpt lat="45.96738" lon="4.58149">
        <ele>517</ele>
        <time>2018-07-07T09:52:52Z</time>
      </trkpt>
      <trkpt lat="45.96733" lon="4.58158">
        <ele>518</ele>
        <time>2018-07-07T09:52:53Z</time>
      </trkpt>
      <trkpt lat="45.96728" lon="4.58164">
        <ele>517</ele>
        <time>2018-07-07T09:52:54Z</time>
      </trkpt>
      <trkpt lat="45.96724" lon="4.5817">
        <ele>520</ele>
        <time>2018-07-07T09:52:55Z</time>
      </trkpt>
      <trkpt lat="45.96724" lon="4.5818">
        <ele>520</ele>
        <time>2018-07-07T09:52:56Z</time>
      </trkpt>
      <trkpt lat="45.96721" lon="4.58186">
        <ele>519</ele>
        <time>2018-07-07T09:52:57Z</time>
      </trkpt>
      <trkpt lat="45.96718" lon="4.58196">
        <ele>519</ele>
        <time>2018-07-07T09:52:58Z</time>
      </trkpt>
      <trkpt lat="45.96714" lon="4.58205">
        <ele>518</ele>
        <time>2018-07-07T09:52:59Z</time>
      </trkpt>
      <trkpt lat="45.96715" lon="4.58213">
        <ele>519</ele>
        <time>2018-07-07T09:53:00Z</time>
      </trkpt>
      <trkpt lat="45.96716" lon="4.58222">
        <ele>519</ele>
        <time>2018-07-07T09:53:01Z</time>
      </trkpt>
      <trkpt lat="45.96717" lon="4.58233">
        <ele>520</ele>
        <time>2018-07-07T09:53:02Z</time>
      </trkpt>
      <trkpt lat="45.96713" lon="4.5824">
        <ele>520</ele>
        <time>2018-07-07T09:53:03Z</time>
      </trkpt>
      <trkpt lat="45.96715" lon="4.58248">
        <ele>520</ele>
        <time>2018-07-07T09:53:04Z</time>
      </trkpt>
      <trkpt lat="45.96715" lon="4.58255">
        <ele>521</ele>
        <time>2018-07-07T09:53:05Z</time>
      </trkpt>
      <trkpt lat="45.96717" lon="4.58263">
        <ele>521</ele>
        <time>2018-07-07T09:53:06Z</time>
      </trkpt>
      <trkpt lat="45.96719" lon="4.58271">
        <ele>521</ele>
        <time>2018-07-07T09:53:07Z</time>
      </trkpt>
      <trkpt lat="45.9672" lon="4.58278">
        <ele>521</ele>
        <time>2018-07-07T09:53:08Z</time>
      </trkpt>
      <trkpt lat="45.96723" lon="4.58286">
        <ele>521</ele>
        <time>2018-07-07T09:53:09Z</time>
      </trkpt>
      <trkpt lat="45.96724" lon="4.58293">
        <ele>521</ele>
        <time>2018-07-07T09:53:10Z</time>
      </trkpt>
      <trkpt lat="45.96728" lon="4.58303">
        <ele>522</ele>
        <time>2018-07-07T09:53:11Z</time>
      </trkpt>
      <trkpt lat="45.96729" lon="4.58308">
        <ele>523</ele>
        <time>2018-07-07T09:53:12Z</time>
      </trkpt>
      <trkpt lat="45.96732" lon="4.58317">
        <ele>524</ele>
        <time>2018-07-07T09:53:13Z</time>
      </trkpt>
      <trkpt lat="45.96732" lon="4.58325">
        <ele>525</ele>
        <time>2018-07-07T09:53:14Z</time>
      </trkpt>
      <trkpt lat="45.96736" lon="4.58333">
        <ele>527</ele>
        <time>2018-07-07T09:53:15Z</time>
      </trkpt>
      <trkpt lat="45.96739" lon="4.5834">
        <ele>527</ele>
        <time>2018-07-07T09:53:16Z</time>
      </trkpt>
      <trkpt lat="45.9674" lon="4.5835">
        <ele>525</ele>
        <time>2018-07-07T09:53:17Z</time>
      </trkpt>
      <trkpt lat="45.96738" lon="4.58358">
        <ele>523</ele>
        <time>2018-07-07T09:53:18Z</time>
      </trkpt>
      <trkpt lat="45.9674" lon="4.58368">
        <ele>522</ele>
        <time>2018-07-07T09:53:19Z</time>
      </trkpt>
      <trkpt lat="45.96742" lon="4.58377">
        <ele>521</ele>
        <time>2018-07-07T09:53:20Z</time>
      </trkpt>
      <trkpt lat="45.96744" lon="4.58385">
        <ele>521</ele>
        <time>2018-07-07T09:53:21Z</time>
      </trkpt>
      <trkpt lat="45.96743" lon="4.58395">
        <ele>522</ele>
        <time>2018-07-07T09:53:22Z</time>
      </trkpt>
      <trkpt lat="45.96743" lon="4.58405">
        <ele>524</ele>
        <time>2018-07-07T09:53:23Z</time>
      </trkpt>
      <trkpt lat="45.96746" lon="4.58416">
        <ele>527</ele>
        <time>2018-07-07T09:53:24Z</time>
      </trkpt>
      <trkpt lat="45.96746" lon="4.58423">
        <ele>527</ele>
        <time>2018-07-07T09:53:25Z</time>
      </trkpt>
      <trkpt lat="45.9675" lon="4.58428">
        <ele>537</ele>
        <time>2018-07-07T09:53:26Z</time>
      </trkpt>
      <trkpt lat="45.96752" lon="4.58435">
        <ele>540</ele>
        <time>2018-07-07T09:53:27Z</time>
      </trkpt>
      <trkpt lat="45.96751" lon="4.58446">
        <ele>543</ele>
        <time>2018-07-07T09:53:28Z</time>
      </trkpt>
      <trkpt lat="45.96747" lon="4.58454">
        <ele>525</ele>
        <time>2018-07-07T09:53:29Z</time>
      </trkpt>
      <trkpt lat="45.96746" lon="4.58464">
        <ele>526</ele>
        <time>2018-07-07T09:53:30Z</time>
      </trkpt>
      <trkpt lat="45.96745" lon="4.58469">
        <ele>526</ele>
        <time>2018-07-07T09:53:31Z</time>
      </trkpt>
      <trkpt lat="45.96744" lon="4.58477">
        <ele>527</ele>
        <time>2018-07-07T09:53:32Z</time>
      </trkpt>
      <trkpt lat="45.96743" lon="4.58488">
        <ele>529</ele>
        <time>2018-07-07T09:53:33Z</time>
      </trkpt>
      <trkpt lat="45.96739" lon="4.58499">
        <ele>530</ele>
        <time>2018-07-07T09:53:34Z</time>
      </trkpt>
      <trkpt lat="45.96736" lon="4.58506">
        <ele>535</ele>
        <time>2018-07-07T09:53:35Z</time>
      </trkpt>
      <trkpt lat="45.96734" lon="4.58514">
        <ele>535</ele>
        <time>2018-07-07T09:53:36Z</time>
      </trkpt>
      <trkpt lat="45.96731" lon="4.58522">
        <ele>535</ele>
        <time>2018-07-07T09:53:37Z</time>
      </trkpt>
      <trkpt lat="45.96727" lon="4.5853">
        <ele>535</ele>
        <time>2018-07-07T09:53:38Z</time>
      </trkpt>
      <trkpt lat="45.96723" lon="4.58537">
        <ele>536</ele>
        <time>2018-07-07T09:53:39Z</time>
      </trkpt>
      <trkpt lat="45.9672" lon="4.58545">
        <ele>536</ele>
        <time>2018-07-07T09:53:40Z</time>
      </trkpt>
      <trkpt lat="45.96711" lon="4.58543">
        <ele>535</ele>
        <time>2018-07-07T09:53:41Z</time>
      </trkpt>
      <trkpt lat="45.96703" lon="4.58545">
        <ele>535</ele>
        <time>2018-07-07T09:53:42Z</time>
      </trkpt>
      <trkpt lat="45.96699" lon="4.58546">
        <ele>535</ele>
        <time>2018-07-07T09:53:43Z</time>
      </trkpt>
      <trkpt lat="45.96691" lon="4.58545">
        <ele>534</ele>
        <time>2018-07-07T09:53:44Z</time>
      </trkpt>
      <trkpt lat="45.96685" lon="4.58545">
        <ele>534</ele>
        <time>2018-07-07T09:53:45Z</time>
      </trkpt>
      <trkpt lat="45.96679" lon="4.58543">
        <ele>533</ele>
        <time>2018-07-07T09:53:47.58Z</time>
      </trkpt>
      <trkpt lat="45.96674" lon="4.58537">
        <ele>532</ele>
        <time>2018-07-07T09:53:47Z</time>
      </trkpt>
      <trkpt lat="45.9667" lon="4.58538">
        <ele>532</ele>
        <time>2018-07-07T09:53:48Z</time>
      </trkpt>
      <trkpt lat="45.96665" lon="4.58529">
        <ele>532</ele>
        <time>2018-07-07T09:53:49Z</time>
      </trkpt>
      <trkpt lat="45.9666" lon="4.58526">
        <ele>531</ele>
        <time>2018-07-07T09:53:50Z</time>
      </trkpt>
      <trkpt lat="45.96653" lon="4.58522">
        <ele>531</ele>
        <time>2018-07-07T09:53:51Z</time>
      </trkpt>
      <trkpt lat="45.96649" lon="4.58517">
        <ele>531</ele>
        <time>2018-07-07T09:53:52Z</time>
      </trkpt>
      <trkpt lat="45.96644" lon="4.58512">
        <ele>531</ele>
        <time>2018-07-07T09:53:53Z</time>
      </trkpt>
      <trkpt lat="45.9664" lon="4.58507">
        <ele>531</ele>
        <time>2018-07-07T09:53:54Z</time>
      </trkpt>
      <trkpt lat="45.96635" lon="4.585">
        <ele>520</ele>
        <time>2018-07-07T09:53:55Z</time>
      </trkpt>
      <trkpt lat="45.96629" lon="4.5849">
        <ele>520</ele>
        <time>2018-07-07T09:53:56Z</time>
      </trkpt>
      <trkpt lat="45.96627" lon="4.58487">
        <ele>520</ele>
        <time>2018-07-07T09:53:57Z</time>
      </trkpt>
      <trkpt lat="45.96623" lon="4.58481">
        <ele>520</ele>
        <time>2018-07-07T09:53:58Z</time>
      </trkpt>
      <trkpt lat="45.96618" lon="4.58476">
        <ele>520</ele>
        <time>2018-07-07T09:53:59Z</time>
      </trkpt>
      <trkpt lat="45.96613" lon="4.58472">
        <ele>520</ele>
        <time>2018-07-07T09:54:00Z</time>
      </trkpt>
      <trkpt lat="45.96605" lon="4.58468">
        <ele>521</ele>
        <time>2018-07-07T09:54:01Z</time>
      </trkpt>
      <trkpt lat="45.96599" lon="4.58464">
        <ele>520</ele>
        <time>2018-07-07T09:54:02Z</time>
      </trkpt>
      <trkpt lat="45.96593" lon="4.5846">
        <ele>520</ele>
        <time>2018-07-07T09:54:03Z</time>
      </trkpt>
      <trkpt lat="45.96587" lon="4.58454">
        <ele>519</ele>
        <time>2018-07-07T09:54:04Z</time>
      </trkpt>
      <trkpt lat="45.96582" lon="4.5845">
        <ele>527</ele>
        <time>2018-07-07T09:54:05Z</time>
      </trkpt>
      <trkpt lat="45.96577" lon="4.58446">
        <ele>526</ele>
        <time>2018-07-07T09:54:06Z</time>
      </trkpt>
      <trkpt lat="45.96571" lon="4.58441">
        <ele>526</ele>
        <time>2018-07-07T09:54:07Z</time>
      </trkpt>
      <trkpt lat="45.96566" lon="4.58438">
        <ele>526</ele>
        <time>2018-07-07T09:54:08Z</time>
      </trkpt>
      <trkpt lat="45.9656" lon="4.58436">
        <ele>526</ele>
        <time>2018-07-07T09:54:09Z</time>
      </trkpt>
      <trkpt lat="45.96555" lon="4.58433">
        <ele>527</ele>
        <time>2018-07-07T09:54:10Z</time>
      </trkpt>
      <trkpt lat="45.96551" lon="4.58429">
        <ele>527</ele>
        <time>2018-07-07T09:54:11Z</time>
      </trkpt>
      <trkpt lat="45.96547" lon="4.58427">
        <ele>527</ele>
        <time>2018-07-07T09:54:12Z</time>
      </trkpt>
      <trkpt lat="45.9654" lon="4.58423">
        <ele>528</ele>
        <time>2018-07-07T09:54:13Z</time>
      </trkpt>
      <trkpt lat="45.96536" lon="4.58421">
        <ele>528</ele>
        <time>2018-07-07T09:54:14Z</time>
      </trkpt>
      <trkpt lat="45.96529" lon="4.58418">
        <ele>529</ele>
        <time>2018-07-07T09:54:15Z</time>
      </trkpt>
      <trkpt lat="45.96525" lon="4.58416">
        <ele>517</ele>
        <time>2018-07-07T09:54:16Z</time>
      </trkpt>
      <trkpt lat="45.9652" lon="4.58413">
        <ele>518</ele>
        <time>2018-07-07T09:54:17Z</time>
      </trkpt>
      <trkpt lat="45.96515" lon="4.58411">
        <ele>519</ele>
        <time>2018-07-07T09:54:18Z</time>
      </trkpt>
      <trkpt lat="45.96507" lon="4.58409">
        <ele>521</ele>
        <time>2018-07-07T09:54:19Z</time>
      </trkpt>
      <trkpt lat="45.96499" lon="4.58405">
        <ele>521</ele>
        <time>2018-07-07T09:54:21Z</time>
      </trkpt>
      <trkpt lat="45.96493" lon="4.58406">
        <ele>520</ele>
        <time>2018-07-07T09:54:22Z</time>
      </trkpt>
      <trkpt lat="45.96489" lon="4.58407">
        <ele>520</ele>
        <time>2018-07-07T09:54:23Z</time>
      </trkpt>
      <trkpt lat="45.96482" lon="4.58407">
        <ele>518</ele>
        <time>2018-07-07T09:54:24Z</time>
      </trkpt>
      <trkpt lat="45.96477" lon="4.5841">
        <ele>517</ele>
        <time>2018-07-07T09:54:25Z</time>
      </trkpt>
      <trkpt lat="45.96472" lon="4.58413">
        <ele>516</ele>
        <time>2018-07-07T09:54:26Z</time>
      </trkpt>
      <trkpt lat="45.96467" lon="4.58417">
        <ele>515</ele>
        <time>2018-07-07T09:54:27Z</time>
      </trkpt>
      <trkpt lat="45.96463" lon="4.5842">
        <ele>527</ele>
        <time>2018-07-07T09:54:28Z</time>
      </trkpt>
      <trkpt lat="45.96458" lon="4.58425">
        <ele>527</ele>
        <time>2018-07-07T09:54:29Z</time>
      </trkpt>
      <trkpt lat="45.96452" lon="4.58431">
        <ele>526</ele>
        <time>2018-07-07T09:54:30Z</time>
      </trkpt>
      <trkpt lat="45.96448" lon="4.58436">
        <ele>527</ele>
        <time>2018-07-07T09:54:31Z</time>
      </trkpt>
      <trkpt lat="45.96443" lon="4.58442">
        <ele>527</ele>
        <time>2018-07-07T09:54:32Z</time>
      </trkpt>
      <trkpt lat="45.96437" lon="4.58445">
        <ele>526</ele>
        <time>2018-07-07T09:54:33Z</time>
      </trkpt>
      <trkpt lat="45.96435" lon="4.58452">
        <ele>528</ele>
        <time>2018-07-07T09:54:34Z</time>
      </trkpt>
      <trkpt lat="45.9643" lon="4.58459">
        <ele>529</ele>
        <time>2018-07-07T09:54:35Z</time>
      </trkpt>
      <trkpt lat="45.96425" lon="4.58466">
        <ele>530</ele>
        <time>2018-07-07T09:54:36Z</time>
      </trkpt>
      <trkpt lat="45.96421" lon="4.58474">
        <ele>531</ele>
        <time>2018-07-07T09:54:37Z</time>
      </trkpt>
      <trkpt lat="45.96416" lon="4.58479">
        <ele>522</ele>
        <time>2018-07-07T09:54:38Z</time>
      </trkpt>
      <trkpt lat="45.96413" lon="4.58484">
        <ele>523</ele>
        <time>2018-07-07T09:54:39Z</time>
      </trkpt>
      <trkpt lat="45.9641" lon="4.58489">
        <ele>525</ele>
        <time>2018-07-07T09:54:40Z</time>
      </trkpt>
      <trkpt lat="45.96406" lon="4.58495">
        <ele>526</ele>
        <time>2018-07-07T09:54:41Z</time>
      </trkpt>
      <trkpt lat="45.96402" lon="4.58498">
        <ele>524</ele>
        <time>2018-07-07T09:54:42Z</time>
      </trkpt>
      <trkpt lat="45.96397" lon="4.58505">
        <ele>533</ele>
        <time>2018-07-07T09:54:43Z</time>
      </trkpt>
      <trkpt lat="45.96393" lon="4.5851">
        <ele>533</ele>
        <time>2018-07-07T09:54:44Z</time>
      </trkpt>
      <trkpt lat="45.96387" lon="4.58513">
        <ele>532</ele>
        <time>2018-07-07T09:54:45Z</time>
      </trkpt>
      <trkpt lat="45.96381" lon="4.58517">
        <ele>531</ele>
        <time>2018-07-07T09:54:46Z</time>
      </trkpt>
      <trkpt lat="45.96374" lon="4.58522">
        <ele>531</ele>
        <time>2018-07-07T09:54:47Z</time>
      </trkpt>
      <trkpt lat="45.96369" lon="4.58528">
        <ele>531</ele>
        <time>2018-07-07T09:54:48Z</time>
      </trkpt>
      <trkpt lat="45.96364" lon="4.58534">
        <ele>531</ele>
        <time>2018-07-07T09:54:49Z</time>
      </trkpt>
      <trkpt lat="45.96359" lon="4.5854">
        <ele>532</ele>
        <time>2018-07-07T09:54:50Z</time>
      </trkpt>
      <trkpt lat="45.96353" lon="4.58543">
        <ele>532</ele>
        <time>2018-07-07T09:54:51Z</time>
      </trkpt>
      <trkpt lat="45.96346" lon="4.58544">
        <ele>531</ele>
        <time>2018-07-07T09:54:52Z</time>
      </trkpt>
      <trkpt lat="45.96341" lon="4.58546">
        <ele>531</ele>
        <time>2018-07-07T09:54:53Z</time>
      </trkpt>
      <trkpt lat="45.96335" lon="4.58548">
        <ele>531</ele>
        <time>2018-07-07T09:54:54Z</time>
      </trkpt>
      <trkpt lat="45.96328" lon="4.58547">
        <ele>528</ele>
        <time>2018-07-07T09:54:55Z</time>
      </trkpt>
      <trkpt lat="45.96323" lon="4.58546">
        <ele>528</ele>
        <time>2018-07-07T09:54:56Z</time>
      </trkpt>
      <trkpt lat="45.96317" lon="4.58545">
        <ele>527</ele>
        <time>2018-07-07T09:54:57Z</time>
      </trkpt>
      <trkpt lat="45.9631" lon="4.5854">
        <ele>527</ele>
        <time>2018-07-07T09:54:58Z</time>
      </trkpt>
      <trkpt lat="45.96305" lon="4.58539">
        <ele>527</ele>
        <time>2018-07-07T09:54:59Z</time>
      </trkpt>
      <trkpt lat="45.96299" lon="4.58536">
        <ele>526</ele>
        <time>2018-07-07T09:55:00Z</time>
      </trkpt>
      <trkpt lat="45.96293" lon="4.58535">
        <ele>527</ele>
        <time>2018-07-07T09:55:01Z</time>
      </trkpt>
      <trkpt lat="45.96287" lon="4.58531">
        <ele>526</ele>
        <time>2018-07-07T09:55:02Z</time>
      </trkpt>
      <trkpt lat="45.96281" lon="4.58527">
        <ele>526</ele>
        <time>2018-07-07T09:55:03Z</time>
      </trkpt>
      <trkpt lat="45.96276" lon="4.58524">
        <ele>525</ele>
        <time>2018-07-07T09:55:04Z</time>
      </trkpt>
      <trkpt lat="45.9627" lon="4.5852">
        <ele>525</ele>
        <time>2018-07-07T09:55:05Z</time>
      </trkpt>
      <trkpt lat="45.96266" lon="4.58517">
        <ele>524</ele>
        <time>2018-07-07T09:55:06Z</time>
      </trkpt>
      <trkpt lat="45.9626" lon="4.58514">
        <ele>523</ele>
        <time>2018-07-07T09:55:07Z</time>
      </trkpt>
      <trkpt lat="45.96255" lon="4.58521">
        <ele>524</ele>
        <time>2018-07-07T09:55:08Z</time>
      </trkpt>
      <trkpt lat="45.96249" lon="4.58516">
        <ele>522</ele>
        <time>2018-07-07T09:55:09Z</time>
      </trkpt>
      <trkpt lat="45.96241" lon="4.58513">
        <ele>522</ele>
        <time>2018-07-07T09:55:10Z</time>
      </trkpt>
      <trkpt lat="45.96236" lon="4.58511">
        <ele>522</ele>
        <time>2018-07-07T09:55:11Z</time>
      </trkpt>
      <trkpt lat="45.96227" lon="4.58509">
        <ele>522</ele>
        <time>2018-07-07T09:55:12Z</time>
      </trkpt>
      <trkpt lat="45.96221" lon="4.58509">
        <ele>522</ele>
        <time>2018-07-07T09:55:13Z</time>
      </trkpt>
      <trkpt lat="45.96214" lon="4.5851">
        <ele>522</ele>
        <time>2018-07-07T09:55:14Z</time>
      </trkpt>
      <trkpt lat="45.96209" lon="4.5851">
        <ele>522</ele>
        <time>2018-07-07T09:55:15Z</time>
      </trkpt>
      <trkpt lat="45.96203" lon="4.58516">
        <ele>522</ele>
        <time>2018-07-07T09:55:16Z</time>
      </trkpt>
      <trkpt lat="45.96198" lon="4.58518">
        <ele>522</ele>
        <time>2018-07-07T09:55:17Z</time>
      </trkpt>
      <trkpt lat="45.96193" lon="4.58524">
        <ele>522</ele>
        <time>2018-07-07T09:55:18Z</time>
      </trkpt>
      <trkpt lat="45.96188" lon="4.58531">
        <ele>523</ele>
        <time>2018-07-07T09:55:19Z</time>
      </trkpt>
      <trkpt lat="45.96185" lon="4.58538">
        <ele>524</ele>
        <time>2018-07-07T09:55:20Z</time>
      </trkpt>
      <trkpt lat="45.9618" lon="4.58544">
        <ele>524</ele>
        <time>2018-07-07T09:55:21Z</time>
      </trkpt>
      <trkpt lat="45.96174" lon="4.5855">
        <ele>525</ele>
        <time>2018-07-07T09:55:22Z</time>
      </trkpt>
      <trkpt lat="45.96168" lon="4.58556">
        <ele>526</ele>
        <time>2018-07-07T09:55:23Z</time>
      </trkpt>
      <trkpt lat="45.96161" lon="4.58562">
        <ele>519</ele>
        <time>2018-07-07T09:55:24Z</time>
      </trkpt>
      <trkpt lat="45.96158" lon="4.58569">
        <ele>521</ele>
        <time>2018-07-07T09:55:25Z</time>
      </trkpt>
      <trkpt lat="45.96153" lon="4.58575">
        <ele>522</ele>
        <time>2018-07-07T09:55:26Z</time>
      </trkpt>
      <trkpt lat="45.96149" lon="4.58583">
        <ele>521</ele>
        <time>2018-07-07T09:55:27Z</time>
      </trkpt>
      <trkpt lat="45.96144" lon="4.58591">
        <ele>531</ele>
        <time>2018-07-07T09:55:28Z</time>
      </trkpt>
      <trkpt lat="45.96139" lon="4.58598">
        <ele>532</ele>
        <time>2018-07-07T09:55:29Z</time>
      </trkpt>
      <trkpt lat="45.96138" lon="4.58608">
        <ele>532</ele>
        <time>2018-07-07T09:55:30Z</time>
      </trkpt>
      <trkpt lat="45.96133" lon="4.58613">
        <ele>533</ele>
        <time>2018-07-07T09:55:31Z</time>
      </trkpt>
      <trkpt lat="45.96129" lon="4.5862">
        <ele>533</ele>
        <time>2018-07-07T09:55:32Z</time>
      </trkpt>
      <trkpt lat="45.96123" lon="4.58624">
        <ele>533</ele>
        <time>2018-07-07T09:55:33Z</time>
      </trkpt>
      <trkpt lat="45.96119" lon="4.58629">
        <ele>533</ele>
        <time>2018-07-07T09:55:34Z</time>
      </trkpt>
      <trkpt lat="45.96113" lon="4.58631">
        <ele>533</ele>
        <time>2018-07-07T09:55:35Z</time>
      </trkpt>
      <trkpt lat="45.96109" lon="4.58637">
        <ele>533</ele>
        <time>2018-07-07T09:55:36Z</time>
      </trkpt>
      <trkpt lat="45.96103" lon="4.58638">
        <ele>533</ele>
        <time>2018-07-07T09:55:37Z</time>
      </trkpt>
      <trkpt lat="45.96096" lon="4.58638">
        <ele>533</ele>
        <time>2018-07-07T09:55:38Z</time>
      </trkpt>
      <trkpt lat="45.9609" lon="4.5864">
        <ele>533</ele>
        <time>2018-07-07T09:55:39Z</time>
      </trkpt>
      <trkpt lat="45.96084" lon="4.58644">
        <ele>533</ele>
        <time>2018-07-07T09:55:40Z</time>
      </trkpt>
      <trkpt lat="45.96079" lon="4.58643">
        <ele>530</ele>
        <time>2018-07-07T09:55:41Z</time>
      </trkpt>
      <trkpt lat="45.96074" lon="4.58643">
        <ele>530</ele>
        <time>2018-07-07T09:55:42Z</time>
      </trkpt>
      <trkpt lat="45.96069" lon="4.58642">
        <ele>529</ele>
        <time>2018-07-07T09:55:43Z</time>
      </trkpt>
      <trkpt lat="45.96065" lon="4.58638">
        <ele>529</ele>
        <time>2018-07-07T09:55:44Z</time>
      </trkpt>
      <trkpt lat="45.9606" lon="4.58637">
        <ele>528</ele>
        <time>2018-07-07T09:55:45Z</time>
      </trkpt>
      <trkpt lat="45.96052" lon="4.58634">
        <ele>528</ele>
        <time>2018-07-07T09:55:46Z</time>
      </trkpt>
      <trkpt lat="45.96046" lon="4.58631">
        <ele>528</ele>
        <time>2018-07-07T09:55:47Z</time>
      </trkpt>
      <trkpt lat="45.9604" lon="4.58626">
        <ele>527</ele>
        <time>2018-07-07T09:55:48Z</time>
      </trkpt>
      <trkpt lat="45.96034" lon="4.58624">
        <ele>527</ele>
        <time>2018-07-07T09:55:49Z</time>
      </trkpt>
      <trkpt lat="45.96027" lon="4.58618">
        <ele>527</ele>
        <time>2018-07-07T09:55:50Z</time>
      </trkpt>
      <trkpt lat="45.96019" lon="4.58615">
        <ele>526</ele>
        <time>2018-07-07T09:55:51Z</time>
      </trkpt>
      <trkpt lat="45.96014" lon="4.58613">
        <ele>526</ele>
        <time>2018-07-07T09:55:52Z</time>
      </trkpt>
      <trkpt lat="45.96009" lon="4.58607">
        <ele>525</ele>
        <time>2018-07-07T09:55:53Z</time>
      </trkpt>
      <trkpt lat="45.96005" lon="4.58604">
        <ele>525</ele>
        <time>2018-07-07T09:55:54Z</time>
      </trkpt>
      <trkpt lat="45.96" lon="4.58599">
        <ele>524</ele>
        <time>2018-07-07T09:55:55Z</time>
      </trkpt>
      <trkpt lat="45.95996" lon="4.58594">
        <ele>523</ele>
        <time>2018-07-07T09:55:56Z</time>
      </trkpt>
      <trkpt lat="45.95988" lon="4.58592">
        <ele>523</ele>
        <time>2018-07-07T09:55:58Z</time>
      </trkpt>
      <trkpt lat="45.95983" lon="4.58592">
        <ele>524</ele>
        <time>2018-07-07T09:55:59Z</time>
      </trkpt>
      <trkpt lat="45.95979" lon="4.58591">
        <ele>524</ele>
        <time>2018-07-07T09:56:00Z</time>
      </trkpt>
      <trkpt lat="45.95973" lon="4.58589">
        <ele>524</ele>
        <time>2018-07-07T09:56:01Z</time>
      </trkpt>
      <trkpt lat="45.95968" lon="4.58588">
        <ele>524</ele>
        <time>2018-07-07T09:56:02Z</time>
      </trkpt>
      <trkpt lat="45.95964" lon="4.58587">
        <ele>524</ele>
        <time>2018-07-07T09:56:03Z</time>
      </trkpt>
      <trkpt lat="45.95956" lon="4.58589">
        <ele>524</ele>
        <time>2018-07-07T09:56:05Z</time>
      </trkpt>
      <trkpt lat="45.95951" lon="4.58592">
        <ele>524</ele>
        <time>2018-07-07T09:56:06Z</time>
      </trkpt>
      <trkpt lat="45.95947" lon="4.58596">
        <ele>524</ele>
        <time>2018-07-07T09:56:07Z</time>
      </trkpt>
      <trkpt lat="45.95942" lon="4.58598">
        <ele>523</ele>
        <time>2018-07-07T09:56:08Z</time>
      </trkpt>
      <trkpt lat="45.95935" lon="4.58604">
        <ele>523</ele>
        <time>2018-07-07T09:56:10Z</time>
      </trkpt>
      <trkpt lat="45.95932" lon="4.58608">
        <ele>524</ele>
        <time>2018-07-07T09:56:11Z</time>
      </trkpt>
      <trkpt lat="45.95928" lon="4.58614">
        <ele>524</ele>
        <time>2018-07-07T09:56:12Z</time>
      </trkpt>
      <trkpt lat="45.95924" lon="4.5862">
        <ele>525</ele>
        <time>2018-07-07T09:56:13Z</time>
      </trkpt>
      <trkpt lat="45.9592" lon="4.58626">
        <ele>526</ele>
        <time>2018-07-07T09:56:14Z</time>
      </trkpt>
      <trkpt lat="45.95917" lon="4.58632">
        <ele>517</ele>
        <time>2018-07-07T09:56:15Z</time>
      </trkpt>
      <trkpt lat="45.95913" lon="4.58637">
        <ele>518</ele>
        <time>2018-07-07T09:56:16Z</time>
      </trkpt>
      <trkpt lat="45.9591" lon="4.58642">
        <ele>518</ele>
        <time>2018-07-07T09:56:17Z</time>
      </trkpt>
      <trkpt lat="45.95906" lon="4.58648">
        <ele>519</ele>
        <time>2018-07-07T09:56:18Z</time>
      </trkpt>
      <trkpt lat="45.95904" lon="4.58654">
        <ele>521</ele>
        <time>2018-07-07T09:56:19Z</time>
      </trkpt>
      <trkpt lat="45.95901" lon="4.58659">
        <ele>520</ele>
        <time>2018-07-07T09:56:20Z</time>
      </trkpt>
      <trkpt lat="45.95897" lon="4.58663">
        <ele>520</ele>
        <time>2018-07-07T09:56:21Z</time>
      </trkpt>
      <trkpt lat="45.95892" lon="4.58673">
        <ele>527</ele>
        <time>2018-07-07T09:56:23Z</time>
      </trkpt>
      <trkpt lat="45.95888" lon="4.58679">
        <ele>527</ele>
        <time>2018-07-07T09:56:24Z</time>
      </trkpt>
      <trkpt lat="45.95884" lon="4.58683">
        <ele>526</ele>
        <time>2018-07-07T09:56:25Z</time>
      </trkpt>
      <trkpt lat="45.95881" lon="4.58689">
        <ele>526</ele>
        <time>2018-07-07T09:56:26Z</time>
      </trkpt>
      <trkpt lat="45.95878" lon="4.58695">
        <ele>526</ele>
        <time>2018-07-07T09:56:27Z</time>
      </trkpt>
      <trkpt lat="45.95874" lon="4.58701">
        <ele>527</ele>
        <time>2018-07-07T09:56:28Z</time>
      </trkpt>
      <trkpt lat="45.95871" lon="4.58706">
        <ele>527</ele>
        <time>2018-07-07T09:56:29Z</time>
      </trkpt>
      <trkpt lat="45.95867" lon="4.58711">
        <ele>527</ele>
        <time>2018-07-07T09:56:30Z</time>
      </trkpt>
      <trkpt lat="45.95864" lon="4.58716">
        <ele>527</ele>
        <time>2018-07-07T09:56:31Z</time>
      </trkpt>
      <trkpt lat="45.95863" lon="4.58722">
        <ele>527</ele>
        <time>2018-07-07T09:56:32Z</time>
      </trkpt>
      <trkpt lat="45.95856" lon="4.58731">
        <ele>527</ele>
        <time>2018-07-07T09:56:34Z</time>
      </trkpt>
      <trkpt lat="45.95854" lon="4.58736">
        <ele>527</ele>
        <time>2018-07-07T09:56:35Z</time>
      </trkpt>
      <trkpt lat="45.95849" lon="4.58738">
        <ele>526</ele>
        <time>2018-07-07T09:56:36Z</time>
      </trkpt>
      <trkpt lat="45.95846" lon="4.58742">
        <ele>526</ele>
        <time>2018-07-07T09:56:37Z</time>
      </trkpt>
      <trkpt lat="45.95841" lon="4.58746">
        <ele>525</ele>
        <time>2018-07-07T09:56:38Z</time>
      </trkpt>
      <trkpt lat="45.95837" lon="4.58748">
        <ele>525</ele>
        <time>2018-07-07T09:56:39Z</time>
      </trkpt>
      <trkpt lat="45.95833" lon="4.5875">
        <ele>524</ele>
        <time>2018-07-07T09:56:40Z</time>
      </trkpt>
      <trkpt lat="45.95829" lon="4.58754">
        <ele>524</ele>
        <time>2018-07-07T09:56:41Z</time>
      </trkpt>
      <trkpt lat="45.95824" lon="4.58758">
        <ele>525</ele>
        <time>2018-07-07T09:56:42Z</time>
      </trkpt>
      <trkpt lat="45.95819" lon="4.58762">
        <ele>525</ele>
        <time>2018-07-07T09:56:43Z</time>
      </trkpt>
      <trkpt lat="45.95816" lon="4.58766">
        <ele>525</ele>
        <time>2018-07-07T09:56:44Z</time>
      </trkpt>
      <trkpt lat="45.9581" lon="4.58769">
        <ele>525</ele>
        <time>2018-07-07T09:56:45Z</time>
      </trkpt>
      <trkpt lat="45.95803" lon="4.58776">
        <ele>525</ele>
        <time>2018-07-07T09:56:47Z</time>
      </trkpt>
      <trkpt lat="45.95796" lon="4.58778">
        <ele>525</ele>
        <time>2018-07-07T09:56:48Z</time>
      </trkpt>
      <trkpt lat="45.95791" lon="4.5878">
        <ele>525</ele>
        <time>2018-07-07T09:56:49Z</time>
      </trkpt>
      <trkpt lat="45.95786" lon="4.58783">
        <ele>525</ele>
        <time>2018-07-07T09:56:50Z</time>
      </trkpt>
      <trkpt lat="45.95781" lon="4.58784">
        <ele>525</ele>
        <time>2018-07-07T09:56:51Z</time>
      </trkpt>
      <trkpt lat="45.95776" lon="4.58788">
        <ele>525</ele>
        <time>2018-07-07T09:56:52Z</time>
      </trkpt>
      <trkpt lat="45.95771" lon="4.5879">
        <ele>525</ele>
        <time>2018-07-07T09:56:53Z</time>
      </trkpt>
      <trkpt lat="45.95767" lon="4.58791">
        <ele>524</ele>
        <time>2018-07-07T09:56:54Z</time>
      </trkpt>
      <trkpt lat="45.9576" lon="4.58797">
        <ele>525</ele>
        <time>2018-07-07T09:56:55Z</time>
      </trkpt>
      <trkpt lat="45.95753" lon="4.58801">
        <ele>525</ele>
        <time>2018-07-07T09:56:56Z</time>
      </trkpt>
      <trkpt lat="45.95749" lon="4.58802">
        <ele>518</ele>
        <time>2018-07-07T09:56:57Z</time>
      </trkpt>
      <trkpt lat="45.95745" lon="4.58805">
        <ele>519</ele>
        <time>2018-07-07T09:56:58Z</time>
      </trkpt>
      <trkpt lat="45.9574" lon="4.58809">
        <ele>519</ele>
        <time>2018-07-07T09:56:59Z</time>
      </trkpt>
      <trkpt lat="45.95735" lon="4.58814">
        <ele>519</ele>
        <time>2018-07-07T09:57:00Z</time>
      </trkpt>
      <trkpt lat="45.95729" lon="4.58819">
        <ele>519</ele>
        <time>2018-07-07T09:57:01Z</time>
      </trkpt>
      <trkpt lat="45.95725" lon="4.58823">
        <ele>519</ele>
        <time>2018-07-07T09:57:02Z</time>
      </trkpt>
      <trkpt lat="45.95719" lon="4.58829">
        <ele>518</ele>
        <time>2018-07-07T09:57:03Z</time>
      </trkpt>
      <trkpt lat="45.95714" lon="4.58835">
        <ele>530</ele>
        <time>2018-07-07T09:57:04Z</time>
      </trkpt>
      <trkpt lat="45.95708" lon="4.5884">
        <ele>530</ele>
        <time>2018-07-07T09:57:05Z</time>
      </trkpt>
      <trkpt lat="45.95702" lon="4.58845">
        <ele>530</ele>
        <time>2018-07-07T09:57:06Z</time>
      </trkpt>
      <trkpt lat="45.95696" lon="4.58847">
        <ele>529</ele>
        <time>2018-07-07T09:57:07Z</time>
      </trkpt>
      <trkpt lat="45.95691" lon="4.5885">
        <ele>528</ele>
        <time>2018-07-07T09:57:08Z</time>
      </trkpt>
      <trkpt lat="45.95685" lon="4.58852">
        <ele>528</ele>
        <time>2018-07-07T09:57:09Z</time>
      </trkpt>
      <trkpt lat="45.95679" lon="4.58854">
        <ele>527</ele>
        <time>2018-07-07T09:57:10Z</time>
      </trkpt>
      <trkpt lat="45.95672" lon="4.58856">
        <ele>527</ele>
        <time>2018-07-07T09:57:11Z</time>
      </trkpt>
      <trkpt lat="45.95666" lon="4.58858">
        <ele>524</ele>
        <time>2018-07-07T09:57:12Z</time>
      </trkpt>
      <trkpt lat="45.9566" lon="4.5886">
        <ele>524</ele>
        <time>2018-07-07T09:57:13Z</time>
      </trkpt>
      <trkpt lat="45.95655" lon="4.58861">
        <ele>525</ele>
        <time>2018-07-07T09:57:14Z</time>
      </trkpt>
      <trkpt lat="45.95649" lon="4.58863">
        <ele>525</ele>
        <time>2018-07-07T09:57:15Z</time>
      </trkpt>
      <trkpt lat="45.95644" lon="4.58862">
        <ele>525</ele>
        <time>2018-07-07T09:57:16Z</time>
      </trkpt>
      <trkpt lat="45.95639" lon="4.58862">
        <ele>525</ele>
        <time>2018-07-07T09:57:17Z</time>
      </trkpt>
      <trkpt lat="45.95635" lon="4.58868">
        <ele>526</ele>
        <time>2018-07-07T09:57:18Z</time>
      </trkpt>
      <trkpt lat="45.95629" lon="4.5887">
        <ele>526</ele>
        <time>2018-07-07T09:57:19Z</time>
      </trkpt>
      <trkpt lat="45.95624" lon="4.58872">
        <ele>527</ele>
        <time>2018-07-07T09:57:20Z</time>
      </trkpt>
      <trkpt lat="45.95618" lon="4.58875">
        <ele>527</ele>
        <time>2018-07-07T09:57:21Z</time>
      </trkpt>
      <trkpt lat="45.95613" lon="4.58875">
        <ele>527</ele>
        <time>2018-07-07T09:57:22Z</time>
      </trkpt>
      <trkpt lat="45.95607" lon="4.58876">
        <ele>527</ele>
        <time>2018-07-07T09:57:23Z</time>
      </trkpt>
      <trkpt lat="45.95601" lon="4.58876">
        <ele>527</ele>
        <time>2018-07-07T09:57:24Z</time>
      </trkpt>
      <trkpt lat="45.95596" lon="4.58875">
        <ele>527</ele>
        <time>2018-07-07T09:57:25Z</time>
      </trkpt>
      <trkpt lat="45.95589" lon="4.58874">
        <ele>526</ele>
        <time>2018-07-07T09:57:26Z</time>
      </trkpt>
      <trkpt lat="45.95584" lon="4.58873">
        <ele>526</ele>
        <time>2018-07-07T09:57:27Z</time>
      </trkpt>
      <trkpt lat="45.95577" lon="4.58873">
        <ele>527</ele>
        <time>2018-07-07T09:57:28Z</time>
      </trkpt>
      <trkpt lat="45.95571" lon="4.58872">
        <ele>527</ele>
        <time>2018-07-07T09:57:29Z</time>
      </trkpt>
      <trkpt lat="45.95565" lon="4.58872">
        <ele>527</ele>
        <time>2018-07-07T09:57:30Z</time>
      </trkpt>
      <trkpt lat="45.95558" lon="4.5887">
        <ele>527</ele>
        <time>2018-07-07T09:57:31Z</time>
      </trkpt>
      <trkpt lat="45.95552" lon="4.58867">
        <ele>527</ele>
        <time>2018-07-07T09:57:32Z</time>
      </trkpt>
      <trkpt lat="45.95547" lon="4.58865">
        <ele>527</ele>
        <time>2018-07-07T09:57:33Z</time>
      </trkpt>
      <trkpt lat="45.95542" lon="4.58862">
        <ele>527</ele>
        <time>2018-07-07T09:57:34Z</time>
      </trkpt>
      <trkpt lat="45.95535" lon="4.58859">
        <ele>528</ele>
        <time>2018-07-07T09:57:36Z</time>
      </trkpt>
      <trkpt lat="45.95531" lon="4.58855">
        <ele>527</ele>
        <time>2018-07-07T09:57:37Z</time>
      </trkpt>
      <trkpt lat="45.95527" lon="4.58849">
        <ele>527</ele>
        <time>2018-07-07T09:57:38Z</time>
      </trkpt>
      <trkpt lat="45.95522" lon="4.58844">
        <ele>527</ele>
        <time>2018-07-07T09:57:39Z</time>
      </trkpt>
      <trkpt lat="45.9552" lon="4.5884">
        <ele>527</ele>
        <time>2018-07-07T09:57:40Z</time>
      </trkpt>
      <trkpt lat="45.95516" lon="4.58833">
        <ele>522</ele>
        <time>2018-07-07T09:57:41Z</time>
      </trkpt>
      <trkpt lat="45.95511" lon="4.58826">
        <ele>522</ele>
        <time>2018-07-07T09:57:42Z</time>
      </trkpt>
      <trkpt lat="45.95507" lon="4.58819">
        <ele>522</ele>
        <time>2018-07-07T09:57:43Z</time>
      </trkpt>
      <trkpt lat="45.95504" lon="4.58812">
        <ele>521</ele>
        <time>2018-07-07T09:57:44Z</time>
      </trkpt>
      <trkpt lat="45.95501" lon="4.58804">
        <ele>520</ele>
        <time>2018-07-07T09:57:45Z</time>
      </trkpt>
      <trkpt lat="45.95498" lon="4.58796">
        <ele>528</ele>
        <time>2018-07-07T09:57:46Z</time>
      </trkpt>
      <trkpt lat="45.95497" lon="4.58787">
        <ele>527</ele>
        <time>2018-07-07T09:57:47Z</time>
      </trkpt>
      <trkpt lat="45.95495" lon="4.58779">
        <ele>527</ele>
        <time>2018-07-07T09:57:48Z</time>
      </trkpt>
      <trkpt lat="45.95494" lon="4.58771">
        <ele>526</ele>
        <time>2018-07-07T09:57:49Z</time>
      </trkpt>
      <trkpt lat="45.95493" lon="4.58761">
        <ele>524</ele>
        <time>2018-07-07T09:57:50Z</time>
      </trkpt>
      <trkpt lat="45.95493" lon="4.58752">
        <ele>523</ele>
        <time>2018-07-07T09:57:51Z</time>
      </trkpt>
      <trkpt lat="45.95492" lon="4.58743">
        <ele>522</ele>
        <time>2018-07-07T09:57:52Z</time>
      </trkpt>
      <trkpt lat="45.95491" lon="4.58734">
        <ele>523</ele>
        <time>2018-07-07T09:57:53Z</time>
      </trkpt>
      <trkpt lat="45.95492" lon="4.58727">
        <ele>523</ele>
        <time>2018-07-07T09:57:54Z</time>
      </trkpt>
      <trkpt lat="45.95491" lon="4.58718">
        <ele>524</ele>
        <time>2018-07-07T09:57:55Z</time>
      </trkpt>
      <trkpt lat="45.9549" lon="4.58711">
        <ele>524</ele>
        <time>2018-07-07T09:57:56Z</time>
      </trkpt>
      <trkpt lat="45.95491" lon="4.58702">
        <ele>523</ele>
        <time>2018-07-07T09:57:57Z</time>
      </trkpt>
      <trkpt lat="45.95491" lon="4.58693">
        <ele>522</ele>
        <time>2018-07-07T09:57:58Z</time>
      </trkpt>
      <trkpt lat="45.9549" lon="4.58685">
        <ele>521</ele>
        <time>2018-07-07T09:57:59Z</time>
      </trkpt>
      <trkpt lat="45.95491" lon="4.58677">
        <ele>520</ele>
        <time>2018-07-07T09:58:00Z</time>
      </trkpt>
      <trkpt lat="45.95491" lon="4.58671">
        <ele>519</ele>
        <time>2018-07-07T09:58:01Z</time>
      </trkpt>
      <trkpt lat="45.9549" lon="4.58664">
        <ele>518</ele>
        <time>2018-07-07T09:58:02Z</time>
      </trkpt>
      <trkpt lat="45.95489" lon="4.58656">
        <ele>519</ele>
        <time>2018-07-07T09:58:03Z</time>
      </trkpt>
      <trkpt lat="45.9549" lon="4.5865">
        <ele>519</ele>
        <time>2018-07-07T09:58:04Z</time>
      </trkpt>
      <trkpt lat="45.95489" lon="4.58642">
        <ele>520</ele>
        <time>2018-07-07T09:58:05Z</time>
      </trkpt>
      <trkpt lat="45.95485" lon="4.58635">
        <ele>521</ele>
        <time>2018-07-07T09:58:06Z</time>
      </trkpt>
      <trkpt lat="45.95483" lon="4.58628">
        <ele>521</ele>
        <time>2018-07-07T09:58:07Z</time>
      </trkpt>
      <trkpt lat="45.9548" lon="4.5862">
        <ele>521</ele>
        <time>2018-07-07T09:58:08Z</time>
      </trkpt>
      <trkpt lat="45.9548" lon="4.58612">
        <ele>521</ele>
        <time>2018-07-07T09:58:09Z</time>
      </trkpt>
      <trkpt lat="45.95477" lon="4.58604">
        <ele>520</ele>
        <time>2018-07-07T09:58:10Z</time>
      </trkpt>
      <trkpt lat="45.95475" lon="4.58597">
        <ele>520</ele>
        <time>2018-07-07T09:58:11Z</time>
      </trkpt>
      <trkpt lat="45.95474" lon="4.5859">
        <ele>520</ele>
        <time>2018-07-07T09:58:12Z</time>
      </trkpt>
      <trkpt lat="45.95472" lon="4.58583">
        <ele>518</ele>
        <time>2018-07-07T09:58:13Z</time>
      </trkpt>
      <trkpt lat="45.95469" lon="4.58577">
        <ele>518</ele>
        <time>2018-07-07T09:58:14Z</time>
      </trkpt>
      <trkpt lat="45.95472" lon="4.58568">
        <ele>518</ele>
        <time>2018-07-07T09:58:15Z</time>
      </trkpt>
      <trkpt lat="45.95472" lon="4.58562">
        <ele>518</ele>
        <time>2018-07-07T09:58:16Z</time>
      </trkpt>
      <trkpt lat="45.95469" lon="4.58555">
        <ele>518</ele>
        <time>2018-07-07T09:58:17Z</time>
      </trkpt>
      <trkpt lat="45.95466" lon="4.58549">
        <ele>518</ele>
        <time>2018-07-07T09:58:18Z</time>
      </trkpt>
      <trkpt lat="45.95462" lon="4.58544">
        <ele>519</ele>
        <time>2018-07-07T09:58:19Z</time>
      </trkpt>
      <trkpt lat="45.95458" lon="4.58538">
        <ele>519</ele>
        <time>2018-07-07T09:58:20Z</time>
      </trkpt>
      <trkpt lat="45.95455" lon="4.58533">
        <ele>519</ele>
        <time>2018-07-07T09:58:21Z</time>
      </trkpt>
      <trkpt lat="45.95452" lon="4.58527">
        <ele>519</ele>
        <time>2018-07-07T09:58:22Z</time>
      </trkpt>
      <trkpt lat="45.9545" lon="4.5852">
        <ele>520</ele>
        <time>2018-07-07T09:58:23Z</time>
      </trkpt>
      <trkpt lat="45.95445" lon="4.58514">
        <ele>520</ele>
        <time>2018-07-07T09:58:24Z</time>
      </trkpt>
      <trkpt lat="45.95436" lon="4.58508">
        <ele>522</ele>
        <time>2018-07-07T09:58:25Z</time>
      </trkpt>
      <trkpt lat="45.9543" lon="4.58504">
        <ele>523</ele>
        <time>2018-07-07T09:58:26Z</time>
      </trkpt>
      <trkpt lat="45.95428" lon="4.58498">
        <ele>520</ele>
        <time>2018-07-07T09:58:27Z</time>
      </trkpt>
      <trkpt lat="45.95423" lon="4.58491">
        <ele>520</ele>
        <time>2018-07-07T09:58:28Z</time>
      </trkpt>
      <trkpt lat="45.9542" lon="4.58487">
        <ele>519</ele>
        <time>2018-07-07T09:58:29Z</time>
      </trkpt>
      <trkpt lat="45.95414" lon="4.58478">
        <ele>525</ele>
        <time>2018-07-07T09:58:31Z</time>
      </trkpt>
      <trkpt lat="45.9541" lon="4.58475">
        <ele>525</ele>
        <time>2018-07-07T09:58:32Z</time>
      </trkpt>
      <trkpt lat="45.95406" lon="4.58471">
        <ele>525</ele>
        <time>2018-07-07T09:58:33Z</time>
      </trkpt>
      <trkpt lat="45.95402" lon="4.58467">
        <ele>524</ele>
        <time>2018-07-07T09:58:34Z</time>
      </trkpt>
      <trkpt lat="45.95399" lon="4.58462">
        <ele>524</ele>
        <time>2018-07-07T09:58:35Z</time>
      </trkpt>
      <trkpt lat="45.95395" lon="4.58457">
        <ele>524</ele>
        <time>2018-07-07T09:58:36Z</time>
      </trkpt>
      <trkpt lat="45.9539" lon="4.58453">
        <ele>523</ele>
        <time>2018-07-07T09:58:37Z</time>
      </trkpt>
      <trkpt lat="45.95385" lon="4.58449">
        <ele>523</ele>
        <time>2018-07-07T09:58:38Z</time>
      </trkpt>
      <trkpt lat="45.95381" lon="4.58445">
        <ele>523</ele>
        <time>2018-07-07T09:58:39Z</time>
      </trkpt>
      <trkpt lat="45.95377" lon="4.58441">
        <ele>523</ele>
        <time>2018-07-07T09:58:40Z</time>
      </trkpt>
      <trkpt lat="45.95372" lon="4.58436">
        <ele>524</ele>
        <time>2018-07-07T09:58:41Z</time>
      </trkpt>
      <trkpt lat="45.95369" lon="4.58432">
        <ele>524</ele>
        <time>2018-07-07T09:58:42Z</time>
      </trkpt>
      <trkpt lat="45.95363" lon="4.58422">
        <ele>524</ele>
        <time>2018-07-07T09:58:44Z</time>
      </trkpt>
      <trkpt lat="45.95359" lon="4.5842">
        <ele>524</ele>
        <time>2018-07-07T09:58:45Z</time>
      </trkpt>
      <trkpt lat="45.95353" lon="4.58416">
        <ele>518</ele>
        <time>2018-07-07T09:58:46Z</time>
      </trkpt>
      <trkpt lat="45.9535" lon="4.58411">
        <ele>519</ele>
        <time>2018-07-07T09:58:47Z</time>
      </trkpt>
      <trkpt lat="45.95345" lon="4.58407">
        <ele>519</ele>
        <time>2018-07-07T09:58:48Z</time>
      </trkpt>
      <trkpt lat="45.95341" lon="4.58403">
        <ele>519</ele>
        <time>2018-07-07T09:58:49Z</time>
      </trkpt>
      <trkpt lat="45.95337" lon="4.58399">
        <ele>519</ele>
        <time>2018-07-07T09:58:50Z</time>
      </trkpt>
      <trkpt lat="45.95332" lon="4.58396">
        <ele>523</ele>
        <time>2018-07-07T09:58:51Z</time>
      </trkpt>
      <trkpt lat="45.95328" lon="4.58392">
        <ele>523</ele>
        <time>2018-07-07T09:58:52Z</time>
      </trkpt>
      <trkpt lat="45.95325" lon="4.58389">
        <ele>523</ele>
        <time>2018-07-07T09:58:53Z</time>
      </trkpt>
      <trkpt lat="45.95321" lon="4.58385">
        <ele>523</ele>
        <time>2018-07-07T09:58:54Z</time>
      </trkpt>
      <trkpt lat="45.95317" lon="4.58381">
        <ele>522</ele>
        <time>2018-07-07T09:58:55Z</time>
      </trkpt>
      <trkpt lat="45.95312" lon="4.58376">
        <ele>522</ele>
        <time>2018-07-07T09:58:56Z</time>
      </trkpt>
      <trkpt lat="45.95306" lon="4.58372">
        <ele>522</ele>
        <time>2018-07-07T09:58:57Z</time>
      </trkpt>
      <trkpt lat="45.95302" lon="4.58368">
        <ele>522</ele>
        <time>2018-07-07T09:58:58Z</time>
      </trkpt>
      <trkpt lat="45.95297" lon="4.58365">
        <ele>522</ele>
        <time>2018-07-07T09:58:59Z</time>
      </trkpt>
      <trkpt lat="45.95292" lon="4.58365">
        <ele>522</ele>
        <time>2018-07-07T09:59:00Z</time>
      </trkpt>
      <trkpt lat="45.95286" lon="4.58361">
        <ele>522</ele>
        <time>2018-07-07T09:59:01Z</time>
      </trkpt>
      <trkpt lat="45.95282" lon="4.58358">
        <ele>522</ele>
        <time>2018-07-07T09:59:02Z</time>
      </trkpt>
      <trkpt lat="45.95277" lon="4.58355">
        <ele>522</ele>
        <time>2018-07-07T09:59:03Z</time>
      </trkpt>
      <trkpt lat="45.95272" lon="4.58353">
        <ele>522</ele>
        <time>2018-07-07T09:59:04Z</time>
      </trkpt>
      <trkpt lat="45.95267" lon="4.5835">
        <ele>522</ele>
        <time>2018-07-07T09:59:05Z</time>
      </trkpt>
      <trkpt lat="45.95261" lon="4.58347">
        <ele>522</ele>
        <time>2018-07-07T09:59:06Z</time>
      </trkpt>
      <trkpt lat="45.95256" lon="4.58345">
        <ele>522</ele>
        <time>2018-07-07T09:59:07Z</time>
      </trkpt>
      <trkpt lat="45.95252" lon="4.58342">
        <ele>522</ele>
        <time>2018-07-07T09:59:08Z</time>
      </trkpt>
      <trkpt lat="45.95247" lon="4.5834">
        <ele>523</ele>
        <time>2018-07-07T09:59:09Z</time>
      </trkpt>
      <trkpt lat="45.95241" lon="4.58337">
        <ele>524</ele>
        <time>2018-07-07T09:59:10Z</time>
      </trkpt>
      <trkpt lat="45.95235" lon="4.58335">
        <ele>525</ele>
        <time>2018-07-07T09:59:11Z</time>
      </trkpt>
      <trkpt lat="45.95228" lon="4.58333">
        <ele>519</ele>
        <time>2018-07-07T09:59:12Z</time>
      </trkpt>
      <trkpt lat="45.95223" lon="4.58332">
        <ele>519</ele>
        <time>2018-07-07T09:59:13Z</time>
      </trkpt>
      <trkpt lat="45.95217" lon="4.5833">
        <ele>519</ele>
        <time>2018-07-07T09:59:14Z</time>
      </trkpt>
      <trkpt lat="45.95212" lon="4.58328">
        <ele>519</ele>
        <time>2018-07-07T09:59:15Z</time>
      </trkpt>
      <trkpt lat="45.95207" lon="4.58327">
        <ele>519</ele>
        <time>2018-07-07T09:59:16Z</time>
      </trkpt>
      <trkpt lat="45.95202" lon="4.58325">
        <ele>519</ele>
        <time>2018-07-07T09:59:17Z</time>
      </trkpt>
      <trkpt lat="45.95197" lon="4.58324">
        <ele>520</ele>
        <time>2018-07-07T09:59:18Z</time>
      </trkpt>
      <trkpt lat="45.95192" lon="4.58322">
        <ele>520</ele>
        <time>2018-07-07T09:59:19Z</time>
      </trkpt>
      <trkpt lat="45.95187" lon="4.58321">
        <ele>520</ele>
        <time>2018-07-07T09:59:20Z</time>
      </trkpt>
      <trkpt lat="45.95181" lon="4.58322">
        <ele>521</ele>
        <time>2018-07-07T09:59:21Z</time>
      </trkpt>
      <trkpt lat="45.95176" lon="4.5832">
        <ele>522</ele>
        <time>2018-07-07T09:59:22Z</time>
      </trkpt>
      <trkpt lat="45.95171" lon="4.5832">
        <ele>522</ele>
        <time>2018-07-07T09:59:23Z</time>
      </trkpt>
      <trkpt lat="45.95165" lon="4.58321">
        <ele>524</ele>
        <time>2018-07-07T09:59:24Z</time>
      </trkpt>
      <trkpt lat="45.9516" lon="4.5832">
        <ele>523</ele>
        <time>2018-07-07T09:59:25Z</time>
      </trkpt>
      <trkpt lat="45.95153" lon="4.58319">
        <ele>523</ele>
        <time>2018-07-07T09:59:26Z</time>
      </trkpt>
      <trkpt lat="45.95147" lon="4.58319">
        <ele>522</ele>
        <time>2018-07-07T09:59:27Z</time>
      </trkpt>
      <trkpt lat="45.95141" lon="4.58319">
        <ele>522</ele>
        <time>2018-07-07T09:59:28Z</time>
      </trkpt>
      <trkpt lat="45.95136" lon="4.58318">
        <ele>522</ele>
        <time>2018-07-07T09:59:29Z</time>
      </trkpt>
      <trkpt lat="45.95129" lon="4.58319">
        <ele>522</ele>
        <time>2018-07-07T09:59:30Z</time>
      </trkpt>
      <trkpt lat="45.95124" lon="4.58318">
        <ele>522</ele>
        <time>2018-07-07T09:59:31Z</time>
      </trkpt>
      <trkpt lat="45.95115" lon="4.58317">
        <ele>522</ele>
        <time>2018-07-07T09:59:33Z</time>
      </trkpt>
      <trkpt lat="45.95109" lon="4.58316">
        <ele>522</ele>
        <time>2018-07-07T09:59:34Z</time>
      </trkpt>
      <trkpt lat="45.95103" lon="4.58315">
        <ele>522</ele>
        <time>2018-07-07T09:59:35Z</time>
      </trkpt>
      <trkpt lat="45.95096" lon="4.58314">
        <ele>522</ele>
        <time>2018-07-07T09:59:36Z</time>
      </trkpt>
      <trkpt lat="45.95091" lon="4.58313">
        <ele>522</ele>
        <time>2018-07-07T09:59:37Z</time>
      </trkpt>
      <trkpt lat="45.95085" lon="4.58312">
        <ele>522</ele>
        <time>2018-07-07T09:59:38Z</time>
      </trkpt>
      <trkpt lat="45.95079" lon="4.58311">
        <ele>523</ele>
        <time>2018-07-07T09:59:39Z</time>
      </trkpt>
      <trkpt lat="45.95073" lon="4.5831">
        <ele>523</ele>
        <time>2018-07-07T09:59:40Z</time>
      </trkpt>
      <trkpt lat="45.95068" lon="4.5831">
        <ele>523</ele>
        <time>2018-07-07T09:59:41Z</time>
      </trkpt>
      <trkpt lat="45.95063" lon="4.58308">
        <ele>523</ele>
        <time>2018-07-07T09:59:42Z</time>
      </trkpt>
      <trkpt lat="45.95057" lon="4.58307">
        <ele>523</ele>
        <time>2018-07-07T09:59:43Z</time>
      </trkpt>
      <trkpt lat="45.95052" lon="4.58307">
        <ele>523</ele>
        <time>2018-07-07T09:59:44Z</time>
      </trkpt>
      <trkpt lat="45.95046" lon="4.58306">
        <ele>523</ele>
        <time>2018-07-07T09:59:45Z</time>
      </trkpt>
      <trkpt lat="45.95041" lon="4.58306">
        <ele>523</ele>
        <time>2018-07-07T09:59:46Z</time>
      </trkpt>
      <trkpt lat="45.95033" lon="4.58306">
        <ele>523</ele>
        <time>2018-07-07T09:59:48Z</time>
      </trkpt>
      <trkpt lat="45.95029" lon="4.58305">
        <ele>523</ele>
        <time>2018-07-07T09:59:49Z</time>
      </trkpt>
      <trkpt lat="45.95024" lon="4.58303">
        <ele>523</ele>
        <time>2018-07-07T09:59:50Z</time>
      </trkpt>
      <trkpt lat="45.95019" lon="4.58304">
        <ele>523</ele>
        <time>2018-07-07T09:59:51Z</time>
      </trkpt>
      <trkpt lat="45.95014" lon="4.58303">
        <ele>523</ele>
        <time>2018-07-07T09:59:52Z</time>
      </trkpt>
      <trkpt lat="45.95008" lon="4.58302">
        <ele>523</ele>
        <time>2018-07-07T09:59:53Z</time>
      </trkpt>
      <trkpt lat="45.95003" lon="4.58303">
        <ele>523</ele>
        <time>2018-07-07T09:59:54Z</time>
      </trkpt>
      <trkpt lat="45.94998" lon="4.58301">
        <ele>524</ele>
        <time>2018-07-07T09:59:55Z</time>
      </trkpt>
      <trkpt lat="45.9499" lon="4.58301">
        <ele>524</ele>
        <time>2018-07-07T09:59:57Z</time>
      </trkpt>
      <trkpt lat="45.94984" lon="4.583">
        <ele>524</ele>
        <time>2018-07-07T09:59:58Z</time>
      </trkpt>
      <trkpt lat="45.9498" lon="4.58299">
        <ele>523</ele>
        <time>2018-07-07T09:59:59Z</time>
      </trkpt>
      <trkpt lat="45.94975" lon="4.58296">
        <ele>523</ele>
        <time>2018-07-07T10:00:00Z</time>
      </trkpt>
      <trkpt lat="45.9497" lon="4.58297">
        <ele>523</ele>
        <time>2018-07-07T10:00:01Z</time>
      </trkpt>
      <trkpt lat="45.94965" lon="4.583">
        <ele>524</ele>
        <time>2018-07-07T10:00:02Z</time>
      </trkpt>
      <trkpt lat="45.9496" lon="4.58299">
        <ele>524</ele>
        <time>2018-07-07T10:00:03Z</time>
      </trkpt>
      <trkpt lat="45.94956" lon="4.583">
        <ele>524</ele>
        <time>2018-07-07T10:00:04Z</time>
      </trkpt>
      <trkpt lat="45.94947" lon="4.58304">
        <ele>524</ele>
        <time>2018-07-07T10:00:05Z</time>
      </trkpt>
      <trkpt lat="45.94941" lon="4.58309">
        <ele>524</ele>
        <time>2018-07-07T10:00:06Z</time>
      </trkpt>
      <trkpt lat="45.94939" lon="4.58311">
        <ele>524</ele>
        <time>2018-07-07T10:00:07Z</time>
      </trkpt>
      <trkpt lat="45.94934" lon="4.58315">
        <ele>525</ele>
        <time>2018-07-07T10:00:08Z</time>
      </trkpt>
      <trkpt lat="45.94928" lon="4.58317">
        <ele>525</ele>
        <time>2018-07-07T10:00:09Z</time>
      </trkpt>
      <trkpt lat="45.94922" lon="4.58324">
        <ele>526</ele>
        <time>2018-07-07T10:00:12Z</time>
      </trkpt>
      <trkpt lat="45.94921" lon="4.58326">
        <ele>526</ele>
        <time>2018-07-07T10:00:13Z</time>
      </trkpt>
      <trkpt lat="45.94914" lon="4.58329">
        <ele>527</ele>
        <time>2018-07-07T10:00:16Z</time>
      </trkpt>
      <trkpt lat="45.94912" lon="4.58329">
        <ele>527</ele>
        <time>2018-07-07T10:00:17Z</time>
      </trkpt>
      <trkpt lat="45.94907" lon="4.58327">
        <ele>527</ele>
        <time>2018-07-07T10:00:19Z</time>
      </trkpt>
      <trkpt lat="45.94896" lon="4.58318">
        <ele>528</ele>
        <time>2018-07-07T10:00:20Z</time>
      </trkpt>
      <trkpt lat="45.94897" lon="4.58311">
        <ele>528</ele>
        <time>2018-07-07T10:00:22Z</time>
      </trkpt>
      <trkpt lat="45.94899" lon="4.58304">
        <ele>528</ele>
        <time>2018-07-07T10:00:23Z</time>
      </trkpt>
      <trkpt lat="45.94897" lon="4.58293">
        <ele>528</ele>
        <time>2018-07-07T10:00:25Z</time>
      </trkpt>
      <trkpt lat="45.94897" lon="4.58288">
        <ele>527</ele>
        <time>2018-07-07T10:00:26Z</time>
      </trkpt>
      <trkpt lat="45.94896" lon="4.58276">
        <ele>527</ele>
        <time>2018-07-07T10:00:28Z</time>
      </trkpt>
      <trkpt lat="45.94893" lon="4.58271">
        <ele>527</ele>
        <time>2018-07-07T10:00:29Z</time>
      </trkpt>
      <trkpt lat="45.94891" lon="4.5826">
        <ele>527</ele>
        <time>2018-07-07T10:00:33Z</time>
      </trkpt>
      <trkpt lat="45.94891" lon="4.58257">
        <ele>527</ele>
        <time>2018-07-07T10:00:34Z</time>
      </trkpt>
      <trkpt lat="45.94891" lon="4.5825">
        <ele>527</ele>
        <time>2018-07-07T10:00:36Z</time>
      </trkpt>
      <trkpt lat="45.9489" lon="4.58239">
        <ele>523</ele>
        <time>2018-07-07T10:00:37Z</time>
      </trkpt>
      <trkpt lat="45.94889" lon="4.58233">
        <ele>523</ele>
        <time>2018-07-07T10:00:38Z</time>
      </trkpt>
      <trkpt lat="45.94886" lon="4.58226">
        <ele>523</ele>
        <time>2018-07-07T10:00:39Z</time>
      </trkpt>
      <trkpt lat="45.94887" lon="4.58215">
        <ele>522</ele>
        <time>2018-07-07T10:00:41Z</time>
      </trkpt>
      <trkpt lat="45.94885" lon="4.58209">
        <ele>522</ele>
        <time>2018-07-07T10:00:42Z</time>
      </trkpt>
      <trkpt lat="45.94883" lon="4.582">
        <ele>521</ele>
        <time>2018-07-07T10:00:44Z</time>
      </trkpt>
      <trkpt lat="45.94882" lon="4.58193">
        <ele>521</ele>
        <time>2018-07-07T10:00:45Z</time>
      </trkpt>
      <trkpt lat="45.94881" lon="4.58187">
        <ele>521</ele>
        <time>2018-07-07T10:00:46Z</time>
      </trkpt>
      <trkpt lat="45.94877" lon="4.5818">
        <ele>521</ele>
        <time>2018-07-07T10:00:47Z</time>
      </trkpt>
      <trkpt lat="45.94872" lon="4.5817">
        <ele>521</ele>
        <time>2018-07-07T10:00:49Z</time>
      </trkpt>
      <trkpt lat="45.94873" lon="4.58164">
        <ele>512</ele>
        <time>2018-07-07T10:00:50Z</time>
      </trkpt>
      <trkpt lat="45.94871" lon="4.58153">
        <ele>512</ele>
        <time>2018-07-07T10:00:52Z</time>
      </trkpt>
      <trkpt lat="45.94868" lon="4.58148">
        <ele>512</ele>
        <time>2018-07-07T10:00:53Z</time>
      </trkpt>
      <trkpt lat="45.94863" lon="4.58138">
        <ele>512</ele>
        <time>2018-07-07T10:00:59Z</time>
      </trkpt>
      <trkpt lat="45.94862" lon="4.58138">
        <ele>512</ele>
        <time>2018-07-07T10:01:00Z</time>
      </trkpt>
      <trkpt lat="45.94858" lon="4.58137">
        <ele>512</ele>
        <time>2018-07-07T10:01:06Z</time>
      </trkpt>
      <trkpt lat="45.94858" lon="4.58137">
        <ele>512</ele>
        <time>2018-07-07T10:01:07Z</time>
      </trkpt>
      <trkpt lat="45.94857" lon="4.58136">
        <ele>512</ele>
        <time>2018-07-07T10:01:08Z</time>
      </trkpt>
      <trkpt lat="45.94852" lon="4.58133">
        <ele>512</ele>
        <time>2018-07-07T10:09:25Z</time>
      </trkpt>
      <trkpt lat="45.94845" lon="4.58129">
        <ele>512</ele>
        <time>2018-07-07T10:09:26Z</time>
      </trkpt>
      <trkpt lat="45.9484" lon="4.58127">
        <ele>512</ele>
        <time>2018-07-07T10:09:27Z</time>
      </trkpt>
      <trkpt lat="45.94832" lon="4.58122">
        <ele>517</ele>
        <time>2018-07-07T10:09:28Z</time>
      </trkpt>
      <trkpt lat="45.94827" lon="4.58117">
        <ele>517</ele>
        <time>2018-07-07T10:09:29Z</time>
      </trkpt>
      <trkpt lat="45.9482" lon="4.58115">
        <ele>516</ele>
        <time>2018-07-07T10:09:30Z</time>
      </trkpt>
      <trkpt lat="45.94814" lon="4.58112">
        <ele>516</ele>
        <time>2018-07-07T10:09:31Z</time>
      </trkpt>
      <trkpt lat="45.94809" lon="4.58109">
        <ele>516</ele>
        <time>2018-07-07T10:09:32Z</time>
      </trkpt>
      <trkpt lat="45.94802" lon="4.58106">
        <ele>516</ele>
        <time>2018-07-07T10:09:33Z</time>
      </trkpt>
      <trkpt lat="45.94797" lon="4.58103">
        <ele>516</ele>
        <time>2018-07-07T10:09:34Z</time>
      </trkpt>
      <trkpt lat="45.94785" lon="4.58101">
        <ele>516</ele>
        <time>2018-07-07T10:09:35Z</time>
      </trkpt>
      <trkpt lat="45.94777" lon="4.58099">
        <ele>515</ele>
        <time>2018-07-07T10:09:36Z</time>
      </trkpt>
      <trkpt lat="45.9477" lon="4.58098">
        <ele>515</ele>
        <time>2018-07-07T10:09:37Z</time>
      </trkpt>
      <trkpt lat="45.94761" lon="4.58097">
        <ele>514</ele>
        <time>2018-07-07T10:09:38Z</time>
      </trkpt>
      <trkpt lat="45.94756" lon="4.58097">
        <ele>514</ele>
        <time>2018-07-07T10:09:39Z</time>
      </trkpt>
      <trkpt lat="45.94751" lon="4.58096">
        <ele>513</ele>
        <time>2018-07-07T10:09:40Z</time>
      </trkpt>
      <trkpt lat="45.94745" lon="4.58097">
        <ele>512</ele>
        <time>2018-07-07T10:09:41Z</time>
      </trkpt>
      <trkpt lat="45.94737" lon="4.58094">
        <ele>512</ele>
        <time>2018-07-07T10:09:42Z</time>
      </trkpt>
      <trkpt lat="45.94729" lon="4.58092">
        <ele>512</ele>
        <time>2018-07-07T10:09:43Z</time>
      </trkpt>
      <trkpt lat="45.94724" lon="4.58093">
        <ele>512</ele>
        <time>2018-07-07T10:09:44Z</time>
      </trkpt>
      <trkpt lat="45.94712" lon="4.58101">
        <ele>511</ele>
        <time>2018-07-07T10:09:45Z</time>
      </trkpt>
      <trkpt lat="45.94702" lon="4.58103">
        <ele>511</ele>
        <time>2018-07-07T10:09:46Z</time>
      </trkpt>
      <trkpt lat="45.94692" lon="4.58104">
        <ele>510</ele>
        <time>2018-07-07T10:09:47Z</time>
      </trkpt>
      <trkpt lat="45.94683" lon="4.58106">
        <ele>509</ele>
        <time>2018-07-07T10:09:48Z</time>
      </trkpt>
      <trkpt lat="45.94672" lon="4.58107">
        <ele>509</ele>
        <time>2018-07-07T10:09:49Z</time>
      </trkpt>
      <trkpt lat="45.9466" lon="4.58108">
        <ele>503</ele>
        <time>2018-07-07T10:09:50Z</time>
      </trkpt>
      <trkpt lat="45.94649" lon="4.58112">
        <ele>503</ele>
        <time>2018-07-07T10:09:51Z</time>
      </trkpt>
      <trkpt lat="45.94643" lon="4.58118">
        <ele>504</ele>
        <time>2018-07-07T10:09:52Z</time>
      </trkpt>
      <trkpt lat="45.94634" lon="4.58125">
        <ele>504</ele>
        <time>2018-07-07T10:09:53Z</time>
      </trkpt>
      <trkpt lat="45.94626" lon="4.58129">
        <ele>504</ele>
        <time>2018-07-07T10:09:54Z</time>
      </trkpt>
      <trkpt lat="45.94615" lon="4.58134">
        <ele>503</ele>
        <time>2018-07-07T10:09:55Z</time>
      </trkpt>
      <trkpt lat="45.94605" lon="4.58138">
        <ele>503</ele>
        <time>2018-07-07T10:09:56Z</time>
      </trkpt>
      <trkpt lat="45.94597" lon="4.58146">
        <ele>503</ele>
        <time>2018-07-07T10:09:57Z</time>
      </trkpt>
      <trkpt lat="45.94586" lon="4.58151">
        <ele>503</ele>
        <time>2018-07-07T10:09:58Z</time>
      </trkpt>
      <trkpt lat="45.94575" lon="4.58153">
        <ele>500</ele>
        <time>2018-07-07T10:09:59Z</time>
      </trkpt>
      <trkpt lat="45.94565" lon="4.58155">
        <ele>499</ele>
        <time>2018-07-07T10:10:00Z</time>
      </trkpt>
      <trkpt lat="45.94554" lon="4.58155">
        <ele>498</ele>
        <time>2018-07-07T10:10:01Z</time>
      </trkpt>
      <trkpt lat="45.94541" lon="4.58156">
        <ele>497</ele>
        <time>2018-07-07T10:10:02Z</time>
      </trkpt>
      <trkpt lat="45.9453" lon="4.58157">
        <ele>496</ele>
        <time>2018-07-07T10:10:03Z</time>
      </trkpt>
      <trkpt lat="45.9452" lon="4.58157">
        <ele>496</ele>
        <time>2018-07-07T10:10:04Z</time>
      </trkpt>
      <trkpt lat="45.94508" lon="4.58155">
        <ele>496</ele>
        <time>2018-07-07T10:10:05Z</time>
      </trkpt>
      <trkpt lat="45.94497" lon="4.58156">
        <ele>494</ele>
        <time>2018-07-07T10:10:06Z</time>
      </trkpt>
      <trkpt lat="45.94487" lon="4.58154">
        <ele>493</ele>
        <time>2018-07-07T10:10:07Z</time>
      </trkpt>
      <trkpt lat="45.94476" lon="4.58151">
        <ele>492</ele>
        <time>2018-07-07T10:10:08Z</time>
      </trkpt>
      <trkpt lat="45.94465" lon="4.5815">
        <ele>492</ele>
        <time>2018-07-07T10:10:09Z</time>
      </trkpt>
      <trkpt lat="45.94454" lon="4.58148">
        <ele>492</ele>
        <time>2018-07-07T10:10:10Z</time>
      </trkpt>
      <trkpt lat="45.94443" lon="4.58146">
        <ele>491</ele>
        <time>2018-07-07T10:10:11Z</time>
      </trkpt>
      <trkpt lat="45.94433" lon="4.58142">
        <ele>491</ele>
        <time>2018-07-07T10:10:12Z</time>
      </trkpt>
      <trkpt lat="45.94422" lon="4.58137">
        <ele>491</ele>
        <time>2018-07-07T10:10:13Z</time>
      </trkpt>
      <trkpt lat="45.94411" lon="4.58132">
        <ele>489</ele>
        <time>2018-07-07T10:10:14Z</time>
      </trkpt>
      <trkpt lat="45.94399" lon="4.58125">
        <ele>488</ele>
        <time>2018-07-07T10:10:15Z</time>
      </trkpt>
      <trkpt lat="45.94388" lon="4.5812">
        <ele>488</ele>
        <time>2018-07-07T10:10:16Z</time>
      </trkpt>
      <trkpt lat="45.94376" lon="4.58114">
        <ele>487</ele>
        <time>2018-07-07T10:10:17Z</time>
      </trkpt>
      <trkpt lat="45.94364" lon="4.58108">
        <ele>487</ele>
        <time>2018-07-07T10:10:18Z</time>
      </trkpt>
      <trkpt lat="45.94352" lon="4.58104">
        <ele>486</ele>
        <time>2018-07-07T10:10:19Z</time>
      </trkpt>
      <trkpt lat="45.9434" lon="4.58101">
        <ele>485</ele>
        <time>2018-07-07T10:10:20Z</time>
      </trkpt>
      <trkpt lat="45.94328" lon="4.58096">
        <ele>483</ele>
        <time>2018-07-07T10:10:21Z</time>
      </trkpt>
      <trkpt lat="45.94317" lon="4.58091">
        <ele>483</ele>
        <time>2018-07-07T10:10:22Z</time>
      </trkpt>
      <trkpt lat="45.94304" lon="4.58087">
        <ele>483</ele>
        <time>2018-07-07T10:10:23Z</time>
      </trkpt>
      <trkpt lat="45.94293" lon="4.58083">
        <ele>478</ele>
        <time>2018-07-07T10:10:24Z</time>
      </trkpt>
      <trkpt lat="45.94282" lon="4.58082">
        <ele>477</ele>
        <time>2018-07-07T10:10:25Z</time>
      </trkpt>
      <trkpt lat="45.9427" lon="4.58078">
        <ele>477</ele>
        <time>2018-07-07T10:10:26Z</time>
      </trkpt>
      <trkpt lat="45.94258" lon="4.58075">
        <ele>477</ele>
        <time>2018-07-07T10:10:27Z</time>
      </trkpt>
      <trkpt lat="45.94247" lon="4.5807">
        <ele>475</ele>
        <time>2018-07-07T10:10:28Z</time>
      </trkpt>
      <trkpt lat="45.94236" lon="4.58065">
        <ele>474</ele>
        <time>2018-07-07T10:10:29Z</time>
      </trkpt>
      <trkpt lat="45.94224" lon="4.58061">
        <ele>473</ele>
        <time>2018-07-07T10:10:30Z</time>
      </trkpt>
      <trkpt lat="45.94214" lon="4.58056">
        <ele>473</ele>
        <time>2018-07-07T10:10:31Z</time>
      </trkpt>
      <trkpt lat="45.94202" lon="4.5805">
        <ele>472</ele>
        <time>2018-07-07T10:10:32Z</time>
      </trkpt>
      <trkpt lat="45.94191" lon="4.58044">
        <ele>472</ele>
        <time>2018-07-07T10:10:33Z</time>
      </trkpt>
      <trkpt lat="45.94181" lon="4.58037">
        <ele>471</ele>
        <time>2018-07-07T10:10:34Z</time>
      </trkpt>
      <trkpt lat="45.9417" lon="4.58029">
        <ele>470</ele>
        <time>2018-07-07T10:10:35Z</time>
      </trkpt>
      <trkpt lat="45.9416" lon="4.5802">
        <ele>468</ele>
        <time>2018-07-07T10:10:36Z</time>
      </trkpt>
      <trkpt lat="45.9415" lon="4.58012">
        <ele>467</ele>
        <time>2018-07-07T10:10:37Z</time>
      </trkpt>
      <trkpt lat="45.94139" lon="4.58004">
        <ele>467</ele>
        <time>2018-07-07T10:10:38Z</time>
      </trkpt>
      <trkpt lat="45.94128" lon="4.57994">
        <ele>463</ele>
        <time>2018-07-07T10:10:39Z</time>
      </trkpt>
      <trkpt lat="45.94117" lon="4.57985">
        <ele>463</ele>
        <time>2018-07-07T10:10:40Z</time>
      </trkpt>
      <trkpt lat="45.94107" lon="4.57977">
        <ele>462</ele>
        <time>2018-07-07T10:10:41Z</time>
      </trkpt>
      <trkpt lat="45.94096" lon="4.57968">
        <ele>462</ele>
        <time>2018-07-07T10:10:42Z</time>
      </trkpt>
      <trkpt lat="45.94084" lon="4.57959">
        <ele>461</ele>
        <time>2018-07-07T10:10:43Z</time>
      </trkpt>
      <trkpt lat="45.94075" lon="4.57951">
        <ele>461</ele>
        <time>2018-07-07T10:10:44Z</time>
      </trkpt>
      <trkpt lat="45.94064" lon="4.57942">
        <ele>460</ele>
        <time>2018-07-07T10:10:45Z</time>
      </trkpt>
      <trkpt lat="45.94053" lon="4.57933">
        <ele>460</ele>
        <time>2018-07-07T10:10:46Z</time>
      </trkpt>
      <trkpt lat="45.94043" lon="4.57925">
        <ele>460</ele>
        <time>2018-07-07T10:10:47Z</time>
      </trkpt>
      <trkpt lat="45.94033" lon="4.57917">
        <ele>460</ele>
        <time>2018-07-07T10:10:48Z</time>
      </trkpt>
      <trkpt lat="45.94021" lon="4.57911">
        <ele>456</ele>
        <time>2018-07-07T10:10:49Z</time>
      </trkpt>
      <trkpt lat="45.9401" lon="4.57906">
        <ele>457</ele>
        <time>2018-07-07T10:10:50Z</time>
      </trkpt>
      <trkpt lat="45.93998" lon="4.579">
        <ele>456</ele>
        <time>2018-07-07T10:10:51Z</time>
      </trkpt>
      <trkpt lat="45.93987" lon="4.57895">
        <ele>455</ele>
        <time>2018-07-07T10:10:52Z</time>
      </trkpt>
      <trkpt lat="45.93976" lon="4.57891">
        <ele>454</ele>
        <time>2018-07-07T10:10:53Z</time>
      </trkpt>
      <trkpt lat="45.93964" lon="4.57887">
        <ele>453</ele>
        <time>2018-07-07T10:10:54Z</time>
      </trkpt>
      <trkpt lat="45.93952" lon="4.57883">
        <ele>452</ele>
        <time>2018-07-07T10:10:55Z</time>
      </trkpt>
      <trkpt lat="45.9394" lon="4.57879">
        <ele>452</ele>
        <time>2018-07-07T10:10:56Z</time>
      </trkpt>
      <trkpt lat="45.93928" lon="4.57877">
        <ele>452</ele>
        <time>2018-07-07T10:10:57Z</time>
      </trkpt>
      <trkpt lat="45.93916" lon="4.57877">
        <ele>448</ele>
        <time>2018-07-07T10:10:58Z</time>
      </trkpt>
      <trkpt lat="45.93904" lon="4.57877">
        <ele>448</ele>
        <time>2018-07-07T10:10:59Z</time>
      </trkpt>
      <trkpt lat="45.93892" lon="4.57877">
        <ele>448</ele>
        <time>2018-07-07T10:11:00Z</time>
      </trkpt>
      <trkpt lat="45.93879" lon="4.57879">
        <ele>447</ele>
        <time>2018-07-07T10:11:01Z</time>
      </trkpt>
      <trkpt lat="45.93866" lon="4.57882">
        <ele>447</ele>
        <time>2018-07-07T10:11:02Z</time>
      </trkpt>
      <trkpt lat="45.93854" lon="4.57884">
        <ele>447</ele>
        <time>2018-07-07T10:11:03Z</time>
      </trkpt>
      <trkpt lat="45.93842" lon="4.57885">
        <ele>447</ele>
        <time>2018-07-07T10:11:04Z</time>
      </trkpt>
      <trkpt lat="45.93829" lon="4.57886">
        <ele>443</ele>
        <time>2018-07-07T10:11:05Z</time>
      </trkpt>
      <trkpt lat="45.93816" lon="4.57889">
        <ele>443</ele>
        <time>2018-07-07T10:11:06Z</time>
      </trkpt>
      <trkpt lat="45.93803" lon="4.57891">
        <ele>442</ele>
        <time>2018-07-07T10:11:07Z</time>
      </trkpt>
      <trkpt lat="45.9379" lon="4.57893">
        <ele>442</ele>
        <time>2018-07-07T10:11:08Z</time>
      </trkpt>
      <trkpt lat="45.93776" lon="4.57894">
        <ele>442</ele>
        <time>2018-07-07T10:11:09Z</time>
      </trkpt>
      <trkpt lat="45.93764" lon="4.57896">
        <ele>442</ele>
        <time>2018-07-07T10:11:10Z</time>
      </trkpt>
      <trkpt lat="45.93751" lon="4.57898">
        <ele>442</ele>
        <time>2018-07-07T10:11:11Z</time>
      </trkpt>
      <trkpt lat="45.93739" lon="4.57901">
        <ele>438</ele>
        <time>2018-07-07T10:11:12Z</time>
      </trkpt>
      <trkpt lat="45.93725" lon="4.57904">
        <ele>437</ele>
        <time>2018-07-07T10:11:13Z</time>
      </trkpt>
      <trkpt lat="45.93713" lon="4.57906">
        <ele>436</ele>
        <time>2018-07-07T10:11:14Z</time>
      </trkpt>
      <trkpt lat="45.93699" lon="4.57907">
        <ele>435</ele>
        <time>2018-07-07T10:11:15Z</time>
      </trkpt>
      <trkpt lat="45.93686" lon="4.5791">
        <ele>434</ele>
        <time>2018-07-07T10:11:16Z</time>
      </trkpt>
      <trkpt lat="45.93673" lon="4.57913">
        <ele>434</ele>
        <time>2018-07-07T10:11:17Z</time>
      </trkpt>
      <trkpt lat="45.93659" lon="4.57916">
        <ele>432</ele>
        <time>2018-07-07T10:11:18Z</time>
      </trkpt>
      <trkpt lat="45.93646" lon="4.57919">
        <ele>434</ele>
        <time>2018-07-07T10:11:19Z</time>
      </trkpt>
      <trkpt lat="45.93633" lon="4.57923">
        <ele>433</ele>
        <time>2018-07-07T10:11:20Z</time>
      </trkpt>
      <trkpt lat="45.9362" lon="4.57927">
        <ele>433</ele>
        <time>2018-07-07T10:11:21Z</time>
      </trkpt>
      <trkpt lat="45.93607" lon="4.5793">
        <ele>432</ele>
        <time>2018-07-07T10:11:22Z</time>
      </trkpt>
      <trkpt lat="45.93594" lon="4.57934">
        <ele>431</ele>
        <time>2018-07-07T10:11:23Z</time>
      </trkpt>
      <trkpt lat="45.9358" lon="4.57936">
        <ele>427</ele>
        <time>2018-07-07T10:11:24Z</time>
      </trkpt>
      <trkpt lat="45.93567" lon="4.57939">
        <ele>427</ele>
        <time>2018-07-07T10:11:25Z</time>
      </trkpt>
      <trkpt lat="45.93553" lon="4.57945">
        <ele>427</ele>
        <time>2018-07-07T10:11:26Z</time>
      </trkpt>
      <trkpt lat="45.93541" lon="4.5795">
        <ele>427</ele>
        <time>2018-07-07T10:11:27Z</time>
      </trkpt>
      <trkpt lat="45.93528" lon="4.57956">
        <ele>427</ele>
        <time>2018-07-07T10:11:28Z</time>
      </trkpt>
      <trkpt lat="45.93516" lon="4.57962">
        <ele>426</ele>
        <time>2018-07-07T10:11:29Z</time>
      </trkpt>
      <trkpt lat="45.93503" lon="4.57969">
        <ele>426</ele>
        <time>2018-07-07T10:11:30Z</time>
      </trkpt>
      <trkpt lat="45.93492" lon="4.57974">
        <ele>423</ele>
        <time>2018-07-07T10:11:31Z</time>
      </trkpt>
      <trkpt lat="45.9348" lon="4.57981">
        <ele>423</ele>
        <time>2018-07-07T10:11:32Z</time>
      </trkpt>
      <trkpt lat="45.93468" lon="4.57987">
        <ele>422</ele>
        <time>2018-07-07T10:11:33Z</time>
      </trkpt>
      <trkpt lat="45.93456" lon="4.57994">
        <ele>422</ele>
        <time>2018-07-07T10:11:34Z</time>
      </trkpt>
      <trkpt lat="45.93443" lon="4.58">
        <ele>421</ele>
        <time>2018-07-07T10:11:35Z</time>
      </trkpt>
      <trkpt lat="45.93431" lon="4.58006">
        <ele>424</ele>
        <time>2018-07-07T10:11:36Z</time>
      </trkpt>
      <trkpt lat="45.93419" lon="4.5801">
        <ele>423</ele>
        <time>2018-07-07T10:11:37Z</time>
      </trkpt>
      <trkpt lat="45.93407" lon="4.58014">
        <ele>421</ele>
        <time>2018-07-07T10:11:38Z</time>
      </trkpt>
      <trkpt lat="45.93395" lon="4.58018">
        <ele>421</ele>
        <time>2018-07-07T10:11:39Z</time>
      </trkpt>
      <trkpt lat="45.93383" lon="4.58023">
        <ele>421</ele>
        <time>2018-07-07T10:11:40Z</time>
      </trkpt>
      <trkpt lat="45.93372" lon="4.58028">
        <ele>421</ele>
        <time>2018-07-07T10:11:41Z</time>
      </trkpt>
      <trkpt lat="45.93359" lon="4.58032">
        <ele>421</ele>
        <time>2018-07-07T10:11:42Z</time>
      </trkpt>
      <trkpt lat="45.93348" lon="4.58034">
        <ele>421</ele>
        <time>2018-07-07T10:11:43Z</time>
      </trkpt>
      <trkpt lat="45.93336" lon="4.58037">
        <ele>421</ele>
        <time>2018-07-07T10:11:44Z</time>
      </trkpt>
      <trkpt lat="45.93325" lon="4.58042">
        <ele>418</ele>
        <time>2018-07-07T10:11:45Z</time>
      </trkpt>
      <trkpt lat="45.93313" lon="4.58045">
        <ele>418</ele>
        <time>2018-07-07T10:11:46Z</time>
      </trkpt>
      <trkpt lat="45.93303" lon="4.58049">
        <ele>418</ele>
        <time>2018-07-07T10:11:47Z</time>
      </trkpt>
      <trkpt lat="45.93292" lon="4.58054">
        <ele>418</ele>
        <time>2018-07-07T10:11:48Z</time>
      </trkpt>
      <trkpt lat="45.93281" lon="4.58058">
        <ele>418</ele>
        <time>2018-07-07T10:11:49Z</time>
      </trkpt>
      <trkpt lat="45.93271" lon="4.58062">
        <ele>417</ele>
        <time>2018-07-07T10:11:50Z</time>
      </trkpt>
      <trkpt lat="45.93261" lon="4.58066">
        <ele>417</ele>
        <time>2018-07-07T10:11:51Z</time>
      </trkpt>
      <trkpt lat="45.93251" lon="4.58069">
        <ele>417</ele>
        <time>2018-07-07T10:11:52Z</time>
      </trkpt>
      <trkpt lat="45.9324" lon="4.58071">
        <ele>415</ele>
        <time>2018-07-07T10:11:53Z</time>
      </trkpt>
      <trkpt lat="45.93231" lon="4.58074">
        <ele>414</ele>
        <time>2018-07-07T10:11:54Z</time>
      </trkpt>
      <trkpt lat="45.93222" lon="4.58077">
        <ele>414</ele>
        <time>2018-07-07T10:11:55Z</time>
      </trkpt>
      <trkpt lat="45.93213" lon="4.5808">
        <ele>413</ele>
        <time>2018-07-07T10:11:56Z</time>
      </trkpt>
      <trkpt lat="45.93205" lon="4.58077">
        <ele>413</ele>
        <time>2018-07-07T10:11:57Z</time>
      </trkpt>
      <trkpt lat="45.93197" lon="4.58079">
        <ele>413</ele>
        <time>2018-07-07T10:11:58Z</time>
      </trkpt>
      <trkpt lat="45.93188" lon="4.58079">
        <ele>412</ele>
        <time>2018-07-07T10:11:59Z</time>
      </trkpt>
      <trkpt lat="45.9318" lon="4.58075">
        <ele>412</ele>
        <time>2018-07-07T10:12:00Z</time>
      </trkpt>
      <trkpt lat="45.93174" lon="4.58073">
        <ele>412</ele>
        <time>2018-07-07T10:12:01Z</time>
      </trkpt>
      <trkpt lat="45.93167" lon="4.58069">
        <ele>412</ele>
        <time>2018-07-07T10:12:02Z</time>
      </trkpt>
      <trkpt lat="45.9316" lon="4.58065">
        <ele>409</ele>
        <time>2018-07-07T10:12:03Z</time>
      </trkpt>
      <trkpt lat="45.93151" lon="4.58061">
        <ele>408</ele>
        <time>2018-07-07T10:12:04Z</time>
      </trkpt>
      <trkpt lat="45.93139" lon="4.5806">
        <ele>408</ele>
        <time>2018-07-07T10:12:05Z</time>
      </trkpt>
      <trkpt lat="45.93129" lon="4.58055">
        <ele>407</ele>
        <time>2018-07-07T10:12:06Z</time>
      </trkpt>
      <trkpt lat="45.93122" lon="4.58051">
        <ele>407</ele>
        <time>2018-07-07T10:12:07Z</time>
      </trkpt>
      <trkpt lat="45.93115" lon="4.58046">
        <ele>406</ele>
        <time>2018-07-07T10:12:08Z</time>
      </trkpt>
      <trkpt lat="45.93107" lon="4.58042">
        <ele>406</ele>
        <time>2018-07-07T10:12:09Z</time>
      </trkpt>
      <trkpt lat="45.93096" lon="4.58043">
        <ele>405</ele>
        <time>2018-07-07T10:12:10Z</time>
      </trkpt>
      <trkpt lat="45.93084" lon="4.58042">
        <ele>405</ele>
        <time>2018-07-07T10:12:11Z</time>
      </trkpt>
      <trkpt lat="45.93073" lon="4.58041">
        <ele>400</ele>
        <time>2018-07-07T10:12:12Z</time>
      </trkpt>
      <trkpt lat="45.93061" lon="4.58042">
        <ele>400</ele>
        <time>2018-07-07T10:12:13Z</time>
      </trkpt>
      <trkpt lat="45.93051" lon="4.58044">
        <ele>399</ele>
        <time>2018-07-07T10:12:14Z</time>
      </trkpt>
      <trkpt lat="45.9304" lon="4.58046">
        <ele>399</ele>
        <time>2018-07-07T10:12:15Z</time>
      </trkpt>
      <trkpt lat="45.93029" lon="4.58049">
        <ele>399</ele>
        <time>2018-07-07T10:12:16Z</time>
      </trkpt>
      <trkpt lat="45.93017" lon="4.5805">
        <ele>398</ele>
        <time>2018-07-07T10:12:17Z</time>
      </trkpt>
      <trkpt lat="45.93006" lon="4.58056">
        <ele>398</ele>
        <time>2018-07-07T10:12:18Z</time>
      </trkpt>
      <trkpt lat="45.92994" lon="4.58058">
        <ele>393</ele>
        <time>2018-07-07T10:12:19Z</time>
      </trkpt>
      <trkpt lat="45.92982" lon="4.58062">
        <ele>393</ele>
        <time>2018-07-07T10:12:20Z</time>
      </trkpt>
      <trkpt lat="45.9297" lon="4.58064">
        <ele>392</ele>
        <time>2018-07-07T10:12:21Z</time>
      </trkpt>
      <trkpt lat="45.92958" lon="4.58067">
        <ele>391</ele>
        <time>2018-07-07T10:12:22Z</time>
      </trkpt>
      <trkpt lat="45.92946" lon="4.58072">
        <ele>391</ele>
        <time>2018-07-07T10:12:23Z</time>
      </trkpt>
      <trkpt lat="45.92933" lon="4.58075">
        <ele>390</ele>
        <time>2018-07-07T10:12:24Z</time>
      </trkpt>
      <trkpt lat="45.9292" lon="4.58079">
        <ele>391</ele>
        <time>2018-07-07T10:12:25Z</time>
      </trkpt>
      <trkpt lat="45.92908" lon="4.58084">
        <ele>391</ele>
        <time>2018-07-07T10:12:26Z</time>
      </trkpt>
      <trkpt lat="45.92894" lon="4.58088">
        <ele>390</ele>
        <time>2018-07-07T10:12:27Z</time>
      </trkpt>
      <trkpt lat="45.92882" lon="4.58094">
        <ele>390</ele>
        <time>2018-07-07T10:12:28Z</time>
      </trkpt>
      <trkpt lat="45.92869" lon="4.581">
        <ele>389</ele>
        <time>2018-07-07T10:12:29Z</time>
      </trkpt>
      <trkpt lat="45.92856" lon="4.58105">
        <ele>388</ele>
        <time>2018-07-07T10:12:30Z</time>
      </trkpt>
      <trkpt lat="45.92843" lon="4.58111">
        <ele>388</ele>
        <time>2018-07-07T10:12:31Z</time>
      </trkpt>
      <trkpt lat="45.92829" lon="4.58117">
        <ele>383</ele>
        <time>2018-07-07T10:12:32Z</time>
      </trkpt>
      <trkpt lat="45.92817" lon="4.58122">
        <ele>383</ele>
        <time>2018-07-07T10:12:33Z</time>
      </trkpt>
      <trkpt lat="45.92805" lon="4.58128">
        <ele>383</ele>
        <time>2018-07-07T10:12:34Z</time>
      </trkpt>
      <trkpt lat="45.92793" lon="4.58133">
        <ele>383</ele>
        <time>2018-07-07T10:12:35Z</time>
      </trkpt>
      <trkpt lat="45.92781" lon="4.58138">
        <ele>382</ele>
        <time>2018-07-07T10:12:36Z</time>
      </trkpt>
      <trkpt lat="45.92769" lon="4.58142">
        <ele>382</ele>
        <time>2018-07-07T10:12:37Z</time>
      </trkpt>
      <trkpt lat="45.92757" lon="4.58147">
        <ele>382</ele>
        <time>2018-07-07T10:12:38Z</time>
      </trkpt>
      <trkpt lat="45.92746" lon="4.58151">
        <ele>378</ele>
        <time>2018-07-07T10:12:39Z</time>
      </trkpt>
      <trkpt lat="45.92735" lon="4.58154">
        <ele>378</ele>
        <time>2018-07-07T10:12:40Z</time>
      </trkpt>
      <trkpt lat="45.92724" lon="4.58158">
        <ele>377</ele>
        <time>2018-07-07T10:12:41Z</time>
      </trkpt>
      <trkpt lat="45.92715" lon="4.58161">
        <ele>376</ele>
        <time>2018-07-07T10:12:42Z</time>
      </trkpt>
      <trkpt lat="45.92705" lon="4.58164">
        <ele>375</ele>
        <time>2018-07-07T10:12:43Z</time>
      </trkpt>
      <trkpt lat="45.92694" lon="4.58168">
        <ele>379</ele>
        <time>2018-07-07T10:12:44Z</time>
      </trkpt>
      <trkpt lat="45.92684" lon="4.58171">
        <ele>378</ele>
        <time>2018-07-07T10:12:45Z</time>
      </trkpt>
      <trkpt lat="45.92674" lon="4.58175">
        <ele>377</ele>
        <time>2018-07-07T10:12:46Z</time>
      </trkpt>
      <trkpt lat="45.92665" lon="4.58177">
        <ele>375</ele>
        <time>2018-07-07T10:12:47Z</time>
      </trkpt>
      <trkpt lat="45.92656" lon="4.58179">
        <ele>375</ele>
        <time>2018-07-07T10:12:48Z</time>
      </trkpt>
      <trkpt lat="45.92646" lon="4.58182">
        <ele>374</ele>
        <time>2018-07-07T10:12:49Z</time>
      </trkpt>
      <trkpt lat="45.92638" lon="4.58185">
        <ele>374</ele>
        <time>2018-07-07T10:12:50Z</time>
      </trkpt>
      <trkpt lat="45.92631" lon="4.58186">
        <ele>374</ele>
        <time>2018-07-07T10:12:51Z</time>
      </trkpt>
      <trkpt lat="45.92623" lon="4.58189">
        <ele>374</ele>
        <time>2018-07-07T10:12:52Z</time>
      </trkpt>
      <trkpt lat="45.92617" lon="4.5819">
        <ele>373</ele>
        <time>2018-07-07T10:12:53Z</time>
      </trkpt>
      <trkpt lat="45.92611" lon="4.5819">
        <ele>373</ele>
        <time>2018-07-07T10:12:54Z</time>
      </trkpt>
      <trkpt lat="45.92604" lon="4.5819">
        <ele>372</ele>
        <time>2018-07-07T10:12:55Z</time>
      </trkpt>
      <trkpt lat="45.92598" lon="4.58188">
        <ele>372</ele>
        <time>2018-07-07T10:12:56Z</time>
      </trkpt>
      <trkpt lat="45.92592" lon="4.58188">
        <ele>372</ele>
        <time>2018-07-07T10:12:57Z</time>
      </trkpt>
      <trkpt lat="45.92585" lon="4.5819">
        <ele>372</ele>
        <time>2018-07-07T10:12:58Z</time>
      </trkpt>
      <trkpt lat="45.92581" lon="4.58195">
        <ele>368</ele>
        <time>2018-07-07T10:12:59Z</time>
      </trkpt>
      <trkpt lat="45.92574" lon="4.58199">
        <ele>368</ele>
        <time>2018-07-07T10:13:00Z</time>
      </trkpt>
      <trkpt lat="45.92567" lon="4.58202">
        <ele>368</ele>
        <time>2018-07-07T10:13:01Z</time>
      </trkpt>
      <trkpt lat="45.92562" lon="4.58205">
        <ele>368</ele>
        <time>2018-07-07T10:13:02Z</time>
      </trkpt>
      <trkpt lat="45.92553" lon="4.58208">
        <ele>367</ele>
        <time>2018-07-07T10:13:03Z</time>
      </trkpt>
      <trkpt lat="45.92545" lon="4.58214">
        <ele>367</ele>
        <time>2018-07-07T10:13:04Z</time>
      </trkpt>
      <trkpt lat="45.92537" lon="4.58219">
        <ele>367</ele>
        <time>2018-07-07T10:13:05Z</time>
      </trkpt>
      <trkpt lat="45.9253" lon="4.58225">
        <ele>367</ele>
        <time>2018-07-07T10:13:06Z</time>
      </trkpt>
      <trkpt lat="45.92521" lon="4.58228">
        <ele>367</ele>
        <time>2018-07-07T10:13:07Z</time>
      </trkpt>
      <trkpt lat="45.92515" lon="4.58233">
        <ele>367</ele>
        <time>2018-07-07T10:13:08Z</time>
      </trkpt>
      <trkpt lat="45.92505" lon="4.58233">
        <ele>367</ele>
        <time>2018-07-07T10:13:09Z</time>
      </trkpt>
      <trkpt lat="45.92498" lon="4.5824">
        <ele>365</ele>
        <time>2018-07-07T10:13:10Z</time>
      </trkpt>
      <trkpt lat="45.92491" lon="4.58243">
        <ele>365</ele>
        <time>2018-07-07T10:13:11Z</time>
      </trkpt>
      <trkpt lat="45.92483" lon="4.58246">
        <ele>363</ele>
        <time>2018-07-07T10:13:12Z</time>
      </trkpt>
      <trkpt lat="45.92475" lon="4.58253">
        <ele>366</ele>
        <time>2018-07-07T10:13:13Z</time>
      </trkpt>
      <trkpt lat="45.92469" lon="4.58261">
        <ele>366</ele>
        <time>2018-07-07T10:13:14Z</time>
      </trkpt>
      <trkpt lat="45.92461" lon="4.58265">
        <ele>366</ele>
        <time>2018-07-07T10:13:15Z</time>
      </trkpt>
      <trkpt lat="45.92454" lon="4.58272">
        <ele>365</ele>
        <time>2018-07-07T10:13:16Z</time>
      </trkpt>
      <trkpt lat="45.92446" lon="4.58276">
        <ele>365</ele>
        <time>2018-07-07T10:13:17Z</time>
      </trkpt>
      <trkpt lat="45.92438" lon="4.58281">
        <ele>365</ele>
        <time>2018-07-07T10:13:18Z</time>
      </trkpt>
      <trkpt lat="45.92431" lon="4.58289">
        <ele>365</ele>
        <time>2018-07-07T10:13:19Z</time>
      </trkpt>
      <trkpt lat="45.92424" lon="4.583">
        <ele>365</ele>
        <time>2018-07-07T10:13:20Z</time>
      </trkpt>
      <trkpt lat="45.92419" lon="4.5831">
        <ele>366</ele>
        <time>2018-07-07T10:13:21Z</time>
      </trkpt>
      <trkpt lat="45.92411" lon="4.58314">
        <ele>363</ele>
        <time>2018-07-07T10:13:22Z</time>
      </trkpt>
      <trkpt lat="45.92404" lon="4.58322">
        <ele>363</ele>
        <time>2018-07-07T10:13:23Z</time>
      </trkpt>
      <trkpt lat="45.92396" lon="4.58326">
        <ele>363</ele>
        <time>2018-07-07T10:13:24Z</time>
      </trkpt>
      <trkpt lat="45.92388" lon="4.58331">
        <ele>362</ele>
        <time>2018-07-07T10:13:25Z</time>
      </trkpt>
      <trkpt lat="45.92381" lon="4.58335">
        <ele>364</ele>
        <time>2018-07-07T10:13:26Z</time>
      </trkpt>
      <trkpt lat="45.92374" lon="4.5834">
        <ele>364</ele>
        <time>2018-07-07T10:13:27Z</time>
      </trkpt>
      <trkpt lat="45.92367" lon="4.58345">
        <ele>364</ele>
        <time>2018-07-07T10:13:28Z</time>
      </trkpt>
      <trkpt lat="45.92359" lon="4.58353">
        <ele>364</ele>
        <time>2018-07-07T10:13:29Z</time>
      </trkpt>
      <trkpt lat="45.92353" lon="4.5836">
        <ele>363</ele>
        <time>2018-07-07T10:13:30Z</time>
      </trkpt>
      <trkpt lat="45.92347" lon="4.58366">
        <ele>363</ele>
        <time>2018-07-07T10:13:31Z</time>
      </trkpt>
      <trkpt lat="45.9234" lon="4.58373">
        <ele>363</ele>
        <time>2018-07-07T10:13:32Z</time>
      </trkpt>
      <trkpt lat="45.92336" lon="4.58381">
        <ele>363</ele>
        <time>2018-07-07T10:13:33Z</time>
      </trkpt>
      <trkpt lat="45.92331" lon="4.5839">
        <ele>360</ele>
        <time>2018-07-07T10:13:34Z</time>
      </trkpt>
      <trkpt lat="45.92325" lon="4.58397">
        <ele>360</ele>
        <time>2018-07-07T10:13:35Z</time>
      </trkpt>
      <trkpt lat="45.92318" lon="4.584">
        <ele>360</ele>
        <time>2018-07-07T10:13:36Z</time>
      </trkpt>
      <trkpt lat="45.92311" lon="4.58402">
        <ele>360</ele>
        <time>2018-07-07T10:13:37Z</time>
      </trkpt>
      <trkpt lat="45.92306" lon="4.58412">
        <ele>360</ele>
        <time>2018-07-07T10:13:38Z</time>
      </trkpt>
      <trkpt lat="45.92295" lon="4.58414">
        <ele>360</ele>
        <time>2018-07-07T10:13:39Z</time>
      </trkpt>
      <trkpt lat="45.92294" lon="4.58423">
        <ele>360</ele>
        <time>2018-07-07T10:13:40Z</time>
      </trkpt>
      <trkpt lat="45.92287" lon="4.58432">
        <ele>360</ele>
        <time>2018-07-07T10:13:41Z</time>
      </trkpt>
      <trkpt lat="45.92279" lon="4.58435">
        <ele>360</ele>
        <time>2018-07-07T10:13:42Z</time>
      </trkpt>
      <trkpt lat="45.92274" lon="4.58447">
        <ele>360</ele>
        <time>2018-07-07T10:13:43Z</time>
      </trkpt>
      <trkpt lat="45.92272" lon="4.58456">
        <ele>360</ele>
        <time>2018-07-07T10:13:44Z</time>
      </trkpt>
      <trkpt lat="45.92269" lon="4.58461">
        <ele>360</ele>
        <time>2018-07-07T10:13:45Z</time>
      </trkpt>
      <trkpt lat="45.92263" lon="4.58467">
        <ele>360</ele>
        <time>2018-07-07T10:13:46Z</time>
      </trkpt>
      <trkpt lat="45.92257" lon="4.58474">
        <ele>360</ele>
        <time>2018-07-07T10:13:47Z</time>
      </trkpt>
      <trkpt lat="45.9225" lon="4.58478">
        <ele>359</ele>
        <time>2018-07-07T10:13:48Z</time>
      </trkpt>
      <trkpt lat="45.92245" lon="4.58488">
        <ele>359</ele>
        <time>2018-07-07T10:13:49Z</time>
      </trkpt>
      <trkpt lat="45.9224" lon="4.5849">
        <ele>359</ele>
        <time>2018-07-07T10:13:50Z</time>
      </trkpt>
      <trkpt lat="45.92235" lon="4.58499">
        <ele>359</ele>
        <time>2018-07-07T10:13:51Z</time>
      </trkpt>
      <trkpt lat="45.92229" lon="4.58507">
        <ele>359</ele>
        <time>2018-07-07T10:13:52Z</time>
      </trkpt>
      <trkpt lat="45.92224" lon="4.58511">
        <ele>359</ele>
        <time>2018-07-07T10:13:53Z</time>
      </trkpt>
      <trkpt lat="45.92219" lon="4.58517">
        <ele>359</ele>
        <time>2018-07-07T10:13:54Z</time>
      </trkpt>
      <trkpt lat="45.92213" lon="4.58521">
        <ele>359</ele>
        <time>2018-07-07T10:13:55Z</time>
      </trkpt>
      <trkpt lat="45.92208" lon="4.58526">
        <ele>358</ele>
        <time>2018-07-07T10:13:56Z</time>
      </trkpt>
      <trkpt lat="45.92203" lon="4.5853">
        <ele>358</ele>
        <time>2018-07-07T10:13:57Z</time>
      </trkpt>
      <trkpt lat="45.922" lon="4.58534">
        <ele>358</ele>
        <time>2018-07-07T10:13:59Z</time>
      </trkpt>
      <trkpt lat="45.92196" lon="4.58537">
        <ele>358</ele>
        <time>2018-07-07T10:14:00Z</time>
      </trkpt>
      <trkpt lat="45.92187" lon="4.58535">
        <ele>358</ele>
        <time>2018-07-07T10:14:02Z</time>
      </trkpt>
      <trkpt lat="45.92185" lon="4.58531">
        <ele>358</ele>
        <time>2018-07-07T10:14:03Z</time>
      </trkpt>
      <trkpt lat="45.9218" lon="4.58529">
        <ele>358</ele>
        <time>2018-07-07T10:14:05Z</time>
      </trkpt>
      <trkpt lat="45.92182" lon="4.58518">
        <ele>358</ele>
        <time>2018-07-07T10:14:06Z</time>
      </trkpt>
      <trkpt lat="45.92177" lon="4.58511">
        <ele>358</ele>
        <time>2018-07-07T10:14:07Z</time>
      </trkpt>
      <trkpt lat="45.92173" lon="4.58504">
        <ele>357</ele>
        <time>2018-07-07T10:14:08Z</time>
      </trkpt>
      <trkpt lat="45.92171" lon="4.58499">
        <ele>357</ele>
        <time>2018-07-07T10:14:09Z</time>
      </trkpt>
      <trkpt lat="45.92168" lon="4.58493">
        <ele>357</ele>
        <time>2018-07-07T10:14:10Z</time>
      </trkpt>
      <trkpt lat="45.92166" lon="4.58488">
        <ele>356</ele>
        <time>2018-07-07T10:14:12Z</time>
      </trkpt>
      <trkpt lat="45.92158" lon="4.58482">
        <ele>356</ele>
        <time>2018-07-07T10:14:13Z</time>
      </trkpt>
      <trkpt lat="45.9215" lon="4.58482">
        <ele>355</ele>
        <time>2018-07-07T10:14:15Z</time>
      </trkpt>
      <trkpt lat="45.92145" lon="4.58486">
        <ele>355</ele>
        <time>2018-07-07T10:14:16Z</time>
      </trkpt>
      <trkpt lat="45.92139" lon="4.58491">
        <ele>355</ele>
        <time>2018-07-07T10:14:18Z</time>
      </trkpt>
      <trkpt lat="45.92137" lon="4.58497">
        <ele>355</ele>
        <time>2018-07-07T10:14:19Z</time>
      </trkpt>
      <trkpt lat="45.92133" lon="4.58506">
        <ele>356</ele>
        <time>2018-07-07T10:14:21Z</time>
      </trkpt>
      <trkpt lat="45.9213" lon="4.5851">
        <ele>356</ele>
        <time>2018-07-07T10:14:22Z</time>
      </trkpt>
      <trkpt lat="45.92122" lon="4.5852">
        <ele>356</ele>
        <time>2018-07-07T10:14:23Z</time>
      </trkpt>
      <trkpt lat="45.92119" lon="4.58522">
        <ele>356</ele>
        <time>2018-07-07T10:14:24Z</time>
      </trkpt>
      <trkpt lat="45.92114" lon="4.58532">
        <ele>356</ele>
        <time>2018-07-07T10:14:25Z</time>
      </trkpt>
      <trkpt lat="45.92104" lon="4.58538">
        <ele>355</ele>
        <time>2018-07-07T10:14:26Z</time>
      </trkpt>
      <trkpt lat="45.92097" lon="4.58542">
        <ele>355</ele>
        <time>2018-07-07T10:14:29Z</time>
      </trkpt>
      <trkpt lat="45.92092" lon="4.58544">
        <ele>355</ele>
        <time>2018-07-07T10:14:30Z</time>
      </trkpt>
      <trkpt lat="45.92088" lon="4.58546">
        <ele>355</ele>
        <time>2018-07-07T10:14:31Z</time>
      </trkpt>
      <trkpt lat="45.92083" lon="4.58548">
        <ele>353</ele>
        <time>2018-07-07T10:14:32Z</time>
      </trkpt>
      <trkpt lat="45.92078" lon="4.58553">
        <ele>353</ele>
        <time>2018-07-07T10:14:33Z</time>
      </trkpt>
      <trkpt lat="45.92074" lon="4.58558">
        <ele>353</ele>
        <time>2018-07-07T10:14:34Z</time>
      </trkpt>
      <trkpt lat="45.9207" lon="4.58565">
        <ele>354</ele>
        <time>2018-07-07T10:14:35Z</time>
      </trkpt>
      <trkpt lat="45.92065" lon="4.5857">
        <ele>354</ele>
        <time>2018-07-07T10:14:36Z</time>
      </trkpt>
      <trkpt lat="45.92063" lon="4.58577">
        <ele>354</ele>
        <time>2018-07-07T10:14:37Z</time>
      </trkpt>
      <trkpt lat="45.92061" lon="4.58583">
        <ele>353</ele>
        <time>2018-07-07T10:14:38Z</time>
      </trkpt>
      <trkpt lat="45.92057" lon="4.58592">
        <ele>352</ele>
        <time>2018-07-07T10:14:39Z</time>
      </trkpt>
      <trkpt lat="45.92053" lon="4.58598">
        <ele>352</ele>
        <time>2018-07-07T10:14:40Z</time>
      </trkpt>
      <trkpt lat="45.92047" lon="4.58604">
        <ele>352</ele>
        <time>2018-07-07T10:14:41Z</time>
      </trkpt>
      <trkpt lat="45.92043" lon="4.58614">
        <ele>351</ele>
        <time>2018-07-07T10:14:42Z</time>
      </trkpt>
      <trkpt lat="45.92036" lon="4.58625">
        <ele>351</ele>
        <time>2018-07-07T10:14:43Z</time>
      </trkpt>
      <trkpt lat="45.92032" lon="4.58634">
        <ele>351</ele>
        <time>2018-07-07T10:14:44Z</time>
      </trkpt>
      <trkpt lat="45.92032" lon="4.58639">
        <ele>351</ele>
        <time>2018-07-07T10:14:45Z</time>
      </trkpt>
      <trkpt lat="45.92025" lon="4.58638">
        <ele>351</ele>
        <time>2018-07-07T10:14:46Z</time>
      </trkpt>
      <trkpt lat="45.9202" lon="4.58639">
        <ele>350</ele>
        <time>2018-07-07T10:14:47Z</time>
      </trkpt>
      <trkpt lat="45.92016" lon="4.58646">
        <ele>350</ele>
        <time>2018-07-07T10:14:48Z</time>
      </trkpt>
      <trkpt lat="45.92012" lon="4.5865">
        <ele>350</ele>
        <time>2018-07-07T10:14:49Z</time>
      </trkpt>
      <trkpt lat="45.92008" lon="4.58656">
        <ele>349</ele>
        <time>2018-07-07T10:14:50Z</time>
      </trkpt>
      <trkpt lat="45.92003" lon="4.58663">
        <ele>349</ele>
        <time>2018-07-07T10:14:51Z</time>
      </trkpt>
      <trkpt lat="45.91998" lon="4.5867">
        <ele>347</ele>
        <time>2018-07-07T10:14:52Z</time>
      </trkpt>
      <trkpt lat="45.91995" lon="4.5868">
        <ele>346</ele>
        <time>2018-07-07T10:14:53Z</time>
      </trkpt>
      <trkpt lat="45.91989" lon="4.58689">
        <ele>345</ele>
        <time>2018-07-07T10:14:54Z</time>
      </trkpt>
      <trkpt lat="45.91983" lon="4.58696">
        <ele>344</ele>
        <time>2018-07-07T10:14:55Z</time>
      </trkpt>
      <trkpt lat="45.91978" lon="4.58706">
        <ele>344</ele>
        <time>2018-07-07T10:14:56Z</time>
      </trkpt>
      <trkpt lat="45.91973" lon="4.58714">
        <ele>343</ele>
        <time>2018-07-07T10:14:57Z</time>
      </trkpt>
      <trkpt lat="45.91968" lon="4.58725">
        <ele>342</ele>
        <time>2018-07-07T10:14:58Z</time>
      </trkpt>
      <trkpt lat="45.91964" lon="4.58733">
        <ele>342</ele>
        <time>2018-07-07T10:14:59Z</time>
      </trkpt>
      <trkpt lat="45.91959" lon="4.58741">
        <ele>342</ele>
        <time>2018-07-07T10:15:00Z</time>
      </trkpt>
      <trkpt lat="45.91956" lon="4.58752">
        <ele>336</ele>
        <time>2018-07-07T10:15:01Z</time>
      </trkpt>
      <trkpt lat="45.91951" lon="4.58762">
        <ele>336</ele>
        <time>2018-07-07T10:15:02Z</time>
      </trkpt>
      <trkpt lat="45.91945" lon="4.5877">
        <ele>336</ele>
        <time>2018-07-07T10:15:03Z</time>
      </trkpt>
      <trkpt lat="45.91941" lon="4.58777">
        <ele>336</ele>
        <time>2018-07-07T10:15:04Z</time>
      </trkpt>
      <trkpt lat="45.91937" lon="4.58783">
        <ele>335</ele>
        <time>2018-07-07T10:15:05Z</time>
      </trkpt>
      <trkpt lat="45.91933" lon="4.58791">
        <ele>335</ele>
        <time>2018-07-07T10:15:06Z</time>
      </trkpt>
      <trkpt lat="45.91929" lon="4.58796">
        <ele>334</ele>
        <time>2018-07-07T10:15:07Z</time>
      </trkpt>
      <trkpt lat="45.91927" lon="4.58802">
        <ele>334</ele>
        <time>2018-07-07T10:15:08Z</time>
      </trkpt>
      <trkpt lat="45.91923" lon="4.58808">
        <ele>334</ele>
        <time>2018-07-07T10:15:09Z</time>
      </trkpt>
      <trkpt lat="45.9192" lon="4.58814">
        <ele>333</ele>
        <time>2018-07-07T10:15:10Z</time>
      </trkpt>
      <trkpt lat="45.91919" lon="4.58819">
        <ele>333</ele>
        <time>2018-07-07T10:15:11Z</time>
      </trkpt>
      <trkpt lat="45.91915" lon="4.58828">
        <ele>333</ele>
        <time>2018-07-07T10:15:13Z</time>
      </trkpt>
      <trkpt lat="45.91914" lon="4.58832">
        <ele>333</ele>
        <time>2018-07-07T10:15:14Z</time>
      </trkpt>
      <trkpt lat="45.9191" lon="4.58838">
        <ele>331</ele>
        <time>2018-07-07T10:15:16Z</time>
      </trkpt>
      <trkpt lat="45.91908" lon="4.58843">
        <ele>331</ele>
        <time>2018-07-07T10:15:17Z</time>
      </trkpt>
      <trkpt lat="45.91903" lon="4.58853">
        <ele>331</ele>
        <time>2018-07-07T10:15:19Z</time>
      </trkpt>
      <trkpt lat="45.91901" lon="4.58859">
        <ele>330</ele>
        <time>2018-07-07T10:15:20Z</time>
      </trkpt>
      <trkpt lat="45.91899" lon="4.58867">
        <ele>330</ele>
        <time>2018-07-07T10:15:21Z</time>
      </trkpt>
      <trkpt lat="45.91895" lon="4.58873">
        <ele>330</ele>
        <time>2018-07-07T10:15:22Z</time>
      </trkpt>
      <trkpt lat="45.91892" lon="4.58881">
        <ele>330</ele>
        <time>2018-07-07T10:15:23Z</time>
      </trkpt>
      <trkpt lat="45.91889" lon="4.58888">
        <ele>329</ele>
        <time>2018-07-07T10:15:24Z</time>
      </trkpt>
      <trkpt lat="45.91887" lon="4.58899">
        <ele>329</ele>
        <time>2018-07-07T10:15:25Z</time>
      </trkpt>
      <trkpt lat="45.91883" lon="4.58904">
        <ele>329</ele>
        <time>2018-07-07T10:15:26Z</time>
      </trkpt>
      <trkpt lat="45.91877" lon="4.5891">
        <ele>329</ele>
        <time>2018-07-07T10:15:27Z</time>
      </trkpt>
      <trkpt lat="45.91873" lon="4.5892">
        <ele>325</ele>
        <time>2018-07-07T10:15:28Z</time>
      </trkpt>
      <trkpt lat="45.91869" lon="4.5893">
        <ele>325</ele>
        <time>2018-07-07T10:15:29Z</time>
      </trkpt>
      <trkpt lat="45.91865" lon="4.58941">
        <ele>325</ele>
        <time>2018-07-07T10:15:30Z</time>
      </trkpt>
      <trkpt lat="45.91861" lon="4.58951">
        <ele>325</ele>
        <time>2018-07-07T10:15:31Z</time>
      </trkpt>
      <trkpt lat="45.91855" lon="4.58962">
        <ele>324</ele>
        <time>2018-07-07T10:15:32Z</time>
      </trkpt>
      <trkpt lat="45.91849" lon="4.5897">
        <ele>324</ele>
        <time>2018-07-07T10:15:33Z</time>
      </trkpt>
      <trkpt lat="45.91844" lon="4.5898">
        <ele>323</ele>
        <time>2018-07-07T10:15:34Z</time>
      </trkpt>
      <trkpt lat="45.91838" lon="4.5899">
        <ele>323</ele>
        <time>2018-07-07T10:15:35Z</time>
      </trkpt>
      <trkpt lat="45.91831" lon="4.58999">
        <ele>322</ele>
        <time>2018-07-07T10:15:36Z</time>
      </trkpt>
      <trkpt lat="45.91824" lon="4.59008">
        <ele>320</ele>
        <time>2018-07-07T10:15:37Z</time>
      </trkpt>
      <trkpt lat="45.91815" lon="4.59015">
        <ele>319</ele>
        <time>2018-07-07T10:15:38Z</time>
      </trkpt>
      <trkpt lat="45.91807" lon="4.59022">
        <ele>319</ele>
        <time>2018-07-07T10:15:39Z</time>
      </trkpt>
      <trkpt lat="45.91798" lon="4.5903">
        <ele>318</ele>
        <time>2018-07-07T10:15:40Z</time>
      </trkpt>
      <trkpt lat="45.91789" lon="4.59038">
        <ele>318</ele>
        <time>2018-07-07T10:15:41Z</time>
      </trkpt>
      <trkpt lat="45.9178" lon="4.59048">
        <ele>318</ele>
        <time>2018-07-07T10:15:42Z</time>
      </trkpt>
      <trkpt lat="45.91773" lon="4.59058">
        <ele>317</ele>
        <time>2018-07-07T10:15:43Z</time>
      </trkpt>
      <trkpt lat="45.91766" lon="4.59068">
        <ele>317</ele>
        <time>2018-07-07T10:15:44Z</time>
      </trkpt>
      <trkpt lat="45.91758" lon="4.59079">
        <ele>316</ele>
        <time>2018-07-07T10:15:45Z</time>
      </trkpt>
      <trkpt lat="45.91754" lon="4.59091">
        <ele>314</ele>
        <time>2018-07-07T10:15:46Z</time>
      </trkpt>
      <trkpt lat="45.91746" lon="4.59103">
        <ele>314</ele>
        <time>2018-07-07T10:15:47Z</time>
      </trkpt>
      <trkpt lat="45.91739" lon="4.59112">
        <ele>313</ele>
        <time>2018-07-07T10:15:48Z</time>
      </trkpt>
      <trkpt lat="45.91733" lon="4.59124">
        <ele>312</ele>
        <time>2018-07-07T10:15:49Z</time>
      </trkpt>
      <trkpt lat="45.91724" lon="4.59133">
        <ele>312</ele>
        <time>2018-07-07T10:15:50Z</time>
      </trkpt>
      <trkpt lat="45.91717" lon="4.59144">
        <ele>312</ele>
        <time>2018-07-07T10:15:51Z</time>
      </trkpt>
      <trkpt lat="45.9171" lon="4.59154">
        <ele>312</ele>
        <time>2018-07-07T10:15:52Z</time>
      </trkpt>
      <trkpt lat="45.91703" lon="4.59165">
        <ele>312</ele>
        <time>2018-07-07T10:15:53Z</time>
      </trkpt>
      <trkpt lat="45.91696" lon="4.59174">
        <ele>308</ele>
        <time>2018-07-07T10:15:54Z</time>
      </trkpt>
      <trkpt lat="45.9169" lon="4.59183">
        <ele>308</ele>
        <time>2018-07-07T10:15:55Z</time>
      </trkpt>
      <trkpt lat="45.91683" lon="4.59193">
        <ele>308</ele>
        <time>2018-07-07T10:15:56Z</time>
      </trkpt>
      <trkpt lat="45.91675" lon="4.59202">
        <ele>307</ele>
        <time>2018-07-07T10:15:57Z</time>
      </trkpt>
      <trkpt lat="45.91668" lon="4.59212">
        <ele>307</ele>
        <time>2018-07-07T10:15:58Z</time>
      </trkpt>
      <trkpt lat="45.91661" lon="4.59223">
        <ele>308</ele>
        <time>2018-07-07T10:15:59Z</time>
      </trkpt>
      <trkpt lat="45.91654" lon="4.59233">
        <ele>307</ele>
        <time>2018-07-07T10:16:00Z</time>
      </trkpt>
      <trkpt lat="45.91646" lon="4.59244">
        <ele>307</ele>
        <time>2018-07-07T10:16:01Z</time>
      </trkpt>
      <trkpt lat="45.91639" lon="4.59253">
        <ele>303</ele>
        <time>2018-07-07T10:16:02Z</time>
      </trkpt>
      <trkpt lat="45.91634" lon="4.59263">
        <ele>303</ele>
        <time>2018-07-07T10:16:03Z</time>
      </trkpt>
      <trkpt lat="45.91627" lon="4.59273">
        <ele>303</ele>
        <time>2018-07-07T10:16:04Z</time>
      </trkpt>
      <trkpt lat="45.91619" lon="4.59283">
        <ele>302</ele>
        <time>2018-07-07T10:16:05Z</time>
      </trkpt>
      <trkpt lat="45.91614" lon="4.59297">
        <ele>302</ele>
        <time>2018-07-07T10:16:06Z</time>
      </trkpt>
      <trkpt lat="45.91608" lon="4.59304">
        <ele>301</ele>
        <time>2018-07-07T10:16:07Z</time>
      </trkpt>
      <trkpt lat="45.91599" lon="4.59311">
        <ele>300</ele>
        <time>2018-07-07T10:16:08Z</time>
      </trkpt>
      <trkpt lat="45.91592" lon="4.59319">
        <ele>300</ele>
        <time>2018-07-07T10:16:09Z</time>
      </trkpt>
      <trkpt lat="45.91585" lon="4.59329">
        <ele>298</ele>
        <time>2018-07-07T10:16:10Z</time>
      </trkpt>
      <trkpt lat="45.9158" lon="4.59341">
        <ele>295</ele>
        <time>2018-07-07T10:16:11Z</time>
      </trkpt>
      <trkpt lat="45.91575" lon="4.59353">
        <ele>294</ele>
        <time>2018-07-07T10:16:12Z</time>
      </trkpt>
      <trkpt lat="45.91569" lon="4.59364">
        <ele>293</ele>
        <time>2018-07-07T10:16:13Z</time>
      </trkpt>
      <trkpt lat="45.91566" lon="4.59379">
        <ele>292</ele>
        <time>2018-07-07T10:16:14Z</time>
      </trkpt>
      <trkpt lat="45.91563" lon="4.59391">
        <ele>292</ele>
        <time>2018-07-07T10:16:15Z</time>
      </trkpt>
      <trkpt lat="45.91561" lon="4.59405">
        <ele>292</ele>
        <time>2018-07-07T10:16:16Z</time>
      </trkpt>
      <trkpt lat="45.9156" lon="4.59419">
        <ele>292</ele>
        <time>2018-07-07T10:16:17Z</time>
      </trkpt>
      <trkpt lat="45.91558" lon="4.59433">
        <ele>293</ele>
        <time>2018-07-07T10:16:18Z</time>
      </trkpt>
      <trkpt lat="45.91556" lon="4.59444">
        <ele>293</ele>
        <time>2018-07-07T10:16:19Z</time>
      </trkpt>
      <trkpt lat="45.91555" lon="4.59456">
        <ele>294</ele>
        <time>2018-07-07T10:16:20Z</time>
      </trkpt>
      <trkpt lat="45.91552" lon="4.59468">
        <ele>294</ele>
        <time>2018-07-07T10:16:21Z</time>
      </trkpt>
      <trkpt lat="45.9155" lon="4.59479">
        <ele>294</ele>
        <time>2018-07-07T10:16:22Z</time>
      </trkpt>
      <trkpt lat="45.91548" lon="4.59492">
        <ele>295</ele>
        <time>2018-07-07T10:16:23Z</time>
      </trkpt>
      <trkpt lat="45.91547" lon="4.59502">
        <ele>299</ele>
        <time>2018-07-07T10:16:24Z</time>
      </trkpt>
      <trkpt lat="45.91544" lon="4.59512">
        <ele>299</ele>
        <time>2018-07-07T10:16:25Z</time>
      </trkpt>
      <trkpt lat="45.91542" lon="4.5952">
        <ele>300</ele>
        <time>2018-07-07T10:16:26Z</time>
      </trkpt>
      <trkpt lat="45.91539" lon="4.59526">
        <ele>300</ele>
        <time>2018-07-07T10:16:27Z</time>
      </trkpt>
      <trkpt lat="45.91535" lon="4.59534">
        <ele>300</ele>
        <time>2018-07-07T10:16:28Z</time>
      </trkpt>
      <trkpt lat="45.91533" lon="4.59539">
        <ele>300</ele>
        <time>2018-07-07T10:16:29Z</time>
      </trkpt>
      <trkpt lat="45.91529" lon="4.59542">
        <ele>300</ele>
        <time>2018-07-07T10:16:30Z</time>
      </trkpt>
      <trkpt lat="45.91526" lon="4.59547">
        <ele>300</ele>
        <time>2018-07-07T10:16:31Z</time>
      </trkpt>
      <trkpt lat="45.91521" lon="4.59552">
        <ele>301</ele>
        <time>2018-07-07T10:16:33Z</time>
      </trkpt>
      <trkpt lat="45.91517" lon="4.59554">
        <ele>301</ele>
        <time>2018-07-07T10:16:34Z</time>
      </trkpt>
      <trkpt lat="45.91513" lon="4.59557">
        <ele>301</ele>
        <time>2018-07-07T10:16:36Z</time>
      </trkpt>
      <trkpt lat="45.91506" lon="4.59559">
        <ele>301</ele>
        <time>2018-07-07T10:16:37Z</time>
      </trkpt>
      <trkpt lat="45.91497" lon="4.59559">
        <ele>301</ele>
        <time>2018-07-07T10:16:39Z</time>
      </trkpt>
      <trkpt lat="45.91496" lon="4.5956">
        <ele>301</ele>
        <time>2018-07-07T10:16:40Z</time>
      </trkpt>
      <trkpt lat="45.91489" lon="4.59558">
        <ele>301</ele>
        <time>2018-07-07T10:16:41Z</time>
      </trkpt>
      <trkpt lat="45.91485" lon="4.5956">
        <ele>302</ele>
        <time>2018-07-07T10:16:42Z</time>
      </trkpt>
      <trkpt lat="45.91477" lon="4.59564">
        <ele>302</ele>
        <time>2018-07-07T10:16:46Z</time>
      </trkpt>
      <trkpt lat="45.91474" lon="4.59566">
        <ele>302</ele>
        <time>2018-07-07T10:16:47Z</time>
      </trkpt>
      <trkpt lat="45.91467" lon="4.5957">
        <ele>302</ele>
        <time>2018-07-07T10:16:50Z</time>
      </trkpt>
      <trkpt lat="45.91464" lon="4.59572">
        <ele>302</ele>
        <time>2018-07-07T10:16:51Z</time>
      </trkpt>
      <trkpt lat="45.91456" lon="4.59577">
        <ele>302</ele>
        <time>2018-07-07T10:16:54Z</time>
      </trkpt>
      <trkpt lat="45.91454" lon="4.59578">
        <ele>303</ele>
        <time>2018-07-07T10:16:55Z</time>
      </trkpt>
      <trkpt lat="45.91448" lon="4.5958">
        <ele>303</ele>
        <time>2018-07-07T10:16:57Z</time>
      </trkpt>
      <trkpt lat="45.91445" lon="4.59581">
        <ele>303</ele>
        <time>2018-07-07T10:16:58Z</time>
      </trkpt>
      <trkpt lat="45.91436" lon="4.59583">
        <ele>304</ele>
        <time>2018-07-07T10:17:01Z</time>
      </trkpt>
      <trkpt lat="45.91434" lon="4.59583">
        <ele>304</ele>
        <time>2018-07-07T10:17:02Z</time>
      </trkpt>
      <trkpt lat="45.91426" lon="4.59585">
        <ele>307</ele>
        <time>2018-07-07T10:17:05Z</time>
      </trkpt>
      <trkpt lat="45.91423" lon="4.59586">
        <ele>307</ele>
        <time>2018-07-07T10:17:06Z</time>
      </trkpt>
      <trkpt lat="45.91416" lon="4.59585">
        <ele>306</ele>
        <time>2018-07-07T10:17:09Z</time>
      </trkpt>
      <trkpt lat="45.91413" lon="4.59584">
        <ele>307</ele>
        <time>2018-07-07T10:17:10Z</time>
      </trkpt>
      <trkpt lat="45.91407" lon="4.59578">
        <ele>306</ele>
        <time>2018-07-07T10:17:13Z</time>
      </trkpt>
      <trkpt lat="45.91406" lon="4.59575">
        <ele>306</ele>
        <time>2018-07-07T10:17:14Z</time>
      </trkpt>
      <trkpt lat="45.91402" lon="4.59566">
        <ele>306</ele>
        <time>2018-07-07T10:17:17Z</time>
      </trkpt>
      <trkpt lat="45.91402" lon="4.59563">
        <ele>306</ele>
        <time>2018-07-07T10:17:18Z</time>
      </trkpt>
      <trkpt lat="45.914" lon="4.5955">
        <ele>306</ele>
        <time>2018-07-07T10:17:22Z</time>
      </trkpt>
      <trkpt lat="45.914" lon="4.59547">
        <ele>306</ele>
        <time>2018-07-07T10:17:23Z</time>
      </trkpt>
      <trkpt lat="45.91397" lon="4.59535">
        <ele>306</ele>
        <time>2018-07-07T10:17:27Z</time>
      </trkpt>
      <trkpt lat="45.91396" lon="4.59533">
        <ele>306</ele>
        <time>2018-07-07T10:17:28Z</time>
      </trkpt>
      <trkpt lat="45.91391" lon="4.59523">
        <ele>306</ele>
        <time>2018-07-07T10:17:32Z</time>
      </trkpt>
      <trkpt lat="45.9139" lon="4.5952">
        <ele>306</ele>
        <time>2018-07-07T10:17:33Z</time>
      </trkpt>
      <trkpt lat="45.91384" lon="4.59511">
        <ele>306</ele>
        <time>2018-07-07T10:17:37Z</time>
      </trkpt>
      <trkpt lat="45.91383" lon="4.59509">
        <ele>306</ele>
        <time>2018-07-07T10:17:38Z</time>
      </trkpt>
      <trkpt lat="45.91378" lon="4.59499">
        <ele>305</ele>
        <time>2018-07-07T10:17:53Z</time>
      </trkpt>
      <trkpt lat="45.91378" lon="4.59499">
        <ele>305</ele>
        <time>2018-07-07T10:17:54Z</time>
      </trkpt>
      <trkpt lat="45.9137" lon="4.59495">
        <ele>306</ele>
        <time>2018-07-07T10:18:01Z</time>
      </trkpt>
      <trkpt lat="45.91368" lon="4.59496">
        <ele>306</ele>
        <time>2018-07-07T10:18:02Z</time>
      </trkpt>
      <trkpt lat="45.91361" lon="4.59503">
        <ele>307</ele>
        <time>2018-07-07T10:18:09Z</time>
      </trkpt>
      <trkpt lat="45.9136" lon="4.59504">
        <ele>307</ele>
        <time>2018-07-07T10:18:10Z</time>
      </trkpt>
      <trkpt lat="45.91356" lon="4.59514">
        <ele>307</ele>
        <time>2018-07-07T10:18:15Z</time>
      </trkpt>
      <trkpt lat="45.91355" lon="4.59516">
        <ele>307</ele>
        <time>2018-07-07T10:18:16Z</time>
      </trkpt>
      <trkpt lat="45.9135" lon="4.59526">
        <ele>307</ele>
        <time>2018-07-07T10:18:20Z</time>
      </trkpt>
      <trkpt lat="45.91349" lon="4.59529">
        <ele>307</ele>
        <time>2018-07-07T10:18:21Z</time>
      </trkpt>
      <trkpt lat="45.91344" lon="4.59537">
        <ele>308</ele>
        <time>2018-07-07T10:18:24Z</time>
      </trkpt>
      <trkpt lat="45.91343" lon="4.5954">
        <ele>308</ele>
        <time>2018-07-07T10:18:25Z</time>
      </trkpt>
      <trkpt lat="45.91336" lon="4.59548">
        <ele>308</ele>
        <time>2018-07-07T10:18:29Z</time>
      </trkpt>
      <trkpt lat="45.91334" lon="4.59549">
        <ele>308</ele>
        <time>2018-07-07T10:18:30Z</time>
      </trkpt>
      <trkpt lat="45.91327" lon="4.59557">
        <ele>311</ele>
        <time>2018-07-07T10:18:34Z</time>
      </trkpt>
      <trkpt lat="45.91325" lon="4.59559">
        <ele>311</ele>
        <time>2018-07-07T10:18:35Z</time>
      </trkpt>
      <trkpt lat="45.91319" lon="4.59565">
        <ele>311</ele>
        <time>2018-07-07T10:18:38Z</time>
      </trkpt>
      <trkpt lat="45.91318" lon="4.59568">
        <ele>311</ele>
        <time>2018-07-07T10:18:39Z</time>
      </trkpt>
      <trkpt lat="45.91313" lon="4.59576">
        <ele>311</ele>
        <time>2018-07-07T10:18:42Z</time>
      </trkpt>
      <trkpt lat="45.91311" lon="4.59579">
        <ele>311</ele>
        <time>2018-07-07T10:18:43Z</time>
      </trkpt>
      <trkpt lat="45.91306" lon="4.59587">
        <ele>312</ele>
        <time>2018-07-07T10:18:47Z</time>
      </trkpt>
      <trkpt lat="45.91304" lon="4.5959">
        <ele>313</ele>
        <time>2018-07-07T10:18:48Z</time>
      </trkpt>
      <trkpt lat="45.91298" lon="4.596">
        <ele>313</ele>
        <time>2018-07-07T10:18:52Z</time>
      </trkpt>
      <trkpt lat="45.91296" lon="4.59603">
        <ele>313</ele>
        <time>2018-07-07T10:18:53Z</time>
      </trkpt>
      <trkpt lat="45.91292" lon="4.59612">
        <ele>313</ele>
        <time>2018-07-07T10:18:56Z</time>
      </trkpt>
      <trkpt lat="45.91285" lon="4.59621">
        <ele>314</ele>
        <time>2018-07-07T10:18:57Z</time>
      </trkpt>
      <trkpt lat="45.91278" lon="4.59625">
        <ele>314</ele>
        <time>2018-07-07T10:18:59Z</time>
      </trkpt>
      <trkpt lat="45.91276" lon="4.59625">
        <ele>314</ele>
        <time>2018-07-07T10:19:00Z</time>
      </trkpt>
      <trkpt lat="45.9127" lon="4.59628">
        <ele>314</ele>
        <time>2018-07-07T10:19:03Z</time>
      </trkpt>
      <trkpt lat="45.91262" lon="4.59631">
        <ele>314</ele>
        <time>2018-07-07T10:19:04Z</time>
      </trkpt>
      <trkpt lat="45.91254" lon="4.59633">
        <ele>314</ele>
        <time>2018-07-07T10:19:07Z</time>
      </trkpt>
      <trkpt lat="45.91251" lon="4.59633">
        <ele>314</ele>
        <time>2018-07-07T10:19:08Z</time>
      </trkpt>
      <trkpt lat="45.91243" lon="4.59634">
        <ele>315</ele>
        <time>2018-07-07T10:19:11Z</time>
      </trkpt>
      <trkpt lat="45.9124" lon="4.59635">
        <ele>315</ele>
        <time>2018-07-07T10:19:12Z</time>
      </trkpt>
      <trkpt lat="45.91233" lon="4.59636">
        <ele>315</ele>
        <time>2018-07-07T10:19:14Z</time>
      </trkpt>
      <trkpt lat="45.9123" lon="4.59637">
        <ele>315</ele>
        <time>2018-07-07T10:19:15Z</time>
      </trkpt>
      <trkpt lat="45.91223" lon="4.59638">
        <ele>315</ele>
        <time>2018-07-07T10:19:17Z</time>
      </trkpt>
      <trkpt lat="45.91219" lon="4.59639">
        <ele>316</ele>
        <time>2018-07-07T10:19:18Z</time>
      </trkpt>
      <trkpt lat="45.91212" lon="4.59641">
        <ele>316</ele>
        <time>2018-07-07T10:19:20Z</time>
      </trkpt>
      <trkpt lat="45.91209" lon="4.59642">
        <ele>316</ele>
        <time>2018-07-07T10:19:21Z</time>
      </trkpt>
      <trkpt lat="45.91202" lon="4.59644">
        <ele>316</ele>
        <time>2018-07-07T10:19:23Z</time>
      </trkpt>
      <trkpt lat="45.91199" lon="4.59645">
        <ele>316</ele>
        <time>2018-07-07T10:19:24Z</time>
      </trkpt>
      <trkpt lat="45.91191" lon="4.59647">
        <ele>316</ele>
        <time>2018-07-07T10:19:26Z</time>
      </trkpt>
      <trkpt lat="45.91187" lon="4.59648">
        <ele>316</ele>
        <time>2018-07-07T10:19:27Z</time>
      </trkpt>
      <trkpt lat="45.9118" lon="4.5965">
        <ele>316</ele>
        <time>2018-07-07T10:19:29Z</time>
      </trkpt>
      <trkpt lat="45.91177" lon="4.5965">
        <ele>316</ele>
        <time>2018-07-07T10:19:30Z</time>
      </trkpt>
      <trkpt lat="45.9117" lon="4.59653">
        <ele>315</ele>
        <time>2018-07-07T10:19:32Z</time>
      </trkpt>
      <trkpt lat="45.9116" lon="4.59656">
        <ele>317</ele>
        <time>2018-07-07T10:19:33Z</time>
      </trkpt>
      <trkpt lat="45.91152" lon="4.59659">
        <ele>317</ele>
        <time>2018-07-07T10:19:36Z</time>
      </trkpt>
      <trkpt lat="45.91149" lon="4.5966">
        <ele>317</ele>
        <time>2018-07-07T10:19:37Z</time>
      </trkpt>
      <trkpt lat="45.91144" lon="4.59662">
        <ele>317</ele>
        <time>2018-07-07T10:19:39Z</time>
      </trkpt>
      <trkpt lat="45.91135" lon="4.59664">
        <ele>318</ele>
        <time>2018-07-07T10:19:40Z</time>
      </trkpt>
      <trkpt lat="45.91128" lon="4.59666">
        <ele>318</ele>
        <time>2018-07-07T10:19:42Z</time>
      </trkpt>
      <trkpt lat="45.91124" lon="4.59668">
        <ele>317</ele>
        <time>2018-07-07T10:19:43Z</time>
      </trkpt>
      <trkpt lat="45.91116" lon="4.5967">
        <ele>317</ele>
        <time>2018-07-07T10:19:45Z</time>
      </trkpt>
      <trkpt lat="45.91112" lon="4.59671">
        <ele>317</ele>
        <time>2018-07-07T10:19:46Z</time>
      </trkpt>
      <trkpt lat="45.91103" lon="4.59673">
        <ele>318</ele>
        <time>2018-07-07T10:19:48Z</time>
      </trkpt>
      <trkpt lat="45.91099" lon="4.59675">
        <ele>318</ele>
        <time>2018-07-07T10:19:49Z</time>
      </trkpt>
      <trkpt lat="45.91094" lon="4.59677">
        <ele>318</ele>
        <time>2018-07-07T10:19:50Z</time>
      </trkpt>
      <trkpt lat="45.91089" lon="4.59677">
        <ele>318</ele>
        <time>2018-07-07T10:19:51Z</time>
      </trkpt>
      <trkpt lat="45.91083" lon="4.59677">
        <ele>318</ele>
        <time>2018-07-07T10:19:52Z</time>
      </trkpt>
      <trkpt lat="45.91078" lon="4.59676">
        <ele>319</ele>
        <time>2018-07-07T10:19:53Z</time>
      </trkpt>
      <trkpt lat="45.9107" lon="4.59677">
        <ele>319</ele>
        <time>2018-07-07T10:19:55Z</time>
      </trkpt>
      <trkpt lat="45.91068" lon="4.59678">
        <ele>320</ele>
        <time>2018-07-07T10:19:56Z</time>
      </trkpt>
      <trkpt lat="45.9106" lon="4.59683">
        <ele>320</ele>
        <time>2018-07-07T10:19:58Z</time>
      </trkpt>
      <trkpt lat="45.91056" lon="4.59686">
        <ele>320</ele>
        <time>2018-07-07T10:19:59Z</time>
      </trkpt>
      <trkpt lat="45.91049" lon="4.59691">
        <ele>320</ele>
        <time>2018-07-07T10:20:01Z</time>
      </trkpt>
      <trkpt lat="45.91046" lon="4.59693">
        <ele>320</ele>
        <time>2018-07-07T10:20:02Z</time>
      </trkpt>
      <trkpt lat="45.91039" lon="4.59698">
        <ele>320</ele>
        <time>2018-07-07T10:20:04Z</time>
      </trkpt>
      <trkpt lat="45.91036" lon="4.59701">
        <ele>320</ele>
        <time>2018-07-07T10:20:05Z</time>
      </trkpt>
      <trkpt lat="45.91029" lon="4.59707">
        <ele>320</ele>
        <time>2018-07-07T10:20:07Z</time>
      </trkpt>
      <trkpt lat="45.91025" lon="4.5971">
        <ele>320</ele>
        <time>2018-07-07T10:20:08Z</time>
      </trkpt>
      <trkpt lat="45.91017" lon="4.59715">
        <ele>321</ele>
        <time>2018-07-07T10:20:10Z</time>
      </trkpt>
      <trkpt lat="45.91012" lon="4.59718">
        <ele>321</ele>
        <time>2018-07-07T10:20:11Z</time>
      </trkpt>
      <trkpt lat="45.91005" lon="4.59723">
        <ele>321</ele>
        <time>2018-07-07T10:20:13Z</time>
      </trkpt>
      <trkpt lat="45.91001" lon="4.59726">
        <ele>321</ele>
        <time>2018-07-07T10:20:14Z</time>
      </trkpt>
      <trkpt lat="45.90994" lon="4.5973">
        <ele>323</ele>
        <time>2018-07-07T10:20:16Z</time>
      </trkpt>
      <trkpt lat="45.9099" lon="4.59732">
        <ele>323</ele>
        <time>2018-07-07T10:20:17Z</time>
      </trkpt>
      <trkpt lat="45.90986" lon="4.59733">
        <ele>323</ele>
        <time>2018-07-07T10:20:18Z</time>
      </trkpt>
      <trkpt lat="45.90981" lon="4.59737">
        <ele>323</ele>
        <time>2018-07-07T10:20:19Z</time>
      </trkpt>
      <trkpt lat="45.90977" lon="4.59738">
        <ele>323</ele>
        <time>2018-07-07T10:20:20Z</time>
      </trkpt>
      <trkpt lat="45.90972" lon="4.5974">
        <ele>323</ele>
        <time>2018-07-07T10:20:21Z</time>
      </trkpt>
      <trkpt lat="45.90967" lon="4.59742">
        <ele>323</ele>
        <time>2018-07-07T10:20:22Z</time>
      </trkpt>
      <trkpt lat="45.90962" lon="4.59745">
        <ele>323</ele>
        <time>2018-07-07T10:20:23Z</time>
      </trkpt>
      <trkpt lat="45.90954" lon="4.59749">
        <ele>323</ele>
        <time>2018-07-07T10:20:25Z</time>
      </trkpt>
      <trkpt lat="45.90949" lon="4.59751">
        <ele>323</ele>
        <time>2018-07-07T10:20:26Z</time>
      </trkpt>
      <trkpt lat="45.90941" lon="4.59754">
        <ele>323</ele>
        <time>2018-07-07T10:20:28Z</time>
      </trkpt>
      <trkpt lat="45.90935" lon="4.59755">
        <ele>323</ele>
        <time>2018-07-07T10:20:29Z</time>
      </trkpt>
      <trkpt lat="45.90927" lon="4.59758">
        <ele>323</ele>
        <time>2018-07-07T10:20:31Z</time>
      </trkpt>
      <trkpt lat="45.90923" lon="4.59759">
        <ele>323</ele>
        <time>2018-07-07T10:20:32Z</time>
      </trkpt>
      <trkpt lat="45.90915" lon="4.59761">
        <ele>324</ele>
        <time>2018-07-07T10:20:34Z</time>
      </trkpt>
      <trkpt lat="45.90911" lon="4.59762">
        <ele>324</ele>
        <time>2018-07-07T10:20:35Z</time>
      </trkpt>
      <trkpt lat="45.90902" lon="4.59764">
        <ele>324</ele>
        <time>2018-07-07T10:20:37Z</time>
      </trkpt>
      <trkpt lat="45.90898" lon="4.59766">
        <ele>324</ele>
        <time>2018-07-07T10:20:38Z</time>
      </trkpt>
      <trkpt lat="45.90893" lon="4.59767">
        <ele>324</ele>
        <time>2018-07-07T10:20:39Z</time>
      </trkpt>
      <trkpt lat="45.90889" lon="4.59766">
        <ele>324</ele>
        <time>2018-07-07T10:20:40Z</time>
      </trkpt>
      <trkpt lat="45.90884" lon="4.59763">
        <ele>324</ele>
        <time>2018-07-07T10:20:41Z</time>
      </trkpt>
      <trkpt lat="45.9088" lon="4.59764">
        <ele>324</ele>
        <time>2018-07-07T10:20:42Z</time>
      </trkpt>
      <trkpt lat="45.90875" lon="4.59766">
        <ele>324</ele>
        <time>2018-07-07T10:20:43Z</time>
      </trkpt>
      <trkpt lat="45.90871" lon="4.59767">
        <ele>324</ele>
        <time>2018-07-07T10:20:44Z</time>
      </trkpt>
      <trkpt lat="45.90866" lon="4.59769">
        <ele>324</ele>
        <time>2018-07-07T10:20:45Z</time>
      </trkpt>
      <trkpt lat="45.90861" lon="4.5977">
        <ele>324</ele>
        <time>2018-07-07T10:20:46Z</time>
      </trkpt>
      <trkpt lat="45.90853" lon="4.59772">
        <ele>324</ele>
        <time>2018-07-07T10:20:48Z</time>
      </trkpt>
      <trkpt lat="45.90848" lon="4.59773">
        <ele>324</ele>
        <time>2018-07-07T10:20:49Z</time>
      </trkpt>
      <trkpt lat="45.90843" lon="4.59776">
        <ele>324</ele>
        <time>2018-07-07T10:20:50Z</time>
      </trkpt>
      <trkpt lat="45.90838" lon="4.5978">
        <ele>324</ele>
        <time>2018-07-07T10:20:51Z</time>
      </trkpt>
      <trkpt lat="45.9083" lon="4.59784">
        <ele>325</ele>
        <time>2018-07-07T10:20:53Z</time>
      </trkpt>
      <trkpt lat="45.90827" lon="4.59784">
        <ele>325</ele>
        <time>2018-07-07T10:20:54Z</time>
      </trkpt>
      <trkpt lat="45.90823" lon="4.59786">
        <ele>325</ele>
        <time>2018-07-07T10:20:55Z</time>
      </trkpt>
      <trkpt lat="45.90819" lon="4.5979">
        <ele>325</ele>
        <time>2018-07-07T10:20:56Z</time>
      </trkpt>
      <trkpt lat="45.90815" lon="4.59792">
        <ele>325</ele>
        <time>2018-07-07T10:20:57Z</time>
      </trkpt>
      <trkpt lat="45.9081" lon="4.59796">
        <ele>325</ele>
        <time>2018-07-07T10:20:58Z</time>
      </trkpt>
      <trkpt lat="45.90805" lon="4.59803">
        <ele>325</ele>
        <time>2018-07-07T10:20:59Z</time>
      </trkpt>
      <trkpt lat="45.90801" lon="4.59807">
        <ele>325</ele>
        <time>2018-07-07T10:21:00Z</time>
      </trkpt>
      <trkpt lat="45.90796" lon="4.5981">
        <ele>325</ele>
        <time>2018-07-07T10:21:01Z</time>
      </trkpt>
      <trkpt lat="45.90792" lon="4.59815">
        <ele>325</ele>
        <time>2018-07-07T10:21:02Z</time>
      </trkpt>
      <trkpt lat="45.90787" lon="4.5982">
        <ele>325</ele>
        <time>2018-07-07T10:21:03Z</time>
      </trkpt>
      <trkpt lat="45.90783" lon="4.59824">
        <ele>325</ele>
        <time>2018-07-07T10:21:04Z</time>
      </trkpt>
      <trkpt lat="45.90779" lon="4.59829">
        <ele>325</ele>
        <time>2018-07-07T10:21:05Z</time>
      </trkpt>
      <trkpt lat="45.90774" lon="4.59834">
        <ele>323</ele>
        <time>2018-07-07T10:21:06Z</time>
      </trkpt>
      <trkpt lat="45.9077" lon="4.59839">
        <ele>323</ele>
        <time>2018-07-07T10:21:07Z</time>
      </trkpt>
      <trkpt lat="45.90766" lon="4.59842">
        <ele>323</ele>
        <time>2018-07-07T10:21:08Z</time>
      </trkpt>
      <trkpt lat="45.90762" lon="4.59847">
        <ele>323</ele>
        <time>2018-07-07T10:21:09Z</time>
      </trkpt>
      <trkpt lat="45.90758" lon="4.59851">
        <ele>323</ele>
        <time>2018-07-07T10:21:10Z</time>
      </trkpt>
      <trkpt lat="45.90752" lon="4.59852">
        <ele>323</ele>
        <time>2018-07-07T10:21:11Z</time>
      </trkpt>
      <trkpt lat="45.90748" lon="4.59859">
        <ele>322</ele>
        <time>2018-07-07T10:21:12Z</time>
      </trkpt>
      <trkpt lat="45.90743" lon="4.59865">
        <ele>321</ele>
        <time>2018-07-07T10:21:13Z</time>
      </trkpt>
      <trkpt lat="45.90739" lon="4.5987">
        <ele>321</ele>
        <time>2018-07-07T10:21:14Z</time>
      </trkpt>
      <trkpt lat="45.90734" lon="4.59875">
        <ele>321</ele>
        <time>2018-07-07T10:21:15Z</time>
      </trkpt>
      <trkpt lat="45.90732" lon="4.59882">
        <ele>321</ele>
        <time>2018-07-07T10:21:16Z</time>
      </trkpt>
      <trkpt lat="45.90727" lon="4.5989">
        <ele>321</ele>
        <time>2018-07-07T10:21:17Z</time>
      </trkpt>
      <trkpt lat="45.90723" lon="4.59896">
        <ele>321</ele>
        <time>2018-07-07T10:21:18Z</time>
      </trkpt>
      <trkpt lat="45.90721" lon="4.59904">
        <ele>320</ele>
        <time>2018-07-07T10:21:19Z</time>
      </trkpt>
      <trkpt lat="45.90718" lon="4.59911">
        <ele>320</ele>
        <time>2018-07-07T10:21:20Z</time>
      </trkpt>
      <trkpt lat="45.90715" lon="4.59918">
        <ele>319</ele>
        <time>2018-07-07T10:21:21Z</time>
      </trkpt>
      <trkpt lat="45.90712" lon="4.59926">
        <ele>319</ele>
        <time>2018-07-07T10:21:22Z</time>
      </trkpt>
      <trkpt lat="45.90709" lon="4.59931">
        <ele>319</ele>
        <time>2018-07-07T10:21:23Z</time>
      </trkpt>
      <trkpt lat="45.90704" lon="4.59934">
        <ele>319</ele>
        <time>2018-07-07T10:21:24Z</time>
      </trkpt>
      <trkpt lat="45.90698" lon="4.59938">
        <ele>319</ele>
        <time>2018-07-07T10:21:25Z</time>
      </trkpt>
      <trkpt lat="45.90692" lon="4.5994">
        <ele>318</ele>
        <time>2018-07-07T10:21:26Z</time>
      </trkpt>
      <trkpt lat="45.90685" lon="4.5994">
        <ele>318</ele>
        <time>2018-07-07T10:21:27Z</time>
      </trkpt>
      <trkpt lat="45.90679" lon="4.59941">
        <ele>318</ele>
        <time>2018-07-07T10:21:28Z</time>
      </trkpt>
      <trkpt lat="45.90673" lon="4.59942">
        <ele>318</ele>
        <time>2018-07-07T10:21:29Z</time>
      </trkpt>
      <trkpt lat="45.90666" lon="4.59944">
        <ele>317</ele>
        <time>2018-07-07T10:21:30Z</time>
      </trkpt>
      <trkpt lat="45.90659" lon="4.59947">
        <ele>316</ele>
        <time>2018-07-07T10:21:31Z</time>
      </trkpt>
      <trkpt lat="45.9065" lon="4.59951">
        <ele>316</ele>
        <time>2018-07-07T10:21:32Z</time>
      </trkpt>
      <trkpt lat="45.90643" lon="4.59953">
        <ele>316</ele>
        <time>2018-07-07T10:21:33Z</time>
      </trkpt>
      <trkpt lat="45.90636" lon="4.59953">
        <ele>316</ele>
        <time>2018-07-07T10:21:34Z</time>
      </trkpt>
      <trkpt lat="45.90628" lon="4.59956">
        <ele>316</ele>
        <time>2018-07-07T10:21:35Z</time>
      </trkpt>
      <trkpt lat="45.9062" lon="4.59959">
        <ele>316</ele>
        <time>2018-07-07T10:21:36Z</time>
      </trkpt>
      <trkpt lat="45.90612" lon="4.59962">
        <ele>316</ele>
        <time>2018-07-07T10:21:37Z</time>
      </trkpt>
      <trkpt lat="45.90604" lon="4.59964">
        <ele>315</ele>
        <time>2018-07-07T10:21:38Z</time>
      </trkpt>
      <trkpt lat="45.90595" lon="4.59967">
        <ele>315</ele>
        <time>2018-07-07T10:21:39Z</time>
      </trkpt>
      <trkpt lat="45.90587" lon="4.59969">
        <ele>315</ele>
        <time>2018-07-07T10:21:40Z</time>
      </trkpt>
      <trkpt lat="45.90577" lon="4.59973">
        <ele>314</ele>
        <time>2018-07-07T10:21:41Z</time>
      </trkpt>
      <trkpt lat="45.90569" lon="4.59976">
        <ele>314</ele>
        <time>2018-07-07T10:21:42Z</time>
      </trkpt>
      <trkpt lat="45.9056" lon="4.5998">
        <ele>314</ele>
        <time>2018-07-07T10:21:43Z</time>
      </trkpt>
      <trkpt lat="45.90551" lon="4.59983">
        <ele>314</ele>
        <time>2018-07-07T10:21:44Z</time>
      </trkpt>
      <trkpt lat="45.90543" lon="4.59985">
        <ele>314</ele>
        <time>2018-07-07T10:21:45Z</time>
      </trkpt>
      <trkpt lat="45.90535" lon="4.59987">
        <ele>314</ele>
        <time>2018-07-07T10:21:46Z</time>
      </trkpt>
      <trkpt lat="45.90528" lon="4.5999">
        <ele>314</ele>
        <time>2018-07-07T10:21:47Z</time>
      </trkpt>
      <trkpt lat="45.90521" lon="4.59992">
        <ele>313</ele>
        <time>2018-07-07T10:21:48Z</time>
      </trkpt>
      <trkpt lat="45.90512" lon="4.59995">
        <ele>313</ele>
        <time>2018-07-07T10:21:49Z</time>
      </trkpt>
      <trkpt lat="45.90505" lon="4.59997">
        <ele>312</ele>
        <time>2018-07-07T10:21:50Z</time>
      </trkpt>
      <trkpt lat="45.90498" lon="4.6">
        <ele>312</ele>
        <time>2018-07-07T10:21:51Z</time>
      </trkpt>
      <trkpt lat="45.9049" lon="4.60003">
        <ele>311</ele>
        <time>2018-07-07T10:21:52Z</time>
      </trkpt>
      <trkpt lat="45.90483" lon="4.60006">
        <ele>311</ele>
        <time>2018-07-07T10:21:53Z</time>
      </trkpt>
      <trkpt lat="45.90475" lon="4.60008">
        <ele>311</ele>
        <time>2018-07-07T10:21:54Z</time>
      </trkpt>
      <trkpt lat="45.90467" lon="4.60013">
        <ele>311</ele>
        <time>2018-07-07T10:21:55Z</time>
      </trkpt>
      <trkpt lat="45.90459" lon="4.60015">
        <ele>311</ele>
        <time>2018-07-07T10:21:56Z</time>
      </trkpt>
      <trkpt lat="45.90451" lon="4.60017">
        <ele>311</ele>
        <time>2018-07-07T10:21:57Z</time>
      </trkpt>
      <trkpt lat="45.90443" lon="4.60021">
        <ele>311</ele>
        <time>2018-07-07T10:21:58Z</time>
      </trkpt>
      <trkpt lat="45.90436" lon="4.60024">
        <ele>311</ele>
        <time>2018-07-07T10:21:59Z</time>
      </trkpt>
      <trkpt lat="45.90428" lon="4.60027">
        <ele>311</ele>
        <time>2018-07-07T10:22:00Z</time>
      </trkpt>
      <trkpt lat="45.90421" lon="4.60028">
        <ele>311</ele>
        <time>2018-07-07T10:22:01Z</time>
      </trkpt>
      <trkpt lat="45.90413" lon="4.60031">
        <ele>313</ele>
        <time>2018-07-07T10:22:02Z</time>
      </trkpt>
      <trkpt lat="45.90405" lon="4.60032">
        <ele>313</ele>
        <time>2018-07-07T10:22:03Z</time>
      </trkpt>
      <trkpt lat="45.90397" lon="4.60035">
        <ele>313</ele>
        <time>2018-07-07T10:22:04Z</time>
      </trkpt>
      <trkpt lat="45.9039" lon="4.60035">
        <ele>313</ele>
        <time>2018-07-07T10:22:05Z</time>
      </trkpt>
      <trkpt lat="45.90383" lon="4.60038">
        <ele>313</ele>
        <time>2018-07-07T10:22:06Z</time>
      </trkpt>
      <trkpt lat="45.90376" lon="4.6004">
        <ele>313</ele>
        <time>2018-07-07T10:22:07Z</time>
      </trkpt>
      <trkpt lat="45.9037" lon="4.60043">
        <ele>313</ele>
        <time>2018-07-07T10:22:08Z</time>
      </trkpt>
      <trkpt lat="45.90366" lon="4.60043">
        <ele>314</ele>
        <time>2018-07-07T10:22:09Z</time>
      </trkpt>
      <trkpt lat="45.90361" lon="4.60042">
        <ele>314</ele>
        <time>2018-07-07T10:22:10Z</time>
      </trkpt>
      <trkpt lat="45.90355" lon="4.60043">
        <ele>314</ele>
        <time>2018-07-07T10:22:11Z</time>
      </trkpt>
      <trkpt lat="45.90348" lon="4.60049">
        <ele>314</ele>
        <time>2018-07-07T10:22:12Z</time>
      </trkpt>
      <trkpt lat="45.9034" lon="4.60054">
        <ele>313</ele>
        <time>2018-07-07T10:22:13Z</time>
      </trkpt>
      <trkpt lat="45.9033" lon="4.60058">
        <ele>316</ele>
        <time>2018-07-07T10:22:14Z</time>
      </trkpt>
      <trkpt lat="45.90321" lon="4.60063">
        <ele>315</ele>
        <time>2018-07-07T10:22:15Z</time>
      </trkpt>
      <trkpt lat="45.90313" lon="4.60063">
        <ele>316</ele>
        <time>2018-07-07T10:22:17Z</time>
      </trkpt>
      <trkpt lat="45.90307" lon="4.60066">
        <ele>316</ele>
        <time>2018-07-07T10:22:18Z</time>
      </trkpt>
      <trkpt lat="45.90299" lon="4.60068">
        <ele>316</ele>
        <time>2018-07-07T10:22:19Z</time>
      </trkpt>
      <trkpt lat="45.90291" lon="4.60071">
        <ele>316</ele>
        <time>2018-07-07T10:22:20Z</time>
      </trkpt>
      <trkpt lat="45.90283" lon="4.60071">
        <ele>316</ele>
        <time>2018-07-07T10:22:22Z</time>
      </trkpt>
      <trkpt lat="45.90275" lon="4.60074">
        <ele>316</ele>
        <time>2018-07-07T10:22:23Z</time>
      </trkpt>
      <trkpt lat="45.90268" lon="4.60075">
        <ele>316</ele>
        <time>2018-07-07T10:22:24Z</time>
      </trkpt>
      <trkpt lat="45.90262" lon="4.60077">
        <ele>316</ele>
        <time>2018-07-07T10:22:25Z</time>
      </trkpt>
      <trkpt lat="45.90253" lon="4.60077">
        <ele>316</ele>
        <time>2018-07-07T10:22:27Z</time>
      </trkpt>
      <trkpt lat="45.90248" lon="4.6008">
        <ele>315</ele>
        <time>2018-07-07T10:22:28Z</time>
      </trkpt>
      <trkpt lat="45.90239" lon="4.6008">
        <ele>315</ele>
        <time>2018-07-07T10:22:29Z</time>
      </trkpt>
      <trkpt lat="45.90232" lon="4.60083">
        <ele>315</ele>
        <time>2018-07-07T10:22:30Z</time>
      </trkpt>
      <trkpt lat="45.90221" lon="4.60084">
        <ele>309</ele>
        <time>2018-07-07T10:22:31Z</time>
      </trkpt>
      <trkpt lat="45.90212" lon="4.60087">
        <ele>309</ele>
        <time>2018-07-07T10:22:32Z</time>
      </trkpt>
      <trkpt lat="45.90206" lon="4.60088">
        <ele>308</ele>
        <time>2018-07-07T10:22:33Z</time>
      </trkpt>
      <trkpt lat="45.90198" lon="4.60091">
        <ele>308</ele>
        <time>2018-07-07T10:22:34Z</time>
      </trkpt>
      <trkpt lat="45.90192" lon="4.60095">
        <ele>308</ele>
        <time>2018-07-07T10:22:35Z</time>
      </trkpt>
      <trkpt lat="45.90186" lon="4.60098">
        <ele>308</ele>
        <time>2018-07-07T10:22:36Z</time>
      </trkpt>
      <trkpt lat="45.90179" lon="4.60102">
        <ele>308</ele>
        <time>2018-07-07T10:22:37Z</time>
      </trkpt>
      <trkpt lat="45.90172" lon="4.60105">
        <ele>307</ele>
        <time>2018-07-07T10:22:38Z</time>
      </trkpt>
      <trkpt lat="45.90166" lon="4.60107">
        <ele>306</ele>
        <time>2018-07-07T10:22:39Z</time>
      </trkpt>
      <trkpt lat="45.90159" lon="4.60109">
        <ele>306</ele>
        <time>2018-07-07T10:22:40Z</time>
      </trkpt>
      <trkpt lat="45.90152" lon="4.60111">
        <ele>306</ele>
        <time>2018-07-07T10:22:41Z</time>
      </trkpt>
      <trkpt lat="45.90147" lon="4.60112">
        <ele>306</ele>
        <time>2018-07-07T10:22:42Z</time>
      </trkpt>
      <trkpt lat="45.9014" lon="4.60114">
        <ele>306</ele>
        <time>2018-07-07T10:22:43Z</time>
      </trkpt>
      <trkpt lat="45.90134" lon="4.60115">
        <ele>306</ele>
        <time>2018-07-07T10:22:44Z</time>
      </trkpt>
      <trkpt lat="45.90128" lon="4.60117">
        <ele>306</ele>
        <time>2018-07-07T10:22:45Z</time>
      </trkpt>
      <trkpt lat="45.90122" lon="4.60119">
        <ele>305</ele>
        <time>2018-07-07T10:22:46Z</time>
      </trkpt>
      <trkpt lat="45.90115" lon="4.60121">
        <ele>305</ele>
        <time>2018-07-07T10:22:47Z</time>
      </trkpt>
      <trkpt lat="45.90109" lon="4.60122">
        <ele>305</ele>
        <time>2018-07-07T10:22:48Z</time>
      </trkpt>
      <trkpt lat="45.90102" lon="4.60125">
        <ele>305</ele>
        <time>2018-07-07T10:22:49Z</time>
      </trkpt>
      <trkpt lat="45.90098" lon="4.60124">
        <ele>305</ele>
        <time>2018-07-07T10:22:50Z</time>
      </trkpt>
      <trkpt lat="45.90092" lon="4.60125">
        <ele>305</ele>
        <time>2018-07-07T10:22:51Z</time>
      </trkpt>
      <trkpt lat="45.90084" lon="4.60131">
        <ele>305</ele>
        <time>2018-07-07T10:22:52Z</time>
      </trkpt>
      <trkpt lat="45.90077" lon="4.60133">
        <ele>305</ele>
        <time>2018-07-07T10:22:53Z</time>
      </trkpt>
      <trkpt lat="45.90071" lon="4.60134">
        <ele>305</ele>
        <time>2018-07-07T10:22:54Z</time>
      </trkpt>
      <trkpt lat="45.90067" lon="4.60136">
        <ele>305</ele>
        <time>2018-07-07T10:22:55Z</time>
      </trkpt>
      <trkpt lat="45.9006" lon="4.60138">
        <ele>305</ele>
        <time>2018-07-07T10:22:56Z</time>
      </trkpt>
      <trkpt lat="45.90054" lon="4.60141">
        <ele>305</ele>
        <time>2018-07-07T10:22:57Z</time>
      </trkpt>
      <trkpt lat="45.90048" lon="4.60143">
        <ele>305</ele>
        <time>2018-07-07T10:22:58Z</time>
      </trkpt>
      <trkpt lat="45.90042" lon="4.60145">
        <ele>305</ele>
        <time>2018-07-07T10:22:59Z</time>
      </trkpt>
      <trkpt lat="45.90036" lon="4.60145">
        <ele>305</ele>
        <time>2018-07-07T10:23:00Z</time>
      </trkpt>
      <trkpt lat="45.9003" lon="4.60147">
        <ele>305</ele>
        <time>2018-07-07T10:23:01Z</time>
      </trkpt>
      <trkpt lat="45.90024" lon="4.60148">
        <ele>305</ele>
        <time>2018-07-07T10:23:02Z</time>
      </trkpt>
      <trkpt lat="45.9002" lon="4.60151">
        <ele>305</ele>
        <time>2018-07-07T10:23:03Z</time>
      </trkpt>
      <trkpt lat="45.90012" lon="4.60152">
        <ele>305</ele>
        <time>2018-07-07T10:23:04Z</time>
      </trkpt>
      <trkpt lat="45.90007" lon="4.60156">
        <ele>305</ele>
        <time>2018-07-07T10:23:05Z</time>
      </trkpt>
      <trkpt lat="45.9" lon="4.60157">
        <ele>305</ele>
        <time>2018-07-07T10:23:06Z</time>
      </trkpt>
      <trkpt lat="45.89994" lon="4.60159">
        <ele>304</ele>
        <time>2018-07-07T10:23:07Z</time>
      </trkpt>
      <trkpt lat="45.89988" lon="4.60161">
        <ele>304</ele>
        <time>2018-07-07T10:23:08Z</time>
      </trkpt>
      <trkpt lat="45.89981" lon="4.60164">
        <ele>304</ele>
        <time>2018-07-07T10:23:09Z</time>
      </trkpt>
      <trkpt lat="45.89975" lon="4.60165">
        <ele>304</ele>
        <time>2018-07-07T10:23:10Z</time>
      </trkpt>
      <trkpt lat="45.89967" lon="4.60166">
        <ele>304</ele>
        <time>2018-07-07T10:23:11Z</time>
      </trkpt>
      <trkpt lat="45.8996" lon="4.60168">
        <ele>302</ele>
        <time>2018-07-07T10:23:12Z</time>
      </trkpt>
      <trkpt lat="45.89954" lon="4.60171">
        <ele>302</ele>
        <time>2018-07-07T10:23:13Z</time>
      </trkpt>
      <trkpt lat="45.89947" lon="4.60173">
        <ele>302</ele>
        <time>2018-07-07T10:23:14Z</time>
      </trkpt>
      <trkpt lat="45.8994" lon="4.60174">
        <ele>302</ele>
        <time>2018-07-07T10:23:15Z</time>
      </trkpt>
      <trkpt lat="45.89932" lon="4.60177">
        <ele>302</ele>
        <time>2018-07-07T10:23:16Z</time>
      </trkpt>
      <trkpt lat="45.89926" lon="4.60178">
        <ele>302</ele>
        <time>2018-07-07T10:23:17Z</time>
      </trkpt>
      <trkpt lat="45.89918" lon="4.60181">
        <ele>302</ele>
        <time>2018-07-07T10:23:18Z</time>
      </trkpt>
      <trkpt lat="45.89911" lon="4.60182">
        <ele>302</ele>
        <time>2018-07-07T10:23:19Z</time>
      </trkpt>
      <trkpt lat="45.89904" lon="4.60185">
        <ele>302</ele>
        <time>2018-07-07T10:23:20Z</time>
      </trkpt>
      <trkpt lat="45.89896" lon="4.60187">
        <ele>302</ele>
        <time>2018-07-07T10:23:21Z</time>
      </trkpt>
      <trkpt lat="45.89889" lon="4.60189">
        <ele>301</ele>
        <time>2018-07-07T10:23:22Z</time>
      </trkpt>
      <trkpt lat="45.89882" lon="4.60191">
        <ele>301</ele>
        <time>2018-07-07T10:23:23Z</time>
      </trkpt>
      <trkpt lat="45.89875" lon="4.60193">
        <ele>301</ele>
        <time>2018-07-07T10:23:24Z</time>
      </trkpt>
      <trkpt lat="45.89868" lon="4.60196">
        <ele>301</ele>
        <time>2018-07-07T10:23:25Z</time>
      </trkpt>
      <trkpt lat="45.8986" lon="4.60199">
        <ele>301</ele>
        <time>2018-07-07T10:23:26Z</time>
      </trkpt>
      <trkpt lat="45.89853" lon="4.602">
        <ele>301</ele>
        <time>2018-07-07T10:23:27Z</time>
      </trkpt>
      <trkpt lat="45.89846" lon="4.60202">
        <ele>301</ele>
        <time>2018-07-07T10:23:28Z</time>
      </trkpt>
      <trkpt lat="45.89838" lon="4.60204">
        <ele>301</ele>
        <time>2018-07-07T10:23:29Z</time>
      </trkpt>
      <trkpt lat="45.89831" lon="4.60208">
        <ele>301</ele>
        <time>2018-07-07T10:23:30Z</time>
      </trkpt>
      <trkpt lat="45.89824" lon="4.60211">
        <ele>301</ele>
        <time>2018-07-07T10:23:31Z</time>
      </trkpt>
      <trkpt lat="45.89816" lon="4.60213">
        <ele>301</ele>
        <time>2018-07-07T10:23:32Z</time>
      </trkpt>
      <trkpt lat="45.89809" lon="4.60215">
        <ele>301</ele>
        <time>2018-07-07T10:23:33Z</time>
      </trkpt>
      <trkpt lat="45.89802" lon="4.60217">
        <ele>301</ele>
        <time>2018-07-07T10:23:34Z</time>
      </trkpt>
      <trkpt lat="45.89795" lon="4.60219">
        <ele>301</ele>
        <time>2018-07-07T10:23:35Z</time>
      </trkpt>
      <trkpt lat="45.89786" lon="4.60219">
        <ele>301</ele>
        <time>2018-07-07T10:23:36Z</time>
      </trkpt>
      <trkpt lat="45.89779" lon="4.60223">
        <ele>301</ele>
        <time>2018-07-07T10:23:37Z</time>
      </trkpt>
      <trkpt lat="45.89772" lon="4.60225">
        <ele>301</ele>
        <time>2018-07-07T10:23:38Z</time>
      </trkpt>
      <trkpt lat="45.89765" lon="4.60227">
        <ele>301</ele>
        <time>2018-07-07T10:23:39Z</time>
      </trkpt>
      <trkpt lat="45.89758" lon="4.60229">
        <ele>301</ele>
        <time>2018-07-07T10:23:40Z</time>
      </trkpt>
      <trkpt lat="45.89752" lon="4.60233">
        <ele>301</ele>
        <time>2018-07-07T10:23:41Z</time>
      </trkpt>
      <trkpt lat="45.89749" lon="4.60235">
        <ele>300</ele>
        <time>2018-07-07T10:23:42Z</time>
      </trkpt>
      <trkpt lat="45.89741" lon="4.60238">
        <ele>300</ele>
        <time>2018-07-07T10:23:43Z</time>
      </trkpt>
      <trkpt lat="45.89735" lon="4.60242">
        <ele>300</ele>
        <time>2018-07-07T10:23:44Z</time>
      </trkpt>
      <trkpt lat="45.89728" lon="4.60246">
        <ele>299</ele>
        <time>2018-07-07T10:23:45Z</time>
      </trkpt>
      <trkpt lat="45.89721" lon="4.6025">
        <ele>299</ele>
        <time>2018-07-07T10:23:46Z</time>
      </trkpt>
      <trkpt lat="45.89714" lon="4.60254">
        <ele>298</ele>
        <time>2018-07-07T10:23:47Z</time>
      </trkpt>
      <trkpt lat="45.89707" lon="4.60258">
        <ele>297</ele>
        <time>2018-07-07T10:23:48Z</time>
      </trkpt>
      <trkpt lat="45.89702" lon="4.60264">
        <ele>297</ele>
        <time>2018-07-07T10:23:49Z</time>
      </trkpt>
      <trkpt lat="45.89696" lon="4.60267">
        <ele>296</ele>
        <time>2018-07-07T10:23:50Z</time>
      </trkpt>
      <trkpt lat="45.89689" lon="4.60271">
        <ele>296</ele>
        <time>2018-07-07T10:23:51Z</time>
      </trkpt>
      <trkpt lat="45.8968" lon="4.60273">
        <ele>296</ele>
        <time>2018-07-07T10:23:52Z</time>
      </trkpt>
      <trkpt lat="45.89672" lon="4.60274">
        <ele>295</ele>
        <time>2018-07-07T10:23:53Z</time>
      </trkpt>
      <trkpt lat="45.89664" lon="4.60276">
        <ele>292</ele>
        <time>2018-07-07T10:23:54Z</time>
      </trkpt>
      <trkpt lat="45.89656" lon="4.60278">
        <ele>292</ele>
        <time>2018-07-07T10:23:55Z</time>
      </trkpt>
      <trkpt lat="45.89647" lon="4.60279">
        <ele>291</ele>
        <time>2018-07-07T10:23:56Z</time>
      </trkpt>
      <trkpt lat="45.89639" lon="4.6028">
        <ele>291</ele>
        <time>2018-07-07T10:23:57Z</time>
      </trkpt>
      <trkpt lat="45.89631" lon="4.60282">
        <ele>291</ele>
        <time>2018-07-07T10:23:58Z</time>
      </trkpt>
      <trkpt lat="45.89622" lon="4.60283">
        <ele>291</ele>
        <time>2018-07-07T10:23:59Z</time>
      </trkpt>
      <trkpt lat="45.89613" lon="4.60284">
        <ele>290</ele>
        <time>2018-07-07T10:24:00Z</time>
      </trkpt>
      <trkpt lat="45.89603" lon="4.60286">
        <ele>290</ele>
        <time>2018-07-07T10:24:01Z</time>
      </trkpt>
      <trkpt lat="45.89594" lon="4.60288">
        <ele>290</ele>
        <time>2018-07-07T10:24:02Z</time>
      </trkpt>
      <trkpt lat="45.89586" lon="4.60289">
        <ele>290</ele>
        <time>2018-07-07T10:24:03Z</time>
      </trkpt>
      <trkpt lat="45.89577" lon="4.60292">
        <ele>286</ele>
        <time>2018-07-07T10:24:04Z</time>
      </trkpt>
      <trkpt lat="45.89568" lon="4.60294">
        <ele>286</ele>
        <time>2018-07-07T10:24:05Z</time>
      </trkpt>
      <trkpt lat="45.8956" lon="4.60295">
        <ele>286</ele>
        <time>2018-07-07T10:24:06Z</time>
      </trkpt>
      <trkpt lat="45.89551" lon="4.60297">
        <ele>285</ele>
        <time>2018-07-07T10:24:07Z</time>
      </trkpt>
      <trkpt lat="45.89543" lon="4.60298">
        <ele>285</ele>
        <time>2018-07-07T10:24:08Z</time>
      </trkpt>
      <trkpt lat="45.89535" lon="4.60299">
        <ele>285</ele>
        <time>2018-07-07T10:24:09Z</time>
      </trkpt>
      <trkpt lat="45.89526" lon="4.60299">
        <ele>284</ele>
        <time>2018-07-07T10:24:10Z</time>
      </trkpt>
      <trkpt lat="45.89516" lon="4.60298">
        <ele>284</ele>
        <time>2018-07-07T10:24:11Z</time>
      </trkpt>
      <trkpt lat="45.89507" lon="4.60298">
        <ele>284</ele>
        <time>2018-07-07T10:24:12Z</time>
      </trkpt>
      <trkpt lat="45.89498" lon="4.60297">
        <ele>281</ele>
        <time>2018-07-07T10:24:13Z</time>
      </trkpt>
      <trkpt lat="45.89488" lon="4.60296">
        <ele>281</ele>
        <time>2018-07-07T10:24:14Z</time>
      </trkpt>
      <trkpt lat="45.89479" lon="4.60294">
        <ele>280</ele>
        <time>2018-07-07T10:24:15Z</time>
      </trkpt>
      <trkpt lat="45.89467" lon="4.6029">
        <ele>280</ele>
        <time>2018-07-07T10:24:16Z</time>
      </trkpt>
      <trkpt lat="45.89457" lon="4.60289">
        <ele>280</ele>
        <time>2018-07-07T10:24:17Z</time>
      </trkpt>
      <trkpt lat="45.8945" lon="4.6029">
        <ele>280</ele>
        <time>2018-07-07T10:24:18Z</time>
      </trkpt>
      <trkpt lat="45.89442" lon="4.60289">
        <ele>280</ele>
        <time>2018-07-07T10:24:19Z</time>
      </trkpt>
      <trkpt lat="45.89434" lon="4.60289">
        <ele>279</ele>
        <time>2018-07-07T10:24:20Z</time>
      </trkpt>
      <trkpt lat="45.89425" lon="4.60288">
        <ele>279</ele>
        <time>2018-07-07T10:24:21Z</time>
      </trkpt>
      <trkpt lat="45.89416" lon="4.60287">
        <ele>276</ele>
        <time>2018-07-07T10:24:22Z</time>
      </trkpt>
      <trkpt lat="45.8941" lon="4.60288">
        <ele>276</ele>
        <time>2018-07-07T10:24:23Z</time>
      </trkpt>
      <trkpt lat="45.89402" lon="4.60287">
        <ele>276</ele>
        <time>2018-07-07T10:24:24Z</time>
      </trkpt>
      <trkpt lat="45.89396" lon="4.60286">
        <ele>276</ele>
        <time>2018-07-07T10:24:25Z</time>
      </trkpt>
      <trkpt lat="45.89389" lon="4.60285">
        <ele>276</ele>
        <time>2018-07-07T10:24:26Z</time>
      </trkpt>
      <trkpt lat="45.89382" lon="4.60285">
        <ele>275</ele>
        <time>2018-07-07T10:24:27Z</time>
      </trkpt>
      <trkpt lat="45.89374" lon="4.60284">
        <ele>275</ele>
        <time>2018-07-07T10:24:28Z</time>
      </trkpt>
      <trkpt lat="45.89366" lon="4.60284">
        <ele>275</ele>
        <time>2018-07-07T10:24:29Z</time>
      </trkpt>
      <trkpt lat="45.89359" lon="4.60284">
        <ele>275</ele>
        <time>2018-07-07T10:24:30Z</time>
      </trkpt>
      <trkpt lat="45.8935" lon="4.60286">
        <ele>274</ele>
        <time>2018-07-07T10:24:31Z</time>
      </trkpt>
      <trkpt lat="45.89342" lon="4.60284">
        <ele>274</ele>
        <time>2018-07-07T10:24:32Z</time>
      </trkpt>
      <trkpt lat="45.89335" lon="4.60282">
        <ele>274</ele>
        <time>2018-07-07T10:24:33Z</time>
      </trkpt>
      <trkpt lat="45.89327" lon="4.60282">
        <ele>269</ele>
        <time>2018-07-07T10:24:34Z</time>
      </trkpt>
      <trkpt lat="45.89319" lon="4.60283">
        <ele>268</ele>
        <time>2018-07-07T10:24:35Z</time>
      </trkpt>
      <trkpt lat="45.8931" lon="4.60284">
        <ele>268</ele>
        <time>2018-07-07T10:24:36Z</time>
      </trkpt>
      <trkpt lat="45.89301" lon="4.60286">
        <ele>267</ele>
        <time>2018-07-07T10:24:37Z</time>
      </trkpt>
      <trkpt lat="45.89293" lon="4.60289">
        <ele>266</ele>
        <time>2018-07-07T10:24:38Z</time>
      </trkpt>
      <trkpt lat="45.89284" lon="4.60292">
        <ele>266</ele>
        <time>2018-07-07T10:24:39Z</time>
      </trkpt>
      <trkpt lat="45.89276" lon="4.60295">
        <ele>265</ele>
        <time>2018-07-07T10:24:40Z</time>
      </trkpt>
      <trkpt lat="45.89268" lon="4.60298">
        <ele>265</ele>
        <time>2018-07-07T10:24:41Z</time>
      </trkpt>
      <trkpt lat="45.8926" lon="4.60302">
        <ele>264</ele>
        <time>2018-07-07T10:24:42Z</time>
      </trkpt>
      <trkpt lat="45.89251" lon="4.60307">
        <ele>264</ele>
        <time>2018-07-07T10:24:43Z</time>
      </trkpt>
      <trkpt lat="45.89243" lon="4.6031">
        <ele>258</ele>
        <time>2018-07-07T10:24:44Z</time>
      </trkpt>
      <trkpt lat="45.89233" lon="4.60315">
        <ele>257</ele>
        <time>2018-07-07T10:24:45Z</time>
      </trkpt>
      <trkpt lat="45.89224" lon="4.60319">
        <ele>257</ele>
        <time>2018-07-07T10:24:46Z</time>
      </trkpt>
      <trkpt lat="45.89216" lon="4.60323">
        <ele>256</ele>
        <time>2018-07-07T10:24:47Z</time>
      </trkpt>
      <trkpt lat="45.89207" lon="4.60328">
        <ele>255</ele>
        <time>2018-07-07T10:24:48Z</time>
      </trkpt>
      <trkpt lat="45.89199" lon="4.60333">
        <ele>255</ele>
        <time>2018-07-07T10:24:49Z</time>
      </trkpt>
      <trkpt lat="45.89192" lon="4.60336">
        <ele>254</ele>
        <time>2018-07-07T10:24:50Z</time>
      </trkpt>
      <trkpt lat="45.89185" lon="4.60338">
        <ele>254</ele>
        <time>2018-07-07T10:24:51Z</time>
      </trkpt>
      <trkpt lat="45.89179" lon="4.60342">
        <ele>253</ele>
        <time>2018-07-07T10:24:52Z</time>
      </trkpt>
      <trkpt lat="45.89173" lon="4.60344">
        <ele>253</ele>
        <time>2018-07-07T10:24:53Z</time>
      </trkpt>
      <trkpt lat="45.89168" lon="4.60345">
        <ele>253</ele>
        <time>2018-07-07T10:24:54Z</time>
      </trkpt>
      <trkpt lat="45.89163" lon="4.60349">
        <ele>250</ele>
        <time>2018-07-07T10:24:55Z</time>
      </trkpt>
      <trkpt lat="45.89157" lon="4.60352">
        <ele>249</ele>
        <time>2018-07-07T10:24:56Z</time>
      </trkpt>
      <trkpt lat="45.89154" lon="4.60355">
        <ele>249</ele>
        <time>2018-07-07T10:24:57Z</time>
      </trkpt>
      <trkpt lat="45.89149" lon="4.60357">
        <ele>249</ele>
        <time>2018-07-07T10:24:58Z</time>
      </trkpt>
      <trkpt lat="45.89144" lon="4.60357">
        <ele>249</ele>
        <time>2018-07-07T10:24:59Z</time>
      </trkpt>
      <trkpt lat="45.89138" lon="4.60359">
        <ele>248</ele>
        <time>2018-07-07T10:25:00Z</time>
      </trkpt>
      <trkpt lat="45.89133" lon="4.6036">
        <ele>248</ele>
        <time>2018-07-07T10:25:01Z</time>
      </trkpt>
      <trkpt lat="45.89129" lon="4.60357">
        <ele>248</ele>
        <time>2018-07-07T10:25:02Z</time>
      </trkpt>
      <trkpt lat="45.89122" lon="4.60357">
        <ele>247</ele>
        <time>2018-07-07T10:25:03Z</time>
      </trkpt>
      <trkpt lat="45.89118" lon="4.60356">
        <ele>247</ele>
        <time>2018-07-07T10:25:04Z</time>
      </trkpt>
      <trkpt lat="45.89112" lon="4.60352">
        <ele>247</ele>
        <time>2018-07-07T10:25:06Z</time>
      </trkpt>
      <trkpt lat="45.89107" lon="4.6035">
        <ele>246</ele>
        <time>2018-07-07T10:25:07Z</time>
      </trkpt>
      <trkpt lat="45.89102" lon="4.60351">
        <ele>246</ele>
        <time>2018-07-07T10:25:08Z</time>
      </trkpt>
      <trkpt lat="45.89097" lon="4.60349">
        <ele>246</ele>
        <time>2018-07-07T10:25:09Z</time>
      </trkpt>
      <trkpt lat="45.89089" lon="4.60346">
        <ele>245</ele>
        <time>2018-07-07T10:25:13Z</time>
      </trkpt>
      <trkpt lat="45.89088" lon="4.60345">
        <ele>245</ele>
        <time>2018-07-07T10:25:14Z</time>
      </trkpt>
      <trkpt lat="45.8908" lon="4.60345">
        <ele>243</ele>
        <time>2018-07-07T10:25:27Z</time>
      </trkpt>
      <trkpt lat="45.89079" lon="4.60346">
        <ele>243</ele>
        <time>2018-07-07T10:25:28Z</time>
      </trkpt>
      <trkpt lat="45.89073" lon="4.60351">
        <ele>243</ele>
        <time>2018-07-07T10:25:31Z</time>
      </trkpt>
      <trkpt lat="45.89071" lon="4.60354">
        <ele>243</ele>
        <time>2018-07-07T10:25:32Z</time>
      </trkpt>
      <trkpt lat="45.89069" lon="4.60357">
        <ele>243</ele>
        <time>2018-07-07T10:25:33Z</time>
      </trkpt>
      <trkpt lat="45.89066" lon="4.60369">
        <ele>243</ele>
        <time>2018-07-07T10:25:34Z</time>
      </trkpt>
      <trkpt lat="45.89065" lon="4.60378">
        <ele>243</ele>
        <time>2018-07-07T10:25:36Z</time>
      </trkpt>
      <trkpt lat="45.89063" lon="4.60385">
        <ele>243</ele>
        <time>2018-07-07T10:25:37Z</time>
      </trkpt>
      <trkpt lat="45.89061" lon="4.6039">
        <ele>243</ele>
        <time>2018-07-07T10:25:38Z</time>
      </trkpt>
      <trkpt lat="45.8906" lon="4.60398">
        <ele>244</ele>
        <time>2018-07-07T10:25:39Z</time>
      </trkpt>
      <trkpt lat="45.89058" lon="4.60405">
        <ele>244</ele>
        <time>2018-07-07T10:25:40Z</time>
      </trkpt>
      <trkpt lat="45.89056" lon="4.60412">
        <ele>244</ele>
        <time>2018-07-07T10:25:41Z</time>
      </trkpt>
      <trkpt lat="45.89055" lon="4.60422">
        <ele>244</ele>
        <time>2018-07-07T10:25:42Z</time>
      </trkpt>
      <trkpt lat="45.89051" lon="4.6043">
        <ele>244</ele>
        <time>2018-07-07T10:25:43Z</time>
      </trkpt>
      <trkpt lat="45.89048" lon="4.60437">
        <ele>244</ele>
        <time>2018-07-07T10:25:44Z</time>
      </trkpt>
      <trkpt lat="45.89046" lon="4.60446">
        <ele>243</ele>
        <time>2018-07-07T10:25:45Z</time>
      </trkpt>
      <trkpt lat="45.89044" lon="4.60456">
        <ele>243</ele>
        <time>2018-07-07T10:25:46Z</time>
      </trkpt>
      <trkpt lat="45.89044" lon="4.60468">
        <ele>243</ele>
        <time>2018-07-07T10:25:47Z</time>
      </trkpt>
      <trkpt lat="45.89041" lon="4.60477">
        <ele>243</ele>
        <time>2018-07-07T10:25:48Z</time>
      </trkpt>
      <trkpt lat="45.89039" lon="4.60485">
        <ele>243</ele>
        <time>2018-07-07T10:25:49Z</time>
      </trkpt>
      <trkpt lat="45.89037" lon="4.60494">
        <ele>243</ele>
        <time>2018-07-07T10:25:50Z</time>
      </trkpt>
      <trkpt lat="45.89035" lon="4.60503">
        <ele>241</ele>
        <time>2018-07-07T10:25:51Z</time>
      </trkpt>
      <trkpt lat="45.89033" lon="4.60513">
        <ele>241</ele>
        <time>2018-07-07T10:25:52Z</time>
      </trkpt>
      <trkpt lat="45.8903" lon="4.60524">
        <ele>241</ele>
        <time>2018-07-07T10:25:53Z</time>
      </trkpt>
      <trkpt lat="45.89027" lon="4.60533">
        <ele>241</ele>
        <time>2018-07-07T10:25:54Z</time>
      </trkpt>
      <trkpt lat="45.89024" lon="4.60543">
        <ele>241</ele>
        <time>2018-07-07T10:25:55Z</time>
      </trkpt>
      <trkpt lat="45.89022" lon="4.60554">
        <ele>240</ele>
        <time>2018-07-07T10:25:56Z</time>
      </trkpt>
      <trkpt lat="45.8902" lon="4.60565">
        <ele>240</ele>
        <time>2018-07-07T10:25:57Z</time>
      </trkpt>
      <trkpt lat="45.89016" lon="4.60575">
        <ele>240</ele>
        <time>2018-07-07T10:25:58Z</time>
      </trkpt>
      <trkpt lat="45.89013" lon="4.60586">
        <ele>239</ele>
        <time>2018-07-07T10:25:59Z</time>
      </trkpt>
      <trkpt lat="45.89009" lon="4.60597">
        <ele>239</ele>
        <time>2018-07-07T10:26:00Z</time>
      </trkpt>
      <trkpt lat="45.89004" lon="4.60607">
        <ele>239</ele>
        <time>2018-07-07T10:26:01Z</time>
      </trkpt>
      <trkpt lat="45.89" lon="4.60621">
        <ele>236</ele>
        <time>2018-07-07T10:26:02Z</time>
      </trkpt>
      <trkpt lat="45.88995" lon="4.60632">
        <ele>236</ele>
        <time>2018-07-07T10:26:03Z</time>
      </trkpt>
      <trkpt lat="45.88991" lon="4.60643">
        <ele>236</ele>
        <time>2018-07-07T10:26:04Z</time>
      </trkpt>
      <trkpt lat="45.88986" lon="4.60655">
        <ele>237</ele>
        <time>2018-07-07T10:26:05Z</time>
      </trkpt>
      <trkpt lat="45.88983" lon="4.60667">
        <ele>237</ele>
        <time>2018-07-07T10:26:06Z</time>
      </trkpt>
      <trkpt lat="45.88978" lon="4.60679">
        <ele>236</ele>
        <time>2018-07-07T10:26:07Z</time>
      </trkpt>
      <trkpt lat="45.88974" lon="4.60692">
        <ele>235</ele>
        <time>2018-07-07T10:26:08Z</time>
      </trkpt>
      <trkpt lat="45.8897" lon="4.60703">
        <ele>235</ele>
        <time>2018-07-07T10:26:09Z</time>
      </trkpt>
      <trkpt lat="45.88965" lon="4.60716">
        <ele>235</ele>
        <time>2018-07-07T10:26:10Z</time>
      </trkpt>
      <trkpt lat="45.88962" lon="4.60726">
        <ele>235</ele>
        <time>2018-07-07T10:26:11Z</time>
      </trkpt>
      <trkpt lat="45.88958" lon="4.60737">
        <ele>234</ele>
        <time>2018-07-07T10:26:12Z</time>
      </trkpt>
      <trkpt lat="45.88954" lon="4.60748">
        <ele>234</ele>
        <time>2018-07-07T10:26:13Z</time>
      </trkpt>
      <trkpt lat="45.88949" lon="4.60759">
        <ele>233</ele>
        <time>2018-07-07T10:26:14Z</time>
      </trkpt>
      <trkpt lat="45.88945" lon="4.60772">
        <ele>233</ele>
        <time>2018-07-07T10:26:15Z</time>
      </trkpt>
      <trkpt lat="45.8894" lon="4.60782">
        <ele>233</ele>
        <time>2018-07-07T10:26:16Z</time>
      </trkpt>
      <trkpt lat="45.88935" lon="4.60793">
        <ele>233</ele>
        <time>2018-07-07T10:26:17Z</time>
      </trkpt>
      <trkpt lat="45.88932" lon="4.60806">
        <ele>233</ele>
        <time>2018-07-07T10:26:18Z</time>
      </trkpt>
      <trkpt lat="45.88928" lon="4.60819">
        <ele>232</ele>
        <time>2018-07-07T10:26:19Z</time>
      </trkpt>
      <trkpt lat="45.88923" lon="4.60832">
        <ele>230</ele>
        <time>2018-07-07T10:26:20Z</time>
      </trkpt>
      <trkpt lat="45.8892" lon="4.60846">
        <ele>231</ele>
        <time>2018-07-07T10:26:21Z</time>
      </trkpt>
      <trkpt lat="45.88916" lon="4.60858">
        <ele>229</ele>
        <time>2018-07-07T10:26:22Z</time>
      </trkpt>
      <trkpt lat="45.88911" lon="4.60869">
        <ele>229</ele>
        <time>2018-07-07T10:26:23Z</time>
      </trkpt>
      <trkpt lat="45.88907" lon="4.60881">
        <ele>228</ele>
        <time>2018-07-07T10:26:24Z</time>
      </trkpt>
      <trkpt lat="45.88904" lon="4.60893">
        <ele>229</ele>
        <time>2018-07-07T10:26:25Z</time>
      </trkpt>
      <trkpt lat="45.88901" lon="4.60904">
        <ele>229</ele>
        <time>2018-07-07T10:26:26Z</time>
      </trkpt>
      <trkpt lat="45.88897" lon="4.60916">
        <ele>229</ele>
        <time>2018-07-07T10:26:27Z</time>
      </trkpt>
      <trkpt lat="45.88894" lon="4.60927">
        <ele>229</ele>
        <time>2018-07-07T10:26:28Z</time>
      </trkpt>
      <trkpt lat="45.88892" lon="4.60939">
        <ele>229</ele>
        <time>2018-07-07T10:26:29Z</time>
      </trkpt>
      <trkpt lat="45.8889" lon="4.60951">
        <ele>229</ele>
        <time>2018-07-07T10:26:30Z</time>
      </trkpt>
      <trkpt lat="45.88888" lon="4.60962">
        <ele>229</ele>
        <time>2018-07-07T10:26:31Z</time>
      </trkpt>
      <trkpt lat="45.88885" lon="4.60974">
        <ele>229</ele>
        <time>2018-07-07T10:26:32Z</time>
      </trkpt>
      <trkpt lat="45.88883" lon="4.60986">
        <ele>229</ele>
        <time>2018-07-07T10:26:33Z</time>
      </trkpt>
      <trkpt lat="45.88882" lon="4.60996">
        <ele>229</ele>
        <time>2018-07-07T10:26:34Z</time>
      </trkpt>
      <trkpt lat="45.88881" lon="4.61007">
        <ele>229</ele>
        <time>2018-07-07T10:26:35Z</time>
      </trkpt>
      <trkpt lat="45.8888" lon="4.61018">
        <ele>229</ele>
        <time>2018-07-07T10:26:36Z</time>
      </trkpt>
      <trkpt lat="45.88879" lon="4.61029">
        <ele>229</ele>
        <time>2018-07-07T10:26:37Z</time>
      </trkpt>
      <trkpt lat="45.88877" lon="4.61038">
        <ele>229</ele>
        <time>2018-07-07T10:26:38Z</time>
      </trkpt>
      <trkpt lat="45.88876" lon="4.61048">
        <ele>229</ele>
        <time>2018-07-07T10:26:39Z</time>
      </trkpt>
      <trkpt lat="45.88875" lon="4.61059">
        <ele>229</ele>
        <time>2018-07-07T10:26:40Z</time>
      </trkpt>
      <trkpt lat="45.88876" lon="4.6107">
        <ele>229</ele>
        <time>2018-07-07T10:26:41Z</time>
      </trkpt>
      <trkpt lat="45.88877" lon="4.61079">
        <ele>229</ele>
        <time>2018-07-07T10:26:42Z</time>
      </trkpt>
      <trkpt lat="45.88877" lon="4.61087">
        <ele>228</ele>
        <time>2018-07-07T10:26:43Z</time>
      </trkpt>
      <trkpt lat="45.88877" lon="4.61097">
        <ele>228</ele>
        <time>2018-07-07T10:26:44Z</time>
      </trkpt>
      <trkpt lat="45.88878" lon="4.61106">
        <ele>228</ele>
        <time>2018-07-07T10:26:45Z</time>
      </trkpt>
      <trkpt lat="45.88878" lon="4.61115">
        <ele>228</ele>
        <time>2018-07-07T10:26:46Z</time>
      </trkpt>
      <trkpt lat="45.88877" lon="4.61124">
        <ele>228</ele>
        <time>2018-07-07T10:26:47Z</time>
      </trkpt>
      <trkpt lat="45.88878" lon="4.61133">
        <ele>228</ele>
        <time>2018-07-07T10:26:48Z</time>
      </trkpt>
      <trkpt lat="45.88879" lon="4.61143">
        <ele>228</ele>
        <time>2018-07-07T10:26:49Z</time>
      </trkpt>
      <trkpt lat="45.88878" lon="4.61152">
        <ele>228</ele>
        <time>2018-07-07T10:26:50Z</time>
      </trkpt>
      <trkpt lat="45.88879" lon="4.61162">
        <ele>228</ele>
        <time>2018-07-07T10:26:51Z</time>
      </trkpt>
      <trkpt lat="45.88879" lon="4.61172">
        <ele>227</ele>
        <time>2018-07-07T10:26:52Z</time>
      </trkpt>
      <trkpt lat="45.88879" lon="4.61181">
        <ele>226</ele>
        <time>2018-07-07T10:26:53Z</time>
      </trkpt>
      <trkpt lat="45.8888" lon="4.6119">
        <ele>226</ele>
        <time>2018-07-07T10:26:54Z</time>
      </trkpt>
      <trkpt lat="45.88879" lon="4.612">
        <ele>226</ele>
        <time>2018-07-07T10:26:55Z</time>
      </trkpt>
      <trkpt lat="45.88879" lon="4.61208">
        <ele>226</ele>
        <time>2018-07-07T10:26:56Z</time>
      </trkpt>
      <trkpt lat="45.88878" lon="4.61217">
        <ele>226</ele>
        <time>2018-07-07T10:26:57Z</time>
      </trkpt>
      <trkpt lat="45.88878" lon="4.61226">
        <ele>226</ele>
        <time>2018-07-07T10:26:58Z</time>
      </trkpt>
      <trkpt lat="45.88878" lon="4.61235">
        <ele>226</ele>
        <time>2018-07-07T10:26:59Z</time>
      </trkpt>
      <trkpt lat="45.88877" lon="4.61243">
        <ele>226</ele>
        <time>2018-07-07T10:27:00Z</time>
      </trkpt>
      <trkpt lat="45.88876" lon="4.61253">
        <ele>226</ele>
        <time>2018-07-07T10:27:01Z</time>
      </trkpt>
      <trkpt lat="45.88875" lon="4.61261">
        <ele>226</ele>
        <time>2018-07-07T10:27:02Z</time>
      </trkpt>
      <trkpt lat="45.88874" lon="4.6127">
        <ele>226</ele>
        <time>2018-07-07T10:27:03Z</time>
      </trkpt>
      <trkpt lat="45.88874" lon="4.61281">
        <ele>226</ele>
        <time>2018-07-07T10:27:04Z</time>
      </trkpt>
      <trkpt lat="45.88873" lon="4.61289">
        <ele>226</ele>
        <time>2018-07-07T10:27:05Z</time>
      </trkpt>
      <trkpt lat="45.88871" lon="4.61298">
        <ele>226</ele>
        <time>2018-07-07T10:27:06Z</time>
      </trkpt>
      <trkpt lat="45.8887" lon="4.61307">
        <ele>226</ele>
        <time>2018-07-07T10:27:07Z</time>
      </trkpt>
      <trkpt lat="45.88869" lon="4.61314">
        <ele>226</ele>
        <time>2018-07-07T10:27:08Z</time>
      </trkpt>
      <trkpt lat="45.88869" lon="4.61324">
        <ele>226</ele>
        <time>2018-07-07T10:27:09Z</time>
      </trkpt>
      <trkpt lat="45.88867" lon="4.61333">
        <ele>226</ele>
        <time>2018-07-07T10:27:10Z</time>
      </trkpt>
      <trkpt lat="45.88865" lon="4.6134">
        <ele>226</ele>
        <time>2018-07-07T10:27:11Z</time>
      </trkpt>
      <trkpt lat="45.88863" lon="4.6135">
        <ele>226</ele>
        <time>2018-07-07T10:27:12Z</time>
      </trkpt>
      <trkpt lat="45.88861" lon="4.61358">
        <ele>226</ele>
        <time>2018-07-07T10:27:13Z</time>
      </trkpt>
      <trkpt lat="45.88859" lon="4.61366">
        <ele>226</ele>
        <time>2018-07-07T10:27:14Z</time>
      </trkpt>
      <trkpt lat="45.88858" lon="4.61376">
        <ele>226</ele>
        <time>2018-07-07T10:27:15Z</time>
      </trkpt>
      <trkpt lat="45.88856" lon="4.61386">
        <ele>226</ele>
        <time>2018-07-07T10:27:16Z</time>
      </trkpt>
      <trkpt lat="45.88853" lon="4.61393">
        <ele>226</ele>
        <time>2018-07-07T10:27:17Z</time>
      </trkpt>
      <trkpt lat="45.88851" lon="4.61402">
        <ele>226</ele>
        <time>2018-07-07T10:27:18Z</time>
      </trkpt>
      <trkpt lat="45.88848" lon="4.61411">
        <ele>225</ele>
        <time>2018-07-07T10:27:19Z</time>
      </trkpt>
      <trkpt lat="45.88846" lon="4.61423">
        <ele>225</ele>
        <time>2018-07-07T10:27:20Z</time>
      </trkpt>
      <trkpt lat="45.88843" lon="4.61431">
        <ele>225</ele>
        <time>2018-07-07T10:27:21Z</time>
      </trkpt>
      <trkpt lat="45.88841" lon="4.61439">
        <ele>226</ele>
        <time>2018-07-07T10:27:22Z</time>
      </trkpt>
      <trkpt lat="45.88839" lon="4.61448">
        <ele>226</ele>
        <time>2018-07-07T10:27:23Z</time>
      </trkpt>
      <trkpt lat="45.88837" lon="4.61457">
        <ele>226</ele>
        <time>2018-07-07T10:27:24Z</time>
      </trkpt>
      <trkpt lat="45.88835" lon="4.61465">
        <ele>226</ele>
        <time>2018-07-07T10:27:25Z</time>
      </trkpt>
      <trkpt lat="45.88832" lon="4.61474">
        <ele>223</ele>
        <time>2018-07-07T10:27:26Z</time>
      </trkpt>
      <trkpt lat="45.88829" lon="4.61483">
        <ele>223</ele>
        <time>2018-07-07T10:27:27Z</time>
      </trkpt>
      <trkpt lat="45.88826" lon="4.61489">
        <ele>223</ele>
        <time>2018-07-07T10:27:28Z</time>
      </trkpt>
      <trkpt lat="45.88823" lon="4.61498">
        <ele>223</ele>
        <time>2018-07-07T10:27:29Z</time>
      </trkpt>
      <trkpt lat="45.8882" lon="4.61505">
        <ele>223</ele>
        <time>2018-07-07T10:27:30Z</time>
      </trkpt>
      <trkpt lat="45.88817" lon="4.61513">
        <ele>223</ele>
        <time>2018-07-07T10:27:31Z</time>
      </trkpt>
      <trkpt lat="45.88814" lon="4.61521">
        <ele>223</ele>
        <time>2018-07-07T10:27:32Z</time>
      </trkpt>
      <trkpt lat="45.88811" lon="4.61529">
        <ele>223</ele>
        <time>2018-07-07T10:27:33Z</time>
      </trkpt>
      <trkpt lat="45.88808" lon="4.61538">
        <ele>223</ele>
        <time>2018-07-07T10:27:34Z</time>
      </trkpt>
      <trkpt lat="45.88804" lon="4.61544">
        <ele>223</ele>
        <time>2018-07-07T10:27:35Z</time>
      </trkpt>
      <trkpt lat="45.88799" lon="4.61549">
        <ele>223</ele>
        <time>2018-07-07T10:27:36Z</time>
      </trkpt>
      <trkpt lat="45.88796" lon="4.61557">
        <ele>223</ele>
        <time>2018-07-07T10:27:37Z</time>
      </trkpt>
      <trkpt lat="45.88794" lon="4.61565">
        <ele>223</ele>
        <time>2018-07-07T10:27:38Z</time>
      </trkpt>
      <trkpt lat="45.88791" lon="4.61573">
        <ele>223</ele>
        <time>2018-07-07T10:27:39Z</time>
      </trkpt>
      <trkpt lat="45.88789" lon="4.61581">
        <ele>223</ele>
        <time>2018-07-07T10:27:40Z</time>
      </trkpt>
      <trkpt lat="45.88787" lon="4.61592">
        <ele>223</ele>
        <time>2018-07-07T10:27:41Z</time>
      </trkpt>
      <trkpt lat="45.88787" lon="4.61602">
        <ele>223</ele>
        <time>2018-07-07T10:27:42Z</time>
      </trkpt>
      <trkpt lat="45.88784" lon="4.61611">
        <ele>223</ele>
        <time>2018-07-07T10:27:43Z</time>
      </trkpt>
      <trkpt lat="45.88782" lon="4.61621">
        <ele>224</ele>
        <time>2018-07-07T10:27:44Z</time>
      </trkpt>
      <trkpt lat="45.8878" lon="4.61635">
        <ele>224</ele>
        <time>2018-07-07T10:27:45Z</time>
      </trkpt>
      <trkpt lat="45.88777" lon="4.61643">
        <ele>224</ele>
        <time>2018-07-07T10:27:46Z</time>
      </trkpt>
      <trkpt lat="45.88773" lon="4.61652">
        <ele>224</ele>
        <time>2018-07-07T10:27:47Z</time>
      </trkpt>
      <trkpt lat="45.88769" lon="4.61661">
        <ele>223</ele>
        <time>2018-07-07T10:27:48Z</time>
      </trkpt>
      <trkpt lat="45.88766" lon="4.6167">
        <ele>224</ele>
        <time>2018-07-07T10:27:49Z</time>
      </trkpt>
      <trkpt lat="45.88764" lon="4.61679">
        <ele>224</ele>
        <time>2018-07-07T10:27:50Z</time>
      </trkpt>
      <trkpt lat="45.88761" lon="4.61688">
        <ele>224</ele>
        <time>2018-07-07T10:27:51Z</time>
      </trkpt>
      <trkpt lat="45.88758" lon="4.61697">
        <ele>224</ele>
        <time>2018-07-07T10:27:52Z</time>
      </trkpt>
      <trkpt lat="45.88756" lon="4.61705">
        <ele>223</ele>
        <time>2018-07-07T10:27:53Z</time>
      </trkpt>
      <trkpt lat="45.88752" lon="4.61713">
        <ele>223</ele>
        <time>2018-07-07T10:27:54Z</time>
      </trkpt>
      <trkpt lat="45.88749" lon="4.61721">
        <ele>222</ele>
        <time>2018-07-07T10:27:55Z</time>
      </trkpt>
      <trkpt lat="45.88746" lon="4.61729">
        <ele>222</ele>
        <time>2018-07-07T10:27:56Z</time>
      </trkpt>
      <trkpt lat="45.88743" lon="4.61738">
        <ele>222</ele>
        <time>2018-07-07T10:27:57Z</time>
      </trkpt>
      <trkpt lat="45.88741" lon="4.61745">
        <ele>222</ele>
        <time>2018-07-07T10:27:58Z</time>
      </trkpt>
      <trkpt lat="45.88738" lon="4.61753">
        <ele>222</ele>
        <time>2018-07-07T10:27:59Z</time>
      </trkpt>
      <trkpt lat="45.88735" lon="4.61762">
        <ele>222</ele>
        <time>2018-07-07T10:28:00Z</time>
      </trkpt>
      <trkpt lat="45.88733" lon="4.61771">
        <ele>222</ele>
        <time>2018-07-07T10:28:01Z</time>
      </trkpt>
      <trkpt lat="45.8873" lon="4.6178">
        <ele>222</ele>
        <time>2018-07-07T10:28:02Z</time>
      </trkpt>
      <trkpt lat="45.88727" lon="4.61789">
        <ele>222</ele>
        <time>2018-07-07T10:28:03Z</time>
      </trkpt>
      <trkpt lat="45.88724" lon="4.61799">
        <ele>222</ele>
        <time>2018-07-07T10:28:04Z</time>
      </trkpt>
      <trkpt lat="45.88721" lon="4.61808">
        <ele>222</ele>
        <time>2018-07-07T10:28:05Z</time>
      </trkpt>
      <trkpt lat="45.88718" lon="4.61818">
        <ele>222</ele>
        <time>2018-07-07T10:28:06Z</time>
      </trkpt>
      <trkpt lat="45.88715" lon="4.61827">
        <ele>222</ele>
        <time>2018-07-07T10:28:07Z</time>
      </trkpt>
      <trkpt lat="45.88711" lon="4.61836">
        <ele>222</ele>
        <time>2018-07-07T10:28:08Z</time>
      </trkpt>
      <trkpt lat="45.88709" lon="4.61844">
        <ele>222</ele>
        <time>2018-07-07T10:28:09Z</time>
      </trkpt>
      <trkpt lat="45.88707" lon="4.61855">
        <ele>222</ele>
        <time>2018-07-07T10:28:10Z</time>
      </trkpt>
      <trkpt lat="45.88705" lon="4.61864">
        <ele>222</ele>
        <time>2018-07-07T10:28:11Z</time>
      </trkpt>
      <trkpt lat="45.88701" lon="4.61872">
        <ele>222</ele>
        <time>2018-07-07T10:28:12Z</time>
      </trkpt>
      <trkpt lat="45.88699" lon="4.61881">
        <ele>222</ele>
        <time>2018-07-07T10:28:13Z</time>
      </trkpt>
      <trkpt lat="45.88695" lon="4.6189">
        <ele>222</ele>
        <time>2018-07-07T10:28:14Z</time>
      </trkpt>
      <trkpt lat="45.88691" lon="4.61897">
        <ele>222</ele>
        <time>2018-07-07T10:28:15Z</time>
      </trkpt>
      <trkpt lat="45.88689" lon="4.61905">
        <ele>222</ele>
        <time>2018-07-07T10:28:16Z</time>
      </trkpt>
      <trkpt lat="45.88685" lon="4.61913">
        <ele>222</ele>
        <time>2018-07-07T10:28:17Z</time>
      </trkpt>
      <trkpt lat="45.88682" lon="4.61923">
        <ele>222</ele>
        <time>2018-07-07T10:28:18Z</time>
      </trkpt>
      <trkpt lat="45.88679" lon="4.61934">
        <ele>222</ele>
        <time>2018-07-07T10:28:19Z</time>
      </trkpt>
      <trkpt lat="45.88676" lon="4.61944">
        <ele>223</ele>
        <time>2018-07-07T10:28:20Z</time>
      </trkpt>
      <trkpt lat="45.88673" lon="4.61955">
        <ele>223</ele>
        <time>2018-07-07T10:28:21Z</time>
      </trkpt>
      <trkpt lat="45.8867" lon="4.61965">
        <ele>223</ele>
        <time>2018-07-07T10:28:22Z</time>
      </trkpt>
      <trkpt lat="45.88667" lon="4.61975">
        <ele>223</ele>
        <time>2018-07-07T10:28:23Z</time>
      </trkpt>
      <trkpt lat="45.88666" lon="4.61984">
        <ele>222</ele>
        <time>2018-07-07T10:28:24Z</time>
      </trkpt>
      <trkpt lat="45.88663" lon="4.61994">
        <ele>222</ele>
        <time>2018-07-07T10:28:25Z</time>
      </trkpt>
      <trkpt lat="45.8866" lon="4.62004">
        <ele>222</ele>
        <time>2018-07-07T10:28:26Z</time>
      </trkpt>
      <trkpt lat="45.88657" lon="4.62013">
        <ele>222</ele>
        <time>2018-07-07T10:28:27Z</time>
      </trkpt>
      <trkpt lat="45.88653" lon="4.62023">
        <ele>222</ele>
        <time>2018-07-07T10:28:28Z</time>
      </trkpt>
      <trkpt lat="45.8865" lon="4.62032">
        <ele>223</ele>
        <time>2018-07-07T10:28:29Z</time>
      </trkpt>
      <trkpt lat="45.88646" lon="4.62043">
        <ele>223</ele>
        <time>2018-07-07T10:28:30Z</time>
      </trkpt>
      <trkpt lat="45.88643" lon="4.62053">
        <ele>223</ele>
        <time>2018-07-07T10:28:31Z</time>
      </trkpt>
      <trkpt lat="45.88639" lon="4.62064">
        <ele>223</ele>
        <time>2018-07-07T10:28:32Z</time>
      </trkpt>
      <trkpt lat="45.88637" lon="4.62074">
        <ele>223</ele>
        <time>2018-07-07T10:28:33Z</time>
      </trkpt>
      <trkpt lat="45.88634" lon="4.62084">
        <ele>223</ele>
        <time>2018-07-07T10:28:34Z</time>
      </trkpt>
      <trkpt lat="45.88632" lon="4.62094">
        <ele>223</ele>
        <time>2018-07-07T10:28:35Z</time>
      </trkpt>
      <trkpt lat="45.88628" lon="4.62103">
        <ele>223</ele>
        <time>2018-07-07T10:28:36Z</time>
      </trkpt>
      <trkpt lat="45.88624" lon="4.62113">
        <ele>223</ele>
        <time>2018-07-07T10:28:37Z</time>
      </trkpt>
      <trkpt lat="45.88618" lon="4.62121">
        <ele>223</ele>
        <time>2018-07-07T10:28:38Z</time>
      </trkpt>
      <trkpt lat="45.88613" lon="4.62129">
        <ele>223</ele>
        <time>2018-07-07T10:28:39Z</time>
      </trkpt>
      <trkpt lat="45.88611" lon="4.62139">
        <ele>223</ele>
        <time>2018-07-07T10:28:40Z</time>
      </trkpt>
      <trkpt lat="45.88607" lon="4.62148">
        <ele>222</ele>
        <time>2018-07-07T10:28:41Z</time>
      </trkpt>
      <trkpt lat="45.88605" lon="4.62157">
        <ele>222</ele>
        <time>2018-07-07T10:28:42Z</time>
      </trkpt>
      <trkpt lat="45.88602" lon="4.62165">
        <ele>222</ele>
        <time>2018-07-07T10:28:43Z</time>
      </trkpt>
      <trkpt lat="45.88599" lon="4.62173">
        <ele>222</ele>
        <time>2018-07-07T10:28:44Z</time>
      </trkpt>
      <trkpt lat="45.88596" lon="4.6218">
        <ele>222</ele>
        <time>2018-07-07T10:28:45Z</time>
      </trkpt>
      <trkpt lat="45.88593" lon="4.62188">
        <ele>222</ele>
        <time>2018-07-07T10:28:46Z</time>
      </trkpt>
      <trkpt lat="45.8859" lon="4.62196">
        <ele>222</ele>
        <time>2018-07-07T10:28:47Z</time>
      </trkpt>
      <trkpt lat="45.88587" lon="4.62204">
        <ele>222</ele>
        <time>2018-07-07T10:28:48Z</time>
      </trkpt>
      <trkpt lat="45.88583" lon="4.62214">
        <ele>221</ele>
        <time>2018-07-07T10:28:49Z</time>
      </trkpt>
      <trkpt lat="45.88581" lon="4.62222">
        <ele>221</ele>
        <time>2018-07-07T10:28:50Z</time>
      </trkpt>
      <trkpt lat="45.88577" lon="4.62231">
        <ele>221</ele>
        <time>2018-07-07T10:28:51Z</time>
      </trkpt>
      <trkpt lat="45.88573" lon="4.62239">
        <ele>221</ele>
        <time>2018-07-07T10:28:52Z</time>
      </trkpt>
      <trkpt lat="45.88571" lon="4.62246">
        <ele>221</ele>
        <time>2018-07-07T10:28:53Z</time>
      </trkpt>
      <trkpt lat="45.88568" lon="4.62253">
        <ele>221</ele>
        <time>2018-07-07T10:28:54Z</time>
      </trkpt>
      <trkpt lat="45.88565" lon="4.62262">
        <ele>221</ele>
        <time>2018-07-07T10:28:55Z</time>
      </trkpt>
      <trkpt lat="45.88561" lon="4.62272">
        <ele>221</ele>
        <time>2018-07-07T10:28:56Z</time>
      </trkpt>
      <trkpt lat="45.88556" lon="4.6228">
        <ele>221</ele>
        <time>2018-07-07T10:28:57Z</time>
      </trkpt>
      <trkpt lat="45.88553" lon="4.62286">
        <ele>221</ele>
        <time>2018-07-07T10:28:58Z</time>
      </trkpt>
      <trkpt lat="45.8855" lon="4.62296">
        <ele>221</ele>
        <time>2018-07-07T10:28:59Z</time>
      </trkpt>
      <trkpt lat="45.88546" lon="4.62306">
        <ele>221</ele>
        <time>2018-07-07T10:29:00Z</time>
      </trkpt>
      <trkpt lat="45.88542" lon="4.62316">
        <ele>221</ele>
        <time>2018-07-07T10:29:01Z</time>
      </trkpt>
      <trkpt lat="45.88537" lon="4.62325">
        <ele>221</ele>
        <time>2018-07-07T10:29:02Z</time>
      </trkpt>
      <trkpt lat="45.88535" lon="4.62335">
        <ele>220</ele>
        <time>2018-07-07T10:29:03Z</time>
      </trkpt>
      <trkpt lat="45.88531" lon="4.62342">
        <ele>220</ele>
        <time>2018-07-07T10:29:04Z</time>
      </trkpt>
      <trkpt lat="45.88526" lon="4.62351">
        <ele>220</ele>
        <time>2018-07-07T10:29:05Z</time>
      </trkpt>
      <trkpt lat="45.88522" lon="4.62362">
        <ele>220</ele>
        <time>2018-07-07T10:29:06Z</time>
      </trkpt>
      <trkpt lat="45.88519" lon="4.62371">
        <ele>220</ele>
        <time>2018-07-07T10:29:07Z</time>
      </trkpt>
      <trkpt lat="45.88514" lon="4.6238">
        <ele>220</ele>
        <time>2018-07-07T10:29:08Z</time>
      </trkpt>
      <trkpt lat="45.88511" lon="4.62389">
        <ele>220</ele>
        <time>2018-07-07T10:29:09Z</time>
      </trkpt>
      <trkpt lat="45.88508" lon="4.62399">
        <ele>220</ele>
        <time>2018-07-07T10:29:10Z</time>
      </trkpt>
      <trkpt lat="45.88505" lon="4.62408">
        <ele>220</ele>
        <time>2018-07-07T10:29:11Z</time>
      </trkpt>
      <trkpt lat="45.88501" lon="4.62418">
        <ele>220</ele>
        <time>2018-07-07T10:29:12Z</time>
      </trkpt>
      <trkpt lat="45.88499" lon="4.62427">
        <ele>220</ele>
        <time>2018-07-07T10:29:13Z</time>
      </trkpt>
      <trkpt lat="45.88496" lon="4.62436">
        <ele>219</ele>
        <time>2018-07-07T10:29:14Z</time>
      </trkpt>
      <trkpt lat="45.88491" lon="4.62446">
        <ele>219</ele>
        <time>2018-07-07T10:29:15Z</time>
      </trkpt>
      <trkpt lat="45.88487" lon="4.62455">
        <ele>219</ele>
        <time>2018-07-07T10:29:16Z</time>
      </trkpt>
      <trkpt lat="45.88484" lon="4.62465">
        <ele>219</ele>
        <time>2018-07-07T10:29:17Z</time>
      </trkpt>
      <trkpt lat="45.8848" lon="4.62475">
        <ele>219</ele>
        <time>2018-07-07T10:29:18Z</time>
      </trkpt>
      <trkpt lat="45.88475" lon="4.62483">
        <ele>219</ele>
        <time>2018-07-07T10:29:19Z</time>
      </trkpt>
      <trkpt lat="45.88471" lon="4.62493">
        <ele>219</ele>
        <time>2018-07-07T10:29:20Z</time>
      </trkpt>
      <trkpt lat="45.88467" lon="4.62503">
        <ele>219</ele>
        <time>2018-07-07T10:29:21Z</time>
      </trkpt>
      <trkpt lat="45.88464" lon="4.62513">
        <ele>219</ele>
        <time>2018-07-07T10:29:22Z</time>
      </trkpt>
      <trkpt lat="45.88461" lon="4.62522">
        <ele>219</ele>
        <time>2018-07-07T10:29:23Z</time>
      </trkpt>
      <trkpt lat="45.88458" lon="4.62533">
        <ele>219</ele>
        <time>2018-07-07T10:29:24Z</time>
      </trkpt>
      <trkpt lat="45.88455" lon="4.62542">
        <ele>218</ele>
        <time>2018-07-07T10:29:25Z</time>
      </trkpt>
      <trkpt lat="45.88452" lon="4.62551">
        <ele>218</ele>
        <time>2018-07-07T10:29:26Z</time>
      </trkpt>
      <trkpt lat="45.88449" lon="4.62561">
        <ele>218</ele>
        <time>2018-07-07T10:29:27Z</time>
      </trkpt>
      <trkpt lat="45.88447" lon="4.62571">
        <ele>218</ele>
        <time>2018-07-07T10:29:28Z</time>
      </trkpt>
      <trkpt lat="45.88444" lon="4.62581">
        <ele>218</ele>
        <time>2018-07-07T10:29:29Z</time>
      </trkpt>
      <trkpt lat="45.88441" lon="4.62589">
        <ele>218</ele>
        <time>2018-07-07T10:29:30Z</time>
      </trkpt>
      <trkpt lat="45.88438" lon="4.62597">
        <ele>218</ele>
        <time>2018-07-07T10:29:31Z</time>
      </trkpt>
      <trkpt lat="45.88435" lon="4.62605">
        <ele>218</ele>
        <time>2018-07-07T10:29:32Z</time>
      </trkpt>
      <trkpt lat="45.88432" lon="4.62613">
        <ele>218</ele>
        <time>2018-07-07T10:29:33Z</time>
      </trkpt>
      <trkpt lat="45.88429" lon="4.62622">
        <ele>218</ele>
        <time>2018-07-07T10:29:34Z</time>
      </trkpt>
      <trkpt lat="45.88426" lon="4.62631">
        <ele>219</ele>
        <time>2018-07-07T10:29:35Z</time>
      </trkpt>
      <trkpt lat="45.88423" lon="4.6264">
        <ele>219</ele>
        <time>2018-07-07T10:29:36Z</time>
      </trkpt>
      <trkpt lat="45.8842" lon="4.62649">
        <ele>219</ele>
        <time>2018-07-07T10:29:37Z</time>
      </trkpt>
      <trkpt lat="45.88417" lon="4.62657">
        <ele>219</ele>
        <time>2018-07-07T10:29:38Z</time>
      </trkpt>
      <trkpt lat="45.88414" lon="4.62666">
        <ele>219</ele>
        <time>2018-07-07T10:29:39Z</time>
      </trkpt>
      <trkpt lat="45.88411" lon="4.62675">
        <ele>219</ele>
        <time>2018-07-07T10:29:40Z</time>
      </trkpt>
      <trkpt lat="45.88408" lon="4.62685">
        <ele>218</ele>
        <time>2018-07-07T10:29:41Z</time>
      </trkpt>
      <trkpt lat="45.88405" lon="4.62694">
        <ele>218</ele>
        <time>2018-07-07T10:29:42Z</time>
      </trkpt>
      <trkpt lat="45.88401" lon="4.62701">
        <ele>218</ele>
        <time>2018-07-07T10:29:43Z</time>
      </trkpt>
      <trkpt lat="45.88397" lon="4.62709">
        <ele>218</ele>
        <time>2018-07-07T10:29:44Z</time>
      </trkpt>
      <trkpt lat="45.88393" lon="4.62717">
        <ele>218</ele>
        <time>2018-07-07T10:29:45Z</time>
      </trkpt>
      <trkpt lat="45.88389" lon="4.62725">
        <ele>218</ele>
        <time>2018-07-07T10:29:46Z</time>
      </trkpt>
      <trkpt lat="45.88384" lon="4.62732">
        <ele>218</ele>
        <time>2018-07-07T10:29:47Z</time>
      </trkpt>
      <trkpt lat="45.88381" lon="4.62742">
        <ele>218</ele>
        <time>2018-07-07T10:29:48Z</time>
      </trkpt>
      <trkpt lat="45.88377" lon="4.6275">
        <ele>218</ele>
        <time>2018-07-07T10:29:49Z</time>
      </trkpt>
      <trkpt lat="45.88373" lon="4.62758">
        <ele>218</ele>
        <time>2018-07-07T10:29:50Z</time>
      </trkpt>
      <trkpt lat="45.88368" lon="4.62767">
        <ele>218</ele>
        <time>2018-07-07T10:29:51Z</time>
      </trkpt>
      <trkpt lat="45.88364" lon="4.62775">
        <ele>218</ele>
        <time>2018-07-07T10:29:52Z</time>
      </trkpt>
      <trkpt lat="45.88363" lon="4.62783">
        <ele>218</ele>
        <time>2018-07-07T10:29:53Z</time>
      </trkpt>
      <trkpt lat="45.88359" lon="4.62792">
        <ele>218</ele>
        <time>2018-07-07T10:29:54Z</time>
      </trkpt>
      <trkpt lat="45.88354" lon="4.628">
        <ele>218</ele>
        <time>2018-07-07T10:29:55Z</time>
      </trkpt>
      <trkpt lat="45.88349" lon="4.62807">
        <ele>218</ele>
        <time>2018-07-07T10:29:56Z</time>
      </trkpt>
      <trkpt lat="45.88344" lon="4.62815">
        <ele>218</ele>
        <time>2018-07-07T10:29:57Z</time>
      </trkpt>
      <trkpt lat="45.88339" lon="4.62825">
        <ele>219</ele>
        <time>2018-07-07T10:29:58Z</time>
      </trkpt>
      <trkpt lat="45.88334" lon="4.62833">
        <ele>219</ele>
        <time>2018-07-07T10:29:59Z</time>
      </trkpt>
      <trkpt lat="45.88328" lon="4.62842">
        <ele>219</ele>
        <time>2018-07-07T10:30:00Z</time>
      </trkpt>
      <trkpt lat="45.88323" lon="4.62851">
        <ele>218</ele>
        <time>2018-07-07T10:30:01Z</time>
      </trkpt>
      <trkpt lat="45.88317" lon="4.62862">
        <ele>218</ele>
        <time>2018-07-07T10:30:02Z</time>
      </trkpt>
      <trkpt lat="45.88312" lon="4.62869">
        <ele>218</ele>
        <time>2018-07-07T10:30:03Z</time>
      </trkpt>
      <trkpt lat="45.88308" lon="4.62877">
        <ele>218</ele>
        <time>2018-07-07T10:30:04Z</time>
      </trkpt>
      <trkpt lat="45.88303" lon="4.62885">
        <ele>218</ele>
        <time>2018-07-07T10:30:05Z</time>
      </trkpt>
      <trkpt lat="45.88298" lon="4.62892">
        <ele>218</ele>
        <time>2018-07-07T10:30:06Z</time>
      </trkpt>
      <trkpt lat="45.88294" lon="4.62901">
        <ele>218</ele>
        <time>2018-07-07T10:30:07Z</time>
      </trkpt>
      <trkpt lat="45.88289" lon="4.62909">
        <ele>218</ele>
        <time>2018-07-07T10:30:08Z</time>
      </trkpt>
      <trkpt lat="45.88284" lon="4.62915">
        <ele>218</ele>
        <time>2018-07-07T10:30:09Z</time>
      </trkpt>
      <trkpt lat="45.88279" lon="4.62923">
        <ele>218</ele>
        <time>2018-07-07T10:30:10Z</time>
      </trkpt>
      <trkpt lat="45.88275" lon="4.62928">
        <ele>217</ele>
        <time>2018-07-07T10:30:11Z</time>
      </trkpt>
      <trkpt lat="45.8827" lon="4.62936">
        <ele>217</ele>
        <time>2018-07-07T10:30:12Z</time>
      </trkpt>
      <trkpt lat="45.88266" lon="4.62943">
        <ele>217</ele>
        <time>2018-07-07T10:30:13Z</time>
      </trkpt>
      <trkpt lat="45.88262" lon="4.62952">
        <ele>217</ele>
        <time>2018-07-07T10:30:14Z</time>
      </trkpt>
      <trkpt lat="45.88258" lon="4.62959">
        <ele>217</ele>
        <time>2018-07-07T10:30:15Z</time>
      </trkpt>
      <trkpt lat="45.88253" lon="4.62967">
        <ele>217</ele>
        <time>2018-07-07T10:30:16Z</time>
      </trkpt>
      <trkpt lat="45.88248" lon="4.62975">
        <ele>217</ele>
        <time>2018-07-07T10:30:17Z</time>
      </trkpt>
      <trkpt lat="45.88243" lon="4.62983">
        <ele>217</ele>
        <time>2018-07-07T10:30:18Z</time>
      </trkpt>
      <trkpt lat="45.88238" lon="4.62991">
        <ele>217</ele>
        <time>2018-07-07T10:30:19Z</time>
      </trkpt>
      <trkpt lat="45.88234" lon="4.62999">
        <ele>217</ele>
        <time>2018-07-07T10:30:20Z</time>
      </trkpt>
      <trkpt lat="45.8823" lon="4.63009">
        <ele>217</ele>
        <time>2018-07-07T10:30:21Z</time>
      </trkpt>
      <trkpt lat="45.88226" lon="4.63019">
        <ele>217</ele>
        <time>2018-07-07T10:30:22Z</time>
      </trkpt>
      <trkpt lat="45.88221" lon="4.6303">
        <ele>217</ele>
        <time>2018-07-07T10:30:23Z</time>
      </trkpt>
      <trkpt lat="45.88218" lon="4.63037">
        <ele>217</ele>
        <time>2018-07-07T10:30:24Z</time>
      </trkpt>
      <trkpt lat="45.88216" lon="4.63046">
        <ele>217</ele>
        <time>2018-07-07T10:30:25Z</time>
      </trkpt>
      <trkpt lat="45.88214" lon="4.63056">
        <ele>217</ele>
        <time>2018-07-07T10:30:26Z</time>
      </trkpt>
      <trkpt lat="45.88208" lon="4.63066">
        <ele>217</ele>
        <time>2018-07-07T10:30:27Z</time>
      </trkpt>
      <trkpt lat="45.88205" lon="4.63075">
        <ele>217</ele>
        <time>2018-07-07T10:30:28Z</time>
      </trkpt>
      <trkpt lat="45.88201" lon="4.63085">
        <ele>217</ele>
        <time>2018-07-07T10:30:29Z</time>
      </trkpt>
      <trkpt lat="45.88198" lon="4.63095">
        <ele>217</ele>
        <time>2018-07-07T10:30:30Z</time>
      </trkpt>
      <trkpt lat="45.88196" lon="4.63105">
        <ele>217</ele>
        <time>2018-07-07T10:30:31Z</time>
      </trkpt>
      <trkpt lat="45.88193" lon="4.63116">
        <ele>217</ele>
        <time>2018-07-07T10:30:32Z</time>
      </trkpt>
      <trkpt lat="45.88189" lon="4.63125">
        <ele>217</ele>
        <time>2018-07-07T10:30:33Z</time>
      </trkpt>
      <trkpt lat="45.88187" lon="4.63136">
        <ele>217</ele>
        <time>2018-07-07T10:30:34Z</time>
      </trkpt>
      <trkpt lat="45.88184" lon="4.63146">
        <ele>217</ele>
        <time>2018-07-07T10:30:35Z</time>
      </trkpt>
      <trkpt lat="45.88183" lon="4.63155">
        <ele>217</ele>
        <time>2018-07-07T10:30:36Z</time>
      </trkpt>
      <trkpt lat="45.8818" lon="4.63164">
        <ele>217</ele>
        <time>2018-07-07T10:30:37Z</time>
      </trkpt>
      <trkpt lat="45.88178" lon="4.63175">
        <ele>217</ele>
        <time>2018-07-07T10:30:38Z</time>
      </trkpt>
      <trkpt lat="45.88176" lon="4.63184">
        <ele>217</ele>
        <time>2018-07-07T10:30:39Z</time>
      </trkpt>
      <trkpt lat="45.88174" lon="4.63193">
        <ele>217</ele>
        <time>2018-07-07T10:30:40Z</time>
      </trkpt>
      <trkpt lat="45.88171" lon="4.63205">
        <ele>217</ele>
        <time>2018-07-07T10:30:41Z</time>
      </trkpt>
      <trkpt lat="45.88169" lon="4.63216">
        <ele>217</ele>
        <time>2018-07-07T10:30:42Z</time>
      </trkpt>
      <trkpt lat="45.88167" lon="4.63225">
        <ele>216</ele>
        <time>2018-07-07T10:30:43Z</time>
      </trkpt>
      <trkpt lat="45.88166" lon="4.63234">
        <ele>217</ele>
        <time>2018-07-07T10:30:44Z</time>
      </trkpt>
      <trkpt lat="45.88164" lon="4.63243">
        <ele>217</ele>
        <time>2018-07-07T10:30:45Z</time>
      </trkpt>
      <trkpt lat="45.88162" lon="4.63253">
        <ele>216</ele>
        <time>2018-07-07T10:30:46Z</time>
      </trkpt>
      <trkpt lat="45.8816" lon="4.63262">
        <ele>216</ele>
        <time>2018-07-07T10:30:47Z</time>
      </trkpt>
      <trkpt lat="45.88159" lon="4.63273">
        <ele>216</ele>
        <time>2018-07-07T10:30:48Z</time>
      </trkpt>
      <trkpt lat="45.88156" lon="4.63283">
        <ele>217</ele>
        <time>2018-07-07T10:30:49Z</time>
      </trkpt>
      <trkpt lat="45.88155" lon="4.63294">
        <ele>217</ele>
        <time>2018-07-07T10:30:50Z</time>
      </trkpt>
      <trkpt lat="45.88154" lon="4.63304">
        <ele>216</ele>
        <time>2018-07-07T10:30:51Z</time>
      </trkpt>
      <trkpt lat="45.88152" lon="4.63314">
        <ele>216</ele>
        <time>2018-07-07T10:30:52Z</time>
      </trkpt>
      <trkpt lat="45.88151" lon="4.63322">
        <ele>216</ele>
        <time>2018-07-07T10:30:53Z</time>
      </trkpt>
      <trkpt lat="45.88149" lon="4.63332">
        <ele>216</ele>
        <time>2018-07-07T10:30:54Z</time>
      </trkpt>
      <trkpt lat="45.88147" lon="4.63341">
        <ele>216</ele>
        <time>2018-07-07T10:30:55Z</time>
      </trkpt>
      <trkpt lat="45.88145" lon="4.6335">
        <ele>216</ele>
        <time>2018-07-07T10:30:56Z</time>
      </trkpt>
      <trkpt lat="45.88143" lon="4.6336">
        <ele>216</ele>
        <time>2018-07-07T10:30:57Z</time>
      </trkpt>
      <trkpt lat="45.88142" lon="4.6337">
        <ele>216</ele>
        <time>2018-07-07T10:30:58Z</time>
      </trkpt>
      <trkpt lat="45.88141" lon="4.63379">
        <ele>216</ele>
        <time>2018-07-07T10:30:59Z</time>
      </trkpt>
      <trkpt lat="45.8814" lon="4.63388">
        <ele>216</ele>
        <time>2018-07-07T10:31:00Z</time>
      </trkpt>
      <trkpt lat="45.88139" lon="4.63397">
        <ele>216</ele>
        <time>2018-07-07T10:31:01Z</time>
      </trkpt>
      <trkpt lat="45.88137" lon="4.63405">
        <ele>216</ele>
        <time>2018-07-07T10:31:02Z</time>
      </trkpt>
      <trkpt lat="45.88136" lon="4.63414">
        <ele>216</ele>
        <time>2018-07-07T10:31:03Z</time>
      </trkpt>
      <trkpt lat="45.88133" lon="4.63423">
        <ele>216</ele>
        <time>2018-07-07T10:31:04Z</time>
      </trkpt>
      <trkpt lat="45.88131" lon="4.63431">
        <ele>216</ele>
        <time>2018-07-07T10:31:05Z</time>
      </trkpt>
      <trkpt lat="45.88129" lon="4.6344">
        <ele>216</ele>
        <time>2018-07-07T10:31:06Z</time>
      </trkpt>
      <trkpt lat="45.88127" lon="4.6345">
        <ele>216</ele>
        <time>2018-07-07T10:31:07Z</time>
      </trkpt>
      <trkpt lat="45.88125" lon="4.63458">
        <ele>216</ele>
        <time>2018-07-07T10:31:08Z</time>
      </trkpt>
      <trkpt lat="45.88122" lon="4.63468">
        <ele>217</ele>
        <time>2018-07-07T10:31:09Z</time>
      </trkpt>
      <trkpt lat="45.8812" lon="4.63476">
        <ele>217</ele>
        <time>2018-07-07T10:31:10Z</time>
      </trkpt>
      <trkpt lat="45.88119" lon="4.63485">
        <ele>217</ele>
        <time>2018-07-07T10:31:11Z</time>
      </trkpt>
      <trkpt lat="45.88116" lon="4.63495">
        <ele>217</ele>
        <time>2018-07-07T10:31:12Z</time>
      </trkpt>
      <trkpt lat="45.88113" lon="4.63505">
        <ele>217</ele>
        <time>2018-07-07T10:31:13Z</time>
      </trkpt>
      <trkpt lat="45.8811" lon="4.63514">
        <ele>217</ele>
        <time>2018-07-07T10:31:14Z</time>
      </trkpt>
      <trkpt lat="45.88107" lon="4.63523">
        <ele>217</ele>
        <time>2018-07-07T10:31:15Z</time>
      </trkpt>
      <trkpt lat="45.88104" lon="4.63532">
        <ele>216</ele>
        <time>2018-07-07T10:31:16Z</time>
      </trkpt>
      <trkpt lat="45.88102" lon="4.63541">
        <ele>216</ele>
        <time>2018-07-07T10:31:17Z</time>
      </trkpt>
      <trkpt lat="45.88099" lon="4.63548">
        <ele>216</ele>
        <time>2018-07-07T10:31:18Z</time>
      </trkpt>
      <trkpt lat="45.88096" lon="4.63557">
        <ele>216</ele>
        <time>2018-07-07T10:31:19Z</time>
      </trkpt>
      <trkpt lat="45.88093" lon="4.63566">
        <ele>216</ele>
        <time>2018-07-07T10:31:20Z</time>
      </trkpt>
      <trkpt lat="45.88091" lon="4.63574">
        <ele>216</ele>
        <time>2018-07-07T10:31:21Z</time>
      </trkpt>
      <trkpt lat="45.88087" lon="4.63582">
        <ele>216</ele>
        <time>2018-07-07T10:31:22Z</time>
      </trkpt>
      <trkpt lat="45.88084" lon="4.63591">
        <ele>216</ele>
        <time>2018-07-07T10:31:23Z</time>
      </trkpt>
      <trkpt lat="45.8808" lon="4.636">
        <ele>216</ele>
        <time>2018-07-07T10:31:24Z</time>
      </trkpt>
      <trkpt lat="45.88076" lon="4.63608">
        <ele>216</ele>
        <time>2018-07-07T10:31:25Z</time>
      </trkpt>
      <trkpt lat="45.88073" lon="4.63617">
        <ele>216</ele>
        <time>2018-07-07T10:31:26Z</time>
      </trkpt>
      <trkpt lat="45.88069" lon="4.63625">
        <ele>216</ele>
        <time>2018-07-07T10:31:27Z</time>
      </trkpt>
      <trkpt lat="45.88065" lon="4.63633">
        <ele>215</ele>
        <time>2018-07-07T10:31:28Z</time>
      </trkpt>
      <trkpt lat="45.8806" lon="4.63641">
        <ele>215</ele>
        <time>2018-07-07T10:31:29Z</time>
      </trkpt>
      <trkpt lat="45.88056" lon="4.6365">
        <ele>215</ele>
        <time>2018-07-07T10:31:30Z</time>
      </trkpt>
      <trkpt lat="45.88052" lon="4.6366">
        <ele>215</ele>
        <time>2018-07-07T10:31:31Z</time>
      </trkpt>
      <trkpt lat="45.88048" lon="4.63669">
        <ele>214</ele>
        <time>2018-07-07T10:31:32Z</time>
      </trkpt>
      <trkpt lat="45.88043" lon="4.63677">
        <ele>214</ele>
        <time>2018-07-07T10:31:33Z</time>
      </trkpt>
      <trkpt lat="45.88039" lon="4.63685">
        <ele>214</ele>
        <time>2018-07-07T10:31:34Z</time>
      </trkpt>
      <trkpt lat="45.88035" lon="4.63694">
        <ele>214</ele>
        <time>2018-07-07T10:31:35Z</time>
      </trkpt>
      <trkpt lat="45.88031" lon="4.63704">
        <ele>214</ele>
        <time>2018-07-07T10:31:36Z</time>
      </trkpt>
      <trkpt lat="45.88027" lon="4.6371">
        <ele>214</ele>
        <time>2018-07-07T10:31:37Z</time>
      </trkpt>
      <trkpt lat="45.88024" lon="4.63717">
        <ele>214</ele>
        <time>2018-07-07T10:31:38Z</time>
      </trkpt>
      <trkpt lat="45.88017" lon="4.63723">
        <ele>214</ele>
        <time>2018-07-07T10:31:39Z</time>
      </trkpt>
      <trkpt lat="45.88011" lon="4.63729">
        <ele>214</ele>
        <time>2018-07-07T10:31:40Z</time>
      </trkpt>
      <trkpt lat="45.88007" lon="4.63736">
        <ele>213</ele>
        <time>2018-07-07T10:31:41Z</time>
      </trkpt>
      <trkpt lat="45.88003" lon="4.63744">
        <ele>213</ele>
        <time>2018-07-07T10:31:42Z</time>
      </trkpt>
      <trkpt lat="45.87998" lon="4.63751">
        <ele>213</ele>
        <time>2018-07-07T10:31:43Z</time>
      </trkpt>
      <trkpt lat="45.87993" lon="4.63758">
        <ele>213</ele>
        <time>2018-07-07T10:31:44Z</time>
      </trkpt>
      <trkpt lat="45.87988" lon="4.63765">
        <ele>213</ele>
        <time>2018-07-07T10:31:45Z</time>
      </trkpt>
      <trkpt lat="45.87983" lon="4.63773">
        <ele>213</ele>
        <time>2018-07-07T10:31:46Z</time>
      </trkpt>
      <trkpt lat="45.87978" lon="4.6378">
        <ele>213</ele>
        <time>2018-07-07T10:31:47Z</time>
      </trkpt>
      <trkpt lat="45.87975" lon="4.63787">
        <ele>213</ele>
        <time>2018-07-07T10:31:48Z</time>
      </trkpt>
      <trkpt lat="45.8797" lon="4.63794">
        <ele>213</ele>
        <time>2018-07-07T10:31:49Z</time>
      </trkpt>
      <trkpt lat="45.87966" lon="4.63801">
        <ele>213</ele>
        <time>2018-07-07T10:31:50Z</time>
      </trkpt>
      <trkpt lat="45.87961" lon="4.63808">
        <ele>213</ele>
        <time>2018-07-07T10:31:51Z</time>
      </trkpt>
      <trkpt lat="45.87956" lon="4.63815">
        <ele>213</ele>
        <time>2018-07-07T10:31:52Z</time>
      </trkpt>
      <trkpt lat="45.87952" lon="4.63821">
        <ele>213</ele>
        <time>2018-07-07T10:31:53Z</time>
      </trkpt>
      <trkpt lat="45.87947" lon="4.63828">
        <ele>213</ele>
        <time>2018-07-07T10:31:54Z</time>
      </trkpt>
      <trkpt lat="45.87944" lon="4.63835">
        <ele>213</ele>
        <time>2018-07-07T10:31:55Z</time>
      </trkpt>
      <trkpt lat="45.87941" lon="4.63843">
        <ele>213</ele>
        <time>2018-07-07T10:31:56Z</time>
      </trkpt>
      <trkpt lat="45.87936" lon="4.63851">
        <ele>213</ele>
        <time>2018-07-07T10:31:57Z</time>
      </trkpt>
      <trkpt lat="45.87931" lon="4.63859">
        <ele>213</ele>
        <time>2018-07-07T10:31:58Z</time>
      </trkpt>
      <trkpt lat="45.87927" lon="4.63866">
        <ele>213</ele>
        <time>2018-07-07T10:31:59Z</time>
      </trkpt>
      <trkpt lat="45.87922" lon="4.63872">
        <ele>213</ele>
        <time>2018-07-07T10:32:00Z</time>
      </trkpt>
      <trkpt lat="45.87916" lon="4.63876">
        <ele>213</ele>
        <time>2018-07-07T10:32:01Z</time>
      </trkpt>
      <trkpt lat="45.87911" lon="4.63882">
        <ele>213</ele>
        <time>2018-07-07T10:32:02Z</time>
      </trkpt>
      <trkpt lat="45.87906" lon="4.6389">
        <ele>213</ele>
        <time>2018-07-07T10:32:03Z</time>
      </trkpt>
      <trkpt lat="45.87902" lon="4.63898">
        <ele>213</ele>
        <time>2018-07-07T10:32:04Z</time>
      </trkpt>
      <trkpt lat="45.87897" lon="4.63905">
        <ele>213</ele>
        <time>2018-07-07T10:32:05Z</time>
      </trkpt>
      <trkpt lat="45.87892" lon="4.63913">
        <ele>213</ele>
        <time>2018-07-07T10:32:06Z</time>
      </trkpt>
      <trkpt lat="45.87887" lon="4.6392">
        <ele>212</ele>
        <time>2018-07-07T10:32:07Z</time>
      </trkpt>
      <trkpt lat="45.87884" lon="4.63928">
        <ele>212</ele>
        <time>2018-07-07T10:32:08Z</time>
      </trkpt>
      <trkpt lat="45.87877" lon="4.63932">
        <ele>212</ele>
        <time>2018-07-07T10:32:09Z</time>
      </trkpt>
      <trkpt lat="45.87873" lon="4.6394">
        <ele>212</ele>
        <time>2018-07-07T10:32:10Z</time>
      </trkpt>
      <trkpt lat="45.87868" lon="4.63948">
        <ele>212</ele>
        <time>2018-07-07T10:32:11Z</time>
      </trkpt>
      <trkpt lat="45.87868" lon="4.63961">
        <ele>212</ele>
        <time>2018-07-07T10:32:12Z</time>
      </trkpt>
      <trkpt lat="45.87865" lon="4.63969">
        <ele>212</ele>
        <time>2018-07-07T10:32:13Z</time>
      </trkpt>
      <trkpt lat="45.87861" lon="4.63974">
        <ele>212</ele>
        <time>2018-07-07T10:32:14Z</time>
      </trkpt>
      <trkpt lat="45.87856" lon="4.63981">
        <ele>212</ele>
        <time>2018-07-07T10:32:15Z</time>
      </trkpt>
      <trkpt lat="45.87851" lon="4.6399">
        <ele>212</ele>
        <time>2018-07-07T10:32:16Z</time>
      </trkpt>
      <trkpt lat="45.87847" lon="4.63998">
        <ele>212</ele>
        <time>2018-07-07T10:32:17Z</time>
      </trkpt>
      <trkpt lat="45.87842" lon="4.64006">
        <ele>212</ele>
        <time>2018-07-07T10:32:18Z</time>
      </trkpt>
      <trkpt lat="45.87836" lon="4.64012">
        <ele>212</ele>
        <time>2018-07-07T10:32:19Z</time>
      </trkpt>
      <trkpt lat="45.87832" lon="4.64019">
        <ele>213</ele>
        <time>2018-07-07T10:32:20Z</time>
      </trkpt>
      <trkpt lat="45.8783" lon="4.64027">
        <ele>213</ele>
        <time>2018-07-07T10:32:21Z</time>
      </trkpt>
      <trkpt lat="45.87826" lon="4.64033">
        <ele>213</ele>
        <time>2018-07-07T10:32:22Z</time>
      </trkpt>
      <trkpt lat="45.87822" lon="4.6404">
        <ele>213</ele>
        <time>2018-07-07T10:32:23Z</time>
      </trkpt>
      <trkpt lat="45.87818" lon="4.64047">
        <ele>214</ele>
        <time>2018-07-07T10:32:24Z</time>
      </trkpt>
      <trkpt lat="45.87813" lon="4.64053">
        <ele>214</ele>
        <time>2018-07-07T10:32:25Z</time>
      </trkpt>
      <trkpt lat="45.87808" lon="4.6406">
        <ele>214</ele>
        <time>2018-07-07T10:32:26Z</time>
      </trkpt>
      <trkpt lat="45.87804" lon="4.64068">
        <ele>214</ele>
        <time>2018-07-07T10:32:27Z</time>
      </trkpt>
      <trkpt lat="45.878" lon="4.64075">
        <ele>214</ele>
        <time>2018-07-07T10:32:28Z</time>
      </trkpt>
      <trkpt lat="45.87794" lon="4.64081">
        <ele>214</ele>
        <time>2018-07-07T10:32:29Z</time>
      </trkpt>
      <trkpt lat="45.87789" lon="4.6409">
        <ele>215</ele>
        <time>2018-07-07T10:32:30Z</time>
      </trkpt>
      <trkpt lat="45.87785" lon="4.64098">
        <ele>215</ele>
        <time>2018-07-07T10:32:31Z</time>
      </trkpt>
      <trkpt lat="45.8778" lon="4.64105">
        <ele>215</ele>
        <time>2018-07-07T10:32:32Z</time>
      </trkpt>
      <trkpt lat="45.87777" lon="4.64112">
        <ele>215</ele>
        <time>2018-07-07T10:32:33Z</time>
      </trkpt>
      <trkpt lat="45.87772" lon="4.64119">
        <ele>215</ele>
        <time>2018-07-07T10:32:34Z</time>
      </trkpt>
      <trkpt lat="45.87768" lon="4.64127">
        <ele>215</ele>
        <time>2018-07-07T10:32:35Z</time>
      </trkpt>
      <trkpt lat="45.87764" lon="4.64134">
        <ele>215</ele>
        <time>2018-07-07T10:32:36Z</time>
      </trkpt>
      <trkpt lat="45.8776" lon="4.64142">
        <ele>215</ele>
        <time>2018-07-07T10:32:37Z</time>
      </trkpt>
      <trkpt lat="45.87756" lon="4.6415">
        <ele>215</ele>
        <time>2018-07-07T10:32:38Z</time>
      </trkpt>
      <trkpt lat="45.8775" lon="4.64157">
        <ele>213</ele>
        <time>2018-07-07T10:32:39Z</time>
      </trkpt>
      <trkpt lat="45.87745" lon="4.64167">
        <ele>214</ele>
        <time>2018-07-07T10:32:40Z</time>
      </trkpt>
      <trkpt lat="45.8774" lon="4.64173">
        <ele>213</ele>
        <time>2018-07-07T10:32:41Z</time>
      </trkpt>
      <trkpt lat="45.87735" lon="4.64184">
        <ele>213</ele>
        <time>2018-07-07T10:32:42Z</time>
      </trkpt>
      <trkpt lat="45.8773" lon="4.64191">
        <ele>212</ele>
        <time>2018-07-07T10:32:43Z</time>
      </trkpt>
      <trkpt lat="45.87725" lon="4.642">
        <ele>212</ele>
        <time>2018-07-07T10:32:44Z</time>
      </trkpt>
      <trkpt lat="45.8772" lon="4.64207">
        <ele>212</ele>
        <time>2018-07-07T10:32:45Z</time>
      </trkpt>
      <trkpt lat="45.87716" lon="4.64216">
        <ele>212</ele>
        <time>2018-07-07T10:32:46Z</time>
      </trkpt>
      <trkpt lat="45.87713" lon="4.64224">
        <ele>211</ele>
        <time>2018-07-07T10:32:47Z</time>
      </trkpt>
      <trkpt lat="45.87708" lon="4.64231">
        <ele>211</ele>
        <time>2018-07-07T10:32:48Z</time>
      </trkpt>
      <trkpt lat="45.87703" lon="4.64237">
        <ele>211</ele>
        <time>2018-07-07T10:32:49Z</time>
      </trkpt>
      <trkpt lat="45.87699" lon="4.64244">
        <ele>211</ele>
        <time>2018-07-07T10:32:50Z</time>
      </trkpt>
      <trkpt lat="45.87696" lon="4.64251">
        <ele>210</ele>
        <time>2018-07-07T10:32:51Z</time>
      </trkpt>
      <trkpt lat="45.87691" lon="4.64257">
        <ele>210</ele>
        <time>2018-07-07T10:32:52Z</time>
      </trkpt>
      <trkpt lat="45.87688" lon="4.64265">
        <ele>210</ele>
        <time>2018-07-07T10:32:53Z</time>
      </trkpt>
      <trkpt lat="45.87684" lon="4.64272">
        <ele>210</ele>
        <time>2018-07-07T10:32:54Z</time>
      </trkpt>
      <trkpt lat="45.8768" lon="4.64279">
        <ele>210</ele>
        <time>2018-07-07T10:32:55Z</time>
      </trkpt>
      <trkpt lat="45.87676" lon="4.64286">
        <ele>210</ele>
        <time>2018-07-07T10:32:56Z</time>
      </trkpt>
      <trkpt lat="45.87671" lon="4.64294">
        <ele>210</ele>
        <time>2018-07-07T10:32:57Z</time>
      </trkpt>
      <trkpt lat="45.87668" lon="4.64303">
        <ele>210</ele>
        <time>2018-07-07T10:32:58Z</time>
      </trkpt>
      <trkpt lat="45.87664" lon="4.64312">
        <ele>210</ele>
        <time>2018-07-07T10:32:59Z</time>
      </trkpt>
      <trkpt lat="45.8766" lon="4.6432">
        <ele>209</ele>
        <time>2018-07-07T10:33:00Z</time>
      </trkpt>
      <trkpt lat="45.87654" lon="4.64328">
        <ele>209</ele>
        <time>2018-07-07T10:33:01Z</time>
      </trkpt>
      <trkpt lat="45.87648" lon="4.64334">
        <ele>210</ele>
        <time>2018-07-07T10:33:02Z</time>
      </trkpt>
      <trkpt lat="45.87643" lon="4.64341">
        <ele>211</ele>
        <time>2018-07-07T10:33:03Z</time>
      </trkpt>
      <trkpt lat="45.87639" lon="4.64348">
        <ele>211</ele>
        <time>2018-07-07T10:33:04Z</time>
      </trkpt>
      <trkpt lat="45.87635" lon="4.64355">
        <ele>211</ele>
        <time>2018-07-07T10:33:05Z</time>
      </trkpt>
      <trkpt lat="45.87631" lon="4.64362">
        <ele>211</ele>
        <time>2018-07-07T10:33:06Z</time>
      </trkpt>
      <trkpt lat="45.87627" lon="4.6437">
        <ele>211</ele>
        <time>2018-07-07T10:33:07Z</time>
      </trkpt>
      <trkpt lat="45.87623" lon="4.64378">
        <ele>212</ele>
        <time>2018-07-07T10:33:08Z</time>
      </trkpt>
      <trkpt lat="45.87619" lon="4.64386">
        <ele>212</ele>
        <time>2018-07-07T10:33:09Z</time>
      </trkpt>
      <trkpt lat="45.87614" lon="4.64389">
        <ele>212</ele>
        <time>2018-07-07T10:33:10Z</time>
      </trkpt>
      <trkpt lat="45.87609" lon="4.64396">
        <ele>212</ele>
        <time>2018-07-07T10:33:11Z</time>
      </trkpt>
      <trkpt lat="45.87604" lon="4.64403">
        <ele>212</ele>
        <time>2018-07-07T10:33:12Z</time>
      </trkpt>
      <trkpt lat="45.876" lon="4.64409">
        <ele>212</ele>
        <time>2018-07-07T10:33:13Z</time>
      </trkpt>
      <trkpt lat="45.87596" lon="4.64413">
        <ele>212</ele>
        <time>2018-07-07T10:33:14Z</time>
      </trkpt>
      <trkpt lat="45.87593" lon="4.64422">
        <ele>213</ele>
        <time>2018-07-07T10:33:15Z</time>
      </trkpt>
      <trkpt lat="45.8759" lon="4.64431">
        <ele>213</ele>
        <time>2018-07-07T10:33:16Z</time>
      </trkpt>
      <trkpt lat="45.87586" lon="4.64438">
        <ele>213</ele>
        <time>2018-07-07T10:33:17Z</time>
      </trkpt>
      <trkpt lat="45.87579" lon="4.64443">
        <ele>212</ele>
        <time>2018-07-07T10:33:18Z</time>
      </trkpt>
      <trkpt lat="45.87575" lon="4.6445">
        <ele>212</ele>
        <time>2018-07-07T10:33:19Z</time>
      </trkpt>
      <trkpt lat="45.87572" lon="4.64457">
        <ele>212</ele>
        <time>2018-07-07T10:33:20Z</time>
      </trkpt>
      <trkpt lat="45.87568" lon="4.64463">
        <ele>212</ele>
        <time>2018-07-07T10:33:21Z</time>
      </trkpt>
      <trkpt lat="45.87564" lon="4.64468">
        <ele>212</ele>
        <time>2018-07-07T10:33:22Z</time>
      </trkpt>
      <trkpt lat="45.8756" lon="4.64475">
        <ele>212</ele>
        <time>2018-07-07T10:33:23Z</time>
      </trkpt>
      <trkpt lat="45.87556" lon="4.64483">
        <ele>212</ele>
        <time>2018-07-07T10:33:24Z</time>
      </trkpt>
      <trkpt lat="45.87552" lon="4.6449">
        <ele>212</ele>
        <time>2018-07-07T10:33:25Z</time>
      </trkpt>
      <trkpt lat="45.87548" lon="4.64497">
        <ele>212</ele>
        <time>2018-07-07T10:33:26Z</time>
      </trkpt>
      <trkpt lat="45.87544" lon="4.64504">
        <ele>212</ele>
        <time>2018-07-07T10:33:27Z</time>
      </trkpt>
      <trkpt lat="45.87539" lon="4.64512">
        <ele>212</ele>
        <time>2018-07-07T10:33:28Z</time>
      </trkpt>
      <trkpt lat="45.87535" lon="4.64519">
        <ele>212</ele>
        <time>2018-07-07T10:33:29Z</time>
      </trkpt>
      <trkpt lat="45.87531" lon="4.64529">
        <ele>212</ele>
        <time>2018-07-07T10:33:30Z</time>
      </trkpt>
      <trkpt lat="45.87526" lon="4.64537">
        <ele>212</ele>
        <time>2018-07-07T10:33:31Z</time>
      </trkpt>
      <trkpt lat="45.87521" lon="4.64544">
        <ele>212</ele>
        <time>2018-07-07T10:33:32Z</time>
      </trkpt>
      <trkpt lat="45.87517" lon="4.64553">
        <ele>212</ele>
        <time>2018-07-07T10:33:33Z</time>
      </trkpt>
      <trkpt lat="45.87511" lon="4.64561">
        <ele>212</ele>
        <time>2018-07-07T10:33:34Z</time>
      </trkpt>
      <trkpt lat="45.8751" lon="4.64566">
        <ele>212</ele>
        <time>2018-07-07T10:33:35Z</time>
      </trkpt>
      <trkpt lat="45.87506" lon="4.64575">
        <ele>213</ele>
        <time>2018-07-07T10:33:36Z</time>
      </trkpt>
      <trkpt lat="45.87501" lon="4.64583">
        <ele>213</ele>
        <time>2018-07-07T10:33:37Z</time>
      </trkpt>
      <trkpt lat="45.87499" lon="4.64589">
        <ele>213</ele>
        <time>2018-07-07T10:33:38Z</time>
      </trkpt>
      <trkpt lat="45.87496" lon="4.64596">
        <ele>213</ele>
        <time>2018-07-07T10:33:39Z</time>
      </trkpt>
      <trkpt lat="45.8749" lon="4.64602">
        <ele>213</ele>
        <time>2018-07-07T10:33:40Z</time>
      </trkpt>
      <trkpt lat="45.87484" lon="4.64609">
        <ele>213</ele>
        <time>2018-07-07T10:33:41Z</time>
      </trkpt>
      <trkpt lat="45.87479" lon="4.64617">
        <ele>212</ele>
        <time>2018-07-07T10:33:42Z</time>
      </trkpt>
      <trkpt lat="45.87474" lon="4.64625">
        <ele>212</ele>
        <time>2018-07-07T10:33:43Z</time>
      </trkpt>
      <trkpt lat="45.87469" lon="4.64634">
        <ele>212</ele>
        <time>2018-07-07T10:33:44Z</time>
      </trkpt>
      <trkpt lat="45.87464" lon="4.64642">
        <ele>212</ele>
        <time>2018-07-07T10:33:45Z</time>
      </trkpt>
      <trkpt lat="45.87459" lon="4.64652">
        <ele>212</ele>
        <time>2018-07-07T10:33:46Z</time>
      </trkpt>
      <trkpt lat="45.87453" lon="4.64659">
        <ele>212</ele>
        <time>2018-07-07T10:33:47Z</time>
      </trkpt>
      <trkpt lat="45.87449" lon="4.64667">
        <ele>212</ele>
        <time>2018-07-07T10:33:48Z</time>
      </trkpt>
      <trkpt lat="45.87444" lon="4.64674">
        <ele>212</ele>
        <time>2018-07-07T10:33:49Z</time>
      </trkpt>
      <trkpt lat="45.87439" lon="4.64683">
        <ele>212</ele>
        <time>2018-07-07T10:33:50Z</time>
      </trkpt>
      <trkpt lat="45.87434" lon="4.64691">
        <ele>212</ele>
        <time>2018-07-07T10:33:51Z</time>
      </trkpt>
      <trkpt lat="45.87429" lon="4.64699">
        <ele>212</ele>
        <time>2018-07-07T10:33:52Z</time>
      </trkpt>
      <trkpt lat="45.87424" lon="4.64707">
        <ele>212</ele>
        <time>2018-07-07T10:33:53Z</time>
      </trkpt>
      <trkpt lat="45.87419" lon="4.64715">
        <ele>212</ele>
        <time>2018-07-07T10:33:54Z</time>
      </trkpt>
      <trkpt lat="45.87415" lon="4.64724">
        <ele>211</ele>
        <time>2018-07-07T10:33:55Z</time>
      </trkpt>
      <trkpt lat="45.87409" lon="4.64731">
        <ele>211</ele>
        <time>2018-07-07T10:33:56Z</time>
      </trkpt>
      <trkpt lat="45.87403" lon="4.64739">
        <ele>211</ele>
        <time>2018-07-07T10:33:57Z</time>
      </trkpt>
      <trkpt lat="45.87399" lon="4.64746">
        <ele>211</ele>
        <time>2018-07-07T10:33:58Z</time>
      </trkpt>
      <trkpt lat="45.87393" lon="4.64755">
        <ele>211</ele>
        <time>2018-07-07T10:33:59Z</time>
      </trkpt>
      <trkpt lat="45.87388" lon="4.64763">
        <ele>211</ele>
        <time>2018-07-07T10:34:00Z</time>
      </trkpt>
      <trkpt lat="45.87383" lon="4.64772">
        <ele>212</ele>
        <time>2018-07-07T10:34:01Z</time>
      </trkpt>
      <trkpt lat="45.87378" lon="4.64779">
        <ele>212</ele>
        <time>2018-07-07T10:34:02Z</time>
      </trkpt>
      <trkpt lat="45.87372" lon="4.64788">
        <ele>212</ele>
        <time>2018-07-07T10:34:03Z</time>
      </trkpt>
      <trkpt lat="45.87368" lon="4.64796">
        <ele>212</ele>
        <time>2018-07-07T10:34:04Z</time>
      </trkpt>
      <trkpt lat="45.87362" lon="4.64801">
        <ele>212</ele>
        <time>2018-07-07T10:34:05Z</time>
      </trkpt>
      <trkpt lat="45.87358" lon="4.64808">
        <ele>212</ele>
        <time>2018-07-07T10:34:06Z</time>
      </trkpt>
      <trkpt lat="45.87352" lon="4.64816">
        <ele>212</ele>
        <time>2018-07-07T10:34:07Z</time>
      </trkpt>
      <trkpt lat="45.87348" lon="4.64822">
        <ele>211</ele>
        <time>2018-07-07T10:34:08Z</time>
      </trkpt>
      <trkpt lat="45.87343" lon="4.6483">
        <ele>211</ele>
        <time>2018-07-07T10:34:09Z</time>
      </trkpt>
      <trkpt lat="45.87338" lon="4.64837">
        <ele>212</ele>
        <time>2018-07-07T10:34:10Z</time>
      </trkpt>
      <trkpt lat="45.87332" lon="4.64844">
        <ele>211</ele>
        <time>2018-07-07T10:34:11Z</time>
      </trkpt>
      <trkpt lat="45.87327" lon="4.64853">
        <ele>211</ele>
        <time>2018-07-07T10:34:12Z</time>
      </trkpt>
      <trkpt lat="45.87322" lon="4.64861">
        <ele>211</ele>
        <time>2018-07-07T10:34:13Z</time>
      </trkpt>
      <trkpt lat="45.87317" lon="4.6487">
        <ele>211</ele>
        <time>2018-07-07T10:34:14Z</time>
      </trkpt>
      <trkpt lat="45.87311" lon="4.64878">
        <ele>211</ele>
        <time>2018-07-07T10:34:15Z</time>
      </trkpt>
      <trkpt lat="45.87305" lon="4.64887">
        <ele>211</ele>
        <time>2018-07-07T10:34:16Z</time>
      </trkpt>
      <trkpt lat="45.87299" lon="4.64894">
        <ele>211</ele>
        <time>2018-07-07T10:34:17Z</time>
      </trkpt>
      <trkpt lat="45.87294" lon="4.64904">
        <ele>211</ele>
        <time>2018-07-07T10:34:18Z</time>
      </trkpt>
      <trkpt lat="45.87288" lon="4.64913">
        <ele>211</ele>
        <time>2018-07-07T10:34:19Z</time>
      </trkpt>
      <trkpt lat="45.87283" lon="4.64922">
        <ele>212</ele>
        <time>2018-07-07T10:34:20Z</time>
      </trkpt>
      <trkpt lat="45.87277" lon="4.6493">
        <ele>212</ele>
        <time>2018-07-07T10:34:21Z</time>
      </trkpt>
      <trkpt lat="45.87272" lon="4.64937">
        <ele>213</ele>
        <time>2018-07-07T10:34:22Z</time>
      </trkpt>
      <trkpt lat="45.87267" lon="4.64947">
        <ele>213</ele>
        <time>2018-07-07T10:34:23Z</time>
      </trkpt>
      <trkpt lat="45.87262" lon="4.64955">
        <ele>213</ele>
        <time>2018-07-07T10:34:24Z</time>
      </trkpt>
      <trkpt lat="45.87258" lon="4.64965">
        <ele>212</ele>
        <time>2018-07-07T10:34:25Z</time>
      </trkpt>
      <trkpt lat="45.87254" lon="4.64974">
        <ele>212</ele>
        <time>2018-07-07T10:34:26Z</time>
      </trkpt>
      <trkpt lat="45.87249" lon="4.64981">
        <ele>211</ele>
        <time>2018-07-07T10:34:27Z</time>
      </trkpt>
      <trkpt lat="45.87243" lon="4.64989">
        <ele>211</ele>
        <time>2018-07-07T10:34:28Z</time>
      </trkpt>
      <trkpt lat="45.87238" lon="4.64998">
        <ele>211</ele>
        <time>2018-07-07T10:34:29Z</time>
      </trkpt>
      <trkpt lat="45.87233" lon="4.65006">
        <ele>212</ele>
        <time>2018-07-07T10:34:30Z</time>
      </trkpt>
      <trkpt lat="45.87227" lon="4.65014">
        <ele>212</ele>
        <time>2018-07-07T10:34:31Z</time>
      </trkpt>
      <trkpt lat="45.87222" lon="4.65022">
        <ele>212</ele>
        <time>2018-07-07T10:34:32Z</time>
      </trkpt>
      <trkpt lat="45.87216" lon="4.6503">
        <ele>212</ele>
        <time>2018-07-07T10:34:33Z</time>
      </trkpt>
      <trkpt lat="45.87211" lon="4.65038">
        <ele>212</ele>
        <time>2018-07-07T10:34:34Z</time>
      </trkpt>
      <trkpt lat="45.87205" lon="4.65046">
        <ele>212</ele>
        <time>2018-07-07T10:34:35Z</time>
      </trkpt>
      <trkpt lat="45.87202" lon="4.65058">
        <ele>212</ele>
        <time>2018-07-07T10:34:36Z</time>
      </trkpt>
      <trkpt lat="45.87195" lon="4.65067">
        <ele>212</ele>
        <time>2018-07-07T10:34:37Z</time>
      </trkpt>
      <trkpt lat="45.8719" lon="4.65074">
        <ele>212</ele>
        <time>2018-07-07T10:34:38Z</time>
      </trkpt>
      <trkpt lat="45.87184" lon="4.65083">
        <ele>211</ele>
        <time>2018-07-07T10:34:39Z</time>
      </trkpt>
      <trkpt lat="45.87179" lon="4.65091">
        <ele>215</ele>
        <time>2018-07-07T10:34:40Z</time>
      </trkpt>
      <trkpt lat="45.87175" lon="4.65101">
        <ele>216</ele>
        <time>2018-07-07T10:34:41Z</time>
      </trkpt>
      <trkpt lat="45.8717" lon="4.65109">
        <ele>217</ele>
        <time>2018-07-07T10:34:42Z</time>
      </trkpt>
      <trkpt lat="45.87165" lon="4.65116">
        <ele>213</ele>
        <time>2018-07-07T10:34:43Z</time>
      </trkpt>
      <trkpt lat="45.87161" lon="4.65124">
        <ele>214</ele>
        <time>2018-07-07T10:34:44Z</time>
      </trkpt>
      <trkpt lat="45.87157" lon="4.65132">
        <ele>214</ele>
        <time>2018-07-07T10:34:45Z</time>
      </trkpt>
      <trkpt lat="45.87153" lon="4.65139">
        <ele>215</ele>
        <time>2018-07-07T10:34:46Z</time>
      </trkpt>
      <trkpt lat="45.87149" lon="4.65146">
        <ele>215</ele>
        <time>2018-07-07T10:34:47Z</time>
      </trkpt>
      <trkpt lat="45.87145" lon="4.65156">
        <ele>215</ele>
        <time>2018-07-07T10:34:48Z</time>
      </trkpt>
      <trkpt lat="45.8714" lon="4.65163">
        <ele>215</ele>
        <time>2018-07-07T10:34:49Z</time>
      </trkpt>
      <trkpt lat="45.87136" lon="4.6517">
        <ele>219</ele>
        <time>2018-07-07T10:34:50Z</time>
      </trkpt>
      <trkpt lat="45.87131" lon="4.65178">
        <ele>219</ele>
        <time>2018-07-07T10:34:51Z</time>
      </trkpt>
      <trkpt lat="45.87128" lon="4.65186">
        <ele>219</ele>
        <time>2018-07-07T10:34:52Z</time>
      </trkpt>
      <trkpt lat="45.87122" lon="4.65195">
        <ele>219</ele>
        <time>2018-07-07T10:34:53Z</time>
      </trkpt>
      <trkpt lat="45.87117" lon="4.65204">
        <ele>219</ele>
        <time>2018-07-07T10:34:54Z</time>
      </trkpt>
      <trkpt lat="45.87112" lon="4.65211">
        <ele>219</ele>
        <time>2018-07-07T10:34:55Z</time>
      </trkpt>
      <trkpt lat="45.87108" lon="4.65219">
        <ele>219</ele>
        <time>2018-07-07T10:34:56Z</time>
      </trkpt>
      <trkpt lat="45.87105" lon="4.65228">
        <ele>219</ele>
        <time>2018-07-07T10:34:57Z</time>
      </trkpt>
      <trkpt lat="45.87102" lon="4.65236">
        <ele>218</ele>
        <time>2018-07-07T10:34:58Z</time>
      </trkpt>
      <trkpt lat="45.87098" lon="4.65243">
        <ele>217</ele>
        <time>2018-07-07T10:34:59Z</time>
      </trkpt>
      <trkpt lat="45.87094" lon="4.65251">
        <ele>220</ele>
        <time>2018-07-07T10:35:00Z</time>
      </trkpt>
      <trkpt lat="45.8709" lon="4.65258">
        <ele>219</ele>
        <time>2018-07-07T10:35:01Z</time>
      </trkpt>
      <trkpt lat="45.87085" lon="4.65264">
        <ele>221</ele>
        <time>2018-07-07T10:35:02Z</time>
      </trkpt>
      <trkpt lat="45.8708" lon="4.65272">
        <ele>215</ele>
        <time>2018-07-07T10:35:03Z</time>
      </trkpt>
      <trkpt lat="45.87075" lon="4.65279">
        <ele>215</ele>
        <time>2018-07-07T10:35:04Z</time>
      </trkpt>
      <trkpt lat="45.87071" lon="4.65286">
        <ele>216</ele>
        <time>2018-07-07T10:35:05Z</time>
      </trkpt>
      <trkpt lat="45.87067" lon="4.65296">
        <ele>216</ele>
        <time>2018-07-07T10:35:06Z</time>
      </trkpt>
      <trkpt lat="45.87063" lon="4.65303">
        <ele>217</ele>
        <time>2018-07-07T10:35:07Z</time>
      </trkpt>
      <trkpt lat="45.87059" lon="4.65309">
        <ele>217</ele>
        <time>2018-07-07T10:35:08Z</time>
      </trkpt>
      <trkpt lat="45.87054" lon="4.65317">
        <ele>217</ele>
        <time>2018-07-07T10:35:09Z</time>
      </trkpt>
      <trkpt lat="45.87051" lon="4.65325">
        <ele>217</ele>
        <time>2018-07-07T10:35:10Z</time>
      </trkpt>
      <trkpt lat="45.87047" lon="4.65333">
        <ele>217</ele>
        <time>2018-07-07T10:35:11Z</time>
      </trkpt>
      <trkpt lat="45.87042" lon="4.65339">
        <ele>222</ele>
        <time>2018-07-07T10:35:12Z</time>
      </trkpt>
      <trkpt lat="45.87037" lon="4.65347">
        <ele>222</ele>
        <time>2018-07-07T10:35:13Z</time>
      </trkpt>
      <trkpt lat="45.87032" lon="4.65354">
        <ele>222</ele>
        <time>2018-07-07T10:35:14Z</time>
      </trkpt>
      <trkpt lat="45.87027" lon="4.6536">
        <ele>222</ele>
        <time>2018-07-07T10:35:15Z</time>
      </trkpt>
      <trkpt lat="45.87023" lon="4.65367">
        <ele>222</ele>
        <time>2018-07-07T10:35:16Z</time>
      </trkpt>
      <trkpt lat="45.87017" lon="4.65373">
        <ele>222</ele>
        <time>2018-07-07T10:35:17Z</time>
      </trkpt>
      <trkpt lat="45.87012" lon="4.65379">
        <ele>222</ele>
        <time>2018-07-07T10:35:18Z</time>
      </trkpt>
      <trkpt lat="45.87007" lon="4.65384">
        <ele>222</ele>
        <time>2018-07-07T10:35:19Z</time>
      </trkpt>
      <trkpt lat="45.87002" lon="4.6539">
        <ele>222</ele>
        <time>2018-07-07T10:35:20Z</time>
      </trkpt>
      <trkpt lat="45.86998" lon="4.65395">
        <ele>217</ele>
        <time>2018-07-07T10:35:21Z</time>
      </trkpt>
      <trkpt lat="45.86993" lon="4.65401">
        <ele>218</ele>
        <time>2018-07-07T10:35:22Z</time>
      </trkpt>
      <trkpt lat="45.86988" lon="4.65407">
        <ele>218</ele>
        <time>2018-07-07T10:35:23Z</time>
      </trkpt>
      <trkpt lat="45.86983" lon="4.65412">
        <ele>218</ele>
        <time>2018-07-07T10:35:24Z</time>
      </trkpt>
      <trkpt lat="45.86978" lon="4.65417">
        <ele>221</ele>
        <time>2018-07-07T10:35:25Z</time>
      </trkpt>
      <trkpt lat="45.86974" lon="4.65422">
        <ele>221</ele>
        <time>2018-07-07T10:35:26Z</time>
      </trkpt>
      <trkpt lat="45.86969" lon="4.65428">
        <ele>221</ele>
        <time>2018-07-07T10:35:27Z</time>
      </trkpt>
      <trkpt lat="45.86964" lon="4.65433">
        <ele>221</ele>
        <time>2018-07-07T10:35:28Z</time>
      </trkpt>
      <trkpt lat="45.8696" lon="4.65439">
        <ele>221</ele>
        <time>2018-07-07T10:35:29Z</time>
      </trkpt>
      <trkpt lat="45.86956" lon="4.65445">
        <ele>221</ele>
        <time>2018-07-07T10:35:30Z</time>
      </trkpt>
      <trkpt lat="45.86951" lon="4.65451">
        <ele>221</ele>
        <time>2018-07-07T10:35:31Z</time>
      </trkpt>
      <trkpt lat="45.86946" lon="4.65458">
        <ele>221</ele>
        <time>2018-07-07T10:35:32Z</time>
      </trkpt>
      <trkpt lat="45.86942" lon="4.65465">
        <ele>221</ele>
        <time>2018-07-07T10:35:33Z</time>
      </trkpt>
      <trkpt lat="45.86938" lon="4.65471">
        <ele>221</ele>
        <time>2018-07-07T10:35:34Z</time>
      </trkpt>
      <trkpt lat="45.86935" lon="4.65478">
        <ele>221</ele>
        <time>2018-07-07T10:35:35Z</time>
      </trkpt>
      <trkpt lat="45.86931" lon="4.65484">
        <ele>220</ele>
        <time>2018-07-07T10:35:36Z</time>
      </trkpt>
      <trkpt lat="45.86927" lon="4.65495">
        <ele>220</ele>
        <time>2018-07-07T10:35:37Z</time>
      </trkpt>
      <trkpt lat="45.86924" lon="4.65501">
        <ele>222</ele>
        <time>2018-07-07T10:35:38Z</time>
      </trkpt>
      <trkpt lat="45.8692" lon="4.65507">
        <ele>222</ele>
        <time>2018-07-07T10:35:39Z</time>
      </trkpt>
      <trkpt lat="45.86916" lon="4.65515">
        <ele>218</ele>
        <time>2018-07-07T10:35:40Z</time>
      </trkpt>
      <trkpt lat="45.86913" lon="4.65522">
        <ele>218</ele>
        <time>2018-07-07T10:35:41Z</time>
      </trkpt>
      <trkpt lat="45.86909" lon="4.6553">
        <ele>218</ele>
        <time>2018-07-07T10:35:42Z</time>
      </trkpt>
      <trkpt lat="45.86906" lon="4.65537">
        <ele>218</ele>
        <time>2018-07-07T10:35:43Z</time>
      </trkpt>
      <trkpt lat="45.86903" lon="4.65544">
        <ele>218</ele>
        <time>2018-07-07T10:35:44Z</time>
      </trkpt>
      <trkpt lat="45.869" lon="4.65552">
        <ele>219</ele>
        <time>2018-07-07T10:35:45Z</time>
      </trkpt>
      <trkpt lat="45.86898" lon="4.6556">
        <ele>219</ele>
        <time>2018-07-07T10:35:46Z</time>
      </trkpt>
      <trkpt lat="45.86895" lon="4.65568">
        <ele>220</ele>
        <time>2018-07-07T10:35:47Z</time>
      </trkpt>
      <trkpt lat="45.86893" lon="4.65576">
        <ele>220</ele>
        <time>2018-07-07T10:35:48Z</time>
      </trkpt>
      <trkpt lat="45.86892" lon="4.65585">
        <ele>222</ele>
        <time>2018-07-07T10:35:49Z</time>
      </trkpt>
      <trkpt lat="45.86891" lon="4.65593">
        <ele>222</ele>
        <time>2018-07-07T10:35:50Z</time>
      </trkpt>
      <trkpt lat="45.86888" lon="4.656">
        <ele>222</ele>
        <time>2018-07-07T10:35:51Z</time>
      </trkpt>
      <trkpt lat="45.86888" lon="4.65609">
        <ele>222</ele>
        <time>2018-07-07T10:35:53.575Z</time>
      </trkpt>
      <trkpt lat="45.86886" lon="4.65617">
        <ele>222</ele>
        <time>2018-07-07T10:35:53Z</time>
      </trkpt>
      <trkpt lat="45.86885" lon="4.65626">
        <ele>222</ele>
        <time>2018-07-07T10:35:54Z</time>
      </trkpt>
      <trkpt lat="45.86884" lon="4.65634">
        <ele>222</ele>
        <time>2018-07-07T10:35:55Z</time>
      </trkpt>
      <trkpt lat="45.86883" lon="4.65641">
        <ele>222</ele>
        <time>2018-07-07T10:35:56Z</time>
      </trkpt>
      <trkpt lat="45.86883" lon="4.65649">
        <ele>222</ele>
        <time>2018-07-07T10:35:57Z</time>
      </trkpt>
      <trkpt lat="45.86882" lon="4.65657">
        <ele>222</ele>
        <time>2018-07-07T10:35:58Z</time>
      </trkpt>
      <trkpt lat="45.86882" lon="4.65665">
        <ele>222</ele>
        <time>2018-07-07T10:35:59Z</time>
      </trkpt>
      <trkpt lat="45.86881" lon="4.65673">
        <ele>222</ele>
        <time>2018-07-07T10:36:00Z</time>
      </trkpt>
      <trkpt lat="45.8688" lon="4.65682">
        <ele>222</ele>
        <time>2018-07-07T10:36:01Z</time>
      </trkpt>
      <trkpt lat="45.8688" lon="4.6569">
        <ele>222</ele>
        <time>2018-07-07T10:36:02Z</time>
      </trkpt>
      <trkpt lat="45.8688" lon="4.65699">
        <ele>222</ele>
        <time>2018-07-07T10:36:03Z</time>
      </trkpt>
      <trkpt lat="45.8688" lon="4.65708">
        <ele>222</ele>
        <time>2018-07-07T10:36:04Z</time>
      </trkpt>
      <trkpt lat="45.86879" lon="4.65717">
        <ele>221</ele>
        <time>2018-07-07T10:36:05Z</time>
      </trkpt>
      <trkpt lat="45.86879" lon="4.65726">
        <ele>221</ele>
        <time>2018-07-07T10:36:06Z</time>
      </trkpt>
      <trkpt lat="45.86878" lon="4.65735">
        <ele>221</ele>
        <time>2018-07-07T10:36:07Z</time>
      </trkpt>
      <trkpt lat="45.86877" lon="4.65744">
        <ele>221</ele>
        <time>2018-07-07T10:36:08Z</time>
      </trkpt>
      <trkpt lat="45.86876" lon="4.65753">
        <ele>222</ele>
        <time>2018-07-07T10:36:09Z</time>
      </trkpt>
      <trkpt lat="45.86874" lon="4.65764">
        <ele>221</ele>
        <time>2018-07-07T10:36:10Z</time>
      </trkpt>
      <trkpt lat="45.86873" lon="4.65773">
        <ele>221</ele>
        <time>2018-07-07T10:36:11Z</time>
      </trkpt>
      <trkpt lat="45.8687" lon="4.65781">
        <ele>221</ele>
        <time>2018-07-07T10:36:12Z</time>
      </trkpt>
      <trkpt lat="45.86869" lon="4.65788">
        <ele>221</ele>
        <time>2018-07-07T10:36:13Z</time>
      </trkpt>
      <trkpt lat="45.86867" lon="4.65796">
        <ele>221</ele>
        <time>2018-07-07T10:36:14Z</time>
      </trkpt>
      <trkpt lat="45.86864" lon="4.65805">
        <ele>221</ele>
        <time>2018-07-07T10:36:15Z</time>
      </trkpt>
      <trkpt lat="45.86864" lon="4.65813">
        <ele>221</ele>
        <time>2018-07-07T10:36:16Z</time>
      </trkpt>
      <trkpt lat="45.86862" lon="4.65822">
        <ele>220</ele>
        <time>2018-07-07T10:36:17Z</time>
      </trkpt>
      <trkpt lat="45.86859" lon="4.65831">
        <ele>219</ele>
        <time>2018-07-07T10:36:18Z</time>
      </trkpt>
      <trkpt lat="45.86857" lon="4.65838">
        <ele>223</ele>
        <time>2018-07-07T10:36:19Z</time>
      </trkpt>
      <trkpt lat="45.86854" lon="4.65848">
        <ele>223</ele>
        <time>2018-07-07T10:36:20Z</time>
      </trkpt>
      <trkpt lat="45.86849" lon="4.65856">
        <ele>223</ele>
        <time>2018-07-07T10:36:21Z</time>
      </trkpt>
      <trkpt lat="45.86847" lon="4.65864">
        <ele>224</ele>
        <time>2018-07-07T10:36:22Z</time>
      </trkpt>
      <trkpt lat="45.86844" lon="4.65872">
        <ele>225</ele>
        <time>2018-07-07T10:36:23Z</time>
      </trkpt>
      <trkpt lat="45.86841" lon="4.6588">
        <ele>225</ele>
        <time>2018-07-07T10:36:24Z</time>
      </trkpt>
      <trkpt lat="45.86837" lon="4.65888">
        <ele>225</ele>
        <time>2018-07-07T10:36:25Z</time>
      </trkpt>
      <trkpt lat="45.86834" lon="4.65896">
        <ele>225</ele>
        <time>2018-07-07T10:36:26Z</time>
      </trkpt>
      <trkpt lat="45.8683" lon="4.65903">
        <ele>218</ele>
        <time>2018-07-07T10:36:27Z</time>
      </trkpt>
      <trkpt lat="45.86827" lon="4.65911">
        <ele>219</ele>
        <time>2018-07-07T10:36:28Z</time>
      </trkpt>
      <trkpt lat="45.86824" lon="4.65918">
        <ele>221</ele>
        <time>2018-07-07T10:36:29Z</time>
      </trkpt>
      <trkpt lat="45.86818" lon="4.65925">
        <ele>221</ele>
        <time>2018-07-07T10:36:30Z</time>
      </trkpt>
      <trkpt lat="45.86815" lon="4.65931">
        <ele>221</ele>
        <time>2018-07-07T10:36:31Z</time>
      </trkpt>
      <trkpt lat="45.86811" lon="4.65938">
        <ele>221</ele>
        <time>2018-07-07T10:36:32Z</time>
      </trkpt>
      <trkpt lat="45.86808" lon="4.65945">
        <ele>222</ele>
        <time>2018-07-07T10:36:33Z</time>
      </trkpt>
      <trkpt lat="45.86804" lon="4.65951">
        <ele>222</ele>
        <time>2018-07-07T10:36:34Z</time>
      </trkpt>
      <trkpt lat="45.868" lon="4.65957">
        <ele>222</ele>
        <time>2018-07-07T10:36:35Z</time>
      </trkpt>
      <trkpt lat="45.86797" lon="4.65963">
        <ele>222</ele>
        <time>2018-07-07T10:36:36Z</time>
      </trkpt>
      <trkpt lat="45.86793" lon="4.6597">
        <ele>222</ele>
        <time>2018-07-07T10:36:37Z</time>
      </trkpt>
      <trkpt lat="45.86789" lon="4.65975">
        <ele>222</ele>
        <time>2018-07-07T10:36:38Z</time>
      </trkpt>
      <trkpt lat="45.86785" lon="4.65982">
        <ele>222</ele>
        <time>2018-07-07T10:36:39Z</time>
      </trkpt>
      <trkpt lat="45.8678" lon="4.65989">
        <ele>221</ele>
        <time>2018-07-07T10:36:40Z</time>
      </trkpt>
      <trkpt lat="45.86776" lon="4.65996">
        <ele>221</ele>
        <time>2018-07-07T10:36:41Z</time>
      </trkpt>
      <trkpt lat="45.86771" lon="4.66003">
        <ele>228</ele>
        <time>2018-07-07T10:36:42Z</time>
      </trkpt>
      <trkpt lat="45.86766" lon="4.66009">
        <ele>227</ele>
        <time>2018-07-07T10:36:43Z</time>
      </trkpt>
      <trkpt lat="45.8676" lon="4.66013">
        <ele>226</ele>
        <time>2018-07-07T10:36:44Z</time>
      </trkpt>
      <trkpt lat="45.86755" lon="4.66018">
        <ele>227</ele>
        <time>2018-07-07T10:36:45Z</time>
      </trkpt>
      <trkpt lat="45.86749" lon="4.66023">
        <ele>220</ele>
        <time>2018-07-07T10:36:46Z</time>
      </trkpt>
      <trkpt lat="45.86743" lon="4.66027">
        <ele>221</ele>
        <time>2018-07-07T10:36:47Z</time>
      </trkpt>
      <trkpt lat="45.86737" lon="4.66033">
        <ele>222</ele>
        <time>2018-07-07T10:36:48Z</time>
      </trkpt>
      <trkpt lat="45.86731" lon="4.66036">
        <ele>222</ele>
        <time>2018-07-07T10:36:49Z</time>
      </trkpt>
      <trkpt lat="45.86724" lon="4.6604">
        <ele>222</ele>
        <time>2018-07-07T10:36:51.549Z</time>
      </trkpt>
      <trkpt lat="45.86719" lon="4.66045">
        <ele>223</ele>
        <time>2018-07-07T10:36:51Z</time>
      </trkpt>
      <trkpt lat="45.86714" lon="4.66048">
        <ele>222</ele>
        <time>2018-07-07T10:36:52Z</time>
      </trkpt>
      <trkpt lat="45.86708" lon="4.66051">
        <ele>222</ele>
        <time>2018-07-07T10:36:53Z</time>
      </trkpt>
      <trkpt lat="45.86701" lon="4.66055">
        <ele>222</ele>
        <time>2018-07-07T10:36:54Z</time>
      </trkpt>
      <trkpt lat="45.86695" lon="4.66058">
        <ele>221</ele>
        <time>2018-07-07T10:36:55Z</time>
      </trkpt>
      <trkpt lat="45.8669" lon="4.6606">
        <ele>221</ele>
        <time>2018-07-07T10:36:56Z</time>
      </trkpt>
      <trkpt lat="45.86683" lon="4.66063">
        <ele>221</ele>
        <time>2018-07-07T10:36:57Z</time>
      </trkpt>
      <trkpt lat="45.86676" lon="4.66065">
        <ele>220</ele>
        <time>2018-07-07T10:36:58Z</time>
      </trkpt>
      <trkpt lat="45.8667" lon="4.66068">
        <ele>220</ele>
        <time>2018-07-07T10:36:59Z</time>
      </trkpt>
      <trkpt lat="45.86663" lon="4.6607">
        <ele>216</ele>
        <time>2018-07-07T10:37:00Z</time>
      </trkpt>
      <trkpt lat="45.86657" lon="4.66071">
        <ele>215</ele>
        <time>2018-07-07T10:37:01Z</time>
      </trkpt>
      <trkpt lat="45.8665" lon="4.66074">
        <ele>215</ele>
        <time>2018-07-07T10:37:02Z</time>
      </trkpt>
      <trkpt lat="45.86643" lon="4.66077">
        <ele>214</ele>
        <time>2018-07-07T10:37:03Z</time>
      </trkpt>
      <trkpt lat="45.86636" lon="4.66081">
        <ele>214</ele>
        <time>2018-07-07T10:37:04Z</time>
      </trkpt>
      <trkpt lat="45.86631" lon="4.66082">
        <ele>213</ele>
        <time>2018-07-07T10:37:05Z</time>
      </trkpt>
      <trkpt lat="45.86624" lon="4.66085">
        <ele>222</ele>
        <time>2018-07-07T10:37:06Z</time>
      </trkpt>
      <trkpt lat="45.86617" lon="4.6609">
        <ele>221</ele>
        <time>2018-07-07T10:37:07Z</time>
      </trkpt>
      <trkpt lat="45.8661" lon="4.66094">
        <ele>220</ele>
        <time>2018-07-07T10:37:08Z</time>
      </trkpt>
      <trkpt lat="45.86602" lon="4.66099">
        <ele>220</ele>
        <time>2018-07-07T10:37:09Z</time>
      </trkpt>
      <trkpt lat="45.86596" lon="4.66103">
        <ele>220</ele>
        <time>2018-07-07T10:37:10Z</time>
      </trkpt>
      <trkpt lat="45.86591" lon="4.6611">
        <ele>221</ele>
        <time>2018-07-07T10:37:11Z</time>
      </trkpt>
      <trkpt lat="45.86586" lon="4.66115">
        <ele>221</ele>
        <time>2018-07-07T10:37:12Z</time>
      </trkpt>
      <trkpt lat="45.8658" lon="4.66119">
        <ele>215</ele>
        <time>2018-07-07T10:37:13Z</time>
      </trkpt>
      <trkpt lat="45.86574" lon="4.66124">
        <ele>216</ele>
        <time>2018-07-07T10:37:14Z</time>
      </trkpt>
      <trkpt lat="45.86567" lon="4.66129">
        <ele>216</ele>
        <time>2018-07-07T10:37:15Z</time>
      </trkpt>
      <trkpt lat="45.86561" lon="4.66134">
        <ele>217</ele>
        <time>2018-07-07T10:37:16Z</time>
      </trkpt>
      <trkpt lat="45.86555" lon="4.6614">
        <ele>217</ele>
        <time>2018-07-07T10:37:17Z</time>
      </trkpt>
      <trkpt lat="45.86552" lon="4.66146">
        <ele>217</ele>
        <time>2018-07-07T10:37:18Z</time>
      </trkpt>
      <trkpt lat="45.86546" lon="4.66151">
        <ele>217</ele>
        <time>2018-07-07T10:37:19Z</time>
      </trkpt>
      <trkpt lat="45.86539" lon="4.66156">
        <ele>217</ele>
        <time>2018-07-07T10:37:20Z</time>
      </trkpt>
      <trkpt lat="45.86531" lon="4.66161">
        <ele>216</ele>
        <time>2018-07-07T10:37:21Z</time>
      </trkpt>
      <trkpt lat="45.86524" lon="4.66167">
        <ele>222</ele>
        <time>2018-07-07T10:37:22Z</time>
      </trkpt>
      <trkpt lat="45.86517" lon="4.66174">
        <ele>221</ele>
        <time>2018-07-07T10:37:23Z</time>
      </trkpt>
      <trkpt lat="45.8651" lon="4.6618">
        <ele>221</ele>
        <time>2018-07-07T10:37:24Z</time>
      </trkpt>
      <trkpt lat="45.86502" lon="4.66184">
        <ele>221</ele>
        <time>2018-07-07T10:37:25Z</time>
      </trkpt>
      <trkpt lat="45.86495" lon="4.66186">
        <ele>217</ele>
        <time>2018-07-07T10:37:26Z</time>
      </trkpt>
      <trkpt lat="45.86487" lon="4.66191">
        <ele>217</ele>
        <time>2018-07-07T10:37:27Z</time>
      </trkpt>
      <trkpt lat="45.8648" lon="4.66194">
        <ele>217</ele>
        <time>2018-07-07T10:37:28Z</time>
      </trkpt>
      <trkpt lat="45.86475" lon="4.66197">
        <ele>217</ele>
        <time>2018-07-07T10:37:29Z</time>
      </trkpt>
      <trkpt lat="45.86468" lon="4.66199">
        <ele>217</ele>
        <time>2018-07-07T10:37:30Z</time>
      </trkpt>
      <trkpt lat="45.8646" lon="4.662">
        <ele>217</ele>
        <time>2018-07-07T10:37:31Z</time>
      </trkpt>
      <trkpt lat="45.86452" lon="4.66202">
        <ele>217</ele>
        <time>2018-07-07T10:37:32Z</time>
      </trkpt>
      <trkpt lat="45.86445" lon="4.66205">
        <ele>217</ele>
        <time>2018-07-07T10:37:33Z</time>
      </trkpt>
      <trkpt lat="45.86438" lon="4.66207">
        <ele>217</ele>
        <time>2018-07-07T10:37:34Z</time>
      </trkpt>
      <trkpt lat="45.86428" lon="4.66207">
        <ele>216</ele>
        <time>2018-07-07T10:37:35Z</time>
      </trkpt>
      <trkpt lat="45.86422" lon="4.6621">
        <ele>217</ele>
        <time>2018-07-07T10:37:36Z</time>
      </trkpt>
      <trkpt lat="45.86416" lon="4.66213">
        <ele>213</ele>
        <time>2018-07-07T10:37:37Z</time>
      </trkpt>
      <trkpt lat="45.86408" lon="4.66215">
        <ele>214</ele>
        <time>2018-07-07T10:37:38Z</time>
      </trkpt>
      <trkpt lat="45.864" lon="4.66218">
        <ele>214</ele>
        <time>2018-07-07T10:37:39Z</time>
      </trkpt>
      <trkpt lat="45.86393" lon="4.66221">
        <ele>214</ele>
        <time>2018-07-07T10:37:40Z</time>
      </trkpt>
      <trkpt lat="45.86386" lon="4.66223">
        <ele>213</ele>
        <time>2018-07-07T10:37:41Z</time>
      </trkpt>
      <trkpt lat="45.86378" lon="4.66226">
        <ele>213</ele>
        <time>2018-07-07T10:37:42Z</time>
      </trkpt>
      <trkpt lat="45.86371" lon="4.66229">
        <ele>213</ele>
        <time>2018-07-07T10:37:43Z</time>
      </trkpt>
      <trkpt lat="45.86364" lon="4.66233">
        <ele>213</ele>
        <time>2018-07-07T10:37:44Z</time>
      </trkpt>
      <trkpt lat="45.86358" lon="4.66243">
        <ele>213</ele>
        <time>2018-07-07T10:37:45Z</time>
      </trkpt>
      <trkpt lat="45.8635" lon="4.66246">
        <ele>213</ele>
        <time>2018-07-07T10:37:46Z</time>
      </trkpt>
      <trkpt lat="45.86343" lon="4.66251">
        <ele>215</ele>
        <time>2018-07-07T10:37:47Z</time>
      </trkpt>
      <trkpt lat="45.86335" lon="4.66254">
        <ele>214</ele>
        <time>2018-07-07T10:37:48Z</time>
      </trkpt>
      <trkpt lat="45.86328" lon="4.6626">
        <ele>213</ele>
        <time>2018-07-07T10:37:49Z</time>
      </trkpt>
      <trkpt lat="45.86321" lon="4.66266">
        <ele>213</ele>
        <time>2018-07-07T10:37:50Z</time>
      </trkpt>
      <trkpt lat="45.86315" lon="4.66273">
        <ele>214</ele>
        <time>2018-07-07T10:37:51Z</time>
      </trkpt>
      <trkpt lat="45.86308" lon="4.66278">
        <ele>214</ele>
        <time>2018-07-07T10:37:52Z</time>
      </trkpt>
      <trkpt lat="45.86301" lon="4.66285">
        <ele>214</ele>
        <time>2018-07-07T10:37:53Z</time>
      </trkpt>
      <trkpt lat="45.86296" lon="4.66294">
        <ele>214</ele>
        <time>2018-07-07T10:37:54Z</time>
      </trkpt>
      <trkpt lat="45.86289" lon="4.66301">
        <ele>214</ele>
        <time>2018-07-07T10:37:55Z</time>
      </trkpt>
      <trkpt lat="45.86284" lon="4.66309">
        <ele>214</ele>
        <time>2018-07-07T10:37:56Z</time>
      </trkpt>
      <trkpt lat="45.86278" lon="4.66318">
        <ele>213</ele>
        <time>2018-07-07T10:37:57Z</time>
      </trkpt>
      <trkpt lat="45.86272" lon="4.66326">
        <ele>213</ele>
        <time>2018-07-07T10:37:58Z</time>
      </trkpt>
      <trkpt lat="45.86265" lon="4.66332">
        <ele>212</ele>
        <time>2018-07-07T10:37:59Z</time>
      </trkpt>
      <trkpt lat="45.86261" lon="4.66342">
        <ele>214</ele>
        <time>2018-07-07T10:38:00Z</time>
      </trkpt>
      <trkpt lat="45.86256" lon="4.66351">
        <ele>215</ele>
        <time>2018-07-07T10:38:01Z</time>
      </trkpt>
      <trkpt lat="45.86252" lon="4.6636">
        <ele>215</ele>
        <time>2018-07-07T10:38:02Z</time>
      </trkpt>
      <trkpt lat="45.86249" lon="4.66369">
        <ele>212</ele>
        <time>2018-07-07T10:38:03Z</time>
      </trkpt>
      <trkpt lat="45.86245" lon="4.66379">
        <ele>212</ele>
        <time>2018-07-07T10:38:05.602Z</time>
      </trkpt>
      <trkpt lat="45.8624" lon="4.66388">
        <ele>212</ele>
        <time>2018-07-07T10:38:05Z</time>
      </trkpt>
      <trkpt lat="45.86233" lon="4.66394">
        <ele>212</ele>
        <time>2018-07-07T10:38:06Z</time>
      </trkpt>
      <trkpt lat="45.86231" lon="4.66405">
        <ele>212</ele>
        <time>2018-07-07T10:38:07Z</time>
      </trkpt>
      <trkpt lat="45.86227" lon="4.66413">
        <ele>212</ele>
        <time>2018-07-07T10:38:08Z</time>
      </trkpt>
      <trkpt lat="45.86222" lon="4.66423">
        <ele>213</ele>
        <time>2018-07-07T10:38:09Z</time>
      </trkpt>
      <trkpt lat="45.86217" lon="4.6643">
        <ele>213</ele>
        <time>2018-07-07T10:38:10Z</time>
      </trkpt>
      <trkpt lat="45.86213" lon="4.66438">
        <ele>213</ele>
        <time>2018-07-07T10:38:11Z</time>
      </trkpt>
      <trkpt lat="45.8621" lon="4.66444">
        <ele>213</ele>
        <time>2018-07-07T10:38:12Z</time>
      </trkpt>
      <trkpt lat="45.86206" lon="4.66451">
        <ele>213</ele>
        <time>2018-07-07T10:38:13Z</time>
      </trkpt>
      <trkpt lat="45.86203" lon="4.66458">
        <ele>213</ele>
        <time>2018-07-07T10:38:14Z</time>
      </trkpt>
      <trkpt lat="45.86198" lon="4.66466">
        <ele>213</ele>
        <time>2018-07-07T10:38:15Z</time>
      </trkpt>
      <trkpt lat="45.86194" lon="4.66471">
        <ele>213</ele>
        <time>2018-07-07T10:38:16Z</time>
      </trkpt>
      <trkpt lat="45.86189" lon="4.66477">
        <ele>213</ele>
        <time>2018-07-07T10:38:17Z</time>
      </trkpt>
      <trkpt lat="45.86186" lon="4.66484">
        <ele>212</ele>
        <time>2018-07-07T10:38:18Z</time>
      </trkpt>
      <trkpt lat="45.86183" lon="4.66489">
        <ele>212</ele>
        <time>2018-07-07T10:38:19Z</time>
      </trkpt>
      <trkpt lat="45.86179" lon="4.66495">
        <ele>211</ele>
        <time>2018-07-07T10:38:20Z</time>
      </trkpt>
      <trkpt lat="45.86176" lon="4.66503">
        <ele>214</ele>
        <time>2018-07-07T10:38:21Z</time>
      </trkpt>
      <trkpt lat="45.86173" lon="4.66509">
        <ele>214</ele>
        <time>2018-07-07T10:38:22Z</time>
      </trkpt>
      <trkpt lat="45.86169" lon="4.66514">
        <ele>215</ele>
        <time>2018-07-07T10:38:23Z</time>
      </trkpt>
      <trkpt lat="45.86165" lon="4.6652">
        <ele>212</ele>
        <time>2018-07-07T10:38:24Z</time>
      </trkpt>
      <trkpt lat="45.8616" lon="4.66527">
        <ele>213</ele>
        <time>2018-07-07T10:38:25Z</time>
      </trkpt>
      <trkpt lat="45.86157" lon="4.66533">
        <ele>213</ele>
        <time>2018-07-07T10:38:26Z</time>
      </trkpt>
      <trkpt lat="45.86153" lon="4.6654">
        <ele>214</ele>
        <time>2018-07-07T10:38:27Z</time>
      </trkpt>
      <trkpt lat="45.86148" lon="4.66541">
        <ele>214</ele>
        <time>2018-07-07T10:38:28Z</time>
      </trkpt>
      <trkpt lat="45.86143" lon="4.66547">
        <ele>214</ele>
        <time>2018-07-07T10:38:29Z</time>
      </trkpt>
      <trkpt lat="45.86139" lon="4.66552">
        <ele>214</ele>
        <time>2018-07-07T10:38:30Z</time>
      </trkpt>
      <trkpt lat="45.86133" lon="4.66558">
        <ele>214</ele>
        <time>2018-07-07T10:38:31Z</time>
      </trkpt>
      <trkpt lat="45.86127" lon="4.66564">
        <ele>214</ele>
        <time>2018-07-07T10:38:33Z</time>
      </trkpt>
      <trkpt lat="45.8612" lon="4.6657">
        <ele>213</ele>
        <time>2018-07-07T10:38:34Z</time>
      </trkpt>
      <trkpt lat="45.86113" lon="4.66576">
        <ele>213</ele>
        <time>2018-07-07T10:38:35Z</time>
      </trkpt>
      <trkpt lat="45.86107" lon="4.66581">
        <ele>212</ele>
        <time>2018-07-07T10:38:36Z</time>
      </trkpt>
      <trkpt lat="45.86101" lon="4.66585">
        <ele>217</ele>
        <time>2018-07-07T10:38:37Z</time>
      </trkpt>
      <trkpt lat="45.86095" lon="4.66589">
        <ele>216</ele>
        <time>2018-07-07T10:38:38Z</time>
      </trkpt>
      <trkpt lat="45.8609" lon="4.66594">
        <ele>215</ele>
        <time>2018-07-07T10:38:39Z</time>
      </trkpt>
      <trkpt lat="45.86083" lon="4.66598">
        <ele>216</ele>
        <time>2018-07-07T10:38:40Z</time>
      </trkpt>
      <trkpt lat="45.86078" lon="4.66603">
        <ele>212</ele>
        <time>2018-07-07T10:38:41Z</time>
      </trkpt>
      <trkpt lat="45.86073" lon="4.66607">
        <ele>213</ele>
        <time>2018-07-07T10:38:42Z</time>
      </trkpt>
      <trkpt lat="45.86067" lon="4.66612">
        <ele>213</ele>
        <time>2018-07-07T10:38:43Z</time>
      </trkpt>
      <trkpt lat="45.86062" lon="4.66617">
        <ele>213</ele>
        <time>2018-07-07T10:38:44Z</time>
      </trkpt>
      <trkpt lat="45.86056" lon="4.66623">
        <ele>214</ele>
        <time>2018-07-07T10:38:45Z</time>
      </trkpt>
      <trkpt lat="45.86051" lon="4.66626">
        <ele>214</ele>
        <time>2018-07-07T10:38:46Z</time>
      </trkpt>
      <trkpt lat="45.86045" lon="4.66632">
        <ele>214</ele>
        <time>2018-07-07T10:38:47Z</time>
      </trkpt>
      <trkpt lat="45.8604" lon="4.66638">
        <ele>214</ele>
        <time>2018-07-07T10:38:48Z</time>
      </trkpt>
      <trkpt lat="45.86033" lon="4.66644">
        <ele>214</ele>
        <time>2018-07-07T10:38:49Z</time>
      </trkpt>
      <trkpt lat="45.86029" lon="4.66649">
        <ele>213</ele>
        <time>2018-07-07T10:38:50Z</time>
      </trkpt>
      <trkpt lat="45.86023" lon="4.66657">
        <ele>213</ele>
        <time>2018-07-07T10:38:51Z</time>
      </trkpt>
      <trkpt lat="45.86017" lon="4.66663">
        <ele>213</ele>
        <time>2018-07-07T10:38:52Z</time>
      </trkpt>
      <trkpt lat="45.86011" lon="4.66669">
        <ele>215</ele>
        <time>2018-07-07T10:38:53Z</time>
      </trkpt>
      <trkpt lat="45.86006" lon="4.66676">
        <ele>215</ele>
        <time>2018-07-07T10:38:54Z</time>
      </trkpt>
      <trkpt lat="45.86001" lon="4.66682">
        <ele>216</ele>
        <time>2018-07-07T10:38:55Z</time>
      </trkpt>
      <trkpt lat="45.85996" lon="4.66689">
        <ele>214</ele>
        <time>2018-07-07T10:38:56Z</time>
      </trkpt>
      <trkpt lat="45.85992" lon="4.66697">
        <ele>214</ele>
        <time>2018-07-07T10:38:57Z</time>
      </trkpt>
      <trkpt lat="45.85987" lon="4.66704">
        <ele>215</ele>
        <time>2018-07-07T10:38:58Z</time>
      </trkpt>
      <trkpt lat="45.85984" lon="4.66711">
        <ele>215</ele>
        <time>2018-07-07T10:38:59Z</time>
      </trkpt>
      <trkpt lat="45.8598" lon="4.6672">
        <ele>215</ele>
        <time>2018-07-07T10:39:00Z</time>
      </trkpt>
      <trkpt lat="45.85976" lon="4.66729">
        <ele>216</ele>
        <time>2018-07-07T10:39:01Z</time>
      </trkpt>
      <trkpt lat="45.85972" lon="4.66738">
        <ele>216</ele>
        <time>2018-07-07T10:39:02Z</time>
      </trkpt>
      <trkpt lat="45.8597" lon="4.66748">
        <ele>216</ele>
        <time>2018-07-07T10:39:03Z</time>
      </trkpt>
      <trkpt lat="45.85966" lon="4.66757">
        <ele>214</ele>
        <time>2018-07-07T10:39:04Z</time>
      </trkpt>
      <trkpt lat="45.85962" lon="4.66767">
        <ele>214</ele>
        <time>2018-07-07T10:39:05Z</time>
      </trkpt>
      <trkpt lat="45.85958" lon="4.66775">
        <ele>214</ele>
        <time>2018-07-07T10:39:06Z</time>
      </trkpt>
      <trkpt lat="45.85955" lon="4.66785">
        <ele>213</ele>
        <time>2018-07-07T10:39:07Z</time>
      </trkpt>
      <trkpt lat="45.85952" lon="4.66794">
        <ele>213</ele>
        <time>2018-07-07T10:39:08Z</time>
      </trkpt>
      <trkpt lat="45.8595" lon="4.66801">
        <ele>213</ele>
        <time>2018-07-07T10:39:09Z</time>
      </trkpt>
      <trkpt lat="45.85947" lon="4.6681">
        <ele>212</ele>
        <time>2018-07-07T10:39:10Z</time>
      </trkpt>
      <trkpt lat="45.85942" lon="4.66819">
        <ele>212</ele>
        <time>2018-07-07T10:39:11Z</time>
      </trkpt>
      <trkpt lat="45.85939" lon="4.66827">
        <ele>212</ele>
        <time>2018-07-07T10:39:12Z</time>
      </trkpt>
      <trkpt lat="45.85938" lon="4.66836">
        <ele>210</ele>
        <time>2018-07-07T10:39:13Z</time>
      </trkpt>
      <trkpt lat="45.85935" lon="4.66846">
        <ele>210</ele>
        <time>2018-07-07T10:39:14Z</time>
      </trkpt>
      <trkpt lat="45.85933" lon="4.66856">
        <ele>210</ele>
        <time>2018-07-07T10:39:15Z</time>
      </trkpt>
      <trkpt lat="45.8593" lon="4.66864">
        <ele>210</ele>
        <time>2018-07-07T10:39:16Z</time>
      </trkpt>
      <trkpt lat="45.85929" lon="4.66875">
        <ele>210</ele>
        <time>2018-07-07T10:39:17Z</time>
      </trkpt>
      <trkpt lat="45.85927" lon="4.66882">
        <ele>210</ele>
        <time>2018-07-07T10:39:18Z</time>
      </trkpt>
      <trkpt lat="45.85924" lon="4.6689">
        <ele>209</ele>
        <time>2018-07-07T10:39:19Z</time>
      </trkpt>
      <trkpt lat="45.85923" lon="4.66898">
        <ele>209</ele>
        <time>2018-07-07T10:39:20Z</time>
      </trkpt>
      <trkpt lat="45.8592" lon="4.66904">
        <ele>209</ele>
        <time>2018-07-07T10:39:21Z</time>
      </trkpt>
      <trkpt lat="45.85917" lon="4.66911">
        <ele>208</ele>
        <time>2018-07-07T10:39:22Z</time>
      </trkpt>
      <trkpt lat="45.85916" lon="4.66919">
        <ele>207</ele>
        <time>2018-07-07T10:39:23Z</time>
      </trkpt>
      <trkpt lat="45.85914" lon="4.66927">
        <ele>207</ele>
        <time>2018-07-07T10:39:24Z</time>
      </trkpt>
      <trkpt lat="45.85909" lon="4.66936">
        <ele>207</ele>
        <time>2018-07-07T10:39:26Z</time>
      </trkpt>
      <trkpt lat="45.85907" lon="4.66944">
        <ele>207</ele>
        <time>2018-07-07T10:39:27Z</time>
      </trkpt>
      <trkpt lat="45.85901" lon="4.66951">
        <ele>207</ele>
        <time>2018-07-07T10:39:29Z</time>
      </trkpt>
      <trkpt lat="45.85899" lon="4.6696">
        <ele>207</ele>
        <time>2018-07-07T10:39:30Z</time>
      </trkpt>
      <trkpt lat="45.85897" lon="4.6697">
        <ele>207</ele>
        <time>2018-07-07T10:39:31Z</time>
      </trkpt>
      <trkpt lat="45.85898" lon="4.66977">
        <ele>207</ele>
        <time>2018-07-07T10:39:32Z</time>
      </trkpt>
      <trkpt lat="45.85898" lon="4.66986">
        <ele>207</ele>
        <time>2018-07-07T10:39:33Z</time>
      </trkpt>
      <trkpt lat="45.85899" lon="4.66995">
        <ele>207</ele>
        <time>2018-07-07T10:39:34Z</time>
      </trkpt>
      <trkpt lat="45.85899" lon="4.67003">
        <ele>206</ele>
        <time>2018-07-07T10:39:35Z</time>
      </trkpt>
      <trkpt lat="45.85899" lon="4.67012">
        <ele>205</ele>
        <time>2018-07-07T10:39:36Z</time>
      </trkpt>
      <trkpt lat="45.85899" lon="4.67021">
        <ele>205</ele>
        <time>2018-07-07T10:39:37Z</time>
      </trkpt>
      <trkpt lat="45.85899" lon="4.6703">
        <ele>205</ele>
        <time>2018-07-07T10:39:38Z</time>
      </trkpt>
      <trkpt lat="45.85898" lon="4.67041">
        <ele>205</ele>
        <time>2018-07-07T10:39:39Z</time>
      </trkpt>
      <trkpt lat="45.85896" lon="4.67051">
        <ele>205</ele>
        <time>2018-07-07T10:39:40Z</time>
      </trkpt>
      <trkpt lat="45.85895" lon="4.67062">
        <ele>205</ele>
        <time>2018-07-07T10:39:41Z</time>
      </trkpt>
      <trkpt lat="45.85893" lon="4.67071">
        <ele>205</ele>
        <time>2018-07-07T10:39:42Z</time>
      </trkpt>
      <trkpt lat="45.85891" lon="4.67079">
        <ele>205</ele>
        <time>2018-07-07T10:39:43Z</time>
      </trkpt>
      <trkpt lat="45.8589" lon="4.67089">
        <ele>204</ele>
        <time>2018-07-07T10:39:44Z</time>
      </trkpt>
      <trkpt lat="45.8589" lon="4.671">
        <ele>204</ele>
        <time>2018-07-07T10:39:45Z</time>
      </trkpt>
      <trkpt lat="45.85889" lon="4.67109">
        <ele>204</ele>
        <time>2018-07-07T10:39:46Z</time>
      </trkpt>
      <trkpt lat="45.85888" lon="4.67118">
        <ele>204</ele>
        <time>2018-07-07T10:39:47Z</time>
      </trkpt>
      <trkpt lat="45.85887" lon="4.67126">
        <ele>204</ele>
        <time>2018-07-07T10:39:48Z</time>
      </trkpt>
      <trkpt lat="45.85886" lon="4.67134">
        <ele>204</ele>
        <time>2018-07-07T10:39:49Z</time>
      </trkpt>
      <trkpt lat="45.85883" lon="4.67144">
        <ele>204</ele>
        <time>2018-07-07T10:39:50Z</time>
      </trkpt>
      <trkpt lat="45.85881" lon="4.6715">
        <ele>204</ele>
        <time>2018-07-07T10:39:51Z</time>
      </trkpt>
      <trkpt lat="45.8588" lon="4.67159">
        <ele>204</ele>
        <time>2018-07-07T10:39:52Z</time>
      </trkpt>
      <trkpt lat="45.8588" lon="4.6717">
        <ele>204</ele>
        <time>2018-07-07T10:39:53Z</time>
      </trkpt>
      <trkpt lat="45.85879" lon="4.67179">
        <ele>204</ele>
        <time>2018-07-07T10:39:54Z</time>
      </trkpt>
      <trkpt lat="45.8588" lon="4.6719">
        <ele>204</ele>
        <time>2018-07-07T10:39:55Z</time>
      </trkpt>
      <trkpt lat="45.85879" lon="4.672">
        <ele>204</ele>
        <time>2018-07-07T10:39:56Z</time>
      </trkpt>
      <trkpt lat="45.85878" lon="4.67209">
        <ele>204</ele>
        <time>2018-07-07T10:39:57Z</time>
      </trkpt>
      <trkpt lat="45.85877" lon="4.6722">
        <ele>204</ele>
        <time>2018-07-07T10:39:58Z</time>
      </trkpt>
      <trkpt lat="45.85876" lon="4.6723">
        <ele>204</ele>
        <time>2018-07-07T10:39:59Z</time>
      </trkpt>
      <trkpt lat="45.85875" lon="4.67239">
        <ele>204</ele>
        <time>2018-07-07T10:40:00Z</time>
      </trkpt>
      <trkpt lat="45.85874" lon="4.67248">
        <ele>204</ele>
        <time>2018-07-07T10:40:01Z</time>
      </trkpt>
      <trkpt lat="45.85873" lon="4.67258">
        <ele>205</ele>
        <time>2018-07-07T10:40:02Z</time>
      </trkpt>
      <trkpt lat="45.85872" lon="4.67268">
        <ele>205</ele>
        <time>2018-07-07T10:40:03Z</time>
      </trkpt>
      <trkpt lat="45.85871" lon="4.67277">
        <ele>205</ele>
        <time>2018-07-07T10:40:04Z</time>
      </trkpt>
      <trkpt lat="45.8587" lon="4.67286">
        <ele>205</ele>
        <time>2018-07-07T10:40:05Z</time>
      </trkpt>
      <trkpt lat="45.8587" lon="4.67295">
        <ele>205</ele>
        <time>2018-07-07T10:40:06Z</time>
      </trkpt>
      <trkpt lat="45.85869" lon="4.67304">
        <ele>205</ele>
        <time>2018-07-07T10:40:07Z</time>
      </trkpt>
      <trkpt lat="45.85868" lon="4.67312">
        <ele>205</ele>
        <time>2018-07-07T10:40:08Z</time>
      </trkpt>
      <trkpt lat="45.85868" lon="4.67322">
        <ele>205</ele>
        <time>2018-07-07T10:40:09Z</time>
      </trkpt>
      <trkpt lat="45.85867" lon="4.67332">
        <ele>205</ele>
        <time>2018-07-07T10:40:10Z</time>
      </trkpt>
      <trkpt lat="45.85865" lon="4.67338">
        <ele>207</ele>
        <time>2018-07-07T10:40:11Z</time>
      </trkpt>
      <trkpt lat="45.85863" lon="4.67349">
        <ele>207</ele>
        <time>2018-07-07T10:40:12Z</time>
      </trkpt>
      <trkpt lat="45.85863" lon="4.67357">
        <ele>208</ele>
        <time>2018-07-07T10:40:13Z</time>
      </trkpt>
      <trkpt lat="45.85863" lon="4.67368">
        <ele>208</ele>
        <time>2018-07-07T10:40:14Z</time>
      </trkpt>
      <trkpt lat="45.85862" lon="4.67377">
        <ele>208</ele>
        <time>2018-07-07T10:40:15Z</time>
      </trkpt>
      <trkpt lat="45.85862" lon="4.67385">
        <ele>208</ele>
        <time>2018-07-07T10:40:16Z</time>
      </trkpt>
      <trkpt lat="45.8586" lon="4.67396">
        <ele>208</ele>
        <time>2018-07-07T10:40:17Z</time>
      </trkpt>
      <trkpt lat="45.8586" lon="4.67405">
        <ele>208</ele>
        <time>2018-07-07T10:40:18Z</time>
      </trkpt>
      <trkpt lat="45.85858" lon="4.67414">
        <ele>207</ele>
        <time>2018-07-07T10:40:19Z</time>
      </trkpt>
      <trkpt lat="45.85856" lon="4.67422">
        <ele>210</ele>
        <time>2018-07-07T10:40:20Z</time>
      </trkpt>
      <trkpt lat="45.85855" lon="4.6743">
        <ele>211</ele>
        <time>2018-07-07T10:40:21Z</time>
      </trkpt>
      <trkpt lat="45.85855" lon="4.67439">
        <ele>211</ele>
        <time>2018-07-07T10:40:22Z</time>
      </trkpt>
      <trkpt lat="45.85854" lon="4.67449">
        <ele>212</ele>
        <time>2018-07-07T10:40:23Z</time>
      </trkpt>
      <trkpt lat="45.85852" lon="4.67456">
        <ele>212</ele>
        <time>2018-07-07T10:40:24Z</time>
      </trkpt>
      <trkpt lat="45.8585" lon="4.67464">
        <ele>212</ele>
        <time>2018-07-07T10:40:25Z</time>
      </trkpt>
      <trkpt lat="45.85847" lon="4.67471">
        <ele>212</ele>
        <time>2018-07-07T10:40:26Z</time>
      </trkpt>
      <trkpt lat="45.85844" lon="4.67481">
        <ele>211</ele>
        <time>2018-07-07T10:40:27Z</time>
      </trkpt>
      <trkpt lat="45.85841" lon="4.6749">
        <ele>210</ele>
        <time>2018-07-07T10:40:28Z</time>
      </trkpt>
      <trkpt lat="45.85838" lon="4.675">
        <ele>208</ele>
        <time>2018-07-07T10:40:29Z</time>
      </trkpt>
      <trkpt lat="45.85834" lon="4.67507">
        <ele>211</ele>
        <time>2018-07-07T10:40:30Z</time>
      </trkpt>
      <trkpt lat="45.8583" lon="4.67517">
        <ele>208</ele>
        <time>2018-07-07T10:40:31Z</time>
      </trkpt>
      <trkpt lat="45.85825" lon="4.67525">
        <ele>209</ele>
        <time>2018-07-07T10:40:32Z</time>
      </trkpt>
      <trkpt lat="45.8582" lon="4.6753">
        <ele>209</ele>
        <time>2018-07-07T10:40:33Z</time>
      </trkpt>
      <trkpt lat="45.85815" lon="4.67537">
        <ele>210</ele>
        <time>2018-07-07T10:40:34Z</time>
      </trkpt>
      <trkpt lat="45.8581" lon="4.67545">
        <ele>211</ele>
        <time>2018-07-07T10:40:35Z</time>
      </trkpt>
      <trkpt lat="45.85805" lon="4.67551">
        <ele>211</ele>
        <time>2018-07-07T10:40:36Z</time>
      </trkpt>
      <trkpt lat="45.858" lon="4.67557">
        <ele>211</ele>
        <time>2018-07-07T10:40:37Z</time>
      </trkpt>
      <trkpt lat="45.85796" lon="4.67563">
        <ele>211</ele>
        <time>2018-07-07T10:40:38Z</time>
      </trkpt>
      <trkpt lat="45.85791" lon="4.67569">
        <ele>211</ele>
        <time>2018-07-07T10:40:39Z</time>
      </trkpt>
      <trkpt lat="45.85785" lon="4.67575">
        <ele>210</ele>
        <time>2018-07-07T10:40:40Z</time>
      </trkpt>
      <trkpt lat="45.85779" lon="4.6758">
        <ele>209</ele>
        <time>2018-07-07T10:40:41Z</time>
      </trkpt>
      <trkpt lat="45.85773" lon="4.67586">
        <ele>216</ele>
        <time>2018-07-07T10:40:42Z</time>
      </trkpt>
      <trkpt lat="45.85768" lon="4.67594">
        <ele>215</ele>
        <time>2018-07-07T10:40:43Z</time>
      </trkpt>
      <trkpt lat="45.85762" lon="4.676">
        <ele>215</ele>
        <time>2018-07-07T10:40:44Z</time>
      </trkpt>
      <trkpt lat="45.85755" lon="4.67604">
        <ele>215</ele>
        <time>2018-07-07T10:40:45Z</time>
      </trkpt>
      <trkpt lat="45.8575" lon="4.67609">
        <ele>210</ele>
        <time>2018-07-07T10:40:46Z</time>
      </trkpt>
      <trkpt lat="45.85744" lon="4.67614">
        <ele>210</ele>
        <time>2018-07-07T10:40:47Z</time>
      </trkpt>
      <trkpt lat="45.85738" lon="4.67617">
        <ele>211</ele>
        <time>2018-07-07T10:40:48Z</time>
      </trkpt>
      <trkpt lat="45.85732" lon="4.67621">
        <ele>211</ele>
        <time>2018-07-07T10:40:49Z</time>
      </trkpt>
      <trkpt lat="45.85727" lon="4.67625">
        <ele>211</ele>
        <time>2018-07-07T10:40:50Z</time>
      </trkpt>
      <trkpt lat="45.85722" lon="4.67629">
        <ele>211</ele>
        <time>2018-07-07T10:40:51Z</time>
      </trkpt>
      <trkpt lat="45.85714" lon="4.67632">
        <ele>211</ele>
        <time>2018-07-07T10:40:52Z</time>
      </trkpt>
      <trkpt lat="45.8571" lon="4.67637">
        <ele>211</ele>
        <time>2018-07-07T10:40:53Z</time>
      </trkpt>
      <trkpt lat="45.85704" lon="4.67641">
        <ele>211</ele>
        <time>2018-07-07T10:40:54Z</time>
      </trkpt>
      <trkpt lat="45.85699" lon="4.67644">
        <ele>211</ele>
        <time>2018-07-07T10:40:55Z</time>
      </trkpt>
      <trkpt lat="45.85693" lon="4.67648">
        <ele>211</ele>
        <time>2018-07-07T10:40:56Z</time>
      </trkpt>
      <trkpt lat="45.85687" lon="4.6765">
        <ele>210</ele>
        <time>2018-07-07T10:40:57Z</time>
      </trkpt>
      <trkpt lat="45.85681" lon="4.67654">
        <ele>210</ele>
        <time>2018-07-07T10:40:58Z</time>
      </trkpt>
      <trkpt lat="45.85676" lon="4.67658">
        <ele>210</ele>
        <time>2018-07-07T10:40:59Z</time>
      </trkpt>
      <trkpt lat="45.8567" lon="4.67661">
        <ele>209</ele>
        <time>2018-07-07T10:41:00Z</time>
      </trkpt>
      <trkpt lat="45.85665" lon="4.67664">
        <ele>209</ele>
        <time>2018-07-07T10:41:01Z</time>
      </trkpt>
      <trkpt lat="45.8566" lon="4.67668">
        <ele>209</ele>
        <time>2018-07-07T10:41:02Z</time>
      </trkpt>
      <trkpt lat="45.85656" lon="4.67672">
        <ele>209</ele>
        <time>2018-07-07T10:41:03Z</time>
      </trkpt>
      <trkpt lat="45.85651" lon="4.67674">
        <ele>209</ele>
        <time>2018-07-07T10:41:04Z</time>
      </trkpt>
      <trkpt lat="45.85646" lon="4.67678">
        <ele>209</ele>
        <time>2018-07-07T10:41:05Z</time>
      </trkpt>
      <trkpt lat="45.85642" lon="4.67681">
        <ele>209</ele>
        <time>2018-07-07T10:41:06Z</time>
      </trkpt>
      <trkpt lat="45.85637" lon="4.67688">
        <ele>209</ele>
        <time>2018-07-07T10:41:07Z</time>
      </trkpt>
      <trkpt lat="45.85633" lon="4.67694">
        <ele>209</ele>
        <time>2018-07-07T10:41:08Z</time>
      </trkpt>
      <trkpt lat="45.85629" lon="4.67697">
        <ele>209</ele>
        <time>2018-07-07T10:41:09Z</time>
      </trkpt>
      <trkpt lat="45.85623" lon="4.67701">
        <ele>209</ele>
        <time>2018-07-07T10:41:10Z</time>
      </trkpt>
      <trkpt lat="45.85619" lon="4.67707">
        <ele>209</ele>
        <time>2018-07-07T10:41:11Z</time>
      </trkpt>
      <trkpt lat="45.85614" lon="4.67713">
        <ele>208</ele>
        <time>2018-07-07T10:41:12Z</time>
      </trkpt>
      <trkpt lat="45.8561" lon="4.67719">
        <ele>208</ele>
        <time>2018-07-07T10:41:13Z</time>
      </trkpt>
      <trkpt lat="45.85606" lon="4.67725">
        <ele>208</ele>
        <time>2018-07-07T10:41:14Z</time>
      </trkpt>
      <trkpt lat="45.85603" lon="4.67731">
        <ele>207</ele>
        <time>2018-07-07T10:41:15Z</time>
      </trkpt>
      <trkpt lat="45.85599" lon="4.67738">
        <ele>207</ele>
        <time>2018-07-07T10:41:16Z</time>
      </trkpt>
      <trkpt lat="45.85596" lon="4.67746">
        <ele>206</ele>
        <time>2018-07-07T10:41:17Z</time>
      </trkpt>
      <trkpt lat="45.85593" lon="4.67754">
        <ele>206</ele>
        <time>2018-07-07T10:41:18Z</time>
      </trkpt>
      <trkpt lat="45.85589" lon="4.67761">
        <ele>207</ele>
        <time>2018-07-07T10:41:19Z</time>
      </trkpt>
      <trkpt lat="45.85586" lon="4.6777">
        <ele>208</ele>
        <time>2018-07-07T10:41:20Z</time>
      </trkpt>
      <trkpt lat="45.85584" lon="4.67781">
        <ele>209</ele>
        <time>2018-07-07T10:41:21Z</time>
      </trkpt>
      <trkpt lat="45.85581" lon="4.67787">
        <ele>206</ele>
        <time>2018-07-07T10:41:22Z</time>
      </trkpt>
      <trkpt lat="45.85579" lon="4.67797">
        <ele>206</ele>
        <time>2018-07-07T10:41:23Z</time>
      </trkpt>
      <trkpt lat="45.85577" lon="4.67807">
        <ele>206</ele>
        <time>2018-07-07T10:41:24Z</time>
      </trkpt>
      <trkpt lat="45.85576" lon="4.67815">
        <ele>206</ele>
        <time>2018-07-07T10:41:25Z</time>
      </trkpt>
      <trkpt lat="45.85574" lon="4.67822">
        <ele>206</ele>
        <time>2018-07-07T10:41:26Z</time>
      </trkpt>
      <trkpt lat="45.85572" lon="4.67831">
        <ele>206</ele>
        <time>2018-07-07T10:41:27Z</time>
      </trkpt>
      <trkpt lat="45.8557" lon="4.67841">
        <ele>206</ele>
        <time>2018-07-07T10:41:28Z</time>
      </trkpt>
      <trkpt lat="45.8557" lon="4.6785">
        <ele>206</ele>
        <time>2018-07-07T10:41:29Z</time>
      </trkpt>
      <trkpt lat="45.85568" lon="4.67858">
        <ele>207</ele>
        <time>2018-07-07T10:41:30Z</time>
      </trkpt>
      <trkpt lat="45.85568" lon="4.67865">
        <ele>207</ele>
        <time>2018-07-07T10:41:31Z</time>
      </trkpt>
      <trkpt lat="45.85568" lon="4.67872">
        <ele>207</ele>
        <time>2018-07-07T10:41:32Z</time>
      </trkpt>
      <trkpt lat="45.85567" lon="4.6788">
        <ele>207</ele>
        <time>2018-07-07T10:41:33Z</time>
      </trkpt>
      <trkpt lat="45.85567" lon="4.67888">
        <ele>206</ele>
        <time>2018-07-07T10:41:34Z</time>
      </trkpt>
      <trkpt lat="45.85567" lon="4.67898">
        <ele>206</ele>
        <time>2018-07-07T10:41:36Z</time>
      </trkpt>
      <trkpt lat="45.85567" lon="4.67907">
        <ele>206</ele>
        <time>2018-07-07T10:41:37Z</time>
      </trkpt>
      <trkpt lat="45.85563" lon="4.67917">
        <ele>205</ele>
        <time>2018-07-07T10:41:39Z</time>
      </trkpt>
      <trkpt lat="45.85564" lon="4.67922">
        <ele>205</ele>
        <time>2018-07-07T10:41:40Z</time>
      </trkpt>
      <trkpt lat="45.8556" lon="4.67927">
        <ele>205</ele>
        <time>2018-07-07T10:41:41Z</time>
      </trkpt>
      <trkpt lat="45.85557" lon="4.67932">
        <ele>205</ele>
        <time>2018-07-07T10:41:42Z</time>
      </trkpt>
      <trkpt lat="45.85551" lon="4.67934">
        <ele>205</ele>
        <time>2018-07-07T10:41:43Z</time>
      </trkpt>
      <trkpt lat="45.85547" lon="4.67939">
        <ele>205</ele>
        <time>2018-07-07T10:41:44Z</time>
      </trkpt>
      <trkpt lat="45.85541" lon="4.67945">
        <ele>206</ele>
        <time>2018-07-07T10:41:45Z</time>
      </trkpt>
      <trkpt lat="45.85537" lon="4.6795">
        <ele>206</ele>
        <time>2018-07-07T10:41:46Z</time>
      </trkpt>
      <trkpt lat="45.85532" lon="4.67953">
        <ele>206</ele>
        <time>2018-07-07T10:41:47Z</time>
      </trkpt>
      <trkpt lat="45.85526" lon="4.67958">
        <ele>206</ele>
        <time>2018-07-07T10:41:48Z</time>
      </trkpt>
      <trkpt lat="45.85522" lon="4.67961">
        <ele>206</ele>
        <time>2018-07-07T10:41:49Z</time>
      </trkpt>
      <trkpt lat="45.85517" lon="4.67967">
        <ele>206</ele>
        <time>2018-07-07T10:41:50Z</time>
      </trkpt>
      <trkpt lat="45.85512" lon="4.6797">
        <ele>206</ele>
        <time>2018-07-07T10:41:51Z</time>
      </trkpt>
      <trkpt lat="45.85509" lon="4.67976">
        <ele>206</ele>
        <time>2018-07-07T10:41:52Z</time>
      </trkpt>
      <trkpt lat="45.85506" lon="4.67984">
        <ele>206</ele>
        <time>2018-07-07T10:41:53Z</time>
      </trkpt>
      <trkpt lat="45.85501" lon="4.67989">
        <ele>206</ele>
        <time>2018-07-07T10:41:54Z</time>
      </trkpt>
      <trkpt lat="45.85495" lon="4.67992">
        <ele>208</ele>
        <time>2018-07-07T10:41:55Z</time>
      </trkpt>
      <trkpt lat="45.85493" lon="4.67996">
        <ele>207</ele>
        <time>2018-07-07T10:41:56Z</time>
      </trkpt>
      <trkpt lat="45.85486" lon="4.68">
        <ele>208</ele>
        <time>2018-07-07T10:41:58Z</time>
      </trkpt>
      <trkpt lat="45.85482" lon="4.68004">
        <ele>207</ele>
        <time>2018-07-07T10:41:59Z</time>
      </trkpt>
      <trkpt lat="45.8548" lon="4.68016">
        <ele>207</ele>
        <time>2018-07-07T10:42:01Z</time>
      </trkpt>
      <trkpt lat="45.85482" lon="4.68022">
        <ele>207</ele>
        <time>2018-07-07T10:42:02Z</time>
      </trkpt>
      <trkpt lat="45.85487" lon="4.68027">
        <ele>207</ele>
        <time>2018-07-07T10:42:03Z</time>
      </trkpt>
      <trkpt lat="45.85492" lon="4.68031">
        <ele>207</ele>
        <time>2018-07-07T10:42:04Z</time>
      </trkpt>
      <trkpt lat="45.8549" lon="4.68042">
        <ele>206</ele>
        <time>2018-07-07T10:42:05Z</time>
      </trkpt>
      <trkpt lat="45.85493" lon="4.6805">
        <ele>206</ele>
        <time>2018-07-07T10:42:06Z</time>
      </trkpt>
      <trkpt lat="45.85493" lon="4.68062">
        <ele>206</ele>
        <time>2018-07-07T10:42:07Z</time>
      </trkpt>
      <trkpt lat="45.85495" lon="4.68071">
        <ele>205</ele>
        <time>2018-07-07T10:42:08Z</time>
      </trkpt>
      <trkpt lat="45.85496" lon="4.68078">
        <ele>205</ele>
        <time>2018-07-07T10:42:09Z</time>
      </trkpt>
      <trkpt lat="45.85495" lon="4.68086">
        <ele>204</ele>
        <time>2018-07-07T10:42:10Z</time>
      </trkpt>
      <trkpt lat="45.85496" lon="4.68095">
        <ele>204</ele>
        <time>2018-07-07T10:42:11Z</time>
      </trkpt>
      <trkpt lat="45.85496" lon="4.68102">
        <ele>204</ele>
        <time>2018-07-07T10:42:12Z</time>
      </trkpt>
      <trkpt lat="45.85498" lon="4.68108">
        <ele>204</ele>
        <time>2018-07-07T10:42:13Z</time>
      </trkpt>
      <trkpt lat="45.85498" lon="4.68118">
        <ele>204</ele>
        <time>2018-07-07T10:42:14Z</time>
      </trkpt>
      <trkpt lat="45.85499" lon="4.68128">
        <ele>204</ele>
        <time>2018-07-07T10:42:15Z</time>
      </trkpt>
      <trkpt lat="45.855" lon="4.68138">
        <ele>204</ele>
        <time>2018-07-07T10:42:16Z</time>
      </trkpt>
      <trkpt lat="45.85502" lon="4.68149">
        <ele>203</ele>
        <time>2018-07-07T10:42:17Z</time>
      </trkpt>
      <trkpt lat="45.85503" lon="4.6816">
        <ele>204</ele>
        <time>2018-07-07T10:42:18Z</time>
      </trkpt>
      <trkpt lat="45.85503" lon="4.68168">
        <ele>204</ele>
        <time>2018-07-07T10:42:19Z</time>
      </trkpt>
      <trkpt lat="45.85504" lon="4.68177">
        <ele>204</ele>
        <time>2018-07-07T10:42:20Z</time>
      </trkpt>
      <trkpt lat="45.85504" lon="4.68188">
        <ele>203</ele>
        <time>2018-07-07T10:42:21Z</time>
      </trkpt>
      <trkpt lat="45.85505" lon="4.68197">
        <ele>203</ele>
        <time>2018-07-07T10:42:22Z</time>
      </trkpt>
      <trkpt lat="45.85506" lon="4.68208">
        <ele>203</ele>
        <time>2018-07-07T10:42:23Z</time>
      </trkpt>
      <trkpt lat="45.85506" lon="4.68218">
        <ele>203</ele>
        <time>2018-07-07T10:42:24Z</time>
      </trkpt>
      <trkpt lat="45.85508" lon="4.68228">
        <ele>203</ele>
        <time>2018-07-07T10:42:25Z</time>
      </trkpt>
      <trkpt lat="45.85509" lon="4.68237">
        <ele>203</ele>
        <time>2018-07-07T10:42:26Z</time>
      </trkpt>
      <trkpt lat="45.85509" lon="4.68245">
        <ele>203</ele>
        <time>2018-07-07T10:42:27Z</time>
      </trkpt>
      <trkpt lat="45.85512" lon="4.68254">
        <ele>203</ele>
        <time>2018-07-07T10:42:28Z</time>
      </trkpt>
      <trkpt lat="45.85511" lon="4.68264">
        <ele>202</ele>
        <time>2018-07-07T10:42:29Z</time>
      </trkpt>
      <trkpt lat="45.85513" lon="4.68274">
        <ele>202</ele>
        <time>2018-07-07T10:42:30Z</time>
      </trkpt>
      <trkpt lat="45.85514" lon="4.68281">
        <ele>202</ele>
        <time>2018-07-07T10:42:31Z</time>
      </trkpt>
      <trkpt lat="45.85514" lon="4.68288">
        <ele>202</ele>
        <time>2018-07-07T10:42:32Z</time>
      </trkpt>
      <trkpt lat="45.85515" lon="4.68296">
        <ele>202</ele>
        <time>2018-07-07T10:42:33Z</time>
      </trkpt>
      <trkpt lat="45.85517" lon="4.68305">
        <ele>202</ele>
        <time>2018-07-07T10:42:34Z</time>
      </trkpt>
      <trkpt lat="45.85519" lon="4.68315">
        <ele>202</ele>
        <time>2018-07-07T10:42:35Z</time>
      </trkpt>
      <trkpt lat="45.85517" lon="4.68323">
        <ele>202</ele>
        <time>2018-07-07T10:42:36Z</time>
      </trkpt>
      <trkpt lat="45.85518" lon="4.68333">
        <ele>202</ele>
        <time>2018-07-07T10:42:37Z</time>
      </trkpt>
      <trkpt lat="45.85516" lon="4.68342">
        <ele>201</ele>
        <time>2018-07-07T10:42:38Z</time>
      </trkpt>
      <trkpt lat="45.85518" lon="4.68353">
        <ele>201</ele>
        <time>2018-07-07T10:42:39Z</time>
      </trkpt>
      <trkpt lat="45.85519" lon="4.68364">
        <ele>201</ele>
        <time>2018-07-07T10:42:40Z</time>
      </trkpt>
      <trkpt lat="45.8552" lon="4.68374">
        <ele>201</ele>
        <time>2018-07-07T10:42:41Z</time>
      </trkpt>
      <trkpt lat="45.8552" lon="4.68383">
        <ele>201</ele>
        <time>2018-07-07T10:42:42Z</time>
      </trkpt>
      <trkpt lat="45.85521" lon="4.68393">
        <ele>200</ele>
        <time>2018-07-07T10:42:43Z</time>
      </trkpt>
      <trkpt lat="45.85522" lon="4.68403">
        <ele>200</ele>
        <time>2018-07-07T10:42:44Z</time>
      </trkpt>
      <trkpt lat="45.85522" lon="4.68413">
        <ele>200</ele>
        <time>2018-07-07T10:42:45Z</time>
      </trkpt>
      <trkpt lat="45.85523" lon="4.68422">
        <ele>200</ele>
        <time>2018-07-07T10:42:46Z</time>
      </trkpt>
      <trkpt lat="45.85525" lon="4.68431">
        <ele>200</ele>
        <time>2018-07-07T10:42:47Z</time>
      </trkpt>
      <trkpt lat="45.85525" lon="4.68438">
        <ele>200</ele>
        <time>2018-07-07T10:42:48Z</time>
      </trkpt>
      <trkpt lat="45.85527" lon="4.68447">
        <ele>200</ele>
        <time>2018-07-07T10:42:49Z</time>
      </trkpt>
      <trkpt lat="45.85527" lon="4.68457">
        <ele>200</ele>
        <time>2018-07-07T10:42:50Z</time>
      </trkpt>
      <trkpt lat="45.85528" lon="4.68466">
        <ele>200</ele>
        <time>2018-07-07T10:42:51Z</time>
      </trkpt>
      <trkpt lat="45.85528" lon="4.68475">
        <ele>200</ele>
        <time>2018-07-07T10:42:52Z</time>
      </trkpt>
      <trkpt lat="45.85529" lon="4.68484">
        <ele>200</ele>
        <time>2018-07-07T10:42:53Z</time>
      </trkpt>
      <trkpt lat="45.85531" lon="4.68494">
        <ele>200</ele>
        <time>2018-07-07T10:42:54Z</time>
      </trkpt>
      <trkpt lat="45.85532" lon="4.68504">
        <ele>201</ele>
        <time>2018-07-07T10:42:55Z</time>
      </trkpt>
      <trkpt lat="45.85531" lon="4.68513">
        <ele>201</ele>
        <time>2018-07-07T10:42:56Z</time>
      </trkpt>
      <trkpt lat="45.85533" lon="4.68523">
        <ele>201</ele>
        <time>2018-07-07T10:42:57Z</time>
      </trkpt>
      <trkpt lat="45.85533" lon="4.68533">
        <ele>201</ele>
        <time>2018-07-07T10:42:58Z</time>
      </trkpt>
      <trkpt lat="45.85534" lon="4.68542">
        <ele>201</ele>
        <time>2018-07-07T10:42:59Z</time>
      </trkpt>
      <trkpt lat="45.85535" lon="4.68552">
        <ele>201</ele>
        <time>2018-07-07T10:43:00Z</time>
      </trkpt>
      <trkpt lat="45.85535" lon="4.68563">
        <ele>201</ele>
        <time>2018-07-07T10:43:01Z</time>
      </trkpt>
      <trkpt lat="45.85536" lon="4.68573">
        <ele>201</ele>
        <time>2018-07-07T10:43:02Z</time>
      </trkpt>
      <trkpt lat="45.85536" lon="4.68582">
        <ele>201</ele>
        <time>2018-07-07T10:43:03Z</time>
      </trkpt>
      <trkpt lat="45.85537" lon="4.68592">
        <ele>201</ele>
        <time>2018-07-07T10:43:04Z</time>
      </trkpt>
      <trkpt lat="45.85537" lon="4.686">
        <ele>201</ele>
        <time>2018-07-07T10:43:05Z</time>
      </trkpt>
      <trkpt lat="45.85538" lon="4.68609">
        <ele>201</ele>
        <time>2018-07-07T10:43:06Z</time>
      </trkpt>
      <trkpt lat="45.85539" lon="4.68619">
        <ele>201</ele>
        <time>2018-07-07T10:43:07Z</time>
      </trkpt>
      <trkpt lat="45.85539" lon="4.68627">
        <ele>201</ele>
        <time>2018-07-07T10:43:08Z</time>
      </trkpt>
      <trkpt lat="45.8554" lon="4.68636">
        <ele>201</ele>
        <time>2018-07-07T10:43:09Z</time>
      </trkpt>
      <trkpt lat="45.8554" lon="4.68646">
        <ele>201</ele>
        <time>2018-07-07T10:43:10Z</time>
      </trkpt>
      <trkpt lat="45.85541" lon="4.68654">
        <ele>201</ele>
        <time>2018-07-07T10:43:11Z</time>
      </trkpt>
      <trkpt lat="45.85541" lon="4.68664">
        <ele>200</ele>
        <time>2018-07-07T10:43:12Z</time>
      </trkpt>
      <trkpt lat="45.85542" lon="4.68674">
        <ele>200</ele>
        <time>2018-07-07T10:43:13Z</time>
      </trkpt>
      <trkpt lat="45.85544" lon="4.68683">
        <ele>200</ele>
        <time>2018-07-07T10:43:14Z</time>
      </trkpt>
      <trkpt lat="45.85545" lon="4.68692">
        <ele>200</ele>
        <time>2018-07-07T10:43:15Z</time>
      </trkpt>
      <trkpt lat="45.85547" lon="4.68702">
        <ele>200</ele>
        <time>2018-07-07T10:43:16Z</time>
      </trkpt>
      <trkpt lat="45.85548" lon="4.6871">
        <ele>200</ele>
        <time>2018-07-07T10:43:17Z</time>
      </trkpt>
      <trkpt lat="45.85549" lon="4.68719">
        <ele>200</ele>
        <time>2018-07-07T10:43:18Z</time>
      </trkpt>
      <trkpt lat="45.8555" lon="4.68727">
        <ele>200</ele>
        <time>2018-07-07T10:43:19Z</time>
      </trkpt>
      <trkpt lat="45.85551" lon="4.68734">
        <ele>200</ele>
        <time>2018-07-07T10:43:20Z</time>
      </trkpt>
      <trkpt lat="45.85553" lon="4.68743">
        <ele>200</ele>
        <time>2018-07-07T10:43:21Z</time>
      </trkpt>
      <trkpt lat="45.85554" lon="4.68749">
        <ele>200</ele>
        <time>2018-07-07T10:43:22Z</time>
      </trkpt>
      <trkpt lat="45.85555" lon="4.68756">
        <ele>200</ele>
        <time>2018-07-07T10:43:23Z</time>
      </trkpt>
      <trkpt lat="45.85554" lon="4.68764">
        <ele>200</ele>
        <time>2018-07-07T10:43:24Z</time>
      </trkpt>
      <trkpt lat="45.85555" lon="4.68771">
        <ele>200</ele>
        <time>2018-07-07T10:43:25Z</time>
      </trkpt>
      <trkpt lat="45.85556" lon="4.68779">
        <ele>200</ele>
        <time>2018-07-07T10:43:26Z</time>
      </trkpt>
      <trkpt lat="45.85557" lon="4.68786">
        <ele>200</ele>
        <time>2018-07-07T10:43:27Z</time>
      </trkpt>
      <trkpt lat="45.85557" lon="4.68792">
        <ele>200</ele>
        <time>2018-07-07T10:43:28Z</time>
      </trkpt>
      <trkpt lat="45.85558" lon="4.688">
        <ele>200</ele>
        <time>2018-07-07T10:43:29Z</time>
      </trkpt>
      <trkpt lat="45.85559" lon="4.68807">
        <ele>200</ele>
        <time>2018-07-07T10:43:30Z</time>
      </trkpt>
      <trkpt lat="45.8556" lon="4.68814">
        <ele>200</ele>
        <time>2018-07-07T10:43:31Z</time>
      </trkpt>
      <trkpt lat="45.85561" lon="4.68823">
        <ele>200</ele>
        <time>2018-07-07T10:43:32Z</time>
      </trkpt>
      <trkpt lat="45.85562" lon="4.68832">
        <ele>200</ele>
        <time>2018-07-07T10:43:33Z</time>
      </trkpt>
      <trkpt lat="45.85564" lon="4.6884">
        <ele>200</ele>
        <time>2018-07-07T10:43:34Z</time>
      </trkpt>
      <trkpt lat="45.85564" lon="4.68848">
        <ele>200</ele>
        <time>2018-07-07T10:43:35Z</time>
      </trkpt>
      <trkpt lat="45.85565" lon="4.68859">
        <ele>200</ele>
        <time>2018-07-07T10:43:36Z</time>
      </trkpt>
      <trkpt lat="45.85566" lon="4.68865">
        <ele>200</ele>
        <time>2018-07-07T10:43:37Z</time>
      </trkpt>
      <trkpt lat="45.85567" lon="4.68873">
        <ele>200</ele>
        <time>2018-07-07T10:43:38Z</time>
      </trkpt>
      <trkpt lat="45.85569" lon="4.68879">
        <ele>200</ele>
        <time>2018-07-07T10:43:39Z</time>
      </trkpt>
      <trkpt lat="45.85569" lon="4.68889">
        <ele>200</ele>
        <time>2018-07-07T10:43:40Z</time>
      </trkpt>
      <trkpt lat="45.85569" lon="4.68897">
        <ele>200</ele>
        <time>2018-07-07T10:43:41Z</time>
      </trkpt>
      <trkpt lat="45.85571" lon="4.68905">
        <ele>200</ele>
        <time>2018-07-07T10:43:42Z</time>
      </trkpt>
      <trkpt lat="45.85572" lon="4.68914">
        <ele>200</ele>
        <time>2018-07-07T10:43:43Z</time>
      </trkpt>
      <trkpt lat="45.85572" lon="4.68923">
        <ele>200</ele>
        <time>2018-07-07T10:43:44Z</time>
      </trkpt>
      <trkpt lat="45.85574" lon="4.68933">
        <ele>200</ele>
        <time>2018-07-07T10:43:45Z</time>
      </trkpt>
      <trkpt lat="45.85575" lon="4.68942">
        <ele>200</ele>
        <time>2018-07-07T10:43:46Z</time>
      </trkpt>
      <trkpt lat="45.85575" lon="4.6895">
        <ele>200</ele>
        <time>2018-07-07T10:43:47Z</time>
      </trkpt>
      <trkpt lat="45.85575" lon="4.68959">
        <ele>200</ele>
        <time>2018-07-07T10:43:48Z</time>
      </trkpt>
      <trkpt lat="45.85576" lon="4.68967">
        <ele>200</ele>
        <time>2018-07-07T10:43:49Z</time>
      </trkpt>
      <trkpt lat="45.85576" lon="4.68976">
        <ele>200</ele>
        <time>2018-07-07T10:43:50Z</time>
      </trkpt>
      <trkpt lat="45.85576" lon="4.68985">
        <ele>200</ele>
        <time>2018-07-07T10:43:51Z</time>
      </trkpt>
      <trkpt lat="45.85577" lon="4.68995">
        <ele>200</ele>
        <time>2018-07-07T10:43:52Z</time>
      </trkpt>
      <trkpt lat="45.85579" lon="4.69004">
        <ele>200</ele>
        <time>2018-07-07T10:43:53Z</time>
      </trkpt>
      <trkpt lat="45.85579" lon="4.69011">
        <ele>200</ele>
        <time>2018-07-07T10:43:54Z</time>
      </trkpt>
      <trkpt lat="45.8558" lon="4.6902">
        <ele>200</ele>
        <time>2018-07-07T10:43:55Z</time>
      </trkpt>
      <trkpt lat="45.8558" lon="4.69028">
        <ele>200</ele>
        <time>2018-07-07T10:43:56Z</time>
      </trkpt>
      <trkpt lat="45.8558" lon="4.69037">
        <ele>200</ele>
        <time>2018-07-07T10:43:57Z</time>
      </trkpt>
      <trkpt lat="45.85581" lon="4.69046">
        <ele>199</ele>
        <time>2018-07-07T10:43:58Z</time>
      </trkpt>
      <trkpt lat="45.85582" lon="4.69055">
        <ele>199</ele>
        <time>2018-07-07T10:43:59Z</time>
      </trkpt>
      <trkpt lat="45.85582" lon="4.69063">
        <ele>199</ele>
        <time>2018-07-07T10:44:00Z</time>
      </trkpt>
      <trkpt lat="45.85583" lon="4.69073">
        <ele>199</ele>
        <time>2018-07-07T10:44:01Z</time>
      </trkpt>
      <trkpt lat="45.85584" lon="4.69083">
        <ele>199</ele>
        <time>2018-07-07T10:44:02Z</time>
      </trkpt>
      <trkpt lat="45.85584" lon="4.69091">
        <ele>199</ele>
        <time>2018-07-07T10:44:03Z</time>
      </trkpt>
      <trkpt lat="45.85585" lon="4.691">
        <ele>199</ele>
        <time>2018-07-07T10:44:04Z</time>
      </trkpt>
      <trkpt lat="45.85585" lon="4.69109">
        <ele>199</ele>
        <time>2018-07-07T10:44:05Z</time>
      </trkpt>
      <trkpt lat="45.85585" lon="4.69117">
        <ele>199</ele>
        <time>2018-07-07T10:44:06Z</time>
      </trkpt>
      <trkpt lat="45.85586" lon="4.69124">
        <ele>199</ele>
        <time>2018-07-07T10:44:07Z</time>
      </trkpt>
      <trkpt lat="45.85587" lon="4.69131">
        <ele>199</ele>
        <time>2018-07-07T10:44:08Z</time>
      </trkpt>
      <trkpt lat="45.85588" lon="4.69138">
        <ele>199</ele>
        <time>2018-07-07T10:44:09Z</time>
      </trkpt>
      <trkpt lat="45.85589" lon="4.69145">
        <ele>199</ele>
        <time>2018-07-07T10:44:10Z</time>
      </trkpt>
      <trkpt lat="45.8559" lon="4.69155">
        <ele>199</ele>
        <time>2018-07-07T10:44:11Z</time>
      </trkpt>
      <trkpt lat="45.8559" lon="4.69162">
        <ele>199</ele>
        <time>2018-07-07T10:44:12Z</time>
      </trkpt>
      <trkpt lat="45.85593" lon="4.6917">
        <ele>199</ele>
        <time>2018-07-07T10:44:13Z</time>
      </trkpt>
      <trkpt lat="45.85594" lon="4.69179">
        <ele>199</ele>
        <time>2018-07-07T10:44:14Z</time>
      </trkpt>
      <trkpt lat="45.85595" lon="4.69187">
        <ele>199</ele>
        <time>2018-07-07T10:44:15Z</time>
      </trkpt>
      <trkpt lat="45.85595" lon="4.69194">
        <ele>199</ele>
        <time>2018-07-07T10:44:16Z</time>
      </trkpt>
      <trkpt lat="45.85597" lon="4.69202">
        <ele>199</ele>
        <time>2018-07-07T10:44:17Z</time>
      </trkpt>
      <trkpt lat="45.85597" lon="4.6921">
        <ele>199</ele>
        <time>2018-07-07T10:44:18Z</time>
      </trkpt>
      <trkpt lat="45.85597" lon="4.69218">
        <ele>199</ele>
        <time>2018-07-07T10:44:19Z</time>
      </trkpt>
      <trkpt lat="45.85596" lon="4.69227">
        <ele>199</ele>
        <time>2018-07-07T10:44:20Z</time>
      </trkpt>
      <trkpt lat="45.85596" lon="4.69235">
        <ele>199</ele>
        <time>2018-07-07T10:44:21Z</time>
      </trkpt>
      <trkpt lat="45.85595" lon="4.69243">
        <ele>199</ele>
        <time>2018-07-07T10:44:22Z</time>
      </trkpt>
      <trkpt lat="45.85594" lon="4.69252">
        <ele>199</ele>
        <time>2018-07-07T10:44:23Z</time>
      </trkpt>
      <trkpt lat="45.85595" lon="4.69262">
        <ele>199</ele>
        <time>2018-07-07T10:44:24Z</time>
      </trkpt>
      <trkpt lat="45.85597" lon="4.6927">
        <ele>198</ele>
        <time>2018-07-07T10:44:25Z</time>
      </trkpt>
      <trkpt lat="45.856" lon="4.69278">
        <ele>198</ele>
        <time>2018-07-07T10:44:26Z</time>
      </trkpt>
      <trkpt lat="45.856" lon="4.69285">
        <ele>198</ele>
        <time>2018-07-07T10:44:27Z</time>
      </trkpt>
      <trkpt lat="45.85603" lon="4.69293">
        <ele>198</ele>
        <time>2018-07-07T10:44:28Z</time>
      </trkpt>
      <trkpt lat="45.85605" lon="4.69302">
        <ele>198</ele>
        <time>2018-07-07T10:44:29Z</time>
      </trkpt>
      <trkpt lat="45.85606" lon="4.6931">
        <ele>198</ele>
        <time>2018-07-07T10:44:30Z</time>
      </trkpt>
      <trkpt lat="45.85607" lon="4.69318">
        <ele>198</ele>
        <time>2018-07-07T10:44:31Z</time>
      </trkpt>
      <trkpt lat="45.85607" lon="4.69327">
        <ele>198</ele>
        <time>2018-07-07T10:44:32Z</time>
      </trkpt>
      <trkpt lat="45.85607" lon="4.69336">
        <ele>198</ele>
        <time>2018-07-07T10:44:33Z</time>
      </trkpt>
      <trkpt lat="45.85608" lon="4.69344">
        <ele>198</ele>
        <time>2018-07-07T10:44:34Z</time>
      </trkpt>
      <trkpt lat="45.85609" lon="4.69353">
        <ele>198</ele>
        <time>2018-07-07T10:44:35Z</time>
      </trkpt>
      <trkpt lat="45.8561" lon="4.69362">
        <ele>198</ele>
        <time>2018-07-07T10:44:36Z</time>
      </trkpt>
      <trkpt lat="45.85611" lon="4.69371">
        <ele>198</ele>
        <time>2018-07-07T10:44:37Z</time>
      </trkpt>
      <trkpt lat="45.85612" lon="4.6938">
        <ele>198</ele>
        <time>2018-07-07T10:44:38Z</time>
      </trkpt>
      <trkpt lat="45.85613" lon="4.6939">
        <ele>198</ele>
        <time>2018-07-07T10:44:39Z</time>
      </trkpt>
      <trkpt lat="45.85615" lon="4.69398">
        <ele>198</ele>
        <time>2018-07-07T10:44:40Z</time>
      </trkpt>
      <trkpt lat="45.85616" lon="4.69407">
        <ele>198</ele>
        <time>2018-07-07T10:44:41Z</time>
      </trkpt>
      <trkpt lat="45.85617" lon="4.69415">
        <ele>198</ele>
        <time>2018-07-07T10:44:42Z</time>
      </trkpt>
      <trkpt lat="45.85617" lon="4.69423">
        <ele>198</ele>
        <time>2018-07-07T10:44:43Z</time>
      </trkpt>
      <trkpt lat="45.85618" lon="4.69431">
        <ele>198</ele>
        <time>2018-07-07T10:44:44Z</time>
      </trkpt>
      <trkpt lat="45.85618" lon="4.69441">
        <ele>198</ele>
        <time>2018-07-07T10:44:45Z</time>
      </trkpt>
      <trkpt lat="45.85619" lon="4.69449">
        <ele>198</ele>
        <time>2018-07-07T10:44:46Z</time>
      </trkpt>
      <trkpt lat="45.85619" lon="4.69458">
        <ele>198</ele>
        <time>2018-07-07T10:44:47Z</time>
      </trkpt>
      <trkpt lat="45.85621" lon="4.69467">
        <ele>198</ele>
        <time>2018-07-07T10:44:48Z</time>
      </trkpt>
      <trkpt lat="45.85622" lon="4.69475">
        <ele>198</ele>
        <time>2018-07-07T10:44:49Z</time>
      </trkpt>
      <trkpt lat="45.85622" lon="4.69484">
        <ele>198</ele>
        <time>2018-07-07T10:44:50Z</time>
      </trkpt>
      <trkpt lat="45.85623" lon="4.69493">
        <ele>198</ele>
        <time>2018-07-07T10:44:51Z</time>
      </trkpt>
      <trkpt lat="45.85622" lon="4.695">
        <ele>198</ele>
        <time>2018-07-07T10:44:52Z</time>
      </trkpt>
      <trkpt lat="45.85623" lon="4.69508">
        <ele>198</ele>
        <time>2018-07-07T10:44:53Z</time>
      </trkpt>
      <trkpt lat="45.85624" lon="4.69518">
        <ele>198</ele>
        <time>2018-07-07T10:44:54Z</time>
      </trkpt>
      <trkpt lat="45.85625" lon="4.69529">
        <ele>198</ele>
        <time>2018-07-07T10:44:55Z</time>
      </trkpt>
      <trkpt lat="45.85627" lon="4.69538">
        <ele>198</ele>
        <time>2018-07-07T10:44:56Z</time>
      </trkpt>
      <trkpt lat="45.85628" lon="4.69547">
        <ele>198</ele>
        <time>2018-07-07T10:44:57Z</time>
      </trkpt>
      <trkpt lat="45.85629" lon="4.69555">
        <ele>198</ele>
        <time>2018-07-07T10:44:58Z</time>
      </trkpt>
      <trkpt lat="45.8563" lon="4.69564">
        <ele>198</ele>
        <time>2018-07-07T10:44:59Z</time>
      </trkpt>
      <trkpt lat="45.8563" lon="4.69573">
        <ele>198</ele>
        <time>2018-07-07T10:45:00Z</time>
      </trkpt>
      <trkpt lat="45.85631" lon="4.69582">
        <ele>198</ele>
        <time>2018-07-07T10:45:01Z</time>
      </trkpt>
      <trkpt lat="45.85632" lon="4.69591">
        <ele>197</ele>
        <time>2018-07-07T10:45:02Z</time>
      </trkpt>
      <trkpt lat="45.85633" lon="4.69599">
        <ele>197</ele>
        <time>2018-07-07T10:45:03Z</time>
      </trkpt>
      <trkpt lat="45.85633" lon="4.69607">
        <ele>197</ele>
        <time>2018-07-07T10:45:04Z</time>
      </trkpt>
      <trkpt lat="45.85635" lon="4.69614">
        <ele>197</ele>
        <time>2018-07-07T10:45:05Z</time>
      </trkpt>
      <trkpt lat="45.85635" lon="4.69623">
        <ele>197</ele>
        <time>2018-07-07T10:45:06Z</time>
      </trkpt>
      <trkpt lat="45.85636" lon="4.69632">
        <ele>197</ele>
        <time>2018-07-07T10:45:07Z</time>
      </trkpt>
      <trkpt lat="45.85637" lon="4.69641">
        <ele>197</ele>
        <time>2018-07-07T10:45:08Z</time>
      </trkpt>
      <trkpt lat="45.85637" lon="4.69651">
        <ele>197</ele>
        <time>2018-07-07T10:45:09Z</time>
      </trkpt>
      <trkpt lat="45.85638" lon="4.6966">
        <ele>197</ele>
        <time>2018-07-07T10:45:10Z</time>
      </trkpt>
      <trkpt lat="45.85639" lon="4.6967">
        <ele>196</ele>
        <time>2018-07-07T10:45:11Z</time>
      </trkpt>
      <trkpt lat="45.85638" lon="4.69679">
        <ele>196</ele>
        <time>2018-07-07T10:45:12Z</time>
      </trkpt>
      <trkpt lat="45.85639" lon="4.69688">
        <ele>196</ele>
        <time>2018-07-07T10:45:13Z</time>
      </trkpt>
      <trkpt lat="45.85641" lon="4.69697">
        <ele>196</ele>
        <time>2018-07-07T10:45:14Z</time>
      </trkpt>
      <trkpt lat="45.85641" lon="4.69706">
        <ele>196</ele>
        <time>2018-07-07T10:45:15Z</time>
      </trkpt>
      <trkpt lat="45.85642" lon="4.69715">
        <ele>196</ele>
        <time>2018-07-07T10:45:16Z</time>
      </trkpt>
      <trkpt lat="45.85643" lon="4.69725">
        <ele>196</ele>
        <time>2018-07-07T10:45:17Z</time>
      </trkpt>
      <trkpt lat="45.85644" lon="4.69733">
        <ele>195</ele>
        <time>2018-07-07T10:45:18Z</time>
      </trkpt>
      <trkpt lat="45.85646" lon="4.69742">
        <ele>195</ele>
        <time>2018-07-07T10:45:19Z</time>
      </trkpt>
      <trkpt lat="45.85646" lon="4.6975">
        <ele>195</ele>
        <time>2018-07-07T10:45:20Z</time>
      </trkpt>
      <trkpt lat="45.85646" lon="4.69759">
        <ele>195</ele>
        <time>2018-07-07T10:45:21Z</time>
      </trkpt>
      <trkpt lat="45.85647" lon="4.69766">
        <ele>195</ele>
        <time>2018-07-07T10:45:22Z</time>
      </trkpt>
      <trkpt lat="45.85648" lon="4.69775">
        <ele>195</ele>
        <time>2018-07-07T10:45:23Z</time>
      </trkpt>
      <trkpt lat="45.85648" lon="4.69785">
        <ele>195</ele>
        <time>2018-07-07T10:45:24Z</time>
      </trkpt>
      <trkpt lat="45.85649" lon="4.69794">
        <ele>195</ele>
        <time>2018-07-07T10:45:25Z</time>
      </trkpt>
      <trkpt lat="45.85649" lon="4.69802">
        <ele>195</ele>
        <time>2018-07-07T10:45:26Z</time>
      </trkpt>
      <trkpt lat="45.8565" lon="4.69811">
        <ele>195</ele>
        <time>2018-07-07T10:45:27Z</time>
      </trkpt>
      <trkpt lat="45.85651" lon="4.69822">
        <ele>195</ele>
        <time>2018-07-07T10:45:28Z</time>
      </trkpt>
      <trkpt lat="45.85652" lon="4.69831">
        <ele>195</ele>
        <time>2018-07-07T10:45:29Z</time>
      </trkpt>
      <trkpt lat="45.85654" lon="4.69839">
        <ele>195</ele>
        <time>2018-07-07T10:45:30Z</time>
      </trkpt>
      <trkpt lat="45.85654" lon="4.69848">
        <ele>195</ele>
        <time>2018-07-07T10:45:31Z</time>
      </trkpt>
      <trkpt lat="45.85655" lon="4.69856">
        <ele>195</ele>
        <time>2018-07-07T10:45:32Z</time>
      </trkpt>
      <trkpt lat="45.85656" lon="4.69865">
        <ele>195</ele>
        <time>2018-07-07T10:45:33Z</time>
      </trkpt>
      <trkpt lat="45.85657" lon="4.69874">
        <ele>195</ele>
        <time>2018-07-07T10:45:34Z</time>
      </trkpt>
      <trkpt lat="45.85658" lon="4.69882">
        <ele>195</ele>
        <time>2018-07-07T10:45:35Z</time>
      </trkpt>
      <trkpt lat="45.85659" lon="4.6989">
        <ele>195</ele>
        <time>2018-07-07T10:45:36Z</time>
      </trkpt>
      <trkpt lat="45.85661" lon="4.69897">
        <ele>195</ele>
        <time>2018-07-07T10:45:37Z</time>
      </trkpt>
      <trkpt lat="45.85663" lon="4.69907">
        <ele>195</ele>
        <time>2018-07-07T10:45:38Z</time>
      </trkpt>
      <trkpt lat="45.85665" lon="4.69916">
        <ele>195</ele>
        <time>2018-07-07T10:45:39Z</time>
      </trkpt>
      <trkpt lat="45.85668" lon="4.69925">
        <ele>195</ele>
        <time>2018-07-07T10:45:40Z</time>
      </trkpt>
      <trkpt lat="45.8567" lon="4.69933">
        <ele>195</ele>
        <time>2018-07-07T10:45:41Z</time>
      </trkpt>
      <trkpt lat="45.85672" lon="4.69941">
        <ele>195</ele>
        <time>2018-07-07T10:45:42Z</time>
      </trkpt>
      <trkpt lat="45.85674" lon="4.6995">
        <ele>195</ele>
        <time>2018-07-07T10:45:43Z</time>
      </trkpt>
      <trkpt lat="45.85677" lon="4.69959">
        <ele>195</ele>
        <time>2018-07-07T10:45:44Z</time>
      </trkpt>
      <trkpt lat="45.85679" lon="4.69967">
        <ele>195</ele>
        <time>2018-07-07T10:45:45Z</time>
      </trkpt>
      <trkpt lat="45.85681" lon="4.69975">
        <ele>195</ele>
        <time>2018-07-07T10:45:46Z</time>
      </trkpt>
      <trkpt lat="45.85684" lon="4.69984">
        <ele>195</ele>
        <time>2018-07-07T10:45:47Z</time>
      </trkpt>
      <trkpt lat="45.85685" lon="4.69992">
        <ele>195</ele>
        <time>2018-07-07T10:45:48Z</time>
      </trkpt>
      <trkpt lat="45.85687" lon="4.70002">
        <ele>195</ele>
        <time>2018-07-07T10:45:49Z</time>
      </trkpt>
      <trkpt lat="45.85685" lon="4.70012">
        <ele>195</ele>
        <time>2018-07-07T10:45:50Z</time>
      </trkpt>
      <trkpt lat="45.85684" lon="4.70021">
        <ele>195</ele>
        <time>2018-07-07T10:45:51Z</time>
      </trkpt>
      <trkpt lat="45.85682" lon="4.7003">
        <ele>195</ele>
        <time>2018-07-07T10:45:52Z</time>
      </trkpt>
      <trkpt lat="45.8568" lon="4.70038">
        <ele>195</ele>
        <time>2018-07-07T10:45:53Z</time>
      </trkpt>
      <trkpt lat="45.85678" lon="4.70046">
        <ele>195</ele>
        <time>2018-07-07T10:45:54Z</time>
      </trkpt>
      <trkpt lat="45.85678" lon="4.70053">
        <ele>195</ele>
        <time>2018-07-07T10:45:55Z</time>
      </trkpt>
      <trkpt lat="45.85678" lon="4.7006">
        <ele>196</ele>
        <time>2018-07-07T10:45:56Z</time>
      </trkpt>
      <trkpt lat="45.85676" lon="4.70067">
        <ele>196</ele>
        <time>2018-07-07T10:45:57Z</time>
      </trkpt>
      <trkpt lat="45.85674" lon="4.70074">
        <ele>196</ele>
        <time>2018-07-07T10:45:58Z</time>
      </trkpt>
      <trkpt lat="45.85673" lon="4.70081">
        <ele>196</ele>
        <time>2018-07-07T10:45:59Z</time>
      </trkpt>
      <trkpt lat="45.85674" lon="4.70091">
        <ele>196</ele>
        <time>2018-07-07T10:46:00Z</time>
      </trkpt>
      <trkpt lat="45.8567" lon="4.70097">
        <ele>196</ele>
        <time>2018-07-07T10:46:01Z</time>
      </trkpt>
      <trkpt lat="45.8567" lon="4.70105">
        <ele>196</ele>
        <time>2018-07-07T10:46:02Z</time>
      </trkpt>
      <trkpt lat="45.8567" lon="4.70114">
        <ele>197</ele>
        <time>2018-07-07T10:46:03Z</time>
      </trkpt>
      <trkpt lat="45.85669" lon="4.70123">
        <ele>197</ele>
        <time>2018-07-07T10:46:04Z</time>
      </trkpt>
      <trkpt lat="45.85671" lon="4.70133">
        <ele>197</ele>
        <time>2018-07-07T10:46:05Z</time>
      </trkpt>
      <trkpt lat="45.85673" lon="4.70142">
        <ele>197</ele>
        <time>2018-07-07T10:46:06Z</time>
      </trkpt>
      <trkpt lat="45.85674" lon="4.7015">
        <ele>197</ele>
        <time>2018-07-07T10:46:07Z</time>
      </trkpt>
      <trkpt lat="45.85676" lon="4.70158">
        <ele>197</ele>
        <time>2018-07-07T10:46:08Z</time>
      </trkpt>
      <trkpt lat="45.85678" lon="4.70168">
        <ele>197</ele>
        <time>2018-07-07T10:46:09Z</time>
      </trkpt>
      <trkpt lat="45.85681" lon="4.70177">
        <ele>197</ele>
        <time>2018-07-07T10:46:10Z</time>
      </trkpt>
      <trkpt lat="45.85683" lon="4.70186">
        <ele>197</ele>
        <time>2018-07-07T10:46:11Z</time>
      </trkpt>
      <trkpt lat="45.85685" lon="4.70195">
        <ele>197</ele>
        <time>2018-07-07T10:46:12Z</time>
      </trkpt>
      <trkpt lat="45.85686" lon="4.70203">
        <ele>197</ele>
        <time>2018-07-07T10:46:13Z</time>
      </trkpt>
      <trkpt lat="45.85689" lon="4.70212">
        <ele>197</ele>
        <time>2018-07-07T10:46:14Z</time>
      </trkpt>
      <trkpt lat="45.8569" lon="4.7022">
        <ele>197</ele>
        <time>2018-07-07T10:46:15Z</time>
      </trkpt>
      <trkpt lat="45.85691" lon="4.70228">
        <ele>197</ele>
        <time>2018-07-07T10:46:16Z</time>
      </trkpt>
      <trkpt lat="45.8569" lon="4.70236">
        <ele>197</ele>
        <time>2018-07-07T10:46:17Z</time>
      </trkpt>
      <trkpt lat="45.85692" lon="4.70244">
        <ele>197</ele>
        <time>2018-07-07T10:46:18Z</time>
      </trkpt>
      <trkpt lat="45.85692" lon="4.70252">
        <ele>197</ele>
        <time>2018-07-07T10:46:19Z</time>
      </trkpt>
      <trkpt lat="45.85693" lon="4.7026">
        <ele>197</ele>
        <time>2018-07-07T10:46:20Z</time>
      </trkpt>
      <trkpt lat="45.85696" lon="4.70268">
        <ele>197</ele>
        <time>2018-07-07T10:46:21Z</time>
      </trkpt>
      <trkpt lat="45.85696" lon="4.70278">
        <ele>197</ele>
        <time>2018-07-07T10:46:22Z</time>
      </trkpt>
      <trkpt lat="45.85695" lon="4.70287">
        <ele>197</ele>
        <time>2018-07-07T10:46:23Z</time>
      </trkpt>
      <trkpt lat="45.85696" lon="4.70296">
        <ele>197</ele>
        <time>2018-07-07T10:46:24Z</time>
      </trkpt>
      <trkpt lat="45.85696" lon="4.70306">
        <ele>197</ele>
        <time>2018-07-07T10:46:25Z</time>
      </trkpt>
      <trkpt lat="45.85697" lon="4.70315">
        <ele>197</ele>
        <time>2018-07-07T10:46:26Z</time>
      </trkpt>
      <trkpt lat="45.85698" lon="4.70326">
        <ele>197</ele>
        <time>2018-07-07T10:46:27Z</time>
      </trkpt>
      <trkpt lat="45.85698" lon="4.70334">
        <ele>196</ele>
        <time>2018-07-07T10:46:28Z</time>
      </trkpt>
      <trkpt lat="45.85701" lon="4.70345">
        <ele>196</ele>
        <time>2018-07-07T10:46:29Z</time>
      </trkpt>
      <trkpt lat="45.85701" lon="4.70354">
        <ele>196</ele>
        <time>2018-07-07T10:46:30Z</time>
      </trkpt>
      <trkpt lat="45.85701" lon="4.70364">
        <ele>196</ele>
        <time>2018-07-07T10:46:31Z</time>
      </trkpt>
      <trkpt lat="45.85702" lon="4.70372">
        <ele>196</ele>
        <time>2018-07-07T10:46:32Z</time>
      </trkpt>
      <trkpt lat="45.85702" lon="4.70379">
        <ele>196</ele>
        <time>2018-07-07T10:46:33Z</time>
      </trkpt>
      <trkpt lat="45.85704" lon="4.70389">
        <ele>196</ele>
        <time>2018-07-07T10:46:34Z</time>
      </trkpt>
      <trkpt lat="45.85706" lon="4.70397">
        <ele>196</ele>
        <time>2018-07-07T10:46:35Z</time>
      </trkpt>
      <trkpt lat="45.85707" lon="4.70406">
        <ele>196</ele>
        <time>2018-07-07T10:46:36Z</time>
      </trkpt>
      <trkpt lat="45.8571" lon="4.70414">
        <ele>196</ele>
        <time>2018-07-07T10:46:37Z</time>
      </trkpt>
      <trkpt lat="45.85712" lon="4.70425">
        <ele>196</ele>
        <time>2018-07-07T10:46:38Z</time>
      </trkpt>
      <trkpt lat="45.85713" lon="4.70437">
        <ele>196</ele>
        <time>2018-07-07T10:46:40Z</time>
      </trkpt>
      <trkpt lat="45.85714" lon="4.70446">
        <ele>196</ele>
        <time>2018-07-07T10:46:41Z</time>
      </trkpt>
      <trkpt lat="45.85715" lon="4.70453">
        <ele>196</ele>
        <time>2018-07-07T10:46:42Z</time>
      </trkpt>
      <trkpt lat="45.85717" lon="4.70461">
        <ele>196</ele>
        <time>2018-07-07T10:46:43Z</time>
      </trkpt>
      <trkpt lat="45.85717" lon="4.70474">
        <ele>196</ele>
        <time>2018-07-07T10:46:45Z</time>
      </trkpt>
      <trkpt lat="45.85715" lon="4.70479">
        <ele>196</ele>
        <time>2018-07-07T10:46:46Z</time>
      </trkpt>
      <trkpt lat="45.85712" lon="4.70486">
        <ele>196</ele>
        <time>2018-07-07T10:46:47Z</time>
      </trkpt>
      <trkpt lat="45.85709" lon="4.7049">
        <ele>196</ele>
        <time>2018-07-07T10:46:48Z</time>
      </trkpt>
      <trkpt lat="45.85707" lon="4.70497">
        <ele>196</ele>
        <time>2018-07-07T10:46:49Z</time>
      </trkpt>
      <trkpt lat="45.85706" lon="4.70505">
        <ele>197</ele>
        <time>2018-07-07T10:46:50Z</time>
      </trkpt>
      <trkpt lat="45.85708" lon="4.70513">
        <ele>196</ele>
        <time>2018-07-07T10:46:51Z</time>
      </trkpt>
      <trkpt lat="45.8571" lon="4.70521">
        <ele>196</ele>
        <time>2018-07-07T10:46:52Z</time>
      </trkpt>
      <trkpt lat="45.85713" lon="4.70527">
        <ele>196</ele>
        <time>2018-07-07T10:46:53Z</time>
      </trkpt>
      <trkpt lat="45.85718" lon="4.70527">
        <ele>196</ele>
        <time>2018-07-07T10:46:54Z</time>
      </trkpt>
      <trkpt lat="45.85725" lon="4.70523">
        <ele>196</ele>
        <time>2018-07-07T10:46:55Z</time>
      </trkpt>
      <trkpt lat="45.85729" lon="4.70522">
        <ele>196</ele>
        <time>2018-07-07T10:46:56Z</time>
      </trkpt>
      <trkpt lat="45.85735" lon="4.7052">
        <ele>196</ele>
        <time>2018-07-07T10:46:57Z</time>
      </trkpt>
      <trkpt lat="45.8574" lon="4.7052">
        <ele>196</ele>
        <time>2018-07-07T10:46:58Z</time>
      </trkpt>
      <trkpt lat="45.85746" lon="4.70523">
        <ele>196</ele>
        <time>2018-07-07T10:46:59Z</time>
      </trkpt>
      <trkpt lat="45.85753" lon="4.70524">
        <ele>196</ele>
        <time>2018-07-07T10:47:00Z</time>
      </trkpt>
      <trkpt lat="45.85758" lon="4.70527">
        <ele>196</ele>
        <time>2018-07-07T10:47:01Z</time>
      </trkpt>
      <trkpt lat="45.85763" lon="4.7053">
        <ele>196</ele>
        <time>2018-07-07T10:47:02Z</time>
      </trkpt>
      <trkpt lat="45.85768" lon="4.70532">
        <ele>196</ele>
        <time>2018-07-07T10:47:03Z</time>
      </trkpt>
      <trkpt lat="45.85773" lon="4.70534">
        <ele>196</ele>
        <time>2018-07-07T10:47:04Z</time>
      </trkpt>
      <trkpt lat="45.85778" lon="4.70538">
        <ele>196</ele>
        <time>2018-07-07T10:47:05Z</time>
      </trkpt>
      <trkpt lat="45.85783" lon="4.70541">
        <ele>196</ele>
        <time>2018-07-07T10:47:06Z</time>
      </trkpt>
      <trkpt lat="45.85788" lon="4.70545">
        <ele>196</ele>
        <time>2018-07-07T10:47:07Z</time>
      </trkpt>
      <trkpt lat="45.85793" lon="4.70547">
        <ele>195</ele>
        <time>2018-07-07T10:47:08Z</time>
      </trkpt>
      <trkpt lat="45.85799" lon="4.70551">
        <ele>195</ele>
        <time>2018-07-07T10:47:09Z</time>
      </trkpt>
      <trkpt lat="45.85804" lon="4.70554">
        <ele>195</ele>
        <time>2018-07-07T10:47:10Z</time>
      </trkpt>
      <trkpt lat="45.8581" lon="4.70556">
        <ele>195</ele>
        <time>2018-07-07T10:47:11Z</time>
      </trkpt>
      <trkpt lat="45.85815" lon="4.70559">
        <ele>195</ele>
        <time>2018-07-07T10:47:12Z</time>
      </trkpt>
      <trkpt lat="45.8582" lon="4.7056">
        <ele>195</ele>
        <time>2018-07-07T10:47:13Z</time>
      </trkpt>
      <trkpt lat="45.85825" lon="4.70563">
        <ele>195</ele>
        <time>2018-07-07T10:47:14Z</time>
      </trkpt>
      <trkpt lat="45.8583" lon="4.70565">
        <ele>195</ele>
        <time>2018-07-07T10:47:15Z</time>
      </trkpt>
      <trkpt lat="45.85836" lon="4.70568">
        <ele>195</ele>
        <time>2018-07-07T10:47:16Z</time>
      </trkpt>
      <trkpt lat="45.8584" lon="4.7057">
        <ele>195</ele>
        <time>2018-07-07T10:47:17Z</time>
      </trkpt>
      <trkpt lat="45.85845" lon="4.70571">
        <ele>195</ele>
        <time>2018-07-07T10:47:18Z</time>
      </trkpt>
      <trkpt lat="45.85851" lon="4.70574">
        <ele>195</ele>
        <time>2018-07-07T10:47:19Z</time>
      </trkpt>
      <trkpt lat="45.85856" lon="4.70575">
        <ele>195</ele>
        <time>2018-07-07T10:47:20Z</time>
      </trkpt>
      <trkpt lat="45.8586" lon="4.70577">
        <ele>195</ele>
        <time>2018-07-07T10:47:21Z</time>
      </trkpt>
      <trkpt lat="45.85866" lon="4.70578">
        <ele>195</ele>
        <time>2018-07-07T10:47:22Z</time>
      </trkpt>
      <trkpt lat="45.8587" lon="4.70578">
        <ele>195</ele>
        <time>2018-07-07T10:47:23Z</time>
      </trkpt>
      <trkpt lat="45.85876" lon="4.7058">
        <ele>195</ele>
        <time>2018-07-07T10:47:24Z</time>
      </trkpt>
      <trkpt lat="45.85881" lon="4.70582">
        <ele>195</ele>
        <time>2018-07-07T10:47:25Z</time>
      </trkpt>
      <trkpt lat="45.85886" lon="4.70584">
        <ele>195</ele>
        <time>2018-07-07T10:47:26Z</time>
      </trkpt>
      <trkpt lat="45.85892" lon="4.70584">
        <ele>195</ele>
        <time>2018-07-07T10:47:27Z</time>
      </trkpt>
      <trkpt lat="45.85897" lon="4.70587">
        <ele>195</ele>
        <time>2018-07-07T10:47:28Z</time>
      </trkpt>
      <trkpt lat="45.85901" lon="4.70588">
        <ele>195</ele>
        <time>2018-07-07T10:47:29Z</time>
      </trkpt>
      <trkpt lat="45.85906" lon="4.70591">
        <ele>195</ele>
        <time>2018-07-07T10:47:30Z</time>
      </trkpt>
      <trkpt lat="45.85909" lon="4.70597">
        <ele>195</ele>
        <time>2018-07-07T10:47:31Z</time>
      </trkpt>
      <trkpt lat="45.85914" lon="4.706">
        <ele>195</ele>
        <time>2018-07-07T10:47:32Z</time>
      </trkpt>
      <trkpt lat="45.85917" lon="4.70605">
        <ele>194</ele>
        <time>2018-07-07T10:47:33Z</time>
      </trkpt>
      <trkpt lat="45.85921" lon="4.70611">
        <ele>194</ele>
        <time>2018-07-07T10:47:34Z</time>
      </trkpt>
      <trkpt lat="45.85924" lon="4.70616">
        <ele>194</ele>
        <time>2018-07-07T10:47:35Z</time>
      </trkpt>
      <trkpt lat="45.85928" lon="4.70623">
        <ele>194</ele>
        <time>2018-07-07T10:47:36Z</time>
      </trkpt>
      <trkpt lat="45.8593" lon="4.70628">
        <ele>194</ele>
        <time>2018-07-07T10:47:37Z</time>
      </trkpt>
      <trkpt lat="45.85933" lon="4.70634">
        <ele>194</ele>
        <time>2018-07-07T10:47:38Z</time>
      </trkpt>
      <trkpt lat="45.85935" lon="4.70639">
        <ele>194</ele>
        <time>2018-07-07T10:47:39Z</time>
      </trkpt>
      <trkpt lat="45.85938" lon="4.70647">
        <ele>194</ele>
        <time>2018-07-07T10:47:40Z</time>
      </trkpt>
      <trkpt lat="45.85941" lon="4.70653">
        <ele>194</ele>
        <time>2018-07-07T10:47:41Z</time>
      </trkpt>
      <trkpt lat="45.85945" lon="4.7066">
        <ele>194</ele>
        <time>2018-07-07T10:47:42Z</time>
      </trkpt>
      <trkpt lat="45.85947" lon="4.70665">
        <ele>194</ele>
        <time>2018-07-07T10:47:43Z</time>
      </trkpt>
      <trkpt lat="45.85951" lon="4.70671">
        <ele>194</ele>
        <time>2018-07-07T10:47:44Z</time>
      </trkpt>
      <trkpt lat="45.85954" lon="4.70676">
        <ele>194</ele>
        <time>2018-07-07T10:47:45Z</time>
      </trkpt>
      <trkpt lat="45.85956" lon="4.70682">
        <ele>194</ele>
        <time>2018-07-07T10:47:46Z</time>
      </trkpt>
      <trkpt lat="45.85958" lon="4.70692">
        <ele>194</ele>
        <time>2018-07-07T10:47:48Z</time>
      </trkpt>
      <trkpt lat="45.85958" lon="4.707">
        <ele>194</ele>
        <time>2018-07-07T10:47:49Z</time>
      </trkpt>
      <trkpt lat="45.85957" lon="4.70708">
        <ele>194</ele>
        <time>2018-07-07T10:47:50Z</time>
      </trkpt>
      <trkpt lat="45.85957" lon="4.70715">
        <ele>194</ele>
        <time>2018-07-07T10:47:51Z</time>
      </trkpt>
      <trkpt lat="45.85956" lon="4.70722">
        <ele>194</ele>
        <time>2018-07-07T10:47:52Z</time>
      </trkpt>
      <trkpt lat="45.85955" lon="4.70728">
        <ele>194</ele>
        <time>2018-07-07T10:47:53Z</time>
      </trkpt>
      <trkpt lat="45.85955" lon="4.70736">
        <ele>194</ele>
        <time>2018-07-07T10:47:54Z</time>
      </trkpt>
      <trkpt lat="45.85953" lon="4.70743">
        <ele>194</ele>
        <time>2018-07-07T10:47:55Z</time>
      </trkpt>
      <trkpt lat="45.85953" lon="4.70752">
        <ele>195</ele>
        <time>2018-07-07T10:47:56Z</time>
      </trkpt>
      <trkpt lat="45.85953" lon="4.7076">
        <ele>195</ele>
        <time>2018-07-07T10:47:57Z</time>
      </trkpt>
      <trkpt lat="45.85953" lon="4.70768">
        <ele>195</ele>
        <time>2018-07-07T10:47:58Z</time>
      </trkpt>
      <trkpt lat="45.85953" lon="4.70775">
        <ele>195</ele>
        <time>2018-07-07T10:47:59Z</time>
      </trkpt>
      <trkpt lat="45.85952" lon="4.70782">
        <ele>195</ele>
        <time>2018-07-07T10:48:00Z</time>
      </trkpt>
      <trkpt lat="45.85953" lon="4.70791">
        <ele>195</ele>
        <time>2018-07-07T10:48:01Z</time>
      </trkpt>
      <trkpt lat="45.8595" lon="4.70802">
        <ele>195</ele>
        <time>2018-07-07T10:48:03Z</time>
      </trkpt>
      <trkpt lat="45.85953" lon="4.70811">
        <ele>195</ele>
        <time>2018-07-07T10:48:04Z</time>
      </trkpt>
      <trkpt lat="45.85953" lon="4.70823">
        <ele>195</ele>
        <time>2018-07-07T10:48:06Z</time>
      </trkpt>
      <trkpt lat="45.85955" lon="4.7083">
        <ele>196</ele>
        <time>2018-07-07T10:48:07Z</time>
      </trkpt>
      <trkpt lat="45.85956" lon="4.70836">
        <ele>196</ele>
        <time>2018-07-07T10:48:08Z</time>
      </trkpt>
      <trkpt lat="45.85956" lon="4.70843">
        <ele>196</ele>
        <time>2018-07-07T10:48:09Z</time>
      </trkpt>
      <trkpt lat="45.85955" lon="4.70849">
        <ele>196</ele>
        <time>2018-07-07T10:48:10Z</time>
      </trkpt>
      <trkpt lat="45.85955" lon="4.70856">
        <ele>196</ele>
        <time>2018-07-07T10:48:11Z</time>
      </trkpt>
      <trkpt lat="45.85954" lon="4.70867">
        <ele>196</ele>
        <time>2018-07-07T10:48:13Z</time>
      </trkpt>
      <trkpt lat="45.85953" lon="4.70873">
        <ele>196</ele>
        <time>2018-07-07T10:48:14Z</time>
      </trkpt>
      <trkpt lat="45.85951" lon="4.70879">
        <ele>197</ele>
        <time>2018-07-07T10:48:15Z</time>
      </trkpt>
      <trkpt lat="45.8595" lon="4.70886">
        <ele>197</ele>
        <time>2018-07-07T10:48:16Z</time>
      </trkpt>
      <trkpt lat="45.85949" lon="4.70893">
        <ele>197</ele>
        <time>2018-07-07T10:48:17Z</time>
      </trkpt>
      <trkpt lat="45.85948" lon="4.70901">
        <ele>197</ele>
        <time>2018-07-07T10:48:18Z</time>
      </trkpt>
      <trkpt lat="45.85946" lon="4.70908">
        <ele>197</ele>
        <time>2018-07-07T10:48:19Z</time>
      </trkpt>
      <trkpt lat="45.85945" lon="4.70914">
        <ele>197</ele>
        <time>2018-07-07T10:48:20Z</time>
      </trkpt>
      <trkpt lat="45.85943" lon="4.70921">
        <ele>197</ele>
        <time>2018-07-07T10:48:21Z</time>
      </trkpt>
      <trkpt lat="45.85941" lon="4.70927">
        <ele>197</ele>
        <time>2018-07-07T10:48:22Z</time>
      </trkpt>
      <trkpt lat="45.8594" lon="4.70934">
        <ele>197</ele>
        <time>2018-07-07T10:48:23Z</time>
      </trkpt>
      <trkpt lat="45.85939" lon="4.70941">
        <ele>197</ele>
        <time>2018-07-07T10:48:24Z</time>
      </trkpt>
      <trkpt lat="45.85939" lon="4.70952">
        <ele>197</ele>
        <time>2018-07-07T10:48:26Z</time>
      </trkpt>
      <trkpt lat="45.85938" lon="4.70955">
        <ele>197</ele>
        <time>2018-07-07T10:48:27Z</time>
      </trkpt>
      <trkpt lat="45.8594" lon="4.70962">
        <ele>197</ele>
        <time>2018-07-07T10:48:28Z</time>
      </trkpt>
      <trkpt lat="45.85942" lon="4.70967">
        <ele>197</ele>
        <time>2018-07-07T10:48:29Z</time>
      </trkpt>
      <trkpt lat="45.85948" lon="4.70969">
        <ele>197</ele>
        <time>2018-07-07T10:48:30Z</time>
      </trkpt>
      <trkpt lat="45.85952" lon="4.7097">
        <ele>197</ele>
        <time>2018-07-07T10:48:31Z</time>
      </trkpt>
      <trkpt lat="45.85961" lon="4.70969">
        <ele>197</ele>
        <time>2018-07-07T10:48:33Z</time>
      </trkpt>
      <trkpt lat="45.85965" lon="4.70971">
        <ele>197</ele>
        <time>2018-07-07T10:48:34Z</time>
      </trkpt>
      <trkpt lat="45.8597" lon="4.70973">
        <ele>197</ele>
        <time>2018-07-07T10:48:35Z</time>
      </trkpt>
      <trkpt lat="45.85975" lon="4.70975">
        <ele>197</ele>
        <time>2018-07-07T10:48:36Z</time>
      </trkpt>
      <trkpt lat="45.8598" lon="4.70975">
        <ele>197</ele>
        <time>2018-07-07T10:48:37Z</time>
      </trkpt>
      <trkpt lat="45.85985" lon="4.70978">
        <ele>197</ele>
        <time>2018-07-07T10:48:38Z</time>
      </trkpt>
      <trkpt lat="45.8599" lon="4.7098">
        <ele>197</ele>
        <time>2018-07-07T10:48:39Z</time>
      </trkpt>
      <trkpt lat="45.85995" lon="4.70984">
        <ele>197</ele>
        <time>2018-07-07T10:48:40Z</time>
      </trkpt>
      <trkpt lat="45.86" lon="4.7099">
        <ele>197</ele>
        <time>2018-07-07T10:48:41Z</time>
      </trkpt>
      <trkpt lat="45.86005" lon="4.70993">
        <ele>197</ele>
        <time>2018-07-07T10:48:42Z</time>
      </trkpt>
      <trkpt lat="45.8601" lon="4.70998">
        <ele>197</ele>
        <time>2018-07-07T10:48:43Z</time>
      </trkpt>
      <trkpt lat="45.86014" lon="4.71004">
        <ele>197</ele>
        <time>2018-07-07T10:48:44Z</time>
      </trkpt>
      <trkpt lat="45.86016" lon="4.71009">
        <ele>197</ele>
        <time>2018-07-07T10:48:45Z</time>
      </trkpt>
      <trkpt lat="45.8602" lon="4.71014">
        <ele>197</ele>
        <time>2018-07-07T10:48:46Z</time>
      </trkpt>
      <trkpt lat="45.86025" lon="4.71019">
        <ele>197</ele>
        <time>2018-07-07T10:48:47Z</time>
      </trkpt>
      <trkpt lat="45.86028" lon="4.71025">
        <ele>197</ele>
        <time>2018-07-07T10:48:48Z</time>
      </trkpt>
      <trkpt lat="45.8603" lon="4.71032">
        <ele>197</ele>
        <time>2018-07-07T10:48:49Z</time>
      </trkpt>
      <trkpt lat="45.86031" lon="4.71039">
        <ele>197</ele>
        <time>2018-07-07T10:48:50Z</time>
      </trkpt>
      <trkpt lat="45.86032" lon="4.71046">
        <ele>197</ele>
        <time>2018-07-07T10:48:51Z</time>
      </trkpt>
      <trkpt lat="45.86033" lon="4.71052">
        <ele>197</ele>
        <time>2018-07-07T10:48:52Z</time>
      </trkpt>
      <trkpt lat="45.86035" lon="4.71061">
        <ele>197</ele>
        <time>2018-07-07T10:48:53Z</time>
      </trkpt>
      <trkpt lat="45.86037" lon="4.71069">
        <ele>197</ele>
        <time>2018-07-07T10:48:54Z</time>
      </trkpt>
      <trkpt lat="45.86039" lon="4.71076">
        <ele>197</ele>
        <time>2018-07-07T10:48:55Z</time>
      </trkpt>
      <trkpt lat="45.86042" lon="4.71085">
        <ele>197</ele>
        <time>2018-07-07T10:48:56Z</time>
      </trkpt>
      <trkpt lat="45.86045" lon="4.71093">
        <ele>197</ele>
        <time>2018-07-07T10:48:57Z</time>
      </trkpt>
      <trkpt lat="45.86048" lon="4.71099">
        <ele>197</ele>
        <time>2018-07-07T10:48:58Z</time>
      </trkpt>
      <trkpt lat="45.86052" lon="4.71106">
        <ele>197</ele>
        <time>2018-07-07T10:48:59Z</time>
      </trkpt>
      <trkpt lat="45.86056" lon="4.71111">
        <ele>197</ele>
        <time>2018-07-07T10:49:00Z</time>
      </trkpt>
      <trkpt lat="45.86062" lon="4.71118">
        <ele>197</ele>
        <time>2018-07-07T10:49:03Z</time>
      </trkpt>
      <trkpt lat="45.86063" lon="4.71119">
        <ele>197</ele>
        <time>2018-07-07T10:49:04Z</time>
      </trkpt>
      <trkpt lat="45.86065" lon="4.71131">
        <ele>197</ele>
        <time>2018-07-07T10:49:18Z</time>
      </trkpt>
      <trkpt lat="45.86065" lon="4.71132">
        <ele>197</ele>
        <time>2018-07-07T10:49:19Z</time>
      </trkpt>
      <trkpt lat="45.86072" lon="4.7113">
        <ele>197</ele>
        <time>2018-07-07T10:50:59Z</time>
      </trkpt>
      <trkpt lat="45.86075" lon="4.71131">
        <ele>197</ele>
        <time>2018-07-07T10:51:00Z</time>
      </trkpt>
      <trkpt lat="45.86082" lon="4.71136">
        <ele>197</ele>
        <time>2018-07-07T10:51:03Z</time>
      </trkpt>
      <trkpt lat="45.86085" lon="4.71138">
        <ele>197</ele>
        <time>2018-07-07T10:51:04Z</time>
      </trkpt>
      <trkpt lat="45.86088" lon="4.71144">
        <ele>197</ele>
        <time>2018-07-07T10:51:06Z</time>
      </trkpt>
      <trkpt lat="45.86092" lon="4.71155">
        <ele>197</ele>
        <time>2018-07-07T10:51:07Z</time>
      </trkpt>
      <trkpt lat="45.86092" lon="4.71165">
        <ele>197</ele>
        <time>2018-07-07T10:51:09Z</time>
      </trkpt>
      <trkpt lat="45.86092" lon="4.71171">
        <ele>197</ele>
        <time>2018-07-07T10:51:10Z</time>
      </trkpt>
      <trkpt lat="45.86092" lon="4.71173">
        <ele>197</ele>
        <time>2018-07-07T10:51:11Z</time>
      </trkpt>
      <trkpt lat="45.86089" lon="4.71184">
        <ele>197</ele>
        <time>2018-07-07T10:51:12Z</time>
      </trkpt>
      <trkpt lat="45.86084" lon="4.71191">
        <ele>197</ele>
        <time>2018-07-07T10:51:14Z</time>
      </trkpt>
      <trkpt lat="45.86081" lon="4.71196">
        <ele>198</ele>
        <time>2018-07-07T10:51:15Z</time>
      </trkpt>
      <trkpt lat="45.86081" lon="4.71203">
        <ele>198</ele>
        <time>2018-07-07T10:51:16Z</time>
      </trkpt>
      <trkpt lat="45.8608" lon="4.7121">
        <ele>198</ele>
        <time>2018-07-07T10:51:17Z</time>
      </trkpt>
      <trkpt lat="45.86078" lon="4.7122">
        <ele>198</ele>
        <time>2018-07-07T10:51:18Z</time>
      </trkpt>
      <trkpt lat="45.86078" lon="4.71227">
        <ele>198</ele>
        <time>2018-07-07T10:51:19Z</time>
      </trkpt>
      <trkpt lat="45.86079" lon="4.71233">
        <ele>198</ele>
        <time>2018-07-07T10:51:20Z</time>
      </trkpt>
      <trkpt lat="45.86078" lon="4.7124">
        <ele>198</ele>
        <time>2018-07-07T10:51:21Z</time>
      </trkpt>
      <trkpt lat="45.86081" lon="4.71251">
        <ele>198</ele>
        <time>2018-07-07T10:51:24Z</time>
      </trkpt>
      <trkpt lat="45.86083" lon="4.71254">
        <ele>198</ele>
        <time>2018-07-07T10:51:25Z</time>
      </trkpt>
      <trkpt lat="45.86085" lon="4.71257">
        <ele>198</ele>
        <time>2018-07-07T10:51:26Z</time>
      </trkpt>
      <trkpt lat="45.86091" lon="4.71268">
        <ele>197</ele>
        <time>2018-07-07T10:51:27Z</time>
      </trkpt>
      <trkpt lat="45.86095" lon="4.71277">
        <ele>197</ele>
        <time>2018-07-07T10:51:29Z</time>
      </trkpt>
      <trkpt lat="45.86097" lon="4.71283">
        <ele>197</ele>
        <time>2018-07-07T10:51:30Z</time>
      </trkpt>
      <trkpt lat="45.861" lon="4.71295">
        <ele>197</ele>
        <time>2018-07-07T10:51:32Z</time>
      </trkpt>
      <trkpt lat="45.86102" lon="4.71301">
        <ele>197</ele>
        <time>2018-07-07T10:51:33Z</time>
      </trkpt>
      <trkpt lat="45.86104" lon="4.71312">
        <ele>197</ele>
        <time>2018-07-07T10:51:35Z</time>
      </trkpt>
      <trkpt lat="45.86104" lon="4.71318">
        <ele>197</ele>
        <time>2018-07-07T10:51:36Z</time>
      </trkpt>
      <trkpt lat="45.86104" lon="4.71326">
        <ele>197</ele>
        <time>2018-07-07T10:51:37Z</time>
      </trkpt>
      <trkpt lat="45.86107" lon="4.71331">
        <ele>196</ele>
        <time>2018-07-07T10:51:38Z</time>
      </trkpt>
      <trkpt lat="45.86109" lon="4.71343">
        <ele>196</ele>
        <time>2018-07-07T10:51:40Z</time>
      </trkpt>
      <trkpt lat="45.8611" lon="4.71349">
        <ele>196</ele>
        <time>2018-07-07T10:51:41Z</time>
      </trkpt>
      <trkpt lat="45.8611" lon="4.71355">
        <ele>196</ele>
        <time>2018-07-07T10:51:42Z</time>
      </trkpt>
      <trkpt lat="45.86112" lon="4.71362">
        <ele>196</ele>
        <time>2018-07-07T10:51:43Z</time>
      </trkpt>
      <trkpt lat="45.86114" lon="4.71369">
        <ele>196</ele>
        <time>2018-07-07T10:51:44Z</time>
      </trkpt>
      <trkpt lat="45.86113" lon="4.71376">
        <ele>196</ele>
        <time>2018-07-07T10:51:45Z</time>
      </trkpt>
      <trkpt lat="45.86113" lon="4.71387">
        <ele>196</ele>
        <time>2018-07-07T10:51:47Z</time>
      </trkpt>
      <trkpt lat="45.86113" lon="4.71392">
        <ele>196</ele>
        <time>2018-07-07T10:51:48Z</time>
      </trkpt>
      <trkpt lat="45.86114" lon="4.71399">
        <ele>196</ele>
        <time>2018-07-07T10:51:49Z</time>
      </trkpt>
      <trkpt lat="45.86114" lon="4.71407">
        <ele>196</ele>
        <time>2018-07-07T10:51:50Z</time>
      </trkpt>
      <trkpt lat="45.86115" lon="4.71415">
        <ele>196</ele>
        <time>2018-07-07T10:51:51Z</time>
      </trkpt>
      <trkpt lat="45.86118" lon="4.71421">
        <ele>195</ele>
        <time>2018-07-07T10:51:52Z</time>
      </trkpt>
      <trkpt lat="45.8612" lon="4.71428">
        <ele>195</ele>
        <time>2018-07-07T10:51:53Z</time>
      </trkpt>
      <trkpt lat="45.86122" lon="4.71434">
        <ele>195</ele>
        <time>2018-07-07T10:51:54Z</time>
      </trkpt>
      <trkpt lat="45.86125" lon="4.71446">
        <ele>195</ele>
        <time>2018-07-07T10:51:56Z</time>
      </trkpt>
      <trkpt lat="45.86126" lon="4.71452">
        <ele>195</ele>
        <time>2018-07-07T10:51:57Z</time>
      </trkpt>
      <trkpt lat="45.86127" lon="4.71459">
        <ele>195</ele>
        <time>2018-07-07T10:51:58Z</time>
      </trkpt>
      <trkpt lat="45.86128" lon="4.71465">
        <ele>195</ele>
        <time>2018-07-07T10:51:59Z</time>
      </trkpt>
      <trkpt lat="45.8613" lon="4.71472">
        <ele>195</ele>
        <time>2018-07-07T10:52:00Z</time>
      </trkpt>
      <trkpt lat="45.86132" lon="4.71478">
        <ele>195</ele>
        <time>2018-07-07T10:52:01Z</time>
      </trkpt>
      <trkpt lat="45.86135" lon="4.71484">
        <ele>195</ele>
        <time>2018-07-07T10:52:02Z</time>
      </trkpt>
      <trkpt lat="45.86137" lon="4.71489">
        <ele>195</ele>
        <time>2018-07-07T10:52:03Z</time>
      </trkpt>
      <trkpt lat="45.8614" lon="4.71498">
        <ele>195</ele>
        <time>2018-07-07T10:52:04Z</time>
      </trkpt>
      <trkpt lat="45.86143" lon="4.71504">
        <ele>195</ele>
        <time>2018-07-07T10:52:05Z</time>
      </trkpt>
      <trkpt lat="45.86147" lon="4.71509">
        <ele>195</ele>
        <time>2018-07-07T10:52:06Z</time>
      </trkpt>
      <trkpt lat="45.8615" lon="4.71515">
        <ele>195</ele>
        <time>2018-07-07T10:52:07Z</time>
      </trkpt>
      <trkpt lat="45.86153" lon="4.71522">
        <ele>195</ele>
        <time>2018-07-07T10:52:08Z</time>
      </trkpt>
      <trkpt lat="45.86155" lon="4.71529">
        <ele>195</ele>
        <time>2018-07-07T10:52:09Z</time>
      </trkpt>
      <trkpt lat="45.86158" lon="4.71535">
        <ele>195</ele>
        <time>2018-07-07T10:52:10Z</time>
      </trkpt>
      <trkpt lat="45.8616" lon="4.71541">
        <ele>195</ele>
        <time>2018-07-07T10:52:11Z</time>
      </trkpt>
      <trkpt lat="45.86163" lon="4.71547">
        <ele>196</ele>
        <time>2018-07-07T10:52:12Z</time>
      </trkpt>
      <trkpt lat="45.86166" lon="4.71552">
        <ele>196</ele>
        <time>2018-07-07T10:52:13Z</time>
      </trkpt>
      <trkpt lat="45.86171" lon="4.71561">
        <ele>195</ele>
        <time>2018-07-07T10:52:15Z</time>
      </trkpt>
      <trkpt lat="45.86175" lon="4.71566">
        <ele>195</ele>
        <time>2018-07-07T10:52:16Z</time>
      </trkpt>
      <trkpt lat="45.8618" lon="4.71575">
        <ele>195</ele>
        <time>2018-07-07T10:52:18Z</time>
      </trkpt>
      <trkpt lat="45.86181" lon="4.71578">
        <ele>195</ele>
        <time>2018-07-07T10:52:19Z</time>
      </trkpt>
      <trkpt lat="45.86185" lon="4.71589">
        <ele>196</ele>
        <time>2018-07-07T10:52:21Z</time>
      </trkpt>
      <trkpt lat="45.86184" lon="4.71591">
        <ele>196</ele>
        <time>2018-07-07T10:52:22Z</time>
      </trkpt>
      <trkpt lat="45.86182" lon="4.71597">
        <ele>196</ele>
        <time>2018-07-07T10:52:23Z</time>
      </trkpt>
      <trkpt lat="45.86181" lon="4.71604">
        <ele>196</ele>
        <time>2018-07-07T10:52:24Z</time>
      </trkpt>
      <trkpt lat="45.8618" lon="4.71613">
        <ele>195</ele>
        <time>2018-07-07T10:52:26Z</time>
      </trkpt>
      <trkpt lat="45.86181" lon="4.71622">
        <ele>195</ele>
        <time>2018-07-07T10:52:27Z</time>
      </trkpt>
      <trkpt lat="45.86185" lon="4.71628">
        <ele>195</ele>
        <time>2018-07-07T10:52:28Z</time>
      </trkpt>
      <trkpt lat="45.86188" lon="4.71632">
        <ele>195</ele>
        <time>2018-07-07T10:52:29Z</time>
      </trkpt>
      <trkpt lat="45.86193" lon="4.71635">
        <ele>195</ele>
        <time>2018-07-07T10:52:30Z</time>
      </trkpt>
      <trkpt lat="45.86198" lon="4.71638">
        <ele>195</ele>
        <time>2018-07-07T10:52:31Z</time>
      </trkpt>
      <trkpt lat="45.86203" lon="4.7164">
        <ele>195</ele>
        <time>2018-07-07T10:52:32Z</time>
      </trkpt>
      <trkpt lat="45.8621" lon="4.71646">
        <ele>195</ele>
        <time>2018-07-07T10:52:33Z</time>
      </trkpt>
      <trkpt lat="45.86214" lon="4.71648">
        <ele>195</ele>
        <time>2018-07-07T10:52:34Z</time>
      </trkpt>
      <trkpt lat="45.86219" lon="4.71653">
        <ele>195</ele>
        <time>2018-07-07T10:52:35Z</time>
      </trkpt>
      <trkpt lat="45.86225" lon="4.71657">
        <ele>195</ele>
        <time>2018-07-07T10:52:36Z</time>
      </trkpt>
      <trkpt lat="45.86229" lon="4.71662">
        <ele>195</ele>
        <time>2018-07-07T10:52:37Z</time>
      </trkpt>
      <trkpt lat="45.86234" lon="4.71666">
        <ele>195</ele>
        <time>2018-07-07T10:52:38Z</time>
      </trkpt>
      <trkpt lat="45.86239" lon="4.7167">
        <ele>196</ele>
        <time>2018-07-07T10:52:39Z</time>
      </trkpt>
      <trkpt lat="45.86244" lon="4.71674">
        <ele>196</ele>
        <time>2018-07-07T10:52:40Z</time>
      </trkpt>
      <trkpt lat="45.8625" lon="4.71678">
        <ele>195</ele>
        <time>2018-07-07T10:52:41Z</time>
      </trkpt>
      <trkpt lat="45.86255" lon="4.71682">
        <ele>195</ele>
        <time>2018-07-07T10:52:42Z</time>
      </trkpt>
      <trkpt lat="45.8626" lon="4.71686">
        <ele>195</ele>
        <time>2018-07-07T10:52:43Z</time>
      </trkpt>
      <trkpt lat="45.86264" lon="4.71689">
        <ele>195</ele>
        <time>2018-07-07T10:52:44Z</time>
      </trkpt>
      <trkpt lat="45.8627" lon="4.71693">
        <ele>195</ele>
        <time>2018-07-07T10:52:45Z</time>
      </trkpt>
      <trkpt lat="45.86274" lon="4.71697">
        <ele>195</ele>
        <time>2018-07-07T10:52:46Z</time>
      </trkpt>
      <trkpt lat="45.8628" lon="4.71699">
        <ele>195</ele>
        <time>2018-07-07T10:52:47Z</time>
      </trkpt>
      <trkpt lat="45.86285" lon="4.71702">
        <ele>195</ele>
        <time>2018-07-07T10:52:48Z</time>
      </trkpt>
      <trkpt lat="45.86291" lon="4.71704">
        <ele>195</ele>
        <time>2018-07-07T10:52:49Z</time>
      </trkpt>
      <trkpt lat="45.86296" lon="4.71708">
        <ele>195</ele>
        <time>2018-07-07T10:52:50Z</time>
      </trkpt>
      <trkpt lat="45.863" lon="4.71713">
        <ele>196</ele>
        <time>2018-07-07T10:52:51Z</time>
      </trkpt>
      <trkpt lat="45.86305" lon="4.71717">
        <ele>196</ele>
        <time>2018-07-07T10:52:52Z</time>
      </trkpt>
      <trkpt lat="45.8631" lon="4.71723">
        <ele>196</ele>
        <time>2018-07-07T10:52:53Z</time>
      </trkpt>
      <trkpt lat="45.86317" lon="4.71727">
        <ele>196</ele>
        <time>2018-07-07T10:52:54Z</time>
      </trkpt>
      <trkpt lat="45.86322" lon="4.71731">
        <ele>196</ele>
        <time>2018-07-07T10:52:55Z</time>
      </trkpt>
      <trkpt lat="45.86327" lon="4.71735">
        <ele>196</ele>
        <time>2018-07-07T10:52:56Z</time>
      </trkpt>
      <trkpt lat="45.8633" lon="4.7174">
        <ele>196</ele>
        <time>2018-07-07T10:52:57Z</time>
      </trkpt>
      <trkpt lat="45.86336" lon="4.71744">
        <ele>195</ele>
        <time>2018-07-07T10:52:58Z</time>
      </trkpt>
      <trkpt lat="45.8634" lon="4.71747">
        <ele>195</ele>
        <time>2018-07-07T10:52:59Z</time>
      </trkpt>
      <trkpt lat="45.86345" lon="4.71751">
        <ele>197</ele>
        <time>2018-07-07T10:53:00Z</time>
      </trkpt>
      <trkpt lat="45.8635" lon="4.71756">
        <ele>197</ele>
        <time>2018-07-07T10:53:01Z</time>
      </trkpt>
      <trkpt lat="45.86355" lon="4.71761">
        <ele>198</ele>
        <time>2018-07-07T10:53:02Z</time>
      </trkpt>
      <trkpt lat="45.86359" lon="4.71766">
        <ele>198</ele>
        <time>2018-07-07T10:53:03Z</time>
      </trkpt>
      <trkpt lat="45.86367" lon="4.71768">
        <ele>198</ele>
        <time>2018-07-07T10:53:04Z</time>
      </trkpt>
      <trkpt lat="45.86372" lon="4.71772">
        <ele>198</ele>
        <time>2018-07-07T10:53:05Z</time>
      </trkpt>
      <trkpt lat="45.86376" lon="4.71776">
        <ele>198</ele>
        <time>2018-07-07T10:53:06Z</time>
      </trkpt>
      <trkpt lat="45.86381" lon="4.7178">
        <ele>198</ele>
        <time>2018-07-07T10:53:07Z</time>
      </trkpt>
      <trkpt lat="45.86386" lon="4.71785">
        <ele>198</ele>
        <time>2018-07-07T10:53:08Z</time>
      </trkpt>
      <trkpt lat="45.86391" lon="4.71789">
        <ele>199</ele>
        <time>2018-07-07T10:53:09Z</time>
      </trkpt>
      <trkpt lat="45.86397" lon="4.71793">
        <ele>199</ele>
        <time>2018-07-07T10:53:10Z</time>
      </trkpt>
      <trkpt lat="45.864" lon="4.718">
        <ele>199</ele>
        <time>2018-07-07T10:53:11Z</time>
      </trkpt>
      <trkpt lat="45.86406" lon="4.71803">
        <ele>199</ele>
        <time>2018-07-07T10:53:12Z</time>
      </trkpt>
      <trkpt lat="45.86412" lon="4.71807">
        <ele>200</ele>
        <time>2018-07-07T10:53:13Z</time>
      </trkpt>
      <trkpt lat="45.86418" lon="4.71811">
        <ele>198</ele>
        <time>2018-07-07T10:53:14Z</time>
      </trkpt>
      <trkpt lat="45.86423" lon="4.71815">
        <ele>198</ele>
        <time>2018-07-07T10:53:15Z</time>
      </trkpt>
      <trkpt lat="45.86429" lon="4.71817">
        <ele>198</ele>
        <time>2018-07-07T10:53:16Z</time>
      </trkpt>
      <trkpt lat="45.86434" lon="4.71822">
        <ele>198</ele>
        <time>2018-07-07T10:53:17Z</time>
      </trkpt>
      <trkpt lat="45.86438" lon="4.71827">
        <ele>198</ele>
        <time>2018-07-07T10:53:18Z</time>
      </trkpt>
      <trkpt lat="45.86444" lon="4.71833">
        <ele>198</ele>
        <time>2018-07-07T10:53:19Z</time>
      </trkpt>
      <trkpt lat="45.8645" lon="4.71836">
        <ele>200</ele>
        <time>2018-07-07T10:53:20Z</time>
      </trkpt>
      <trkpt lat="45.86454" lon="4.71841">
        <ele>200</ele>
        <time>2018-07-07T10:53:21Z</time>
      </trkpt>
      <trkpt lat="45.86459" lon="4.71845">
        <ele>200</ele>
        <time>2018-07-07T10:53:22Z</time>
      </trkpt>
      <trkpt lat="45.86465" lon="4.71848">
        <ele>199</ele>
        <time>2018-07-07T10:53:23Z</time>
      </trkpt>
      <trkpt lat="45.8647" lon="4.71853">
        <ele>199</ele>
        <time>2018-07-07T10:53:24Z</time>
      </trkpt>
      <trkpt lat="45.86476" lon="4.71855">
        <ele>199</ele>
        <time>2018-07-07T10:53:25Z</time>
      </trkpt>
      <trkpt lat="45.86481" lon="4.71861">
        <ele>199</ele>
        <time>2018-07-07T10:53:26Z</time>
      </trkpt>
      <trkpt lat="45.86486" lon="4.71866">
        <ele>199</ele>
        <time>2018-07-07T10:53:27Z</time>
      </trkpt>
      <trkpt lat="45.86491" lon="4.71871">
        <ele>199</ele>
        <time>2018-07-07T10:53:28Z</time>
      </trkpt>
      <trkpt lat="45.86497" lon="4.71875">
        <ele>199</ele>
        <time>2018-07-07T10:53:29Z</time>
      </trkpt>
      <trkpt lat="45.86501" lon="4.7188">
        <ele>195</ele>
        <time>2018-07-07T10:53:30Z</time>
      </trkpt>
      <trkpt lat="45.86506" lon="4.71885">
        <ele>195</ele>
        <time>2018-07-07T10:53:31Z</time>
      </trkpt>
      <trkpt lat="45.86512" lon="4.71891">
        <ele>195</ele>
        <time>2018-07-07T10:53:32Z</time>
      </trkpt>
      <trkpt lat="45.86518" lon="4.71896">
        <ele>195</ele>
        <time>2018-07-07T10:53:33Z</time>
      </trkpt>
      <trkpt lat="45.86523" lon="4.719">
        <ele>195</ele>
        <time>2018-07-07T10:53:34Z</time>
      </trkpt>
      <trkpt lat="45.86529" lon="4.71904">
        <ele>195</ele>
        <time>2018-07-07T10:53:35Z</time>
      </trkpt>
      <trkpt lat="45.86534" lon="4.71908">
        <ele>195</ele>
        <time>2018-07-07T10:53:36Z</time>
      </trkpt>
      <trkpt lat="45.8654" lon="4.71912">
        <ele>195</ele>
        <time>2018-07-07T10:53:37Z</time>
      </trkpt>
      <trkpt lat="45.86546" lon="4.71917">
        <ele>196</ele>
        <time>2018-07-07T10:53:38Z</time>
      </trkpt>
      <trkpt lat="45.86552" lon="4.71922">
        <ele>196</ele>
        <time>2018-07-07T10:53:39Z</time>
      </trkpt>
      <trkpt lat="45.86558" lon="4.71924">
        <ele>196</ele>
        <time>2018-07-07T10:53:40Z</time>
      </trkpt>
      <trkpt lat="45.86564" lon="4.71929">
        <ele>196</ele>
        <time>2018-07-07T10:53:41Z</time>
      </trkpt>
      <trkpt lat="45.8657" lon="4.71931">
        <ele>195</ele>
        <time>2018-07-07T10:53:42Z</time>
      </trkpt>
      <trkpt lat="45.86576" lon="4.71936">
        <ele>195</ele>
        <time>2018-07-07T10:53:43Z</time>
      </trkpt>
      <trkpt lat="45.86582" lon="4.7194">
        <ele>195</ele>
        <time>2018-07-07T10:53:44Z</time>
      </trkpt>
      <trkpt lat="45.86588" lon="4.71945">
        <ele>194</ele>
        <time>2018-07-07T10:53:45Z</time>
      </trkpt>
      <trkpt lat="45.86595" lon="4.71947">
        <ele>194</ele>
        <time>2018-07-07T10:53:46Z</time>
      </trkpt>
      <trkpt lat="45.866" lon="4.71952">
        <ele>194</ele>
        <time>2018-07-07T10:53:47Z</time>
      </trkpt>
      <trkpt lat="45.86606" lon="4.71957">
        <ele>194</ele>
        <time>2018-07-07T10:53:48Z</time>
      </trkpt>
      <trkpt lat="45.86613" lon="4.7196">
        <ele>195</ele>
        <time>2018-07-07T10:53:49Z</time>
      </trkpt>
      <trkpt lat="45.8662" lon="4.71964">
        <ele>195</ele>
        <time>2018-07-07T10:53:50Z</time>
      </trkpt>
      <trkpt lat="45.86626" lon="4.71966">
        <ele>195</ele>
        <time>2018-07-07T10:53:51Z</time>
      </trkpt>
      <trkpt lat="45.86632" lon="4.7197">
        <ele>195</ele>
        <time>2018-07-07T10:53:52Z</time>
      </trkpt>
      <trkpt lat="45.86638" lon="4.71975">
        <ele>195</ele>
        <time>2018-07-07T10:53:53Z</time>
      </trkpt>
      <trkpt lat="45.86643" lon="4.7198">
        <ele>195</ele>
        <time>2018-07-07T10:53:54Z</time>
      </trkpt>
      <trkpt lat="45.86649" lon="4.71985">
        <ele>195</ele>
        <time>2018-07-07T10:53:55Z</time>
      </trkpt>
      <trkpt lat="45.86656" lon="4.71989">
        <ele>195</ele>
        <time>2018-07-07T10:53:56Z</time>
      </trkpt>
      <trkpt lat="45.86661" lon="4.71993">
        <ele>195</ele>
        <time>2018-07-07T10:53:57Z</time>
      </trkpt>
      <trkpt lat="45.86667" lon="4.71999">
        <ele>195</ele>
        <time>2018-07-07T10:53:58Z</time>
      </trkpt>
      <trkpt lat="45.86674" lon="4.72004">
        <ele>196</ele>
        <time>2018-07-07T10:53:59Z</time>
      </trkpt>
      <trkpt lat="45.86679" lon="4.72009">
        <ele>196</ele>
        <time>2018-07-07T10:54:00Z</time>
      </trkpt>
      <trkpt lat="45.86685" lon="4.72012">
        <ele>196</ele>
        <time>2018-07-07T10:54:01Z</time>
      </trkpt>
      <trkpt lat="45.86691" lon="4.72015">
        <ele>196</ele>
        <time>2018-07-07T10:54:02Z</time>
      </trkpt>
      <trkpt lat="45.86696" lon="4.7202">
        <ele>197</ele>
        <time>2018-07-07T10:54:03Z</time>
      </trkpt>
      <trkpt lat="45.86701" lon="4.72024">
        <ele>197</ele>
        <time>2018-07-07T10:54:04Z</time>
      </trkpt>
      <trkpt lat="45.86707" lon="4.72029">
        <ele>197</ele>
        <time>2018-07-07T10:54:05Z</time>
      </trkpt>
      <trkpt lat="45.86713" lon="4.72034">
        <ele>197</ele>
        <time>2018-07-07T10:54:06Z</time>
      </trkpt>
      <trkpt lat="45.86719" lon="4.72038">
        <ele>197</ele>
        <time>2018-07-07T10:54:07Z</time>
      </trkpt>
      <trkpt lat="45.86724" lon="4.72043">
        <ele>197</ele>
        <time>2018-07-07T10:54:08Z</time>
      </trkpt>
      <trkpt lat="45.8673" lon="4.72046">
        <ele>197</ele>
        <time>2018-07-07T10:54:09Z</time>
      </trkpt>
      <trkpt lat="45.86736" lon="4.72051">
        <ele>197</ele>
        <time>2018-07-07T10:54:10Z</time>
      </trkpt>
      <trkpt lat="45.86743" lon="4.72053">
        <ele>197</ele>
        <time>2018-07-07T10:54:11Z</time>
      </trkpt>
      <trkpt lat="45.8675" lon="4.72055">
        <ele>197</ele>
        <time>2018-07-07T10:54:12Z</time>
      </trkpt>
      <trkpt lat="45.86756" lon="4.72059">
        <ele>195</ele>
        <time>2018-07-07T10:54:13Z</time>
      </trkpt>
      <trkpt lat="45.86762" lon="4.72063">
        <ele>195</ele>
        <time>2018-07-07T10:54:14Z</time>
      </trkpt>
      <trkpt lat="45.86766" lon="4.72068">
        <ele>195</ele>
        <time>2018-07-07T10:54:15Z</time>
      </trkpt>
      <trkpt lat="45.86772" lon="4.72071">
        <ele>195</ele>
        <time>2018-07-07T10:54:16Z</time>
      </trkpt>
      <trkpt lat="45.86778" lon="4.72075">
        <ele>195</ele>
        <time>2018-07-07T10:54:17Z</time>
      </trkpt>
      <trkpt lat="45.86784" lon="4.72076">
        <ele>194</ele>
        <time>2018-07-07T10:54:18Z</time>
      </trkpt>
      <trkpt lat="45.8679" lon="4.72079">
        <ele>194</ele>
        <time>2018-07-07T10:54:19Z</time>
      </trkpt>
      <trkpt lat="45.86795" lon="4.72081">
        <ele>194</ele>
        <time>2018-07-07T10:54:20Z</time>
      </trkpt>
      <trkpt lat="45.86801" lon="4.72083">
        <ele>194</ele>
        <time>2018-07-07T10:54:21Z</time>
      </trkpt>
      <trkpt lat="45.86806" lon="4.72086">
        <ele>200</ele>
        <time>2018-07-07T10:54:22Z</time>
      </trkpt>
      <trkpt lat="45.86812" lon="4.72088">
        <ele>200</ele>
        <time>2018-07-07T10:54:23Z</time>
      </trkpt>
      <trkpt lat="45.86818" lon="4.7209">
        <ele>199</ele>
        <time>2018-07-07T10:54:24Z</time>
      </trkpt>
      <trkpt lat="45.86824" lon="4.72092">
        <ele>198</ele>
        <time>2018-07-07T10:54:25Z</time>
      </trkpt>
      <trkpt lat="45.8683" lon="4.72095">
        <ele>198</ele>
        <time>2018-07-07T10:54:26Z</time>
      </trkpt>
      <trkpt lat="45.86835" lon="4.72098">
        <ele>198</ele>
        <time>2018-07-07T10:54:27Z</time>
      </trkpt>
      <trkpt lat="45.86841" lon="4.721">
        <ele>198</ele>
        <time>2018-07-07T10:54:28Z</time>
      </trkpt>
      <trkpt lat="45.86847" lon="4.72103">
        <ele>199</ele>
        <time>2018-07-07T10:54:29Z</time>
      </trkpt>
      <trkpt lat="45.86852" lon="4.72106">
        <ele>200</ele>
        <time>2018-07-07T10:54:30Z</time>
      </trkpt>
      <trkpt lat="45.86859" lon="4.72107">
        <ele>200</ele>
        <time>2018-07-07T10:54:31Z</time>
      </trkpt>
      <trkpt lat="45.86868" lon="4.72104">
        <ele>200</ele>
        <time>2018-07-07T10:54:32Z</time>
      </trkpt>
      <trkpt lat="45.86873" lon="4.7211">
        <ele>201</ele>
        <time>2018-07-07T10:54:33Z</time>
      </trkpt>
      <trkpt lat="45.86879" lon="4.72111">
        <ele>201</ele>
        <time>2018-07-07T10:54:34Z</time>
      </trkpt>
      <trkpt lat="45.86883" lon="4.72117">
        <ele>202</ele>
        <time>2018-07-07T10:54:35Z</time>
      </trkpt>
      <trkpt lat="45.86888" lon="4.72119">
        <ele>202</ele>
        <time>2018-07-07T10:54:36Z</time>
      </trkpt>
      <trkpt lat="45.86894" lon="4.72121">
        <ele>202</ele>
        <time>2018-07-07T10:54:37Z</time>
      </trkpt>
      <trkpt lat="45.86896" lon="4.7213">
        <ele>203</ele>
        <time>2018-07-07T10:54:38Z</time>
      </trkpt>
      <trkpt lat="45.86901" lon="4.7213">
        <ele>203</ele>
        <time>2018-07-07T10:54:39Z</time>
      </trkpt>
      <trkpt lat="45.86906" lon="4.72134">
        <ele>204</ele>
        <time>2018-07-07T10:54:40Z</time>
      </trkpt>
      <trkpt lat="45.86912" lon="4.72135">
        <ele>204</ele>
        <time>2018-07-07T10:54:41Z</time>
      </trkpt>
      <trkpt lat="45.86917" lon="4.72134">
        <ele>202</ele>
        <time>2018-07-07T10:54:42Z</time>
      </trkpt>
      <trkpt lat="45.86922" lon="4.72136">
        <ele>202</ele>
        <time>2018-07-07T10:54:43Z</time>
      </trkpt>
      <trkpt lat="45.86924" lon="4.72143">
        <ele>203</ele>
        <time>2018-07-07T10:54:44Z</time>
      </trkpt>
      <trkpt lat="45.86931" lon="4.72143">
        <ele>203</ele>
        <time>2018-07-07T10:54:45Z</time>
      </trkpt>
      <trkpt lat="45.86936" lon="4.72145">
        <ele>203</ele>
        <time>2018-07-07T10:54:46Z</time>
      </trkpt>
      <trkpt lat="45.86941" lon="4.72149">
        <ele>203</ele>
        <time>2018-07-07T10:54:47Z</time>
      </trkpt>
      <trkpt lat="45.86946" lon="4.72152">
        <ele>202</ele>
        <time>2018-07-07T10:54:48Z</time>
      </trkpt>
      <trkpt lat="45.86953" lon="4.72154">
        <ele>202</ele>
        <time>2018-07-07T10:54:49Z</time>
      </trkpt>
      <trkpt lat="45.86958" lon="4.72157">
        <ele>201</ele>
        <time>2018-07-07T10:54:50Z</time>
      </trkpt>
      <trkpt lat="45.86964" lon="4.72159">
        <ele>201</ele>
        <time>2018-07-07T10:54:51Z</time>
      </trkpt>
      <trkpt lat="45.8697" lon="4.72164">
        <ele>201</ele>
        <time>2018-07-07T10:54:52Z</time>
      </trkpt>
      <trkpt lat="45.86975" lon="4.72167">
        <ele>208</ele>
        <time>2018-07-07T10:54:53Z</time>
      </trkpt>
      <trkpt lat="45.86978" lon="4.72173">
        <ele>208</ele>
        <time>2018-07-07T10:54:54Z</time>
      </trkpt>
      <trkpt lat="45.86982" lon="4.72178">
        <ele>208</ele>
        <time>2018-07-07T10:54:55Z</time>
      </trkpt>
      <trkpt lat="45.86986" lon="4.72183">
        <ele>208</ele>
        <time>2018-07-07T10:54:56Z</time>
      </trkpt>
      <trkpt lat="45.86992" lon="4.72186">
        <ele>208</ele>
        <time>2018-07-07T10:54:57Z</time>
      </trkpt>
      <trkpt lat="45.86997" lon="4.72189">
        <ele>208</ele>
        <time>2018-07-07T10:54:58Z</time>
      </trkpt>
      <trkpt lat="45.87004" lon="4.72191">
        <ele>202</ele>
        <time>2018-07-07T10:54:59Z</time>
      </trkpt>
      <trkpt lat="45.87009" lon="4.72193">
        <ele>202</ele>
        <time>2018-07-07T10:55:00Z</time>
      </trkpt>
      <trkpt lat="45.87014" lon="4.72197">
        <ele>202</ele>
        <time>2018-07-07T10:55:01Z</time>
      </trkpt>
      <trkpt lat="45.87018" lon="4.72202">
        <ele>202</ele>
        <time>2018-07-07T10:55:02Z</time>
      </trkpt>
      <trkpt lat="45.87022" lon="4.72203">
        <ele>202</ele>
        <time>2018-07-07T10:55:03Z</time>
      </trkpt>
      <trkpt lat="45.87027" lon="4.72206">
        <ele>202</ele>
        <time>2018-07-07T10:55:04Z</time>
      </trkpt>
      <trkpt lat="45.87032" lon="4.72209">
        <ele>202</ele>
        <time>2018-07-07T10:55:05Z</time>
      </trkpt>
      <trkpt lat="45.87037" lon="4.72213">
        <ele>201</ele>
        <time>2018-07-07T10:55:06Z</time>
      </trkpt>
      <trkpt lat="45.87042" lon="4.72218">
        <ele>201</ele>
        <time>2018-07-07T10:55:07Z</time>
      </trkpt>
      <trkpt lat="45.87047" lon="4.72221">
        <ele>201</ele>
        <time>2018-07-07T10:55:08Z</time>
      </trkpt>
      <trkpt lat="45.87053" lon="4.72223">
        <ele>201</ele>
        <time>2018-07-07T10:55:09Z</time>
      </trkpt>
      <trkpt lat="45.87058" lon="4.72228">
        <ele>201</ele>
        <time>2018-07-07T10:55:10Z</time>
      </trkpt>
      <trkpt lat="45.87064" lon="4.72231">
        <ele>200</ele>
        <time>2018-07-07T10:55:11Z</time>
      </trkpt>
      <trkpt lat="45.87068" lon="4.72235">
        <ele>200</ele>
        <time>2018-07-07T10:55:12Z</time>
      </trkpt>
      <trkpt lat="45.87072" lon="4.7224">
        <ele>200</ele>
        <time>2018-07-07T10:55:13Z</time>
      </trkpt>
      <trkpt lat="45.87075" lon="4.72243">
        <ele>200</ele>
        <time>2018-07-07T10:55:14Z</time>
      </trkpt>
      <trkpt lat="45.8708" lon="4.72248">
        <ele>199</ele>
        <time>2018-07-07T10:55:15Z</time>
      </trkpt>
      <trkpt lat="45.87084" lon="4.72253">
        <ele>199</ele>
        <time>2018-07-07T10:55:16Z</time>
      </trkpt>
      <trkpt lat="45.87088" lon="4.72258">
        <ele>198</ele>
        <time>2018-07-07T10:55:17Z</time>
      </trkpt>
      <trkpt lat="45.87091" lon="4.72262">
        <ele>198</ele>
        <time>2018-07-07T10:55:18Z</time>
      </trkpt>
      <trkpt lat="45.87095" lon="4.72269">
        <ele>198</ele>
        <time>2018-07-07T10:55:19Z</time>
      </trkpt>
      <trkpt lat="45.87098" lon="4.72273">
        <ele>197</ele>
        <time>2018-07-07T10:55:20Z</time>
      </trkpt>
      <trkpt lat="45.87103" lon="4.72278">
        <ele>197</ele>
        <time>2018-07-07T10:55:21Z</time>
      </trkpt>
      <trkpt lat="45.87105" lon="4.72284">
        <ele>197</ele>
        <time>2018-07-07T10:55:22Z</time>
      </trkpt>
      <trkpt lat="45.87111" lon="4.72294">
        <ele>197</ele>
        <time>2018-07-07T10:55:24Z</time>
      </trkpt>
      <trkpt lat="45.87114" lon="4.723">
        <ele>197</ele>
        <time>2018-07-07T10:55:25Z</time>
      </trkpt>
      <trkpt lat="45.87117" lon="4.72306">
        <ele>197</ele>
        <time>2018-07-07T10:55:26Z</time>
      </trkpt>
      <trkpt lat="45.8712" lon="4.72313">
        <ele>197</ele>
        <time>2018-07-07T10:55:27Z</time>
      </trkpt>
      <trkpt lat="45.87123" lon="4.72319">
        <ele>197</ele>
        <time>2018-07-07T10:55:28Z</time>
      </trkpt>
      <trkpt lat="45.87123" lon="4.72326">
        <ele>197</ele>
        <time>2018-07-07T10:55:29Z</time>
      </trkpt>
      <trkpt lat="45.87126" lon="4.72332">
        <ele>197</ele>
        <time>2018-07-07T10:55:30Z</time>
      </trkpt>
      <trkpt lat="45.87129" lon="4.72339">
        <ele>198</ele>
        <time>2018-07-07T10:55:31Z</time>
      </trkpt>
      <trkpt lat="45.87131" lon="4.72345">
        <ele>198</ele>
        <time>2018-07-07T10:55:32Z</time>
      </trkpt>
      <trkpt lat="45.87136" lon="4.72348">
        <ele>198</ele>
        <time>2018-07-07T10:55:33Z</time>
      </trkpt>
      <trkpt lat="45.87138" lon="4.72356">
        <ele>197</ele>
        <time>2018-07-07T10:55:34Z</time>
      </trkpt>
      <trkpt lat="45.87143" lon="4.7236">
        <ele>197</ele>
        <time>2018-07-07T10:55:35Z</time>
      </trkpt>
      <trkpt lat="45.87147" lon="4.72367">
        <ele>197</ele>
        <time>2018-07-07T10:55:36Z</time>
      </trkpt>
      <trkpt lat="45.8715" lon="4.72374">
        <ele>197</ele>
        <time>2018-07-07T10:55:37Z</time>
      </trkpt>
      <trkpt lat="45.87154" lon="4.72381">
        <ele>197</ele>
        <time>2018-07-07T10:55:38Z</time>
      </trkpt>
      <trkpt lat="45.87158" lon="4.72388">
        <ele>197</ele>
        <time>2018-07-07T10:55:39Z</time>
      </trkpt>
      <trkpt lat="45.87161" lon="4.72397">
        <ele>197</ele>
        <time>2018-07-07T10:55:40Z</time>
      </trkpt>
      <trkpt lat="45.87164" lon="4.72403">
        <ele>196</ele>
        <time>2018-07-07T10:55:41Z</time>
      </trkpt>
      <trkpt lat="45.87168" lon="4.72411">
        <ele>193</ele>
        <time>2018-07-07T10:55:42Z</time>
      </trkpt>
      <trkpt lat="45.87173" lon="4.72416">
        <ele>193</ele>
        <time>2018-07-07T10:55:43Z</time>
      </trkpt>
      <trkpt lat="45.87176" lon="4.72423">
        <ele>194</ele>
        <time>2018-07-07T10:55:44Z</time>
      </trkpt>
      <trkpt lat="45.87181" lon="4.72428">
        <ele>194</ele>
        <time>2018-07-07T10:55:45Z</time>
      </trkpt>
      <trkpt lat="45.87185" lon="4.72434">
        <ele>194</ele>
        <time>2018-07-07T10:55:46Z</time>
      </trkpt>
      <trkpt lat="45.87189" lon="4.72441">
        <ele>194</ele>
        <time>2018-07-07T10:55:47Z</time>
      </trkpt>
      <trkpt lat="45.87195" lon="4.72449">
        <ele>194</ele>
        <time>2018-07-07T10:55:48Z</time>
      </trkpt>
      <trkpt lat="45.872" lon="4.72456">
        <ele>194</ele>
        <time>2018-07-07T10:55:49Z</time>
      </trkpt>
      <trkpt lat="45.87205" lon="4.72463">
        <ele>194</ele>
        <time>2018-07-07T10:55:50Z</time>
      </trkpt>
      <trkpt lat="45.87211" lon="4.7247">
        <ele>194</ele>
        <time>2018-07-07T10:55:51Z</time>
      </trkpt>
      <trkpt lat="45.87216" lon="4.72476">
        <ele>194</ele>
        <time>2018-07-07T10:55:52Z</time>
      </trkpt>
      <trkpt lat="45.8722" lon="4.72484">
        <ele>194</ele>
        <time>2018-07-07T10:55:53Z</time>
      </trkpt>
      <trkpt lat="45.87225" lon="4.7249">
        <ele>194</ele>
        <time>2018-07-07T10:55:54Z</time>
      </trkpt>
      <trkpt lat="45.8723" lon="4.72497">
        <ele>194</ele>
        <time>2018-07-07T10:55:55Z</time>
      </trkpt>
      <trkpt lat="45.87233" lon="4.72505">
        <ele>196</ele>
        <time>2018-07-07T10:55:56Z</time>
      </trkpt>
      <trkpt lat="45.87237" lon="4.72512">
        <ele>196</ele>
        <time>2018-07-07T10:55:57Z</time>
      </trkpt>
      <trkpt lat="45.8724" lon="4.72519">
        <ele>196</ele>
        <time>2018-07-07T10:55:58Z</time>
      </trkpt>
      <trkpt lat="45.8724" lon="4.72524">
        <ele>196</ele>
        <time>2018-07-07T10:55:59Z</time>
      </trkpt>
      <trkpt lat="45.87244" lon="4.72531">
        <ele>197</ele>
        <time>2018-07-07T10:56:01Z</time>
      </trkpt>
      <trkpt lat="45.87245" lon="4.7254">
        <ele>197</ele>
        <time>2018-07-07T10:56:02Z</time>
      </trkpt>
      <trkpt lat="45.8725" lon="4.7255">
        <ele>194</ele>
        <time>2018-07-07T10:56:04Z</time>
      </trkpt>
      <trkpt lat="45.87254" lon="4.72556">
        <ele>194</ele>
        <time>2018-07-07T10:56:05Z</time>
      </trkpt>
      <trkpt lat="45.87258" lon="4.72563">
        <ele>195</ele>
        <time>2018-07-07T10:56:06Z</time>
      </trkpt>
      <trkpt lat="45.87262" lon="4.72567">
        <ele>195</ele>
        <time>2018-07-07T10:56:07Z</time>
      </trkpt>
      <trkpt lat="45.87266" lon="4.72572">
        <ele>195</ele>
        <time>2018-07-07T10:56:08Z</time>
      </trkpt>
      <trkpt lat="45.8727" lon="4.7258">
        <ele>195</ele>
        <time>2018-07-07T10:56:09Z</time>
      </trkpt>
      <trkpt lat="45.87275" lon="4.72585">
        <ele>195</ele>
        <time>2018-07-07T10:56:10Z</time>
      </trkpt>
      <trkpt lat="45.87278" lon="4.72591">
        <ele>195</ele>
        <time>2018-07-07T10:56:11Z</time>
      </trkpt>
      <trkpt lat="45.87282" lon="4.72597">
        <ele>194</ele>
        <time>2018-07-07T10:56:12Z</time>
      </trkpt>
      <trkpt lat="45.87285" lon="4.72603">
        <ele>194</ele>
        <time>2018-07-07T10:56:13Z</time>
      </trkpt>
      <trkpt lat="45.87289" lon="4.7261">
        <ele>194</ele>
        <time>2018-07-07T10:56:14Z</time>
      </trkpt>
      <trkpt lat="45.87294" lon="4.72614">
        <ele>194</ele>
        <time>2018-07-07T10:56:15Z</time>
      </trkpt>
      <trkpt lat="45.87303" lon="4.72618">
        <ele>193</ele>
        <time>2018-07-07T10:56:16Z</time>
      </trkpt>
      <trkpt lat="45.87307" lon="4.72625">
        <ele>193</ele>
        <time>2018-07-07T10:56:17Z</time>
      </trkpt>
      <trkpt lat="45.87311" lon="4.7263">
        <ele>193</ele>
        <time>2018-07-07T10:56:18Z</time>
      </trkpt>
      <trkpt lat="45.87315" lon="4.72637">
        <ele>193</ele>
        <time>2018-07-07T10:56:19Z</time>
      </trkpt>
      <trkpt lat="45.87319" lon="4.72641">
        <ele>193</ele>
        <time>2018-07-07T10:56:20Z</time>
      </trkpt>
      <trkpt lat="45.87324" lon="4.72646">
        <ele>192</ele>
        <time>2018-07-07T10:56:21Z</time>
      </trkpt>
      <trkpt lat="45.87328" lon="4.72651">
        <ele>192</ele>
        <time>2018-07-07T10:56:22Z</time>
      </trkpt>
      <trkpt lat="45.87333" lon="4.72654">
        <ele>191</ele>
        <time>2018-07-07T10:56:23Z</time>
      </trkpt>
      <trkpt lat="45.87337" lon="4.72658">
        <ele>190</ele>
        <time>2018-07-07T10:56:24Z</time>
      </trkpt>
      <trkpt lat="45.87342" lon="4.72662">
        <ele>190</ele>
        <time>2018-07-07T10:56:25Z</time>
      </trkpt>
      <trkpt lat="45.87346" lon="4.72665">
        <ele>190</ele>
        <time>2018-07-07T10:56:26Z</time>
      </trkpt>
      <trkpt lat="45.8735" lon="4.7267">
        <ele>190</ele>
        <time>2018-07-07T10:56:27Z</time>
      </trkpt>
      <trkpt lat="45.87353" lon="4.72674">
        <ele>190</ele>
        <time>2018-07-07T10:56:28Z</time>
      </trkpt>
      <trkpt lat="45.87358" lon="4.72677">
        <ele>190</ele>
        <time>2018-07-07T10:56:29Z</time>
      </trkpt>
      <trkpt lat="45.87363" lon="4.72681">
        <ele>190</ele>
        <time>2018-07-07T10:56:30Z</time>
      </trkpt>
      <trkpt lat="45.87366" lon="4.72687">
        <ele>190</ele>
        <time>2018-07-07T10:56:31Z</time>
      </trkpt>
      <trkpt lat="45.87371" lon="4.72691">
        <ele>190</ele>
        <time>2018-07-07T10:56:32Z</time>
      </trkpt>
      <trkpt lat="45.87375" lon="4.72696">
        <ele>190</ele>
        <time>2018-07-07T10:56:33Z</time>
      </trkpt>
      <trkpt lat="45.87377" lon="4.72702">
        <ele>190</ele>
        <time>2018-07-07T10:56:34Z</time>
      </trkpt>
      <trkpt lat="45.87381" lon="4.72708">
        <ele>190</ele>
        <time>2018-07-07T10:56:35Z</time>
      </trkpt>
      <trkpt lat="45.87384" lon="4.72715">
        <ele>190</ele>
        <time>2018-07-07T10:56:36Z</time>
      </trkpt>
      <trkpt lat="45.87392" lon="4.72722">
        <ele>190</ele>
        <time>2018-07-07T10:56:38Z</time>
      </trkpt>
      <trkpt lat="45.87394" lon="4.72728">
        <ele>190</ele>
        <time>2018-07-07T10:56:39Z</time>
      </trkpt>
      <trkpt lat="45.87399" lon="4.72737">
        <ele>189</ele>
        <time>2018-07-07T10:56:41Z</time>
      </trkpt>
      <trkpt lat="45.87403" lon="4.72743">
        <ele>189</ele>
        <time>2018-07-07T10:56:42Z</time>
      </trkpt>
      <trkpt lat="45.87406" lon="4.72748">
        <ele>189</ele>
        <time>2018-07-07T10:56:43Z</time>
      </trkpt>
      <trkpt lat="45.87409" lon="4.72755">
        <ele>189</ele>
        <time>2018-07-07T10:56:44Z</time>
      </trkpt>
      <trkpt lat="45.87412" lon="4.72763">
        <ele>189</ele>
        <time>2018-07-07T10:56:45Z</time>
      </trkpt>
      <trkpt lat="45.87416" lon="4.7277">
        <ele>189</ele>
        <time>2018-07-07T10:56:46Z</time>
      </trkpt>
      <trkpt lat="45.87419" lon="4.72777">
        <ele>189</ele>
        <time>2018-07-07T10:56:47Z</time>
      </trkpt>
      <trkpt lat="45.87423" lon="4.72785">
        <ele>189</ele>
        <time>2018-07-07T10:56:48Z</time>
      </trkpt>
      <trkpt lat="45.87426" lon="4.72793">
        <ele>189</ele>
        <time>2018-07-07T10:56:49Z</time>
      </trkpt>
      <trkpt lat="45.87429" lon="4.72801">
        <ele>189</ele>
        <time>2018-07-07T10:56:50Z</time>
      </trkpt>
      <trkpt lat="45.87431" lon="4.72809">
        <ele>189</ele>
        <time>2018-07-07T10:56:51Z</time>
      </trkpt>
      <trkpt lat="45.87436" lon="4.72816">
        <ele>189</ele>
        <time>2018-07-07T10:56:52Z</time>
      </trkpt>
      <trkpt lat="45.87439" lon="4.72823">
        <ele>189</ele>
        <time>2018-07-07T10:56:53Z</time>
      </trkpt>
      <trkpt lat="45.87442" lon="4.7283">
        <ele>189</ele>
        <time>2018-07-07T10:56:54Z</time>
      </trkpt>
      <trkpt lat="45.87445" lon="4.72837">
        <ele>188</ele>
        <time>2018-07-07T10:56:55Z</time>
      </trkpt>
      <trkpt lat="45.87447" lon="4.72844">
        <ele>188</ele>
        <time>2018-07-07T10:56:56Z</time>
      </trkpt>
      <trkpt lat="45.87449" lon="4.72851">
        <ele>188</ele>
        <time>2018-07-07T10:56:57Z</time>
      </trkpt>
      <trkpt lat="45.87451" lon="4.72857">
        <ele>188</ele>
        <time>2018-07-07T10:56:58Z</time>
      </trkpt>
      <trkpt lat="45.87453" lon="4.72864">
        <ele>188</ele>
        <time>2018-07-07T10:56:59Z</time>
      </trkpt>
      <trkpt lat="45.87456" lon="4.7287">
        <ele>188</ele>
        <time>2018-07-07T10:57:00Z</time>
      </trkpt>
      <trkpt lat="45.87459" lon="4.72876">
        <ele>188</ele>
        <time>2018-07-07T10:57:01Z</time>
      </trkpt>
      <trkpt lat="45.87461" lon="4.72882">
        <ele>188</ele>
        <time>2018-07-07T10:57:02Z</time>
      </trkpt>
      <trkpt lat="45.87463" lon="4.72888">
        <ele>188</ele>
        <time>2018-07-07T10:57:03Z</time>
      </trkpt>
      <trkpt lat="45.87465" lon="4.72894">
        <ele>188</ele>
        <time>2018-07-07T10:57:04Z</time>
      </trkpt>
      <trkpt lat="45.87465" lon="4.72901">
        <ele>188</ele>
        <time>2018-07-07T10:57:05Z</time>
      </trkpt>
      <trkpt lat="45.87467" lon="4.72907">
        <ele>188</ele>
        <time>2018-07-07T10:57:06Z</time>
      </trkpt>
      <trkpt lat="45.87469" lon="4.72914">
        <ele>188</ele>
        <time>2018-07-07T10:57:07Z</time>
      </trkpt>
      <trkpt lat="45.87473" lon="4.72921">
        <ele>188</ele>
        <time>2018-07-07T10:57:08Z</time>
      </trkpt>
      <trkpt lat="45.87478" lon="4.72927">
        <ele>188</ele>
        <time>2018-07-07T10:57:09Z</time>
      </trkpt>
      <trkpt lat="45.87483" lon="4.72932">
        <ele>188</ele>
        <time>2018-07-07T10:57:10Z</time>
      </trkpt>
      <trkpt lat="45.87487" lon="4.72937">
        <ele>188</ele>
        <time>2018-07-07T10:57:11Z</time>
      </trkpt>
      <trkpt lat="45.87493" lon="4.72942">
        <ele>188</ele>
        <time>2018-07-07T10:57:12Z</time>
      </trkpt>
      <trkpt lat="45.87498" lon="4.72946">
        <ele>188</ele>
        <time>2018-07-07T10:57:13Z</time>
      </trkpt>
      <trkpt lat="45.87503" lon="4.72951">
        <ele>187</ele>
        <time>2018-07-07T10:57:14Z</time>
      </trkpt>
      <trkpt lat="45.87507" lon="4.72957">
        <ele>187</ele>
        <time>2018-07-07T10:57:15Z</time>
      </trkpt>
      <trkpt lat="45.87512" lon="4.72963">
        <ele>187</ele>
        <time>2018-07-07T10:57:16Z</time>
      </trkpt>
      <trkpt lat="45.87515" lon="4.72969">
        <ele>187</ele>
        <time>2018-07-07T10:57:17Z</time>
      </trkpt>
      <trkpt lat="45.87519" lon="4.72977">
        <ele>187</ele>
        <time>2018-07-07T10:57:18Z</time>
      </trkpt>
      <trkpt lat="45.87523" lon="4.72984">
        <ele>187</ele>
        <time>2018-07-07T10:57:19Z</time>
      </trkpt>
      <trkpt lat="45.87526" lon="4.72991">
        <ele>187</ele>
        <time>2018-07-07T10:57:20Z</time>
      </trkpt>
      <trkpt lat="45.87531" lon="4.72999">
        <ele>187</ele>
        <time>2018-07-07T10:57:21Z</time>
      </trkpt>
      <trkpt lat="45.87534" lon="4.73006">
        <ele>187</ele>
        <time>2018-07-07T10:57:22Z</time>
      </trkpt>
      <trkpt lat="45.87538" lon="4.73014">
        <ele>187</ele>
        <time>2018-07-07T10:57:23Z</time>
      </trkpt>
      <trkpt lat="45.87542" lon="4.73021">
        <ele>188</ele>
        <time>2018-07-07T10:57:24Z</time>
      </trkpt>
      <trkpt lat="45.87546" lon="4.73027">
        <ele>188</ele>
        <time>2018-07-07T10:57:25Z</time>
      </trkpt>
      <trkpt lat="45.8755" lon="4.73035">
        <ele>188</ele>
        <time>2018-07-07T10:57:26Z</time>
      </trkpt>
      <trkpt lat="45.87553" lon="4.73042">
        <ele>188</ele>
        <time>2018-07-07T10:57:27Z</time>
      </trkpt>
      <trkpt lat="45.87557" lon="4.7305">
        <ele>188</ele>
        <time>2018-07-07T10:57:28Z</time>
      </trkpt>
      <trkpt lat="45.8756" lon="4.73057">
        <ele>188</ele>
        <time>2018-07-07T10:57:29Z</time>
      </trkpt>
      <trkpt lat="45.87564" lon="4.73064">
        <ele>188</ele>
        <time>2018-07-07T10:57:30Z</time>
      </trkpt>
      <trkpt lat="45.87569" lon="4.73072">
        <ele>188</ele>
        <time>2018-07-07T10:57:31Z</time>
      </trkpt>
      <trkpt lat="45.87572" lon="4.7308">
        <ele>188</ele>
        <time>2018-07-07T10:57:32Z</time>
      </trkpt>
      <trkpt lat="45.87576" lon="4.73088">
        <ele>188</ele>
        <time>2018-07-07T10:57:33Z</time>
      </trkpt>
      <trkpt lat="45.8758" lon="4.73097">
        <ele>188</ele>
        <time>2018-07-07T10:57:34Z</time>
      </trkpt>
      <trkpt lat="45.87584" lon="4.73104">
        <ele>188</ele>
        <time>2018-07-07T10:57:35Z</time>
      </trkpt>
      <trkpt lat="45.87588" lon="4.73113">
        <ele>188</ele>
        <time>2018-07-07T10:57:36Z</time>
      </trkpt>
      <trkpt lat="45.87592" lon="4.7312">
        <ele>188</ele>
        <time>2018-07-07T10:57:37Z</time>
      </trkpt>
      <trkpt lat="45.87595" lon="4.73126">
        <ele>187</ele>
        <time>2018-07-07T10:57:38Z</time>
      </trkpt>
      <trkpt lat="45.87599" lon="4.73131">
        <ele>187</ele>
        <time>2018-07-07T10:57:39Z</time>
      </trkpt>
      <trkpt lat="45.87604" lon="4.73135">
        <ele>187</ele>
        <time>2018-07-07T10:57:40Z</time>
      </trkpt>
      <trkpt lat="45.87606" lon="4.7314">
        <ele>187</ele>
        <time>2018-07-07T10:57:41Z</time>
      </trkpt>
      <trkpt lat="45.8761" lon="4.73146">
        <ele>187</ele>
        <time>2018-07-07T10:57:42Z</time>
      </trkpt>
      <trkpt lat="45.87613" lon="4.73151">
        <ele>187</ele>
        <time>2018-07-07T10:57:43Z</time>
      </trkpt>
      <trkpt lat="45.87616" lon="4.73156">
        <ele>187</ele>
        <time>2018-07-07T10:57:44Z</time>
      </trkpt>
      <trkpt lat="45.87621" lon="4.73164">
        <ele>187</ele>
        <time>2018-07-07T10:57:46Z</time>
      </trkpt>
      <trkpt lat="45.87623" lon="4.73169">
        <ele>187</ele>
        <time>2018-07-07T10:57:47Z</time>
      </trkpt>
      <trkpt lat="45.87628" lon="4.73178">
        <ele>188</ele>
        <time>2018-07-07T10:57:49Z</time>
      </trkpt>
      <trkpt lat="45.87631" lon="4.73186">
        <ele>188</ele>
        <time>2018-07-07T10:57:50Z</time>
      </trkpt>
      <trkpt lat="45.87633" lon="4.73192">
        <ele>188</ele>
        <time>2018-07-07T10:57:51Z</time>
      </trkpt>
      <trkpt lat="45.87636" lon="4.73198">
        <ele>188</ele>
        <time>2018-07-07T10:57:52Z</time>
      </trkpt>
      <trkpt lat="45.87638" lon="4.73205">
        <ele>188</ele>
        <time>2018-07-07T10:57:53Z</time>
      </trkpt>
      <trkpt lat="45.87641" lon="4.73212">
        <ele>188</ele>
        <time>2018-07-07T10:57:54Z</time>
      </trkpt>
      <trkpt lat="45.87644" lon="4.73218">
        <ele>188</ele>
        <time>2018-07-07T10:57:55Z</time>
      </trkpt>
      <trkpt lat="45.87646" lon="4.73225">
        <ele>188</ele>
        <time>2018-07-07T10:57:56Z</time>
      </trkpt>
      <trkpt lat="45.8765" lon="4.73232">
        <ele>188</ele>
        <time>2018-07-07T10:57:57Z</time>
      </trkpt>
      <trkpt lat="45.87652" lon="4.73238">
        <ele>188</ele>
        <time>2018-07-07T10:57:58Z</time>
      </trkpt>
      <trkpt lat="45.87654" lon="4.73245">
        <ele>188</ele>
        <time>2018-07-07T10:57:59Z</time>
      </trkpt>
      <trkpt lat="45.87657" lon="4.73252">
        <ele>189</ele>
        <time>2018-07-07T10:58:00Z</time>
      </trkpt>
      <trkpt lat="45.8766" lon="4.73257">
        <ele>189</ele>
        <time>2018-07-07T10:58:01Z</time>
      </trkpt>
      <trkpt lat="45.87662" lon="4.73264">
        <ele>189</ele>
        <time>2018-07-07T10:58:02Z</time>
      </trkpt>
      <trkpt lat="45.87664" lon="4.73271">
        <ele>189</ele>
        <time>2018-07-07T10:58:03Z</time>
      </trkpt>
      <trkpt lat="45.87668" lon="4.73278">
        <ele>188</ele>
        <time>2018-07-07T10:58:04Z</time>
      </trkpt>
      <trkpt lat="45.87671" lon="4.73285">
        <ele>188</ele>
        <time>2018-07-07T10:58:05Z</time>
      </trkpt>
      <trkpt lat="45.87674" lon="4.73292">
        <ele>188</ele>
        <time>2018-07-07T10:58:06Z</time>
      </trkpt>
      <trkpt lat="45.87676" lon="4.73297">
        <ele>188</ele>
        <time>2018-07-07T10:58:07Z</time>
      </trkpt>
      <trkpt lat="45.8768" lon="4.73303">
        <ele>188</ele>
        <time>2018-07-07T10:58:08Z</time>
      </trkpt>
      <trkpt lat="45.87683" lon="4.73309">
        <ele>188</ele>
        <time>2018-07-07T10:58:09Z</time>
      </trkpt>
      <trkpt lat="45.87684" lon="4.73315">
        <ele>188</ele>
        <time>2018-07-07T10:58:10Z</time>
      </trkpt>
      <trkpt lat="45.87687" lon="4.73322">
        <ele>188</ele>
        <time>2018-07-07T10:58:11Z</time>
      </trkpt>
      <trkpt lat="45.87692" lon="4.73329">
        <ele>188</ele>
        <time>2018-07-07T10:58:12Z</time>
      </trkpt>
      <trkpt lat="45.87695" lon="4.73337">
        <ele>188</ele>
        <time>2018-07-07T10:58:13Z</time>
      </trkpt>
      <trkpt lat="45.877" lon="4.73345">
        <ele>187</ele>
        <time>2018-07-07T10:58:14Z</time>
      </trkpt>
      <trkpt lat="45.87703" lon="4.73352">
        <ele>187</ele>
        <time>2018-07-07T10:58:15Z</time>
      </trkpt>
      <trkpt lat="45.87706" lon="4.73361">
        <ele>187</ele>
        <time>2018-07-07T10:58:16Z</time>
      </trkpt>
      <trkpt lat="45.8771" lon="4.73369">
        <ele>187</ele>
        <time>2018-07-07T10:58:17Z</time>
      </trkpt>
      <trkpt lat="45.87713" lon="4.73376">
        <ele>187</ele>
        <time>2018-07-07T10:58:18Z</time>
      </trkpt>
      <trkpt lat="45.87717" lon="4.73383">
        <ele>188</ele>
        <time>2018-07-07T10:58:19Z</time>
      </trkpt>
      <trkpt lat="45.8772" lon="4.73389">
        <ele>188</ele>
        <time>2018-07-07T10:58:20Z</time>
      </trkpt>
      <trkpt lat="45.87723" lon="4.73396">
        <ele>188</ele>
        <time>2018-07-07T10:58:21Z</time>
      </trkpt>
      <trkpt lat="45.87726" lon="4.73404">
        <ele>188</ele>
        <time>2018-07-07T10:58:22Z</time>
      </trkpt>
      <trkpt lat="45.87729" lon="4.73408">
        <ele>188</ele>
        <time>2018-07-07T10:58:23Z</time>
      </trkpt>
      <trkpt lat="45.87732" lon="4.73415">
        <ele>188</ele>
        <time>2018-07-07T10:58:24Z</time>
      </trkpt>
      <trkpt lat="45.87736" lon="4.73422">
        <ele>188</ele>
        <time>2018-07-07T10:58:25Z</time>
      </trkpt>
      <trkpt lat="45.87739" lon="4.73429">
        <ele>188</ele>
        <time>2018-07-07T10:58:26Z</time>
      </trkpt>
      <trkpt lat="45.87742" lon="4.73435">
        <ele>188</ele>
        <time>2018-07-07T10:58:27Z</time>
      </trkpt>
      <trkpt lat="45.87745" lon="4.73443">
        <ele>189</ele>
        <time>2018-07-07T10:58:28Z</time>
      </trkpt>
      <trkpt lat="45.87748" lon="4.7345">
        <ele>189</ele>
        <time>2018-07-07T10:58:29Z</time>
      </trkpt>
      <trkpt lat="45.87752" lon="4.73457">
        <ele>188</ele>
        <time>2018-07-07T10:58:30Z</time>
      </trkpt>
      <trkpt lat="45.87755" lon="4.73464">
        <ele>188</ele>
        <time>2018-07-07T10:58:31Z</time>
      </trkpt>
      <trkpt lat="45.87757" lon="4.7347">
        <ele>188</ele>
        <time>2018-07-07T10:58:32Z</time>
      </trkpt>
      <trkpt lat="45.8776" lon="4.73477">
        <ele>188</ele>
        <time>2018-07-07T10:58:33Z</time>
      </trkpt>
      <trkpt lat="45.87763" lon="4.73484">
        <ele>189</ele>
        <time>2018-07-07T10:58:34Z</time>
      </trkpt>
      <trkpt lat="45.87767" lon="4.73491">
        <ele>189</ele>
        <time>2018-07-07T10:58:35Z</time>
      </trkpt>
      <trkpt lat="45.8777" lon="4.73499">
        <ele>189</ele>
        <time>2018-07-07T10:58:36Z</time>
      </trkpt>
      <trkpt lat="45.87773" lon="4.73505">
        <ele>189</ele>
        <time>2018-07-07T10:58:37Z</time>
      </trkpt>
      <trkpt lat="45.87776" lon="4.73512">
        <ele>189</ele>
        <time>2018-07-07T10:58:38Z</time>
      </trkpt>
      <trkpt lat="45.87779" lon="4.73519">
        <ele>189</ele>
        <time>2018-07-07T10:58:39Z</time>
      </trkpt>
      <trkpt lat="45.87782" lon="4.73525">
        <ele>189</ele>
        <time>2018-07-07T10:58:40Z</time>
      </trkpt>
      <trkpt lat="45.87785" lon="4.7353">
        <ele>189</ele>
        <time>2018-07-07T10:58:41Z</time>
      </trkpt>
      <trkpt lat="45.87789" lon="4.73537">
        <ele>189</ele>
        <time>2018-07-07T10:58:42Z</time>
      </trkpt>
      <trkpt lat="45.87791" lon="4.73545">
        <ele>189</ele>
        <time>2018-07-07T10:58:43Z</time>
      </trkpt>
      <trkpt lat="45.87795" lon="4.73552">
        <ele>189</ele>
        <time>2018-07-07T10:58:44Z</time>
      </trkpt>
      <trkpt lat="45.87798" lon="4.73558">
        <ele>189</ele>
        <time>2018-07-07T10:58:45Z</time>
      </trkpt>
      <trkpt lat="45.87801" lon="4.73565">
        <ele>189</ele>
        <time>2018-07-07T10:58:46Z</time>
      </trkpt>
      <trkpt lat="45.87804" lon="4.73573">
        <ele>189</ele>
        <time>2018-07-07T10:58:47Z</time>
      </trkpt>
      <trkpt lat="45.87808" lon="4.73579">
        <ele>189</ele>
        <time>2018-07-07T10:58:48Z</time>
      </trkpt>
      <trkpt lat="45.87811" lon="4.73586">
        <ele>190</ele>
        <time>2018-07-07T10:58:49Z</time>
      </trkpt>
      <trkpt lat="45.87815" lon="4.73591">
        <ele>190</ele>
        <time>2018-07-07T10:58:50Z</time>
      </trkpt>
      <trkpt lat="45.87817" lon="4.73597">
        <ele>190</ele>
        <time>2018-07-07T10:58:51Z</time>
      </trkpt>
      <trkpt lat="45.87818" lon="4.73604">
        <ele>190</ele>
        <time>2018-07-07T10:58:52Z</time>
      </trkpt>
      <trkpt lat="45.87821" lon="4.73608">
        <ele>190</ele>
        <time>2018-07-07T10:58:53Z</time>
      </trkpt>
      <trkpt lat="45.87825" lon="4.73615">
        <ele>190</ele>
        <time>2018-07-07T10:58:54Z</time>
      </trkpt>
      <trkpt lat="45.87828" lon="4.73621">
        <ele>190</ele>
        <time>2018-07-07T10:58:55Z</time>
      </trkpt>
      <trkpt lat="45.87831" lon="4.73627">
        <ele>190</ele>
        <time>2018-07-07T10:58:56Z</time>
      </trkpt>
      <trkpt lat="45.87835" lon="4.73632">
        <ele>191</ele>
        <time>2018-07-07T10:58:57Z</time>
      </trkpt>
      <trkpt lat="45.87838" lon="4.73636">
        <ele>191</ele>
        <time>2018-07-07T10:58:58Z</time>
      </trkpt>
      <trkpt lat="45.87846" lon="4.73638">
        <ele>191</ele>
        <time>2018-07-07T10:59:00Z</time>
      </trkpt>
      <trkpt lat="45.87861" lon="4.73623">
        <ele>190</ele>
        <time>2018-07-07T10:59:04Z</time>
      </trkpt>
      <trkpt lat="45.87868" lon="4.73625">
        <ele>190</ele>
        <time>2018-07-07T10:59:05Z</time>
      </trkpt>
      <trkpt lat="45.87875" lon="4.73622">
        <ele>190</ele>
        <time>2018-07-07T10:59:06Z</time>
      </trkpt>
      <trkpt lat="45.87879" lon="4.73618">
        <ele>190</ele>
        <time>2018-07-07T10:59:07Z</time>
      </trkpt>
      <trkpt lat="45.87884" lon="4.73618">
        <ele>190</ele>
        <time>2018-07-07T10:59:08Z</time>
      </trkpt>
      <trkpt lat="45.87889" lon="4.73622">
        <ele>190</ele>
        <time>2018-07-07T10:59:09Z</time>
      </trkpt>
      <trkpt lat="45.87893" lon="4.73624">
        <ele>190</ele>
        <time>2018-07-07T10:59:10Z</time>
      </trkpt>
      <trkpt lat="45.87899" lon="4.73623">
        <ele>190</ele>
        <time>2018-07-07T10:59:11Z</time>
      </trkpt>
      <trkpt lat="45.87905" lon="4.73625">
        <ele>190</ele>
        <time>2018-07-07T10:59:12Z</time>
      </trkpt>
      <trkpt lat="45.87909" lon="4.73626">
        <ele>190</ele>
        <time>2018-07-07T10:59:13Z</time>
      </trkpt>
      <trkpt lat="45.87915" lon="4.73629">
        <ele>190</ele>
        <time>2018-07-07T10:59:14Z</time>
      </trkpt>
      <trkpt lat="45.87919" lon="4.73631">
        <ele>189</ele>
        <time>2018-07-07T10:59:15Z</time>
      </trkpt>
      <trkpt lat="45.87925" lon="4.7363">
        <ele>189</ele>
        <time>2018-07-07T10:59:16Z</time>
      </trkpt>
      <trkpt lat="45.87931" lon="4.73631">
        <ele>189</ele>
        <time>2018-07-07T10:59:17Z</time>
      </trkpt>
      <trkpt lat="45.87936" lon="4.73633">
        <ele>189</ele>
        <time>2018-07-07T10:59:18Z</time>
      </trkpt>
      <trkpt lat="45.8794" lon="4.73636">
        <ele>190</ele>
        <time>2018-07-07T10:59:19Z</time>
      </trkpt>
      <trkpt lat="45.87945" lon="4.73637">
        <ele>190</ele>
        <time>2018-07-07T10:59:20Z</time>
      </trkpt>
      <trkpt lat="45.87949" lon="4.7364">
        <ele>190</ele>
        <time>2018-07-07T10:59:21Z</time>
      </trkpt>
      <trkpt lat="45.87955" lon="4.73641">
        <ele>190</ele>
        <time>2018-07-07T10:59:22Z</time>
      </trkpt>
      <trkpt lat="45.8796" lon="4.73641">
        <ele>189</ele>
        <time>2018-07-07T10:59:23Z</time>
      </trkpt>
      <trkpt lat="45.87965" lon="4.73642">
        <ele>189</ele>
        <time>2018-07-07T10:59:24Z</time>
      </trkpt>
      <trkpt lat="45.8797" lon="4.73642">
        <ele>189</ele>
        <time>2018-07-07T10:59:25Z</time>
      </trkpt>
      <trkpt lat="45.87974" lon="4.73645">
        <ele>189</ele>
        <time>2018-07-07T10:59:26Z</time>
      </trkpt>
      <trkpt lat="45.8798" lon="4.73645">
        <ele>189</ele>
        <time>2018-07-07T10:59:27Z</time>
      </trkpt>
      <trkpt lat="45.87985" lon="4.73647">
        <ele>190</ele>
        <time>2018-07-07T10:59:28Z</time>
      </trkpt>
      <trkpt lat="45.8799" lon="4.73651">
        <ele>190</ele>
        <time>2018-07-07T10:59:29Z</time>
      </trkpt>
      <trkpt lat="45.87994" lon="4.73652">
        <ele>190</ele>
        <time>2018-07-07T10:59:30Z</time>
      </trkpt>
      <trkpt lat="45.87999" lon="4.73654">
        <ele>190</ele>
        <time>2018-07-07T10:59:31Z</time>
      </trkpt>
      <trkpt lat="45.88004" lon="4.73655">
        <ele>190</ele>
        <time>2018-07-07T10:59:32Z</time>
      </trkpt>
      <trkpt lat="45.88009" lon="4.73657">
        <ele>189</ele>
        <time>2018-07-07T10:59:33Z</time>
      </trkpt>
      <trkpt lat="45.88014" lon="4.73658">
        <ele>189</ele>
        <time>2018-07-07T10:59:34Z</time>
      </trkpt>
      <trkpt lat="45.88019" lon="4.73657">
        <ele>189</ele>
        <time>2018-07-07T10:59:35Z</time>
      </trkpt>
      <trkpt lat="45.88024" lon="4.73656">
        <ele>189</ele>
        <time>2018-07-07T10:59:36Z</time>
      </trkpt>
      <trkpt lat="45.8803" lon="4.73655">
        <ele>189</ele>
        <time>2018-07-07T10:59:37Z</time>
      </trkpt>
      <trkpt lat="45.88035" lon="4.73653">
        <ele>189</ele>
        <time>2018-07-07T10:59:38Z</time>
      </trkpt>
      <trkpt lat="45.8804" lon="4.73646">
        <ele>189</ele>
        <time>2018-07-07T10:59:39Z</time>
      </trkpt>
      <trkpt lat="45.88045" lon="4.73643">
        <ele>189</ele>
        <time>2018-07-07T10:59:40Z</time>
      </trkpt>
      <trkpt lat="45.88052" lon="4.7364">
        <ele>189</ele>
        <time>2018-07-07T10:59:42Z</time>
      </trkpt>
      <trkpt lat="45.88056" lon="4.73637">
        <ele>189</ele>
        <time>2018-07-07T10:59:43Z</time>
      </trkpt>
      <trkpt lat="45.88065" lon="4.73633">
        <ele>189</ele>
        <time>2018-07-07T10:59:45Z</time>
      </trkpt>
      <trkpt lat="45.88069" lon="4.7363">
        <ele>189</ele>
        <time>2018-07-07T10:59:46Z</time>
      </trkpt>
      <trkpt lat="45.88072" lon="4.73628">
        <ele>189</ele>
        <time>2018-07-07T10:59:47Z</time>
      </trkpt>
      <trkpt lat="45.88078" lon="4.73625">
        <ele>189</ele>
        <time>2018-07-07T10:59:48Z</time>
      </trkpt>
      <trkpt lat="45.88083" lon="4.73618">
        <ele>188</ele>
        <time>2018-07-07T10:59:49Z</time>
      </trkpt>
      <trkpt lat="45.88088" lon="4.73614">
        <ele>188</ele>
        <time>2018-07-07T10:59:50Z</time>
      </trkpt>
      <trkpt lat="45.88095" lon="4.73609">
        <ele>188</ele>
        <time>2018-07-07T10:59:51Z</time>
      </trkpt>
      <trkpt lat="45.881" lon="4.73606">
        <ele>188</ele>
        <time>2018-07-07T10:59:52Z</time>
      </trkpt>
      <trkpt lat="45.88104" lon="4.73603">
        <ele>188</ele>
        <time>2018-07-07T10:59:53Z</time>
      </trkpt>
      <trkpt lat="45.88111" lon="4.73598">
        <ele>187</ele>
        <time>2018-07-07T10:59:54Z</time>
      </trkpt>
      <trkpt lat="45.88116" lon="4.73596">
        <ele>187</ele>
        <time>2018-07-07T10:59:55Z</time>
      </trkpt>
      <trkpt lat="45.88119" lon="4.73595">
        <ele>187</ele>
        <time>2018-07-07T10:59:56Z</time>
      </trkpt>
      <trkpt lat="45.88124" lon="4.73592">
        <ele>187</ele>
        <time>2018-07-07T10:59:57Z</time>
      </trkpt>
      <trkpt lat="45.88129" lon="4.73589">
        <ele>187</ele>
        <time>2018-07-07T10:59:58Z</time>
      </trkpt>
      <trkpt lat="45.88135" lon="4.73585">
        <ele>187</ele>
        <time>2018-07-07T10:59:59Z</time>
      </trkpt>
      <trkpt lat="45.88141" lon="4.73582">
        <ele>186</ele>
        <time>2018-07-07T11:00:00Z</time>
      </trkpt>
      <trkpt lat="45.88143" lon="4.73581">
        <ele>186</ele>
        <time>2018-07-07T11:00:01Z</time>
      </trkpt>
      <trkpt lat="45.8815" lon="4.73578">
        <ele>186</ele>
        <time>2018-07-07T11:00:02Z</time>
      </trkpt>
      <trkpt lat="45.88156" lon="4.73575">
        <ele>186</ele>
        <time>2018-07-07T11:00:03Z</time>
      </trkpt>
      <trkpt lat="45.88161" lon="4.73571">
        <ele>186</ele>
        <time>2018-07-07T11:00:04Z</time>
      </trkpt>
      <trkpt lat="45.88166" lon="4.73568">
        <ele>186</ele>
        <time>2018-07-07T11:00:05Z</time>
      </trkpt>
      <trkpt lat="45.88171" lon="4.73562">
        <ele>186</ele>
        <time>2018-07-07T11:00:06Z</time>
      </trkpt>
      <trkpt lat="45.88179" lon="4.73558">
        <ele>186</ele>
        <time>2018-07-07T11:00:08Z</time>
      </trkpt>
      <trkpt lat="45.88185" lon="4.73555">
        <ele>186</ele>
        <time>2018-07-07T11:00:09Z</time>
      </trkpt>
      <trkpt lat="45.88191" lon="4.73552">
        <ele>186</ele>
        <time>2018-07-07T11:00:11Z</time>
      </trkpt>
      <trkpt lat="45.88196" lon="4.7355">
        <ele>186</ele>
        <time>2018-07-07T11:00:12Z</time>
      </trkpt>
      <trkpt lat="45.88199" lon="4.7355">
        <ele>186</ele>
        <time>2018-07-07T11:00:13Z</time>
      </trkpt>
      <trkpt lat="45.88205" lon="4.73545">
        <ele>186</ele>
        <time>2018-07-07T11:00:14Z</time>
      </trkpt>
      <trkpt lat="45.88209" lon="4.73544">
        <ele>185</ele>
        <time>2018-07-07T11:00:15Z</time>
      </trkpt>
      <trkpt lat="45.88215" lon="4.7354">
        <ele>185</ele>
        <time>2018-07-07T11:00:16Z</time>
      </trkpt>
      <trkpt lat="45.88222" lon="4.73533">
        <ele>185</ele>
        <time>2018-07-07T11:00:18Z</time>
      </trkpt>
      <trkpt lat="45.88227" lon="4.7353">
        <ele>185</ele>
        <time>2018-07-07T11:00:19Z</time>
      </trkpt>
      <trkpt lat="45.8823" lon="4.73529">
        <ele>185</ele>
        <time>2018-07-07T11:00:20Z</time>
      </trkpt>
      <trkpt lat="45.88236" lon="4.73525">
        <ele>185</ele>
        <time>2018-07-07T11:00:21Z</time>
      </trkpt>
      <trkpt lat="45.88241" lon="4.73522">
        <ele>185</ele>
        <time>2018-07-07T11:00:22Z</time>
      </trkpt>
      <trkpt lat="45.88244" lon="4.73517">
        <ele>185</ele>
        <time>2018-07-07T11:00:23Z</time>
      </trkpt>
      <trkpt lat="45.88249" lon="4.73507">
        <ele>185</ele>
        <time>2018-07-07T11:00:24Z</time>
      </trkpt>
      <trkpt lat="45.88255" lon="4.73503">
        <ele>185</ele>
        <time>2018-07-07T11:00:25Z</time>
      </trkpt>
      <trkpt lat="45.88259" lon="4.73498">
        <ele>185</ele>
        <time>2018-07-07T11:00:26Z</time>
      </trkpt>
      <trkpt lat="45.88265" lon="4.73497">
        <ele>185</ele>
        <time>2018-07-07T11:00:27Z</time>
      </trkpt>
      <trkpt lat="45.88271" lon="4.73493">
        <ele>184</ele>
        <time>2018-07-07T11:00:28Z</time>
      </trkpt>
      <trkpt lat="45.88277" lon="4.73489">
        <ele>184</ele>
        <time>2018-07-07T11:00:29Z</time>
      </trkpt>
      <trkpt lat="45.88281" lon="4.73488">
        <ele>184</ele>
        <time>2018-07-07T11:00:30Z</time>
      </trkpt>
      <trkpt lat="45.88287" lon="4.73487">
        <ele>184</ele>
        <time>2018-07-07T11:00:31Z</time>
      </trkpt>
      <trkpt lat="45.88294" lon="4.73482">
        <ele>184</ele>
        <time>2018-07-07T11:00:32Z</time>
      </trkpt>
      <trkpt lat="45.883" lon="4.73478">
        <ele>184</ele>
        <time>2018-07-07T11:00:33Z</time>
      </trkpt>
      <trkpt lat="45.88305" lon="4.73475">
        <ele>184</ele>
        <time>2018-07-07T11:00:34Z</time>
      </trkpt>
      <trkpt lat="45.8831" lon="4.73469">
        <ele>184</ele>
        <time>2018-07-07T11:00:35Z</time>
      </trkpt>
      <trkpt lat="45.88316" lon="4.73466">
        <ele>184</ele>
        <time>2018-07-07T11:00:36Z</time>
      </trkpt>
      <trkpt lat="45.88322" lon="4.73467">
        <ele>184</ele>
        <time>2018-07-07T11:00:37Z</time>
      </trkpt>
      <trkpt lat="45.88327" lon="4.73465">
        <ele>184</ele>
        <time>2018-07-07T11:00:38Z</time>
      </trkpt>
      <trkpt lat="45.88333" lon="4.73462">
        <ele>184</ele>
        <time>2018-07-07T11:00:39Z</time>
      </trkpt>
      <trkpt lat="45.88339" lon="4.7346">
        <ele>184</ele>
        <time>2018-07-07T11:00:40Z</time>
      </trkpt>
      <trkpt lat="45.88344" lon="4.73462">
        <ele>184</ele>
        <time>2018-07-07T11:00:41Z</time>
      </trkpt>
      <trkpt lat="45.88349" lon="4.73461">
        <ele>184</ele>
        <time>2018-07-07T11:00:42Z</time>
      </trkpt>
      <trkpt lat="45.88355" lon="4.73465">
        <ele>184</ele>
        <time>2018-07-07T11:00:43Z</time>
      </trkpt>
      <trkpt lat="45.88362" lon="4.73462">
        <ele>184</ele>
        <time>2018-07-07T11:00:44Z</time>
      </trkpt>
      <trkpt lat="45.88368" lon="4.7346">
        <ele>184</ele>
        <time>2018-07-07T11:00:45Z</time>
      </trkpt>
      <trkpt lat="45.88372" lon="4.73457">
        <ele>184</ele>
        <time>2018-07-07T11:00:46Z</time>
      </trkpt>
      <trkpt lat="45.88377" lon="4.73456">
        <ele>184</ele>
        <time>2018-07-07T11:00:47Z</time>
      </trkpt>
      <trkpt lat="45.88384" lon="4.73452">
        <ele>184</ele>
        <time>2018-07-07T11:00:48Z</time>
      </trkpt>
      <trkpt lat="45.8839" lon="4.73451">
        <ele>184</ele>
        <time>2018-07-07T11:00:49Z</time>
      </trkpt>
      <trkpt lat="45.88395" lon="4.73451">
        <ele>184</ele>
        <time>2018-07-07T11:00:50Z</time>
      </trkpt>
      <trkpt lat="45.88403" lon="4.73446">
        <ele>184</ele>
        <time>2018-07-07T11:00:51Z</time>
      </trkpt>
      <trkpt lat="45.88411" lon="4.73442">
        <ele>184</ele>
        <time>2018-07-07T11:00:52Z</time>
      </trkpt>
      <trkpt lat="45.88415" lon="4.73442">
        <ele>184</ele>
        <time>2018-07-07T11:00:53Z</time>
      </trkpt>
      <trkpt lat="45.88421" lon="4.73441">
        <ele>184</ele>
        <time>2018-07-07T11:00:54Z</time>
      </trkpt>
      <trkpt lat="45.88426" lon="4.73439">
        <ele>184</ele>
        <time>2018-07-07T11:00:55Z</time>
      </trkpt>
      <trkpt lat="45.88434" lon="4.73438">
        <ele>184</ele>
        <time>2018-07-07T11:00:57Z</time>
      </trkpt>
      <trkpt lat="45.88442" lon="4.73433">
        <ele>184</ele>
        <time>2018-07-07T11:00:58Z</time>
      </trkpt>
      <trkpt lat="45.88447" lon="4.73431">
        <ele>184</ele>
        <time>2018-07-07T11:00:59Z</time>
      </trkpt>
      <trkpt lat="45.88453" lon="4.73429">
        <ele>184</ele>
        <time>2018-07-07T11:01:00Z</time>
      </trkpt>
      <trkpt lat="45.88458" lon="4.73426">
        <ele>184</ele>
        <time>2018-07-07T11:01:01Z</time>
      </trkpt>
      <trkpt lat="45.88463" lon="4.73426">
        <ele>184</ele>
        <time>2018-07-07T11:01:02Z</time>
      </trkpt>
      <trkpt lat="45.88468" lon="4.73425">
        <ele>184</ele>
        <time>2018-07-07T11:01:03Z</time>
      </trkpt>
      <trkpt lat="45.88474" lon="4.73426">
        <ele>184</ele>
        <time>2018-07-07T11:01:04Z</time>
      </trkpt>
      <trkpt lat="45.8848" lon="4.73425">
        <ele>184</ele>
        <time>2018-07-07T11:01:05Z</time>
      </trkpt>
      <trkpt lat="45.88484" lon="4.73425">
        <ele>184</ele>
        <time>2018-07-07T11:01:06Z</time>
      </trkpt>
      <trkpt lat="45.88491" lon="4.73423">
        <ele>184</ele>
        <time>2018-07-07T11:01:07Z</time>
      </trkpt>
      <trkpt lat="45.88497" lon="4.73422">
        <ele>184</ele>
        <time>2018-07-07T11:01:08Z</time>
      </trkpt>
      <trkpt lat="45.88502" lon="4.73421">
        <ele>184</ele>
        <time>2018-07-07T11:01:09Z</time>
      </trkpt>
      <trkpt lat="45.88508" lon="4.73419">
        <ele>184</ele>
        <time>2018-07-07T11:01:10Z</time>
      </trkpt>
      <trkpt lat="45.88515" lon="4.73416">
        <ele>184</ele>
        <time>2018-07-07T11:01:11Z</time>
      </trkpt>
      <trkpt lat="45.88521" lon="4.73414">
        <ele>184</ele>
        <time>2018-07-07T11:01:12Z</time>
      </trkpt>
      <trkpt lat="45.88527" lon="4.73412">
        <ele>183</ele>
        <time>2018-07-07T11:01:13Z</time>
      </trkpt>
      <trkpt lat="45.88531" lon="4.73412">
        <ele>183</ele>
        <time>2018-07-07T11:01:14Z</time>
      </trkpt>
      <trkpt lat="45.8854" lon="4.73411">
        <ele>183</ele>
        <time>2018-07-07T11:01:16Z</time>
      </trkpt>
      <trkpt lat="45.88545" lon="4.7341">
        <ele>183</ele>
        <time>2018-07-07T11:01:17Z</time>
      </trkpt>
      <trkpt lat="45.88552" lon="4.73405">
        <ele>183</ele>
        <time>2018-07-07T11:01:18Z</time>
      </trkpt>
      <trkpt lat="45.88558" lon="4.73402">
        <ele>183</ele>
        <time>2018-07-07T11:01:19Z</time>
      </trkpt>
      <trkpt lat="45.88564" lon="4.734">
        <ele>183</ele>
        <time>2018-07-07T11:01:20Z</time>
      </trkpt>
      <trkpt lat="45.88569" lon="4.73397">
        <ele>183</ele>
        <time>2018-07-07T11:01:21Z</time>
      </trkpt>
      <trkpt lat="45.88578" lon="4.7339">
        <ele>183</ele>
        <time>2018-07-07T11:01:22Z</time>
      </trkpt>
      <trkpt lat="45.88584" lon="4.73391">
        <ele>183</ele>
        <time>2018-07-07T11:01:24Z</time>
      </trkpt>
      <trkpt lat="45.88589" lon="4.7339">
        <ele>183</ele>
        <time>2018-07-07T11:01:25Z</time>
      </trkpt>
      <trkpt lat="45.88595" lon="4.73393">
        <ele>183</ele>
        <time>2018-07-07T11:01:27Z</time>
      </trkpt>
      <trkpt lat="45.886" lon="4.73392">
        <ele>183</ele>
        <time>2018-07-07T11:01:28Z</time>
      </trkpt>
      <trkpt lat="45.88605" lon="4.7339">
        <ele>183</ele>
        <time>2018-07-07T11:01:29Z</time>
      </trkpt>
      <trkpt lat="45.88611" lon="4.73387">
        <ele>183</ele>
        <time>2018-07-07T11:01:30Z</time>
      </trkpt>
      <trkpt lat="45.88616" lon="4.73388">
        <ele>183</ele>
        <time>2018-07-07T11:01:31Z</time>
      </trkpt>
      <trkpt lat="45.8862" lon="4.73389">
        <ele>183</ele>
        <time>2018-07-07T11:01:32Z</time>
      </trkpt>
      <trkpt lat="45.88625" lon="4.7339">
        <ele>183</ele>
        <time>2018-07-07T11:01:33Z</time>
      </trkpt>
      <trkpt lat="45.8863" lon="4.73393">
        <ele>183</ele>
        <time>2018-07-07T11:01:34Z</time>
      </trkpt>
      <trkpt lat="45.88632" lon="4.73399">
        <ele>183</ele>
        <time>2018-07-07T11:01:35Z</time>
      </trkpt>
      <trkpt lat="45.88635" lon="4.73404">
        <ele>184</ele>
        <time>2018-07-07T11:01:36Z</time>
      </trkpt>
      <trkpt lat="45.88636" lon="4.73411">
        <ele>184</ele>
        <time>2018-07-07T11:01:37Z</time>
      </trkpt>
      <trkpt lat="45.88636" lon="4.73418">
        <ele>184</ele>
        <time>2018-07-07T11:01:38Z</time>
      </trkpt>
      <trkpt lat="45.88636" lon="4.73426">
        <ele>184</ele>
        <time>2018-07-07T11:01:39Z</time>
      </trkpt>
      <trkpt lat="45.88635" lon="4.73433">
        <ele>184</ele>
        <time>2018-07-07T11:01:40Z</time>
      </trkpt>
      <trkpt lat="45.88635" lon="4.7344">
        <ele>184</ele>
        <time>2018-07-07T11:01:41Z</time>
      </trkpt>
      <trkpt lat="45.88634" lon="4.73446">
        <ele>184</ele>
        <time>2018-07-07T11:01:42Z</time>
      </trkpt>
      <trkpt lat="45.88633" lon="4.73454">
        <ele>184</ele>
        <time>2018-07-07T11:01:43Z</time>
      </trkpt>
      <trkpt lat="45.88632" lon="4.73459">
        <ele>184</ele>
        <time>2018-07-07T11:01:44Z</time>
      </trkpt>
      <trkpt lat="45.88635" lon="4.73471">
        <ele>184</ele>
        <time>2018-07-07T11:01:46Z</time>
      </trkpt>
      <trkpt lat="45.88636" lon="4.73478">
        <ele>184</ele>
        <time>2018-07-07T11:01:47Z</time>
      </trkpt>
      <trkpt lat="45.88636" lon="4.73484">
        <ele>184</ele>
        <time>2018-07-07T11:01:48Z</time>
      </trkpt>
      <trkpt lat="45.88639" lon="4.73492">
        <ele>184</ele>
        <time>2018-07-07T11:01:49Z</time>
      </trkpt>
      <trkpt lat="45.88642" lon="4.73499">
        <ele>184</ele>
        <time>2018-07-07T11:01:50Z</time>
      </trkpt>
      <trkpt lat="45.88644" lon="4.73505">
        <ele>185</ele>
        <time>2018-07-07T11:01:51Z</time>
      </trkpt>
      <trkpt lat="45.88645" lon="4.73512">
        <ele>185</ele>
        <time>2018-07-07T11:01:52Z</time>
      </trkpt>
      <trkpt lat="45.88647" lon="4.73518">
        <ele>185</ele>
        <time>2018-07-07T11:01:53Z</time>
      </trkpt>
      <trkpt lat="45.88646" lon="4.7353">
        <ele>185</ele>
        <time>2018-07-07T11:01:55Z</time>
      </trkpt>
      <trkpt lat="45.88646" lon="4.73536">
        <ele>185</ele>
        <time>2018-07-07T11:01:56Z</time>
      </trkpt>
      <trkpt lat="45.88646" lon="4.73542">
        <ele>185</ele>
        <time>2018-07-07T11:01:57Z</time>
      </trkpt>
      <trkpt lat="45.88646" lon="4.7355">
        <ele>185</ele>
        <time>2018-07-07T11:01:58Z</time>
      </trkpt>
      <trkpt lat="45.88646" lon="4.73557">
        <ele>185</ele>
        <time>2018-07-07T11:01:59Z</time>
      </trkpt>
      <trkpt lat="45.88646" lon="4.73564">
        <ele>185</ele>
        <time>2018-07-07T11:02:00Z</time>
      </trkpt>
      <trkpt lat="45.88646" lon="4.73572">
        <ele>185</ele>
        <time>2018-07-07T11:02:01Z</time>
      </trkpt>
      <trkpt lat="45.88646" lon="4.73579">
        <ele>185</ele>
        <time>2018-07-07T11:02:02Z</time>
      </trkpt>
      <trkpt lat="45.88646" lon="4.73591">
        <ele>185</ele>
        <time>2018-07-07T11:02:04Z</time>
      </trkpt>
      <trkpt lat="45.88647" lon="4.73598">
        <ele>185</ele>
        <time>2018-07-07T11:02:05Z</time>
      </trkpt>
      <trkpt lat="45.88647" lon="4.73605">
        <ele>186</ele>
        <time>2018-07-07T11:02:06Z</time>
      </trkpt>
      <trkpt lat="45.88647" lon="4.73611">
        <ele>186</ele>
        <time>2018-07-07T11:02:07Z</time>
      </trkpt>
      <trkpt lat="45.88646" lon="4.73623">
        <ele>186</ele>
        <time>2018-07-07T11:02:09Z</time>
      </trkpt>
      <trkpt lat="45.88646" lon="4.7363">
        <ele>186</ele>
        <time>2018-07-07T11:02:10Z</time>
      </trkpt>
      <trkpt lat="45.88645" lon="4.73637">
        <ele>186</ele>
        <time>2018-07-07T11:02:11Z</time>
      </trkpt>
      <trkpt lat="45.88645" lon="4.73643">
        <ele>186</ele>
        <time>2018-07-07T11:02:12Z</time>
      </trkpt>
      <trkpt lat="45.88644" lon="4.73652">
        <ele>186</ele>
        <time>2018-07-07T11:02:13Z</time>
      </trkpt>
      <trkpt lat="45.88643" lon="4.73658">
        <ele>186</ele>
        <time>2018-07-07T11:02:14Z</time>
      </trkpt>
      <trkpt lat="45.88643" lon="4.73665">
        <ele>186</ele>
        <time>2018-07-07T11:02:15Z</time>
      </trkpt>
      <trkpt lat="45.88643" lon="4.73672">
        <ele>186</ele>
        <time>2018-07-07T11:02:16Z</time>
      </trkpt>
      <trkpt lat="45.88642" lon="4.73678">
        <ele>186</ele>
        <time>2018-07-07T11:02:17Z</time>
      </trkpt>
      <trkpt lat="45.88642" lon="4.73686">
        <ele>186</ele>
        <time>2018-07-07T11:02:18Z</time>
      </trkpt>
      <trkpt lat="45.88643" lon="4.73695">
        <ele>186</ele>
        <time>2018-07-07T11:02:19Z</time>
      </trkpt>
      <trkpt lat="45.88643" lon="4.73702">
        <ele>186</ele>
        <time>2018-07-07T11:02:20Z</time>
      </trkpt>
      <trkpt lat="45.88643" lon="4.73709">
        <ele>186</ele>
        <time>2018-07-07T11:02:21Z</time>
      </trkpt>
      <trkpt lat="45.88642" lon="4.73716">
        <ele>186</ele>
        <time>2018-07-07T11:02:22Z</time>
      </trkpt>
      <trkpt lat="45.88642" lon="4.73724">
        <ele>186</ele>
        <time>2018-07-07T11:02:23Z</time>
      </trkpt>
      <trkpt lat="45.88642" lon="4.73733">
        <ele>186</ele>
        <time>2018-07-07T11:02:24Z</time>
      </trkpt>
      <trkpt lat="45.88642" lon="4.73743">
        <ele>186</ele>
        <time>2018-07-07T11:02:25Z</time>
      </trkpt>
      <trkpt lat="45.88642" lon="4.73752">
        <ele>187</ele>
        <time>2018-07-07T11:02:26Z</time>
      </trkpt>
      <trkpt lat="45.88641" lon="4.73762">
        <ele>187</ele>
        <time>2018-07-07T11:02:27Z</time>
      </trkpt>
      <trkpt lat="45.88641" lon="4.73772">
        <ele>187</ele>
        <time>2018-07-07T11:02:28Z</time>
      </trkpt>
      <trkpt lat="45.88641" lon="4.73782">
        <ele>187</ele>
        <time>2018-07-07T11:02:29Z</time>
      </trkpt>
      <trkpt lat="45.88641" lon="4.73793">
        <ele>187</ele>
        <time>2018-07-07T11:02:30Z</time>
      </trkpt>
      <trkpt lat="45.88642" lon="4.73802">
        <ele>187</ele>
        <time>2018-07-07T11:02:31Z</time>
      </trkpt>
      <trkpt lat="45.88642" lon="4.73812">
        <ele>187</ele>
        <time>2018-07-07T11:02:32Z</time>
      </trkpt>
      <trkpt lat="45.88643" lon="4.73823">
        <ele>187</ele>
        <time>2018-07-07T11:02:33Z</time>
      </trkpt>
      <trkpt lat="45.88642" lon="4.73835">
        <ele>187</ele>
        <time>2018-07-07T11:02:34Z</time>
      </trkpt>
      <trkpt lat="45.88642" lon="4.73845">
        <ele>187</ele>
        <time>2018-07-07T11:02:35Z</time>
      </trkpt>
      <trkpt lat="45.88642" lon="4.73855">
        <ele>187</ele>
        <time>2018-07-07T11:02:36Z</time>
      </trkpt>
      <trkpt lat="45.88641" lon="4.73866">
        <ele>187</ele>
        <time>2018-07-07T11:02:37Z</time>
      </trkpt>
      <trkpt lat="45.8864" lon="4.73877">
        <ele>187</ele>
        <time>2018-07-07T11:02:38Z</time>
      </trkpt>
      <trkpt lat="45.88641" lon="4.73889">
        <ele>187</ele>
        <time>2018-07-07T11:02:39Z</time>
      </trkpt>
      <trkpt lat="45.88641" lon="4.73899">
        <ele>187</ele>
        <time>2018-07-07T11:02:40Z</time>
      </trkpt>
      <trkpt lat="45.8864" lon="4.73907">
        <ele>187</ele>
        <time>2018-07-07T11:02:41Z</time>
      </trkpt>
      <trkpt lat="45.88641" lon="4.73917">
        <ele>187</ele>
        <time>2018-07-07T11:02:42Z</time>
      </trkpt>
      <trkpt lat="45.88642" lon="4.73925">
        <ele>187</ele>
        <time>2018-07-07T11:02:43Z</time>
      </trkpt>
      <trkpt lat="45.88642" lon="4.73934">
        <ele>187</ele>
        <time>2018-07-07T11:02:44Z</time>
      </trkpt>
      <trkpt lat="45.88641" lon="4.73944">
        <ele>187</ele>
        <time>2018-07-07T11:02:45Z</time>
      </trkpt>
      <trkpt lat="45.88642" lon="4.73952">
        <ele>187</ele>
        <time>2018-07-07T11:02:46Z</time>
      </trkpt>
      <trkpt lat="45.88642" lon="4.7396">
        <ele>187</ele>
        <time>2018-07-07T11:02:47Z</time>
      </trkpt>
      <trkpt lat="45.88644" lon="4.73969">
        <ele>187</ele>
        <time>2018-07-07T11:02:48Z</time>
      </trkpt>
      <trkpt lat="45.88645" lon="4.73977">
        <ele>187</ele>
        <time>2018-07-07T11:02:49Z</time>
      </trkpt>
      <trkpt lat="45.88646" lon="4.73984">
        <ele>187</ele>
        <time>2018-07-07T11:02:50Z</time>
      </trkpt>
      <trkpt lat="45.88646" lon="4.73992">
        <ele>186</ele>
        <time>2018-07-07T11:02:51Z</time>
      </trkpt>
      <trkpt lat="45.88648" lon="4.74">
        <ele>186</ele>
        <time>2018-07-07T11:02:52Z</time>
      </trkpt>
      <trkpt lat="45.8865" lon="4.74008">
        <ele>187</ele>
        <time>2018-07-07T11:02:53Z</time>
      </trkpt>
      <trkpt lat="45.88651" lon="4.74015">
        <ele>187</ele>
        <time>2018-07-07T11:02:54Z</time>
      </trkpt>
      <trkpt lat="45.88653" lon="4.74022">
        <ele>187</ele>
        <time>2018-07-07T11:02:55Z</time>
      </trkpt>
      <trkpt lat="45.88654" lon="4.7403">
        <ele>187</ele>
        <time>2018-07-07T11:02:56Z</time>
      </trkpt>
      <trkpt lat="45.88655" lon="4.74038">
        <ele>187</ele>
        <time>2018-07-07T11:02:57Z</time>
      </trkpt>
      <trkpt lat="45.88656" lon="4.74046">
        <ele>187</ele>
        <time>2018-07-07T11:02:58Z</time>
      </trkpt>
      <trkpt lat="45.88658" lon="4.74052">
        <ele>187</ele>
        <time>2018-07-07T11:02:59Z</time>
      </trkpt>
      <trkpt lat="45.8866" lon="4.74058">
        <ele>187</ele>
        <time>2018-07-07T11:03:00Z</time>
      </trkpt>
      <trkpt lat="45.88661" lon="4.74065">
        <ele>188</ele>
        <time>2018-07-07T11:03:01Z</time>
      </trkpt>
      <trkpt lat="45.88663" lon="4.74072">
        <ele>188</ele>
        <time>2018-07-07T11:03:02Z</time>
      </trkpt>
      <trkpt lat="45.88666" lon="4.74079">
        <ele>188</ele>
        <time>2018-07-07T11:03:03Z</time>
      </trkpt>
      <trkpt lat="45.88667" lon="4.74085">
        <ele>188</ele>
        <time>2018-07-07T11:03:04Z</time>
      </trkpt>
      <trkpt lat="45.88669" lon="4.74093">
        <ele>188</ele>
        <time>2018-07-07T11:03:05Z</time>
      </trkpt>
      <trkpt lat="45.88673" lon="4.74098">
        <ele>188</ele>
        <time>2018-07-07T11:03:06Z</time>
      </trkpt>
      <trkpt lat="45.88677" lon="4.74104">
        <ele>188</ele>
        <time>2018-07-07T11:03:07Z</time>
      </trkpt>
      <trkpt lat="45.88683" lon="4.74106">
        <ele>188</ele>
        <time>2018-07-07T11:03:08Z</time>
      </trkpt>
      <trkpt lat="45.88691" lon="4.74107">
        <ele>188</ele>
        <time>2018-07-07T11:03:09Z</time>
      </trkpt>
      <trkpt lat="45.88694" lon="4.74108">
        <ele>188</ele>
        <time>2018-07-07T11:03:10Z</time>
      </trkpt>
      <trkpt lat="45.88699" lon="4.74109">
        <ele>188</ele>
        <time>2018-07-07T11:03:11Z</time>
      </trkpt>
      <trkpt lat="45.88704" lon="4.74113">
        <ele>188</ele>
        <time>2018-07-07T11:03:12Z</time>
      </trkpt>
      <trkpt lat="45.88708" lon="4.74115">
        <ele>188</ele>
        <time>2018-07-07T11:03:13Z</time>
      </trkpt>
      <trkpt lat="45.88711" lon="4.74122">
        <ele>188</ele>
        <time>2018-07-07T11:03:14Z</time>
      </trkpt>
      <trkpt lat="45.88714" lon="4.74126">
        <ele>188</ele>
        <time>2018-07-07T11:03:15Z</time>
      </trkpt>
      <trkpt lat="45.88718" lon="4.7413">
        <ele>188</ele>
        <time>2018-07-07T11:03:16Z</time>
      </trkpt>
      <trkpt lat="45.88722" lon="4.74134">
        <ele>188</ele>
        <time>2018-07-07T11:03:17Z</time>
      </trkpt>
      <trkpt lat="45.88726" lon="4.74136">
        <ele>188</ele>
        <time>2018-07-07T11:03:18Z</time>
      </trkpt>
      <trkpt lat="45.8873" lon="4.74141">
        <ele>188</ele>
        <time>2018-07-07T11:03:19Z</time>
      </trkpt>
      <trkpt lat="45.88734" lon="4.74146">
        <ele>188</ele>
        <time>2018-07-07T11:03:20Z</time>
      </trkpt>
      <trkpt lat="45.88739" lon="4.74149">
        <ele>188</ele>
        <time>2018-07-07T11:03:21Z</time>
      </trkpt>
      <trkpt lat="45.88745" lon="4.74153">
        <ele>188</ele>
        <time>2018-07-07T11:03:22Z</time>
      </trkpt>
      <trkpt lat="45.88749" lon="4.74157">
        <ele>188</ele>
        <time>2018-07-07T11:03:23Z</time>
      </trkpt>
      <trkpt lat="45.88754" lon="4.7416">
        <ele>188</ele>
        <time>2018-07-07T11:03:24Z</time>
      </trkpt>
      <trkpt lat="45.88758" lon="4.74161">
        <ele>188</ele>
        <time>2018-07-07T11:03:25Z</time>
      </trkpt>
      <trkpt lat="45.88763" lon="4.74166">
        <ele>187</ele>
        <time>2018-07-07T11:03:26Z</time>
      </trkpt>
      <trkpt lat="45.88768" lon="4.74171">
        <ele>188</ele>
        <time>2018-07-07T11:03:27Z</time>
      </trkpt>
      <trkpt lat="45.88772" lon="4.74174">
        <ele>188</ele>
        <time>2018-07-07T11:03:28Z</time>
      </trkpt>
      <trkpt lat="45.88779" lon="4.74179">
        <ele>188</ele>
        <time>2018-07-07T11:03:30Z</time>
      </trkpt>
      <trkpt lat="45.88783" lon="4.74182">
        <ele>188</ele>
        <time>2018-07-07T11:03:31Z</time>
      </trkpt>
      <trkpt lat="45.88787" lon="4.74186">
        <ele>188</ele>
        <time>2018-07-07T11:03:32Z</time>
      </trkpt>
      <trkpt lat="45.88791" lon="4.74188">
        <ele>188</ele>
        <time>2018-07-07T11:03:33Z</time>
      </trkpt>
      <trkpt lat="45.88796" lon="4.7419">
        <ele>188</ele>
        <time>2018-07-07T11:03:34Z</time>
      </trkpt>
      <trkpt lat="45.88802" lon="4.74192">
        <ele>187</ele>
        <time>2018-07-07T11:03:35Z</time>
      </trkpt>
      <trkpt lat="45.88805" lon="4.74197">
        <ele>188</ele>
        <time>2018-07-07T11:03:36Z</time>
      </trkpt>
      <trkpt lat="45.88811" lon="4.74198">
        <ele>187</ele>
        <time>2018-07-07T11:03:37Z</time>
      </trkpt>
      <trkpt lat="45.88816" lon="4.742">
        <ele>187</ele>
        <time>2018-07-07T11:03:38Z</time>
      </trkpt>
      <trkpt lat="45.88822" lon="4.74204">
        <ele>187</ele>
        <time>2018-07-07T11:03:39Z</time>
      </trkpt>
      <trkpt lat="45.88827" lon="4.74208">
        <ele>187</ele>
        <time>2018-07-07T11:03:40Z</time>
      </trkpt>
      <trkpt lat="45.88832" lon="4.7421">
        <ele>187</ele>
        <time>2018-07-07T11:03:41Z</time>
      </trkpt>
      <trkpt lat="45.88837" lon="4.74211">
        <ele>187</ele>
        <time>2018-07-07T11:03:42Z</time>
      </trkpt>
      <trkpt lat="45.88842" lon="4.74213">
        <ele>187</ele>
        <time>2018-07-07T11:03:43Z</time>
      </trkpt>
      <trkpt lat="45.8885" lon="4.74218">
        <ele>187</ele>
        <time>2018-07-07T11:03:45Z</time>
      </trkpt>
      <trkpt lat="45.88854" lon="4.7422">
        <ele>187</ele>
        <time>2018-07-07T11:03:46Z</time>
      </trkpt>
      <trkpt lat="45.88859" lon="4.74222">
        <ele>187</ele>
        <time>2018-07-07T11:03:47Z</time>
      </trkpt>
      <trkpt lat="45.88863" lon="4.74224">
        <ele>187</ele>
        <time>2018-07-07T11:03:48Z</time>
      </trkpt>
      <trkpt lat="45.88867" lon="4.74228">
        <ele>187</ele>
        <time>2018-07-07T11:03:49Z</time>
      </trkpt>
      <trkpt lat="45.88871" lon="4.74232">
        <ele>187</ele>
        <time>2018-07-07T11:03:50Z</time>
      </trkpt>
      <trkpt lat="45.88875" lon="4.74235">
        <ele>187</ele>
        <time>2018-07-07T11:03:51Z</time>
      </trkpt>
      <trkpt lat="45.88879" lon="4.74239">
        <ele>187</ele>
        <time>2018-07-07T11:03:52Z</time>
      </trkpt>
      <trkpt lat="45.88883" lon="4.74243">
        <ele>187</ele>
        <time>2018-07-07T11:03:53Z</time>
      </trkpt>
      <trkpt lat="45.88889" lon="4.74245">
        <ele>187</ele>
        <time>2018-07-07T11:03:54Z</time>
      </trkpt>
      <trkpt lat="45.88893" lon="4.74247">
        <ele>187</ele>
        <time>2018-07-07T11:03:55Z</time>
      </trkpt>
      <trkpt lat="45.88897" lon="4.7425">
        <ele>187</ele>
        <time>2018-07-07T11:03:56Z</time>
      </trkpt>
      <trkpt lat="45.88902" lon="4.74254">
        <ele>187</ele>
        <time>2018-07-07T11:03:57Z</time>
      </trkpt>
      <trkpt lat="45.88906" lon="4.74257">
        <ele>187</ele>
        <time>2018-07-07T11:03:58Z</time>
      </trkpt>
      <trkpt lat="45.88911" lon="4.74261">
        <ele>187</ele>
        <time>2018-07-07T11:03:59Z</time>
      </trkpt>
      <trkpt lat="45.88916" lon="4.74267">
        <ele>187</ele>
        <time>2018-07-07T11:04:00Z</time>
      </trkpt>
      <trkpt lat="45.88919" lon="4.74269">
        <ele>187</ele>
        <time>2018-07-07T11:04:01Z</time>
      </trkpt>
      <trkpt lat="45.88924" lon="4.74273">
        <ele>187</ele>
        <time>2018-07-07T11:04:02Z</time>
      </trkpt>
      <trkpt lat="45.88929" lon="4.74279">
        <ele>187</ele>
        <time>2018-07-07T11:04:04Z</time>
      </trkpt>
      <trkpt lat="45.88934" lon="4.74278">
        <ele>187</ele>
        <time>2018-07-07T11:04:05Z</time>
      </trkpt>
      <trkpt lat="45.88941" lon="4.7428">
        <ele>187</ele>
        <time>2018-07-07T11:04:07Z</time>
      </trkpt>
      <trkpt lat="45.88945" lon="4.74281">
        <ele>187</ele>
        <time>2018-07-07T11:04:08Z</time>
      </trkpt>
      <trkpt lat="45.88951" lon="4.7428">
        <ele>187</ele>
        <time>2018-07-07T11:04:09Z</time>
      </trkpt>
      <trkpt lat="45.88956" lon="4.7428">
        <ele>187</ele>
        <time>2018-07-07T11:04:10Z</time>
      </trkpt>
      <trkpt lat="45.88964" lon="4.74284">
        <ele>187</ele>
        <time>2018-07-07T11:04:14Z</time>
      </trkpt>
      <trkpt lat="45.88969" lon="4.74289">
        <ele>187</ele>
        <time>2018-07-07T11:04:15Z</time>
      </trkpt>
      <trkpt lat="45.88975" lon="4.74297">
        <ele>187</ele>
        <time>2018-07-07T11:04:17Z</time>
      </trkpt>
      <trkpt lat="45.88979" lon="4.74296">
        <ele>187</ele>
        <time>2018-07-07T11:04:18Z</time>
      </trkpt>
      <trkpt lat="45.88985" lon="4.74297">
        <ele>187</ele>
        <time>2018-07-07T11:04:20Z</time>
      </trkpt>
      <trkpt lat="45.88991" lon="4.74295">
        <ele>187</ele>
        <time>2018-07-07T11:04:21Z</time>
      </trkpt>
      <trkpt lat="45.88997" lon="4.74293">
        <ele>187</ele>
        <time>2018-07-07T11:04:22Z</time>
      </trkpt>
      <trkpt lat="45.89002" lon="4.74292">
        <ele>187</ele>
        <time>2018-07-07T11:04:23Z</time>
      </trkpt>
      <trkpt lat="45.89008" lon="4.74291">
        <ele>187</ele>
        <time>2018-07-07T11:04:24Z</time>
      </trkpt>
      <trkpt lat="45.89013" lon="4.74288">
        <ele>187</ele>
        <time>2018-07-07T11:04:25Z</time>
      </trkpt>
      <trkpt lat="45.89018" lon="4.74286">
        <ele>187</ele>
        <time>2018-07-07T11:04:26Z</time>
      </trkpt>
      <trkpt lat="45.89023" lon="4.74282">
        <ele>187</ele>
        <time>2018-07-07T11:04:27Z</time>
      </trkpt>
      <trkpt lat="45.89026" lon="4.74282">
        <ele>187</ele>
        <time>2018-07-07T11:04:28Z</time>
      </trkpt>
      <trkpt lat="45.89032" lon="4.7428">
        <ele>187</ele>
        <time>2018-07-07T11:04:29Z</time>
      </trkpt>
      <trkpt lat="45.89038" lon="4.74279">
        <ele>187</ele>
        <time>2018-07-07T11:04:30Z</time>
      </trkpt>
      <trkpt lat="45.89043" lon="4.74277">
        <ele>187</ele>
        <time>2018-07-07T11:04:31Z</time>
      </trkpt>
      <trkpt lat="45.89049" lon="4.74275">
        <ele>187</ele>
        <time>2018-07-07T11:04:32Z</time>
      </trkpt>
      <trkpt lat="45.89055" lon="4.74271">
        <ele>187</ele>
        <time>2018-07-07T11:04:33Z</time>
      </trkpt>
      <trkpt lat="45.89062" lon="4.74269">
        <ele>187</ele>
        <time>2018-07-07T11:04:34Z</time>
      </trkpt>
      <trkpt lat="45.89068" lon="4.7427">
        <ele>187</ele>
        <time>2018-07-07T11:04:35Z</time>
      </trkpt>
      <trkpt lat="45.89074" lon="4.74267">
        <ele>186</ele>
        <time>2018-07-07T11:04:36Z</time>
      </trkpt>
      <trkpt lat="45.89079" lon="4.74264">
        <ele>186</ele>
        <time>2018-07-07T11:04:37Z</time>
      </trkpt>
      <trkpt lat="45.89083" lon="4.74263">
        <ele>186</ele>
        <time>2018-07-07T11:04:38Z</time>
      </trkpt>
      <trkpt lat="45.89089" lon="4.74261">
        <ele>186</ele>
        <time>2018-07-07T11:04:39Z</time>
      </trkpt>
      <trkpt lat="45.89095" lon="4.74257">
        <ele>186</ele>
        <time>2018-07-07T11:04:40Z</time>
      </trkpt>
      <trkpt lat="45.891" lon="4.74255">
        <ele>186</ele>
        <time>2018-07-07T11:04:41Z</time>
      </trkpt>
      <trkpt lat="45.89105" lon="4.74253">
        <ele>187</ele>
        <time>2018-07-07T11:04:42Z</time>
      </trkpt>
      <trkpt lat="45.8911" lon="4.7425">
        <ele>187</ele>
        <time>2018-07-07T11:04:43Z</time>
      </trkpt>
      <trkpt lat="45.89115" lon="4.74249">
        <ele>186</ele>
        <time>2018-07-07T11:04:44Z</time>
      </trkpt>
      <trkpt lat="45.8912" lon="4.74248">
        <ele>186</ele>
        <time>2018-07-07T11:04:45Z</time>
      </trkpt>
      <trkpt lat="45.89126" lon="4.74247">
        <ele>186</ele>
        <time>2018-07-07T11:04:46Z</time>
      </trkpt>
      <trkpt lat="45.89132" lon="4.74246">
        <ele>186</ele>
        <time>2018-07-07T11:04:47Z</time>
      </trkpt>
      <trkpt lat="45.89137" lon="4.74243">
        <ele>186</ele>
        <time>2018-07-07T11:04:48Z</time>
      </trkpt>
      <trkpt lat="45.89143" lon="4.74243">
        <ele>186</ele>
        <time>2018-07-07T11:04:49Z</time>
      </trkpt>
      <trkpt lat="45.89149" lon="4.74242">
        <ele>186</ele>
        <time>2018-07-07T11:04:50Z</time>
      </trkpt>
      <trkpt lat="45.89153" lon="4.74239">
        <ele>186</ele>
        <time>2018-07-07T11:04:51Z</time>
      </trkpt>
      <trkpt lat="45.89158" lon="4.74237">
        <ele>186</ele>
        <time>2018-07-07T11:04:52Z</time>
      </trkpt>
      <trkpt lat="45.89163" lon="4.74233">
        <ele>186</ele>
        <time>2018-07-07T11:04:53Z</time>
      </trkpt>
      <trkpt lat="45.89167" lon="4.7423">
        <ele>186</ele>
        <time>2018-07-07T11:04:54Z</time>
      </trkpt>
      <trkpt lat="45.89172" lon="4.74228">
        <ele>186</ele>
        <time>2018-07-07T11:04:55Z</time>
      </trkpt>
      <trkpt lat="45.89178" lon="4.74225">
        <ele>186</ele>
        <time>2018-07-07T11:04:56Z</time>
      </trkpt>
      <trkpt lat="45.89182" lon="4.74222">
        <ele>186</ele>
        <time>2018-07-07T11:04:57Z</time>
      </trkpt>
      <trkpt lat="45.89188" lon="4.74219">
        <ele>186</ele>
        <time>2018-07-07T11:04:58Z</time>
      </trkpt>
      <trkpt lat="45.89193" lon="4.74218">
        <ele>186</ele>
        <time>2018-07-07T11:04:59Z</time>
      </trkpt>
      <trkpt lat="45.89198" lon="4.74216">
        <ele>186</ele>
        <time>2018-07-07T11:05:00Z</time>
      </trkpt>
      <trkpt lat="45.89202" lon="4.74213">
        <ele>186</ele>
        <time>2018-07-07T11:05:01Z</time>
      </trkpt>
      <trkpt lat="45.89209" lon="4.74211">
        <ele>186</ele>
        <time>2018-07-07T11:05:03Z</time>
      </trkpt>
      <trkpt lat="45.89216" lon="4.74208">
        <ele>186</ele>
        <time>2018-07-07T11:05:04Z</time>
      </trkpt>
      <trkpt lat="45.89223" lon="4.74205">
        <ele>186</ele>
        <time>2018-07-07T11:05:05Z</time>
      </trkpt>
      <trkpt lat="45.89229" lon="4.74203">
        <ele>186</ele>
        <time>2018-07-07T11:05:06Z</time>
      </trkpt>
      <trkpt lat="45.89235" lon="4.74202">
        <ele>186</ele>
        <time>2018-07-07T11:05:07Z</time>
      </trkpt>
      <trkpt lat="45.89241" lon="4.74198">
        <ele>186</ele>
        <time>2018-07-07T11:05:08Z</time>
      </trkpt>
      <trkpt lat="45.89247" lon="4.74196">
        <ele>186</ele>
        <time>2018-07-07T11:05:09Z</time>
      </trkpt>
      <trkpt lat="45.89252" lon="4.74193">
        <ele>186</ele>
        <time>2018-07-07T11:05:10Z</time>
      </trkpt>
      <trkpt lat="45.89258" lon="4.7419">
        <ele>186</ele>
        <time>2018-07-07T11:05:11Z</time>
      </trkpt>
      <trkpt lat="45.89262" lon="4.7419">
        <ele>186</ele>
        <time>2018-07-07T11:05:12Z</time>
      </trkpt>
      <trkpt lat="45.89266" lon="4.74188">
        <ele>186</ele>
        <time>2018-07-07T11:05:13Z</time>
      </trkpt>
      <trkpt lat="45.89271" lon="4.74186">
        <ele>186</ele>
        <time>2018-07-07T11:05:14Z</time>
      </trkpt>
      <trkpt lat="45.89277" lon="4.74183">
        <ele>186</ele>
        <time>2018-07-07T11:05:15Z</time>
      </trkpt>
      <trkpt lat="45.89281" lon="4.74183">
        <ele>186</ele>
        <time>2018-07-07T11:05:16Z</time>
      </trkpt>
      <trkpt lat="45.89282" lon="4.74183">
        <ele>186</ele>
        <time>2018-07-07T11:05:17Z</time>
      </trkpt>
      <trkpt lat="45.89292" lon="4.74179">
        <ele>186</ele>
        <time>2018-07-07T11:05:18Z</time>
      </trkpt>
      <trkpt lat="45.89298" lon="4.74177">
        <ele>186</ele>
        <time>2018-07-07T11:05:19Z</time>
      </trkpt>
      <trkpt lat="45.89305" lon="4.74173">
        <ele>186</ele>
        <time>2018-07-07T11:05:20Z</time>
      </trkpt>
      <trkpt lat="45.89311" lon="4.74169">
        <ele>186</ele>
        <time>2018-07-07T11:05:21Z</time>
      </trkpt>
      <trkpt lat="45.89316" lon="4.74168">
        <ele>186</ele>
        <time>2018-07-07T11:05:22Z</time>
      </trkpt>
      <trkpt lat="45.89322" lon="4.74164">
        <ele>186</ele>
        <time>2018-07-07T11:05:23Z</time>
      </trkpt>
      <trkpt lat="45.89327" lon="4.74162">
        <ele>186</ele>
        <time>2018-07-07T11:05:24Z</time>
      </trkpt>
      <trkpt lat="45.89332" lon="4.7416">
        <ele>186</ele>
        <time>2018-07-07T11:05:25Z</time>
      </trkpt>
      <trkpt lat="45.89338" lon="4.74158">
        <ele>185</ele>
        <time>2018-07-07T11:05:26Z</time>
      </trkpt>
      <trkpt lat="45.89343" lon="4.74154">
        <ele>185</ele>
        <time>2018-07-07T11:05:27Z</time>
      </trkpt>
      <trkpt lat="45.89349" lon="4.74149">
        <ele>185</ele>
        <time>2018-07-07T11:05:28Z</time>
      </trkpt>
      <trkpt lat="45.89355" lon="4.74147">
        <ele>185</ele>
        <time>2018-07-07T11:05:29Z</time>
      </trkpt>
      <trkpt lat="45.89361" lon="4.74145">
        <ele>184</ele>
        <time>2018-07-07T11:05:30Z</time>
      </trkpt>
      <trkpt lat="45.89368" lon="4.74142">
        <ele>184</ele>
        <time>2018-07-07T11:05:31Z</time>
      </trkpt>
      <trkpt lat="45.89374" lon="4.74139">
        <ele>184</ele>
        <time>2018-07-07T11:05:32Z</time>
      </trkpt>
      <trkpt lat="45.89381" lon="4.74137">
        <ele>184</ele>
        <time>2018-07-07T11:05:33Z</time>
      </trkpt>
      <trkpt lat="45.89387" lon="4.74134">
        <ele>184</ele>
        <time>2018-07-07T11:05:34Z</time>
      </trkpt>
      <trkpt lat="45.89392" lon="4.74134">
        <ele>184</ele>
        <time>2018-07-07T11:05:35Z</time>
      </trkpt>
      <trkpt lat="45.89397" lon="4.74133">
        <ele>184</ele>
        <time>2018-07-07T11:05:36Z</time>
      </trkpt>
      <trkpt lat="45.89404" lon="4.74129">
        <ele>184</ele>
        <time>2018-07-07T11:05:37Z</time>
      </trkpt>
      <trkpt lat="45.8941" lon="4.74126">
        <ele>184</ele>
        <time>2018-07-07T11:05:38Z</time>
      </trkpt>
      <trkpt lat="45.89416" lon="4.74125">
        <ele>184</ele>
        <time>2018-07-07T11:05:39Z</time>
      </trkpt>
      <trkpt lat="45.89423" lon="4.74122">
        <ele>183</ele>
        <time>2018-07-07T11:05:40Z</time>
      </trkpt>
      <trkpt lat="45.89429" lon="4.7412">
        <ele>183</ele>
        <time>2018-07-07T11:05:41Z</time>
      </trkpt>
      <trkpt lat="45.89436" lon="4.7412">
        <ele>183</ele>
        <time>2018-07-07T11:05:42Z</time>
      </trkpt>
      <trkpt lat="45.89442" lon="4.74115">
        <ele>183</ele>
        <time>2018-07-07T11:05:43Z</time>
      </trkpt>
      <trkpt lat="45.89448" lon="4.74114">
        <ele>183</ele>
        <time>2018-07-07T11:05:44Z</time>
      </trkpt>
      <trkpt lat="45.89456" lon="4.74108">
        <ele>183</ele>
        <time>2018-07-07T11:05:45Z</time>
      </trkpt>
      <trkpt lat="45.89463" lon="4.74104">
        <ele>182</ele>
        <time>2018-07-07T11:05:46Z</time>
      </trkpt>
      <trkpt lat="45.89468" lon="4.74101">
        <ele>182</ele>
        <time>2018-07-07T11:05:47Z</time>
      </trkpt>
      <trkpt lat="45.89474" lon="4.74098">
        <ele>182</ele>
        <time>2018-07-07T11:05:48Z</time>
      </trkpt>
      <trkpt lat="45.89481" lon="4.74096">
        <ele>182</ele>
        <time>2018-07-07T11:05:49Z</time>
      </trkpt>
      <trkpt lat="45.89484" lon="4.74096">
        <ele>182</ele>
        <time>2018-07-07T11:05:50Z</time>
      </trkpt>
      <trkpt lat="45.89489" lon="4.74095">
        <ele>182</ele>
        <time>2018-07-07T11:05:51Z</time>
      </trkpt>
      <trkpt lat="45.89496" lon="4.74092">
        <ele>182</ele>
        <time>2018-07-07T11:05:52Z</time>
      </trkpt>
      <trkpt lat="45.89503" lon="4.7409">
        <ele>181</ele>
        <time>2018-07-07T11:05:53Z</time>
      </trkpt>
      <trkpt lat="45.89507" lon="4.74086">
        <ele>181</ele>
        <time>2018-07-07T11:05:54Z</time>
      </trkpt>
      <trkpt lat="45.89513" lon="4.74083">
        <ele>181</ele>
        <time>2018-07-07T11:05:55Z</time>
      </trkpt>
      <trkpt lat="45.8952" lon="4.74079">
        <ele>181</ele>
        <time>2018-07-07T11:05:56Z</time>
      </trkpt>
      <trkpt lat="45.89527" lon="4.74076">
        <ele>181</ele>
        <time>2018-07-07T11:05:57Z</time>
      </trkpt>
      <trkpt lat="45.89533" lon="4.74073">
        <ele>181</ele>
        <time>2018-07-07T11:05:58Z</time>
      </trkpt>
      <trkpt lat="45.89538" lon="4.74074">
        <ele>181</ele>
        <time>2018-07-07T11:05:59Z</time>
      </trkpt>
      <trkpt lat="45.89545" lon="4.74073">
        <ele>181</ele>
        <time>2018-07-07T11:06:00Z</time>
      </trkpt>
      <trkpt lat="45.89552" lon="4.74067">
        <ele>181</ele>
        <time>2018-07-07T11:06:01Z</time>
      </trkpt>
      <trkpt lat="45.89559" lon="4.74063">
        <ele>181</ele>
        <time>2018-07-07T11:06:02Z</time>
      </trkpt>
      <trkpt lat="45.89565" lon="4.7406">
        <ele>181</ele>
        <time>2018-07-07T11:06:03Z</time>
      </trkpt>
      <trkpt lat="45.89571" lon="4.74058">
        <ele>181</ele>
        <time>2018-07-07T11:06:04Z</time>
      </trkpt>
      <trkpt lat="45.89578" lon="4.74056">
        <ele>181</ele>
        <time>2018-07-07T11:06:05Z</time>
      </trkpt>
      <trkpt lat="45.89584" lon="4.74054">
        <ele>180</ele>
        <time>2018-07-07T11:06:06Z</time>
      </trkpt>
      <trkpt lat="45.89588" lon="4.74054">
        <ele>180</ele>
        <time>2018-07-07T11:06:07Z</time>
      </trkpt>
      <trkpt lat="45.89594" lon="4.74058">
        <ele>180</ele>
        <time>2018-07-07T11:06:08Z</time>
      </trkpt>
      <trkpt lat="45.89601" lon="4.74058">
        <ele>180</ele>
        <time>2018-07-07T11:06:09Z</time>
      </trkpt>
      <trkpt lat="45.89607" lon="4.74051">
        <ele>180</ele>
        <time>2018-07-07T11:06:10Z</time>
      </trkpt>
      <trkpt lat="45.89613" lon="4.74048">
        <ele>180</ele>
        <time>2018-07-07T11:06:11Z</time>
      </trkpt>
      <trkpt lat="45.8962" lon="4.7404">
        <ele>180</ele>
        <time>2018-07-07T11:06:12Z</time>
      </trkpt>
      <trkpt lat="45.89627" lon="4.74037">
        <ele>180</ele>
        <time>2018-07-07T11:06:13Z</time>
      </trkpt>
      <trkpt lat="45.89634" lon="4.74034">
        <ele>180</ele>
        <time>2018-07-07T11:06:14Z</time>
      </trkpt>
      <trkpt lat="45.8964" lon="4.74032">
        <ele>180</ele>
        <time>2018-07-07T11:06:15Z</time>
      </trkpt>
      <trkpt lat="45.89646" lon="4.74029">
        <ele>180</ele>
        <time>2018-07-07T11:06:16Z</time>
      </trkpt>
      <trkpt lat="45.89653" lon="4.74027">
        <ele>180</ele>
        <time>2018-07-07T11:06:17Z</time>
      </trkpt>
      <trkpt lat="45.89659" lon="4.74022">
        <ele>180</ele>
        <time>2018-07-07T11:06:18Z</time>
      </trkpt>
      <trkpt lat="45.89666" lon="4.7402">
        <ele>180</ele>
        <time>2018-07-07T11:06:19Z</time>
      </trkpt>
      <trkpt lat="45.89672" lon="4.74017">
        <ele>179</ele>
        <time>2018-07-07T11:06:20Z</time>
      </trkpt>
      <trkpt lat="45.89678" lon="4.74014">
        <ele>179</ele>
        <time>2018-07-07T11:06:21Z</time>
      </trkpt>
      <trkpt lat="45.89685" lon="4.74009">
        <ele>179</ele>
        <time>2018-07-07T11:06:22Z</time>
      </trkpt>
      <trkpt lat="45.89691" lon="4.74007">
        <ele>179</ele>
        <time>2018-07-07T11:06:23Z</time>
      </trkpt>
      <trkpt lat="45.89698" lon="4.74004">
        <ele>179</ele>
        <time>2018-07-07T11:06:24Z</time>
      </trkpt>
      <trkpt lat="45.89704" lon="4.74001">
        <ele>179</ele>
        <time>2018-07-07T11:06:25Z</time>
      </trkpt>
      <trkpt lat="45.8971" lon="4.73998">
        <ele>178</ele>
        <time>2018-07-07T11:06:26Z</time>
      </trkpt>
      <trkpt lat="45.89717" lon="4.73995">
        <ele>178</ele>
        <time>2018-07-07T11:06:27Z</time>
      </trkpt>
      <trkpt lat="45.89723" lon="4.73993">
        <ele>178</ele>
        <time>2018-07-07T11:06:28Z</time>
      </trkpt>
      <trkpt lat="45.89729" lon="4.7399">
        <ele>178</ele>
        <time>2018-07-07T11:06:29Z</time>
      </trkpt>
      <trkpt lat="45.89737" lon="4.73985">
        <ele>178</ele>
        <time>2018-07-07T11:06:30Z</time>
      </trkpt>
      <trkpt lat="45.89743" lon="4.73982">
        <ele>178</ele>
        <time>2018-07-07T11:06:31Z</time>
      </trkpt>
      <trkpt lat="45.89749" lon="4.7398">
        <ele>178</ele>
        <time>2018-07-07T11:06:32Z</time>
      </trkpt>
      <trkpt lat="45.89756" lon="4.73977">
        <ele>178</ele>
        <time>2018-07-07T11:06:33Z</time>
      </trkpt>
      <trkpt lat="45.89762" lon="4.73975">
        <ele>178</ele>
        <time>2018-07-07T11:06:34Z</time>
      </trkpt>
      <trkpt lat="45.89768" lon="4.73972">
        <ele>179</ele>
        <time>2018-07-07T11:06:35Z</time>
      </trkpt>
      <trkpt lat="45.89775" lon="4.73969">
        <ele>179</ele>
        <time>2018-07-07T11:06:36Z</time>
      </trkpt>
      <trkpt lat="45.89782" lon="4.73965">
        <ele>179</ele>
        <time>2018-07-07T11:06:37Z</time>
      </trkpt>
      <trkpt lat="45.89788" lon="4.73959">
        <ele>179</ele>
        <time>2018-07-07T11:06:38Z</time>
      </trkpt>
      <trkpt lat="45.89793" lon="4.73959">
        <ele>179</ele>
        <time>2018-07-07T11:06:39Z</time>
      </trkpt>
      <trkpt lat="45.89799" lon="4.73957">
        <ele>179</ele>
        <time>2018-07-07T11:06:40Z</time>
      </trkpt>
      <trkpt lat="45.89805" lon="4.73955">
        <ele>179</ele>
        <time>2018-07-07T11:06:41Z</time>
      </trkpt>
      <trkpt lat="45.89811" lon="4.73957">
        <ele>179</ele>
        <time>2018-07-07T11:06:42Z</time>
      </trkpt>
      <trkpt lat="45.89817" lon="4.73956">
        <ele>179</ele>
        <time>2018-07-07T11:06:43Z</time>
      </trkpt>
      <trkpt lat="45.89822" lon="4.73954">
        <ele>179</ele>
        <time>2018-07-07T11:06:44Z</time>
      </trkpt>
      <trkpt lat="45.89828" lon="4.7395">
        <ele>179</ele>
        <time>2018-07-07T11:06:45Z</time>
      </trkpt>
      <trkpt lat="45.89834" lon="4.73947">
        <ele>179</ele>
        <time>2018-07-07T11:06:46Z</time>
      </trkpt>
      <trkpt lat="45.89839" lon="4.73946">
        <ele>179</ele>
        <time>2018-07-07T11:06:47Z</time>
      </trkpt>
      <trkpt lat="45.89843" lon="4.73944">
        <ele>179</ele>
        <time>2018-07-07T11:06:48Z</time>
      </trkpt>
      <trkpt lat="45.89848" lon="4.7394">
        <ele>179</ele>
        <time>2018-07-07T11:06:49Z</time>
      </trkpt>
      <trkpt lat="45.89855" lon="4.73937">
        <ele>179</ele>
        <time>2018-07-07T11:06:50Z</time>
      </trkpt>
      <trkpt lat="45.89861" lon="4.73934">
        <ele>179</ele>
        <time>2018-07-07T11:06:51Z</time>
      </trkpt>
      <trkpt lat="45.89865" lon="4.73932">
        <ele>179</ele>
        <time>2018-07-07T11:06:52Z</time>
      </trkpt>
      <trkpt lat="45.89869" lon="4.7393">
        <ele>179</ele>
        <time>2018-07-07T11:06:53Z</time>
      </trkpt>
      <trkpt lat="45.89876" lon="4.73922">
        <ele>179</ele>
        <time>2018-07-07T11:06:54Z</time>
      </trkpt>
      <trkpt lat="45.89881" lon="4.73919">
        <ele>179</ele>
        <time>2018-07-07T11:06:55Z</time>
      </trkpt>
      <trkpt lat="45.89887" lon="4.73917">
        <ele>178</ele>
        <time>2018-07-07T11:06:56Z</time>
      </trkpt>
      <trkpt lat="45.89893" lon="4.73915">
        <ele>179</ele>
        <time>2018-07-07T11:06:57Z</time>
      </trkpt>
      <trkpt lat="45.89898" lon="4.73913">
        <ele>178</ele>
        <time>2018-07-07T11:06:58Z</time>
      </trkpt>
      <trkpt lat="45.89902" lon="4.73909">
        <ele>178</ele>
        <time>2018-07-07T11:06:59Z</time>
      </trkpt>
      <trkpt lat="45.89907" lon="4.73907">
        <ele>178</ele>
        <time>2018-07-07T11:07:00Z</time>
      </trkpt>
      <trkpt lat="45.89912" lon="4.73903">
        <ele>178</ele>
        <time>2018-07-07T11:07:01Z</time>
      </trkpt>
      <trkpt lat="45.89917" lon="4.73903">
        <ele>178</ele>
        <time>2018-07-07T11:07:02Z</time>
      </trkpt>
      <trkpt lat="45.89924" lon="4.73902">
        <ele>178</ele>
        <time>2018-07-07T11:07:03Z</time>
      </trkpt>
      <trkpt lat="45.89929" lon="4.73899">
        <ele>178</ele>
        <time>2018-07-07T11:07:04Z</time>
      </trkpt>
      <trkpt lat="45.89935" lon="4.73896">
        <ele>178</ele>
        <time>2018-07-07T11:07:05Z</time>
      </trkpt>
      <trkpt lat="45.89941" lon="4.73894">
        <ele>178</ele>
        <time>2018-07-07T11:07:06Z</time>
      </trkpt>
      <trkpt lat="45.89945" lon="4.73894">
        <ele>178</ele>
        <time>2018-07-07T11:07:07Z</time>
      </trkpt>
      <trkpt lat="45.8995" lon="4.73893">
        <ele>178</ele>
        <time>2018-07-07T11:07:08Z</time>
      </trkpt>
      <trkpt lat="45.89956" lon="4.7389">
        <ele>178</ele>
        <time>2018-07-07T11:07:09Z</time>
      </trkpt>
      <trkpt lat="45.89961" lon="4.73888">
        <ele>178</ele>
        <time>2018-07-07T11:07:10Z</time>
      </trkpt>
      <trkpt lat="45.89965" lon="4.73885">
        <ele>178</ele>
        <time>2018-07-07T11:07:11Z</time>
      </trkpt>
      <trkpt lat="45.8997" lon="4.73883">
        <ele>178</ele>
        <time>2018-07-07T11:07:12Z</time>
      </trkpt>
      <trkpt lat="45.89975" lon="4.73881">
        <ele>178</ele>
        <time>2018-07-07T11:07:13Z</time>
      </trkpt>
      <trkpt lat="45.89981" lon="4.73879">
        <ele>178</ele>
        <time>2018-07-07T11:07:14Z</time>
      </trkpt>
      <trkpt lat="45.89989" lon="4.73876">
        <ele>178</ele>
        <time>2018-07-07T11:07:16Z</time>
      </trkpt>
      <trkpt lat="45.89994" lon="4.73874">
        <ele>178</ele>
        <time>2018-07-07T11:07:17Z</time>
      </trkpt>
      <trkpt lat="45.90001" lon="4.73872">
        <ele>178</ele>
        <time>2018-07-07T11:07:18Z</time>
      </trkpt>
      <trkpt lat="45.90006" lon="4.7387">
        <ele>178</ele>
        <time>2018-07-07T11:07:19Z</time>
      </trkpt>
      <trkpt lat="45.90012" lon="4.73869">
        <ele>178</ele>
        <time>2018-07-07T11:07:20Z</time>
      </trkpt>
      <trkpt lat="45.90018" lon="4.73866">
        <ele>178</ele>
        <time>2018-07-07T11:07:21Z</time>
      </trkpt>
      <trkpt lat="45.90025" lon="4.73864">
        <ele>178</ele>
        <time>2018-07-07T11:07:22Z</time>
      </trkpt>
      <trkpt lat="45.90031" lon="4.73862">
        <ele>178</ele>
        <time>2018-07-07T11:07:23Z</time>
      </trkpt>
      <trkpt lat="45.90036" lon="4.73859">
        <ele>178</ele>
        <time>2018-07-07T11:07:24Z</time>
      </trkpt>
      <trkpt lat="45.90043" lon="4.73854">
        <ele>178</ele>
        <time>2018-07-07T11:07:25Z</time>
      </trkpt>
      <trkpt lat="45.90049" lon="4.73851">
        <ele>178</ele>
        <time>2018-07-07T11:07:26Z</time>
      </trkpt>
      <trkpt lat="45.90055" lon="4.73849">
        <ele>178</ele>
        <time>2018-07-07T11:07:27Z</time>
      </trkpt>
      <trkpt lat="45.9006" lon="4.73845">
        <ele>178</ele>
        <time>2018-07-07T11:07:28Z</time>
      </trkpt>
      <trkpt lat="45.90065" lon="4.73841">
        <ele>178</ele>
        <time>2018-07-07T11:07:29Z</time>
      </trkpt>
      <trkpt lat="45.90069" lon="4.73839">
        <ele>178</ele>
        <time>2018-07-07T11:07:30Z</time>
      </trkpt>
      <trkpt lat="45.90075" lon="4.73838">
        <ele>178</ele>
        <time>2018-07-07T11:07:31Z</time>
      </trkpt>
      <trkpt lat="45.90081" lon="4.73836">
        <ele>178</ele>
        <time>2018-07-07T11:07:32Z</time>
      </trkpt>
      <trkpt lat="45.90086" lon="4.73842">
        <ele>178</ele>
        <time>2018-07-07T11:07:33Z</time>
      </trkpt>
      <trkpt lat="45.90092" lon="4.7384">
        <ele>178</ele>
        <time>2018-07-07T11:07:34Z</time>
      </trkpt>
      <trkpt lat="45.90098" lon="4.73836">
        <ele>178</ele>
        <time>2018-07-07T11:07:35Z</time>
      </trkpt>
      <trkpt lat="45.90104" lon="4.73833">
        <ele>177</ele>
        <time>2018-07-07T11:07:36Z</time>
      </trkpt>
      <trkpt lat="45.90111" lon="4.7383">
        <ele>177</ele>
        <time>2018-07-07T11:07:37Z</time>
      </trkpt>
      <trkpt lat="45.90116" lon="4.73826">
        <ele>177</ele>
        <time>2018-07-07T11:07:38Z</time>
      </trkpt>
      <trkpt lat="45.90123" lon="4.73821">
        <ele>177</ele>
        <time>2018-07-07T11:07:39Z</time>
      </trkpt>
      <trkpt lat="45.90129" lon="4.73819">
        <ele>177</ele>
        <time>2018-07-07T11:07:40Z</time>
      </trkpt>
      <trkpt lat="45.90135" lon="4.73817">
        <ele>177</ele>
        <time>2018-07-07T11:07:41Z</time>
      </trkpt>
      <trkpt lat="45.90138" lon="4.73812">
        <ele>177</ele>
        <time>2018-07-07T11:07:42Z</time>
      </trkpt>
      <trkpt lat="45.90143" lon="4.7381">
        <ele>177</ele>
        <time>2018-07-07T11:07:43Z</time>
      </trkpt>
      <trkpt lat="45.9015" lon="4.73808">
        <ele>177</ele>
        <time>2018-07-07T11:07:44Z</time>
      </trkpt>
      <trkpt lat="45.90156" lon="4.73807">
        <ele>176</ele>
        <time>2018-07-07T11:07:45Z</time>
      </trkpt>
      <trkpt lat="45.90162" lon="4.73804">
        <ele>176</ele>
        <time>2018-07-07T11:07:46Z</time>
      </trkpt>
      <trkpt lat="45.90168" lon="4.73802">
        <ele>177</ele>
        <time>2018-07-07T11:07:47Z</time>
      </trkpt>
      <trkpt lat="45.90174" lon="4.738">
        <ele>177</ele>
        <time>2018-07-07T11:07:48Z</time>
      </trkpt>
      <trkpt lat="45.9018" lon="4.73798">
        <ele>177</ele>
        <time>2018-07-07T11:07:49Z</time>
      </trkpt>
      <trkpt lat="45.90185" lon="4.73796">
        <ele>177</ele>
        <time>2018-07-07T11:07:50Z</time>
      </trkpt>
      <trkpt lat="45.90192" lon="4.73791">
        <ele>177</ele>
        <time>2018-07-07T11:07:51Z</time>
      </trkpt>
      <trkpt lat="45.90198" lon="4.73789">
        <ele>177</ele>
        <time>2018-07-07T11:07:52Z</time>
      </trkpt>
      <trkpt lat="45.90204" lon="4.73786">
        <ele>177</ele>
        <time>2018-07-07T11:07:53Z</time>
      </trkpt>
      <trkpt lat="45.90209" lon="4.73783">
        <ele>177</ele>
        <time>2018-07-07T11:07:54Z</time>
      </trkpt>
      <trkpt lat="45.90215" lon="4.73781">
        <ele>177</ele>
        <time>2018-07-07T11:07:55Z</time>
      </trkpt>
      <trkpt lat="45.90222" lon="4.73777">
        <ele>177</ele>
        <time>2018-07-07T11:07:56Z</time>
      </trkpt>
      <trkpt lat="45.90227" lon="4.73776">
        <ele>177</ele>
        <time>2018-07-07T11:07:57Z</time>
      </trkpt>
      <trkpt lat="45.90232" lon="4.73774">
        <ele>177</ele>
        <time>2018-07-07T11:07:58Z</time>
      </trkpt>
      <trkpt lat="45.90238" lon="4.73772">
        <ele>177</ele>
        <time>2018-07-07T11:07:59Z</time>
      </trkpt>
      <trkpt lat="45.90244" lon="4.73769">
        <ele>177</ele>
        <time>2018-07-07T11:08:00Z</time>
      </trkpt>
      <trkpt lat="45.90252" lon="4.73771">
        <ele>177</ele>
        <time>2018-07-07T11:08:01Z</time>
      </trkpt>
      <trkpt lat="45.90257" lon="4.7377">
        <ele>177</ele>
        <time>2018-07-07T11:08:02Z</time>
      </trkpt>
      <trkpt lat="45.90264" lon="4.73766">
        <ele>177</ele>
        <time>2018-07-07T11:08:03Z</time>
      </trkpt>
      <trkpt lat="45.9027" lon="4.73764">
        <ele>177</ele>
        <time>2018-07-07T11:08:04Z</time>
      </trkpt>
      <trkpt lat="45.90277" lon="4.7376">
        <ele>177</ele>
        <time>2018-07-07T11:08:05Z</time>
      </trkpt>
      <trkpt lat="45.90283" lon="4.73757">
        <ele>177</ele>
        <time>2018-07-07T11:08:06Z</time>
      </trkpt>
      <trkpt lat="45.90291" lon="4.73753">
        <ele>177</ele>
        <time>2018-07-07T11:08:07Z</time>
      </trkpt>
      <trkpt lat="45.90296" lon="4.7375">
        <ele>177</ele>
        <time>2018-07-07T11:08:08Z</time>
      </trkpt>
      <trkpt lat="45.90303" lon="4.73748">
        <ele>177</ele>
        <time>2018-07-07T11:08:09Z</time>
      </trkpt>
      <trkpt lat="45.90309" lon="4.73749">
        <ele>177</ele>
        <time>2018-07-07T11:08:11Z</time>
      </trkpt>
      <trkpt lat="45.90314" lon="4.73748">
        <ele>177</ele>
        <time>2018-07-07T11:08:12Z</time>
      </trkpt>
      <trkpt lat="45.90323" lon="4.73741">
        <ele>177</ele>
        <time>2018-07-07T11:08:13Z</time>
      </trkpt>
      <trkpt lat="45.90329" lon="4.73737">
        <ele>177</ele>
        <time>2018-07-07T11:08:14Z</time>
      </trkpt>
      <trkpt lat="45.90335" lon="4.73734">
        <ele>176</ele>
        <time>2018-07-07T11:08:15Z</time>
      </trkpt>
      <trkpt lat="45.9034" lon="4.73732">
        <ele>176</ele>
        <time>2018-07-07T11:08:16Z</time>
      </trkpt>
      <trkpt lat="45.90345" lon="4.7373">
        <ele>177</ele>
        <time>2018-07-07T11:08:17Z</time>
      </trkpt>
      <trkpt lat="45.9035" lon="4.73727">
        <ele>177</ele>
        <time>2018-07-07T11:08:18Z</time>
      </trkpt>
      <trkpt lat="45.90355" lon="4.73725">
        <ele>177</ele>
        <time>2018-07-07T11:08:19Z</time>
      </trkpt>
      <trkpt lat="45.90359" lon="4.73723">
        <ele>177</ele>
        <time>2018-07-07T11:08:20Z</time>
      </trkpt>
      <trkpt lat="45.90364" lon="4.73721">
        <ele>177</ele>
        <time>2018-07-07T11:08:21Z</time>
      </trkpt>
      <trkpt lat="45.90369" lon="4.73716">
        <ele>177</ele>
        <time>2018-07-07T11:08:22Z</time>
      </trkpt>
      <trkpt lat="45.90374" lon="4.73711">
        <ele>177</ele>
        <time>2018-07-07T11:08:23Z</time>
      </trkpt>
      <trkpt lat="45.90379" lon="4.7371">
        <ele>177</ele>
        <time>2018-07-07T11:08:24Z</time>
      </trkpt>
      <trkpt lat="45.90383" lon="4.73707">
        <ele>177</ele>
        <time>2018-07-07T11:08:25Z</time>
      </trkpt>
      <trkpt lat="45.90388" lon="4.73705">
        <ele>177</ele>
        <time>2018-07-07T11:08:26Z</time>
      </trkpt>
      <trkpt lat="45.90393" lon="4.73701">
        <ele>177</ele>
        <time>2018-07-07T11:08:27Z</time>
      </trkpt>
      <trkpt lat="45.90401" lon="4.73699">
        <ele>177</ele>
        <time>2018-07-07T11:08:29Z</time>
      </trkpt>
      <trkpt lat="45.90406" lon="4.73696">
        <ele>177</ele>
        <time>2018-07-07T11:08:30Z</time>
      </trkpt>
      <trkpt lat="45.90413" lon="4.73695">
        <ele>177</ele>
        <time>2018-07-07T11:08:32Z</time>
      </trkpt>
      <trkpt lat="45.90417" lon="4.73693">
        <ele>177</ele>
        <time>2018-07-07T11:08:33Z</time>
      </trkpt>
      <trkpt lat="45.90424" lon="4.73687">
        <ele>176</ele>
        <time>2018-07-07T11:08:34Z</time>
      </trkpt>
      <trkpt lat="45.90428" lon="4.73686">
        <ele>176</ele>
        <time>2018-07-07T11:08:35Z</time>
      </trkpt>
      <trkpt lat="45.90433" lon="4.73687">
        <ele>176</ele>
        <time>2018-07-07T11:08:37Z</time>
      </trkpt>
      <trkpt lat="45.90438" lon="4.73684">
        <ele>176</ele>
        <time>2018-07-07T11:08:38Z</time>
      </trkpt>
      <trkpt lat="45.90443" lon="4.73682">
        <ele>176</ele>
        <time>2018-07-07T11:08:39Z</time>
      </trkpt>
      <trkpt lat="45.90447" lon="4.73681">
        <ele>176</ele>
        <time>2018-07-07T11:08:40Z</time>
      </trkpt>
      <trkpt lat="45.90455" lon="4.7368">
        <ele>176</ele>
        <time>2018-07-07T11:08:42Z</time>
      </trkpt>
      <trkpt lat="45.90459" lon="4.73679">
        <ele>176</ele>
        <time>2018-07-07T11:08:43Z</time>
      </trkpt>
      <trkpt lat="45.90465" lon="4.73674">
        <ele>176</ele>
        <time>2018-07-07T11:08:44Z</time>
      </trkpt>
      <trkpt lat="45.90471" lon="4.73668">
        <ele>176</ele>
        <time>2018-07-07T11:08:45Z</time>
      </trkpt>
      <trkpt lat="45.90479" lon="4.73666">
        <ele>177</ele>
        <time>2018-07-07T11:08:47Z</time>
      </trkpt>
      <trkpt lat="45.90483" lon="4.73665">
        <ele>177</ele>
        <time>2018-07-07T11:08:48Z</time>
      </trkpt>
      <trkpt lat="45.90491" lon="4.73663">
        <ele>177</ele>
        <time>2018-07-07T11:08:50Z</time>
      </trkpt>
      <trkpt lat="45.90493" lon="4.73664">
        <ele>177</ele>
        <time>2018-07-07T11:08:51Z</time>
      </trkpt>
      <trkpt lat="45.90501" lon="4.73663">
        <ele>177</ele>
        <time>2018-07-07T11:08:53Z</time>
      </trkpt>
      <trkpt lat="45.90504" lon="4.73661">
        <ele>177</ele>
        <time>2018-07-07T11:08:54Z</time>
      </trkpt>
      <trkpt lat="45.90511" lon="4.73658">
        <ele>178</ele>
        <time>2018-07-07T11:08:56Z</time>
      </trkpt>
      <trkpt lat="45.90516" lon="4.73656">
        <ele>178</ele>
        <time>2018-07-07T11:08:57Z</time>
      </trkpt>
      <trkpt lat="45.9052" lon="4.73654">
        <ele>178</ele>
        <time>2018-07-07T11:08:58Z</time>
      </trkpt>
      <trkpt lat="45.90525" lon="4.73651">
        <ele>178</ele>
        <time>2018-07-07T11:08:59Z</time>
      </trkpt>
      <trkpt lat="45.90529" lon="4.73648">
        <ele>178</ele>
        <time>2018-07-07T11:09:00Z</time>
      </trkpt>
      <trkpt lat="45.90536" lon="4.73645">
        <ele>178</ele>
        <time>2018-07-07T11:09:01Z</time>
      </trkpt>
      <trkpt lat="45.90541" lon="4.73643">
        <ele>178</ele>
        <time>2018-07-07T11:09:02Z</time>
      </trkpt>
      <trkpt lat="45.90545" lon="4.73641">
        <ele>178</ele>
        <time>2018-07-07T11:09:03Z</time>
      </trkpt>
      <trkpt lat="45.9055" lon="4.73638">
        <ele>179</ele>
        <time>2018-07-07T11:09:04Z</time>
      </trkpt>
      <trkpt lat="45.90555" lon="4.73636">
        <ele>179</ele>
        <time>2018-07-07T11:09:05Z</time>
      </trkpt>
      <trkpt lat="45.90561" lon="4.73633">
        <ele>179</ele>
        <time>2018-07-07T11:09:07Z</time>
      </trkpt>
      <trkpt lat="45.90566" lon="4.73633">
        <ele>179</ele>
        <time>2018-07-07T11:09:08Z</time>
      </trkpt>
      <trkpt lat="45.9057" lon="4.73631">
        <ele>179</ele>
        <time>2018-07-07T11:09:09Z</time>
      </trkpt>
      <trkpt lat="45.90575" lon="4.73629">
        <ele>179</ele>
        <time>2018-07-07T11:09:10Z</time>
      </trkpt>
      <trkpt lat="45.9058" lon="4.73627">
        <ele>179</ele>
        <time>2018-07-07T11:09:11Z</time>
      </trkpt>
      <trkpt lat="45.90584" lon="4.73624">
        <ele>181</ele>
        <time>2018-07-07T11:09:12Z</time>
      </trkpt>
      <trkpt lat="45.90588" lon="4.73622">
        <ele>181</ele>
        <time>2018-07-07T11:09:13Z</time>
      </trkpt>
      <trkpt lat="45.90593" lon="4.7362">
        <ele>181</ele>
        <time>2018-07-07T11:09:14Z</time>
      </trkpt>
      <trkpt lat="45.90598" lon="4.73617">
        <ele>181</ele>
        <time>2018-07-07T11:09:15Z</time>
      </trkpt>
      <trkpt lat="45.90602" lon="4.73616">
        <ele>181</ele>
        <time>2018-07-07T11:09:16Z</time>
      </trkpt>
      <trkpt lat="45.90607" lon="4.73614">
        <ele>181</ele>
        <time>2018-07-07T11:09:17Z</time>
      </trkpt>
      <trkpt lat="45.90612" lon="4.73612">
        <ele>181</ele>
        <time>2018-07-07T11:09:18Z</time>
      </trkpt>
      <trkpt lat="45.90617" lon="4.73609">
        <ele>181</ele>
        <time>2018-07-07T11:09:19Z</time>
      </trkpt>
      <trkpt lat="45.90623" lon="4.73608">
        <ele>181</ele>
        <time>2018-07-07T11:09:20Z</time>
      </trkpt>
      <trkpt lat="45.90628" lon="4.73607">
        <ele>181</ele>
        <time>2018-07-07T11:09:21Z</time>
      </trkpt>
      <trkpt lat="45.90634" lon="4.73605">
        <ele>181</ele>
        <time>2018-07-07T11:09:22Z</time>
      </trkpt>
      <trkpt lat="45.90637" lon="4.73605">
        <ele>181</ele>
        <time>2018-07-07T11:09:23Z</time>
      </trkpt>
      <trkpt lat="45.90643" lon="4.73601">
        <ele>181</ele>
        <time>2018-07-07T11:09:24Z</time>
      </trkpt>
      <trkpt lat="45.90648" lon="4.73598">
        <ele>181</ele>
        <time>2018-07-07T11:09:25Z</time>
      </trkpt>
      <trkpt lat="45.90654" lon="4.73596">
        <ele>181</ele>
        <time>2018-07-07T11:09:26Z</time>
      </trkpt>
      <trkpt lat="45.90658" lon="4.73594">
        <ele>181</ele>
        <time>2018-07-07T11:09:27Z</time>
      </trkpt>
      <trkpt lat="45.90664" lon="4.73592">
        <ele>180</ele>
        <time>2018-07-07T11:09:28Z</time>
      </trkpt>
      <trkpt lat="45.90667" lon="4.73591">
        <ele>180</ele>
        <time>2018-07-07T11:09:29Z</time>
      </trkpt>
      <trkpt lat="45.90672" lon="4.73588">
        <ele>180</ele>
        <time>2018-07-07T11:09:30Z</time>
      </trkpt>
      <trkpt lat="45.90679" lon="4.73584">
        <ele>181</ele>
        <time>2018-07-07T11:09:31Z</time>
      </trkpt>
      <trkpt lat="45.90685" lon="4.7358">
        <ele>179</ele>
        <time>2018-07-07T11:09:32Z</time>
      </trkpt>
      <trkpt lat="45.9069" lon="4.73579">
        <ele>179</ele>
        <time>2018-07-07T11:09:33Z</time>
      </trkpt>
      <trkpt lat="45.90697" lon="4.73577">
        <ele>178</ele>
        <time>2018-07-07T11:09:34Z</time>
      </trkpt>
      <trkpt lat="45.90703" lon="4.73575">
        <ele>178</ele>
        <time>2018-07-07T11:09:35Z</time>
      </trkpt>
      <trkpt lat="45.90709" lon="4.73572">
        <ele>178</ele>
        <time>2018-07-07T11:09:36Z</time>
      </trkpt>
      <trkpt lat="45.90716" lon="4.73569">
        <ele>178</ele>
        <time>2018-07-07T11:09:37Z</time>
      </trkpt>
      <trkpt lat="45.90723" lon="4.73566">
        <ele>178</ele>
        <time>2018-07-07T11:09:38Z</time>
      </trkpt>
      <trkpt lat="45.90729" lon="4.73564">
        <ele>178</ele>
        <time>2018-07-07T11:09:39Z</time>
      </trkpt>
      <trkpt lat="45.90736" lon="4.7356">
        <ele>178</ele>
        <time>2018-07-07T11:09:40Z</time>
      </trkpt>
      <trkpt lat="45.90742" lon="4.73558">
        <ele>178</ele>
        <time>2018-07-07T11:09:41Z</time>
      </trkpt>
      <trkpt lat="45.90749" lon="4.73555">
        <ele>178</ele>
        <time>2018-07-07T11:09:42Z</time>
      </trkpt>
      <trkpt lat="45.90756" lon="4.73553">
        <ele>177</ele>
        <time>2018-07-07T11:09:43Z</time>
      </trkpt>
      <trkpt lat="45.90763" lon="4.73551">
        <ele>176</ele>
        <time>2018-07-07T11:09:44Z</time>
      </trkpt>
      <trkpt lat="45.9077" lon="4.73549">
        <ele>176</ele>
        <time>2018-07-07T11:09:45Z</time>
      </trkpt>
      <trkpt lat="45.90776" lon="4.73547">
        <ele>176</ele>
        <time>2018-07-07T11:09:46Z</time>
      </trkpt>
      <trkpt lat="45.90782" lon="4.73544">
        <ele>176</ele>
        <time>2018-07-07T11:09:47Z</time>
      </trkpt>
      <trkpt lat="45.90787" lon="4.73542">
        <ele>176</ele>
        <time>2018-07-07T11:09:48Z</time>
      </trkpt>
      <trkpt lat="45.90793" lon="4.73539">
        <ele>176</ele>
        <time>2018-07-07T11:09:49Z</time>
      </trkpt>
      <trkpt lat="45.908" lon="4.73536">
        <ele>176</ele>
        <time>2018-07-07T11:09:50Z</time>
      </trkpt>
      <trkpt lat="45.90805" lon="4.73533">
        <ele>175</ele>
        <time>2018-07-07T11:09:51Z</time>
      </trkpt>
      <trkpt lat="45.90811" lon="4.7353">
        <ele>175</ele>
        <time>2018-07-07T11:09:52Z</time>
      </trkpt>
      <trkpt lat="45.90817" lon="4.73528">
        <ele>175</ele>
        <time>2018-07-07T11:09:53Z</time>
      </trkpt>
      <trkpt lat="45.90822" lon="4.73527">
        <ele>175</ele>
        <time>2018-07-07T11:09:54Z</time>
      </trkpt>
      <trkpt lat="45.90829" lon="4.73524">
        <ele>175</ele>
        <time>2018-07-07T11:09:55Z</time>
      </trkpt>
      <trkpt lat="45.90833" lon="4.73522">
        <ele>175</ele>
        <time>2018-07-07T11:09:56Z</time>
      </trkpt>
      <trkpt lat="45.90836" lon="4.73521">
        <ele>174</ele>
        <time>2018-07-07T11:09:57Z</time>
      </trkpt>
      <trkpt lat="45.90843" lon="4.7352">
        <ele>174</ele>
        <time>2018-07-07T11:09:58Z</time>
      </trkpt>
      <trkpt lat="45.90848" lon="4.73519">
        <ele>174</ele>
        <time>2018-07-07T11:09:59Z</time>
      </trkpt>
      <trkpt lat="45.90854" lon="4.73517">
        <ele>174</ele>
        <time>2018-07-07T11:10:00Z</time>
      </trkpt>
      <trkpt lat="45.90859" lon="4.73514">
        <ele>174</ele>
        <time>2018-07-07T11:10:01Z</time>
      </trkpt>
      <trkpt lat="45.90865" lon="4.7351">
        <ele>174</ele>
        <time>2018-07-07T11:10:02Z</time>
      </trkpt>
      <trkpt lat="45.9087" lon="4.73508">
        <ele>174</ele>
        <time>2018-07-07T11:10:03Z</time>
      </trkpt>
      <trkpt lat="45.90875" lon="4.73506">
        <ele>174</ele>
        <time>2018-07-07T11:10:04Z</time>
      </trkpt>
      <trkpt lat="45.90883" lon="4.73503">
        <ele>175</ele>
        <time>2018-07-07T11:10:06Z</time>
      </trkpt>
      <trkpt lat="45.90889" lon="4.735">
        <ele>175</ele>
        <time>2018-07-07T11:10:07Z</time>
      </trkpt>
      <trkpt lat="45.90894" lon="4.73498">
        <ele>175</ele>
        <time>2018-07-07T11:10:08Z</time>
      </trkpt>
      <trkpt lat="45.90901" lon="4.73495">
        <ele>175</ele>
        <time>2018-07-07T11:10:09Z</time>
      </trkpt>
      <trkpt lat="45.90909" lon="4.73493">
        <ele>175</ele>
        <time>2018-07-07T11:10:11Z</time>
      </trkpt>
      <trkpt lat="45.90915" lon="4.73491">
        <ele>175</ele>
        <time>2018-07-07T11:10:12Z</time>
      </trkpt>
      <trkpt lat="45.9092" lon="4.73488">
        <ele>175</ele>
        <time>2018-07-07T11:10:13Z</time>
      </trkpt>
      <trkpt lat="45.90924" lon="4.73485">
        <ele>175</ele>
        <time>2018-07-07T11:10:14Z</time>
      </trkpt>
      <trkpt lat="45.90928" lon="4.73483">
        <ele>175</ele>
        <time>2018-07-07T11:10:15Z</time>
      </trkpt>
      <trkpt lat="45.90934" lon="4.73482">
        <ele>175</ele>
        <time>2018-07-07T11:10:16Z</time>
      </trkpt>
      <trkpt lat="45.90942" lon="4.73479">
        <ele>175</ele>
        <time>2018-07-07T11:10:18Z</time>
      </trkpt>
      <trkpt lat="45.90947" lon="4.73476">
        <ele>175</ele>
        <time>2018-07-07T11:10:19Z</time>
      </trkpt>
      <trkpt lat="45.90953" lon="4.73472">
        <ele>175</ele>
        <time>2018-07-07T11:10:20Z</time>
      </trkpt>
      <trkpt lat="45.90956" lon="4.73472">
        <ele>175</ele>
        <time>2018-07-07T11:10:21Z</time>
      </trkpt>
      <trkpt lat="45.90961" lon="4.7347">
        <ele>175</ele>
        <time>2018-07-07T11:10:22Z</time>
      </trkpt>
      <trkpt lat="45.90967" lon="4.73466">
        <ele>175</ele>
        <time>2018-07-07T11:10:23Z</time>
      </trkpt>
      <trkpt lat="45.90974" lon="4.73458">
        <ele>175</ele>
        <time>2018-07-07T11:10:24Z</time>
      </trkpt>
      <trkpt lat="45.90979" lon="4.73456">
        <ele>175</ele>
        <time>2018-07-07T11:10:25Z</time>
      </trkpt>
      <trkpt lat="45.90983" lon="4.73455">
        <ele>175</ele>
        <time>2018-07-07T11:10:26Z</time>
      </trkpt>
      <trkpt lat="45.90988" lon="4.73454">
        <ele>175</ele>
        <time>2018-07-07T11:10:27Z</time>
      </trkpt>
      <trkpt lat="45.90993" lon="4.73454">
        <ele>175</ele>
        <time>2018-07-07T11:10:28Z</time>
      </trkpt>
      <trkpt lat="45.90997" lon="4.73454">
        <ele>175</ele>
        <time>2018-07-07T11:10:29Z</time>
      </trkpt>
      <trkpt lat="45.91002" lon="4.73454">
        <ele>175</ele>
        <time>2018-07-07T11:10:30Z</time>
      </trkpt>
      <trkpt lat="45.91008" lon="4.73454">
        <ele>175</ele>
        <time>2018-07-07T11:10:31Z</time>
      </trkpt>
      <trkpt lat="45.91012" lon="4.73457">
        <ele>175</ele>
        <time>2018-07-07T11:10:32Z</time>
      </trkpt>
      <trkpt lat="45.91016" lon="4.7346">
        <ele>175</ele>
        <time>2018-07-07T11:10:33Z</time>
      </trkpt>
      <trkpt lat="45.91021" lon="4.73462">
        <ele>175</ele>
        <time>2018-07-07T11:10:34Z</time>
      </trkpt>
      <trkpt lat="45.91024" lon="4.73466">
        <ele>175</ele>
        <time>2018-07-07T11:10:35Z</time>
      </trkpt>
      <trkpt lat="45.91031" lon="4.73475">
        <ele>175</ele>
        <time>2018-07-07T11:10:37Z</time>
      </trkpt>
      <trkpt lat="45.91034" lon="4.73479">
        <ele>175</ele>
        <time>2018-07-07T11:10:38Z</time>
      </trkpt>
      <trkpt lat="45.91036" lon="4.73485">
        <ele>175</ele>
        <time>2018-07-07T11:10:39Z</time>
      </trkpt>
      <trkpt lat="45.9104" lon="4.73492">
        <ele>175</ele>
        <time>2018-07-07T11:10:40Z</time>
      </trkpt>
      <trkpt lat="45.91043" lon="4.73497">
        <ele>175</ele>
        <time>2018-07-07T11:10:41Z</time>
      </trkpt>
      <trkpt lat="45.91046" lon="4.73504">
        <ele>175</ele>
        <time>2018-07-07T11:10:42Z</time>
      </trkpt>
      <trkpt lat="45.91049" lon="4.7351">
        <ele>175</ele>
        <time>2018-07-07T11:10:43Z</time>
      </trkpt>
      <trkpt lat="45.91051" lon="4.73515">
        <ele>175</ele>
        <time>2018-07-07T11:10:44Z</time>
      </trkpt>
      <trkpt lat="45.91053" lon="4.73522">
        <ele>175</ele>
        <time>2018-07-07T11:10:45Z</time>
      </trkpt>
      <trkpt lat="45.91055" lon="4.73529">
        <ele>175</ele>
        <time>2018-07-07T11:10:46Z</time>
      </trkpt>
      <trkpt lat="45.91058" lon="4.73535">
        <ele>175</ele>
        <time>2018-07-07T11:10:47Z</time>
      </trkpt>
      <trkpt lat="45.91062" lon="4.73542">
        <ele>175</ele>
        <time>2018-07-07T11:10:48Z</time>
      </trkpt>
      <trkpt lat="45.91065" lon="4.73548">
        <ele>174</ele>
        <time>2018-07-07T11:10:49Z</time>
      </trkpt>
      <trkpt lat="45.91068" lon="4.73554">
        <ele>174</ele>
        <time>2018-07-07T11:10:50Z</time>
      </trkpt>
      <trkpt lat="45.91072" lon="4.73561">
        <ele>174</ele>
        <time>2018-07-07T11:10:51Z</time>
      </trkpt>
      <trkpt lat="45.91075" lon="4.73568">
        <ele>174</ele>
        <time>2018-07-07T11:10:52Z</time>
      </trkpt>
      <trkpt lat="45.91079" lon="4.73574">
        <ele>174</ele>
        <time>2018-07-07T11:10:53Z</time>
      </trkpt>
      <trkpt lat="45.91081" lon="4.73581">
        <ele>174</ele>
        <time>2018-07-07T11:10:54Z</time>
      </trkpt>
      <trkpt lat="45.91084" lon="4.73588">
        <ele>174</ele>
        <time>2018-07-07T11:10:55Z</time>
      </trkpt>
      <trkpt lat="45.91086" lon="4.73594">
        <ele>174</ele>
        <time>2018-07-07T11:10:56Z</time>
      </trkpt>
      <trkpt lat="45.91089" lon="4.73601">
        <ele>174</ele>
        <time>2018-07-07T11:10:57Z</time>
      </trkpt>
      <trkpt lat="45.91091" lon="4.73607">
        <ele>174</ele>
        <time>2018-07-07T11:10:58Z</time>
      </trkpt>
      <trkpt lat="45.91094" lon="4.73613">
        <ele>174</ele>
        <time>2018-07-07T11:10:59Z</time>
      </trkpt>
      <trkpt lat="45.91098" lon="4.73619">
        <ele>174</ele>
        <time>2018-07-07T11:11:00Z</time>
      </trkpt>
      <trkpt lat="45.91101" lon="4.73625">
        <ele>174</ele>
        <time>2018-07-07T11:11:01Z</time>
      </trkpt>
      <trkpt lat="45.91105" lon="4.73631">
        <ele>174</ele>
        <time>2018-07-07T11:11:02Z</time>
      </trkpt>
      <trkpt lat="45.91108" lon="4.73638">
        <ele>174</ele>
        <time>2018-07-07T11:11:03Z</time>
      </trkpt>
      <trkpt lat="45.91111" lon="4.73645">
        <ele>174</ele>
        <time>2018-07-07T11:11:04Z</time>
      </trkpt>
      <trkpt lat="45.91114" lon="4.73653">
        <ele>174</ele>
        <time>2018-07-07T11:11:05Z</time>
      </trkpt>
      <trkpt lat="45.91118" lon="4.73661">
        <ele>174</ele>
        <time>2018-07-07T11:11:06Z</time>
      </trkpt>
      <trkpt lat="45.91122" lon="4.73668">
        <ele>174</ele>
        <time>2018-07-07T11:11:07Z</time>
      </trkpt>
      <trkpt lat="45.91126" lon="4.73675">
        <ele>174</ele>
        <time>2018-07-07T11:11:08Z</time>
      </trkpt>
      <trkpt lat="45.91129" lon="4.73682">
        <ele>174</ele>
        <time>2018-07-07T11:11:09Z</time>
      </trkpt>
      <trkpt lat="45.91133" lon="4.73689">
        <ele>174</ele>
        <time>2018-07-07T11:11:10Z</time>
      </trkpt>
      <trkpt lat="45.91136" lon="4.73698">
        <ele>174</ele>
        <time>2018-07-07T11:11:11Z</time>
      </trkpt>
      <trkpt lat="45.91138" lon="4.73705">
        <ele>174</ele>
        <time>2018-07-07T11:11:12Z</time>
      </trkpt>
      <trkpt lat="45.91141" lon="4.73711">
        <ele>174</ele>
        <time>2018-07-07T11:11:13Z</time>
      </trkpt>
      <trkpt lat="45.91145" lon="4.73717">
        <ele>174</ele>
        <time>2018-07-07T11:11:14Z</time>
      </trkpt>
      <trkpt lat="45.91149" lon="4.73722">
        <ele>174</ele>
        <time>2018-07-07T11:11:15Z</time>
      </trkpt>
      <trkpt lat="45.91154" lon="4.73727">
        <ele>175</ele>
        <time>2018-07-07T11:11:16Z</time>
      </trkpt>
      <trkpt lat="45.91159" lon="4.7373">
        <ele>175</ele>
        <time>2018-07-07T11:11:17Z</time>
      </trkpt>
      <trkpt lat="45.91163" lon="4.73732">
        <ele>175</ele>
        <time>2018-07-07T11:11:18Z</time>
      </trkpt>
      <trkpt lat="45.91168" lon="4.73733">
        <ele>175</ele>
        <time>2018-07-07T11:11:19Z</time>
      </trkpt>
      <trkpt lat="45.91173" lon="4.73734">
        <ele>175</ele>
        <time>2018-07-07T11:11:20Z</time>
      </trkpt>
      <trkpt lat="45.91178" lon="4.73737">
        <ele>175</ele>
        <time>2018-07-07T11:11:21Z</time>
      </trkpt>
      <trkpt lat="45.91183" lon="4.73739">
        <ele>175</ele>
        <time>2018-07-07T11:11:22Z</time>
      </trkpt>
      <trkpt lat="45.91188" lon="4.73741">
        <ele>175</ele>
        <time>2018-07-07T11:11:23Z</time>
      </trkpt>
      <trkpt lat="45.91193" lon="4.73742">
        <ele>175</ele>
        <time>2018-07-07T11:11:24Z</time>
      </trkpt>
      <trkpt lat="45.91198" lon="4.73743">
        <ele>175</ele>
        <time>2018-07-07T11:11:25Z</time>
      </trkpt>
      <trkpt lat="45.91204" lon="4.73741">
        <ele>175</ele>
        <time>2018-07-07T11:11:26Z</time>
      </trkpt>
      <trkpt lat="45.91209" lon="4.7374">
        <ele>175</ele>
        <time>2018-07-07T11:11:27Z</time>
      </trkpt>
      <trkpt lat="45.91215" lon="4.73741">
        <ele>175</ele>
        <time>2018-07-07T11:11:28Z</time>
      </trkpt>
      <trkpt lat="45.91221" lon="4.73741">
        <ele>175</ele>
        <time>2018-07-07T11:11:29Z</time>
      </trkpt>
      <trkpt lat="45.91225" lon="4.73741">
        <ele>175</ele>
        <time>2018-07-07T11:11:30Z</time>
      </trkpt>
      <trkpt lat="45.91231" lon="4.7374">
        <ele>175</ele>
        <time>2018-07-07T11:11:31Z</time>
      </trkpt>
      <trkpt lat="45.91236" lon="4.73742">
        <ele>175</ele>
        <time>2018-07-07T11:11:32Z</time>
      </trkpt>
      <trkpt lat="45.91241" lon="4.73742">
        <ele>175</ele>
        <time>2018-07-07T11:11:33Z</time>
      </trkpt>
      <trkpt lat="45.91246" lon="4.73743">
        <ele>175</ele>
        <time>2018-07-07T11:11:34Z</time>
      </trkpt>
      <trkpt lat="45.91251" lon="4.73744">
        <ele>175</ele>
        <time>2018-07-07T11:11:35Z</time>
      </trkpt>
      <trkpt lat="45.91256" lon="4.73744">
        <ele>175</ele>
        <time>2018-07-07T11:11:36Z</time>
      </trkpt>
      <trkpt lat="45.91262" lon="4.73743">
        <ele>175</ele>
        <time>2018-07-07T11:11:37Z</time>
      </trkpt>
      <trkpt lat="45.91267" lon="4.7374">
        <ele>174</ele>
        <time>2018-07-07T11:11:38Z</time>
      </trkpt>
      <trkpt lat="45.91273" lon="4.73741">
        <ele>174</ele>
        <time>2018-07-07T11:11:39Z</time>
      </trkpt>
      <trkpt lat="45.91278" lon="4.7374">
        <ele>174</ele>
        <time>2018-07-07T11:11:40Z</time>
      </trkpt>
      <trkpt lat="45.91284" lon="4.73739">
        <ele>174</ele>
        <time>2018-07-07T11:11:41Z</time>
      </trkpt>
      <trkpt lat="45.9129" lon="4.73738">
        <ele>174</ele>
        <time>2018-07-07T11:11:42Z</time>
      </trkpt>
      <trkpt lat="45.91299" lon="4.73737">
        <ele>174</ele>
        <time>2018-07-07T11:11:44Z</time>
      </trkpt>
      <trkpt lat="45.91304" lon="4.73736">
        <ele>174</ele>
        <time>2018-07-07T11:11:45Z</time>
      </trkpt>
      <trkpt lat="45.91308" lon="4.73736">
        <ele>174</ele>
        <time>2018-07-07T11:11:46Z</time>
      </trkpt>
      <trkpt lat="45.91315" lon="4.73736">
        <ele>174</ele>
        <time>2018-07-07T11:11:47Z</time>
      </trkpt>
      <trkpt lat="45.9132" lon="4.73735">
        <ele>174</ele>
        <time>2018-07-07T11:11:48Z</time>
      </trkpt>
      <trkpt lat="45.91326" lon="4.73735">
        <ele>174</ele>
        <time>2018-07-07T11:11:49Z</time>
      </trkpt>
      <trkpt lat="45.91331" lon="4.73736">
        <ele>173</ele>
        <time>2018-07-07T11:11:50Z</time>
      </trkpt>
      <trkpt lat="45.91338" lon="4.73737">
        <ele>173</ele>
        <time>2018-07-07T11:11:51Z</time>
      </trkpt>
      <trkpt lat="45.91344" lon="4.73738">
        <ele>173</ele>
        <time>2018-07-07T11:11:52Z</time>
      </trkpt>
      <trkpt lat="45.91349" lon="4.73738">
        <ele>173</ele>
        <time>2018-07-07T11:11:53Z</time>
      </trkpt>
      <trkpt lat="45.91356" lon="4.73738">
        <ele>173</ele>
        <time>2018-07-07T11:11:54Z</time>
      </trkpt>
      <trkpt lat="45.91362" lon="4.73737">
        <ele>173</ele>
        <time>2018-07-07T11:11:55Z</time>
      </trkpt>
      <trkpt lat="45.91369" lon="4.73734">
        <ele>173</ele>
        <time>2018-07-07T11:11:56Z</time>
      </trkpt>
      <trkpt lat="45.91375" lon="4.73735">
        <ele>173</ele>
        <time>2018-07-07T11:11:57Z</time>
      </trkpt>
      <trkpt lat="45.91381" lon="4.73734">
        <ele>173</ele>
        <time>2018-07-07T11:11:58Z</time>
      </trkpt>
      <trkpt lat="45.91387" lon="4.73735">
        <ele>173</ele>
        <time>2018-07-07T11:11:59Z</time>
      </trkpt>
      <trkpt lat="45.91393" lon="4.73735">
        <ele>173</ele>
        <time>2018-07-07T11:12:00Z</time>
      </trkpt>
      <trkpt lat="45.91398" lon="4.73735">
        <ele>173</ele>
        <time>2018-07-07T11:12:01Z</time>
      </trkpt>
      <trkpt lat="45.91403" lon="4.73735">
        <ele>173</ele>
        <time>2018-07-07T11:12:02Z</time>
      </trkpt>
      <trkpt lat="45.9141" lon="4.73734">
        <ele>173</ele>
        <time>2018-07-07T11:12:03Z</time>
      </trkpt>
      <trkpt lat="45.91416" lon="4.73735">
        <ele>173</ele>
        <time>2018-07-07T11:12:04Z</time>
      </trkpt>
      <trkpt lat="45.91421" lon="4.73735">
        <ele>173</ele>
        <time>2018-07-07T11:12:05Z</time>
      </trkpt>
      <trkpt lat="45.91427" lon="4.73736">
        <ele>173</ele>
        <time>2018-07-07T11:12:06Z</time>
      </trkpt>
      <trkpt lat="45.91432" lon="4.73736">
        <ele>173</ele>
        <time>2018-07-07T11:12:07Z</time>
      </trkpt>
      <trkpt lat="45.91437" lon="4.73736">
        <ele>173</ele>
        <time>2018-07-07T11:12:08Z</time>
      </trkpt>
      <trkpt lat="45.91442" lon="4.73734">
        <ele>173</ele>
        <time>2018-07-07T11:12:09Z</time>
      </trkpt>
      <trkpt lat="45.91447" lon="4.73735">
        <ele>173</ele>
        <time>2018-07-07T11:12:10Z</time>
      </trkpt>
      <trkpt lat="45.91451" lon="4.73735">
        <ele>173</ele>
        <time>2018-07-07T11:12:11Z</time>
      </trkpt>
      <trkpt lat="45.91457" lon="4.73733">
        <ele>174</ele>
        <time>2018-07-07T11:12:12Z</time>
      </trkpt>
      <trkpt lat="45.91463" lon="4.73733">
        <ele>174</ele>
        <time>2018-07-07T11:12:13Z</time>
      </trkpt>
      <trkpt lat="45.91467" lon="4.73734">
        <ele>174</ele>
        <time>2018-07-07T11:12:14Z</time>
      </trkpt>
      <trkpt lat="45.91473" lon="4.73732">
        <ele>174</ele>
        <time>2018-07-07T11:12:15Z</time>
      </trkpt>
      <trkpt lat="45.91478" lon="4.73732">
        <ele>174</ele>
        <time>2018-07-07T11:12:16Z</time>
      </trkpt>
      <trkpt lat="45.91482" lon="4.73731">
        <ele>174</ele>
        <time>2018-07-07T11:12:17Z</time>
      </trkpt>
      <trkpt lat="45.91487" lon="4.73731">
        <ele>174</ele>
        <time>2018-07-07T11:12:18Z</time>
      </trkpt>
      <trkpt lat="45.91492" lon="4.73732">
        <ele>174</ele>
        <time>2018-07-07T11:12:19Z</time>
      </trkpt>
      <trkpt lat="45.91497" lon="4.73731">
        <ele>174</ele>
        <time>2018-07-07T11:12:20Z</time>
      </trkpt>
      <trkpt lat="45.91503" lon="4.7373">
        <ele>174</ele>
        <time>2018-07-07T11:12:21Z</time>
      </trkpt>
      <trkpt lat="45.91508" lon="4.73729">
        <ele>174</ele>
        <time>2018-07-07T11:12:22Z</time>
      </trkpt>
      <trkpt lat="45.91512" lon="4.7373">
        <ele>174</ele>
        <time>2018-07-07T11:12:23Z</time>
      </trkpt>
      <trkpt lat="45.91516" lon="4.73729">
        <ele>174</ele>
        <time>2018-07-07T11:12:24Z</time>
      </trkpt>
      <trkpt lat="45.91521" lon="4.7373">
        <ele>174</ele>
        <time>2018-07-07T11:12:25Z</time>
      </trkpt>
      <trkpt lat="45.91526" lon="4.73731">
        <ele>174</ele>
        <time>2018-07-07T11:12:26Z</time>
      </trkpt>
      <trkpt lat="45.91532" lon="4.7373">
        <ele>174</ele>
        <time>2018-07-07T11:12:27Z</time>
      </trkpt>
      <trkpt lat="45.91537" lon="4.73729">
        <ele>174</ele>
        <time>2018-07-07T11:12:28Z</time>
      </trkpt>
      <trkpt lat="45.91544" lon="4.73729">
        <ele>174</ele>
        <time>2018-07-07T11:12:29Z</time>
      </trkpt>
      <trkpt lat="45.91549" lon="4.73729">
        <ele>174</ele>
        <time>2018-07-07T11:12:30Z</time>
      </trkpt>
      <trkpt lat="45.91555" lon="4.73728">
        <ele>174</ele>
        <time>2018-07-07T11:12:31Z</time>
      </trkpt>
      <trkpt lat="45.9156" lon="4.7373">
        <ele>174</ele>
        <time>2018-07-07T11:12:32Z</time>
      </trkpt>
      <trkpt lat="45.91565" lon="4.73731">
        <ele>173</ele>
        <time>2018-07-07T11:12:33Z</time>
      </trkpt>
      <trkpt lat="45.91569" lon="4.7373">
        <ele>173</ele>
        <time>2018-07-07T11:12:34Z</time>
      </trkpt>
      <trkpt lat="45.91576" lon="4.73728">
        <ele>173</ele>
        <time>2018-07-07T11:12:35Z</time>
      </trkpt>
      <trkpt lat="45.91583" lon="4.7373">
        <ele>173</ele>
        <time>2018-07-07T11:12:37Z</time>
      </trkpt>
      <trkpt lat="45.91589" lon="4.7373">
        <ele>173</ele>
        <time>2018-07-07T11:12:38Z</time>
      </trkpt>
      <trkpt lat="45.91595" lon="4.73731">
        <ele>173</ele>
        <time>2018-07-07T11:12:39Z</time>
      </trkpt>
      <trkpt lat="45.91601" lon="4.73731">
        <ele>173</ele>
        <time>2018-07-07T11:12:40Z</time>
      </trkpt>
      <trkpt lat="45.91606" lon="4.73731">
        <ele>173</ele>
        <time>2018-07-07T11:12:41Z</time>
      </trkpt>
      <trkpt lat="45.91611" lon="4.73729">
        <ele>173</ele>
        <time>2018-07-07T11:12:42Z</time>
      </trkpt>
      <trkpt lat="45.91617" lon="4.73729">
        <ele>173</ele>
        <time>2018-07-07T11:12:43Z</time>
      </trkpt>
      <trkpt lat="45.91622" lon="4.73729">
        <ele>173</ele>
        <time>2018-07-07T11:12:44Z</time>
      </trkpt>
      <trkpt lat="45.9163" lon="4.73732">
        <ele>172</ele>
        <time>2018-07-07T11:12:46Z</time>
      </trkpt>
      <trkpt lat="45.91635" lon="4.7373">
        <ele>172</ele>
        <time>2018-07-07T11:12:47Z</time>
      </trkpt>
      <trkpt lat="45.9164" lon="4.7373">
        <ele>172</ele>
        <time>2018-07-07T11:12:48Z</time>
      </trkpt>
      <trkpt lat="45.91645" lon="4.7373">
        <ele>172</ele>
        <time>2018-07-07T11:12:49Z</time>
      </trkpt>
      <trkpt lat="45.91652" lon="4.7373">
        <ele>172</ele>
        <time>2018-07-07T11:12:50Z</time>
      </trkpt>
      <trkpt lat="45.91657" lon="4.7373">
        <ele>172</ele>
        <time>2018-07-07T11:12:51Z</time>
      </trkpt>
      <trkpt lat="45.91662" lon="4.7373">
        <ele>172</ele>
        <time>2018-07-07T11:12:52Z</time>
      </trkpt>
      <trkpt lat="45.91668" lon="4.7373">
        <ele>172</ele>
        <time>2018-07-07T11:12:53Z</time>
      </trkpt>
      <trkpt lat="45.91674" lon="4.73731">
        <ele>172</ele>
        <time>2018-07-07T11:12:54Z</time>
      </trkpt>
      <trkpt lat="45.91679" lon="4.73731">
        <ele>172</ele>
        <time>2018-07-07T11:12:55Z</time>
      </trkpt>
      <trkpt lat="45.91685" lon="4.73731">
        <ele>172</ele>
        <time>2018-07-07T11:12:56Z</time>
      </trkpt>
      <trkpt lat="45.9169" lon="4.73731">
        <ele>172</ele>
        <time>2018-07-07T11:12:57Z</time>
      </trkpt>
      <trkpt lat="45.91695" lon="4.73732">
        <ele>172</ele>
        <time>2018-07-07T11:12:58Z</time>
      </trkpt>
      <trkpt lat="45.91701" lon="4.73732">
        <ele>172</ele>
        <time>2018-07-07T11:12:59Z</time>
      </trkpt>
      <trkpt lat="45.91705" lon="4.73734">
        <ele>172</ele>
        <time>2018-07-07T11:13:00Z</time>
      </trkpt>
      <trkpt lat="45.91711" lon="4.73735">
        <ele>173</ele>
        <time>2018-07-07T11:13:01Z</time>
      </trkpt>
      <trkpt lat="45.91716" lon="4.73735">
        <ele>173</ele>
        <time>2018-07-07T11:13:02Z</time>
      </trkpt>
      <trkpt lat="45.91721" lon="4.73736">
        <ele>173</ele>
        <time>2018-07-07T11:13:03Z</time>
      </trkpt>
      <trkpt lat="45.91726" lon="4.73736">
        <ele>173</ele>
        <time>2018-07-07T11:13:04Z</time>
      </trkpt>
      <trkpt lat="45.91731" lon="4.73736">
        <ele>173</ele>
        <time>2018-07-07T11:13:05Z</time>
      </trkpt>
      <trkpt lat="45.91736" lon="4.73738">
        <ele>173</ele>
        <time>2018-07-07T11:13:06Z</time>
      </trkpt>
      <trkpt lat="45.91741" lon="4.73736">
        <ele>173</ele>
        <time>2018-07-07T11:13:07Z</time>
      </trkpt>
      <trkpt lat="45.91746" lon="4.73736">
        <ele>173</ele>
        <time>2018-07-07T11:13:08Z</time>
      </trkpt>
      <trkpt lat="45.91752" lon="4.73735">
        <ele>173</ele>
        <time>2018-07-07T11:13:09Z</time>
      </trkpt>
      <trkpt lat="45.91756" lon="4.73735">
        <ele>173</ele>
        <time>2018-07-07T11:13:10Z</time>
      </trkpt>
      <trkpt lat="45.91761" lon="4.73734">
        <ele>173</ele>
        <time>2018-07-07T11:13:11Z</time>
      </trkpt>
      <trkpt lat="45.91768" lon="4.73736">
        <ele>173</ele>
        <time>2018-07-07T11:13:12Z</time>
      </trkpt>
      <trkpt lat="45.91773" lon="4.73736">
        <ele>173</ele>
        <time>2018-07-07T11:13:13Z</time>
      </trkpt>
      <trkpt lat="45.91779" lon="4.73736">
        <ele>173</ele>
        <time>2018-07-07T11:13:15Z</time>
      </trkpt>
      <trkpt lat="45.91785" lon="4.73736">
        <ele>173</ele>
        <time>2018-07-07T11:13:16Z</time>
      </trkpt>
      <trkpt lat="45.91791" lon="4.73735">
        <ele>173</ele>
        <time>2018-07-07T11:13:17Z</time>
      </trkpt>
      <trkpt lat="45.91796" lon="4.73734">
        <ele>172</ele>
        <time>2018-07-07T11:13:18Z</time>
      </trkpt>
      <trkpt lat="45.918" lon="4.73734">
        <ele>172</ele>
        <time>2018-07-07T11:13:19Z</time>
      </trkpt>
      <trkpt lat="45.91805" lon="4.73733">
        <ele>172</ele>
        <time>2018-07-07T11:13:20Z</time>
      </trkpt>
      <trkpt lat="45.9181" lon="4.73732">
        <ele>172</ele>
        <time>2018-07-07T11:13:21Z</time>
      </trkpt>
      <trkpt lat="45.91815" lon="4.73733">
        <ele>172</ele>
        <time>2018-07-07T11:13:22Z</time>
      </trkpt>
      <trkpt lat="45.9182" lon="4.73735">
        <ele>172</ele>
        <time>2018-07-07T11:13:23Z</time>
      </trkpt>
      <trkpt lat="45.91825" lon="4.73735">
        <ele>172</ele>
        <time>2018-07-07T11:13:24Z</time>
      </trkpt>
      <trkpt lat="45.91831" lon="4.73735">
        <ele>172</ele>
        <time>2018-07-07T11:13:25Z</time>
      </trkpt>
      <trkpt lat="45.91836" lon="4.73735">
        <ele>172</ele>
        <time>2018-07-07T11:13:26Z</time>
      </trkpt>
      <trkpt lat="45.91841" lon="4.73734">
        <ele>172</ele>
        <time>2018-07-07T11:13:27Z</time>
      </trkpt>
      <trkpt lat="45.91848" lon="4.73732">
        <ele>172</ele>
        <time>2018-07-07T11:13:28Z</time>
      </trkpt>
      <trkpt lat="45.91853" lon="4.73732">
        <ele>171</ele>
        <time>2018-07-07T11:13:29Z</time>
      </trkpt>
      <trkpt lat="45.91858" lon="4.73731">
        <ele>171</ele>
        <time>2018-07-07T11:13:30Z</time>
      </trkpt>
      <trkpt lat="45.91863" lon="4.7373">
        <ele>171</ele>
        <time>2018-07-07T11:13:31Z</time>
      </trkpt>
      <trkpt lat="45.91868" lon="4.7373">
        <ele>171</ele>
        <time>2018-07-07T11:13:32Z</time>
      </trkpt>
      <trkpt lat="45.91874" lon="4.73731">
        <ele>171</ele>
        <time>2018-07-07T11:13:33Z</time>
      </trkpt>
      <trkpt lat="45.9188" lon="4.73731">
        <ele>171</ele>
        <time>2018-07-07T11:13:34Z</time>
      </trkpt>
      <trkpt lat="45.91885" lon="4.73731">
        <ele>171</ele>
        <time>2018-07-07T11:13:35Z</time>
      </trkpt>
      <trkpt lat="45.9189" lon="4.7373">
        <ele>171</ele>
        <time>2018-07-07T11:13:36Z</time>
      </trkpt>
      <trkpt lat="45.91896" lon="4.73729">
        <ele>171</ele>
        <time>2018-07-07T11:13:37Z</time>
      </trkpt>
      <trkpt lat="45.91901" lon="4.73729">
        <ele>171</ele>
        <time>2018-07-07T11:13:38Z</time>
      </trkpt>
      <trkpt lat="45.91909" lon="4.73729">
        <ele>171</ele>
        <time>2018-07-07T11:13:40Z</time>
      </trkpt>
      <trkpt lat="45.91914" lon="4.73729">
        <ele>171</ele>
        <time>2018-07-07T11:13:41Z</time>
      </trkpt>
      <trkpt lat="45.91919" lon="4.73729">
        <ele>170</ele>
        <time>2018-07-07T11:13:42Z</time>
      </trkpt>
      <trkpt lat="45.91923" lon="4.73727">
        <ele>170</ele>
        <time>2018-07-07T11:13:43Z</time>
      </trkpt>
      <trkpt lat="45.91929" lon="4.73727">
        <ele>170</ele>
        <time>2018-07-07T11:13:44Z</time>
      </trkpt>
      <trkpt lat="45.91934" lon="4.73726">
        <ele>170</ele>
        <time>2018-07-07T11:13:45Z</time>
      </trkpt>
      <trkpt lat="45.91939" lon="4.73727">
        <ele>170</ele>
        <time>2018-07-07T11:13:46Z</time>
      </trkpt>
      <trkpt lat="45.91944" lon="4.73726">
        <ele>170</ele>
        <time>2018-07-07T11:13:47Z</time>
      </trkpt>
      <trkpt lat="45.91949" lon="4.73725">
        <ele>170</ele>
        <time>2018-07-07T11:13:48Z</time>
      </trkpt>
      <trkpt lat="45.91954" lon="4.73726">
        <ele>170</ele>
        <time>2018-07-07T11:13:49Z</time>
      </trkpt>
      <trkpt lat="45.91962" lon="4.73725">
        <ele>171</ele>
        <time>2018-07-07T11:13:51Z</time>
      </trkpt>
      <trkpt lat="45.91967" lon="4.73725">
        <ele>171</ele>
        <time>2018-07-07T11:13:52Z</time>
      </trkpt>
      <trkpt lat="45.91972" lon="4.73725">
        <ele>171</ele>
        <time>2018-07-07T11:13:53Z</time>
      </trkpt>
      <trkpt lat="45.91977" lon="4.73727">
        <ele>171</ele>
        <time>2018-07-07T11:13:54Z</time>
      </trkpt>
      <trkpt lat="45.91983" lon="4.73726">
        <ele>171</ele>
        <time>2018-07-07T11:13:55Z</time>
      </trkpt>
      <trkpt lat="45.91989" lon="4.73726">
        <ele>171</ele>
        <time>2018-07-07T11:13:56Z</time>
      </trkpt>
      <trkpt lat="45.91997" lon="4.73725">
        <ele>171</ele>
        <time>2018-07-07T11:13:58Z</time>
      </trkpt>
      <trkpt lat="45.92002" lon="4.73725">
        <ele>171</ele>
        <time>2018-07-07T11:13:59Z</time>
      </trkpt>
      <trkpt lat="45.92007" lon="4.73726">
        <ele>171</ele>
        <time>2018-07-07T11:14:00Z</time>
      </trkpt>
      <trkpt lat="45.92012" lon="4.73726">
        <ele>171</ele>
        <time>2018-07-07T11:14:01Z</time>
      </trkpt>
      <trkpt lat="45.92017" lon="4.73726">
        <ele>171</ele>
        <time>2018-07-07T11:14:02Z</time>
      </trkpt>
      <trkpt lat="45.92022" lon="4.73726">
        <ele>171</ele>
        <time>2018-07-07T11:14:03Z</time>
      </trkpt>
      <trkpt lat="45.92028" lon="4.73725">
        <ele>171</ele>
        <time>2018-07-07T11:14:04Z</time>
      </trkpt>
      <trkpt lat="45.92033" lon="4.73725">
        <ele>171</ele>
        <time>2018-07-07T11:14:05Z</time>
      </trkpt>
      <trkpt lat="45.92038" lon="4.73724">
        <ele>171</ele>
        <time>2018-07-07T11:14:06Z</time>
      </trkpt>
      <trkpt lat="45.92043" lon="4.73724">
        <ele>171</ele>
        <time>2018-07-07T11:14:07Z</time>
      </trkpt>
      <trkpt lat="45.92049" lon="4.73724">
        <ele>171</ele>
        <time>2018-07-07T11:14:08Z</time>
      </trkpt>
      <trkpt lat="45.92053" lon="4.73725">
        <ele>171</ele>
        <time>2018-07-07T11:14:09Z</time>
      </trkpt>
      <trkpt lat="45.92058" lon="4.73725">
        <ele>171</ele>
        <time>2018-07-07T11:14:10Z</time>
      </trkpt>
      <trkpt lat="45.92063" lon="4.73723">
        <ele>171</ele>
        <time>2018-07-07T11:14:11Z</time>
      </trkpt>
      <trkpt lat="45.92068" lon="4.73722">
        <ele>171</ele>
        <time>2018-07-07T11:14:12Z</time>
      </trkpt>
      <trkpt lat="45.92073" lon="4.73722">
        <ele>171</ele>
        <time>2018-07-07T11:14:13Z</time>
      </trkpt>
      <trkpt lat="45.92078" lon="4.73721">
        <ele>171</ele>
        <time>2018-07-07T11:14:14Z</time>
      </trkpt>
      <trkpt lat="45.92082" lon="4.73721">
        <ele>171</ele>
        <time>2018-07-07T11:14:15Z</time>
      </trkpt>
      <trkpt lat="45.92091" lon="4.73721">
        <ele>171</ele>
        <time>2018-07-07T11:14:17Z</time>
      </trkpt>
      <trkpt lat="45.92097" lon="4.7372">
        <ele>171</ele>
        <time>2018-07-07T11:14:18Z</time>
      </trkpt>
      <trkpt lat="45.92102" lon="4.73717">
        <ele>171</ele>
        <time>2018-07-07T11:14:19Z</time>
      </trkpt>
      <trkpt lat="45.92107" lon="4.73716">
        <ele>171</ele>
        <time>2018-07-07T11:14:20Z</time>
      </trkpt>
      <trkpt lat="45.92116" lon="4.73712">
        <ele>171</ele>
        <time>2018-07-07T11:14:22Z</time>
      </trkpt>
      <trkpt lat="45.9212" lon="4.73712">
        <ele>171</ele>
        <time>2018-07-07T11:14:23Z</time>
      </trkpt>
      <trkpt lat="45.92125" lon="4.73711">
        <ele>171</ele>
        <time>2018-07-07T11:14:24Z</time>
      </trkpt>
      <trkpt lat="45.92129" lon="4.73709">
        <ele>171</ele>
        <time>2018-07-07T11:14:25Z</time>
      </trkpt>
      <trkpt lat="45.92138" lon="4.73707">
        <ele>171</ele>
        <time>2018-07-07T11:14:27Z</time>
      </trkpt>
      <trkpt lat="45.92143" lon="4.73705">
        <ele>171</ele>
        <time>2018-07-07T11:14:28Z</time>
      </trkpt>
      <trkpt lat="45.92148" lon="4.73705">
        <ele>171</ele>
        <time>2018-07-07T11:14:29Z</time>
      </trkpt>
      <trkpt lat="45.92153" lon="4.73705">
        <ele>171</ele>
        <time>2018-07-07T11:14:30Z</time>
      </trkpt>
      <trkpt lat="45.92158" lon="4.73703">
        <ele>171</ele>
        <time>2018-07-07T11:14:31Z</time>
      </trkpt>
      <trkpt lat="45.92163" lon="4.737">
        <ele>171</ele>
        <time>2018-07-07T11:14:32Z</time>
      </trkpt>
      <trkpt lat="45.92168" lon="4.73698">
        <ele>171</ele>
        <time>2018-07-07T11:14:33Z</time>
      </trkpt>
      <trkpt lat="45.92173" lon="4.73697">
        <ele>171</ele>
        <time>2018-07-07T11:14:34Z</time>
      </trkpt>
      <trkpt lat="45.92179" lon="4.73694">
        <ele>171</ele>
        <time>2018-07-07T11:14:35Z</time>
      </trkpt>
      <trkpt lat="45.92184" lon="4.73691">
        <ele>171</ele>
        <time>2018-07-07T11:14:36Z</time>
      </trkpt>
      <trkpt lat="45.92188" lon="4.73689">
        <ele>171</ele>
        <time>2018-07-07T11:14:37Z</time>
      </trkpt>
      <trkpt lat="45.92193" lon="4.73687">
        <ele>171</ele>
        <time>2018-07-07T11:14:38Z</time>
      </trkpt>
      <trkpt lat="45.92198" lon="4.73685">
        <ele>171</ele>
        <time>2018-07-07T11:14:39Z</time>
      </trkpt>
      <trkpt lat="45.92202" lon="4.73682">
        <ele>171</ele>
        <time>2018-07-07T11:14:40Z</time>
      </trkpt>
      <trkpt lat="45.92209" lon="4.73678">
        <ele>171</ele>
        <time>2018-07-07T11:14:42Z</time>
      </trkpt>
      <trkpt lat="45.92214" lon="4.73677">
        <ele>171</ele>
        <time>2018-07-07T11:14:43Z</time>
      </trkpt>
      <trkpt lat="45.92219" lon="4.7367">
        <ele>171</ele>
        <time>2018-07-07T11:14:44Z</time>
      </trkpt>
      <trkpt lat="45.92224" lon="4.73667">
        <ele>171</ele>
        <time>2018-07-07T11:14:45Z</time>
      </trkpt>
      <trkpt lat="45.92229" lon="4.73664">
        <ele>171</ele>
        <time>2018-07-07T11:14:46Z</time>
      </trkpt>
      <trkpt lat="45.92233" lon="4.73663">
        <ele>171</ele>
        <time>2018-07-07T11:14:47Z</time>
      </trkpt>
      <trkpt lat="45.9224" lon="4.73659">
        <ele>171</ele>
        <time>2018-07-07T11:14:49Z</time>
      </trkpt>
      <trkpt lat="45.92243" lon="4.73653">
        <ele>171</ele>
        <time>2018-07-07T11:14:50Z</time>
      </trkpt>
      <trkpt lat="45.9225" lon="4.7365">
        <ele>171</ele>
        <time>2018-07-07T11:14:52Z</time>
      </trkpt>
      <trkpt lat="45.92254" lon="4.73649">
        <ele>171</ele>
        <time>2018-07-07T11:14:53Z</time>
      </trkpt>
      <trkpt lat="45.92258" lon="4.73649">
        <ele>171</ele>
        <time>2018-07-07T11:14:54Z</time>
      </trkpt>
      <trkpt lat="45.92264" lon="4.73645">
        <ele>172</ele>
        <time>2018-07-07T11:14:55Z</time>
      </trkpt>
      <trkpt lat="45.92272" lon="4.73642">
        <ele>172</ele>
        <time>2018-07-07T11:14:57Z</time>
      </trkpt>
      <trkpt lat="45.92275" lon="4.73639">
        <ele>172</ele>
        <time>2018-07-07T11:14:58Z</time>
      </trkpt>
      <trkpt lat="45.9228" lon="4.73636">
        <ele>172</ele>
        <time>2018-07-07T11:14:59Z</time>
      </trkpt>
      <trkpt lat="45.92283" lon="4.73632">
        <ele>172</ele>
        <time>2018-07-07T11:15:00Z</time>
      </trkpt>
      <trkpt lat="45.92287" lon="4.73632">
        <ele>172</ele>
        <time>2018-07-07T11:15:01Z</time>
      </trkpt>
      <trkpt lat="45.92293" lon="4.73627">
        <ele>172</ele>
        <time>2018-07-07T11:15:02Z</time>
      </trkpt>
      <trkpt lat="45.92298" lon="4.73625">
        <ele>172</ele>
        <time>2018-07-07T11:15:03Z</time>
      </trkpt>
      <trkpt lat="45.92303" lon="4.73621">
        <ele>172</ele>
        <time>2018-07-07T11:15:04Z</time>
      </trkpt>
      <trkpt lat="45.92308" lon="4.73619">
        <ele>172</ele>
        <time>2018-07-07T11:15:05Z</time>
      </trkpt>
      <trkpt lat="45.92313" lon="4.73617">
        <ele>172</ele>
        <time>2018-07-07T11:15:06Z</time>
      </trkpt>
      <trkpt lat="45.92322" lon="4.73614">
        <ele>172</ele>
        <time>2018-07-07T11:15:08Z</time>
      </trkpt>
      <trkpt lat="45.92327" lon="4.73612">
        <ele>172</ele>
        <time>2018-07-07T11:15:09Z</time>
      </trkpt>
      <trkpt lat="45.92332" lon="4.7361">
        <ele>172</ele>
        <time>2018-07-07T11:15:10Z</time>
      </trkpt>
      <trkpt lat="45.92336" lon="4.73607">
        <ele>173</ele>
        <time>2018-07-07T11:15:11Z</time>
      </trkpt>
      <trkpt lat="45.9234" lon="4.73606">
        <ele>173</ele>
        <time>2018-07-07T11:15:12Z</time>
      </trkpt>
      <trkpt lat="45.92346" lon="4.73603">
        <ele>173</ele>
        <time>2018-07-07T11:15:13Z</time>
      </trkpt>
      <trkpt lat="45.92351" lon="4.736">
        <ele>173</ele>
        <time>2018-07-07T11:15:14Z</time>
      </trkpt>
      <trkpt lat="45.92357" lon="4.73596">
        <ele>173</ele>
        <time>2018-07-07T11:15:15Z</time>
      </trkpt>
      <trkpt lat="45.92363" lon="4.73594">
        <ele>173</ele>
        <time>2018-07-07T11:15:16Z</time>
      </trkpt>
      <trkpt lat="45.92367" lon="4.73592">
        <ele>173</ele>
        <time>2018-07-07T11:15:17Z</time>
      </trkpt>
      <trkpt lat="45.92373" lon="4.7359">
        <ele>173</ele>
        <time>2018-07-07T11:15:18Z</time>
      </trkpt>
      <trkpt lat="45.92379" lon="4.73586">
        <ele>173</ele>
        <time>2018-07-07T11:15:19Z</time>
      </trkpt>
      <trkpt lat="45.92384" lon="4.73584">
        <ele>173</ele>
        <time>2018-07-07T11:15:20Z</time>
      </trkpt>
      <trkpt lat="45.92389" lon="4.73581">
        <ele>173</ele>
        <time>2018-07-07T11:15:21Z</time>
      </trkpt>
      <trkpt lat="45.92394" lon="4.7358">
        <ele>173</ele>
        <time>2018-07-07T11:15:23Z</time>
      </trkpt>
      <trkpt lat="45.92399" lon="4.73575">
        <ele>173</ele>
        <time>2018-07-07T11:15:24Z</time>
      </trkpt>
      <trkpt lat="45.92403" lon="4.73573">
        <ele>173</ele>
        <time>2018-07-07T11:15:25Z</time>
      </trkpt>
      <trkpt lat="45.92408" lon="4.73571">
        <ele>173</ele>
        <time>2018-07-07T11:15:26Z</time>
      </trkpt>
      <trkpt lat="45.92414" lon="4.73569">
        <ele>173</ele>
        <time>2018-07-07T11:15:27Z</time>
      </trkpt>
      <trkpt lat="45.92419" lon="4.73568">
        <ele>174</ele>
        <time>2018-07-07T11:15:28Z</time>
      </trkpt>
      <trkpt lat="45.92427" lon="4.73564">
        <ele>174</ele>
        <time>2018-07-07T11:15:30Z</time>
      </trkpt>
      <trkpt lat="45.92432" lon="4.73562">
        <ele>174</ele>
        <time>2018-07-07T11:15:31Z</time>
      </trkpt>
      <trkpt lat="45.92438" lon="4.73556">
        <ele>174</ele>
        <time>2018-07-07T11:15:33Z</time>
      </trkpt>
      <trkpt lat="45.92443" lon="4.73553">
        <ele>174</ele>
        <time>2018-07-07T11:15:34Z</time>
      </trkpt>
      <trkpt lat="45.92447" lon="4.73552">
        <ele>174</ele>
        <time>2018-07-07T11:15:36Z</time>
      </trkpt>
      <trkpt lat="45.92455" lon="4.73549">
        <ele>174</ele>
        <time>2018-07-07T11:15:37Z</time>
      </trkpt>
      <trkpt lat="45.92463" lon="4.73552">
        <ele>173</ele>
        <time>2018-07-07T11:15:39Z</time>
      </trkpt>
      <trkpt lat="45.92466" lon="4.73556">
        <ele>173</ele>
        <time>2018-07-07T11:15:40Z</time>
      </trkpt>
      <trkpt lat="45.92462" lon="4.73564">
        <ele>173</ele>
        <time>2018-07-07T11:15:41Z</time>
      </trkpt>
      <trkpt lat="45.92463" lon="4.73571">
        <ele>173</ele>
        <time>2018-07-07T11:15:42Z</time>
      </trkpt>
      <trkpt lat="45.92463" lon="4.73577">
        <ele>173</ele>
        <time>2018-07-07T11:15:43Z</time>
      </trkpt>
      <trkpt lat="45.92462" lon="4.73585">
        <ele>174</ele>
        <time>2018-07-07T11:15:44Z</time>
      </trkpt>
      <trkpt lat="45.92462" lon="4.73593">
        <ele>174</ele>
        <time>2018-07-07T11:15:45Z</time>
      </trkpt>
      <trkpt lat="45.92463" lon="4.73601">
        <ele>174</ele>
        <time>2018-07-07T11:15:46Z</time>
      </trkpt>
      <trkpt lat="45.92464" lon="4.73608">
        <ele>174</ele>
        <time>2018-07-07T11:15:47Z</time>
      </trkpt>
      <trkpt lat="45.92464" lon="4.73615">
        <ele>174</ele>
        <time>2018-07-07T11:15:48Z</time>
      </trkpt>
      <trkpt lat="45.92465" lon="4.73622">
        <ele>174</ele>
        <time>2018-07-07T11:15:49Z</time>
      </trkpt>
      <trkpt lat="45.92465" lon="4.73628">
        <ele>174</ele>
        <time>2018-07-07T11:15:50Z</time>
      </trkpt>
      <trkpt lat="45.92466" lon="4.7364">
        <ele>174</ele>
        <time>2018-07-07T11:15:52Z</time>
      </trkpt>
      <trkpt lat="45.92466" lon="4.73646">
        <ele>174</ele>
        <time>2018-07-07T11:15:53Z</time>
      </trkpt>
      <trkpt lat="45.92466" lon="4.73658">
        <ele>174</ele>
        <time>2018-07-07T11:15:55Z</time>
      </trkpt>
      <trkpt lat="45.92464" lon="4.73661">
        <ele>174</ele>
        <time>2018-07-07T11:15:56Z</time>
      </trkpt>
      <trkpt lat="45.92462" lon="4.73671">
        <ele>174</ele>
        <time>2018-07-07T11:15:58Z</time>
      </trkpt>
      <trkpt lat="45.92462" lon="4.73676">
        <ele>174</ele>
        <time>2018-07-07T11:15:59Z</time>
      </trkpt>
      <trkpt lat="45.9246" lon="4.73682">
        <ele>174</ele>
        <time>2018-07-07T11:16:01Z</time>
      </trkpt>
      <trkpt lat="45.92459" lon="4.73692">
        <ele>174</ele>
        <time>2018-07-07T11:16:02Z</time>
      </trkpt>
      <trkpt lat="45.92457" lon="4.73705">
        <ele>174</ele>
        <time>2018-07-07T11:16:13Z</time>
      </trkpt>
      <trkpt lat="45.92457" lon="4.73705">
        <ele>174</ele>
        <time>2018-07-07T11:16:14Z</time>
      </trkpt>
      <trkpt lat="45.92455" lon="4.7371">
        <ele>174</ele>
        <time>2018-07-07T11:16:40.996Z</time>
      </trkpt>
    </trkseg>
  </trk>
</gpx>